<?xml version="1.0" encoding="UTF-8" standalone="no" ?>
<gpx xmlns="http://www.topografix.com/GPX/1/1" xmlns:xsi="http://www.w3.org/2001/XMLSchema-instance" xsi:schemaLocation="http://www.topografix.com/GPX/1/1 http://www.topografix.com/GPX/1/1/gpx.xsd" version="1.1" creator="VisuGPX - https://www.visugpx.com">
  <metadata>
    <name>28/05 Trace Vosgienne</name>
    <desc><![CDATA[

]]></desc>
  </metadata>
  <trk>
    <name><![CDATA[28/05 Trace Vosgienne]]></name>
    <extensions>
      <line xmlns="http://www.topografix.com/GPX/gpx_style/0/2">
        <color>FF0000</color>
        <width>4</width>
      </line>
    </extensions>
    <trkseg>
      <trkpt lat="48.03601" lon="6.9249">
        <ele>848.729309</ele>
        <time>2022-05-28T06:39:09Z</time>
      </trkpt>
      <trkpt lat="48.03602" lon="6.9249">
        <ele>848.478394</ele>
        <time>2022-05-28T06:39:26Z</time>
      </trkpt>
      <trkpt lat="48.03602" lon="6.9249">
        <ele>848.5</ele>
        <time>2022-05-28T06:39:29Z</time>
      </trkpt>
      <trkpt lat="48.03605" lon="6.92503">
        <ele>846.9</ele>
        <time>2022-05-28T06:39:58Z</time>
      </trkpt>
      <trkpt lat="48.03611" lon="6.92514">
        <ele>846</ele>
        <time>2022-05-28T06:40:01Z</time>
      </trkpt>
      <trkpt lat="48.03619" lon="6.92528">
        <ele>845.2</ele>
        <time>2022-05-28T06:40:04Z</time>
      </trkpt>
      <trkpt lat="48.03625" lon="6.9254">
        <ele>845</ele>
        <time>2022-05-28T06:40:06Z</time>
      </trkpt>
      <trkpt lat="48.03632" lon="6.92551">
        <ele>845.3</ele>
        <time>2022-05-28T06:40:08Z</time>
      </trkpt>
      <trkpt lat="48.03638" lon="6.92561">
        <ele>845.9</ele>
        <time>2022-05-28T06:40:10Z</time>
      </trkpt>
      <trkpt lat="48.03646" lon="6.92573">
        <ele>846.2</ele>
        <time>2022-05-28T06:40:13Z</time>
      </trkpt>
      <trkpt lat="48.03649" lon="6.92587">
        <ele>846.3</ele>
        <time>2022-05-28T06:40:16Z</time>
      </trkpt>
      <trkpt lat="48.03651" lon="6.92603">
        <ele>845.2</ele>
        <time>2022-05-28T06:40:19Z</time>
      </trkpt>
      <trkpt lat="48.03653" lon="6.92618">
        <ele>845.2</ele>
        <time>2022-05-28T06:40:22Z</time>
      </trkpt>
      <trkpt lat="48.03659" lon="6.92633">
        <ele>847</ele>
        <time>2022-05-28T06:40:26Z</time>
      </trkpt>
      <trkpt lat="48.03664" lon="6.92643">
        <ele>848.1</ele>
        <time>2022-05-28T06:40:30Z</time>
      </trkpt>
      <trkpt lat="48.0367" lon="6.92654">
        <ele>849.1</ele>
        <time>2022-05-28T06:40:34Z</time>
      </trkpt>
      <trkpt lat="48.03678" lon="6.92661">
        <ele>850.4</ele>
        <time>2022-05-28T06:40:38Z</time>
      </trkpt>
      <trkpt lat="48.03688" lon="6.92663">
        <ele>850.3</ele>
        <time>2022-05-28T06:40:42Z</time>
      </trkpt>
      <trkpt lat="48.03698" lon="6.92661">
        <ele>851.5</ele>
        <time>2022-05-28T06:40:47Z</time>
      </trkpt>
      <trkpt lat="48.03707" lon="6.9266">
        <ele>851.6</ele>
        <time>2022-05-28T06:40:52Z</time>
      </trkpt>
      <trkpt lat="48.03717" lon="6.92657">
        <ele>852.3</ele>
        <time>2022-05-28T06:40:57Z</time>
      </trkpt>
      <trkpt lat="48.03728" lon="6.92657">
        <ele>852.4</ele>
        <time>2022-05-28T06:41:02Z</time>
      </trkpt>
      <trkpt lat="48.03738" lon="6.92663">
        <ele>853.5</ele>
        <time>2022-05-28T06:41:07Z</time>
      </trkpt>
      <trkpt lat="48.03747" lon="6.92671">
        <ele>853.3</ele>
        <time>2022-05-28T06:41:12Z</time>
      </trkpt>
      <trkpt lat="48.03756" lon="6.92681">
        <ele>854.8</ele>
        <time>2022-05-28T06:41:17Z</time>
      </trkpt>
      <trkpt lat="48.03764" lon="6.9269">
        <ele>855.1</ele>
        <time>2022-05-28T06:41:21Z</time>
      </trkpt>
      <trkpt lat="48.03772" lon="6.927">
        <ele>855.4</ele>
        <time>2022-05-28T06:41:26Z</time>
      </trkpt>
      <trkpt lat="48.03778" lon="6.92709">
        <ele>855.5</ele>
        <time>2022-05-28T06:41:31Z</time>
      </trkpt>
      <trkpt lat="48.03786" lon="6.92717">
        <ele>855</ele>
        <time>2022-05-28T06:41:35Z</time>
      </trkpt>
      <trkpt lat="48.03793" lon="6.92728">
        <ele>856.9</ele>
        <time>2022-05-28T06:41:39Z</time>
      </trkpt>
      <trkpt lat="48.038" lon="6.92738">
        <ele>856.6</ele>
        <time>2022-05-28T06:41:42Z</time>
      </trkpt>
      <trkpt lat="48.03808" lon="6.92747">
        <ele>856.8</ele>
        <time>2022-05-28T06:41:45Z</time>
      </trkpt>
      <trkpt lat="48.03815" lon="6.92755">
        <ele>857.6</ele>
        <time>2022-05-28T06:41:48Z</time>
      </trkpt>
      <trkpt lat="48.03824" lon="6.92766">
        <ele>857.8</ele>
        <time>2022-05-28T06:41:52Z</time>
      </trkpt>
      <trkpt lat="48.03831" lon="6.92776">
        <ele>858.9</ele>
        <time>2022-05-28T06:41:56Z</time>
      </trkpt>
      <trkpt lat="48.0384" lon="6.92785">
        <ele>859.9</ele>
        <time>2022-05-28T06:42:01Z</time>
      </trkpt>
      <trkpt lat="48.03849" lon="6.9279">
        <ele>860.4</ele>
        <time>2022-05-28T06:42:05Z</time>
      </trkpt>
      <trkpt lat="48.03857" lon="6.92795">
        <ele>860.4</ele>
        <time>2022-05-28T06:42:08Z</time>
      </trkpt>
      <trkpt lat="48.03867" lon="6.928">
        <ele>861.7</ele>
        <time>2022-05-28T06:42:12Z</time>
      </trkpt>
      <trkpt lat="48.03877" lon="6.92806">
        <ele>861.9</ele>
        <time>2022-05-28T06:42:17Z</time>
      </trkpt>
      <trkpt lat="48.03887" lon="6.92812">
        <ele>862.7</ele>
        <time>2022-05-28T06:42:22Z</time>
      </trkpt>
      <trkpt lat="48.03895" lon="6.92819">
        <ele>863.4</ele>
        <time>2022-05-28T06:42:26Z</time>
      </trkpt>
      <trkpt lat="48.03905" lon="6.92825">
        <ele>864.4</ele>
        <time>2022-05-28T06:42:31Z</time>
      </trkpt>
      <trkpt lat="48.03916" lon="6.92832">
        <ele>865.1</ele>
        <time>2022-05-28T06:42:35Z</time>
      </trkpt>
      <trkpt lat="48.03924" lon="6.92837">
        <ele>865.7</ele>
        <time>2022-05-28T06:42:38Z</time>
      </trkpt>
      <trkpt lat="48.03933" lon="6.92846">
        <ele>866.3</ele>
        <time>2022-05-28T06:42:42Z</time>
      </trkpt>
      <trkpt lat="48.0394" lon="6.92856">
        <ele>866.8</ele>
        <time>2022-05-28T06:42:46Z</time>
      </trkpt>
      <trkpt lat="48.03946" lon="6.92867">
        <ele>867.7</ele>
        <time>2022-05-28T06:42:50Z</time>
      </trkpt>
      <trkpt lat="48.03951" lon="6.92879">
        <ele>868.5</ele>
        <time>2022-05-28T06:42:54Z</time>
      </trkpt>
      <trkpt lat="48.03958" lon="6.92891">
        <ele>868.8</ele>
        <time>2022-05-28T06:42:58Z</time>
      </trkpt>
      <trkpt lat="48.03965" lon="6.929">
        <ele>870</ele>
        <time>2022-05-28T06:43:03Z</time>
      </trkpt>
      <trkpt lat="48.03975" lon="6.92902">
        <ele>871.6</ele>
        <time>2022-05-28T06:43:10Z</time>
      </trkpt>
      <trkpt lat="48.03984" lon="6.92898">
        <ele>873</ele>
        <time>2022-05-28T06:43:18Z</time>
      </trkpt>
      <trkpt lat="48.03993" lon="6.92894">
        <ele>875.3</ele>
        <time>2022-05-28T06:43:25Z</time>
      </trkpt>
      <trkpt lat="48.04002" lon="6.92892">
        <ele>876.7</ele>
        <time>2022-05-28T06:43:31Z</time>
      </trkpt>
      <trkpt lat="48.04013" lon="6.92892">
        <ele>877.5</ele>
        <time>2022-05-28T06:43:38Z</time>
      </trkpt>
      <trkpt lat="48.04022" lon="6.92892">
        <ele>878.6</ele>
        <time>2022-05-28T06:43:44Z</time>
      </trkpt>
      <trkpt lat="48.04032" lon="6.92895">
        <ele>879.7</ele>
        <time>2022-05-28T06:43:52Z</time>
      </trkpt>
      <trkpt lat="48.04038" lon="6.92896">
        <ele>881.5</ele>
        <time>2022-05-28T06:43:59Z</time>
      </trkpt>
      <trkpt lat="48.04049" lon="6.92891">
        <ele>881.7</ele>
        <time>2022-05-28T06:44:06Z</time>
      </trkpt>
      <trkpt lat="48.0406" lon="6.92887">
        <ele>882.8</ele>
        <time>2022-05-28T06:44:10Z</time>
      </trkpt>
      <trkpt lat="48.04069" lon="6.92884">
        <ele>883.5</ele>
        <time>2022-05-28T06:44:14Z</time>
      </trkpt>
      <trkpt lat="48.04078" lon="6.92882">
        <ele>884.2</ele>
        <time>2022-05-28T06:44:18Z</time>
      </trkpt>
      <trkpt lat="48.04088" lon="6.92879">
        <ele>885.1</ele>
        <time>2022-05-28T06:44:23Z</time>
      </trkpt>
      <trkpt lat="48.04098" lon="6.92874">
        <ele>886.1</ele>
        <time>2022-05-28T06:44:29Z</time>
      </trkpt>
      <trkpt lat="48.04108" lon="6.9287">
        <ele>887.4</ele>
        <time>2022-05-28T06:44:35Z</time>
      </trkpt>
      <trkpt lat="48.04118" lon="6.92866">
        <ele>887.9</ele>
        <time>2022-05-28T06:44:41Z</time>
      </trkpt>
      <trkpt lat="48.04127" lon="6.92862">
        <ele>889.5</ele>
        <time>2022-05-28T06:44:47Z</time>
      </trkpt>
      <trkpt lat="48.04136" lon="6.92856">
        <ele>891.1</ele>
        <time>2022-05-28T06:44:54Z</time>
      </trkpt>
      <trkpt lat="48.04146" lon="6.92851">
        <ele>891.4</ele>
        <time>2022-05-28T06:45:00Z</time>
      </trkpt>
      <trkpt lat="48.04156" lon="6.92847">
        <ele>893</ele>
        <time>2022-05-28T06:45:06Z</time>
      </trkpt>
      <trkpt lat="48.04165" lon="6.92843">
        <ele>894</ele>
        <time>2022-05-28T06:45:12Z</time>
      </trkpt>
      <trkpt lat="48.04174" lon="6.92838">
        <ele>895.4</ele>
        <time>2022-05-28T06:45:18Z</time>
      </trkpt>
      <trkpt lat="48.04184" lon="6.92831">
        <ele>897.1</ele>
        <time>2022-05-28T06:45:24Z</time>
      </trkpt>
      <trkpt lat="48.04191" lon="6.92822">
        <ele>898.6</ele>
        <time>2022-05-28T06:45:30Z</time>
      </trkpt>
      <trkpt lat="48.042" lon="6.92817">
        <ele>899</ele>
        <time>2022-05-28T06:45:35Z</time>
      </trkpt>
      <trkpt lat="48.0421" lon="6.92816">
        <ele>899.8</ele>
        <time>2022-05-28T06:45:40Z</time>
      </trkpt>
      <trkpt lat="48.04221" lon="6.92816">
        <ele>900.2</ele>
        <time>2022-05-28T06:45:45Z</time>
      </trkpt>
      <trkpt lat="48.0423" lon="6.92816">
        <ele>900.5</ele>
        <time>2022-05-28T06:45:49Z</time>
      </trkpt>
      <trkpt lat="48.04241" lon="6.92815">
        <ele>900.8</ele>
        <time>2022-05-28T06:45:54Z</time>
      </trkpt>
      <trkpt lat="48.04251" lon="6.92813">
        <ele>900.4</ele>
        <time>2022-05-28T06:45:59Z</time>
      </trkpt>
      <trkpt lat="48.04262" lon="6.92812">
        <ele>901.2</ele>
        <time>2022-05-28T06:46:05Z</time>
      </trkpt>
      <trkpt lat="48.04272" lon="6.92807">
        <ele>901.9</ele>
        <time>2022-05-28T06:46:11Z</time>
      </trkpt>
      <trkpt lat="48.04281" lon="6.92802">
        <ele>903.2</ele>
        <time>2022-05-28T06:46:15Z</time>
      </trkpt>
      <trkpt lat="48.0429" lon="6.92797">
        <ele>903.2</ele>
        <time>2022-05-28T06:46:19Z</time>
      </trkpt>
      <trkpt lat="48.043" lon="6.9279">
        <ele>903.3</ele>
        <time>2022-05-28T06:46:23Z</time>
      </trkpt>
      <trkpt lat="48.0431" lon="6.92782">
        <ele>904.2</ele>
        <time>2022-05-28T06:46:28Z</time>
      </trkpt>
      <trkpt lat="48.04319" lon="6.92776">
        <ele>905.6</ele>
        <time>2022-05-28T06:46:33Z</time>
      </trkpt>
      <trkpt lat="48.04328" lon="6.92771">
        <ele>906.4</ele>
        <time>2022-05-28T06:46:37Z</time>
      </trkpt>
      <trkpt lat="48.04339" lon="6.92767">
        <ele>907.2</ele>
        <time>2022-05-28T06:46:42Z</time>
      </trkpt>
      <trkpt lat="48.04348" lon="6.92766">
        <ele>907.7</ele>
        <time>2022-05-28T06:46:48Z</time>
      </trkpt>
      <trkpt lat="48.04358" lon="6.92767">
        <ele>909.6</ele>
        <time>2022-05-28T06:46:53Z</time>
      </trkpt>
      <trkpt lat="48.04368" lon="6.92769">
        <ele>911.1</ele>
        <time>2022-05-28T06:46:58Z</time>
      </trkpt>
      <trkpt lat="48.04378" lon="6.9277">
        <ele>911.4</ele>
        <time>2022-05-28T06:47:03Z</time>
      </trkpt>
      <trkpt lat="48.04388" lon="6.9277">
        <ele>911.8</ele>
        <time>2022-05-28T06:47:07Z</time>
      </trkpt>
      <trkpt lat="48.04392" lon="6.92772">
        <ele>911.6</ele>
        <time>2022-05-28T06:47:14Z</time>
      </trkpt>
      <trkpt lat="48.04392" lon="6.92772">
        <ele>911.9</ele>
        <time>2022-05-28T06:47:29Z</time>
      </trkpt>
      <trkpt lat="48.04392" lon="6.92773">
        <ele>911.5</ele>
        <time>2022-05-28T06:47:31Z</time>
      </trkpt>
      <trkpt lat="48.04391" lon="6.92773">
        <ele>911.6</ele>
        <time>2022-05-28T06:48:33Z</time>
      </trkpt>
      <trkpt lat="48.04392" lon="6.92774">
        <ele>912</ele>
        <time>2022-05-28T06:48:40Z</time>
      </trkpt>
      <trkpt lat="48.04392" lon="6.92775">
        <ele>911.9</ele>
        <time>2022-05-28T06:48:46Z</time>
      </trkpt>
      <trkpt lat="48.04401" lon="6.9278">
        <ele>911</ele>
        <time>2022-05-28T06:49:00Z</time>
      </trkpt>
      <trkpt lat="48.0441" lon="6.9278">
        <ele>910.3</ele>
        <time>2022-05-28T06:49:04Z</time>
      </trkpt>
      <trkpt lat="48.04422" lon="6.92782">
        <ele>908.3</ele>
        <time>2022-05-28T06:49:08Z</time>
      </trkpt>
      <trkpt lat="48.04432" lon="6.9278">
        <ele>907.3</ele>
        <time>2022-05-28T06:49:11Z</time>
      </trkpt>
      <trkpt lat="48.04441" lon="6.92775">
        <ele>905.5</ele>
        <time>2022-05-28T06:49:13Z</time>
      </trkpt>
      <trkpt lat="48.04452" lon="6.92772">
        <ele>903.9</ele>
        <time>2022-05-28T06:49:15Z</time>
      </trkpt>
      <trkpt lat="48.04463" lon="6.92776">
        <ele>902.5</ele>
        <time>2022-05-28T06:49:17Z</time>
      </trkpt>
      <trkpt lat="48.0447" lon="6.92787">
        <ele>899.8</ele>
        <time>2022-05-28T06:49:19Z</time>
      </trkpt>
      <trkpt lat="48.04474" lon="6.92801">
        <ele>898.7</ele>
        <time>2022-05-28T06:49:21Z</time>
      </trkpt>
      <trkpt lat="48.04478" lon="6.92819">
        <ele>899.5</ele>
        <time>2022-05-28T06:49:23Z</time>
      </trkpt>
      <trkpt lat="48.0448" lon="6.92839">
        <ele>896.5</ele>
        <time>2022-05-28T06:49:25Z</time>
      </trkpt>
      <trkpt lat="48.04483" lon="6.92857">
        <ele>894.4</ele>
        <time>2022-05-28T06:49:27Z</time>
      </trkpt>
      <trkpt lat="48.04482" lon="6.92875">
        <ele>890.2</ele>
        <time>2022-05-28T06:49:29Z</time>
      </trkpt>
      <trkpt lat="48.04478" lon="6.92895">
        <ele>887.1</ele>
        <time>2022-05-28T06:49:31Z</time>
      </trkpt>
      <trkpt lat="48.04474" lon="6.92919">
        <ele>886.1</ele>
        <time>2022-05-28T06:49:33Z</time>
      </trkpt>
      <trkpt lat="48.04476" lon="6.92942">
        <ele>881.3</ele>
        <time>2022-05-28T06:49:35Z</time>
      </trkpt>
      <trkpt lat="48.04482" lon="6.92962">
        <ele>885.2</ele>
        <time>2022-05-28T06:49:37Z</time>
      </trkpt>
      <trkpt lat="48.04491" lon="6.9298">
        <ele>885.7</ele>
        <time>2022-05-28T06:49:39Z</time>
      </trkpt>
      <trkpt lat="48.045" lon="6.92999">
        <ele>883.7</ele>
        <time>2022-05-28T06:49:41Z</time>
      </trkpt>
      <trkpt lat="48.0451" lon="6.93015">
        <ele>883.8</ele>
        <time>2022-05-28T06:49:43Z</time>
      </trkpt>
      <trkpt lat="48.04519" lon="6.93026">
        <ele>884.3</ele>
        <time>2022-05-28T06:49:45Z</time>
      </trkpt>
      <trkpt lat="48.0453" lon="6.93035">
        <ele>883.6</ele>
        <time>2022-05-28T06:49:48Z</time>
      </trkpt>
      <trkpt lat="48.04539" lon="6.93044">
        <ele>885.1</ele>
        <time>2022-05-28T06:49:51Z</time>
      </trkpt>
      <trkpt lat="48.04544" lon="6.93059">
        <ele>884.1</ele>
        <time>2022-05-28T06:49:54Z</time>
      </trkpt>
      <trkpt lat="48.04549" lon="6.93073">
        <ele>885</ele>
        <time>2022-05-28T06:49:57Z</time>
      </trkpt>
      <trkpt lat="48.04556" lon="6.93085">
        <ele>886.2</ele>
        <time>2022-05-28T06:50:00Z</time>
      </trkpt>
      <trkpt lat="48.04562" lon="6.93097">
        <ele>886.1</ele>
        <time>2022-05-28T06:50:04Z</time>
      </trkpt>
      <trkpt lat="48.04575" lon="6.93097">
        <ele>885.2</ele>
        <time>2022-05-28T06:50:08Z</time>
      </trkpt>
      <trkpt lat="48.04585" lon="6.93092">
        <ele>888.2</ele>
        <time>2022-05-28T06:50:12Z</time>
      </trkpt>
      <trkpt lat="48.04596" lon="6.93089">
        <ele>889.3</ele>
        <time>2022-05-28T06:50:16Z</time>
      </trkpt>
      <trkpt lat="48.04605" lon="6.93087">
        <ele>891.2</ele>
        <time>2022-05-28T06:50:20Z</time>
      </trkpt>
      <trkpt lat="48.04615" lon="6.93081">
        <ele>893.7</ele>
        <time>2022-05-28T06:50:25Z</time>
      </trkpt>
      <trkpt lat="48.04624" lon="6.93084">
        <ele>894.5</ele>
        <time>2022-05-28T06:50:30Z</time>
      </trkpt>
      <trkpt lat="48.04623" lon="6.931">
        <ele>894.4</ele>
        <time>2022-05-28T06:50:37Z</time>
      </trkpt>
      <trkpt lat="48.04619" lon="6.93115">
        <ele>892.9</ele>
        <time>2022-05-28T06:50:43Z</time>
      </trkpt>
      <trkpt lat="48.04612" lon="6.9313">
        <ele>889.8</ele>
        <time>2022-05-28T06:50:47Z</time>
      </trkpt>
      <trkpt lat="48.04607" lon="6.93142">
        <ele>889.2</ele>
        <time>2022-05-28T06:50:49Z</time>
      </trkpt>
      <trkpt lat="48.04603" lon="6.93155">
        <ele>890.2</ele>
        <time>2022-05-28T06:50:51Z</time>
      </trkpt>
      <trkpt lat="48.04596" lon="6.93169">
        <ele>886</ele>
        <time>2022-05-28T06:50:53Z</time>
      </trkpt>
      <trkpt lat="48.04588" lon="6.93185">
        <ele>881.3</ele>
        <time>2022-05-28T06:50:55Z</time>
      </trkpt>
      <trkpt lat="48.04578" lon="6.93199">
        <ele>883.5</ele>
        <time>2022-05-28T06:50:57Z</time>
      </trkpt>
      <trkpt lat="48.04566" lon="6.93212">
        <ele>880.4</ele>
        <time>2022-05-28T06:50:59Z</time>
      </trkpt>
      <trkpt lat="48.04555" lon="6.93222">
        <ele>879.9</ele>
        <time>2022-05-28T06:51:01Z</time>
      </trkpt>
      <trkpt lat="48.04547" lon="6.93229">
        <ele>880.3</ele>
        <time>2022-05-28T06:51:03Z</time>
      </trkpt>
      <trkpt lat="48.04536" lon="6.93236">
        <ele>878.3</ele>
        <time>2022-05-28T06:51:06Z</time>
      </trkpt>
      <trkpt lat="48.04527" lon="6.93237">
        <ele>879.4</ele>
        <time>2022-05-28T06:51:08Z</time>
      </trkpt>
      <trkpt lat="48.04518" lon="6.93242">
        <ele>879.1</ele>
        <time>2022-05-28T06:51:10Z</time>
      </trkpt>
      <trkpt lat="48.04512" lon="6.93252">
        <ele>877.4</ele>
        <time>2022-05-28T06:51:12Z</time>
      </trkpt>
      <trkpt lat="48.04506" lon="6.93264">
        <ele>875.5</ele>
        <time>2022-05-28T06:51:14Z</time>
      </trkpt>
      <trkpt lat="48.04497" lon="6.93277">
        <ele>876.1</ele>
        <time>2022-05-28T06:51:16Z</time>
      </trkpt>
      <trkpt lat="48.04488" lon="6.9329">
        <ele>871.3</ele>
        <time>2022-05-28T06:51:18Z</time>
      </trkpt>
      <trkpt lat="48.0448" lon="6.93303">
        <ele>873</ele>
        <time>2022-05-28T06:51:20Z</time>
      </trkpt>
      <trkpt lat="48.04473" lon="6.93314">
        <ele>873.3</ele>
        <time>2022-05-28T06:51:23Z</time>
      </trkpt>
      <trkpt lat="48.04465" lon="6.93323">
        <ele>872.3</ele>
        <time>2022-05-28T06:51:43Z</time>
      </trkpt>
      <trkpt lat="48.04474" lon="6.9332">
        <ele>872.7</ele>
        <time>2022-05-28T06:51:49Z</time>
      </trkpt>
      <trkpt lat="48.04483" lon="6.93314">
        <ele>873.4</ele>
        <time>2022-05-28T06:51:54Z</time>
      </trkpt>
      <trkpt lat="48.04492" lon="6.93307">
        <ele>875.1</ele>
        <time>2022-05-28T06:52:00Z</time>
      </trkpt>
      <trkpt lat="48.04483" lon="6.93311">
        <ele>874.5</ele>
        <time>2022-05-28T06:52:08Z</time>
      </trkpt>
      <trkpt lat="48.04472" lon="6.93317">
        <ele>873.4</ele>
        <time>2022-05-28T06:52:13Z</time>
      </trkpt>
      <trkpt lat="48.04469" lon="6.93315">
        <ele>873.5</ele>
        <time>2022-05-28T06:52:18Z</time>
      </trkpt>
      <trkpt lat="48.0447" lon="6.93314">
        <ele>873.3</ele>
        <time>2022-05-28T06:54:13Z</time>
      </trkpt>
      <trkpt lat="48.04469" lon="6.93314">
        <ele>873.7</ele>
        <time>2022-05-28T06:54:37Z</time>
      </trkpt>
      <trkpt lat="48.04478" lon="6.93308">
        <ele>873.8</ele>
        <time>2022-05-28T06:54:53Z</time>
      </trkpt>
      <trkpt lat="48.04484" lon="6.93294">
        <ele>873.9</ele>
        <time>2022-05-28T06:54:58Z</time>
      </trkpt>
      <trkpt lat="48.04491" lon="6.93285">
        <ele>875</ele>
        <time>2022-05-28T06:55:02Z</time>
      </trkpt>
      <trkpt lat="48.04498" lon="6.93274">
        <ele>875.4</ele>
        <time>2022-05-28T06:55:06Z</time>
      </trkpt>
      <trkpt lat="48.04505" lon="6.93263">
        <ele>876.7</ele>
        <time>2022-05-28T06:55:10Z</time>
      </trkpt>
      <trkpt lat="48.0451" lon="6.93252">
        <ele>877.2</ele>
        <time>2022-05-28T06:55:14Z</time>
      </trkpt>
      <trkpt lat="48.04517" lon="6.93242">
        <ele>878.4</ele>
        <time>2022-05-28T06:55:18Z</time>
      </trkpt>
      <trkpt lat="48.04526" lon="6.93235">
        <ele>878.8</ele>
        <time>2022-05-28T06:55:23Z</time>
      </trkpt>
      <trkpt lat="48.04537" lon="6.93231">
        <ele>879.8</ele>
        <time>2022-05-28T06:55:29Z</time>
      </trkpt>
      <trkpt lat="48.04545" lon="6.93227">
        <ele>879.3</ele>
        <time>2022-05-28T06:55:33Z</time>
      </trkpt>
      <trkpt lat="48.04553" lon="6.93221">
        <ele>880.4</ele>
        <time>2022-05-28T06:55:37Z</time>
      </trkpt>
      <trkpt lat="48.04561" lon="6.93213">
        <ele>881.9</ele>
        <time>2022-05-28T06:55:42Z</time>
      </trkpt>
      <trkpt lat="48.04569" lon="6.93206">
        <ele>883.3</ele>
        <time>2022-05-28T06:55:47Z</time>
      </trkpt>
      <trkpt lat="48.04578" lon="6.93197">
        <ele>884</ele>
        <time>2022-05-28T06:55:52Z</time>
      </trkpt>
      <trkpt lat="48.04585" lon="6.93186">
        <ele>884.6</ele>
        <time>2022-05-28T06:55:57Z</time>
      </trkpt>
      <trkpt lat="48.04592" lon="6.93175">
        <ele>886.7</ele>
        <time>2022-05-28T06:56:03Z</time>
      </trkpt>
      <trkpt lat="48.04599" lon="6.93164">
        <ele>888</ele>
        <time>2022-05-28T06:56:09Z</time>
      </trkpt>
      <trkpt lat="48.04605" lon="6.93152">
        <ele>889.7</ele>
        <time>2022-05-28T06:56:14Z</time>
      </trkpt>
      <trkpt lat="48.04608" lon="6.9314">
        <ele>890.3</ele>
        <time>2022-05-28T06:56:19Z</time>
      </trkpt>
      <trkpt lat="48.04613" lon="6.93128">
        <ele>891.5</ele>
        <time>2022-05-28T06:56:24Z</time>
      </trkpt>
      <trkpt lat="48.04617" lon="6.93113">
        <ele>893.9</ele>
        <time>2022-05-28T06:56:30Z</time>
      </trkpt>
      <trkpt lat="48.0462" lon="6.93098">
        <ele>894.4</ele>
        <time>2022-05-28T06:56:36Z</time>
      </trkpt>
      <trkpt lat="48.04621" lon="6.93084">
        <ele>895</ele>
        <time>2022-05-28T06:56:42Z</time>
      </trkpt>
      <trkpt lat="48.04612" lon="6.93077">
        <ele>893.6</ele>
        <time>2022-05-28T06:56:50Z</time>
      </trkpt>
      <trkpt lat="48.04604" lon="6.93081">
        <ele>891.5</ele>
        <time>2022-05-28T06:56:53Z</time>
      </trkpt>
      <trkpt lat="48.04593" lon="6.93084">
        <ele>889.8</ele>
        <time>2022-05-28T06:56:56Z</time>
      </trkpt>
      <trkpt lat="48.04581" lon="6.93087">
        <ele>887.7</ele>
        <time>2022-05-28T06:57:00Z</time>
      </trkpt>
      <trkpt lat="48.04574" lon="6.93093">
        <ele>886.7</ele>
        <time>2022-05-28T06:57:06Z</time>
      </trkpt>
      <trkpt lat="48.04575" lon="6.93093">
        <ele>886.8</ele>
        <time>2022-05-28T06:57:11Z</time>
      </trkpt>
      <trkpt lat="48.04574" lon="6.93094">
        <ele>887.1</ele>
        <time>2022-05-28T06:58:01Z</time>
      </trkpt>
      <trkpt lat="48.04574" lon="6.93094">
        <ele>887</ele>
        <time>2022-05-28T06:58:02Z</time>
      </trkpt>
      <trkpt lat="48.04566" lon="6.93104">
        <ele>886</ele>
        <time>2022-05-28T06:58:12Z</time>
      </trkpt>
      <trkpt lat="48.0456" lon="6.93118">
        <ele>883.4</ele>
        <time>2022-05-28T06:58:15Z</time>
      </trkpt>
      <trkpt lat="48.04554" lon="6.93129">
        <ele>881.5</ele>
        <time>2022-05-28T06:58:17Z</time>
      </trkpt>
      <trkpt lat="48.04549" lon="6.93146">
        <ele>882</ele>
        <time>2022-05-28T06:58:19Z</time>
      </trkpt>
      <trkpt lat="48.04543" lon="6.93165">
        <ele>880.1</ele>
        <time>2022-05-28T06:58:21Z</time>
      </trkpt>
      <trkpt lat="48.04539" lon="6.93183">
        <ele>878.9</ele>
        <time>2022-05-28T06:58:23Z</time>
      </trkpt>
      <trkpt lat="48.04536" lon="6.93198">
        <ele>878.9</ele>
        <time>2022-05-28T06:58:25Z</time>
      </trkpt>
      <trkpt lat="48.04534" lon="6.93213">
        <ele>877.9</ele>
        <time>2022-05-28T06:58:27Z</time>
      </trkpt>
      <trkpt lat="48.04529" lon="6.93227">
        <ele>880.7</ele>
        <time>2022-05-28T06:58:29Z</time>
      </trkpt>
      <trkpt lat="48.04522" lon="6.93236">
        <ele>879.4</ele>
        <time>2022-05-28T06:58:31Z</time>
      </trkpt>
      <trkpt lat="48.04515" lon="6.93243">
        <ele>878.7</ele>
        <time>2022-05-28T06:58:33Z</time>
      </trkpt>
      <trkpt lat="48.04508" lon="6.93255">
        <ele>878</ele>
        <time>2022-05-28T06:58:35Z</time>
      </trkpt>
      <trkpt lat="48.04501" lon="6.93266">
        <ele>875.7</ele>
        <time>2022-05-28T06:58:37Z</time>
      </trkpt>
      <trkpt lat="48.04494" lon="6.93278">
        <ele>875.6</ele>
        <time>2022-05-28T06:58:40Z</time>
      </trkpt>
      <trkpt lat="48.04488" lon="6.93288">
        <ele>875.4</ele>
        <time>2022-05-28T06:58:47Z</time>
      </trkpt>
      <trkpt lat="48.04482" lon="6.93299">
        <ele>874.4</ele>
        <time>2022-05-28T06:58:54Z</time>
      </trkpt>
      <trkpt lat="48.04473" lon="6.93312">
        <ele>872.6</ele>
        <time>2022-05-28T06:58:58Z</time>
      </trkpt>
      <trkpt lat="48.04467" lon="6.93324">
        <ele>873.1</ele>
        <time>2022-05-28T06:59:01Z</time>
      </trkpt>
      <trkpt lat="48.04469" lon="6.93339">
        <ele>871.8</ele>
        <time>2022-05-28T06:59:05Z</time>
      </trkpt>
      <trkpt lat="48.0448" lon="6.93339">
        <ele>872.5</ele>
        <time>2022-05-28T06:59:09Z</time>
      </trkpt>
      <trkpt lat="48.04491" lon="6.9334">
        <ele>872.5</ele>
        <time>2022-05-28T06:59:13Z</time>
      </trkpt>
      <trkpt lat="48.045" lon="6.93341">
        <ele>873.1</ele>
        <time>2022-05-28T06:59:16Z</time>
      </trkpt>
      <trkpt lat="48.0451" lon="6.93342">
        <ele>873.1</ele>
        <time>2022-05-28T06:59:19Z</time>
      </trkpt>
      <trkpt lat="48.0452" lon="6.93343">
        <ele>872.9</ele>
        <time>2022-05-28T06:59:22Z</time>
      </trkpt>
      <trkpt lat="48.0453" lon="6.93345">
        <ele>873.3</ele>
        <time>2022-05-28T06:59:25Z</time>
      </trkpt>
      <trkpt lat="48.0454" lon="6.93346">
        <ele>873.6</ele>
        <time>2022-05-28T06:59:28Z</time>
      </trkpt>
      <trkpt lat="48.04551" lon="6.93347">
        <ele>874</ele>
        <time>2022-05-28T06:59:31Z</time>
      </trkpt>
      <trkpt lat="48.04561" lon="6.93345">
        <ele>873.9</ele>
        <time>2022-05-28T06:59:34Z</time>
      </trkpt>
      <trkpt lat="48.04572" lon="6.93341">
        <ele>873.8</ele>
        <time>2022-05-28T06:59:37Z</time>
      </trkpt>
      <trkpt lat="48.04582" lon="6.93332">
        <ele>874.1</ele>
        <time>2022-05-28T06:59:40Z</time>
      </trkpt>
      <trkpt lat="48.04592" lon="6.93324">
        <ele>874.1</ele>
        <time>2022-05-28T06:59:43Z</time>
      </trkpt>
      <trkpt lat="48.04602" lon="6.93315">
        <ele>873.9</ele>
        <time>2022-05-28T06:59:46Z</time>
      </trkpt>
      <trkpt lat="48.04612" lon="6.93307">
        <ele>873.7</ele>
        <time>2022-05-28T06:59:49Z</time>
      </trkpt>
      <trkpt lat="48.04623" lon="6.93299">
        <ele>873.4</ele>
        <time>2022-05-28T06:59:52Z</time>
      </trkpt>
      <trkpt lat="48.04635" lon="6.93292">
        <ele>873.7</ele>
        <time>2022-05-28T06:59:55Z</time>
      </trkpt>
      <trkpt lat="48.04646" lon="6.93289">
        <ele>873.9</ele>
        <time>2022-05-28T06:59:58Z</time>
      </trkpt>
      <trkpt lat="48.04657" lon="6.93295">
        <ele>873.9</ele>
        <time>2022-05-28T07:00:01Z</time>
      </trkpt>
      <trkpt lat="48.04665" lon="6.93308">
        <ele>873.8</ele>
        <time>2022-05-28T07:00:04Z</time>
      </trkpt>
      <trkpt lat="48.0467" lon="6.93323">
        <ele>874.4</ele>
        <time>2022-05-28T07:00:07Z</time>
      </trkpt>
      <trkpt lat="48.04675" lon="6.93339">
        <ele>875.2</ele>
        <time>2022-05-28T07:00:10Z</time>
      </trkpt>
      <trkpt lat="48.04681" lon="6.93354">
        <ele>874.7</ele>
        <time>2022-05-28T07:00:13Z</time>
      </trkpt>
      <trkpt lat="48.04688" lon="6.93368">
        <ele>875.3</ele>
        <time>2022-05-28T07:00:16Z</time>
      </trkpt>
      <trkpt lat="48.04695" lon="6.93381">
        <ele>876.1</ele>
        <time>2022-05-28T07:00:19Z</time>
      </trkpt>
      <trkpt lat="48.04704" lon="6.9339">
        <ele>875</ele>
        <time>2022-05-28T07:00:22Z</time>
      </trkpt>
      <trkpt lat="48.04715" lon="6.93395">
        <ele>874.9</ele>
        <time>2022-05-28T07:00:25Z</time>
      </trkpt>
      <trkpt lat="48.04725" lon="6.93391">
        <ele>875.2</ele>
        <time>2022-05-28T07:00:28Z</time>
      </trkpt>
      <trkpt lat="48.04735" lon="6.93384">
        <ele>876.8</ele>
        <time>2022-05-28T07:00:31Z</time>
      </trkpt>
      <trkpt lat="48.04745" lon="6.93377">
        <ele>876.2</ele>
        <time>2022-05-28T07:00:34Z</time>
      </trkpt>
      <trkpt lat="48.04756" lon="6.93374">
        <ele>877.2</ele>
        <time>2022-05-28T07:00:37Z</time>
      </trkpt>
      <trkpt lat="48.04767" lon="6.93377">
        <ele>876.7</ele>
        <time>2022-05-28T07:00:40Z</time>
      </trkpt>
      <trkpt lat="48.04777" lon="6.93381">
        <ele>877.6</ele>
        <time>2022-05-28T07:00:43Z</time>
      </trkpt>
      <trkpt lat="48.04786" lon="6.93387">
        <ele>877.3</ele>
        <time>2022-05-28T07:00:46Z</time>
      </trkpt>
      <trkpt lat="48.04794" lon="6.93394">
        <ele>878.6</ele>
        <time>2022-05-28T07:00:49Z</time>
      </trkpt>
      <trkpt lat="48.04802" lon="6.93402">
        <ele>878.7</ele>
        <time>2022-05-28T07:00:52Z</time>
      </trkpt>
      <trkpt lat="48.04809" lon="6.9341">
        <ele>878.7</ele>
        <time>2022-05-28T07:00:55Z</time>
      </trkpt>
      <trkpt lat="48.04819" lon="6.93418">
        <ele>880.6</ele>
        <time>2022-05-28T07:00:59Z</time>
      </trkpt>
      <trkpt lat="48.04827" lon="6.93426">
        <ele>881.8</ele>
        <time>2022-05-28T07:01:03Z</time>
      </trkpt>
      <trkpt lat="48.04836" lon="6.93434">
        <ele>882</ele>
        <time>2022-05-28T07:01:07Z</time>
      </trkpt>
      <trkpt lat="48.04845" lon="6.93441">
        <ele>882.6</ele>
        <time>2022-05-28T07:01:11Z</time>
      </trkpt>
      <trkpt lat="48.04853" lon="6.93448">
        <ele>883</ele>
        <time>2022-05-28T07:01:15Z</time>
      </trkpt>
      <trkpt lat="48.04861" lon="6.93454">
        <ele>884.1</ele>
        <time>2022-05-28T07:01:19Z</time>
      </trkpt>
      <trkpt lat="48.0487" lon="6.93461">
        <ele>884.9</ele>
        <time>2022-05-28T07:01:25Z</time>
      </trkpt>
      <trkpt lat="48.04878" lon="6.93466">
        <ele>885.5</ele>
        <time>2022-05-28T07:01:30Z</time>
      </trkpt>
      <trkpt lat="48.04887" lon="6.93468">
        <ele>887.4</ele>
        <time>2022-05-28T07:01:34Z</time>
      </trkpt>
      <trkpt lat="48.04897" lon="6.93472">
        <ele>887.4</ele>
        <time>2022-05-28T07:01:40Z</time>
      </trkpt>
      <trkpt lat="48.04907" lon="6.93477">
        <ele>888.3</ele>
        <time>2022-05-28T07:01:44Z</time>
      </trkpt>
      <trkpt lat="48.04917" lon="6.93479">
        <ele>888.7</ele>
        <time>2022-05-28T07:01:48Z</time>
      </trkpt>
      <trkpt lat="48.04927" lon="6.93484">
        <ele>889.5</ele>
        <time>2022-05-28T07:01:51Z</time>
      </trkpt>
      <trkpt lat="48.04936" lon="6.93492">
        <ele>889.8</ele>
        <time>2022-05-28T07:01:56Z</time>
      </trkpt>
      <trkpt lat="48.04945" lon="6.93501">
        <ele>891.6</ele>
        <time>2022-05-28T07:02:01Z</time>
      </trkpt>
      <trkpt lat="48.04953" lon="6.93512">
        <ele>892.8</ele>
        <time>2022-05-28T07:02:06Z</time>
      </trkpt>
      <trkpt lat="48.0496" lon="6.93521">
        <ele>893</ele>
        <time>2022-05-28T07:02:10Z</time>
      </trkpt>
      <trkpt lat="48.04967" lon="6.93532">
        <ele>894.4</ele>
        <time>2022-05-28T07:02:15Z</time>
      </trkpt>
      <trkpt lat="48.04973" lon="6.93544">
        <ele>894.9</ele>
        <time>2022-05-28T07:02:20Z</time>
      </trkpt>
      <trkpt lat="48.04979" lon="6.93556">
        <ele>895.4</ele>
        <time>2022-05-28T07:02:25Z</time>
      </trkpt>
      <trkpt lat="48.04987" lon="6.93563">
        <ele>895.9</ele>
        <time>2022-05-28T07:02:29Z</time>
      </trkpt>
      <trkpt lat="48.04995" lon="6.9357">
        <ele>896.4</ele>
        <time>2022-05-28T07:02:33Z</time>
      </trkpt>
      <trkpt lat="48.05003" lon="6.93579">
        <ele>897.4</ele>
        <time>2022-05-28T07:02:37Z</time>
      </trkpt>
      <trkpt lat="48.05012" lon="6.93588">
        <ele>898.9</ele>
        <time>2022-05-28T07:02:42Z</time>
      </trkpt>
      <trkpt lat="48.05019" lon="6.93597">
        <ele>899.3</ele>
        <time>2022-05-28T07:02:46Z</time>
      </trkpt>
      <trkpt lat="48.05026" lon="6.93608">
        <ele>900</ele>
        <time>2022-05-28T07:02:51Z</time>
      </trkpt>
      <trkpt lat="48.05031" lon="6.93619">
        <ele>902</ele>
        <time>2022-05-28T07:02:55Z</time>
      </trkpt>
      <trkpt lat="48.05036" lon="6.93633">
        <ele>902.4</ele>
        <time>2022-05-28T07:03:00Z</time>
      </trkpt>
      <trkpt lat="48.05043" lon="6.93646">
        <ele>903.7</ele>
        <time>2022-05-28T07:03:05Z</time>
      </trkpt>
      <trkpt lat="48.05049" lon="6.93658">
        <ele>904.8</ele>
        <time>2022-05-28T07:03:10Z</time>
      </trkpt>
      <trkpt lat="48.05056" lon="6.93668">
        <ele>905</ele>
        <time>2022-05-28T07:03:15Z</time>
      </trkpt>
      <trkpt lat="48.05064" lon="6.93679">
        <ele>906.5</ele>
        <time>2022-05-28T07:03:20Z</time>
      </trkpt>
      <trkpt lat="48.05073" lon="6.9369">
        <ele>907</ele>
        <time>2022-05-28T07:03:25Z</time>
      </trkpt>
      <trkpt lat="48.05079" lon="6.937">
        <ele>908.9</ele>
        <time>2022-05-28T07:03:30Z</time>
      </trkpt>
      <trkpt lat="48.05087" lon="6.93712">
        <ele>909.8</ele>
        <time>2022-05-28T07:03:35Z</time>
      </trkpt>
      <trkpt lat="48.05094" lon="6.93725">
        <ele>910.3</ele>
        <time>2022-05-28T07:03:40Z</time>
      </trkpt>
      <trkpt lat="48.05099" lon="6.93736">
        <ele>910.7</ele>
        <time>2022-05-28T07:03:44Z</time>
      </trkpt>
      <trkpt lat="48.05104" lon="6.93747">
        <ele>911.6</ele>
        <time>2022-05-28T07:03:48Z</time>
      </trkpt>
      <trkpt lat="48.05108" lon="6.93761">
        <ele>913</ele>
        <time>2022-05-28T07:03:53Z</time>
      </trkpt>
      <trkpt lat="48.05112" lon="6.93775">
        <ele>913.1</ele>
        <time>2022-05-28T07:03:58Z</time>
      </trkpt>
      <trkpt lat="48.05115" lon="6.93789">
        <ele>914.6</ele>
        <time>2022-05-28T07:04:03Z</time>
      </trkpt>
      <trkpt lat="48.05118" lon="6.93803">
        <ele>915.2</ele>
        <time>2022-05-28T07:04:08Z</time>
      </trkpt>
      <trkpt lat="48.05121" lon="6.93819">
        <ele>915</ele>
        <time>2022-05-28T07:04:13Z</time>
      </trkpt>
      <trkpt lat="48.05124" lon="6.93835">
        <ele>916.5</ele>
        <time>2022-05-28T07:04:18Z</time>
      </trkpt>
      <trkpt lat="48.05128" lon="6.93848">
        <ele>917.7</ele>
        <time>2022-05-28T07:04:22Z</time>
      </trkpt>
      <trkpt lat="48.05135" lon="6.93858">
        <ele>917.4</ele>
        <time>2022-05-28T07:04:26Z</time>
      </trkpt>
      <trkpt lat="48.05144" lon="6.93869">
        <ele>918.8</ele>
        <time>2022-05-28T07:04:31Z</time>
      </trkpt>
      <trkpt lat="48.05153" lon="6.93878">
        <ele>919.4</ele>
        <time>2022-05-28T07:04:35Z</time>
      </trkpt>
      <trkpt lat="48.05163" lon="6.93886">
        <ele>920.4</ele>
        <time>2022-05-28T07:04:39Z</time>
      </trkpt>
      <trkpt lat="48.05171" lon="6.93892">
        <ele>921</ele>
        <time>2022-05-28T07:04:42Z</time>
      </trkpt>
      <trkpt lat="48.0518" lon="6.939">
        <ele>921</ele>
        <time>2022-05-28T07:04:46Z</time>
      </trkpt>
      <trkpt lat="48.05189" lon="6.93906">
        <ele>921.6</ele>
        <time>2022-05-28T07:04:50Z</time>
      </trkpt>
      <trkpt lat="48.05198" lon="6.93915">
        <ele>921.9</ele>
        <time>2022-05-28T07:04:54Z</time>
      </trkpt>
      <trkpt lat="48.05207" lon="6.93924">
        <ele>922.5</ele>
        <time>2022-05-28T07:04:58Z</time>
      </trkpt>
      <trkpt lat="48.05216" lon="6.93932">
        <ele>924.2</ele>
        <time>2022-05-28T07:05:02Z</time>
      </trkpt>
      <trkpt lat="48.05224" lon="6.9394">
        <ele>923.6</ele>
        <time>2022-05-28T07:05:06Z</time>
      </trkpt>
      <trkpt lat="48.05233" lon="6.93949">
        <ele>925</ele>
        <time>2022-05-28T07:05:10Z</time>
      </trkpt>
      <trkpt lat="48.0524" lon="6.93958">
        <ele>926.3</ele>
        <time>2022-05-28T07:05:14Z</time>
      </trkpt>
      <trkpt lat="48.05248" lon="6.93968">
        <ele>927.2</ele>
        <time>2022-05-28T07:05:19Z</time>
      </trkpt>
      <trkpt lat="48.05255" lon="6.93976">
        <ele>928.2</ele>
        <time>2022-05-28T07:05:23Z</time>
      </trkpt>
      <trkpt lat="48.05265" lon="6.93984">
        <ele>929.1</ele>
        <time>2022-05-28T07:05:27Z</time>
      </trkpt>
      <trkpt lat="48.05273" lon="6.93989">
        <ele>929.4</ele>
        <time>2022-05-28T07:05:31Z</time>
      </trkpt>
      <trkpt lat="48.05281" lon="6.93996">
        <ele>929.8</ele>
        <time>2022-05-28T07:05:35Z</time>
      </trkpt>
      <trkpt lat="48.05291" lon="6.94003">
        <ele>930.4</ele>
        <time>2022-05-28T07:05:40Z</time>
      </trkpt>
      <trkpt lat="48.053" lon="6.94009">
        <ele>931</ele>
        <time>2022-05-28T07:05:45Z</time>
      </trkpt>
      <trkpt lat="48.05308" lon="6.94015">
        <ele>931.2</ele>
        <time>2022-05-28T07:05:50Z</time>
      </trkpt>
      <trkpt lat="48.05317" lon="6.94022">
        <ele>932.8</ele>
        <time>2022-05-28T07:05:55Z</time>
      </trkpt>
      <trkpt lat="48.05327" lon="6.94028">
        <ele>934.5</ele>
        <time>2022-05-28T07:05:59Z</time>
      </trkpt>
      <trkpt lat="48.05338" lon="6.94036">
        <ele>933.9</ele>
        <time>2022-05-28T07:06:03Z</time>
      </trkpt>
      <trkpt lat="48.05346" lon="6.94041">
        <ele>935</ele>
        <time>2022-05-28T07:06:06Z</time>
      </trkpt>
      <trkpt lat="48.05356" lon="6.94046">
        <ele>934.9</ele>
        <time>2022-05-28T07:06:10Z</time>
      </trkpt>
      <trkpt lat="48.05365" lon="6.94052">
        <ele>935.9</ele>
        <time>2022-05-28T07:06:14Z</time>
      </trkpt>
      <trkpt lat="48.05374" lon="6.94059">
        <ele>936.3</ele>
        <time>2022-05-28T07:06:18Z</time>
      </trkpt>
      <trkpt lat="48.05385" lon="6.94066">
        <ele>937.2</ele>
        <time>2022-05-28T07:06:22Z</time>
      </trkpt>
      <trkpt lat="48.05394" lon="6.94073">
        <ele>935.8</ele>
        <time>2022-05-28T07:06:26Z</time>
      </trkpt>
      <trkpt lat="48.05402" lon="6.94079">
        <ele>937.1</ele>
        <time>2022-05-28T07:06:29Z</time>
      </trkpt>
      <trkpt lat="48.05413" lon="6.94086">
        <ele>937.9</ele>
        <time>2022-05-28T07:06:33Z</time>
      </trkpt>
      <trkpt lat="48.05423" lon="6.94094">
        <ele>938.8</ele>
        <time>2022-05-28T07:06:37Z</time>
      </trkpt>
      <trkpt lat="48.05433" lon="6.94102">
        <ele>938.9</ele>
        <time>2022-05-28T07:06:41Z</time>
      </trkpt>
      <trkpt lat="48.05442" lon="6.94112">
        <ele>940.1</ele>
        <time>2022-05-28T07:06:45Z</time>
      </trkpt>
      <trkpt lat="48.05451" lon="6.9412">
        <ele>939.9</ele>
        <time>2022-05-28T07:06:49Z</time>
      </trkpt>
      <trkpt lat="48.0546" lon="6.94129">
        <ele>939.4</ele>
        <time>2022-05-28T07:06:53Z</time>
      </trkpt>
      <trkpt lat="48.05469" lon="6.94139">
        <ele>940.3</ele>
        <time>2022-05-28T07:06:57Z</time>
      </trkpt>
      <trkpt lat="48.05477" lon="6.94146">
        <ele>941.1</ele>
        <time>2022-05-28T07:07:01Z</time>
      </trkpt>
      <trkpt lat="48.05485" lon="6.94151">
        <ele>940.7</ele>
        <time>2022-05-28T07:07:05Z</time>
      </trkpt>
      <trkpt lat="48.05495" lon="6.9416">
        <ele>942.1</ele>
        <time>2022-05-28T07:07:11Z</time>
      </trkpt>
      <trkpt lat="48.05506" lon="6.94165">
        <ele>942.1</ele>
        <time>2022-05-28T07:07:15Z</time>
      </trkpt>
      <trkpt lat="48.05516" lon="6.94169">
        <ele>941</ele>
        <time>2022-05-28T07:07:18Z</time>
      </trkpt>
      <trkpt lat="48.05526" lon="6.94175">
        <ele>941.4</ele>
        <time>2022-05-28T07:07:21Z</time>
      </trkpt>
      <trkpt lat="48.05536" lon="6.9418">
        <ele>943.5</ele>
        <time>2022-05-28T07:07:24Z</time>
      </trkpt>
      <trkpt lat="48.05546" lon="6.94187">
        <ele>942.8</ele>
        <time>2022-05-28T07:07:27Z</time>
      </trkpt>
      <trkpt lat="48.05557" lon="6.94193">
        <ele>943.3</ele>
        <time>2022-05-28T07:07:30Z</time>
      </trkpt>
      <trkpt lat="48.05568" lon="6.942">
        <ele>945</ele>
        <time>2022-05-28T07:07:33Z</time>
      </trkpt>
      <trkpt lat="48.05578" lon="6.94206">
        <ele>944.5</ele>
        <time>2022-05-28T07:07:36Z</time>
      </trkpt>
      <trkpt lat="48.05588" lon="6.94212">
        <ele>943.6</ele>
        <time>2022-05-28T07:07:39Z</time>
      </trkpt>
      <trkpt lat="48.05596" lon="6.94219">
        <ele>945.1</ele>
        <time>2022-05-28T07:07:42Z</time>
      </trkpt>
      <trkpt lat="48.05605" lon="6.94227">
        <ele>944.8</ele>
        <time>2022-05-28T07:07:45Z</time>
      </trkpt>
      <trkpt lat="48.05614" lon="6.94235">
        <ele>944.6</ele>
        <time>2022-05-28T07:07:50Z</time>
      </trkpt>
      <trkpt lat="48.0561" lon="6.94222">
        <ele>946.4</ele>
        <time>2022-05-28T07:08:00Z</time>
      </trkpt>
      <trkpt lat="48.05601" lon="6.94214">
        <ele>948.8</ele>
        <time>2022-05-28T07:08:06Z</time>
      </trkpt>
      <trkpt lat="48.05594" lon="6.94205">
        <ele>950.1</ele>
        <time>2022-05-28T07:08:12Z</time>
      </trkpt>
      <trkpt lat="48.05587" lon="6.94192">
        <ele>951.2</ele>
        <time>2022-05-28T07:08:19Z</time>
      </trkpt>
      <trkpt lat="48.0558" lon="6.94183">
        <ele>951.2</ele>
        <time>2022-05-28T07:08:24Z</time>
      </trkpt>
      <trkpt lat="48.05573" lon="6.94173">
        <ele>951.3</ele>
        <time>2022-05-28T07:08:29Z</time>
      </trkpt>
      <trkpt lat="48.05565" lon="6.94163">
        <ele>952.8</ele>
        <time>2022-05-28T07:08:34Z</time>
      </trkpt>
      <trkpt lat="48.05558" lon="6.94153">
        <ele>953.6</ele>
        <time>2022-05-28T07:08:39Z</time>
      </trkpt>
      <trkpt lat="48.0555" lon="6.94143">
        <ele>953.9</ele>
        <time>2022-05-28T07:08:44Z</time>
      </trkpt>
      <trkpt lat="48.05543" lon="6.94133">
        <ele>954.3</ele>
        <time>2022-05-28T07:08:48Z</time>
      </trkpt>
      <trkpt lat="48.05535" lon="6.94124">
        <ele>955</ele>
        <time>2022-05-28T07:08:53Z</time>
      </trkpt>
      <trkpt lat="48.05528" lon="6.94115">
        <ele>955.8</ele>
        <time>2022-05-28T07:08:58Z</time>
      </trkpt>
      <trkpt lat="48.05523" lon="6.94103">
        <ele>956.3</ele>
        <time>2022-05-28T07:09:03Z</time>
      </trkpt>
      <trkpt lat="48.05517" lon="6.9409">
        <ele>957.1</ele>
        <time>2022-05-28T07:09:08Z</time>
      </trkpt>
      <trkpt lat="48.05513" lon="6.94075">
        <ele>958.5</ele>
        <time>2022-05-28T07:09:12Z</time>
      </trkpt>
      <trkpt lat="48.05509" lon="6.94063">
        <ele>959</ele>
        <time>2022-05-28T07:09:16Z</time>
      </trkpt>
      <trkpt lat="48.05501" lon="6.94052">
        <ele>958.8</ele>
        <time>2022-05-28T07:09:20Z</time>
      </trkpt>
      <trkpt lat="48.05491" lon="6.94047">
        <ele>959.5</ele>
        <time>2022-05-28T07:09:24Z</time>
      </trkpt>
      <trkpt lat="48.05482" lon="6.94043">
        <ele>961.2</ele>
        <time>2022-05-28T07:09:28Z</time>
      </trkpt>
      <trkpt lat="48.05475" lon="6.94031">
        <ele>960.2</ele>
        <time>2022-05-28T07:09:32Z</time>
      </trkpt>
      <trkpt lat="48.05469" lon="6.9402">
        <ele>961.3</ele>
        <time>2022-05-28T07:09:35Z</time>
      </trkpt>
      <trkpt lat="48.05461" lon="6.94006">
        <ele>961.1</ele>
        <time>2022-05-28T07:09:39Z</time>
      </trkpt>
      <trkpt lat="48.05454" lon="6.93997">
        <ele>961.1</ele>
        <time>2022-05-28T07:09:42Z</time>
      </trkpt>
      <trkpt lat="48.05445" lon="6.93986">
        <ele>961</ele>
        <time>2022-05-28T07:09:46Z</time>
      </trkpt>
      <trkpt lat="48.05438" lon="6.93974">
        <ele>959.8</ele>
        <time>2022-05-28T07:09:49Z</time>
      </trkpt>
      <trkpt lat="48.0543" lon="6.93962">
        <ele>960.2</ele>
        <time>2022-05-28T07:09:53Z</time>
      </trkpt>
      <trkpt lat="48.05424" lon="6.9395">
        <ele>960.1</ele>
        <time>2022-05-28T07:09:56Z</time>
      </trkpt>
      <trkpt lat="48.05417" lon="6.93938">
        <ele>959</ele>
        <time>2022-05-28T07:09:59Z</time>
      </trkpt>
      <trkpt lat="48.05407" lon="6.93923">
        <ele>959.6</ele>
        <time>2022-05-28T07:10:02Z</time>
      </trkpt>
      <trkpt lat="48.054" lon="6.93914">
        <ele>958.5</ele>
        <time>2022-05-28T07:10:04Z</time>
      </trkpt>
      <trkpt lat="48.05392" lon="6.93904">
        <ele>958.2</ele>
        <time>2022-05-28T07:10:06Z</time>
      </trkpt>
      <trkpt lat="48.05381" lon="6.93897">
        <ele>953.9</ele>
        <time>2022-05-28T07:10:08Z</time>
      </trkpt>
      <trkpt lat="48.05368" lon="6.93888">
        <ele>950.1</ele>
        <time>2022-05-28T07:10:10Z</time>
      </trkpt>
      <trkpt lat="48.05356" lon="6.93875">
        <ele>951</ele>
        <time>2022-05-28T07:10:12Z</time>
      </trkpt>
      <trkpt lat="48.05349" lon="6.93866">
        <ele>950.2</ele>
        <time>2022-05-28T07:10:13Z</time>
      </trkpt>
      <trkpt lat="48.05337" lon="6.93846">
        <ele>948.6</ele>
        <time>2022-05-28T07:10:15Z</time>
      </trkpt>
      <trkpt lat="48.05331" lon="6.93836">
        <ele>947.6</ele>
        <time>2022-05-28T07:10:16Z</time>
      </trkpt>
      <trkpt lat="48.05319" lon="6.93817">
        <ele>946.8</ele>
        <time>2022-05-28T07:10:18Z</time>
      </trkpt>
      <trkpt lat="48.05312" lon="6.93799">
        <ele>949.1</ele>
        <time>2022-05-28T07:10:20Z</time>
      </trkpt>
      <trkpt lat="48.05309" lon="6.93784">
        <ele>952.5</ele>
        <time>2022-05-28T07:10:22Z</time>
      </trkpt>
      <trkpt lat="48.05304" lon="6.93768">
        <ele>951.8</ele>
        <time>2022-05-28T07:10:25Z</time>
      </trkpt>
      <trkpt lat="48.053" lon="6.93754">
        <ele>954.6</ele>
        <time>2022-05-28T07:10:28Z</time>
      </trkpt>
      <trkpt lat="48.05298" lon="6.93738">
        <ele>955.4</ele>
        <time>2022-05-28T07:10:32Z</time>
      </trkpt>
      <trkpt lat="48.05297" lon="6.93724">
        <ele>956</ele>
        <time>2022-05-28T07:10:36Z</time>
      </trkpt>
      <trkpt lat="48.05293" lon="6.9371">
        <ele>956.7</ele>
        <time>2022-05-28T07:10:41Z</time>
      </trkpt>
      <trkpt lat="48.05288" lon="6.93698">
        <ele>957.6</ele>
        <time>2022-05-28T07:10:45Z</time>
      </trkpt>
      <trkpt lat="48.05284" lon="6.93685">
        <ele>958.3</ele>
        <time>2022-05-28T07:10:49Z</time>
      </trkpt>
      <trkpt lat="48.05278" lon="6.93673">
        <ele>958.5</ele>
        <time>2022-05-28T07:10:53Z</time>
      </trkpt>
      <trkpt lat="48.05269" lon="6.93665">
        <ele>959.5</ele>
        <time>2022-05-28T07:10:58Z</time>
      </trkpt>
      <trkpt lat="48.05261" lon="6.93657">
        <ele>960.1</ele>
        <time>2022-05-28T07:11:03Z</time>
      </trkpt>
      <trkpt lat="48.05253" lon="6.93646">
        <ele>961.4</ele>
        <time>2022-05-28T07:11:08Z</time>
      </trkpt>
      <trkpt lat="48.05249" lon="6.93631">
        <ele>962.2</ele>
        <time>2022-05-28T07:11:13Z</time>
      </trkpt>
      <trkpt lat="48.05245" lon="6.93618">
        <ele>962.9</ele>
        <time>2022-05-28T07:11:17Z</time>
      </trkpt>
      <trkpt lat="48.05241" lon="6.93605">
        <ele>962.6</ele>
        <time>2022-05-28T07:11:21Z</time>
      </trkpt>
      <trkpt lat="48.05237" lon="6.93591">
        <ele>964.6</ele>
        <time>2022-05-28T07:11:25Z</time>
      </trkpt>
      <trkpt lat="48.05237" lon="6.93577">
        <ele>965.4</ele>
        <time>2022-05-28T07:11:29Z</time>
      </trkpt>
      <trkpt lat="48.05237" lon="6.93562">
        <ele>965.7</ele>
        <time>2022-05-28T07:11:34Z</time>
      </trkpt>
      <trkpt lat="48.05237" lon="6.93548">
        <ele>966</ele>
        <time>2022-05-28T07:11:39Z</time>
      </trkpt>
      <trkpt lat="48.05234" lon="6.93543">
        <ele>966.5</ele>
        <time>2022-05-28T07:11:46Z</time>
      </trkpt>
      <trkpt lat="48.05234" lon="6.93544">
        <ele>966.1</ele>
        <time>2022-05-28T07:11:50Z</time>
      </trkpt>
      <trkpt lat="48.05234" lon="6.93545">
        <ele>965.8</ele>
        <time>2022-05-28T07:12:42Z</time>
      </trkpt>
      <trkpt lat="48.05234" lon="6.93546">
        <ele>966</ele>
        <time>2022-05-28T07:12:44Z</time>
      </trkpt>
      <trkpt lat="48.05233" lon="6.93546">
        <ele>965.6</ele>
        <time>2022-05-28T07:14:05Z</time>
      </trkpt>
      <trkpt lat="48.05234" lon="6.93546">
        <ele>965.7</ele>
        <time>2022-05-28T07:14:23Z</time>
      </trkpt>
      <trkpt lat="48.05234" lon="6.93545">
        <ele>965.5</ele>
        <time>2022-05-28T07:14:25Z</time>
      </trkpt>
      <trkpt lat="48.05234" lon="6.93544">
        <ele>965.4</ele>
        <time>2022-05-28T07:14:32Z</time>
      </trkpt>
      <trkpt lat="48.05233" lon="6.93544">
        <ele>965.2</ele>
        <time>2022-05-28T07:14:35Z</time>
      </trkpt>
      <trkpt lat="48.05234" lon="6.93544">
        <ele>965.2</ele>
        <time>2022-05-28T07:15:11Z</time>
      </trkpt>
      <trkpt lat="48.05235" lon="6.93544">
        <ele>965.1</ele>
        <time>2022-05-28T07:15:30Z</time>
      </trkpt>
      <trkpt lat="48.05235" lon="6.93544">
        <ele>965.1</ele>
        <time>2022-05-28T07:15:31Z</time>
      </trkpt>
      <trkpt lat="48.05235" lon="6.93545">
        <ele>965</ele>
        <time>2022-05-28T07:15:34Z</time>
      </trkpt>
      <trkpt lat="48.05235" lon="6.93559">
        <ele>965.5</ele>
        <time>2022-05-28T07:17:16Z</time>
      </trkpt>
      <trkpt lat="48.05235" lon="6.93575">
        <ele>964.5</ele>
        <time>2022-05-28T07:17:20Z</time>
      </trkpt>
      <trkpt lat="48.05236" lon="6.93589">
        <ele>964.6</ele>
        <time>2022-05-28T07:17:23Z</time>
      </trkpt>
      <trkpt lat="48.05238" lon="6.93608">
        <ele>962.7</ele>
        <time>2022-05-28T07:17:26Z</time>
      </trkpt>
      <trkpt lat="48.05243" lon="6.93622">
        <ele>959</ele>
        <time>2022-05-28T07:17:28Z</time>
      </trkpt>
      <trkpt lat="48.05246" lon="6.93636">
        <ele>961.9</ele>
        <time>2022-05-28T07:17:30Z</time>
      </trkpt>
      <trkpt lat="48.05252" lon="6.93655">
        <ele>959.9</ele>
        <time>2022-05-28T07:17:33Z</time>
      </trkpt>
      <trkpt lat="48.05262" lon="6.93668">
        <ele>957.5</ele>
        <time>2022-05-28T07:17:35Z</time>
      </trkpt>
      <trkpt lat="48.05274" lon="6.9368">
        <ele>957.3</ele>
        <time>2022-05-28T07:17:37Z</time>
      </trkpt>
      <trkpt lat="48.05282" lon="6.93691">
        <ele>955.9</ele>
        <time>2022-05-28T07:17:39Z</time>
      </trkpt>
      <trkpt lat="48.0529" lon="6.93707">
        <ele>957.5</ele>
        <time>2022-05-28T07:17:41Z</time>
      </trkpt>
      <trkpt lat="48.05295" lon="6.93725">
        <ele>955.8</ele>
        <time>2022-05-28T07:17:43Z</time>
      </trkpt>
      <trkpt lat="48.053" lon="6.93744">
        <ele>954.5</ele>
        <time>2022-05-28T07:17:45Z</time>
      </trkpt>
      <trkpt lat="48.05306" lon="6.93763">
        <ele>952.3</ele>
        <time>2022-05-28T07:17:47Z</time>
      </trkpt>
      <trkpt lat="48.05312" lon="6.93782">
        <ele>953</ele>
        <time>2022-05-28T07:17:49Z</time>
      </trkpt>
      <trkpt lat="48.05318" lon="6.93799">
        <ele>953.1</ele>
        <time>2022-05-28T07:17:51Z</time>
      </trkpt>
      <trkpt lat="48.05328" lon="6.93814">
        <ele>948.6</ele>
        <time>2022-05-28T07:17:53Z</time>
      </trkpt>
      <trkpt lat="48.05338" lon="6.9383">
        <ele>946.5</ele>
        <time>2022-05-28T07:17:55Z</time>
      </trkpt>
      <trkpt lat="48.05347" lon="6.93843">
        <ele>947.1</ele>
        <time>2022-05-28T07:17:57Z</time>
      </trkpt>
      <trkpt lat="48.05353" lon="6.93854">
        <ele>949.6</ele>
        <time>2022-05-28T07:17:59Z</time>
      </trkpt>
      <trkpt lat="48.05361" lon="6.93867">
        <ele>953.2</ele>
        <time>2022-05-28T07:18:02Z</time>
      </trkpt>
      <trkpt lat="48.05371" lon="6.93877">
        <ele>954.2</ele>
        <time>2022-05-28T07:18:05Z</time>
      </trkpt>
      <trkpt lat="48.05379" lon="6.93885">
        <ele>953.6</ele>
        <time>2022-05-28T07:18:09Z</time>
      </trkpt>
      <trkpt lat="48.05388" lon="6.9389">
        <ele>956.1</ele>
        <time>2022-05-28T07:18:13Z</time>
      </trkpt>
      <trkpt lat="48.05396" lon="6.93896">
        <ele>957.7</ele>
        <time>2022-05-28T07:18:17Z</time>
      </trkpt>
      <trkpt lat="48.05404" lon="6.93906">
        <ele>959.1</ele>
        <time>2022-05-28T07:18:22Z</time>
      </trkpt>
      <trkpt lat="48.0541" lon="6.93919">
        <ele>958.7</ele>
        <time>2022-05-28T07:18:27Z</time>
      </trkpt>
      <trkpt lat="48.05416" lon="6.93934">
        <ele>959.4</ele>
        <time>2022-05-28T07:18:31Z</time>
      </trkpt>
      <trkpt lat="48.05423" lon="6.93947">
        <ele>959.2</ele>
        <time>2022-05-28T07:18:35Z</time>
      </trkpt>
      <trkpt lat="48.05427" lon="6.93959">
        <ele>959.9</ele>
        <time>2022-05-28T07:18:38Z</time>
      </trkpt>
      <trkpt lat="48.05436" lon="6.93971">
        <ele>959.7</ele>
        <time>2022-05-28T07:18:42Z</time>
      </trkpt>
      <trkpt lat="48.05443" lon="6.93983">
        <ele>960.2</ele>
        <time>2022-05-28T07:18:46Z</time>
      </trkpt>
      <trkpt lat="48.0545" lon="6.93998">
        <ele>959.2</ele>
        <time>2022-05-28T07:18:50Z</time>
      </trkpt>
      <trkpt lat="48.05457" lon="6.94013">
        <ele>961.7</ele>
        <time>2022-05-28T07:18:53Z</time>
      </trkpt>
      <trkpt lat="48.05464" lon="6.94028">
        <ele>960.2</ele>
        <time>2022-05-28T07:18:56Z</time>
      </trkpt>
      <trkpt lat="48.05472" lon="6.94042">
        <ele>958.8</ele>
        <time>2022-05-28T07:18:59Z</time>
      </trkpt>
      <trkpt lat="48.0548" lon="6.9405">
        <ele>960</ele>
        <time>2022-05-28T07:19:01Z</time>
      </trkpt>
      <trkpt lat="48.0549" lon="6.94058">
        <ele>959.8</ele>
        <time>2022-05-28T07:19:03Z</time>
      </trkpt>
      <trkpt lat="48.05499" lon="6.94065">
        <ele>958.8</ele>
        <time>2022-05-28T07:19:07Z</time>
      </trkpt>
      <trkpt lat="48.05496" lon="6.94052">
        <ele>958.8</ele>
        <time>2022-05-28T07:19:16Z</time>
      </trkpt>
      <trkpt lat="48.05486" lon="6.94045">
        <ele>958.6</ele>
        <time>2022-05-28T07:19:22Z</time>
      </trkpt>
      <trkpt lat="48.05477" lon="6.94037">
        <ele>961</ele>
        <time>2022-05-28T07:19:27Z</time>
      </trkpt>
      <trkpt lat="48.05469" lon="6.94027">
        <ele>960.4</ele>
        <time>2022-05-28T07:19:32Z</time>
      </trkpt>
      <trkpt lat="48.05463" lon="6.94018">
        <ele>960.7</ele>
        <time>2022-05-28T07:19:37Z</time>
      </trkpt>
      <trkpt lat="48.05455" lon="6.94009">
        <ele>960.9</ele>
        <time>2022-05-28T07:19:42Z</time>
      </trkpt>
      <trkpt lat="48.05448" lon="6.93998">
        <ele>960.7</ele>
        <time>2022-05-28T07:19:48Z</time>
      </trkpt>
      <trkpt lat="48.05441" lon="6.93988">
        <ele>960.6</ele>
        <time>2022-05-28T07:19:52Z</time>
      </trkpt>
      <trkpt lat="48.05434" lon="6.93975">
        <ele>961.8</ele>
        <time>2022-05-28T07:19:56Z</time>
      </trkpt>
      <trkpt lat="48.05426" lon="6.93964">
        <ele>960.2</ele>
        <time>2022-05-28T07:20:00Z</time>
      </trkpt>
      <trkpt lat="48.0542" lon="6.93951">
        <ele>960.4</ele>
        <time>2022-05-28T07:20:03Z</time>
      </trkpt>
      <trkpt lat="48.05414" lon="6.93937">
        <ele>960.9</ele>
        <time>2022-05-28T07:20:06Z</time>
      </trkpt>
      <trkpt lat="48.05408" lon="6.93924">
        <ele>959.9</ele>
        <time>2022-05-28T07:20:09Z</time>
      </trkpt>
      <trkpt lat="48.054" lon="6.93913">
        <ele>959.1</ele>
        <time>2022-05-28T07:20:12Z</time>
      </trkpt>
      <trkpt lat="48.05392" lon="6.93904">
        <ele>958.5</ele>
        <time>2022-05-28T07:20:15Z</time>
      </trkpt>
      <trkpt lat="48.05382" lon="6.93897">
        <ele>957.5</ele>
        <time>2022-05-28T07:20:18Z</time>
      </trkpt>
      <trkpt lat="48.05373" lon="6.93891">
        <ele>956.4</ele>
        <time>2022-05-28T07:20:20Z</time>
      </trkpt>
      <trkpt lat="48.05364" lon="6.93883">
        <ele>953.3</ele>
        <time>2022-05-28T07:20:22Z</time>
      </trkpt>
      <trkpt lat="48.05353" lon="6.93873">
        <ele>953.6</ele>
        <time>2022-05-28T07:20:24Z</time>
      </trkpt>
      <trkpt lat="48.05343" lon="6.93856">
        <ele>952.4</ele>
        <time>2022-05-28T07:20:26Z</time>
      </trkpt>
      <trkpt lat="48.05333" lon="6.93837">
        <ele>947.2</ele>
        <time>2022-05-28T07:20:28Z</time>
      </trkpt>
      <trkpt lat="48.05322" lon="6.93818">
        <ele>948</ele>
        <time>2022-05-28T07:20:30Z</time>
      </trkpt>
      <trkpt lat="48.05315" lon="6.938">
        <ele>949.1</ele>
        <time>2022-05-28T07:20:32Z</time>
      </trkpt>
      <trkpt lat="48.05311" lon="6.93786">
        <ele>951</ele>
        <time>2022-05-28T07:20:34Z</time>
      </trkpt>
      <trkpt lat="48.05307" lon="6.93772">
        <ele>953</ele>
        <time>2022-05-28T07:20:37Z</time>
      </trkpt>
      <trkpt lat="48.05304" lon="6.93758">
        <ele>955.4</ele>
        <time>2022-05-28T07:20:40Z</time>
      </trkpt>
      <trkpt lat="48.053" lon="6.93742">
        <ele>955</ele>
        <time>2022-05-28T07:20:44Z</time>
      </trkpt>
      <trkpt lat="48.05297" lon="6.93726">
        <ele>955.5</ele>
        <time>2022-05-28T07:20:48Z</time>
      </trkpt>
      <trkpt lat="48.05293" lon="6.93711">
        <ele>957.3</ele>
        <time>2022-05-28T07:20:52Z</time>
      </trkpt>
      <trkpt lat="48.05288" lon="6.93697">
        <ele>958.2</ele>
        <time>2022-05-28T07:20:56Z</time>
      </trkpt>
      <trkpt lat="48.05283" lon="6.93684">
        <ele>957.7</ele>
        <time>2022-05-28T07:21:00Z</time>
      </trkpt>
      <trkpt lat="48.05276" lon="6.93673">
        <ele>960.1</ele>
        <time>2022-05-28T07:21:04Z</time>
      </trkpt>
      <trkpt lat="48.05266" lon="6.93664">
        <ele>960.2</ele>
        <time>2022-05-28T07:21:08Z</time>
      </trkpt>
      <trkpt lat="48.05259" lon="6.93655">
        <ele>960.1</ele>
        <time>2022-05-28T07:21:12Z</time>
      </trkpt>
      <trkpt lat="48.05253" lon="6.93643">
        <ele>962.2</ele>
        <time>2022-05-28T07:21:17Z</time>
      </trkpt>
      <trkpt lat="48.05248" lon="6.93629">
        <ele>962.7</ele>
        <time>2022-05-28T07:21:22Z</time>
      </trkpt>
      <trkpt lat="48.05245" lon="6.93614">
        <ele>963.6</ele>
        <time>2022-05-28T07:21:27Z</time>
      </trkpt>
      <trkpt lat="48.05241" lon="6.93599">
        <ele>964.8</ele>
        <time>2022-05-28T07:21:32Z</time>
      </trkpt>
      <trkpt lat="48.05238" lon="6.93586">
        <ele>965.2</ele>
        <time>2022-05-28T07:21:37Z</time>
      </trkpt>
      <trkpt lat="48.05236" lon="6.9357">
        <ele>966.2</ele>
        <time>2022-05-28T07:21:42Z</time>
      </trkpt>
      <trkpt lat="48.05234" lon="6.93554">
        <ele>966.4</ele>
        <time>2022-05-28T07:21:46Z</time>
      </trkpt>
      <trkpt lat="48.05231" lon="6.93541">
        <ele>966.2</ele>
        <time>2022-05-28T07:21:50Z</time>
      </trkpt>
      <trkpt lat="48.05224" lon="6.93527">
        <ele>966.6</ele>
        <time>2022-05-28T07:21:54Z</time>
      </trkpt>
      <trkpt lat="48.0522" lon="6.93515">
        <ele>968.2</ele>
        <time>2022-05-28T07:21:57Z</time>
      </trkpt>
      <trkpt lat="48.05216" lon="6.93502">
        <ele>966.7</ele>
        <time>2022-05-28T07:22:00Z</time>
      </trkpt>
      <trkpt lat="48.05213" lon="6.93488">
        <ele>967.3</ele>
        <time>2022-05-28T07:22:03Z</time>
      </trkpt>
      <trkpt lat="48.05208" lon="6.93475">
        <ele>965.7</ele>
        <time>2022-05-28T07:22:06Z</time>
      </trkpt>
      <trkpt lat="48.05207" lon="6.9346">
        <ele>964.5</ele>
        <time>2022-05-28T07:22:09Z</time>
      </trkpt>
      <trkpt lat="48.05207" lon="6.93445">
        <ele>967.2</ele>
        <time>2022-05-28T07:22:12Z</time>
      </trkpt>
      <trkpt lat="48.05208" lon="6.93431">
        <ele>966.1</ele>
        <time>2022-05-28T07:22:15Z</time>
      </trkpt>
      <trkpt lat="48.05204" lon="6.93413">
        <ele>966.9</ele>
        <time>2022-05-28T07:22:18Z</time>
      </trkpt>
      <trkpt lat="48.05202" lon="6.93399">
        <ele>965.9</ele>
        <time>2022-05-28T07:22:20Z</time>
      </trkpt>
      <trkpt lat="48.05202" lon="6.93379">
        <ele>966.2</ele>
        <time>2022-05-28T07:22:23Z</time>
      </trkpt>
      <trkpt lat="48.05201" lon="6.93362">
        <ele>965.4</ele>
        <time>2022-05-28T07:22:26Z</time>
      </trkpt>
      <trkpt lat="48.05201" lon="6.93346">
        <ele>965.9</ele>
        <time>2022-05-28T07:22:29Z</time>
      </trkpt>
      <trkpt lat="48.05199" lon="6.93328">
        <ele>966.5</ele>
        <time>2022-05-28T07:22:33Z</time>
      </trkpt>
      <trkpt lat="48.05196" lon="6.93314">
        <ele>967.6</ele>
        <time>2022-05-28T07:22:36Z</time>
      </trkpt>
      <trkpt lat="48.05195" lon="6.93299">
        <ele>967.4</ele>
        <time>2022-05-28T07:22:39Z</time>
      </trkpt>
      <trkpt lat="48.05192" lon="6.93282">
        <ele>966.7</ele>
        <time>2022-05-28T07:22:42Z</time>
      </trkpt>
      <trkpt lat="48.05191" lon="6.93268">
        <ele>967.5</ele>
        <time>2022-05-28T07:22:44Z</time>
      </trkpt>
      <trkpt lat="48.05192" lon="6.9325">
        <ele>963.6</ele>
        <time>2022-05-28T07:22:46Z</time>
      </trkpt>
      <trkpt lat="48.05195" lon="6.93229">
        <ele>964.6</ele>
        <time>2022-05-28T07:22:48Z</time>
      </trkpt>
      <trkpt lat="48.05196" lon="6.93206">
        <ele>958.2</ele>
        <time>2022-05-28T07:22:50Z</time>
      </trkpt>
      <trkpt lat="48.05192" lon="6.93183">
        <ele>958</ele>
        <time>2022-05-28T07:22:52Z</time>
      </trkpt>
      <trkpt lat="48.05186" lon="6.93165">
        <ele>955.7</ele>
        <time>2022-05-28T07:22:54Z</time>
      </trkpt>
      <trkpt lat="48.05177" lon="6.93148">
        <ele>953.2</ele>
        <time>2022-05-28T07:22:56Z</time>
      </trkpt>
      <trkpt lat="48.05169" lon="6.9313">
        <ele>954.3</ele>
        <time>2022-05-28T07:22:58Z</time>
      </trkpt>
      <trkpt lat="48.0516" lon="6.93113">
        <ele>953.8</ele>
        <time>2022-05-28T07:23:00Z</time>
      </trkpt>
      <trkpt lat="48.05152" lon="6.93099">
        <ele>956.9</ele>
        <time>2022-05-28T07:23:02Z</time>
      </trkpt>
      <trkpt lat="48.05145" lon="6.93084">
        <ele>958</ele>
        <time>2022-05-28T07:23:05Z</time>
      </trkpt>
      <trkpt lat="48.05137" lon="6.93068">
        <ele>958.3</ele>
        <time>2022-05-28T07:23:08Z</time>
      </trkpt>
      <trkpt lat="48.05132" lon="6.93057">
        <ele>959.2</ele>
        <time>2022-05-28T07:23:10Z</time>
      </trkpt>
      <trkpt lat="48.05124" lon="6.93042">
        <ele>956.6</ele>
        <time>2022-05-28T07:23:13Z</time>
      </trkpt>
      <trkpt lat="48.05116" lon="6.93032">
        <ele>955.9</ele>
        <time>2022-05-28T07:23:15Z</time>
      </trkpt>
      <trkpt lat="48.05108" lon="6.93024">
        <ele>956.2</ele>
        <time>2022-05-28T07:23:17Z</time>
      </trkpt>
      <trkpt lat="48.05098" lon="6.93013">
        <ele>955.5</ele>
        <time>2022-05-28T07:23:20Z</time>
      </trkpt>
      <trkpt lat="48.05088" lon="6.93">
        <ele>956.4</ele>
        <time>2022-05-28T07:23:23Z</time>
      </trkpt>
      <trkpt lat="48.05082" lon="6.9299">
        <ele>956.3</ele>
        <time>2022-05-28T07:23:25Z</time>
      </trkpt>
      <trkpt lat="48.05075" lon="6.92975">
        <ele>957.2</ele>
        <time>2022-05-28T07:23:27Z</time>
      </trkpt>
      <trkpt lat="48.05068" lon="6.92964">
        <ele>955.7</ele>
        <time>2022-05-28T07:23:29Z</time>
      </trkpt>
      <trkpt lat="48.05059" lon="6.92952">
        <ele>956.3</ele>
        <time>2022-05-28T07:23:32Z</time>
      </trkpt>
      <trkpt lat="48.05052" lon="6.9294">
        <ele>957.5</ele>
        <time>2022-05-28T07:23:35Z</time>
      </trkpt>
      <trkpt lat="48.05044" lon="6.92929">
        <ele>958.4</ele>
        <time>2022-05-28T07:23:38Z</time>
      </trkpt>
      <trkpt lat="48.05037" lon="6.92919">
        <ele>956.4</ele>
        <time>2022-05-28T07:23:41Z</time>
      </trkpt>
      <trkpt lat="48.0503" lon="6.92909">
        <ele>957.8</ele>
        <time>2022-05-28T07:23:44Z</time>
      </trkpt>
      <trkpt lat="48.05021" lon="6.92898">
        <ele>958.7</ele>
        <time>2022-05-28T07:23:48Z</time>
      </trkpt>
      <trkpt lat="48.05011" lon="6.9289">
        <ele>958.9</ele>
        <time>2022-05-28T07:23:52Z</time>
      </trkpt>
      <trkpt lat="48.05003" lon="6.9288">
        <ele>960.3</ele>
        <time>2022-05-28T07:23:56Z</time>
      </trkpt>
      <trkpt lat="48.04996" lon="6.9287">
        <ele>961.2</ele>
        <time>2022-05-28T07:24:00Z</time>
      </trkpt>
      <trkpt lat="48.04988" lon="6.92862">
        <ele>963.7</ele>
        <time>2022-05-28T07:24:04Z</time>
      </trkpt>
      <trkpt lat="48.04981" lon="6.92849">
        <ele>964.7</ele>
        <time>2022-05-28T07:24:08Z</time>
      </trkpt>
      <trkpt lat="48.04973" lon="6.92841">
        <ele>963.9</ele>
        <time>2022-05-28T07:24:12Z</time>
      </trkpt>
      <trkpt lat="48.04964" lon="6.92834">
        <ele>965.9</ele>
        <time>2022-05-28T07:24:16Z</time>
      </trkpt>
      <trkpt lat="48.04955" lon="6.92829">
        <ele>965.6</ele>
        <time>2022-05-28T07:24:20Z</time>
      </trkpt>
      <trkpt lat="48.04946" lon="6.92825">
        <ele>966.9</ele>
        <time>2022-05-28T07:24:24Z</time>
      </trkpt>
      <trkpt lat="48.04936" lon="6.9282">
        <ele>968</ele>
        <time>2022-05-28T07:24:29Z</time>
      </trkpt>
      <trkpt lat="48.04926" lon="6.92812">
        <ele>969.1</ele>
        <time>2022-05-28T07:24:34Z</time>
      </trkpt>
      <trkpt lat="48.04917" lon="6.92804">
        <ele>969.4</ele>
        <time>2022-05-28T07:24:39Z</time>
      </trkpt>
      <trkpt lat="48.04908" lon="6.92799">
        <ele>970.3</ele>
        <time>2022-05-28T07:24:43Z</time>
      </trkpt>
      <trkpt lat="48.049" lon="6.92792">
        <ele>971</ele>
        <time>2022-05-28T07:24:47Z</time>
      </trkpt>
      <trkpt lat="48.04891" lon="6.92787">
        <ele>971.2</ele>
        <time>2022-05-28T07:24:51Z</time>
      </trkpt>
      <trkpt lat="48.04881" lon="6.92781">
        <ele>972</ele>
        <time>2022-05-28T07:24:55Z</time>
      </trkpt>
      <trkpt lat="48.04872" lon="6.92773">
        <ele>971.8</ele>
        <time>2022-05-28T07:24:59Z</time>
      </trkpt>
      <trkpt lat="48.04862" lon="6.92765">
        <ele>972</ele>
        <time>2022-05-28T07:25:03Z</time>
      </trkpt>
      <trkpt lat="48.04853" lon="6.9276">
        <ele>973</ele>
        <time>2022-05-28T07:25:07Z</time>
      </trkpt>
      <trkpt lat="48.04844" lon="6.92756">
        <ele>974.1</ele>
        <time>2022-05-28T07:25:11Z</time>
      </trkpt>
      <trkpt lat="48.04833" lon="6.92754">
        <ele>974.9</ele>
        <time>2022-05-28T07:25:16Z</time>
      </trkpt>
      <trkpt lat="48.04822" lon="6.92755">
        <ele>974.4</ele>
        <time>2022-05-28T07:25:21Z</time>
      </trkpt>
      <trkpt lat="48.04812" lon="6.92755">
        <ele>975.1</ele>
        <time>2022-05-28T07:25:26Z</time>
      </trkpt>
      <trkpt lat="48.04804" lon="6.92747">
        <ele>976.6</ele>
        <time>2022-05-28T07:25:32Z</time>
      </trkpt>
      <trkpt lat="48.04803" lon="6.92733">
        <ele>978</ele>
        <time>2022-05-28T07:25:42Z</time>
      </trkpt>
      <trkpt lat="48.04813" lon="6.92732">
        <ele>981.5</ele>
        <time>2022-05-28T07:25:49Z</time>
      </trkpt>
      <trkpt lat="48.04816" lon="6.92719">
        <ele>983.9</ele>
        <time>2022-05-28T07:25:55Z</time>
      </trkpt>
      <trkpt lat="48.04816" lon="6.92703">
        <ele>986</ele>
        <time>2022-05-28T07:26:02Z</time>
      </trkpt>
      <trkpt lat="48.04816" lon="6.92689">
        <ele>988.7</ele>
        <time>2022-05-28T07:26:08Z</time>
      </trkpt>
      <trkpt lat="48.04813" lon="6.92675">
        <ele>991.2</ele>
        <time>2022-05-28T07:26:17Z</time>
      </trkpt>
      <trkpt lat="48.04814" lon="6.92661">
        <ele>993.2</ele>
        <time>2022-05-28T07:26:27Z</time>
      </trkpt>
      <trkpt lat="48.04815" lon="6.92652">
        <ele>995</ele>
        <time>2022-05-28T07:26:35Z</time>
      </trkpt>
      <trkpt lat="48.04815" lon="6.9265">
        <ele>995.7</ele>
        <time>2022-05-28T07:26:37Z</time>
      </trkpt>
      <trkpt lat="48.04815" lon="6.92646">
        <ele>995.5</ele>
        <time>2022-05-28T07:26:44Z</time>
      </trkpt>
      <trkpt lat="48.04816" lon="6.92646">
        <ele>995.6</ele>
        <time>2022-05-28T07:26:51Z</time>
      </trkpt>
      <trkpt lat="48.04822" lon="6.92635">
        <ele>998.2</ele>
        <time>2022-05-28T07:27:03Z</time>
      </trkpt>
      <trkpt lat="48.04822" lon="6.92633">
        <ele>999</ele>
        <time>2022-05-28T07:27:06Z</time>
      </trkpt>
      <trkpt lat="48.04824" lon="6.9262">
        <ele>1000.6</ele>
        <time>2022-05-28T07:27:19Z</time>
      </trkpt>
      <trkpt lat="48.04824" lon="6.92606">
        <ele>1002.1</ele>
        <time>2022-05-28T07:27:27Z</time>
      </trkpt>
      <trkpt lat="48.04825" lon="6.92591">
        <ele>1004.1</ele>
        <time>2022-05-28T07:27:35Z</time>
      </trkpt>
      <trkpt lat="48.04824" lon="6.92576">
        <ele>1006.8</ele>
        <time>2022-05-28T07:27:42Z</time>
      </trkpt>
      <trkpt lat="48.04821" lon="6.92562">
        <ele>1009.2</ele>
        <time>2022-05-28T07:27:49Z</time>
      </trkpt>
      <trkpt lat="48.04823" lon="6.92548">
        <ele>1011.3</ele>
        <time>2022-05-28T07:27:56Z</time>
      </trkpt>
      <trkpt lat="48.04822" lon="6.92534">
        <ele>1011.9</ele>
        <time>2022-05-28T07:28:03Z</time>
      </trkpt>
      <trkpt lat="48.04819" lon="6.92529">
        <ele>1011.7</ele>
        <time>2022-05-28T07:28:10Z</time>
      </trkpt>
      <trkpt lat="48.04819" lon="6.92528">
        <ele>1011.8</ele>
        <time>2022-05-28T07:28:13Z</time>
      </trkpt>
      <trkpt lat="48.04815" lon="6.92514">
        <ele>1012.9</ele>
        <time>2022-05-28T07:28:20Z</time>
      </trkpt>
      <trkpt lat="48.0481" lon="6.92501">
        <ele>1014.1</ele>
        <time>2022-05-28T07:28:26Z</time>
      </trkpt>
      <trkpt lat="48.04807" lon="6.92488">
        <ele>1014.8</ele>
        <time>2022-05-28T07:28:31Z</time>
      </trkpt>
      <trkpt lat="48.04805" lon="6.92473">
        <ele>1015.1</ele>
        <time>2022-05-28T07:28:37Z</time>
      </trkpt>
      <trkpt lat="48.04801" lon="6.92459">
        <ele>1016.5</ele>
        <time>2022-05-28T07:28:44Z</time>
      </trkpt>
      <trkpt lat="48.04798" lon="6.92445">
        <ele>1019.4</ele>
        <time>2022-05-28T07:28:53Z</time>
      </trkpt>
      <trkpt lat="48.04795" lon="6.92432">
        <ele>1020</ele>
        <time>2022-05-28T07:29:00Z</time>
      </trkpt>
      <trkpt lat="48.04793" lon="6.92418">
        <ele>1021.3</ele>
        <time>2022-05-28T07:29:07Z</time>
      </trkpt>
      <trkpt lat="48.04791" lon="6.92404">
        <ele>1022.7</ele>
        <time>2022-05-28T07:29:14Z</time>
      </trkpt>
      <trkpt lat="48.0479" lon="6.92391">
        <ele>1024.6</ele>
        <time>2022-05-28T07:29:20Z</time>
      </trkpt>
      <trkpt lat="48.04786" lon="6.92376">
        <ele>1026.6</ele>
        <time>2022-05-28T07:29:27Z</time>
      </trkpt>
      <trkpt lat="48.04784" lon="6.92361">
        <ele>1029.1</ele>
        <time>2022-05-28T07:29:35Z</time>
      </trkpt>
      <trkpt lat="48.04779" lon="6.92349">
        <ele>1031.1</ele>
        <time>2022-05-28T07:29:42Z</time>
      </trkpt>
      <trkpt lat="48.04776" lon="6.92335">
        <ele>1033.1</ele>
        <time>2022-05-28T07:29:50Z</time>
      </trkpt>
      <trkpt lat="48.04776" lon="6.92321">
        <ele>1034.7</ele>
        <time>2022-05-28T07:29:59Z</time>
      </trkpt>
      <trkpt lat="48.04777" lon="6.92305">
        <ele>1035.8</ele>
        <time>2022-05-28T07:30:09Z</time>
      </trkpt>
      <trkpt lat="48.04772" lon="6.92292">
        <ele>1037</ele>
        <time>2022-05-28T07:30:16Z</time>
      </trkpt>
      <trkpt lat="48.0477" lon="6.92278">
        <ele>1039.5</ele>
        <time>2022-05-28T07:30:22Z</time>
      </trkpt>
      <trkpt lat="48.04771" lon="6.92263">
        <ele>1041.3</ele>
        <time>2022-05-28T07:30:30Z</time>
      </trkpt>
      <trkpt lat="48.0477" lon="6.9225">
        <ele>1043.3</ele>
        <time>2022-05-28T07:30:37Z</time>
      </trkpt>
      <trkpt lat="48.04772" lon="6.92235">
        <ele>1044.8</ele>
        <time>2022-05-28T07:30:45Z</time>
      </trkpt>
      <trkpt lat="48.0477" lon="6.92222">
        <ele>1046.1</ele>
        <time>2022-05-28T07:30:52Z</time>
      </trkpt>
      <trkpt lat="48.04767" lon="6.92208">
        <ele>1048</ele>
        <time>2022-05-28T07:31:00Z</time>
      </trkpt>
      <trkpt lat="48.04767" lon="6.92193">
        <ele>1049.6</ele>
        <time>2022-05-28T07:31:08Z</time>
      </trkpt>
      <trkpt lat="48.04768" lon="6.92178">
        <ele>1050.6</ele>
        <time>2022-05-28T07:31:15Z</time>
      </trkpt>
      <trkpt lat="48.04773" lon="6.92165">
        <ele>1052.9</ele>
        <time>2022-05-28T07:31:22Z</time>
      </trkpt>
      <trkpt lat="48.04781" lon="6.92172">
        <ele>1054</ele>
        <time>2022-05-28T07:31:34Z</time>
      </trkpt>
      <trkpt lat="48.04773" lon="6.92164">
        <ele>1053.4</ele>
        <time>2022-05-28T07:31:45Z</time>
      </trkpt>
      <trkpt lat="48.04777" lon="6.92172">
        <ele>1053.6</ele>
        <time>2022-05-28T07:31:56Z</time>
      </trkpt>
      <trkpt lat="48.04778" lon="6.92172">
        <ele>1053.7</ele>
        <time>2022-05-28T07:31:57Z</time>
      </trkpt>
      <trkpt lat="48.04778" lon="6.92171">
        <ele>1054</ele>
        <time>2022-05-28T07:31:58Z</time>
      </trkpt>
      <trkpt lat="48.04777" lon="6.92171">
        <ele>1054</ele>
        <time>2022-05-28T07:31:59Z</time>
      </trkpt>
      <trkpt lat="48.04777" lon="6.92172">
        <ele>1053.9</ele>
        <time>2022-05-28T07:32:14Z</time>
      </trkpt>
      <trkpt lat="48.04777" lon="6.92173">
        <ele>1053.7</ele>
        <time>2022-05-28T07:32:18Z</time>
      </trkpt>
      <trkpt lat="48.04777" lon="6.92171">
        <ele>1053.7</ele>
        <time>2022-05-28T07:32:50Z</time>
      </trkpt>
      <trkpt lat="48.04777" lon="6.9217">
        <ele>1053.8</ele>
        <time>2022-05-28T07:32:53Z</time>
      </trkpt>
      <trkpt lat="48.04777" lon="6.9217">
        <ele>1053.5</ele>
        <time>2022-05-28T07:34:14Z</time>
      </trkpt>
      <trkpt lat="48.04778" lon="6.92174">
        <ele>1053.3</ele>
        <time>2022-05-28T07:34:21Z</time>
      </trkpt>
      <trkpt lat="48.04779" lon="6.92175">
        <ele>1053.6</ele>
        <time>2022-05-28T07:34:25Z</time>
      </trkpt>
      <trkpt lat="48.04779" lon="6.92176">
        <ele>1053.5</ele>
        <time>2022-05-28T07:34:30Z</time>
      </trkpt>
      <trkpt lat="48.04778" lon="6.92171">
        <ele>1052.8</ele>
        <time>2022-05-28T07:35:12Z</time>
      </trkpt>
      <trkpt lat="48.04779" lon="6.92176">
        <ele>1053.1</ele>
        <time>2022-05-28T07:35:53Z</time>
      </trkpt>
      <trkpt lat="48.04779" lon="6.92176">
        <ele>1052.6</ele>
        <time>2022-05-28T07:37:47Z</time>
      </trkpt>
      <trkpt lat="48.0478" lon="6.92176">
        <ele>1052.2</ele>
        <time>2022-05-28T07:40:07Z</time>
      </trkpt>
      <trkpt lat="48.0478" lon="6.92175">
        <ele>1053</ele>
        <time>2022-05-28T07:42:12Z</time>
      </trkpt>
      <trkpt lat="48.04781" lon="6.92175">
        <ele>1053.3</ele>
        <time>2022-05-28T07:42:50Z</time>
      </trkpt>
      <trkpt lat="48.04782" lon="6.92177">
        <ele>1053</ele>
        <time>2022-05-28T07:42:56Z</time>
      </trkpt>
      <trkpt lat="48.04789" lon="6.92189">
        <ele>1053.2</ele>
        <time>2022-05-28T07:43:07Z</time>
      </trkpt>
      <trkpt lat="48.04794" lon="6.92199">
        <ele>1053.5</ele>
        <time>2022-05-28T07:43:12Z</time>
      </trkpt>
      <trkpt lat="48.04802" lon="6.9221">
        <ele>1054.1</ele>
        <time>2022-05-28T07:43:17Z</time>
      </trkpt>
      <trkpt lat="48.04811" lon="6.9222">
        <ele>1054.6</ele>
        <time>2022-05-28T07:43:22Z</time>
      </trkpt>
      <trkpt lat="48.04818" lon="6.92229">
        <ele>1055.3</ele>
        <time>2022-05-28T07:43:26Z</time>
      </trkpt>
      <trkpt lat="48.04826" lon="6.92236">
        <ele>1055.3</ele>
        <time>2022-05-28T07:43:30Z</time>
      </trkpt>
      <trkpt lat="48.04832" lon="6.92247">
        <ele>1055.8</ele>
        <time>2022-05-28T07:43:34Z</time>
      </trkpt>
      <trkpt lat="48.04839" lon="6.9226">
        <ele>1056.4</ele>
        <time>2022-05-28T07:43:39Z</time>
      </trkpt>
      <trkpt lat="48.04844" lon="6.92272">
        <ele>1056.6</ele>
        <time>2022-05-28T07:43:43Z</time>
      </trkpt>
      <trkpt lat="48.0485" lon="6.92284">
        <ele>1056.7</ele>
        <time>2022-05-28T07:43:47Z</time>
      </trkpt>
      <trkpt lat="48.04856" lon="6.92297">
        <ele>1057.3</ele>
        <time>2022-05-28T07:43:51Z</time>
      </trkpt>
      <trkpt lat="48.04861" lon="6.92311">
        <ele>1057.9</ele>
        <time>2022-05-28T07:43:55Z</time>
      </trkpt>
      <trkpt lat="48.04867" lon="6.92323">
        <ele>1058</ele>
        <time>2022-05-28T07:43:59Z</time>
      </trkpt>
      <trkpt lat="48.04873" lon="6.92335">
        <ele>1059.5</ele>
        <time>2022-05-28T07:44:03Z</time>
      </trkpt>
      <trkpt lat="48.04881" lon="6.92348">
        <ele>1059</ele>
        <time>2022-05-28T07:44:07Z</time>
      </trkpt>
      <trkpt lat="48.04888" lon="6.92357">
        <ele>1059.7</ele>
        <time>2022-05-28T07:44:10Z</time>
      </trkpt>
      <trkpt lat="48.04897" lon="6.92368">
        <ele>1059.3</ele>
        <time>2022-05-28T07:44:14Z</time>
      </trkpt>
      <trkpt lat="48.04904" lon="6.92376">
        <ele>1059.2</ele>
        <time>2022-05-28T07:44:17Z</time>
      </trkpt>
      <trkpt lat="48.04914" lon="6.92386">
        <ele>1060</ele>
        <time>2022-05-28T07:44:21Z</time>
      </trkpt>
      <trkpt lat="48.04921" lon="6.92396">
        <ele>1059.7</ele>
        <time>2022-05-28T07:44:24Z</time>
      </trkpt>
      <trkpt lat="48.04928" lon="6.92407">
        <ele>1058.8</ele>
        <time>2022-05-28T07:44:27Z</time>
      </trkpt>
      <trkpt lat="48.04933" lon="6.92418">
        <ele>1060.7</ele>
        <time>2022-05-28T07:44:30Z</time>
      </trkpt>
      <trkpt lat="48.04938" lon="6.9243">
        <ele>1061.4</ele>
        <time>2022-05-28T07:44:33Z</time>
      </trkpt>
      <trkpt lat="48.04942" lon="6.92442">
        <ele>1061.3</ele>
        <time>2022-05-28T07:44:36Z</time>
      </trkpt>
      <trkpt lat="48.04947" lon="6.92454">
        <ele>1061</ele>
        <time>2022-05-28T07:44:39Z</time>
      </trkpt>
      <trkpt lat="48.04954" lon="6.92465">
        <ele>1061.6</ele>
        <time>2022-05-28T07:44:42Z</time>
      </trkpt>
      <trkpt lat="48.04961" lon="6.92477">
        <ele>1059.9</ele>
        <time>2022-05-28T07:44:45Z</time>
      </trkpt>
      <trkpt lat="48.04968" lon="6.92488">
        <ele>1062</ele>
        <time>2022-05-28T07:44:48Z</time>
      </trkpt>
      <trkpt lat="48.04975" lon="6.92501">
        <ele>1061.2</ele>
        <time>2022-05-28T07:44:51Z</time>
      </trkpt>
      <trkpt lat="48.04984" lon="6.92512">
        <ele>1059.2</ele>
        <time>2022-05-28T07:44:54Z</time>
      </trkpt>
      <trkpt lat="48.04996" lon="6.92518">
        <ele>1058.3</ele>
        <time>2022-05-28T07:44:57Z</time>
      </trkpt>
      <trkpt lat="48.05006" lon="6.92521">
        <ele>1056.1</ele>
        <time>2022-05-28T07:44:59Z</time>
      </trkpt>
      <trkpt lat="48.05017" lon="6.92524">
        <ele>1055</ele>
        <time>2022-05-28T07:45:01Z</time>
      </trkpt>
      <trkpt lat="48.0503" lon="6.92529">
        <ele>1054.8</ele>
        <time>2022-05-28T07:45:03Z</time>
      </trkpt>
      <trkpt lat="48.05044" lon="6.92533">
        <ele>1052.8</ele>
        <time>2022-05-28T07:45:05Z</time>
      </trkpt>
      <trkpt lat="48.05058" lon="6.9254">
        <ele>1052.3</ele>
        <time>2022-05-28T07:45:07Z</time>
      </trkpt>
      <trkpt lat="48.05072" lon="6.92549">
        <ele>1052</ele>
        <time>2022-05-28T07:45:09Z</time>
      </trkpt>
      <trkpt lat="48.05085" lon="6.92558">
        <ele>1051.6</ele>
        <time>2022-05-28T07:45:11Z</time>
      </trkpt>
      <trkpt lat="48.05099" lon="6.92566">
        <ele>1051.4</ele>
        <time>2022-05-28T07:45:13Z</time>
      </trkpt>
      <trkpt lat="48.05112" lon="6.92574">
        <ele>1051.3</ele>
        <time>2022-05-28T07:45:15Z</time>
      </trkpt>
      <trkpt lat="48.05122" lon="6.92585">
        <ele>1051.4</ele>
        <time>2022-05-28T07:45:17Z</time>
      </trkpt>
      <trkpt lat="48.05131" lon="6.92592">
        <ele>1053.6</ele>
        <time>2022-05-28T07:45:19Z</time>
      </trkpt>
      <trkpt lat="48.05142" lon="6.92599">
        <ele>1054</ele>
        <time>2022-05-28T07:45:22Z</time>
      </trkpt>
      <trkpt lat="48.05152" lon="6.92605">
        <ele>1053.3</ele>
        <time>2022-05-28T07:45:25Z</time>
      </trkpt>
      <trkpt lat="48.05163" lon="6.92617">
        <ele>1053.2</ele>
        <time>2022-05-28T07:45:28Z</time>
      </trkpt>
      <trkpt lat="48.05173" lon="6.92625">
        <ele>1053.8</ele>
        <time>2022-05-28T07:45:31Z</time>
      </trkpt>
      <trkpt lat="48.05183" lon="6.92634">
        <ele>1053.3</ele>
        <time>2022-05-28T07:45:34Z</time>
      </trkpt>
      <trkpt lat="48.05193" lon="6.92645">
        <ele>1053.3</ele>
        <time>2022-05-28T07:45:37Z</time>
      </trkpt>
      <trkpt lat="48.05202" lon="6.92655">
        <ele>1054.2</ele>
        <time>2022-05-28T07:45:40Z</time>
      </trkpt>
      <trkpt lat="48.05211" lon="6.92667">
        <ele>1055.4</ele>
        <time>2022-05-28T07:45:43Z</time>
      </trkpt>
      <trkpt lat="48.05218" lon="6.92679">
        <ele>1054.6</ele>
        <time>2022-05-28T07:45:46Z</time>
      </trkpt>
      <trkpt lat="48.05224" lon="6.9269">
        <ele>1055.8</ele>
        <time>2022-05-28T07:45:49Z</time>
      </trkpt>
      <trkpt lat="48.0523" lon="6.927">
        <ele>1056.7</ele>
        <time>2022-05-28T07:45:52Z</time>
      </trkpt>
      <trkpt lat="48.05237" lon="6.92711">
        <ele>1057</ele>
        <time>2022-05-28T07:45:55Z</time>
      </trkpt>
      <trkpt lat="48.05245" lon="6.9272">
        <ele>1056.6</ele>
        <time>2022-05-28T07:45:58Z</time>
      </trkpt>
      <trkpt lat="48.05256" lon="6.92725">
        <ele>1056.6</ele>
        <time>2022-05-28T07:46:01Z</time>
      </trkpt>
      <trkpt lat="48.05269" lon="6.92731">
        <ele>1056.1</ele>
        <time>2022-05-28T07:46:04Z</time>
      </trkpt>
      <trkpt lat="48.05281" lon="6.92737">
        <ele>1055.1</ele>
        <time>2022-05-28T07:46:07Z</time>
      </trkpt>
      <trkpt lat="48.05294" lon="6.9274">
        <ele>1054.1</ele>
        <time>2022-05-28T07:46:10Z</time>
      </trkpt>
      <trkpt lat="48.05308" lon="6.92742">
        <ele>1055.4</ele>
        <time>2022-05-28T07:46:13Z</time>
      </trkpt>
      <trkpt lat="48.05317" lon="6.92744">
        <ele>1055.1</ele>
        <time>2022-05-28T07:46:15Z</time>
      </trkpt>
      <trkpt lat="48.05326" lon="6.92749">
        <ele>1055.2</ele>
        <time>2022-05-28T07:46:17Z</time>
      </trkpt>
      <trkpt lat="48.05335" lon="6.92759">
        <ele>1057.2</ele>
        <time>2022-05-28T07:46:20Z</time>
      </trkpt>
      <trkpt lat="48.05341" lon="6.92774">
        <ele>1059.4</ele>
        <time>2022-05-28T07:46:24Z</time>
      </trkpt>
      <trkpt lat="48.05342" lon="6.92791">
        <ele>1058.8</ele>
        <time>2022-05-28T07:46:28Z</time>
      </trkpt>
      <trkpt lat="48.05343" lon="6.92807">
        <ele>1061.4</ele>
        <time>2022-05-28T07:46:32Z</time>
      </trkpt>
      <trkpt lat="48.05342" lon="6.92822">
        <ele>1060.9</ele>
        <time>2022-05-28T07:46:36Z</time>
      </trkpt>
      <trkpt lat="48.05344" lon="6.92838">
        <ele>1062.4</ele>
        <time>2022-05-28T07:46:41Z</time>
      </trkpt>
      <trkpt lat="48.05351" lon="6.92847">
        <ele>1062.7</ele>
        <time>2022-05-28T07:46:45Z</time>
      </trkpt>
      <trkpt lat="48.05361" lon="6.92855">
        <ele>1063.9</ele>
        <time>2022-05-28T07:46:50Z</time>
      </trkpt>
      <trkpt lat="48.05368" lon="6.92863">
        <ele>1064.3</ele>
        <time>2022-05-28T07:46:55Z</time>
      </trkpt>
      <trkpt lat="48.05373" lon="6.92877">
        <ele>1064.5</ele>
        <time>2022-05-28T07:47:02Z</time>
      </trkpt>
      <trkpt lat="48.05379" lon="6.9289">
        <ele>1064.4</ele>
        <time>2022-05-28T07:47:11Z</time>
      </trkpt>
      <trkpt lat="48.05386" lon="6.92903">
        <ele>1065</ele>
        <time>2022-05-28T07:47:16Z</time>
      </trkpt>
      <trkpt lat="48.05392" lon="6.92917">
        <ele>1065.5</ele>
        <time>2022-05-28T07:47:20Z</time>
      </trkpt>
      <trkpt lat="48.05397" lon="6.92931">
        <ele>1066.1</ele>
        <time>2022-05-28T07:47:24Z</time>
      </trkpt>
      <trkpt lat="48.05403" lon="6.92942">
        <ele>1066.4</ele>
        <time>2022-05-28T07:47:29Z</time>
      </trkpt>
      <trkpt lat="48.0541" lon="6.92954">
        <ele>1067.5</ele>
        <time>2022-05-28T07:47:33Z</time>
      </trkpt>
      <trkpt lat="48.05418" lon="6.92966">
        <ele>1069.5</ele>
        <time>2022-05-28T07:47:37Z</time>
      </trkpt>
      <trkpt lat="48.05421" lon="6.92979">
        <ele>1070.7</ele>
        <time>2022-05-28T07:47:41Z</time>
      </trkpt>
      <trkpt lat="48.05426" lon="6.92992">
        <ele>1070.8</ele>
        <time>2022-05-28T07:47:45Z</time>
      </trkpt>
      <trkpt lat="48.05431" lon="6.93003">
        <ele>1071.5</ele>
        <time>2022-05-28T07:47:49Z</time>
      </trkpt>
      <trkpt lat="48.05439" lon="6.93013">
        <ele>1073.1</ele>
        <time>2022-05-28T07:47:54Z</time>
      </trkpt>
      <trkpt lat="48.05447" lon="6.93009">
        <ele>1074.4</ele>
        <time>2022-05-28T07:47:58Z</time>
      </trkpt>
      <trkpt lat="48.0545" lon="6.92995">
        <ele>1073.7</ele>
        <time>2022-05-28T07:48:04Z</time>
      </trkpt>
      <trkpt lat="48.0545" lon="6.92981">
        <ele>1074.3</ele>
        <time>2022-05-28T07:48:09Z</time>
      </trkpt>
      <trkpt lat="48.05453" lon="6.92968">
        <ele>1075.3</ele>
        <time>2022-05-28T07:48:14Z</time>
      </trkpt>
      <trkpt lat="48.05455" lon="6.92954">
        <ele>1074.7</ele>
        <time>2022-05-28T07:48:19Z</time>
      </trkpt>
      <trkpt lat="48.05459" lon="6.92942">
        <ele>1077.1</ele>
        <time>2022-05-28T07:48:24Z</time>
      </trkpt>
      <trkpt lat="48.05464" lon="6.92929">
        <ele>1077.8</ele>
        <time>2022-05-28T07:48:28Z</time>
      </trkpt>
      <trkpt lat="48.05471" lon="6.92919">
        <ele>1077.8</ele>
        <time>2022-05-28T07:48:31Z</time>
      </trkpt>
      <trkpt lat="48.05479" lon="6.92906">
        <ele>1077.7</ele>
        <time>2022-05-28T07:48:35Z</time>
      </trkpt>
      <trkpt lat="48.05482" lon="6.92892">
        <ele>1078.5</ele>
        <time>2022-05-28T07:48:38Z</time>
      </trkpt>
      <trkpt lat="48.05485" lon="6.92879">
        <ele>1078.7</ele>
        <time>2022-05-28T07:48:41Z</time>
      </trkpt>
      <trkpt lat="48.05491" lon="6.92866">
        <ele>1078.8</ele>
        <time>2022-05-28T07:48:45Z</time>
      </trkpt>
      <trkpt lat="48.05497" lon="6.92855">
        <ele>1079.7</ele>
        <time>2022-05-28T07:48:49Z</time>
      </trkpt>
      <trkpt lat="48.05505" lon="6.92846">
        <ele>1079.5</ele>
        <time>2022-05-28T07:48:52Z</time>
      </trkpt>
      <trkpt lat="48.05512" lon="6.92836">
        <ele>1079.2</ele>
        <time>2022-05-28T07:48:54Z</time>
      </trkpt>
      <trkpt lat="48.05517" lon="6.92824">
        <ele>1078.5</ele>
        <time>2022-05-28T07:48:56Z</time>
      </trkpt>
      <trkpt lat="48.05525" lon="6.92808">
        <ele>1078.4</ele>
        <time>2022-05-28T07:48:59Z</time>
      </trkpt>
      <trkpt lat="48.05531" lon="6.92794">
        <ele>1078.1</ele>
        <time>2022-05-28T07:49:02Z</time>
      </trkpt>
      <trkpt lat="48.05539" lon="6.9278">
        <ele>1077.8</ele>
        <time>2022-05-28T07:49:05Z</time>
      </trkpt>
      <trkpt lat="48.05546" lon="6.92769">
        <ele>1076.4</ele>
        <time>2022-05-28T07:49:07Z</time>
      </trkpt>
      <trkpt lat="48.05552" lon="6.92757">
        <ele>1077.5</ele>
        <time>2022-05-28T07:49:09Z</time>
      </trkpt>
      <trkpt lat="48.05559" lon="6.92741">
        <ele>1078</ele>
        <time>2022-05-28T07:49:12Z</time>
      </trkpt>
      <trkpt lat="48.05566" lon="6.92726">
        <ele>1079.4</ele>
        <time>2022-05-28T07:49:15Z</time>
      </trkpt>
      <trkpt lat="48.05573" lon="6.92713">
        <ele>1079</ele>
        <time>2022-05-28T07:49:18Z</time>
      </trkpt>
      <trkpt lat="48.05582" lon="6.92701">
        <ele>1079.1</ele>
        <time>2022-05-28T07:49:21Z</time>
      </trkpt>
      <trkpt lat="48.05588" lon="6.92691">
        <ele>1076.8</ele>
        <time>2022-05-28T07:49:23Z</time>
      </trkpt>
      <trkpt lat="48.05596" lon="6.92676">
        <ele>1075.4</ele>
        <time>2022-05-28T07:49:26Z</time>
      </trkpt>
      <trkpt lat="48.056" lon="6.9266">
        <ele>1078.7</ele>
        <time>2022-05-28T07:49:29Z</time>
      </trkpt>
      <trkpt lat="48.05605" lon="6.92648">
        <ele>1080.4</ele>
        <time>2022-05-28T07:49:32Z</time>
      </trkpt>
      <trkpt lat="48.05613" lon="6.92636">
        <ele>1080.5</ele>
        <time>2022-05-28T07:49:36Z</time>
      </trkpt>
      <trkpt lat="48.05619" lon="6.92626">
        <ele>1080.5</ele>
        <time>2022-05-28T07:49:39Z</time>
      </trkpt>
      <trkpt lat="48.05628" lon="6.92615">
        <ele>1080</ele>
        <time>2022-05-28T07:49:42Z</time>
      </trkpt>
      <trkpt lat="48.05638" lon="6.92602">
        <ele>1077.8</ele>
        <time>2022-05-28T07:49:45Z</time>
      </trkpt>
      <trkpt lat="48.05647" lon="6.92589">
        <ele>1077.4</ele>
        <time>2022-05-28T07:49:48Z</time>
      </trkpt>
      <trkpt lat="48.05657" lon="6.92577">
        <ele>1079.7</ele>
        <time>2022-05-28T07:49:51Z</time>
      </trkpt>
      <trkpt lat="48.05667" lon="6.92565">
        <ele>1079.4</ele>
        <time>2022-05-28T07:49:54Z</time>
      </trkpt>
      <trkpt lat="48.05677" lon="6.92553">
        <ele>1079.4</ele>
        <time>2022-05-28T07:49:57Z</time>
      </trkpt>
      <trkpt lat="48.05684" lon="6.92544">
        <ele>1077.9</ele>
        <time>2022-05-28T07:49:59Z</time>
      </trkpt>
      <trkpt lat="48.05692" lon="6.92535">
        <ele>1077.8</ele>
        <time>2022-05-28T07:50:01Z</time>
      </trkpt>
      <trkpt lat="48.05699" lon="6.92525">
        <ele>1077.8</ele>
        <time>2022-05-28T07:50:03Z</time>
      </trkpt>
      <trkpt lat="48.05706" lon="6.92515">
        <ele>1077.8</ele>
        <time>2022-05-28T07:50:05Z</time>
      </trkpt>
      <trkpt lat="48.05714" lon="6.92501">
        <ele>1078</ele>
        <time>2022-05-28T07:50:08Z</time>
      </trkpt>
      <trkpt lat="48.05721" lon="6.92485">
        <ele>1078.6</ele>
        <time>2022-05-28T07:50:11Z</time>
      </trkpt>
      <trkpt lat="48.05729" lon="6.92471">
        <ele>1078.1</ele>
        <time>2022-05-28T07:50:14Z</time>
      </trkpt>
      <trkpt lat="48.05735" lon="6.92458">
        <ele>1075.1</ele>
        <time>2022-05-28T07:50:16Z</time>
      </trkpt>
      <trkpt lat="48.05741" lon="6.92443">
        <ele>1073.7</ele>
        <time>2022-05-28T07:50:18Z</time>
      </trkpt>
      <trkpt lat="48.05745" lon="6.92425">
        <ele>1072.5</ele>
        <time>2022-05-28T07:50:20Z</time>
      </trkpt>
      <trkpt lat="48.0575" lon="6.92407">
        <ele>1071.7</ele>
        <time>2022-05-28T07:50:22Z</time>
      </trkpt>
      <trkpt lat="48.05756" lon="6.92388">
        <ele>1070</ele>
        <time>2022-05-28T07:50:24Z</time>
      </trkpt>
      <trkpt lat="48.05762" lon="6.92369">
        <ele>1070.9</ele>
        <time>2022-05-28T07:50:26Z</time>
      </trkpt>
      <trkpt lat="48.05768" lon="6.92351">
        <ele>1067.7</ele>
        <time>2022-05-28T07:50:28Z</time>
      </trkpt>
      <trkpt lat="48.05775" lon="6.9233">
        <ele>1066.5</ele>
        <time>2022-05-28T07:50:30Z</time>
      </trkpt>
      <trkpt lat="48.05781" lon="6.9231">
        <ele>1067</ele>
        <time>2022-05-28T07:50:32Z</time>
      </trkpt>
      <trkpt lat="48.05787" lon="6.92292">
        <ele>1067.1</ele>
        <time>2022-05-28T07:50:34Z</time>
      </trkpt>
      <trkpt lat="48.05795" lon="6.92274">
        <ele>1063.8</ele>
        <time>2022-05-28T07:50:36Z</time>
      </trkpt>
      <trkpt lat="48.05803" lon="6.92261">
        <ele>1064.2</ele>
        <time>2022-05-28T07:50:38Z</time>
      </trkpt>
      <trkpt lat="48.05812" lon="6.92254">
        <ele>1065.1</ele>
        <time>2022-05-28T07:50:40Z</time>
      </trkpt>
      <trkpt lat="48.05821" lon="6.92251">
        <ele>1064.9</ele>
        <time>2022-05-28T07:50:42Z</time>
      </trkpt>
      <trkpt lat="48.05831" lon="6.92251">
        <ele>1064.5</ele>
        <time>2022-05-28T07:50:44Z</time>
      </trkpt>
      <trkpt lat="48.0584" lon="6.92254">
        <ele>1065.2</ele>
        <time>2022-05-28T07:50:46Z</time>
      </trkpt>
      <trkpt lat="48.05851" lon="6.92257">
        <ele>1063.7</ele>
        <time>2022-05-28T07:50:48Z</time>
      </trkpt>
      <trkpt lat="48.05863" lon="6.92259">
        <ele>1062</ele>
        <time>2022-05-28T07:50:50Z</time>
      </trkpt>
      <trkpt lat="48.05875" lon="6.9226">
        <ele>1060.6</ele>
        <time>2022-05-28T07:50:52Z</time>
      </trkpt>
      <trkpt lat="48.05888" lon="6.92265">
        <ele>1056.6</ele>
        <time>2022-05-28T07:50:54Z</time>
      </trkpt>
      <trkpt lat="48.059" lon="6.92276">
        <ele>1056.1</ele>
        <time>2022-05-28T07:50:56Z</time>
      </trkpt>
      <trkpt lat="48.05911" lon="6.92289">
        <ele>1056.2</ele>
        <time>2022-05-28T07:50:58Z</time>
      </trkpt>
      <trkpt lat="48.05922" lon="6.923">
        <ele>1053.8</ele>
        <time>2022-05-28T07:51:00Z</time>
      </trkpt>
      <trkpt lat="48.05933" lon="6.92311">
        <ele>1053.2</ele>
        <time>2022-05-28T07:51:02Z</time>
      </trkpt>
      <trkpt lat="48.05943" lon="6.92324">
        <ele>1052.7</ele>
        <time>2022-05-28T07:51:04Z</time>
      </trkpt>
      <trkpt lat="48.05953" lon="6.92339">
        <ele>1053.1</ele>
        <time>2022-05-28T07:51:06Z</time>
      </trkpt>
      <trkpt lat="48.05964" lon="6.92353">
        <ele>1052.1</ele>
        <time>2022-05-28T07:51:08Z</time>
      </trkpt>
      <trkpt lat="48.05978" lon="6.92366">
        <ele>1048.6</ele>
        <time>2022-05-28T07:51:10Z</time>
      </trkpt>
      <trkpt lat="48.05991" lon="6.92377">
        <ele>1045.7</ele>
        <time>2022-05-28T07:51:12Z</time>
      </trkpt>
      <trkpt lat="48.06002" lon="6.92387">
        <ele>1048.5</ele>
        <time>2022-05-28T07:51:14Z</time>
      </trkpt>
      <trkpt lat="48.06009" lon="6.924">
        <ele>1051.3</ele>
        <time>2022-05-28T07:51:16Z</time>
      </trkpt>
      <trkpt lat="48.0601" lon="6.92415">
        <ele>1050.2</ele>
        <time>2022-05-28T07:51:18Z</time>
      </trkpt>
      <trkpt lat="48.06005" lon="6.92432">
        <ele>1049.6</ele>
        <time>2022-05-28T07:51:21Z</time>
      </trkpt>
      <trkpt lat="48.06" lon="6.92443">
        <ele>1050.9</ele>
        <time>2022-05-28T07:51:24Z</time>
      </trkpt>
      <trkpt lat="48.05994" lon="6.92455">
        <ele>1051.1</ele>
        <time>2022-05-28T07:51:28Z</time>
      </trkpt>
      <trkpt lat="48.05986" lon="6.92467">
        <ele>1050.9</ele>
        <time>2022-05-28T07:51:32Z</time>
      </trkpt>
      <trkpt lat="48.05976" lon="6.92475">
        <ele>1052.6</ele>
        <time>2022-05-28T07:51:36Z</time>
      </trkpt>
      <trkpt lat="48.05966" lon="6.92482">
        <ele>1053.6</ele>
        <time>2022-05-28T07:51:40Z</time>
      </trkpt>
      <trkpt lat="48.05958" lon="6.92489">
        <ele>1054.5</ele>
        <time>2022-05-28T07:51:44Z</time>
      </trkpt>
      <trkpt lat="48.05949" lon="6.92498">
        <ele>1055.6</ele>
        <time>2022-05-28T07:51:49Z</time>
      </trkpt>
      <trkpt lat="48.05941" lon="6.92509">
        <ele>1057.3</ele>
        <time>2022-05-28T07:51:54Z</time>
      </trkpt>
      <trkpt lat="48.05934" lon="6.92518">
        <ele>1056.9</ele>
        <time>2022-05-28T07:51:58Z</time>
      </trkpt>
      <trkpt lat="48.05928" lon="6.92528">
        <ele>1058.8</ele>
        <time>2022-05-28T07:52:02Z</time>
      </trkpt>
      <trkpt lat="48.05922" lon="6.9254">
        <ele>1059.2</ele>
        <time>2022-05-28T07:52:07Z</time>
      </trkpt>
      <trkpt lat="48.05916" lon="6.92551">
        <ele>1060.1</ele>
        <time>2022-05-28T07:52:11Z</time>
      </trkpt>
      <trkpt lat="48.05913" lon="6.92565">
        <ele>1060.7</ele>
        <time>2022-05-28T07:52:15Z</time>
      </trkpt>
      <trkpt lat="48.05911" lon="6.92578">
        <ele>1060.6</ele>
        <time>2022-05-28T07:52:19Z</time>
      </trkpt>
      <trkpt lat="48.0591" lon="6.92593">
        <ele>1061.4</ele>
        <time>2022-05-28T07:52:24Z</time>
      </trkpt>
      <trkpt lat="48.05907" lon="6.92607">
        <ele>1063.1</ele>
        <time>2022-05-28T07:52:30Z</time>
      </trkpt>
      <trkpt lat="48.05905" lon="6.92623">
        <ele>1064.7</ele>
        <time>2022-05-28T07:52:36Z</time>
      </trkpt>
      <trkpt lat="48.05904" lon="6.92637">
        <ele>1066.1</ele>
        <time>2022-05-28T07:52:42Z</time>
      </trkpt>
      <trkpt lat="48.05902" lon="6.92653">
        <ele>1067.4</ele>
        <time>2022-05-28T07:52:48Z</time>
      </trkpt>
      <trkpt lat="48.05899" lon="6.92666">
        <ele>1068.5</ele>
        <time>2022-05-28T07:52:53Z</time>
      </trkpt>
      <trkpt lat="48.05898" lon="6.92681">
        <ele>1069</ele>
        <time>2022-05-28T07:52:59Z</time>
      </trkpt>
      <trkpt lat="48.05897" lon="6.92696">
        <ele>1070</ele>
        <time>2022-05-28T07:53:04Z</time>
      </trkpt>
      <trkpt lat="48.05895" lon="6.9271">
        <ele>1071.1</ele>
        <time>2022-05-28T07:53:09Z</time>
      </trkpt>
      <trkpt lat="48.05896" lon="6.92726">
        <ele>1071.9</ele>
        <time>2022-05-28T07:53:14Z</time>
      </trkpt>
      <trkpt lat="48.05898" lon="6.92741">
        <ele>1072.7</ele>
        <time>2022-05-28T07:53:19Z</time>
      </trkpt>
      <trkpt lat="48.059" lon="6.92755">
        <ele>1073</ele>
        <time>2022-05-28T07:53:24Z</time>
      </trkpt>
      <trkpt lat="48.05902" lon="6.92769">
        <ele>1074.7</ele>
        <time>2022-05-28T07:53:29Z</time>
      </trkpt>
      <trkpt lat="48.05902" lon="6.92783">
        <ele>1075.9</ele>
        <time>2022-05-28T07:53:34Z</time>
      </trkpt>
      <trkpt lat="48.059" lon="6.92796">
        <ele>1076.8</ele>
        <time>2022-05-28T07:53:39Z</time>
      </trkpt>
      <trkpt lat="48.05899" lon="6.92811">
        <ele>1078.5</ele>
        <time>2022-05-28T07:53:44Z</time>
      </trkpt>
      <trkpt lat="48.05898" lon="6.92826">
        <ele>1078.8</ele>
        <time>2022-05-28T07:53:49Z</time>
      </trkpt>
      <trkpt lat="48.059" lon="6.92842">
        <ele>1079.6</ele>
        <time>2022-05-28T07:53:54Z</time>
      </trkpt>
      <trkpt lat="48.05902" lon="6.92857">
        <ele>1080.4</ele>
        <time>2022-05-28T07:53:59Z</time>
      </trkpt>
      <trkpt lat="48.05906" lon="6.9287">
        <ele>1081.7</ele>
        <time>2022-05-28T07:54:04Z</time>
      </trkpt>
      <trkpt lat="48.0591" lon="6.92884">
        <ele>1082.4</ele>
        <time>2022-05-28T07:54:09Z</time>
      </trkpt>
      <trkpt lat="48.05912" lon="6.92901">
        <ele>1082.6</ele>
        <time>2022-05-28T07:54:14Z</time>
      </trkpt>
      <trkpt lat="48.05913" lon="6.92915">
        <ele>1084</ele>
        <time>2022-05-28T07:54:18Z</time>
      </trkpt>
      <trkpt lat="48.05914" lon="6.92929">
        <ele>1084.2</ele>
        <time>2022-05-28T07:54:22Z</time>
      </trkpt>
      <trkpt lat="48.05915" lon="6.92944">
        <ele>1084.1</ele>
        <time>2022-05-28T07:54:26Z</time>
      </trkpt>
      <trkpt lat="48.05915" lon="6.92958">
        <ele>1084.7</ele>
        <time>2022-05-28T07:54:30Z</time>
      </trkpt>
      <trkpt lat="48.05915" lon="6.92971">
        <ele>1085.9</ele>
        <time>2022-05-28T07:54:34Z</time>
      </trkpt>
      <trkpt lat="48.05914" lon="6.92986">
        <ele>1086</ele>
        <time>2022-05-28T07:54:38Z</time>
      </trkpt>
      <trkpt lat="48.05913" lon="6.93003">
        <ele>1086.3</ele>
        <time>2022-05-28T07:54:42Z</time>
      </trkpt>
      <trkpt lat="48.05911" lon="6.93016">
        <ele>1085.5</ele>
        <time>2022-05-28T07:54:45Z</time>
      </trkpt>
      <trkpt lat="48.05909" lon="6.93029">
        <ele>1086.8</ele>
        <time>2022-05-28T07:54:48Z</time>
      </trkpt>
      <trkpt lat="48.05906" lon="6.93044">
        <ele>1087.7</ele>
        <time>2022-05-28T07:54:52Z</time>
      </trkpt>
      <trkpt lat="48.05902" lon="6.93058">
        <ele>1087.4</ele>
        <time>2022-05-28T07:54:56Z</time>
      </trkpt>
      <trkpt lat="48.059" lon="6.9307">
        <ele>1087.6</ele>
        <time>2022-05-28T07:55:05Z</time>
      </trkpt>
      <trkpt lat="48.059" lon="6.9307">
        <ele>1087.9</ele>
        <time>2022-05-28T07:58:02Z</time>
      </trkpt>
      <trkpt lat="48.05895" lon="6.93085">
        <ele>1087.2</ele>
        <time>2022-05-28T07:58:22Z</time>
      </trkpt>
      <trkpt lat="48.0589" lon="6.931">
        <ele>1087.7</ele>
        <time>2022-05-28T07:58:26Z</time>
      </trkpt>
      <trkpt lat="48.05887" lon="6.93113">
        <ele>1087.8</ele>
        <time>2022-05-28T07:58:29Z</time>
      </trkpt>
      <trkpt lat="48.05882" lon="6.93128">
        <ele>1086.6</ele>
        <time>2022-05-28T07:58:32Z</time>
      </trkpt>
      <trkpt lat="48.05879" lon="6.93147">
        <ele>1084.5</ele>
        <time>2022-05-28T07:58:35Z</time>
      </trkpt>
      <trkpt lat="48.05877" lon="6.93161">
        <ele>1085.8</ele>
        <time>2022-05-28T07:58:37Z</time>
      </trkpt>
      <trkpt lat="48.05875" lon="6.93174">
        <ele>1086.2</ele>
        <time>2022-05-28T07:58:39Z</time>
      </trkpt>
      <trkpt lat="48.05873" lon="6.93193">
        <ele>1085.1</ele>
        <time>2022-05-28T07:58:42Z</time>
      </trkpt>
      <trkpt lat="48.05871" lon="6.93209">
        <ele>1086.4</ele>
        <time>2022-05-28T07:58:45Z</time>
      </trkpt>
      <trkpt lat="48.05869" lon="6.93227">
        <ele>1084.9</ele>
        <time>2022-05-28T07:58:48Z</time>
      </trkpt>
      <trkpt lat="48.05866" lon="6.93247">
        <ele>1084.5</ele>
        <time>2022-05-28T07:58:51Z</time>
      </trkpt>
      <trkpt lat="48.05866" lon="6.93261">
        <ele>1084.7</ele>
        <time>2022-05-28T07:58:53Z</time>
      </trkpt>
      <trkpt lat="48.05865" lon="6.93281">
        <ele>1083.3</ele>
        <time>2022-05-28T07:58:56Z</time>
      </trkpt>
      <trkpt lat="48.05863" lon="6.933">
        <ele>1085.2</ele>
        <time>2022-05-28T07:58:59Z</time>
      </trkpt>
      <trkpt lat="48.05858" lon="6.93315">
        <ele>1085</ele>
        <time>2022-05-28T07:59:02Z</time>
      </trkpt>
      <trkpt lat="48.05854" lon="6.9333">
        <ele>1084.8</ele>
        <time>2022-05-28T07:59:05Z</time>
      </trkpt>
      <trkpt lat="48.0585" lon="6.93346">
        <ele>1084.9</ele>
        <time>2022-05-28T07:59:08Z</time>
      </trkpt>
      <trkpt lat="48.05844" lon="6.93361">
        <ele>1084.7</ele>
        <time>2022-05-28T07:59:11Z</time>
      </trkpt>
      <trkpt lat="48.05838" lon="6.93376">
        <ele>1085.8</ele>
        <time>2022-05-28T07:59:14Z</time>
      </trkpt>
      <trkpt lat="48.05833" lon="6.9339">
        <ele>1086.5</ele>
        <time>2022-05-28T07:59:17Z</time>
      </trkpt>
      <trkpt lat="48.05829" lon="6.93402">
        <ele>1086.8</ele>
        <time>2022-05-28T07:59:20Z</time>
      </trkpt>
      <trkpt lat="48.05823" lon="6.93418">
        <ele>1084.3</ele>
        <time>2022-05-28T07:59:23Z</time>
      </trkpt>
      <trkpt lat="48.05819" lon="6.93433">
        <ele>1083.4</ele>
        <time>2022-05-28T07:59:25Z</time>
      </trkpt>
      <trkpt lat="48.05817" lon="6.93447">
        <ele>1084.7</ele>
        <time>2022-05-28T07:59:27Z</time>
      </trkpt>
      <trkpt lat="48.05814" lon="6.9346">
        <ele>1084.1</ele>
        <time>2022-05-28T07:59:29Z</time>
      </trkpt>
      <trkpt lat="48.05808" lon="6.93477">
        <ele>1083.6</ele>
        <time>2022-05-28T07:59:31Z</time>
      </trkpt>
      <trkpt lat="48.05802" lon="6.93492">
        <ele>1083.6</ele>
        <time>2022-05-28T07:59:33Z</time>
      </trkpt>
      <trkpt lat="48.05796" lon="6.93506">
        <ele>1081.6</ele>
        <time>2022-05-28T07:59:35Z</time>
      </trkpt>
      <trkpt lat="48.05792" lon="6.9352">
        <ele>1081.8</ele>
        <time>2022-05-28T07:59:37Z</time>
      </trkpt>
      <trkpt lat="48.05787" lon="6.93534">
        <ele>1080.8</ele>
        <time>2022-05-28T07:59:39Z</time>
      </trkpt>
      <trkpt lat="48.05781" lon="6.93546">
        <ele>1080.6</ele>
        <time>2022-05-28T07:59:41Z</time>
      </trkpt>
      <trkpt lat="48.05772" lon="6.93557">
        <ele>1081.2</ele>
        <time>2022-05-28T07:59:43Z</time>
      </trkpt>
      <trkpt lat="48.05764" lon="6.9357">
        <ele>1079.9</ele>
        <time>2022-05-28T07:59:45Z</time>
      </trkpt>
      <trkpt lat="48.05759" lon="6.93591">
        <ele>1077.5</ele>
        <time>2022-05-28T07:59:47Z</time>
      </trkpt>
      <trkpt lat="48.05756" lon="6.93613">
        <ele>1077.7</ele>
        <time>2022-05-28T07:59:49Z</time>
      </trkpt>
      <trkpt lat="48.05754" lon="6.93633">
        <ele>1078.2</ele>
        <time>2022-05-28T07:59:51Z</time>
      </trkpt>
      <trkpt lat="48.05757" lon="6.9365">
        <ele>1078.3</ele>
        <time>2022-05-28T07:59:53Z</time>
      </trkpt>
      <trkpt lat="48.05759" lon="6.93664">
        <ele>1079</ele>
        <time>2022-05-28T07:59:55Z</time>
      </trkpt>
      <trkpt lat="48.05761" lon="6.93677">
        <ele>1078</ele>
        <time>2022-05-28T07:59:57Z</time>
      </trkpt>
      <trkpt lat="48.05765" lon="6.93695">
        <ele>1079</ele>
        <time>2022-05-28T08:00:00Z</time>
      </trkpt>
      <trkpt lat="48.05769" lon="6.93709">
        <ele>1080.5</ele>
        <time>2022-05-28T08:00:03Z</time>
      </trkpt>
      <trkpt lat="48.05772" lon="6.93727">
        <ele>1080</ele>
        <time>2022-05-28T08:00:06Z</time>
      </trkpt>
      <trkpt lat="48.05772" lon="6.93743">
        <ele>1078.2</ele>
        <time>2022-05-28T08:00:09Z</time>
      </trkpt>
      <trkpt lat="48.05773" lon="6.93761">
        <ele>1076.6</ele>
        <time>2022-05-28T08:00:12Z</time>
      </trkpt>
      <trkpt lat="48.05779" lon="6.93774">
        <ele>1071</ele>
        <time>2022-05-28T08:00:15Z</time>
      </trkpt>
      <trkpt lat="48.05789" lon="6.93785">
        <ele>1069.7</ele>
        <time>2022-05-28T08:00:18Z</time>
      </trkpt>
      <trkpt lat="48.05797" lon="6.93795">
        <ele>1067.5</ele>
        <time>2022-05-28T08:00:20Z</time>
      </trkpt>
      <trkpt lat="48.05805" lon="6.93807">
        <ele>1064.6</ele>
        <time>2022-05-28T08:00:22Z</time>
      </trkpt>
      <trkpt lat="48.05812" lon="6.93819">
        <ele>1065.8</ele>
        <time>2022-05-28T08:00:24Z</time>
      </trkpt>
      <trkpt lat="48.05817" lon="6.93834">
        <ele>1066.2</ele>
        <time>2022-05-28T08:00:27Z</time>
      </trkpt>
      <trkpt lat="48.05821" lon="6.93852">
        <ele>1062.4</ele>
        <time>2022-05-28T08:00:30Z</time>
      </trkpt>
      <trkpt lat="48.0583" lon="6.93857">
        <ele>1061.3</ele>
        <time>2022-05-28T08:00:33Z</time>
      </trkpt>
      <trkpt lat="48.05842" lon="6.93859">
        <ele>1060</ele>
        <time>2022-05-28T08:00:37Z</time>
      </trkpt>
      <trkpt lat="48.05854" lon="6.93863">
        <ele>1057.3</ele>
        <time>2022-05-28T08:00:40Z</time>
      </trkpt>
      <trkpt lat="48.05861" lon="6.93871">
        <ele>1055.6</ele>
        <time>2022-05-28T08:00:42Z</time>
      </trkpt>
      <trkpt lat="48.05872" lon="6.93878">
        <ele>1055.1</ele>
        <time>2022-05-28T08:00:45Z</time>
      </trkpt>
      <trkpt lat="48.05883" lon="6.93873">
        <ele>1053.6</ele>
        <time>2022-05-28T08:00:48Z</time>
      </trkpt>
      <trkpt lat="48.05894" lon="6.93875">
        <ele>1050.3</ele>
        <time>2022-05-28T08:00:51Z</time>
      </trkpt>
      <trkpt lat="48.05897" lon="6.93895">
        <ele>1046.9</ele>
        <time>2022-05-28T08:00:54Z</time>
      </trkpt>
      <trkpt lat="48.05898" lon="6.93914">
        <ele>1045.1</ele>
        <time>2022-05-28T08:00:56Z</time>
      </trkpt>
      <trkpt lat="48.059" lon="6.93934">
        <ele>1042.2</ele>
        <time>2022-05-28T08:00:58Z</time>
      </trkpt>
      <trkpt lat="48.05905" lon="6.93953">
        <ele>1041.4</ele>
        <time>2022-05-28T08:01:00Z</time>
      </trkpt>
      <trkpt lat="48.05908" lon="6.93969">
        <ele>1042.4</ele>
        <time>2022-05-28T08:01:02Z</time>
      </trkpt>
      <trkpt lat="48.05906" lon="6.93985">
        <ele>1040.5</ele>
        <time>2022-05-28T08:01:04Z</time>
      </trkpt>
      <trkpt lat="48.059" lon="6.94001">
        <ele>1038.8</ele>
        <time>2022-05-28T08:01:06Z</time>
      </trkpt>
      <trkpt lat="48.05894" lon="6.94014">
        <ele>1042.8</ele>
        <time>2022-05-28T08:01:09Z</time>
      </trkpt>
      <trkpt lat="48.05889" lon="6.94027">
        <ele>1043.2</ele>
        <time>2022-05-28T08:01:12Z</time>
      </trkpt>
      <trkpt lat="48.05884" lon="6.94045">
        <ele>1042</ele>
        <time>2022-05-28T08:01:15Z</time>
      </trkpt>
      <trkpt lat="48.05879" lon="6.94062">
        <ele>1038.8</ele>
        <time>2022-05-28T08:01:17Z</time>
      </trkpt>
      <trkpt lat="48.05874" lon="6.94076">
        <ele>1040.2</ele>
        <time>2022-05-28T08:01:19Z</time>
      </trkpt>
      <trkpt lat="48.05872" lon="6.9409">
        <ele>1037.8</ele>
        <time>2022-05-28T08:01:22Z</time>
      </trkpt>
      <trkpt lat="48.05883" lon="6.94084">
        <ele>1036.7</ele>
        <time>2022-05-28T08:01:26Z</time>
      </trkpt>
      <trkpt lat="48.0589" lon="6.94076">
        <ele>1035</ele>
        <time>2022-05-28T08:01:28Z</time>
      </trkpt>
      <trkpt lat="48.05901" lon="6.94066">
        <ele>1035.8</ele>
        <time>2022-05-28T08:01:31Z</time>
      </trkpt>
      <trkpt lat="48.05911" lon="6.9406">
        <ele>1033</ele>
        <time>2022-05-28T08:01:34Z</time>
      </trkpt>
      <trkpt lat="48.05925" lon="6.94052">
        <ele>1028.8</ele>
        <time>2022-05-28T08:01:37Z</time>
      </trkpt>
      <trkpt lat="48.05938" lon="6.94044">
        <ele>1029.2</ele>
        <time>2022-05-28T08:01:39Z</time>
      </trkpt>
      <trkpt lat="48.05951" lon="6.94035">
        <ele>1028.6</ele>
        <time>2022-05-28T08:01:41Z</time>
      </trkpt>
      <trkpt lat="48.05964" lon="6.94029">
        <ele>1027.5</ele>
        <time>2022-05-28T08:01:43Z</time>
      </trkpt>
      <trkpt lat="48.05979" lon="6.94021">
        <ele>1026.9</ele>
        <time>2022-05-28T08:01:45Z</time>
      </trkpt>
      <trkpt lat="48.05992" lon="6.94009">
        <ele>1025.9</ele>
        <time>2022-05-28T08:01:47Z</time>
      </trkpt>
      <trkpt lat="48.06" lon="6.93998">
        <ele>1026</ele>
        <time>2022-05-28T08:01:49Z</time>
      </trkpt>
      <trkpt lat="48.06004" lon="6.93986">
        <ele>1025.2</ele>
        <time>2022-05-28T08:01:51Z</time>
      </trkpt>
      <trkpt lat="48.06009" lon="6.9397">
        <ele>1024.1</ele>
        <time>2022-05-28T08:01:53Z</time>
      </trkpt>
      <trkpt lat="48.06013" lon="6.93953">
        <ele>1023.8</ele>
        <time>2022-05-28T08:01:55Z</time>
      </trkpt>
      <trkpt lat="48.06017" lon="6.93934">
        <ele>1021.8</ele>
        <time>2022-05-28T08:01:57Z</time>
      </trkpt>
      <trkpt lat="48.06019" lon="6.93912">
        <ele>1017.8</ele>
        <time>2022-05-28T08:01:59Z</time>
      </trkpt>
      <trkpt lat="48.06024" lon="6.93897">
        <ele>1018.4</ele>
        <time>2022-05-28T08:02:01Z</time>
      </trkpt>
      <trkpt lat="48.06033" lon="6.93891">
        <ele>1016.4</ele>
        <time>2022-05-28T08:02:03Z</time>
      </trkpt>
      <trkpt lat="48.06043" lon="6.93894">
        <ele>1014.9</ele>
        <time>2022-05-28T08:02:05Z</time>
      </trkpt>
      <trkpt lat="48.06056" lon="6.93899">
        <ele>1012.4</ele>
        <time>2022-05-28T08:02:07Z</time>
      </trkpt>
      <trkpt lat="48.06072" lon="6.93905">
        <ele>1011.8</ele>
        <time>2022-05-28T08:02:09Z</time>
      </trkpt>
      <trkpt lat="48.06088" lon="6.93909">
        <ele>1011.5</ele>
        <time>2022-05-28T08:02:11Z</time>
      </trkpt>
      <trkpt lat="48.06103" lon="6.93908">
        <ele>1009.6</ele>
        <time>2022-05-28T08:02:13Z</time>
      </trkpt>
      <trkpt lat="48.06113" lon="6.93896">
        <ele>1007.6</ele>
        <time>2022-05-28T08:02:15Z</time>
      </trkpt>
      <trkpt lat="48.06116" lon="6.93883">
        <ele>1005.9</ele>
        <time>2022-05-28T08:02:17Z</time>
      </trkpt>
      <trkpt lat="48.06111" lon="6.93871">
        <ele>1007.1</ele>
        <time>2022-05-28T08:02:19Z</time>
      </trkpt>
      <trkpt lat="48.06105" lon="6.9386">
        <ele>1007.4</ele>
        <time>2022-05-28T08:02:20Z</time>
      </trkpt>
      <trkpt lat="48.061" lon="6.93848">
        <ele>1008.5</ele>
        <time>2022-05-28T08:02:21Z</time>
      </trkpt>
      <trkpt lat="48.06097" lon="6.93835">
        <ele>1008.3</ele>
        <time>2022-05-28T08:02:22Z</time>
      </trkpt>
      <trkpt lat="48.06092" lon="6.93812">
        <ele>1003.7</ele>
        <time>2022-05-28T08:02:24Z</time>
      </trkpt>
      <trkpt lat="48.06089" lon="6.9379">
        <ele>1001.2</ele>
        <time>2022-05-28T08:02:26Z</time>
      </trkpt>
      <trkpt lat="48.06091" lon="6.93773">
        <ele>1002.4</ele>
        <time>2022-05-28T08:02:29Z</time>
      </trkpt>
      <trkpt lat="48.06102" lon="6.93772">
        <ele>999.1</ele>
        <time>2022-05-28T08:02:32Z</time>
      </trkpt>
      <trkpt lat="48.0611" lon="6.9378">
        <ele>995.9</ele>
        <time>2022-05-28T08:02:34Z</time>
      </trkpt>
      <trkpt lat="48.06119" lon="6.93791">
        <ele>996.3</ele>
        <time>2022-05-28T08:02:36Z</time>
      </trkpt>
      <trkpt lat="48.06128" lon="6.93805">
        <ele>997.9</ele>
        <time>2022-05-28T08:02:38Z</time>
      </trkpt>
      <trkpt lat="48.06136" lon="6.9382">
        <ele>998</ele>
        <time>2022-05-28T08:02:40Z</time>
      </trkpt>
      <trkpt lat="48.06146" lon="6.93835">
        <ele>993.6</ele>
        <time>2022-05-28T08:02:42Z</time>
      </trkpt>
      <trkpt lat="48.06157" lon="6.93846">
        <ele>991.7</ele>
        <time>2022-05-28T08:02:44Z</time>
      </trkpt>
      <trkpt lat="48.06166" lon="6.9385">
        <ele>991.4</ele>
        <time>2022-05-28T08:02:46Z</time>
      </trkpt>
      <trkpt lat="48.06174" lon="6.93833">
        <ele>991.5</ele>
        <time>2022-05-28T08:02:49Z</time>
      </trkpt>
      <trkpt lat="48.06173" lon="6.93814">
        <ele>991.4</ele>
        <time>2022-05-28T08:02:51Z</time>
      </trkpt>
      <trkpt lat="48.06168" lon="6.93795">
        <ele>986.3</ele>
        <time>2022-05-28T08:02:53Z</time>
      </trkpt>
      <trkpt lat="48.06166" lon="6.93775">
        <ele>985</ele>
        <time>2022-05-28T08:02:55Z</time>
      </trkpt>
      <trkpt lat="48.06165" lon="6.93755">
        <ele>986.3</ele>
        <time>2022-05-28T08:02:57Z</time>
      </trkpt>
      <trkpt lat="48.06163" lon="6.93731">
        <ele>985.8</ele>
        <time>2022-05-28T08:02:59Z</time>
      </trkpt>
      <trkpt lat="48.06159" lon="6.93708">
        <ele>980.7</ele>
        <time>2022-05-28T08:03:01Z</time>
      </trkpt>
      <trkpt lat="48.06153" lon="6.93686">
        <ele>976.8</ele>
        <time>2022-05-28T08:03:03Z</time>
      </trkpt>
      <trkpt lat="48.06144" lon="6.93664">
        <ele>981.5</ele>
        <time>2022-05-28T08:03:05Z</time>
      </trkpt>
      <trkpt lat="48.06135" lon="6.93639">
        <ele>977.7</ele>
        <time>2022-05-28T08:03:07Z</time>
      </trkpt>
      <trkpt lat="48.06131" lon="6.93626">
        <ele>975.7</ele>
        <time>2022-05-28T08:03:08Z</time>
      </trkpt>
      <trkpt lat="48.06128" lon="6.93612">
        <ele>975.3</ele>
        <time>2022-05-28T08:03:09Z</time>
      </trkpt>
      <trkpt lat="48.06125" lon="6.93599">
        <ele>975.3</ele>
        <time>2022-05-28T08:03:10Z</time>
      </trkpt>
      <trkpt lat="48.06121" lon="6.93578">
        <ele>976.6</ele>
        <time>2022-05-28T08:03:12Z</time>
      </trkpt>
      <trkpt lat="48.06123" lon="6.93559">
        <ele>974.4</ele>
        <time>2022-05-28T08:03:14Z</time>
      </trkpt>
      <trkpt lat="48.06134" lon="6.93545">
        <ele>976.4</ele>
        <time>2022-05-28T08:03:16Z</time>
      </trkpt>
      <trkpt lat="48.06147" lon="6.93532">
        <ele>969.1</ele>
        <time>2022-05-28T08:03:18Z</time>
      </trkpt>
      <trkpt lat="48.0616" lon="6.93521">
        <ele>965.6</ele>
        <time>2022-05-28T08:03:20Z</time>
      </trkpt>
      <trkpt lat="48.06174" lon="6.93514">
        <ele>964.1</ele>
        <time>2022-05-28T08:03:22Z</time>
      </trkpt>
      <trkpt lat="48.06189" lon="6.93509">
        <ele>965.5</ele>
        <time>2022-05-28T08:03:24Z</time>
      </trkpt>
      <trkpt lat="48.06204" lon="6.93504">
        <ele>966.3</ele>
        <time>2022-05-28T08:03:26Z</time>
      </trkpt>
      <trkpt lat="48.06218" lon="6.935">
        <ele>967.1</ele>
        <time>2022-05-28T08:03:28Z</time>
      </trkpt>
      <trkpt lat="48.06231" lon="6.93498">
        <ele>966.5</ele>
        <time>2022-05-28T08:03:30Z</time>
      </trkpt>
      <trkpt lat="48.06243" lon="6.93497">
        <ele>967.4</ele>
        <time>2022-05-28T08:03:32Z</time>
      </trkpt>
      <trkpt lat="48.06254" lon="6.93499">
        <ele>967.9</ele>
        <time>2022-05-28T08:03:34Z</time>
      </trkpt>
      <trkpt lat="48.06266" lon="6.935">
        <ele>968.1</ele>
        <time>2022-05-28T08:03:36Z</time>
      </trkpt>
      <trkpt lat="48.06277" lon="6.93502">
        <ele>965.9</ele>
        <time>2022-05-28T08:03:38Z</time>
      </trkpt>
      <trkpt lat="48.06289" lon="6.93506">
        <ele>965</ele>
        <time>2022-05-28T08:03:40Z</time>
      </trkpt>
      <trkpt lat="48.06301" lon="6.9351">
        <ele>966</ele>
        <time>2022-05-28T08:03:42Z</time>
      </trkpt>
      <trkpt lat="48.06313" lon="6.93512">
        <ele>965.7</ele>
        <time>2022-05-28T08:03:44Z</time>
      </trkpt>
      <trkpt lat="48.06325" lon="6.93515">
        <ele>964.4</ele>
        <time>2022-05-28T08:03:46Z</time>
      </trkpt>
      <trkpt lat="48.06337" lon="6.93519">
        <ele>964.3</ele>
        <time>2022-05-28T08:03:48Z</time>
      </trkpt>
      <trkpt lat="48.06349" lon="6.93523">
        <ele>965.7</ele>
        <time>2022-05-28T08:03:50Z</time>
      </trkpt>
      <trkpt lat="48.0636" lon="6.93526">
        <ele>966.2</ele>
        <time>2022-05-28T08:03:52Z</time>
      </trkpt>
      <trkpt lat="48.06372" lon="6.93529">
        <ele>965.7</ele>
        <time>2022-05-28T08:03:54Z</time>
      </trkpt>
      <trkpt lat="48.06383" lon="6.93532">
        <ele>965.6</ele>
        <time>2022-05-28T08:03:56Z</time>
      </trkpt>
      <trkpt lat="48.06395" lon="6.93534">
        <ele>964.8</ele>
        <time>2022-05-28T08:03:58Z</time>
      </trkpt>
      <trkpt lat="48.06407" lon="6.93538">
        <ele>964.1</ele>
        <time>2022-05-28T08:04:00Z</time>
      </trkpt>
      <trkpt lat="48.06419" lon="6.93541">
        <ele>964.2</ele>
        <time>2022-05-28T08:04:02Z</time>
      </trkpt>
      <trkpt lat="48.06431" lon="6.93544">
        <ele>960.2</ele>
        <time>2022-05-28T08:04:04Z</time>
      </trkpt>
      <trkpt lat="48.06443" lon="6.93547">
        <ele>963.5</ele>
        <time>2022-05-28T08:04:06Z</time>
      </trkpt>
      <trkpt lat="48.06456" lon="6.93548">
        <ele>961.1</ele>
        <time>2022-05-28T08:04:08Z</time>
      </trkpt>
      <trkpt lat="48.06469" lon="6.93551">
        <ele>960.3</ele>
        <time>2022-05-28T08:04:10Z</time>
      </trkpt>
      <trkpt lat="48.06482" lon="6.9355">
        <ele>958.1</ele>
        <time>2022-05-28T08:04:12Z</time>
      </trkpt>
      <trkpt lat="48.06495" lon="6.93547">
        <ele>959.9</ele>
        <time>2022-05-28T08:04:14Z</time>
      </trkpt>
      <trkpt lat="48.06506" lon="6.93544">
        <ele>960.1</ele>
        <time>2022-05-28T08:04:16Z</time>
      </trkpt>
      <trkpt lat="48.06515" lon="6.93541">
        <ele>959.1</ele>
        <time>2022-05-28T08:04:18Z</time>
      </trkpt>
      <trkpt lat="48.06526" lon="6.93537">
        <ele>960.9</ele>
        <time>2022-05-28T08:04:21Z</time>
      </trkpt>
      <trkpt lat="48.06532" lon="6.93532">
        <ele>961.6</ele>
        <time>2022-05-28T08:04:27Z</time>
      </trkpt>
      <trkpt lat="48.06532" lon="6.93531">
        <ele>961.9</ele>
        <time>2022-05-28T08:04:44Z</time>
      </trkpt>
      <trkpt lat="48.06533" lon="6.93531">
        <ele>961.5</ele>
        <time>2022-05-28T08:04:54Z</time>
      </trkpt>
      <trkpt lat="48.06533" lon="6.93531">
        <ele>961.8</ele>
        <time>2022-05-28T08:05:07Z</time>
      </trkpt>
      <trkpt lat="48.06534" lon="6.9353">
        <ele>961.8</ele>
        <time>2022-05-28T08:06:01Z</time>
      </trkpt>
      <trkpt lat="48.06534" lon="6.9353">
        <ele>961.4</ele>
        <time>2022-05-28T08:06:09Z</time>
      </trkpt>
      <trkpt lat="48.06534" lon="6.93529">
        <ele>961.5</ele>
        <time>2022-05-28T08:06:11Z</time>
      </trkpt>
      <trkpt lat="48.06533" lon="6.93529">
        <ele>961.6</ele>
        <time>2022-05-28T08:06:12Z</time>
      </trkpt>
      <trkpt lat="48.06534" lon="6.93528">
        <ele>961.6</ele>
        <time>2022-05-28T08:06:15Z</time>
      </trkpt>
      <trkpt lat="48.06533" lon="6.93528">
        <ele>961.5</ele>
        <time>2022-05-28T08:06:19Z</time>
      </trkpt>
      <trkpt lat="48.06533" lon="6.93526">
        <ele>961.7</ele>
        <time>2022-05-28T08:06:23Z</time>
      </trkpt>
      <trkpt lat="48.06532" lon="6.93527">
        <ele>961.5</ele>
        <time>2022-05-28T08:06:29Z</time>
      </trkpt>
      <trkpt lat="48.06532" lon="6.93527">
        <ele>961.6</ele>
        <time>2022-05-28T08:07:04Z</time>
      </trkpt>
      <trkpt lat="48.06531" lon="6.93528">
        <ele>961.4</ele>
        <time>2022-05-28T08:07:14Z</time>
      </trkpt>
      <trkpt lat="48.0653" lon="6.93528">
        <ele>961.3</ele>
        <time>2022-05-28T08:07:16Z</time>
      </trkpt>
      <trkpt lat="48.06531" lon="6.93528">
        <ele>961.4</ele>
        <time>2022-05-28T08:07:19Z</time>
      </trkpt>
      <trkpt lat="48.06532" lon="6.93528">
        <ele>961.1</ele>
        <time>2022-05-28T08:07:51Z</time>
      </trkpt>
      <trkpt lat="48.06541" lon="6.93533">
        <ele>958.8</ele>
        <time>2022-05-28T08:07:54Z</time>
      </trkpt>
      <trkpt lat="48.06553" lon="6.93536">
        <ele>955.7</ele>
        <time>2022-05-28T08:07:57Z</time>
      </trkpt>
      <trkpt lat="48.06565" lon="6.93541">
        <ele>958.5</ele>
        <time>2022-05-28T08:08:00Z</time>
      </trkpt>
      <trkpt lat="48.06576" lon="6.93544">
        <ele>954.1</ele>
        <time>2022-05-28T08:08:02Z</time>
      </trkpt>
      <trkpt lat="48.06587" lon="6.93546">
        <ele>953</ele>
        <time>2022-05-28T08:08:04Z</time>
      </trkpt>
      <trkpt lat="48.06598" lon="6.93542">
        <ele>952.3</ele>
        <time>2022-05-28T08:08:06Z</time>
      </trkpt>
      <trkpt lat="48.06607" lon="6.93542">
        <ele>949</ele>
        <time>2022-05-28T08:08:08Z</time>
      </trkpt>
      <trkpt lat="48.06616" lon="6.93539">
        <ele>945</ele>
        <time>2022-05-28T08:08:10Z</time>
      </trkpt>
      <trkpt lat="48.06625" lon="6.93536">
        <ele>945.5</ele>
        <time>2022-05-28T08:08:12Z</time>
      </trkpt>
      <trkpt lat="48.06635" lon="6.93533">
        <ele>948.5</ele>
        <time>2022-05-28T08:08:15Z</time>
      </trkpt>
      <trkpt lat="48.06636" lon="6.93546">
        <ele>947.9</ele>
        <time>2022-05-28T08:08:23Z</time>
      </trkpt>
      <trkpt lat="48.06627" lon="6.93554">
        <ele>948.2</ele>
        <time>2022-05-28T08:08:28Z</time>
      </trkpt>
      <trkpt lat="48.06619" lon="6.93562">
        <ele>947.1</ele>
        <time>2022-05-28T08:08:33Z</time>
      </trkpt>
      <trkpt lat="48.06611" lon="6.93576">
        <ele>946</ele>
        <time>2022-05-28T08:08:37Z</time>
      </trkpt>
      <trkpt lat="48.06613" lon="6.93593">
        <ele>943.7</ele>
        <time>2022-05-28T08:08:40Z</time>
      </trkpt>
      <trkpt lat="48.0662" lon="6.93608">
        <ele>941.4</ele>
        <time>2022-05-28T08:08:44Z</time>
      </trkpt>
      <trkpt lat="48.06628" lon="6.93624">
        <ele>939.4</ele>
        <time>2022-05-28T08:08:47Z</time>
      </trkpt>
      <trkpt lat="48.06636" lon="6.93634">
        <ele>935</ele>
        <time>2022-05-28T08:08:49Z</time>
      </trkpt>
      <trkpt lat="48.06648" lon="6.93642">
        <ele>935.7</ele>
        <time>2022-05-28T08:08:51Z</time>
      </trkpt>
      <trkpt lat="48.06657" lon="6.93648">
        <ele>933</ele>
        <time>2022-05-28T08:08:53Z</time>
      </trkpt>
      <trkpt lat="48.06665" lon="6.93657">
        <ele>933</ele>
        <time>2022-05-28T08:08:55Z</time>
      </trkpt>
      <trkpt lat="48.06674" lon="6.93664">
        <ele>931.4</ele>
        <time>2022-05-28T08:08:57Z</time>
      </trkpt>
      <trkpt lat="48.06683" lon="6.93672">
        <ele>928.9</ele>
        <time>2022-05-28T08:08:59Z</time>
      </trkpt>
      <trkpt lat="48.06694" lon="6.93679">
        <ele>927.6</ele>
        <time>2022-05-28T08:09:01Z</time>
      </trkpt>
      <trkpt lat="48.06703" lon="6.9369">
        <ele>924.7</ele>
        <time>2022-05-28T08:09:03Z</time>
      </trkpt>
      <trkpt lat="48.06714" lon="6.937">
        <ele>922.8</ele>
        <time>2022-05-28T08:09:06Z</time>
      </trkpt>
      <trkpt lat="48.06723" lon="6.93715">
        <ele>920.6</ele>
        <time>2022-05-28T08:09:09Z</time>
      </trkpt>
      <trkpt lat="48.0673" lon="6.93723">
        <ele>918.3</ele>
        <time>2022-05-28T08:09:11Z</time>
      </trkpt>
      <trkpt lat="48.0674" lon="6.93731">
        <ele>913.9</ele>
        <time>2022-05-28T08:09:14Z</time>
      </trkpt>
      <trkpt lat="48.0675" lon="6.93728">
        <ele>916.1</ele>
        <time>2022-05-28T08:09:17Z</time>
      </trkpt>
      <trkpt lat="48.06761" lon="6.93724">
        <ele>916.8</ele>
        <time>2022-05-28T08:09:21Z</time>
      </trkpt>
      <trkpt lat="48.06771" lon="6.93722">
        <ele>917.6</ele>
        <time>2022-05-28T08:09:25Z</time>
      </trkpt>
      <trkpt lat="48.06781" lon="6.93721">
        <ele>917.1</ele>
        <time>2022-05-28T08:09:28Z</time>
      </trkpt>
      <trkpt lat="48.06792" lon="6.93721">
        <ele>916.1</ele>
        <time>2022-05-28T08:09:32Z</time>
      </trkpt>
      <trkpt lat="48.06802" lon="6.93722">
        <ele>917.6</ele>
        <time>2022-05-28T08:09:35Z</time>
      </trkpt>
      <trkpt lat="48.06812" lon="6.93723">
        <ele>915.8</ele>
        <time>2022-05-28T08:09:38Z</time>
      </trkpt>
      <trkpt lat="48.06824" lon="6.93723">
        <ele>913.7</ele>
        <time>2022-05-28T08:09:41Z</time>
      </trkpt>
      <trkpt lat="48.06833" lon="6.93725">
        <ele>914</ele>
        <time>2022-05-28T08:09:43Z</time>
      </trkpt>
      <trkpt lat="48.06847" lon="6.93728">
        <ele>913.7</ele>
        <time>2022-05-28T08:09:46Z</time>
      </trkpt>
      <trkpt lat="48.06858" lon="6.9373">
        <ele>914.4</ele>
        <time>2022-05-28T08:09:49Z</time>
      </trkpt>
      <trkpt lat="48.0687" lon="6.9373">
        <ele>914.7</ele>
        <time>2022-05-28T08:09:52Z</time>
      </trkpt>
      <trkpt lat="48.0688" lon="6.93727">
        <ele>916.6</ele>
        <time>2022-05-28T08:09:55Z</time>
      </trkpt>
      <trkpt lat="48.0689" lon="6.93723">
        <ele>914.2</ele>
        <time>2022-05-28T08:09:58Z</time>
      </trkpt>
      <trkpt lat="48.06903" lon="6.9372">
        <ele>914.2</ele>
        <time>2022-05-28T08:10:01Z</time>
      </trkpt>
      <trkpt lat="48.06912" lon="6.93717">
        <ele>915.1</ele>
        <time>2022-05-28T08:10:04Z</time>
      </trkpt>
      <trkpt lat="48.06921" lon="6.93714">
        <ele>914.6</ele>
        <time>2022-05-28T08:10:08Z</time>
      </trkpt>
      <trkpt lat="48.06932" lon="6.93712">
        <ele>915.6</ele>
        <time>2022-05-28T08:10:14Z</time>
      </trkpt>
      <trkpt lat="48.06942" lon="6.93711">
        <ele>915.6</ele>
        <time>2022-05-28T08:10:17Z</time>
      </trkpt>
      <trkpt lat="48.0695" lon="6.93715">
        <ele>915.6</ele>
        <time>2022-05-28T08:10:21Z</time>
      </trkpt>
      <trkpt lat="48.06959" lon="6.93719">
        <ele>914.1</ele>
        <time>2022-05-28T08:10:25Z</time>
      </trkpt>
      <trkpt lat="48.06963" lon="6.93722">
        <ele>914.1</ele>
        <time>2022-05-28T08:10:32Z</time>
      </trkpt>
      <trkpt lat="48.06964" lon="6.93722">
        <ele>914.2</ele>
        <time>2022-05-28T08:10:33Z</time>
      </trkpt>
      <trkpt lat="48.06963" lon="6.93723">
        <ele>913.9</ele>
        <time>2022-05-28T08:10:40Z</time>
      </trkpt>
      <trkpt lat="48.06963" lon="6.93724">
        <ele>913.8</ele>
        <time>2022-05-28T08:11:02Z</time>
      </trkpt>
      <trkpt lat="48.06974" lon="6.9373">
        <ele>913</ele>
        <time>2022-05-28T08:11:07Z</time>
      </trkpt>
      <trkpt lat="48.06984" lon="6.93736">
        <ele>908.3</ele>
        <time>2022-05-28T08:11:10Z</time>
      </trkpt>
      <trkpt lat="48.06995" lon="6.9374">
        <ele>908.4</ele>
        <time>2022-05-28T08:11:13Z</time>
      </trkpt>
      <trkpt lat="48.07006" lon="6.93745">
        <ele>907.8</ele>
        <time>2022-05-28T08:11:16Z</time>
      </trkpt>
      <trkpt lat="48.07015" lon="6.9375">
        <ele>905.9</ele>
        <time>2022-05-28T08:11:19Z</time>
      </trkpt>
      <trkpt lat="48.07026" lon="6.93753">
        <ele>904.6</ele>
        <time>2022-05-28T08:11:22Z</time>
      </trkpt>
      <trkpt lat="48.07038" lon="6.93758">
        <ele>899.8</ele>
        <time>2022-05-28T08:11:25Z</time>
      </trkpt>
      <trkpt lat="48.07047" lon="6.93764">
        <ele>900.5</ele>
        <time>2022-05-28T08:11:27Z</time>
      </trkpt>
      <trkpt lat="48.07058" lon="6.93771">
        <ele>897.1</ele>
        <time>2022-05-28T08:11:29Z</time>
      </trkpt>
      <trkpt lat="48.07071" lon="6.93778">
        <ele>892.4</ele>
        <time>2022-05-28T08:11:31Z</time>
      </trkpt>
      <trkpt lat="48.07082" lon="6.93784">
        <ele>890.5</ele>
        <time>2022-05-28T08:11:33Z</time>
      </trkpt>
      <trkpt lat="48.07092" lon="6.93789">
        <ele>894.9</ele>
        <time>2022-05-28T08:11:35Z</time>
      </trkpt>
      <trkpt lat="48.07103" lon="6.9379">
        <ele>893.4</ele>
        <time>2022-05-28T08:11:37Z</time>
      </trkpt>
      <trkpt lat="48.07116" lon="6.93791">
        <ele>889.6</ele>
        <time>2022-05-28T08:11:39Z</time>
      </trkpt>
      <trkpt lat="48.07127" lon="6.93789">
        <ele>891.4</ele>
        <time>2022-05-28T08:11:41Z</time>
      </trkpt>
      <trkpt lat="48.0714" lon="6.93793">
        <ele>891</ele>
        <time>2022-05-28T08:11:43Z</time>
      </trkpt>
      <trkpt lat="48.07152" lon="6.93801">
        <ele>890.2</ele>
        <time>2022-05-28T08:11:45Z</time>
      </trkpt>
      <trkpt lat="48.07163" lon="6.93799">
        <ele>891.5</ele>
        <time>2022-05-28T08:11:48Z</time>
      </trkpt>
      <trkpt lat="48.07172" lon="6.93791">
        <ele>892.9</ele>
        <time>2022-05-28T08:11:52Z</time>
      </trkpt>
      <trkpt lat="48.07182" lon="6.93785">
        <ele>894.9</ele>
        <time>2022-05-28T08:11:56Z</time>
      </trkpt>
      <trkpt lat="48.07192" lon="6.93776">
        <ele>896.1</ele>
        <time>2022-05-28T08:12:00Z</time>
      </trkpt>
      <trkpt lat="48.07201" lon="6.93775">
        <ele>896.6</ele>
        <time>2022-05-28T08:12:05Z</time>
      </trkpt>
      <trkpt lat="48.07207" lon="6.93782">
        <ele>895.6</ele>
        <time>2022-05-28T08:12:16Z</time>
      </trkpt>
      <trkpt lat="48.07208" lon="6.93782">
        <ele>895.5</ele>
        <time>2022-05-28T08:12:25Z</time>
      </trkpt>
      <trkpt lat="48.07207" lon="6.93782">
        <ele>895.4</ele>
        <time>2022-05-28T08:12:49Z</time>
      </trkpt>
      <trkpt lat="48.07207" lon="6.93783">
        <ele>895.6</ele>
        <time>2022-05-28T08:13:09Z</time>
      </trkpt>
      <trkpt lat="48.07207" lon="6.93784">
        <ele>895.7</ele>
        <time>2022-05-28T08:13:14Z</time>
      </trkpt>
      <trkpt lat="48.07207" lon="6.93783">
        <ele>895.8</ele>
        <time>2022-05-28T08:13:15Z</time>
      </trkpt>
      <trkpt lat="48.07207" lon="6.93784">
        <ele>895.8</ele>
        <time>2022-05-28T08:13:16Z</time>
      </trkpt>
      <trkpt lat="48.07205" lon="6.93801">
        <ele>893.1</ele>
        <time>2022-05-28T08:13:22Z</time>
      </trkpt>
      <trkpt lat="48.07208" lon="6.93817">
        <ele>890.5</ele>
        <time>2022-05-28T08:13:24Z</time>
      </trkpt>
      <trkpt lat="48.07211" lon="6.93832">
        <ele>886.5</ele>
        <time>2022-05-28T08:13:26Z</time>
      </trkpt>
      <trkpt lat="48.07213" lon="6.93845">
        <ele>886.6</ele>
        <time>2022-05-28T08:13:28Z</time>
      </trkpt>
      <trkpt lat="48.07217" lon="6.93857">
        <ele>886.2</ele>
        <time>2022-05-28T08:13:30Z</time>
      </trkpt>
      <trkpt lat="48.07222" lon="6.93872">
        <ele>885.1</ele>
        <time>2022-05-28T08:13:32Z</time>
      </trkpt>
      <trkpt lat="48.07225" lon="6.93886">
        <ele>885.4</ele>
        <time>2022-05-28T08:13:34Z</time>
      </trkpt>
      <trkpt lat="48.07231" lon="6.939">
        <ele>884.4</ele>
        <time>2022-05-28T08:13:37Z</time>
      </trkpt>
      <trkpt lat="48.07239" lon="6.93908">
        <ele>883</ele>
        <time>2022-05-28T08:13:40Z</time>
      </trkpt>
      <trkpt lat="48.07249" lon="6.93922">
        <ele>880.1</ele>
        <time>2022-05-28T08:13:44Z</time>
      </trkpt>
      <trkpt lat="48.07255" lon="6.93934">
        <ele>879.7</ele>
        <time>2022-05-28T08:13:46Z</time>
      </trkpt>
      <trkpt lat="48.07265" lon="6.93942">
        <ele>879</ele>
        <time>2022-05-28T08:13:49Z</time>
      </trkpt>
      <trkpt lat="48.07276" lon="6.9394">
        <ele>879.3</ele>
        <time>2022-05-28T08:13:52Z</time>
      </trkpt>
      <trkpt lat="48.07286" lon="6.9394">
        <ele>878.7</ele>
        <time>2022-05-28T08:13:55Z</time>
      </trkpt>
      <trkpt lat="48.07295" lon="6.93941">
        <ele>879.2</ele>
        <time>2022-05-28T08:13:58Z</time>
      </trkpt>
      <trkpt lat="48.07304" lon="6.9394">
        <ele>878.4</ele>
        <time>2022-05-28T08:14:01Z</time>
      </trkpt>
      <trkpt lat="48.07314" lon="6.93941">
        <ele>879.1</ele>
        <time>2022-05-28T08:14:05Z</time>
      </trkpt>
      <trkpt lat="48.07324" lon="6.93947">
        <ele>877</ele>
        <time>2022-05-28T08:14:08Z</time>
      </trkpt>
      <trkpt lat="48.07333" lon="6.93949">
        <ele>879.2</ele>
        <time>2022-05-28T08:14:11Z</time>
      </trkpt>
      <trkpt lat="48.07343" lon="6.93951">
        <ele>879.2</ele>
        <time>2022-05-28T08:14:14Z</time>
      </trkpt>
      <trkpt lat="48.07352" lon="6.93955">
        <ele>878.7</ele>
        <time>2022-05-28T08:14:17Z</time>
      </trkpt>
      <trkpt lat="48.07361" lon="6.93961">
        <ele>879.6</ele>
        <time>2022-05-28T08:14:20Z</time>
      </trkpt>
      <trkpt lat="48.07368" lon="6.93963">
        <ele>877.3</ele>
        <time>2022-05-28T08:14:25Z</time>
      </trkpt>
      <trkpt lat="48.07366" lon="6.93963">
        <ele>877.2</ele>
        <time>2022-05-28T08:14:38Z</time>
      </trkpt>
      <trkpt lat="48.07357" lon="6.93958">
        <ele>878</ele>
        <time>2022-05-28T08:14:45Z</time>
      </trkpt>
      <trkpt lat="48.07356" lon="6.93957">
        <ele>878.1</ele>
        <time>2022-05-28T08:14:48Z</time>
      </trkpt>
      <trkpt lat="48.07355" lon="6.93957">
        <ele>878.4</ele>
        <time>2022-05-28T08:14:52Z</time>
      </trkpt>
      <trkpt lat="48.07354" lon="6.93955">
        <ele>878.2</ele>
        <time>2022-05-28T08:14:57Z</time>
      </trkpt>
      <trkpt lat="48.07353" lon="6.93955">
        <ele>878.7</ele>
        <time>2022-05-28T08:15:08Z</time>
      </trkpt>
      <trkpt lat="48.07354" lon="6.93954">
        <ele>878.2</ele>
        <time>2022-05-28T08:15:12Z</time>
      </trkpt>
      <trkpt lat="48.07362" lon="6.93961">
        <ele>876.5</ele>
        <time>2022-05-28T08:15:22Z</time>
      </trkpt>
      <trkpt lat="48.07373" lon="6.93968">
        <ele>873</ele>
        <time>2022-05-28T08:15:24Z</time>
      </trkpt>
      <trkpt lat="48.07386" lon="6.93976">
        <ele>871.8</ele>
        <time>2022-05-28T08:15:26Z</time>
      </trkpt>
      <trkpt lat="48.074" lon="6.93985">
        <ele>869.4</ele>
        <time>2022-05-28T08:15:28Z</time>
      </trkpt>
      <trkpt lat="48.07411" lon="6.93995">
        <ele>866.1</ele>
        <time>2022-05-28T08:15:30Z</time>
      </trkpt>
      <trkpt lat="48.07425" lon="6.94004">
        <ele>870.8</ele>
        <time>2022-05-28T08:15:32Z</time>
      </trkpt>
      <trkpt lat="48.07435" lon="6.94009">
        <ele>873.8</ele>
        <time>2022-05-28T08:15:34Z</time>
      </trkpt>
      <trkpt lat="48.07444" lon="6.94012">
        <ele>873.2</ele>
        <time>2022-05-28T08:15:36Z</time>
      </trkpt>
      <trkpt lat="48.07454" lon="6.94014">
        <ele>874</ele>
        <time>2022-05-28T08:15:39Z</time>
      </trkpt>
      <trkpt lat="48.07464" lon="6.94015">
        <ele>875.5</ele>
        <time>2022-05-28T08:15:42Z</time>
      </trkpt>
      <trkpt lat="48.07474" lon="6.94011">
        <ele>873.9</ele>
        <time>2022-05-28T08:15:45Z</time>
      </trkpt>
      <trkpt lat="48.07486" lon="6.94004">
        <ele>871.6</ele>
        <time>2022-05-28T08:15:49Z</time>
      </trkpt>
      <trkpt lat="48.07497" lon="6.94004">
        <ele>869.7</ele>
        <time>2022-05-28T08:15:53Z</time>
      </trkpt>
      <trkpt lat="48.07507" lon="6.94009">
        <ele>866.8</ele>
        <time>2022-05-28T08:15:56Z</time>
      </trkpt>
      <trkpt lat="48.07517" lon="6.94013">
        <ele>864.9</ele>
        <time>2022-05-28T08:15:59Z</time>
      </trkpt>
      <trkpt lat="48.07526" lon="6.94019">
        <ele>862.5</ele>
        <time>2022-05-28T08:16:03Z</time>
      </trkpt>
      <trkpt lat="48.07535" lon="6.94014">
        <ele>859</ele>
        <time>2022-05-28T08:16:08Z</time>
      </trkpt>
      <trkpt lat="48.0754" lon="6.94002">
        <ele>860.7</ele>
        <time>2022-05-28T08:16:12Z</time>
      </trkpt>
      <trkpt lat="48.07546" lon="6.9399">
        <ele>862.7</ele>
        <time>2022-05-28T08:16:19Z</time>
      </trkpt>
      <trkpt lat="48.07548" lon="6.93986">
        <ele>863.2</ele>
        <time>2022-05-28T08:16:25Z</time>
      </trkpt>
      <trkpt lat="48.07555" lon="6.93976">
        <ele>864.1</ele>
        <time>2022-05-28T08:16:36Z</time>
      </trkpt>
      <trkpt lat="48.07561" lon="6.93965">
        <ele>864.8</ele>
        <time>2022-05-28T08:16:42Z</time>
      </trkpt>
      <trkpt lat="48.07565" lon="6.93951">
        <ele>868.8</ele>
        <time>2022-05-28T08:16:54Z</time>
      </trkpt>
      <trkpt lat="48.07567" lon="6.93938">
        <ele>871.9</ele>
        <time>2022-05-28T08:17:10Z</time>
      </trkpt>
      <trkpt lat="48.0757" lon="6.93924">
        <ele>875.3</ele>
        <time>2022-05-28T08:17:27Z</time>
      </trkpt>
      <trkpt lat="48.07571" lon="6.9391">
        <ele>878</ele>
        <time>2022-05-28T08:17:41Z</time>
      </trkpt>
      <trkpt lat="48.07575" lon="6.93898">
        <ele>880.7</ele>
        <time>2022-05-28T08:17:56Z</time>
      </trkpt>
      <trkpt lat="48.07579" lon="6.93886">
        <ele>884.6</ele>
        <time>2022-05-28T08:18:15Z</time>
      </trkpt>
      <trkpt lat="48.07583" lon="6.93876">
        <ele>886.5</ele>
        <time>2022-05-28T08:18:28Z</time>
      </trkpt>
      <trkpt lat="48.07589" lon="6.93865">
        <ele>889.5</ele>
        <time>2022-05-28T08:18:43Z</time>
      </trkpt>
      <trkpt lat="48.07595" lon="6.93855">
        <ele>891.3</ele>
        <time>2022-05-28T08:18:57Z</time>
      </trkpt>
      <trkpt lat="48.07596" lon="6.93854">
        <ele>891.1</ele>
        <time>2022-05-28T08:19:01Z</time>
      </trkpt>
      <trkpt lat="48.07596" lon="6.93853">
        <ele>891.4</ele>
        <time>2022-05-28T08:19:17Z</time>
      </trkpt>
      <trkpt lat="48.07597" lon="6.93851">
        <ele>891.4</ele>
        <time>2022-05-28T08:19:24Z</time>
      </trkpt>
      <trkpt lat="48.07597" lon="6.93851">
        <ele>891.1</ele>
        <time>2022-05-28T08:19:37Z</time>
      </trkpt>
      <trkpt lat="48.07598" lon="6.93849">
        <ele>891.1</ele>
        <time>2022-05-28T08:19:41Z</time>
      </trkpt>
      <trkpt lat="48.07605" lon="6.93839">
        <ele>888.2</ele>
        <time>2022-05-28T08:19:51Z</time>
      </trkpt>
      <trkpt lat="48.07611" lon="6.93824">
        <ele>883.6</ele>
        <time>2022-05-28T08:19:55Z</time>
      </trkpt>
      <trkpt lat="48.07617" lon="6.93813">
        <ele>882</ele>
        <time>2022-05-28T08:19:57Z</time>
      </trkpt>
      <trkpt lat="48.07623" lon="6.938">
        <ele>879</ele>
        <time>2022-05-28T08:19:59Z</time>
      </trkpt>
      <trkpt lat="48.0763" lon="6.93784">
        <ele>877.8</ele>
        <time>2022-05-28T08:20:01Z</time>
      </trkpt>
      <trkpt lat="48.07636" lon="6.93767">
        <ele>877.3</ele>
        <time>2022-05-28T08:20:03Z</time>
      </trkpt>
      <trkpt lat="48.0764" lon="6.93752">
        <ele>880</ele>
        <time>2022-05-28T08:20:05Z</time>
      </trkpt>
      <trkpt lat="48.07643" lon="6.93735">
        <ele>876.6</ele>
        <time>2022-05-28T08:20:07Z</time>
      </trkpt>
      <trkpt lat="48.07642" lon="6.93719">
        <ele>876.1</ele>
        <time>2022-05-28T08:20:09Z</time>
      </trkpt>
      <trkpt lat="48.07641" lon="6.93706">
        <ele>875.1</ele>
        <time>2022-05-28T08:20:11Z</time>
      </trkpt>
      <trkpt lat="48.07641" lon="6.93689">
        <ele>873.5</ele>
        <time>2022-05-28T08:20:14Z</time>
      </trkpt>
      <trkpt lat="48.0764" lon="6.93675">
        <ele>872.3</ele>
        <time>2022-05-28T08:20:17Z</time>
      </trkpt>
      <trkpt lat="48.07642" lon="6.93659">
        <ele>870.9</ele>
        <time>2022-05-28T08:20:20Z</time>
      </trkpt>
      <trkpt lat="48.07647" lon="6.93644">
        <ele>869.1</ele>
        <time>2022-05-28T08:20:23Z</time>
      </trkpt>
      <trkpt lat="48.07656" lon="6.93634">
        <ele>868.1</ele>
        <time>2022-05-28T08:20:27Z</time>
      </trkpt>
      <trkpt lat="48.07665" lon="6.93625">
        <ele>867.4</ele>
        <time>2022-05-28T08:20:32Z</time>
      </trkpt>
      <trkpt lat="48.07674" lon="6.93613">
        <ele>867.4</ele>
        <time>2022-05-28T08:20:36Z</time>
      </trkpt>
      <trkpt lat="48.0768" lon="6.93602">
        <ele>868</ele>
        <time>2022-05-28T08:20:39Z</time>
      </trkpt>
      <trkpt lat="48.07685" lon="6.9359">
        <ele>866.5</ele>
        <time>2022-05-28T08:20:42Z</time>
      </trkpt>
      <trkpt lat="48.0769" lon="6.93578">
        <ele>866.6</ele>
        <time>2022-05-28T08:20:46Z</time>
      </trkpt>
      <trkpt lat="48.07698" lon="6.93565">
        <ele>865.6</ele>
        <time>2022-05-28T08:20:51Z</time>
      </trkpt>
      <trkpt lat="48.07698" lon="6.93563">
        <ele>865.9</ele>
        <time>2022-05-28T08:20:54Z</time>
      </trkpt>
      <trkpt lat="48.07698" lon="6.93562">
        <ele>865.8</ele>
        <time>2022-05-28T08:20:56Z</time>
      </trkpt>
      <trkpt lat="48.07705" lon="6.93551">
        <ele>864.7</ele>
        <time>2022-05-28T08:21:04Z</time>
      </trkpt>
      <trkpt lat="48.07705" lon="6.93547">
        <ele>864.7</ele>
        <time>2022-05-28T08:21:08Z</time>
      </trkpt>
      <trkpt lat="48.07705" lon="6.93546">
        <ele>864.8</ele>
        <time>2022-05-28T08:21:13Z</time>
      </trkpt>
      <trkpt lat="48.07705" lon="6.93545">
        <ele>865</ele>
        <time>2022-05-28T08:21:37Z</time>
      </trkpt>
      <trkpt lat="48.07704" lon="6.93545">
        <ele>864.5</ele>
        <time>2022-05-28T08:21:39Z</time>
      </trkpt>
      <trkpt lat="48.07704" lon="6.93546">
        <ele>864.6</ele>
        <time>2022-05-28T08:22:03Z</time>
      </trkpt>
      <trkpt lat="48.07703" lon="6.93546">
        <ele>864.7</ele>
        <time>2022-05-28T08:22:15Z</time>
      </trkpt>
      <trkpt lat="48.07703" lon="6.93547">
        <ele>864.8</ele>
        <time>2022-05-28T08:22:20Z</time>
      </trkpt>
      <trkpt lat="48.07713" lon="6.9354">
        <ele>863.5</ele>
        <time>2022-05-28T08:22:28Z</time>
      </trkpt>
      <trkpt lat="48.07719" lon="6.93529">
        <ele>862.7</ele>
        <time>2022-05-28T08:22:31Z</time>
      </trkpt>
      <trkpt lat="48.07726" lon="6.93518">
        <ele>862.2</ele>
        <time>2022-05-28T08:22:34Z</time>
      </trkpt>
      <trkpt lat="48.07729" lon="6.93503">
        <ele>860.5</ele>
        <time>2022-05-28T08:22:38Z</time>
      </trkpt>
      <trkpt lat="48.07723" lon="6.9349">
        <ele>858.4</ele>
        <time>2022-05-28T08:22:42Z</time>
      </trkpt>
      <trkpt lat="48.07713" lon="6.93482">
        <ele>858</ele>
        <time>2022-05-28T08:22:45Z</time>
      </trkpt>
      <trkpt lat="48.077" lon="6.93476">
        <ele>855.5</ele>
        <time>2022-05-28T08:22:48Z</time>
      </trkpt>
      <trkpt lat="48.07688" lon="6.93472">
        <ele>856</ele>
        <time>2022-05-28T08:22:51Z</time>
      </trkpt>
      <trkpt lat="48.07681" lon="6.93463">
        <ele>853.2</ele>
        <time>2022-05-28T08:22:54Z</time>
      </trkpt>
      <trkpt lat="48.07684" lon="6.93459">
        <ele>853</ele>
        <time>2022-05-28T08:22:59Z</time>
      </trkpt>
      <trkpt lat="48.07685" lon="6.93459">
        <ele>853.1</ele>
        <time>2022-05-28T08:23:00Z</time>
      </trkpt>
      <trkpt lat="48.07685" lon="6.9346">
        <ele>853</ele>
        <time>2022-05-28T08:23:08Z</time>
      </trkpt>
      <trkpt lat="48.07686" lon="6.93461">
        <ele>853.3</ele>
        <time>2022-05-28T08:23:14Z</time>
      </trkpt>
      <trkpt lat="48.07686" lon="6.9346">
        <ele>853.2</ele>
        <time>2022-05-28T08:23:24Z</time>
      </trkpt>
      <trkpt lat="48.07687" lon="6.9346">
        <ele>853.4</ele>
        <time>2022-05-28T08:23:26Z</time>
      </trkpt>
      <trkpt lat="48.07687" lon="6.9346">
        <ele>853</ele>
        <time>2022-05-28T08:23:58Z</time>
      </trkpt>
      <trkpt lat="48.07688" lon="6.93459">
        <ele>852.9</ele>
        <time>2022-05-28T08:24:03Z</time>
      </trkpt>
      <trkpt lat="48.07688" lon="6.93458">
        <ele>852.2</ele>
        <time>2022-05-28T08:24:16Z</time>
      </trkpt>
      <trkpt lat="48.07694" lon="6.93447">
        <ele>848.8</ele>
        <time>2022-05-28T08:24:21Z</time>
      </trkpt>
      <trkpt lat="48.07701" lon="6.9343">
        <ele>848.1</ele>
        <time>2022-05-28T08:24:25Z</time>
      </trkpt>
      <trkpt lat="48.07705" lon="6.93417">
        <ele>847</ele>
        <time>2022-05-28T08:24:27Z</time>
      </trkpt>
      <trkpt lat="48.07709" lon="6.93404">
        <ele>843.7</ele>
        <time>2022-05-28T08:24:29Z</time>
      </trkpt>
      <trkpt lat="48.07715" lon="6.93392">
        <ele>842.9</ele>
        <time>2022-05-28T08:24:31Z</time>
      </trkpt>
      <trkpt lat="48.0772" lon="6.93381">
        <ele>841.5</ele>
        <time>2022-05-28T08:24:33Z</time>
      </trkpt>
      <trkpt lat="48.0773" lon="6.93367">
        <ele>841.6</ele>
        <time>2022-05-28T08:24:36Z</time>
      </trkpt>
      <trkpt lat="48.0774" lon="6.93351">
        <ele>839.7</ele>
        <time>2022-05-28T08:24:38Z</time>
      </trkpt>
      <trkpt lat="48.0775" lon="6.93336">
        <ele>837.6</ele>
        <time>2022-05-28T08:24:40Z</time>
      </trkpt>
      <trkpt lat="48.07759" lon="6.9332">
        <ele>834.8</ele>
        <time>2022-05-28T08:24:42Z</time>
      </trkpt>
      <trkpt lat="48.07765" lon="6.93306">
        <ele>832</ele>
        <time>2022-05-28T08:24:44Z</time>
      </trkpt>
      <trkpt lat="48.07769" lon="6.93292">
        <ele>830.7</ele>
        <time>2022-05-28T08:24:46Z</time>
      </trkpt>
      <trkpt lat="48.07773" lon="6.93277">
        <ele>828.4</ele>
        <time>2022-05-28T08:24:49Z</time>
      </trkpt>
      <trkpt lat="48.0778" lon="6.93264">
        <ele>825.3</ele>
        <time>2022-05-28T08:24:52Z</time>
      </trkpt>
      <trkpt lat="48.07791" lon="6.93254">
        <ele>823.5</ele>
        <time>2022-05-28T08:24:55Z</time>
      </trkpt>
      <trkpt lat="48.07803" lon="6.93246">
        <ele>821.2</ele>
        <time>2022-05-28T08:24:58Z</time>
      </trkpt>
      <trkpt lat="48.07813" lon="6.93242">
        <ele>818.2</ele>
        <time>2022-05-28T08:25:00Z</time>
      </trkpt>
      <trkpt lat="48.07825" lon="6.93242">
        <ele>820.6</ele>
        <time>2022-05-28T08:25:02Z</time>
      </trkpt>
      <trkpt lat="48.07835" lon="6.93241">
        <ele>818.5</ele>
        <time>2022-05-28T08:25:04Z</time>
      </trkpt>
      <trkpt lat="48.07845" lon="6.93247">
        <ele>817.8</ele>
        <time>2022-05-28T08:25:07Z</time>
      </trkpt>
      <trkpt lat="48.07847" lon="6.93246">
        <ele>817</ele>
        <time>2022-05-28T08:25:12Z</time>
      </trkpt>
      <trkpt lat="48.07848" lon="6.93246">
        <ele>817</ele>
        <time>2022-05-28T08:25:13Z</time>
      </trkpt>
      <trkpt lat="48.07857" lon="6.93248">
        <ele>813.6</ele>
        <time>2022-05-28T08:25:18Z</time>
      </trkpt>
      <trkpt lat="48.07866" lon="6.93243">
        <ele>810.8</ele>
        <time>2022-05-28T08:25:21Z</time>
      </trkpt>
      <trkpt lat="48.07874" lon="6.9323">
        <ele>810</ele>
        <time>2022-05-28T08:25:24Z</time>
      </trkpt>
      <trkpt lat="48.07876" lon="6.93226">
        <ele>808.8</ele>
        <time>2022-05-28T08:25:29Z</time>
      </trkpt>
      <trkpt lat="48.07881" lon="6.93224">
        <ele>808.8</ele>
        <time>2022-05-28T08:26:32Z</time>
      </trkpt>
      <trkpt lat="48.07882" lon="6.93224">
        <ele>809</ele>
        <time>2022-05-28T08:26:33Z</time>
      </trkpt>
      <trkpt lat="48.07892" lon="6.93231">
        <ele>807.9</ele>
        <time>2022-05-28T08:26:38Z</time>
      </trkpt>
      <trkpt lat="48.07904" lon="6.93239">
        <ele>805.4</ele>
        <time>2022-05-28T08:26:41Z</time>
      </trkpt>
      <trkpt lat="48.07914" lon="6.93245">
        <ele>803.6</ele>
        <time>2022-05-28T08:26:43Z</time>
      </trkpt>
      <trkpt lat="48.07926" lon="6.93251">
        <ele>801.3</ele>
        <time>2022-05-28T08:26:45Z</time>
      </trkpt>
      <trkpt lat="48.0794" lon="6.93258">
        <ele>801.4</ele>
        <time>2022-05-28T08:26:47Z</time>
      </trkpt>
      <trkpt lat="48.07951" lon="6.93268">
        <ele>801.2</ele>
        <time>2022-05-28T08:26:49Z</time>
      </trkpt>
      <trkpt lat="48.0796" lon="6.93284">
        <ele>799.4</ele>
        <time>2022-05-28T08:26:51Z</time>
      </trkpt>
      <trkpt lat="48.07966" lon="6.93304">
        <ele>798.8</ele>
        <time>2022-05-28T08:26:53Z</time>
      </trkpt>
      <trkpt lat="48.07969" lon="6.93327">
        <ele>797</ele>
        <time>2022-05-28T08:26:55Z</time>
      </trkpt>
      <trkpt lat="48.07969" lon="6.93353">
        <ele>794.6</ele>
        <time>2022-05-28T08:26:57Z</time>
      </trkpt>
      <trkpt lat="48.07967" lon="6.93367">
        <ele>794.1</ele>
        <time>2022-05-28T08:26:58Z</time>
      </trkpt>
      <trkpt lat="48.07964" lon="6.93381">
        <ele>793.4</ele>
        <time>2022-05-28T08:26:59Z</time>
      </trkpt>
      <trkpt lat="48.07961" lon="6.93395">
        <ele>792.4</ele>
        <time>2022-05-28T08:27:00Z</time>
      </trkpt>
      <trkpt lat="48.07958" lon="6.93409">
        <ele>790.7</ele>
        <time>2022-05-28T08:27:01Z</time>
      </trkpt>
      <trkpt lat="48.07955" lon="6.93423">
        <ele>789.5</ele>
        <time>2022-05-28T08:27:02Z</time>
      </trkpt>
      <trkpt lat="48.07949" lon="6.93447">
        <ele>789.3</ele>
        <time>2022-05-28T08:27:04Z</time>
      </trkpt>
      <trkpt lat="48.07942" lon="6.9347">
        <ele>788.5</ele>
        <time>2022-05-28T08:27:06Z</time>
      </trkpt>
      <trkpt lat="48.07934" lon="6.93492">
        <ele>786</ele>
        <time>2022-05-28T08:27:08Z</time>
      </trkpt>
      <trkpt lat="48.07926" lon="6.93515">
        <ele>784.5</ele>
        <time>2022-05-28T08:27:10Z</time>
      </trkpt>
      <trkpt lat="48.07922" lon="6.93528">
        <ele>783</ele>
        <time>2022-05-28T08:27:11Z</time>
      </trkpt>
      <trkpt lat="48.07918" lon="6.9354">
        <ele>781</ele>
        <time>2022-05-28T08:27:12Z</time>
      </trkpt>
      <trkpt lat="48.07915" lon="6.93553">
        <ele>779.4</ele>
        <time>2022-05-28T08:27:13Z</time>
      </trkpt>
      <trkpt lat="48.07914" lon="6.9358">
        <ele>778.2</ele>
        <time>2022-05-28T08:27:15Z</time>
      </trkpt>
      <trkpt lat="48.07915" lon="6.93594">
        <ele>777.5</ele>
        <time>2022-05-28T08:27:16Z</time>
      </trkpt>
      <trkpt lat="48.07917" lon="6.93609">
        <ele>776.2</ele>
        <time>2022-05-28T08:27:17Z</time>
      </trkpt>
      <trkpt lat="48.07918" lon="6.93623">
        <ele>775</ele>
        <time>2022-05-28T08:27:18Z</time>
      </trkpt>
      <trkpt lat="48.07918" lon="6.93637">
        <ele>775.4</ele>
        <time>2022-05-28T08:27:19Z</time>
      </trkpt>
      <trkpt lat="48.07916" lon="6.93652">
        <ele>775.9</ele>
        <time>2022-05-28T08:27:20Z</time>
      </trkpt>
      <trkpt lat="48.07912" lon="6.93666">
        <ele>774.5</ele>
        <time>2022-05-28T08:27:21Z</time>
      </trkpt>
      <trkpt lat="48.07909" lon="6.93681">
        <ele>773.8</ele>
        <time>2022-05-28T08:27:22Z</time>
      </trkpt>
      <trkpt lat="48.07905" lon="6.93696">
        <ele>772</ele>
        <time>2022-05-28T08:27:23Z</time>
      </trkpt>
      <trkpt lat="48.07902" lon="6.93712">
        <ele>770</ele>
        <time>2022-05-28T08:27:24Z</time>
      </trkpt>
      <trkpt lat="48.07901" lon="6.93728">
        <ele>769.4</ele>
        <time>2022-05-28T08:27:25Z</time>
      </trkpt>
      <trkpt lat="48.07901" lon="6.93743">
        <ele>768.1</ele>
        <time>2022-05-28T08:27:26Z</time>
      </trkpt>
      <trkpt lat="48.07899" lon="6.93758">
        <ele>768.3</ele>
        <time>2022-05-28T08:27:27Z</time>
      </trkpt>
      <trkpt lat="48.07897" lon="6.93773">
        <ele>767.3</ele>
        <time>2022-05-28T08:27:28Z</time>
      </trkpt>
      <trkpt lat="48.07892" lon="6.93787">
        <ele>766.6</ele>
        <time>2022-05-28T08:27:29Z</time>
      </trkpt>
      <trkpt lat="48.07888" lon="6.93801">
        <ele>765.9</ele>
        <time>2022-05-28T08:27:30Z</time>
      </trkpt>
      <trkpt lat="48.07884" lon="6.93816">
        <ele>764.1</ele>
        <time>2022-05-28T08:27:31Z</time>
      </trkpt>
      <trkpt lat="48.07882" lon="6.9383">
        <ele>761.6</ele>
        <time>2022-05-28T08:27:32Z</time>
      </trkpt>
      <trkpt lat="48.07881" lon="6.93845">
        <ele>760.9</ele>
        <time>2022-05-28T08:27:33Z</time>
      </trkpt>
      <trkpt lat="48.07881" lon="6.93859">
        <ele>762</ele>
        <time>2022-05-28T08:27:34Z</time>
      </trkpt>
      <trkpt lat="48.07881" lon="6.93873">
        <ele>762</ele>
        <time>2022-05-28T08:27:35Z</time>
      </trkpt>
      <trkpt lat="48.07878" lon="6.93886">
        <ele>761.1</ele>
        <time>2022-05-28T08:27:36Z</time>
      </trkpt>
      <trkpt lat="48.07874" lon="6.93899">
        <ele>759.6</ele>
        <time>2022-05-28T08:27:37Z</time>
      </trkpt>
      <trkpt lat="48.07869" lon="6.93911">
        <ele>759.1</ele>
        <time>2022-05-28T08:27:38Z</time>
      </trkpt>
      <trkpt lat="48.07863" lon="6.93924">
        <ele>758</ele>
        <time>2022-05-28T08:27:39Z</time>
      </trkpt>
      <trkpt lat="48.07857" lon="6.93937">
        <ele>756.8</ele>
        <time>2022-05-28T08:27:40Z</time>
      </trkpt>
      <trkpt lat="48.0785" lon="6.93951">
        <ele>754.8</ele>
        <time>2022-05-28T08:27:41Z</time>
      </trkpt>
      <trkpt lat="48.07844" lon="6.93964">
        <ele>752.8</ele>
        <time>2022-05-28T08:27:42Z</time>
      </trkpt>
      <trkpt lat="48.07837" lon="6.93978">
        <ele>751.4</ele>
        <time>2022-05-28T08:27:43Z</time>
      </trkpt>
      <trkpt lat="48.07831" lon="6.93992">
        <ele>751</ele>
        <time>2022-05-28T08:27:44Z</time>
      </trkpt>
      <trkpt lat="48.07826" lon="6.94003">
        <ele>751.6</ele>
        <time>2022-05-28T08:27:45Z</time>
      </trkpt>
      <trkpt lat="48.07818" lon="6.9402">
        <ele>753</ele>
        <time>2022-05-28T08:27:47Z</time>
      </trkpt>
      <trkpt lat="48.07812" lon="6.94031">
        <ele>754.6</ele>
        <time>2022-05-28T08:27:51Z</time>
      </trkpt>
      <trkpt lat="48.07808" lon="6.94044">
        <ele>753.1</ele>
        <time>2022-05-28T08:27:58Z</time>
      </trkpt>
      <trkpt lat="48.07813" lon="6.94057">
        <ele>751.6</ele>
        <time>2022-05-28T08:28:03Z</time>
      </trkpt>
      <trkpt lat="48.07816" lon="6.9407">
        <ele>749.9</ele>
        <time>2022-05-28T08:28:06Z</time>
      </trkpt>
      <trkpt lat="48.0781" lon="6.94081">
        <ele>750.1</ele>
        <time>2022-05-28T08:28:09Z</time>
      </trkpt>
      <trkpt lat="48.07802" lon="6.9409">
        <ele>749.9</ele>
        <time>2022-05-28T08:28:13Z</time>
      </trkpt>
      <trkpt lat="48.078" lon="6.9409">
        <ele>750.4</ele>
        <time>2022-05-28T08:28:17Z</time>
      </trkpt>
      <trkpt lat="48.078" lon="6.94089">
        <ele>750.4</ele>
        <time>2022-05-28T08:28:25Z</time>
      </trkpt>
      <trkpt lat="48.07793" lon="6.94099">
        <ele>750</ele>
        <time>2022-05-28T08:28:33Z</time>
      </trkpt>
      <trkpt lat="48.07791" lon="6.94112">
        <ele>749.8</ele>
        <time>2022-05-28T08:28:36Z</time>
      </trkpt>
      <trkpt lat="48.07793" lon="6.94127">
        <ele>748.5</ele>
        <time>2022-05-28T08:28:39Z</time>
      </trkpt>
      <trkpt lat="48.07797" lon="6.94142">
        <ele>748.1</ele>
        <time>2022-05-28T08:28:42Z</time>
      </trkpt>
      <trkpt lat="48.078" lon="6.94157">
        <ele>748.3</ele>
        <time>2022-05-28T08:28:45Z</time>
      </trkpt>
      <trkpt lat="48.07803" lon="6.9417">
        <ele>748.2</ele>
        <time>2022-05-28T08:28:48Z</time>
      </trkpt>
      <trkpt lat="48.07807" lon="6.94182">
        <ele>749.1</ele>
        <time>2022-05-28T08:28:51Z</time>
      </trkpt>
      <trkpt lat="48.07811" lon="6.94196">
        <ele>748.9</ele>
        <time>2022-05-28T08:28:54Z</time>
      </trkpt>
      <trkpt lat="48.07813" lon="6.9421">
        <ele>748.9</ele>
        <time>2022-05-28T08:28:57Z</time>
      </trkpt>
      <trkpt lat="48.07816" lon="6.94226">
        <ele>748.4</ele>
        <time>2022-05-28T08:29:01Z</time>
      </trkpt>
      <trkpt lat="48.07823" lon="6.94237">
        <ele>749.4</ele>
        <time>2022-05-28T08:29:07Z</time>
      </trkpt>
      <trkpt lat="48.07825" lon="6.94236">
        <ele>750.2</ele>
        <time>2022-05-28T08:29:11Z</time>
      </trkpt>
      <trkpt lat="48.07825" lon="6.94235">
        <ele>749.7</ele>
        <time>2022-05-28T08:30:28Z</time>
      </trkpt>
      <trkpt lat="48.07825" lon="6.94235">
        <ele>749.5</ele>
        <time>2022-05-28T08:30:48Z</time>
      </trkpt>
      <trkpt lat="48.07825" lon="6.94234">
        <ele>749.3</ele>
        <time>2022-05-28T08:30:51Z</time>
      </trkpt>
      <trkpt lat="48.07825" lon="6.94234">
        <ele>748.3</ele>
        <time>2022-05-28T08:32:19Z</time>
      </trkpt>
      <trkpt lat="48.07824" lon="6.94234">
        <ele>748.6</ele>
        <time>2022-05-28T08:32:59Z</time>
      </trkpt>
      <trkpt lat="48.07825" lon="6.94237">
        <ele>748.2</ele>
        <time>2022-05-28T08:33:04Z</time>
      </trkpt>
      <trkpt lat="48.07825" lon="6.94238">
        <ele>748.3</ele>
        <time>2022-05-28T08:33:27Z</time>
      </trkpt>
      <trkpt lat="48.07826" lon="6.94238">
        <ele>748</ele>
        <time>2022-05-28T08:33:56Z</time>
      </trkpt>
      <trkpt lat="48.0782" lon="6.94227">
        <ele>747.3</ele>
        <time>2022-05-28T08:34:57Z</time>
      </trkpt>
      <trkpt lat="48.07816" lon="6.94212">
        <ele>746.9</ele>
        <time>2022-05-28T08:35:01Z</time>
      </trkpt>
      <trkpt lat="48.07811" lon="6.94197">
        <ele>747.2</ele>
        <time>2022-05-28T08:35:05Z</time>
      </trkpt>
      <trkpt lat="48.07806" lon="6.94186">
        <ele>747.1</ele>
        <time>2022-05-28T08:35:08Z</time>
      </trkpt>
      <trkpt lat="48.07799" lon="6.94175">
        <ele>747.4</ele>
        <time>2022-05-28T08:35:12Z</time>
      </trkpt>
      <trkpt lat="48.07794" lon="6.94171">
        <ele>746.7</ele>
        <time>2022-05-28T08:35:19Z</time>
      </trkpt>
      <trkpt lat="48.07786" lon="6.9418">
        <ele>746.5</ele>
        <time>2022-05-28T08:35:35Z</time>
      </trkpt>
      <trkpt lat="48.0778" lon="6.9419">
        <ele>746.7</ele>
        <time>2022-05-28T08:35:38Z</time>
      </trkpt>
      <trkpt lat="48.07774" lon="6.94201">
        <ele>747.1</ele>
        <time>2022-05-28T08:35:41Z</time>
      </trkpt>
      <trkpt lat="48.07769" lon="6.94212">
        <ele>745.4</ele>
        <time>2022-05-28T08:35:43Z</time>
      </trkpt>
      <trkpt lat="48.07764" lon="6.94225">
        <ele>744.5</ele>
        <time>2022-05-28T08:35:45Z</time>
      </trkpt>
      <trkpt lat="48.07759" lon="6.94237">
        <ele>744.7</ele>
        <time>2022-05-28T08:35:47Z</time>
      </trkpt>
      <trkpt lat="48.07755" lon="6.94256">
        <ele>746.1</ele>
        <time>2022-05-28T08:35:50Z</time>
      </trkpt>
      <trkpt lat="48.07754" lon="6.94272">
        <ele>746.9</ele>
        <time>2022-05-28T08:35:53Z</time>
      </trkpt>
      <trkpt lat="48.07749" lon="6.94286">
        <ele>747</ele>
        <time>2022-05-28T08:35:56Z</time>
      </trkpt>
      <trkpt lat="48.07741" lon="6.94299">
        <ele>746.5</ele>
        <time>2022-05-28T08:35:59Z</time>
      </trkpt>
      <trkpt lat="48.07732" lon="6.94313">
        <ele>746.2</ele>
        <time>2022-05-28T08:36:02Z</time>
      </trkpt>
      <trkpt lat="48.07729" lon="6.94327">
        <ele>746.9</ele>
        <time>2022-05-28T08:36:05Z</time>
      </trkpt>
      <trkpt lat="48.07731" lon="6.94343">
        <ele>748.5</ele>
        <time>2022-05-28T08:36:09Z</time>
      </trkpt>
      <trkpt lat="48.07734" lon="6.94358">
        <ele>748.1</ele>
        <time>2022-05-28T08:36:12Z</time>
      </trkpt>
      <trkpt lat="48.07738" lon="6.9437">
        <ele>748.9</ele>
        <time>2022-05-28T08:36:15Z</time>
      </trkpt>
      <trkpt lat="48.07741" lon="6.94384">
        <ele>747.8</ele>
        <time>2022-05-28T08:36:20Z</time>
      </trkpt>
      <trkpt lat="48.0774" lon="6.94397">
        <ele>746.4</ele>
        <time>2022-05-28T08:36:24Z</time>
      </trkpt>
      <trkpt lat="48.0774" lon="6.94415">
        <ele>745.4</ele>
        <time>2022-05-28T08:36:27Z</time>
      </trkpt>
      <trkpt lat="48.07737" lon="6.94428">
        <ele>745.4</ele>
        <time>2022-05-28T08:36:30Z</time>
      </trkpt>
      <trkpt lat="48.07731" lon="6.9444">
        <ele>745.7</ele>
        <time>2022-05-28T08:36:34Z</time>
      </trkpt>
      <trkpt lat="48.07722" lon="6.9445">
        <ele>745.2</ele>
        <time>2022-05-28T08:36:38Z</time>
      </trkpt>
      <trkpt lat="48.07714" lon="6.94461">
        <ele>745.1</ele>
        <time>2022-05-28T08:36:42Z</time>
      </trkpt>
      <trkpt lat="48.07708" lon="6.94471">
        <ele>745.4</ele>
        <time>2022-05-28T08:36:46Z</time>
      </trkpt>
      <trkpt lat="48.077" lon="6.94481">
        <ele>745.8</ele>
        <time>2022-05-28T08:36:50Z</time>
      </trkpt>
      <trkpt lat="48.07695" lon="6.94491">
        <ele>746</ele>
        <time>2022-05-28T08:36:53Z</time>
      </trkpt>
      <trkpt lat="48.07687" lon="6.94505">
        <ele>745.1</ele>
        <time>2022-05-28T08:36:56Z</time>
      </trkpt>
      <trkpt lat="48.07675" lon="6.94514">
        <ele>745.7</ele>
        <time>2022-05-28T08:36:59Z</time>
      </trkpt>
      <trkpt lat="48.07664" lon="6.94519">
        <ele>746.3</ele>
        <time>2022-05-28T08:37:02Z</time>
      </trkpt>
      <trkpt lat="48.07659" lon="6.94532">
        <ele>745.6</ele>
        <time>2022-05-28T08:37:06Z</time>
      </trkpt>
      <trkpt lat="48.07663" lon="6.94545">
        <ele>746.3</ele>
        <time>2022-05-28T08:37:11Z</time>
      </trkpt>
      <trkpt lat="48.07669" lon="6.94559">
        <ele>745.9</ele>
        <time>2022-05-28T08:37:16Z</time>
      </trkpt>
      <trkpt lat="48.07677" lon="6.94573">
        <ele>745.8</ele>
        <time>2022-05-28T08:37:20Z</time>
      </trkpt>
      <trkpt lat="48.07685" lon="6.94584">
        <ele>744.5</ele>
        <time>2022-05-28T08:37:23Z</time>
      </trkpt>
      <trkpt lat="48.07694" lon="6.94592">
        <ele>744.6</ele>
        <time>2022-05-28T08:37:26Z</time>
      </trkpt>
      <trkpt lat="48.07703" lon="6.94597">
        <ele>745.6</ele>
        <time>2022-05-28T08:37:29Z</time>
      </trkpt>
      <trkpt lat="48.07712" lon="6.94602">
        <ele>745.7</ele>
        <time>2022-05-28T08:37:32Z</time>
      </trkpt>
      <trkpt lat="48.07722" lon="6.94609">
        <ele>745.2</ele>
        <time>2022-05-28T08:37:35Z</time>
      </trkpt>
      <trkpt lat="48.07731" lon="6.94619">
        <ele>744.1</ele>
        <time>2022-05-28T08:37:38Z</time>
      </trkpt>
      <trkpt lat="48.07741" lon="6.94627">
        <ele>743.5</ele>
        <time>2022-05-28T08:37:41Z</time>
      </trkpt>
      <trkpt lat="48.07752" lon="6.94636">
        <ele>745.1</ele>
        <time>2022-05-28T08:37:44Z</time>
      </trkpt>
      <trkpt lat="48.07761" lon="6.94646">
        <ele>744.7</ele>
        <time>2022-05-28T08:37:47Z</time>
      </trkpt>
      <trkpt lat="48.0777" lon="6.94656">
        <ele>745</ele>
        <time>2022-05-28T08:37:50Z</time>
      </trkpt>
      <trkpt lat="48.07779" lon="6.94666">
        <ele>745</ele>
        <time>2022-05-28T08:37:53Z</time>
      </trkpt>
      <trkpt lat="48.07788" lon="6.94676">
        <ele>744</ele>
        <time>2022-05-28T08:37:56Z</time>
      </trkpt>
      <trkpt lat="48.07796" lon="6.94686">
        <ele>744.4</ele>
        <time>2022-05-28T08:37:59Z</time>
      </trkpt>
      <trkpt lat="48.07806" lon="6.94693">
        <ele>744.5</ele>
        <time>2022-05-28T08:38:03Z</time>
      </trkpt>
      <trkpt lat="48.07817" lon="6.94699">
        <ele>743.9</ele>
        <time>2022-05-28T08:38:07Z</time>
      </trkpt>
      <trkpt lat="48.07826" lon="6.94701">
        <ele>745.3</ele>
        <time>2022-05-28T08:38:12Z</time>
      </trkpt>
      <trkpt lat="48.07836" lon="6.94699">
        <ele>745</ele>
        <time>2022-05-28T08:38:19Z</time>
      </trkpt>
      <trkpt lat="48.07836" lon="6.94693">
        <ele>745.1</ele>
        <time>2022-05-28T08:38:26Z</time>
      </trkpt>
      <trkpt lat="48.07835" lon="6.94693">
        <ele>745.5</ele>
        <time>2022-05-28T08:39:34Z</time>
      </trkpt>
      <trkpt lat="48.07835" lon="6.94693">
        <ele>745.4</ele>
        <time>2022-05-28T08:41:49Z</time>
      </trkpt>
      <trkpt lat="48.07835" lon="6.94694">
        <ele>745.9</ele>
        <time>2022-05-28T08:41:55Z</time>
      </trkpt>
      <trkpt lat="48.07836" lon="6.94693">
        <ele>744.4</ele>
        <time>2022-05-28T08:42:53Z</time>
      </trkpt>
      <trkpt lat="48.07836" lon="6.94693">
        <ele>745</ele>
        <time>2022-05-28T08:43:18Z</time>
      </trkpt>
      <trkpt lat="48.07843" lon="6.94683">
        <ele>744</ele>
        <time>2022-05-28T08:43:43Z</time>
      </trkpt>
      <trkpt lat="48.07854" lon="6.94679">
        <ele>743.1</ele>
        <time>2022-05-28T08:43:47Z</time>
      </trkpt>
      <trkpt lat="48.07866" lon="6.94675">
        <ele>743.5</ele>
        <time>2022-05-28T08:43:51Z</time>
      </trkpt>
      <trkpt lat="48.07876" lon="6.94673">
        <ele>743.7</ele>
        <time>2022-05-28T08:43:54Z</time>
      </trkpt>
      <trkpt lat="48.07885" lon="6.94669">
        <ele>743.9</ele>
        <time>2022-05-28T08:43:57Z</time>
      </trkpt>
      <trkpt lat="48.0788" lon="6.94655">
        <ele>745.8</ele>
        <time>2022-05-28T08:44:03Z</time>
      </trkpt>
      <trkpt lat="48.07878" lon="6.94641">
        <ele>747</ele>
        <time>2022-05-28T08:44:08Z</time>
      </trkpt>
      <trkpt lat="48.0788" lon="6.94626">
        <ele>747.4</ele>
        <time>2022-05-28T08:44:12Z</time>
      </trkpt>
      <trkpt lat="48.0788" lon="6.94611">
        <ele>747.3</ele>
        <time>2022-05-28T08:44:16Z</time>
      </trkpt>
      <trkpt lat="48.07879" lon="6.94597">
        <ele>747.1</ele>
        <time>2022-05-28T08:44:20Z</time>
      </trkpt>
      <trkpt lat="48.07876" lon="6.94579">
        <ele>746.9</ele>
        <time>2022-05-28T08:44:24Z</time>
      </trkpt>
      <trkpt lat="48.07872" lon="6.94566">
        <ele>747.2</ele>
        <time>2022-05-28T08:44:27Z</time>
      </trkpt>
      <trkpt lat="48.07867" lon="6.94554">
        <ele>747.4</ele>
        <time>2022-05-28T08:44:30Z</time>
      </trkpt>
      <trkpt lat="48.07863" lon="6.94542">
        <ele>746.7</ele>
        <time>2022-05-28T08:44:33Z</time>
      </trkpt>
      <trkpt lat="48.07857" lon="6.94528">
        <ele>746.1</ele>
        <time>2022-05-28T08:44:37Z</time>
      </trkpt>
      <trkpt lat="48.07852" lon="6.94517">
        <ele>746.7</ele>
        <time>2022-05-28T08:44:40Z</time>
      </trkpt>
      <trkpt lat="48.07847" lon="6.94504">
        <ele>746.9</ele>
        <time>2022-05-28T08:44:43Z</time>
      </trkpt>
      <trkpt lat="48.07842" lon="6.9449">
        <ele>746.9</ele>
        <time>2022-05-28T08:44:46Z</time>
      </trkpt>
      <trkpt lat="48.07836" lon="6.94477">
        <ele>747.1</ele>
        <time>2022-05-28T08:44:49Z</time>
      </trkpt>
      <trkpt lat="48.0783" lon="6.94462">
        <ele>746.7</ele>
        <time>2022-05-28T08:44:52Z</time>
      </trkpt>
      <trkpt lat="48.07825" lon="6.94447">
        <ele>746.8</ele>
        <time>2022-05-28T08:44:55Z</time>
      </trkpt>
      <trkpt lat="48.07821" lon="6.9443">
        <ele>747.8</ele>
        <time>2022-05-28T08:44:58Z</time>
      </trkpt>
      <trkpt lat="48.07818" lon="6.94412">
        <ele>747.1</ele>
        <time>2022-05-28T08:45:01Z</time>
      </trkpt>
      <trkpt lat="48.07816" lon="6.94394">
        <ele>746.5</ele>
        <time>2022-05-28T08:45:04Z</time>
      </trkpt>
      <trkpt lat="48.07814" lon="6.94375">
        <ele>745.9</ele>
        <time>2022-05-28T08:45:07Z</time>
      </trkpt>
      <trkpt lat="48.07814" lon="6.94357">
        <ele>746.2</ele>
        <time>2022-05-28T08:45:10Z</time>
      </trkpt>
      <trkpt lat="48.07814" lon="6.94339">
        <ele>746.2</ele>
        <time>2022-05-28T08:45:13Z</time>
      </trkpt>
      <trkpt lat="48.07814" lon="6.94323">
        <ele>746.5</ele>
        <time>2022-05-28T08:45:16Z</time>
      </trkpt>
      <trkpt lat="48.07814" lon="6.94307">
        <ele>745.9</ele>
        <time>2022-05-28T08:45:19Z</time>
      </trkpt>
      <trkpt lat="48.07815" lon="6.9429">
        <ele>746.4</ele>
        <time>2022-05-28T08:45:22Z</time>
      </trkpt>
      <trkpt lat="48.0782" lon="6.94277">
        <ele>745.8</ele>
        <time>2022-05-28T08:45:26Z</time>
      </trkpt>
      <trkpt lat="48.07824" lon="6.94261">
        <ele>745.1</ele>
        <time>2022-05-28T08:45:31Z</time>
      </trkpt>
      <trkpt lat="48.07823" lon="6.94245">
        <ele>745</ele>
        <time>2022-05-28T08:45:35Z</time>
      </trkpt>
      <trkpt lat="48.0782" lon="6.94232">
        <ele>744.7</ele>
        <time>2022-05-28T08:45:38Z</time>
      </trkpt>
      <trkpt lat="48.07817" lon="6.94216">
        <ele>744.2</ele>
        <time>2022-05-28T08:45:41Z</time>
      </trkpt>
      <trkpt lat="48.07813" lon="6.942">
        <ele>744.3</ele>
        <time>2022-05-28T08:45:44Z</time>
      </trkpt>
      <trkpt lat="48.07809" lon="6.94183">
        <ele>744.9</ele>
        <time>2022-05-28T08:45:47Z</time>
      </trkpt>
      <trkpt lat="48.07805" lon="6.94166">
        <ele>744.9</ele>
        <time>2022-05-28T08:45:50Z</time>
      </trkpt>
      <trkpt lat="48.078" lon="6.9415">
        <ele>745.1</ele>
        <time>2022-05-28T08:45:53Z</time>
      </trkpt>
      <trkpt lat="48.07796" lon="6.94133">
        <ele>744.5</ele>
        <time>2022-05-28T08:45:56Z</time>
      </trkpt>
      <trkpt lat="48.07793" lon="6.94117">
        <ele>744.9</ele>
        <time>2022-05-28T08:45:59Z</time>
      </trkpt>
      <trkpt lat="48.07792" lon="6.94102">
        <ele>745.8</ele>
        <time>2022-05-28T08:46:03Z</time>
      </trkpt>
      <trkpt lat="48.07791" lon="6.94101">
        <ele>746.5</ele>
        <time>2022-05-28T08:46:05Z</time>
      </trkpt>
      <trkpt lat="48.07791" lon="6.941">
        <ele>746.8</ele>
        <time>2022-05-28T08:46:27Z</time>
      </trkpt>
      <trkpt lat="48.07792" lon="6.94099">
        <ele>746.4</ele>
        <time>2022-05-28T08:46:30Z</time>
      </trkpt>
      <trkpt lat="48.07799" lon="6.94087">
        <ele>745.5</ele>
        <time>2022-05-28T08:46:35Z</time>
      </trkpt>
      <trkpt lat="48.07807" lon="6.94078">
        <ele>745.6</ele>
        <time>2022-05-28T08:46:39Z</time>
      </trkpt>
      <trkpt lat="48.07815" lon="6.94068">
        <ele>745.5</ele>
        <time>2022-05-28T08:46:43Z</time>
      </trkpt>
      <trkpt lat="48.07818" lon="6.94054">
        <ele>744.7</ele>
        <time>2022-05-28T08:46:46Z</time>
      </trkpt>
      <trkpt lat="48.07814" lon="6.94039">
        <ele>747.5</ele>
        <time>2022-05-28T08:46:49Z</time>
      </trkpt>
      <trkpt lat="48.07808" lon="6.94027">
        <ele>749</ele>
        <time>2022-05-28T08:46:53Z</time>
      </trkpt>
      <trkpt lat="48.0781" lon="6.94013">
        <ele>750.5</ele>
        <time>2022-05-28T08:46:58Z</time>
      </trkpt>
      <trkpt lat="48.07815" lon="6.94">
        <ele>750.9</ele>
        <time>2022-05-28T08:47:03Z</time>
      </trkpt>
      <trkpt lat="48.07821" lon="6.93988">
        <ele>752.3</ele>
        <time>2022-05-28T08:47:08Z</time>
      </trkpt>
      <trkpt lat="48.07827" lon="6.93976">
        <ele>752.3</ele>
        <time>2022-05-28T08:47:13Z</time>
      </trkpt>
      <trkpt lat="48.07832" lon="6.93965">
        <ele>753.7</ele>
        <time>2022-05-28T08:47:18Z</time>
      </trkpt>
      <trkpt lat="48.07837" lon="6.93954">
        <ele>754.7</ele>
        <time>2022-05-28T08:47:23Z</time>
      </trkpt>
      <trkpt lat="48.07844" lon="6.93944">
        <ele>755.1</ele>
        <time>2022-05-28T08:47:28Z</time>
      </trkpt>
      <trkpt lat="48.0785" lon="6.93931">
        <ele>756.2</ele>
        <time>2022-05-28T08:47:35Z</time>
      </trkpt>
      <trkpt lat="48.07856" lon="6.9392">
        <ele>757.1</ele>
        <time>2022-05-28T08:47:43Z</time>
      </trkpt>
      <trkpt lat="48.0786" lon="6.93908">
        <ele>758.9</ele>
        <time>2022-05-28T08:47:51Z</time>
      </trkpt>
      <trkpt lat="48.07866" lon="6.93896">
        <ele>759.2</ele>
        <time>2022-05-28T08:47:56Z</time>
      </trkpt>
      <trkpt lat="48.0787" lon="6.93883">
        <ele>759.8</ele>
        <time>2022-05-28T08:48:01Z</time>
      </trkpt>
      <trkpt lat="48.07873" lon="6.9387">
        <ele>761</ele>
        <time>2022-05-28T08:48:06Z</time>
      </trkpt>
      <trkpt lat="48.07876" lon="6.93854">
        <ele>762</ele>
        <time>2022-05-28T08:48:11Z</time>
      </trkpt>
      <trkpt lat="48.07876" lon="6.93839">
        <ele>762.6</ele>
        <time>2022-05-28T08:48:16Z</time>
      </trkpt>
      <trkpt lat="48.07876" lon="6.93824">
        <ele>763.6</ele>
        <time>2022-05-28T08:48:21Z</time>
      </trkpt>
      <trkpt lat="48.07875" lon="6.9381">
        <ele>764.3</ele>
        <time>2022-05-28T08:48:26Z</time>
      </trkpt>
      <trkpt lat="48.07878" lon="6.93796">
        <ele>765.1</ele>
        <time>2022-05-28T08:48:31Z</time>
      </trkpt>
      <trkpt lat="48.07881" lon="6.93784">
        <ele>766.2</ele>
        <time>2022-05-28T08:48:36Z</time>
      </trkpt>
      <trkpt lat="48.07886" lon="6.9377">
        <ele>767.7</ele>
        <time>2022-05-28T08:48:42Z</time>
      </trkpt>
      <trkpt lat="48.07889" lon="6.93754">
        <ele>768.8</ele>
        <time>2022-05-28T08:48:47Z</time>
      </trkpt>
      <trkpt lat="48.07891" lon="6.93739">
        <ele>769.2</ele>
        <time>2022-05-28T08:48:52Z</time>
      </trkpt>
      <trkpt lat="48.07892" lon="6.93724">
        <ele>770.5</ele>
        <time>2022-05-28T08:48:57Z</time>
      </trkpt>
      <trkpt lat="48.07893" lon="6.9371">
        <ele>771.9</ele>
        <time>2022-05-28T08:49:02Z</time>
      </trkpt>
      <trkpt lat="48.07893" lon="6.93696">
        <ele>772</ele>
        <time>2022-05-28T08:49:07Z</time>
      </trkpt>
      <trkpt lat="48.07893" lon="6.93681">
        <ele>773.4</ele>
        <time>2022-05-28T08:49:12Z</time>
      </trkpt>
      <trkpt lat="48.07896" lon="6.93667">
        <ele>774.1</ele>
        <time>2022-05-28T08:49:17Z</time>
      </trkpt>
      <trkpt lat="48.07899" lon="6.93654">
        <ele>774.9</ele>
        <time>2022-05-28T08:49:22Z</time>
      </trkpt>
      <trkpt lat="48.07903" lon="6.93639">
        <ele>775.6</ele>
        <time>2022-05-28T08:49:27Z</time>
      </trkpt>
      <trkpt lat="48.07905" lon="6.93624">
        <ele>776.7</ele>
        <time>2022-05-28T08:49:32Z</time>
      </trkpt>
      <trkpt lat="48.07905" lon="6.9361">
        <ele>778</ele>
        <time>2022-05-28T08:49:37Z</time>
      </trkpt>
      <trkpt lat="48.07905" lon="6.93596">
        <ele>778.6</ele>
        <time>2022-05-28T08:49:42Z</time>
      </trkpt>
      <trkpt lat="48.07904" lon="6.93581">
        <ele>779.5</ele>
        <time>2022-05-28T08:49:47Z</time>
      </trkpt>
      <trkpt lat="48.07906" lon="6.93565">
        <ele>780.5</ele>
        <time>2022-05-28T08:49:52Z</time>
      </trkpt>
      <trkpt lat="48.07905" lon="6.93552">
        <ele>781</ele>
        <time>2022-05-28T08:49:57Z</time>
      </trkpt>
      <trkpt lat="48.07906" lon="6.93537">
        <ele>781.7</ele>
        <time>2022-05-28T08:50:02Z</time>
      </trkpt>
      <trkpt lat="48.07909" lon="6.93524">
        <ele>782.8</ele>
        <time>2022-05-28T08:50:07Z</time>
      </trkpt>
      <trkpt lat="48.07912" lon="6.93509">
        <ele>783.9</ele>
        <time>2022-05-28T08:50:12Z</time>
      </trkpt>
      <trkpt lat="48.07915" lon="6.93497">
        <ele>785.2</ele>
        <time>2022-05-28T08:50:17Z</time>
      </trkpt>
      <trkpt lat="48.0792" lon="6.93484">
        <ele>785.4</ele>
        <time>2022-05-28T08:50:22Z</time>
      </trkpt>
      <trkpt lat="48.07924" lon="6.93471">
        <ele>786.5</ele>
        <time>2022-05-28T08:50:27Z</time>
      </trkpt>
      <trkpt lat="48.07929" lon="6.93457">
        <ele>788.2</ele>
        <time>2022-05-28T08:50:32Z</time>
      </trkpt>
      <trkpt lat="48.07933" lon="6.93444">
        <ele>788.4</ele>
        <time>2022-05-28T08:50:37Z</time>
      </trkpt>
      <trkpt lat="48.07938" lon="6.93432">
        <ele>789.3</ele>
        <time>2022-05-28T08:50:42Z</time>
      </trkpt>
      <trkpt lat="48.07942" lon="6.93419">
        <ele>790.3</ele>
        <time>2022-05-28T08:50:47Z</time>
      </trkpt>
      <trkpt lat="48.07945" lon="6.93405">
        <ele>790.9</ele>
        <time>2022-05-28T08:50:52Z</time>
      </trkpt>
      <trkpt lat="48.07949" lon="6.93391">
        <ele>792.2</ele>
        <time>2022-05-28T08:50:57Z</time>
      </trkpt>
      <trkpt lat="48.07952" lon="6.93376">
        <ele>793</ele>
        <time>2022-05-28T08:51:02Z</time>
      </trkpt>
      <trkpt lat="48.07953" lon="6.93361">
        <ele>794.1</ele>
        <time>2022-05-28T08:51:08Z</time>
      </trkpt>
      <trkpt lat="48.07954" lon="6.93345">
        <ele>795.3</ele>
        <time>2022-05-28T08:51:13Z</time>
      </trkpt>
      <trkpt lat="48.07953" lon="6.93331">
        <ele>795.7</ele>
        <time>2022-05-28T08:51:17Z</time>
      </trkpt>
      <trkpt lat="48.07951" lon="6.93315">
        <ele>797.1</ele>
        <time>2022-05-28T08:51:22Z</time>
      </trkpt>
      <trkpt lat="48.07949" lon="6.93302">
        <ele>797.6</ele>
        <time>2022-05-28T08:51:27Z</time>
      </trkpt>
      <trkpt lat="48.07947" lon="6.93287">
        <ele>798.7</ele>
        <time>2022-05-28T08:51:32Z</time>
      </trkpt>
      <trkpt lat="48.07942" lon="6.93275">
        <ele>798.9</ele>
        <time>2022-05-28T08:51:37Z</time>
      </trkpt>
      <trkpt lat="48.07935" lon="6.93266">
        <ele>800.5</ele>
        <time>2022-05-28T08:51:42Z</time>
      </trkpt>
      <trkpt lat="48.07927" lon="6.93257">
        <ele>800.4</ele>
        <time>2022-05-28T08:51:48Z</time>
      </trkpt>
      <trkpt lat="48.07919" lon="6.93252">
        <ele>802.3</ele>
        <time>2022-05-28T08:51:52Z</time>
      </trkpt>
      <trkpt lat="48.0791" lon="6.93246">
        <ele>803.1</ele>
        <time>2022-05-28T08:51:57Z</time>
      </trkpt>
      <trkpt lat="48.07901" lon="6.93243">
        <ele>803.8</ele>
        <time>2022-05-28T08:52:02Z</time>
      </trkpt>
      <trkpt lat="48.07892" lon="6.93237">
        <ele>804.9</ele>
        <time>2022-05-28T08:52:06Z</time>
      </trkpt>
      <trkpt lat="48.07884" lon="6.9323">
        <ele>805.6</ele>
        <time>2022-05-28T08:52:11Z</time>
      </trkpt>
      <trkpt lat="48.07874" lon="6.93223">
        <ele>806.6</ele>
        <time>2022-05-28T08:52:16Z</time>
      </trkpt>
      <trkpt lat="48.07866" lon="6.93215">
        <ele>807.2</ele>
        <time>2022-05-28T08:52:21Z</time>
      </trkpt>
      <trkpt lat="48.07857" lon="6.93209">
        <ele>808.4</ele>
        <time>2022-05-28T08:52:26Z</time>
      </trkpt>
      <trkpt lat="48.07847" lon="6.93204">
        <ele>808.9</ele>
        <time>2022-05-28T08:52:31Z</time>
      </trkpt>
      <trkpt lat="48.07836" lon="6.93201">
        <ele>810.1</ele>
        <time>2022-05-28T08:52:36Z</time>
      </trkpt>
      <trkpt lat="48.07825" lon="6.93202">
        <ele>811</ele>
        <time>2022-05-28T08:52:41Z</time>
      </trkpt>
      <trkpt lat="48.07814" lon="6.93202">
        <ele>811.9</ele>
        <time>2022-05-28T08:52:46Z</time>
      </trkpt>
      <trkpt lat="48.07804" lon="6.93204">
        <ele>813</ele>
        <time>2022-05-28T08:52:51Z</time>
      </trkpt>
      <trkpt lat="48.07794" lon="6.93207">
        <ele>813.3</ele>
        <time>2022-05-28T08:52:56Z</time>
      </trkpt>
      <trkpt lat="48.07784" lon="6.93211">
        <ele>814.6</ele>
        <time>2022-05-28T08:53:01Z</time>
      </trkpt>
      <trkpt lat="48.07773" lon="6.93215">
        <ele>815.3</ele>
        <time>2022-05-28T08:53:06Z</time>
      </trkpt>
      <trkpt lat="48.07764" lon="6.9322">
        <ele>816.4</ele>
        <time>2022-05-28T08:53:11Z</time>
      </trkpt>
      <trkpt lat="48.07755" lon="6.93227">
        <ele>816.9</ele>
        <time>2022-05-28T08:53:16Z</time>
      </trkpt>
      <trkpt lat="48.07746" lon="6.93237">
        <ele>817.7</ele>
        <time>2022-05-28T08:53:21Z</time>
      </trkpt>
      <trkpt lat="48.07737" lon="6.93245">
        <ele>819.5</ele>
        <time>2022-05-28T08:53:26Z</time>
      </trkpt>
      <trkpt lat="48.07729" lon="6.93252">
        <ele>819.6</ele>
        <time>2022-05-28T08:53:30Z</time>
      </trkpt>
      <trkpt lat="48.07722" lon="6.93262">
        <ele>821.2</ele>
        <time>2022-05-28T08:53:35Z</time>
      </trkpt>
      <trkpt lat="48.07714" lon="6.9327">
        <ele>821.5</ele>
        <time>2022-05-28T08:53:39Z</time>
      </trkpt>
      <trkpt lat="48.07707" lon="6.93278">
        <ele>822.4</ele>
        <time>2022-05-28T08:53:43Z</time>
      </trkpt>
      <trkpt lat="48.07698" lon="6.93284">
        <ele>822.3</ele>
        <time>2022-05-28T08:53:47Z</time>
      </trkpt>
      <trkpt lat="48.0769" lon="6.93292">
        <ele>823.6</ele>
        <time>2022-05-28T08:53:51Z</time>
      </trkpt>
      <trkpt lat="48.07681" lon="6.93298">
        <ele>824.7</ele>
        <time>2022-05-28T08:53:55Z</time>
      </trkpt>
      <trkpt lat="48.07672" lon="6.93308">
        <ele>825.2</ele>
        <time>2022-05-28T08:54:00Z</time>
      </trkpt>
      <trkpt lat="48.07665" lon="6.93317">
        <ele>826</ele>
        <time>2022-05-28T08:54:04Z</time>
      </trkpt>
      <trkpt lat="48.07657" lon="6.93326">
        <ele>826.5</ele>
        <time>2022-05-28T08:54:08Z</time>
      </trkpt>
      <trkpt lat="48.07649" lon="6.93334">
        <ele>827.4</ele>
        <time>2022-05-28T08:54:12Z</time>
      </trkpt>
      <trkpt lat="48.07641" lon="6.9334">
        <ele>828.2</ele>
        <time>2022-05-28T08:54:16Z</time>
      </trkpt>
      <trkpt lat="48.07632" lon="6.9335">
        <ele>829</ele>
        <time>2022-05-28T08:54:21Z</time>
      </trkpt>
      <trkpt lat="48.07624" lon="6.93359">
        <ele>829.8</ele>
        <time>2022-05-28T08:54:26Z</time>
      </trkpt>
      <trkpt lat="48.07617" lon="6.93369">
        <ele>830.8</ele>
        <time>2022-05-28T08:54:31Z</time>
      </trkpt>
      <trkpt lat="48.07611" lon="6.9338">
        <ele>831.3</ele>
        <time>2022-05-28T08:54:36Z</time>
      </trkpt>
      <trkpt lat="48.07604" lon="6.93391">
        <ele>832.3</ele>
        <time>2022-05-28T08:54:42Z</time>
      </trkpt>
      <trkpt lat="48.07598" lon="6.93401">
        <ele>832.6</ele>
        <time>2022-05-28T08:54:48Z</time>
      </trkpt>
      <trkpt lat="48.07595" lon="6.93416">
        <ele>833.7</ele>
        <time>2022-05-28T08:54:54Z</time>
      </trkpt>
      <trkpt lat="48.0759" lon="6.93428">
        <ele>836.3</ele>
        <time>2022-05-28T08:54:59Z</time>
      </trkpt>
      <trkpt lat="48.07591" lon="6.93442">
        <ele>837.9</ele>
        <time>2022-05-28T08:55:06Z</time>
      </trkpt>
      <trkpt lat="48.07595" lon="6.93455">
        <ele>840.3</ele>
        <time>2022-05-28T08:55:15Z</time>
      </trkpt>
      <trkpt lat="48.07602" lon="6.93467">
        <ele>843.2</ele>
        <time>2022-05-28T08:55:25Z</time>
      </trkpt>
      <trkpt lat="48.07608" lon="6.93477">
        <ele>845.9</ele>
        <time>2022-05-28T08:55:33Z</time>
      </trkpt>
      <trkpt lat="48.07611" lon="6.9349">
        <ele>847.4</ele>
        <time>2022-05-28T08:55:42Z</time>
      </trkpt>
      <trkpt lat="48.07618" lon="6.93498">
        <ele>849.4</ele>
        <time>2022-05-28T08:55:51Z</time>
      </trkpt>
      <trkpt lat="48.07626" lon="6.93506">
        <ele>850.1</ele>
        <time>2022-05-28T08:55:59Z</time>
      </trkpt>
      <trkpt lat="48.07634" lon="6.93514">
        <ele>851.9</ele>
        <time>2022-05-28T08:56:08Z</time>
      </trkpt>
      <trkpt lat="48.07641" lon="6.93525">
        <ele>853.4</ele>
        <time>2022-05-28T08:56:20Z</time>
      </trkpt>
      <trkpt lat="48.07645" lon="6.93537">
        <ele>855.9</ele>
        <time>2022-05-28T08:56:31Z</time>
      </trkpt>
      <trkpt lat="48.07648" lon="6.93551">
        <ele>858</ele>
        <time>2022-05-28T08:56:46Z</time>
      </trkpt>
      <trkpt lat="48.07649" lon="6.9356">
        <ele>859.6</ele>
        <time>2022-05-28T08:56:53Z</time>
      </trkpt>
      <trkpt lat="48.07649" lon="6.93561">
        <ele>860</ele>
        <time>2022-05-28T08:56:59Z</time>
      </trkpt>
      <trkpt lat="48.0765" lon="6.93576">
        <ele>862.9</ele>
        <time>2022-05-28T08:57:10Z</time>
      </trkpt>
      <trkpt lat="48.0765" lon="6.93592">
        <ele>864.4</ele>
        <time>2022-05-28T08:57:18Z</time>
      </trkpt>
      <trkpt lat="48.07649" lon="6.93606">
        <ele>865.7</ele>
        <time>2022-05-28T08:57:25Z</time>
      </trkpt>
      <trkpt lat="48.07645" lon="6.9362">
        <ele>867.2</ele>
        <time>2022-05-28T08:57:32Z</time>
      </trkpt>
      <trkpt lat="48.07644" lon="6.93634">
        <ele>868.3</ele>
        <time>2022-05-28T08:57:37Z</time>
      </trkpt>
      <trkpt lat="48.07642" lon="6.93647">
        <ele>868.9</ele>
        <time>2022-05-28T08:57:45Z</time>
      </trkpt>
      <trkpt lat="48.07634" lon="6.93655">
        <ele>870.3</ele>
        <time>2022-05-28T08:57:56Z</time>
      </trkpt>
      <trkpt lat="48.07625" lon="6.93662">
        <ele>871.4</ele>
        <time>2022-05-28T08:58:03Z</time>
      </trkpt>
      <trkpt lat="48.07616" lon="6.93668">
        <ele>873.2</ele>
        <time>2022-05-28T08:58:11Z</time>
      </trkpt>
      <trkpt lat="48.07607" lon="6.93675">
        <ele>874.1</ele>
        <time>2022-05-28T08:58:20Z</time>
      </trkpt>
      <trkpt lat="48.07598" lon="6.93678">
        <ele>875.3</ele>
        <time>2022-05-28T08:58:27Z</time>
      </trkpt>
      <trkpt lat="48.07588" lon="6.93686">
        <ele>877.3</ele>
        <time>2022-05-28T08:58:34Z</time>
      </trkpt>
      <trkpt lat="48.07578" lon="6.93693">
        <ele>878.1</ele>
        <time>2022-05-28T08:58:39Z</time>
      </trkpt>
      <trkpt lat="48.07568" lon="6.93697">
        <ele>879.4</ele>
        <time>2022-05-28T08:58:45Z</time>
      </trkpt>
      <trkpt lat="48.07558" lon="6.93701">
        <ele>880.4</ele>
        <time>2022-05-28T08:58:51Z</time>
      </trkpt>
      <trkpt lat="48.07547" lon="6.93701">
        <ele>881.2</ele>
        <time>2022-05-28T08:58:57Z</time>
      </trkpt>
      <trkpt lat="48.07536" lon="6.93701">
        <ele>880.9</ele>
        <time>2022-05-28T08:59:02Z</time>
      </trkpt>
      <trkpt lat="48.07527" lon="6.93701">
        <ele>881.9</ele>
        <time>2022-05-28T08:59:06Z</time>
      </trkpt>
      <trkpt lat="48.07517" lon="6.93697">
        <ele>882.1</ele>
        <time>2022-05-28T08:59:10Z</time>
      </trkpt>
      <trkpt lat="48.07506" lon="6.93697">
        <ele>883</ele>
        <time>2022-05-28T08:59:14Z</time>
      </trkpt>
      <trkpt lat="48.07496" lon="6.93696">
        <ele>883.8</ele>
        <time>2022-05-28T08:59:18Z</time>
      </trkpt>
      <trkpt lat="48.07486" lon="6.93692">
        <ele>886.2</ele>
        <time>2022-05-28T08:59:23Z</time>
      </trkpt>
      <trkpt lat="48.07476" lon="6.93689">
        <ele>887.6</ele>
        <time>2022-05-28T08:59:28Z</time>
      </trkpt>
      <trkpt lat="48.07467" lon="6.93688">
        <ele>886.3</ele>
        <time>2022-05-28T08:59:32Z</time>
      </trkpt>
      <trkpt lat="48.07456" lon="6.93687">
        <ele>887</ele>
        <time>2022-05-28T08:59:35Z</time>
      </trkpt>
      <trkpt lat="48.07444" lon="6.93683">
        <ele>886.5</ele>
        <time>2022-05-28T08:59:38Z</time>
      </trkpt>
      <trkpt lat="48.07433" lon="6.9368">
        <ele>886.9</ele>
        <time>2022-05-28T08:59:41Z</time>
      </trkpt>
      <trkpt lat="48.07423" lon="6.93677">
        <ele>887.7</ele>
        <time>2022-05-28T08:59:44Z</time>
      </trkpt>
      <trkpt lat="48.07413" lon="6.93674">
        <ele>888.2</ele>
        <time>2022-05-28T08:59:48Z</time>
      </trkpt>
      <trkpt lat="48.07403" lon="6.93669">
        <ele>887.6</ele>
        <time>2022-05-28T08:59:52Z</time>
      </trkpt>
      <trkpt lat="48.07395" lon="6.93661">
        <ele>889.9</ele>
        <time>2022-05-28T08:59:56Z</time>
      </trkpt>
      <trkpt lat="48.07385" lon="6.93657">
        <ele>889.6</ele>
        <time>2022-05-28T09:00:00Z</time>
      </trkpt>
      <trkpt lat="48.07375" lon="6.93657">
        <ele>891.8</ele>
        <time>2022-05-28T09:00:04Z</time>
      </trkpt>
      <trkpt lat="48.07367" lon="6.93653">
        <ele>893.5</ele>
        <time>2022-05-28T09:00:09Z</time>
      </trkpt>
      <trkpt lat="48.07357" lon="6.93652">
        <ele>894.3</ele>
        <time>2022-05-28T09:00:17Z</time>
      </trkpt>
      <trkpt lat="48.07347" lon="6.9365">
        <ele>895</ele>
        <time>2022-05-28T09:00:22Z</time>
      </trkpt>
      <trkpt lat="48.07337" lon="6.93646">
        <ele>897.2</ele>
        <time>2022-05-28T09:00:28Z</time>
      </trkpt>
      <trkpt lat="48.07327" lon="6.93642">
        <ele>897.3</ele>
        <time>2022-05-28T09:00:33Z</time>
      </trkpt>
      <trkpt lat="48.07316" lon="6.93644">
        <ele>898.9</ele>
        <time>2022-05-28T09:00:39Z</time>
      </trkpt>
      <trkpt lat="48.07306" lon="6.93642">
        <ele>899.8</ele>
        <time>2022-05-28T09:00:45Z</time>
      </trkpt>
      <trkpt lat="48.07295" lon="6.93639">
        <ele>899.8</ele>
        <time>2022-05-28T09:00:49Z</time>
      </trkpt>
      <trkpt lat="48.07285" lon="6.93638">
        <ele>899.4</ele>
        <time>2022-05-28T09:00:53Z</time>
      </trkpt>
      <trkpt lat="48.07275" lon="6.93637">
        <ele>900.4</ele>
        <time>2022-05-28T09:00:56Z</time>
      </trkpt>
      <trkpt lat="48.07265" lon="6.93635">
        <ele>901.4</ele>
        <time>2022-05-28T09:00:59Z</time>
      </trkpt>
      <trkpt lat="48.07254" lon="6.93635">
        <ele>900.7</ele>
        <time>2022-05-28T09:01:03Z</time>
      </trkpt>
      <trkpt lat="48.07245" lon="6.93633">
        <ele>901.6</ele>
        <time>2022-05-28T09:01:07Z</time>
      </trkpt>
      <trkpt lat="48.07236" lon="6.93632">
        <ele>901.9</ele>
        <time>2022-05-28T09:01:11Z</time>
      </trkpt>
      <trkpt lat="48.07226" lon="6.93628">
        <ele>903.9</ele>
        <time>2022-05-28T09:01:16Z</time>
      </trkpt>
      <trkpt lat="48.07216" lon="6.93628">
        <ele>904</ele>
        <time>2022-05-28T09:01:20Z</time>
      </trkpt>
      <trkpt lat="48.07207" lon="6.93629">
        <ele>905.2</ele>
        <time>2022-05-28T09:01:25Z</time>
      </trkpt>
      <trkpt lat="48.07197" lon="6.93626">
        <ele>906.8</ele>
        <time>2022-05-28T09:01:32Z</time>
      </trkpt>
      <trkpt lat="48.07188" lon="6.93629">
        <ele>908.5</ele>
        <time>2022-05-28T09:01:39Z</time>
      </trkpt>
      <trkpt lat="48.07178" lon="6.93629">
        <ele>909.8</ele>
        <time>2022-05-28T09:01:47Z</time>
      </trkpt>
      <trkpt lat="48.07169" lon="6.93629">
        <ele>912.1</ele>
        <time>2022-05-28T09:01:55Z</time>
      </trkpt>
      <trkpt lat="48.0716" lon="6.93628">
        <ele>913</ele>
        <time>2022-05-28T09:02:02Z</time>
      </trkpt>
      <trkpt lat="48.07151" lon="6.93625">
        <ele>914.4</ele>
        <time>2022-05-28T09:02:10Z</time>
      </trkpt>
      <trkpt lat="48.07141" lon="6.93623">
        <ele>916.1</ele>
        <time>2022-05-28T09:02:16Z</time>
      </trkpt>
      <trkpt lat="48.07131" lon="6.9362">
        <ele>917.9</ele>
        <time>2022-05-28T09:02:24Z</time>
      </trkpt>
      <trkpt lat="48.07122" lon="6.93615">
        <ele>919</ele>
        <time>2022-05-28T09:02:32Z</time>
      </trkpt>
      <trkpt lat="48.07114" lon="6.93606">
        <ele>920.4</ele>
        <time>2022-05-28T09:02:40Z</time>
      </trkpt>
      <trkpt lat="48.07104" lon="6.93606">
        <ele>921.3</ele>
        <time>2022-05-28T09:02:48Z</time>
      </trkpt>
      <trkpt lat="48.07094" lon="6.93602">
        <ele>922.8</ele>
        <time>2022-05-28T09:02:57Z</time>
      </trkpt>
      <trkpt lat="48.07086" lon="6.93594">
        <ele>923.8</ele>
        <time>2022-05-28T09:03:05Z</time>
      </trkpt>
      <trkpt lat="48.07078" lon="6.93588">
        <ele>925.2</ele>
        <time>2022-05-28T09:03:19Z</time>
      </trkpt>
      <trkpt lat="48.07072" lon="6.93576">
        <ele>926.3</ele>
        <time>2022-05-28T09:03:28Z</time>
      </trkpt>
      <trkpt lat="48.07067" lon="6.93563">
        <ele>927.9</ele>
        <time>2022-05-28T09:03:35Z</time>
      </trkpt>
      <trkpt lat="48.07057" lon="6.93559">
        <ele>928.9</ele>
        <time>2022-05-28T09:03:42Z</time>
      </trkpt>
      <trkpt lat="48.07049" lon="6.93552">
        <ele>929.5</ele>
        <time>2022-05-28T09:03:48Z</time>
      </trkpt>
      <trkpt lat="48.0704" lon="6.93547">
        <ele>929.6</ele>
        <time>2022-05-28T09:03:52Z</time>
      </trkpt>
      <trkpt lat="48.07032" lon="6.93537">
        <ele>931</ele>
        <time>2022-05-28T09:03:57Z</time>
      </trkpt>
      <trkpt lat="48.07024" lon="6.93533">
        <ele>931.9</ele>
        <time>2022-05-28T09:04:01Z</time>
      </trkpt>
      <trkpt lat="48.07013" lon="6.93529">
        <ele>931.9</ele>
        <time>2022-05-28T09:04:07Z</time>
      </trkpt>
      <trkpt lat="48.07002" lon="6.93524">
        <ele>932.3</ele>
        <time>2022-05-28T09:04:12Z</time>
      </trkpt>
      <trkpt lat="48.06994" lon="6.93517">
        <ele>931.9</ele>
        <time>2022-05-28T09:04:17Z</time>
      </trkpt>
      <trkpt lat="48.06988" lon="6.93506">
        <ele>932.4</ele>
        <time>2022-05-28T09:04:23Z</time>
      </trkpt>
      <trkpt lat="48.06988" lon="6.93493">
        <ele>934.2</ele>
        <time>2022-05-28T09:04:31Z</time>
      </trkpt>
      <trkpt lat="48.06988" lon="6.93479">
        <ele>935.1</ele>
        <time>2022-05-28T09:04:37Z</time>
      </trkpt>
      <trkpt lat="48.06987" lon="6.93465">
        <ele>935.5</ele>
        <time>2022-05-28T09:04:44Z</time>
      </trkpt>
      <trkpt lat="48.06989" lon="6.93452">
        <ele>936</ele>
        <time>2022-05-28T09:04:51Z</time>
      </trkpt>
      <trkpt lat="48.06992" lon="6.93437">
        <ele>937</ele>
        <time>2022-05-28T09:04:57Z</time>
      </trkpt>
      <trkpt lat="48.0699" lon="6.93428">
        <ele>936.2</ele>
        <time>2022-05-28T09:05:05Z</time>
      </trkpt>
      <trkpt lat="48.0699" lon="6.93427">
        <ele>935.6</ele>
        <time>2022-05-28T09:05:43Z</time>
      </trkpt>
      <trkpt lat="48.06991" lon="6.93427">
        <ele>935.7</ele>
        <time>2022-05-28T09:06:14Z</time>
      </trkpt>
      <trkpt lat="48.06991" lon="6.93425">
        <ele>935.7</ele>
        <time>2022-05-28T09:06:28Z</time>
      </trkpt>
      <trkpt lat="48.06991" lon="6.93424">
        <ele>935.3</ele>
        <time>2022-05-28T09:06:36Z</time>
      </trkpt>
      <trkpt lat="48.0699" lon="6.93424">
        <ele>935.4</ele>
        <time>2022-05-28T09:06:37Z</time>
      </trkpt>
      <trkpt lat="48.06987" lon="6.93424">
        <ele>934.6</ele>
        <time>2022-05-28T09:06:41Z</time>
      </trkpt>
      <trkpt lat="48.06987" lon="6.93423">
        <ele>932.6</ele>
        <time>2022-05-28T09:08:02Z</time>
      </trkpt>
      <trkpt lat="48.06986" lon="6.93412">
        <ele>933.2</ele>
        <time>2022-05-28T09:08:14Z</time>
      </trkpt>
      <trkpt lat="48.06987" lon="6.93412">
        <ele>933.2</ele>
        <time>2022-05-28T09:08:15Z</time>
      </trkpt>
      <trkpt lat="48.06987" lon="6.93411">
        <ele>931.6</ele>
        <time>2022-05-28T09:09:54Z</time>
      </trkpt>
      <trkpt lat="48.06987" lon="6.9341">
        <ele>930.7</ele>
        <time>2022-05-28T09:10:44Z</time>
      </trkpt>
      <trkpt lat="48.06985" lon="6.93396">
        <ele>930.1</ele>
        <time>2022-05-28T09:10:58Z</time>
      </trkpt>
      <trkpt lat="48.06991" lon="6.93384">
        <ele>930</ele>
        <time>2022-05-28T09:11:06Z</time>
      </trkpt>
      <trkpt lat="48.06997" lon="6.93374">
        <ele>930.5</ele>
        <time>2022-05-28T09:11:11Z</time>
      </trkpt>
      <trkpt lat="48.07006" lon="6.93365">
        <ele>928.6</ele>
        <time>2022-05-28T09:11:16Z</time>
      </trkpt>
      <trkpt lat="48.07015" lon="6.93356">
        <ele>929.3</ele>
        <time>2022-05-28T09:11:21Z</time>
      </trkpt>
      <trkpt lat="48.07026" lon="6.9335">
        <ele>929.6</ele>
        <time>2022-05-28T09:11:25Z</time>
      </trkpt>
      <trkpt lat="48.07035" lon="6.9335">
        <ele>930.3</ele>
        <time>2022-05-28T09:11:29Z</time>
      </trkpt>
      <trkpt lat="48.07044" lon="6.93349">
        <ele>929.3</ele>
        <time>2022-05-28T09:11:32Z</time>
      </trkpt>
      <trkpt lat="48.07054" lon="6.93346">
        <ele>930.7</ele>
        <time>2022-05-28T09:11:36Z</time>
      </trkpt>
      <trkpt lat="48.07064" lon="6.93353">
        <ele>929.1</ele>
        <time>2022-05-28T09:11:40Z</time>
      </trkpt>
      <trkpt lat="48.07075" lon="6.93356">
        <ele>929.1</ele>
        <time>2022-05-28T09:11:44Z</time>
      </trkpt>
      <trkpt lat="48.07085" lon="6.93357">
        <ele>927</ele>
        <time>2022-05-28T09:11:47Z</time>
      </trkpt>
      <trkpt lat="48.07095" lon="6.9336">
        <ele>924.4</ele>
        <time>2022-05-28T09:11:50Z</time>
      </trkpt>
      <trkpt lat="48.07105" lon="6.93367">
        <ele>923.9</ele>
        <time>2022-05-28T09:11:53Z</time>
      </trkpt>
      <trkpt lat="48.07115" lon="6.93373">
        <ele>922.3</ele>
        <time>2022-05-28T09:11:56Z</time>
      </trkpt>
      <trkpt lat="48.07126" lon="6.93376">
        <ele>921.4</ele>
        <time>2022-05-28T09:11:58Z</time>
      </trkpt>
      <trkpt lat="48.07137" lon="6.93376">
        <ele>917.8</ele>
        <time>2022-05-28T09:12:00Z</time>
      </trkpt>
      <trkpt lat="48.0715" lon="6.93379">
        <ele>915.7</ele>
        <time>2022-05-28T09:12:02Z</time>
      </trkpt>
      <trkpt lat="48.07164" lon="6.93375">
        <ele>915.7</ele>
        <time>2022-05-28T09:12:04Z</time>
      </trkpt>
      <trkpt lat="48.07176" lon="6.93367">
        <ele>915.7</ele>
        <time>2022-05-28T09:12:06Z</time>
      </trkpt>
      <trkpt lat="48.07183" lon="6.93357">
        <ele>915.5</ele>
        <time>2022-05-28T09:12:08Z</time>
      </trkpt>
      <trkpt lat="48.07181" lon="6.93341">
        <ele>915.6</ele>
        <time>2022-05-28T09:12:12Z</time>
      </trkpt>
      <trkpt lat="48.07177" lon="6.93329">
        <ele>915.1</ele>
        <time>2022-05-28T09:12:15Z</time>
      </trkpt>
      <trkpt lat="48.07174" lon="6.93315">
        <ele>916.2</ele>
        <time>2022-05-28T09:12:18Z</time>
      </trkpt>
      <trkpt lat="48.0717" lon="6.93299">
        <ele>917.5</ele>
        <time>2022-05-28T09:12:22Z</time>
      </trkpt>
      <trkpt lat="48.07163" lon="6.9329">
        <ele>919.4</ele>
        <time>2022-05-28T09:12:26Z</time>
      </trkpt>
      <trkpt lat="48.07154" lon="6.93287">
        <ele>919</ele>
        <time>2022-05-28T09:12:34Z</time>
      </trkpt>
      <trkpt lat="48.07159" lon="6.93273">
        <ele>917</ele>
        <time>2022-05-28T09:12:40Z</time>
      </trkpt>
      <trkpt lat="48.07162" lon="6.93262">
        <ele>914.9</ele>
        <time>2022-05-28T09:12:48Z</time>
      </trkpt>
      <trkpt lat="48.07163" lon="6.93261">
        <ele>914.4</ele>
        <time>2022-05-28T09:13:18Z</time>
      </trkpt>
      <trkpt lat="48.07163" lon="6.9326">
        <ele>913.9</ele>
        <time>2022-05-28T09:13:35Z</time>
      </trkpt>
      <trkpt lat="48.07163" lon="6.93259">
        <ele>913.9</ele>
        <time>2022-05-28T09:13:45Z</time>
      </trkpt>
      <trkpt lat="48.07163" lon="6.93258">
        <ele>913.6</ele>
        <time>2022-05-28T09:13:58Z</time>
      </trkpt>
      <trkpt lat="48.07159" lon="6.93271">
        <ele>914.9</ele>
        <time>2022-05-28T09:14:09Z</time>
      </trkpt>
      <trkpt lat="48.07154" lon="6.93283">
        <ele>916.9</ele>
        <time>2022-05-28T09:14:21Z</time>
      </trkpt>
      <trkpt lat="48.07154" lon="6.93289">
        <ele>917.3</ele>
        <time>2022-05-28T09:14:27Z</time>
      </trkpt>
      <trkpt lat="48.07153" lon="6.93289">
        <ele>917.1</ele>
        <time>2022-05-28T09:14:40Z</time>
      </trkpt>
      <trkpt lat="48.07153" lon="6.93291">
        <ele>916.8</ele>
        <time>2022-05-28T09:14:44Z</time>
      </trkpt>
      <trkpt lat="48.07143" lon="6.93292">
        <ele>917.4</ele>
        <time>2022-05-28T09:15:06Z</time>
      </trkpt>
      <trkpt lat="48.07133" lon="6.93292">
        <ele>918</ele>
        <time>2022-05-28T09:15:11Z</time>
      </trkpt>
      <trkpt lat="48.07123" lon="6.93293">
        <ele>919.2</ele>
        <time>2022-05-28T09:15:16Z</time>
      </trkpt>
      <trkpt lat="48.07114" lon="6.93295">
        <ele>920.1</ele>
        <time>2022-05-28T09:15:22Z</time>
      </trkpt>
      <trkpt lat="48.07104" lon="6.93299">
        <ele>920.8</ele>
        <time>2022-05-28T09:15:28Z</time>
      </trkpt>
      <trkpt lat="48.07095" lon="6.93302">
        <ele>921.9</ele>
        <time>2022-05-28T09:15:33Z</time>
      </trkpt>
      <trkpt lat="48.07086" lon="6.93303">
        <ele>921.9</ele>
        <time>2022-05-28T09:15:38Z</time>
      </trkpt>
      <trkpt lat="48.07076" lon="6.93306">
        <ele>922.3</ele>
        <time>2022-05-28T09:15:43Z</time>
      </trkpt>
      <trkpt lat="48.07065" lon="6.93311">
        <ele>923.3</ele>
        <time>2022-05-28T09:15:48Z</time>
      </trkpt>
      <trkpt lat="48.07055" lon="6.93311">
        <ele>923.7</ele>
        <time>2022-05-28T09:15:53Z</time>
      </trkpt>
      <trkpt lat="48.07045" lon="6.93313">
        <ele>924.3</ele>
        <time>2022-05-28T09:15:57Z</time>
      </trkpt>
      <trkpt lat="48.07033" lon="6.93316">
        <ele>923.9</ele>
        <time>2022-05-28T09:16:01Z</time>
      </trkpt>
      <trkpt lat="48.07024" lon="6.93317">
        <ele>923.5</ele>
        <time>2022-05-28T09:16:04Z</time>
      </trkpt>
      <trkpt lat="48.07014" lon="6.93319">
        <ele>923</ele>
        <time>2022-05-28T09:16:07Z</time>
      </trkpt>
      <trkpt lat="48.07005" lon="6.9332">
        <ele>922.8</ele>
        <time>2022-05-28T09:16:10Z</time>
      </trkpt>
      <trkpt lat="48.06996" lon="6.93321">
        <ele>923.3</ele>
        <time>2022-05-28T09:16:13Z</time>
      </trkpt>
      <trkpt lat="48.06986" lon="6.93322">
        <ele>923.2</ele>
        <time>2022-05-28T09:16:16Z</time>
      </trkpt>
      <trkpt lat="48.06976" lon="6.93325">
        <ele>922.9</ele>
        <time>2022-05-28T09:16:19Z</time>
      </trkpt>
      <trkpt lat="48.06967" lon="6.93327">
        <ele>922.4</ele>
        <time>2022-05-28T09:16:22Z</time>
      </trkpt>
      <trkpt lat="48.06957" lon="6.93328">
        <ele>920.7</ele>
        <time>2022-05-28T09:16:25Z</time>
      </trkpt>
      <trkpt lat="48.06948" lon="6.93329">
        <ele>921.5</ele>
        <time>2022-05-28T09:16:28Z</time>
      </trkpt>
      <trkpt lat="48.06937" lon="6.93328">
        <ele>921.4</ele>
        <time>2022-05-28T09:16:32Z</time>
      </trkpt>
      <trkpt lat="48.06928" lon="6.93325">
        <ele>922.5</ele>
        <time>2022-05-28T09:16:35Z</time>
      </trkpt>
      <trkpt lat="48.06919" lon="6.93322">
        <ele>920.7</ele>
        <time>2022-05-28T09:16:38Z</time>
      </trkpt>
      <trkpt lat="48.06909" lon="6.93321">
        <ele>918.8</ele>
        <time>2022-05-28T09:16:41Z</time>
      </trkpt>
      <trkpt lat="48.06899" lon="6.93321">
        <ele>920.2</ele>
        <time>2022-05-28T09:16:44Z</time>
      </trkpt>
      <trkpt lat="48.06888" lon="6.93317">
        <ele>920.1</ele>
        <time>2022-05-28T09:16:47Z</time>
      </trkpt>
      <trkpt lat="48.06879" lon="6.93312">
        <ele>920.7</ele>
        <time>2022-05-28T09:16:49Z</time>
      </trkpt>
      <trkpt lat="48.0687" lon="6.93307">
        <ele>918.2</ele>
        <time>2022-05-28T09:16:51Z</time>
      </trkpt>
      <trkpt lat="48.06859" lon="6.933">
        <ele>917.3</ele>
        <time>2022-05-28T09:16:53Z</time>
      </trkpt>
      <trkpt lat="48.06848" lon="6.93296">
        <ele>916.1</ele>
        <time>2022-05-28T09:16:55Z</time>
      </trkpt>
      <trkpt lat="48.06836" lon="6.93294">
        <ele>914.7</ele>
        <time>2022-05-28T09:16:57Z</time>
      </trkpt>
      <trkpt lat="48.06824" lon="6.93291">
        <ele>913.1</ele>
        <time>2022-05-28T09:16:59Z</time>
      </trkpt>
      <trkpt lat="48.06812" lon="6.93287">
        <ele>909.1</ele>
        <time>2022-05-28T09:17:01Z</time>
      </trkpt>
      <trkpt lat="48.06799" lon="6.93282">
        <ele>910.4</ele>
        <time>2022-05-28T09:17:03Z</time>
      </trkpt>
      <trkpt lat="48.06786" lon="6.93278">
        <ele>913.6</ele>
        <time>2022-05-28T09:17:05Z</time>
      </trkpt>
      <trkpt lat="48.06775" lon="6.93272">
        <ele>913.4</ele>
        <time>2022-05-28T09:17:07Z</time>
      </trkpt>
      <trkpt lat="48.06764" lon="6.93263">
        <ele>909.7</ele>
        <time>2022-05-28T09:17:09Z</time>
      </trkpt>
      <trkpt lat="48.06753" lon="6.9325">
        <ele>906.6</ele>
        <time>2022-05-28T09:17:11Z</time>
      </trkpt>
      <trkpt lat="48.06741" lon="6.93235">
        <ele>905.3</ele>
        <time>2022-05-28T09:17:13Z</time>
      </trkpt>
      <trkpt lat="48.06729" lon="6.93218">
        <ele>905.5</ele>
        <time>2022-05-28T09:17:15Z</time>
      </trkpt>
      <trkpt lat="48.06717" lon="6.932">
        <ele>904.9</ele>
        <time>2022-05-28T09:17:17Z</time>
      </trkpt>
      <trkpt lat="48.06708" lon="6.93181">
        <ele>901.4</ele>
        <time>2022-05-28T09:17:19Z</time>
      </trkpt>
      <trkpt lat="48.06697" lon="6.93161">
        <ele>898.7</ele>
        <time>2022-05-28T09:17:21Z</time>
      </trkpt>
      <trkpt lat="48.06687" lon="6.93144">
        <ele>898.4</ele>
        <time>2022-05-28T09:17:23Z</time>
      </trkpt>
      <trkpt lat="48.06678" lon="6.93132">
        <ele>902.3</ele>
        <time>2022-05-28T09:17:25Z</time>
      </trkpt>
      <trkpt lat="48.06671" lon="6.93118">
        <ele>901.9</ele>
        <time>2022-05-28T09:17:27Z</time>
      </trkpt>
      <trkpt lat="48.06665" lon="6.93103">
        <ele>900.9</ele>
        <time>2022-05-28T09:17:29Z</time>
      </trkpt>
      <trkpt lat="48.06658" lon="6.93088">
        <ele>899.7</ele>
        <time>2022-05-28T09:17:31Z</time>
      </trkpt>
      <trkpt lat="48.06652" lon="6.93069">
        <ele>897.3</ele>
        <time>2022-05-28T09:17:33Z</time>
      </trkpt>
      <trkpt lat="48.06647" lon="6.93051">
        <ele>895</ele>
        <time>2022-05-28T09:17:35Z</time>
      </trkpt>
      <trkpt lat="48.06647" lon="6.93032">
        <ele>895.7</ele>
        <time>2022-05-28T09:17:37Z</time>
      </trkpt>
      <trkpt lat="48.06651" lon="6.93019">
        <ele>894.9</ele>
        <time>2022-05-28T09:17:38Z</time>
      </trkpt>
      <trkpt lat="48.06654" lon="6.93007">
        <ele>891.2</ele>
        <time>2022-05-28T09:17:39Z</time>
      </trkpt>
      <trkpt lat="48.0666" lon="6.92982">
        <ele>889.9</ele>
        <time>2022-05-28T09:17:41Z</time>
      </trkpt>
      <trkpt lat="48.06663" lon="6.92969">
        <ele>886.1</ele>
        <time>2022-05-28T09:17:42Z</time>
      </trkpt>
      <trkpt lat="48.06669" lon="6.92944">
        <ele>887.3</ele>
        <time>2022-05-28T09:17:44Z</time>
      </trkpt>
      <trkpt lat="48.06672" lon="6.92924">
        <ele>887</ele>
        <time>2022-05-28T09:17:46Z</time>
      </trkpt>
      <trkpt lat="48.06678" lon="6.92906">
        <ele>882.1</ele>
        <time>2022-05-28T09:17:48Z</time>
      </trkpt>
      <trkpt lat="48.06694" lon="6.92897">
        <ele>882.8</ele>
        <time>2022-05-28T09:17:50Z</time>
      </trkpt>
      <trkpt lat="48.06709" lon="6.92885">
        <ele>881.4</ele>
        <time>2022-05-28T09:17:52Z</time>
      </trkpt>
      <trkpt lat="48.0672" lon="6.92867">
        <ele>878.5</ele>
        <time>2022-05-28T09:17:54Z</time>
      </trkpt>
      <trkpt lat="48.06732" lon="6.92849">
        <ele>877.5</ele>
        <time>2022-05-28T09:17:56Z</time>
      </trkpt>
      <trkpt lat="48.06741" lon="6.92828">
        <ele>876.2</ele>
        <time>2022-05-28T09:17:58Z</time>
      </trkpt>
      <trkpt lat="48.06748" lon="6.92812">
        <ele>879.4</ele>
        <time>2022-05-28T09:18:00Z</time>
      </trkpt>
      <trkpt lat="48.06753" lon="6.92796">
        <ele>879.8</ele>
        <time>2022-05-28T09:18:03Z</time>
      </trkpt>
      <trkpt lat="48.06751" lon="6.9278">
        <ele>878.4</ele>
        <time>2022-05-28T09:18:07Z</time>
      </trkpt>
      <trkpt lat="48.06748" lon="6.92763">
        <ele>876.8</ele>
        <time>2022-05-28T09:18:10Z</time>
      </trkpt>
      <trkpt lat="48.06744" lon="6.92748">
        <ele>875.3</ele>
        <time>2022-05-28T09:18:12Z</time>
      </trkpt>
      <trkpt lat="48.0674" lon="6.92733">
        <ele>875.9</ele>
        <time>2022-05-28T09:18:14Z</time>
      </trkpt>
      <trkpt lat="48.06732" lon="6.92718">
        <ele>877.5</ele>
        <time>2022-05-28T09:18:17Z</time>
      </trkpt>
      <trkpt lat="48.06723" lon="6.92708">
        <ele>877.7</ele>
        <time>2022-05-28T09:18:21Z</time>
      </trkpt>
      <trkpt lat="48.06714" lon="6.927">
        <ele>878.6</ele>
        <time>2022-05-28T09:18:25Z</time>
      </trkpt>
      <trkpt lat="48.06705" lon="6.92692">
        <ele>879.3</ele>
        <time>2022-05-28T09:18:29Z</time>
      </trkpt>
      <trkpt lat="48.06697" lon="6.92683">
        <ele>880</ele>
        <time>2022-05-28T09:18:34Z</time>
      </trkpt>
      <trkpt lat="48.06689" lon="6.92676">
        <ele>880.4</ele>
        <time>2022-05-28T09:18:39Z</time>
      </trkpt>
      <trkpt lat="48.0668" lon="6.9267">
        <ele>881.4</ele>
        <time>2022-05-28T09:18:43Z</time>
      </trkpt>
      <trkpt lat="48.06671" lon="6.92662">
        <ele>881.8</ele>
        <time>2022-05-28T09:18:47Z</time>
      </trkpt>
      <trkpt lat="48.06662" lon="6.92656">
        <ele>882.3</ele>
        <time>2022-05-28T09:18:51Z</time>
      </trkpt>
      <trkpt lat="48.06653" lon="6.92649">
        <ele>883.7</ele>
        <time>2022-05-28T09:18:56Z</time>
      </trkpt>
      <trkpt lat="48.06644" lon="6.92645">
        <ele>883.3</ele>
        <time>2022-05-28T09:19:00Z</time>
      </trkpt>
      <trkpt lat="48.06633" lon="6.92643">
        <ele>884.7</ele>
        <time>2022-05-28T09:19:06Z</time>
      </trkpt>
      <trkpt lat="48.06624" lon="6.92638">
        <ele>884.8</ele>
        <time>2022-05-28T09:19:11Z</time>
      </trkpt>
      <trkpt lat="48.06614" lon="6.92632">
        <ele>885.6</ele>
        <time>2022-05-28T09:19:14Z</time>
      </trkpt>
      <trkpt lat="48.06606" lon="6.92624">
        <ele>885.9</ele>
        <time>2022-05-28T09:19:17Z</time>
      </trkpt>
      <trkpt lat="48.06597" lon="6.92617">
        <ele>886.5</ele>
        <time>2022-05-28T09:19:20Z</time>
      </trkpt>
      <trkpt lat="48.06588" lon="6.92612">
        <ele>886.7</ele>
        <time>2022-05-28T09:19:24Z</time>
      </trkpt>
      <trkpt lat="48.06577" lon="6.92604">
        <ele>887.5</ele>
        <time>2022-05-28T09:19:29Z</time>
      </trkpt>
      <trkpt lat="48.06567" lon="6.92597">
        <ele>887.9</ele>
        <time>2022-05-28T09:19:33Z</time>
      </trkpt>
      <trkpt lat="48.06559" lon="6.9259">
        <ele>888.6</ele>
        <time>2022-05-28T09:19:37Z</time>
      </trkpt>
      <trkpt lat="48.0655" lon="6.92581">
        <ele>888.9</ele>
        <time>2022-05-28T09:19:41Z</time>
      </trkpt>
      <trkpt lat="48.0654" lon="6.92575">
        <ele>889.4</ele>
        <time>2022-05-28T09:19:45Z</time>
      </trkpt>
      <trkpt lat="48.0653" lon="6.92569">
        <ele>889.7</ele>
        <time>2022-05-28T09:19:49Z</time>
      </trkpt>
      <trkpt lat="48.06522" lon="6.92557">
        <ele>890.7</ele>
        <time>2022-05-28T09:19:53Z</time>
      </trkpt>
      <trkpt lat="48.06518" lon="6.92544">
        <ele>891.3</ele>
        <time>2022-05-28T09:19:57Z</time>
      </trkpt>
      <trkpt lat="48.06514" lon="6.92532">
        <ele>891.7</ele>
        <time>2022-05-28T09:20:01Z</time>
      </trkpt>
      <trkpt lat="48.06509" lon="6.9252">
        <ele>892.6</ele>
        <time>2022-05-28T09:20:05Z</time>
      </trkpt>
      <trkpt lat="48.06503" lon="6.92508">
        <ele>893.4</ele>
        <time>2022-05-28T09:20:09Z</time>
      </trkpt>
      <trkpt lat="48.06496" lon="6.92497">
        <ele>893.4</ele>
        <time>2022-05-28T09:20:13Z</time>
      </trkpt>
      <trkpt lat="48.06487" lon="6.92487">
        <ele>893.4</ele>
        <time>2022-05-28T09:20:17Z</time>
      </trkpt>
      <trkpt lat="48.06479" lon="6.92477">
        <ele>894.3</ele>
        <time>2022-05-28T09:20:21Z</time>
      </trkpt>
      <trkpt lat="48.06472" lon="6.92468">
        <ele>894.6</ele>
        <time>2022-05-28T09:20:25Z</time>
      </trkpt>
      <trkpt lat="48.06465" lon="6.92459">
        <ele>895.3</ele>
        <time>2022-05-28T09:20:29Z</time>
      </trkpt>
      <trkpt lat="48.06457" lon="6.92448">
        <ele>896</ele>
        <time>2022-05-28T09:20:34Z</time>
      </trkpt>
      <trkpt lat="48.0645" lon="6.92438">
        <ele>896.6</ele>
        <time>2022-05-28T09:20:38Z</time>
      </trkpt>
      <trkpt lat="48.06442" lon="6.92429">
        <ele>897.5</ele>
        <time>2022-05-28T09:20:42Z</time>
      </trkpt>
      <trkpt lat="48.06435" lon="6.92418">
        <ele>898.1</ele>
        <time>2022-05-28T09:20:46Z</time>
      </trkpt>
      <trkpt lat="48.06428" lon="6.92407">
        <ele>898.4</ele>
        <time>2022-05-28T09:20:50Z</time>
      </trkpt>
      <trkpt lat="48.06421" lon="6.92398">
        <ele>899</ele>
        <time>2022-05-28T09:20:54Z</time>
      </trkpt>
      <trkpt lat="48.06415" lon="6.92386">
        <ele>899.3</ele>
        <time>2022-05-28T09:20:58Z</time>
      </trkpt>
      <trkpt lat="48.06414" lon="6.92371">
        <ele>899.9</ele>
        <time>2022-05-28T09:21:02Z</time>
      </trkpt>
      <trkpt lat="48.0641" lon="6.92358">
        <ele>900.6</ele>
        <time>2022-05-28T09:21:06Z</time>
      </trkpt>
      <trkpt lat="48.06407" lon="6.92345">
        <ele>901</ele>
        <time>2022-05-28T09:21:11Z</time>
      </trkpt>
      <trkpt lat="48.06401" lon="6.92332">
        <ele>901.8</ele>
        <time>2022-05-28T09:21:15Z</time>
      </trkpt>
      <trkpt lat="48.06397" lon="6.92319">
        <ele>902.3</ele>
        <time>2022-05-28T09:21:19Z</time>
      </trkpt>
      <trkpt lat="48.06392" lon="6.92305">
        <ele>902.8</ele>
        <time>2022-05-28T09:21:23Z</time>
      </trkpt>
      <trkpt lat="48.06386" lon="6.92293">
        <ele>903.5</ele>
        <time>2022-05-28T09:21:27Z</time>
      </trkpt>
      <trkpt lat="48.06379" lon="6.92282">
        <ele>903.8</ele>
        <time>2022-05-28T09:21:31Z</time>
      </trkpt>
      <trkpt lat="48.06373" lon="6.92271">
        <ele>904.7</ele>
        <time>2022-05-28T09:21:35Z</time>
      </trkpt>
      <trkpt lat="48.06366" lon="6.92261">
        <ele>905.3</ele>
        <time>2022-05-28T09:21:39Z</time>
      </trkpt>
      <trkpt lat="48.06361" lon="6.92248">
        <ele>906</ele>
        <time>2022-05-28T09:21:43Z</time>
      </trkpt>
      <trkpt lat="48.06355" lon="6.92236">
        <ele>906.3</ele>
        <time>2022-05-28T09:21:47Z</time>
      </trkpt>
      <trkpt lat="48.06354" lon="6.9222">
        <ele>907.5</ele>
        <time>2022-05-28T09:21:51Z</time>
      </trkpt>
      <trkpt lat="48.06354" lon="6.92205">
        <ele>907.7</ele>
        <time>2022-05-28T09:21:55Z</time>
      </trkpt>
      <trkpt lat="48.06354" lon="6.92191">
        <ele>908.1</ele>
        <time>2022-05-28T09:21:59Z</time>
      </trkpt>
      <trkpt lat="48.06356" lon="6.92178">
        <ele>908.7</ele>
        <time>2022-05-28T09:22:03Z</time>
      </trkpt>
      <trkpt lat="48.06361" lon="6.92165">
        <ele>909.3</ele>
        <time>2022-05-28T09:22:07Z</time>
      </trkpt>
      <trkpt lat="48.06367" lon="6.92153">
        <ele>909.8</ele>
        <time>2022-05-28T09:22:11Z</time>
      </trkpt>
      <trkpt lat="48.06372" lon="6.92142">
        <ele>910.6</ele>
        <time>2022-05-28T09:22:15Z</time>
      </trkpt>
      <trkpt lat="48.06378" lon="6.9213">
        <ele>910.7</ele>
        <time>2022-05-28T09:22:19Z</time>
      </trkpt>
      <trkpt lat="48.06385" lon="6.9212">
        <ele>911.4</ele>
        <time>2022-05-28T09:22:23Z</time>
      </trkpt>
      <trkpt lat="48.06393" lon="6.92111">
        <ele>912.1</ele>
        <time>2022-05-28T09:22:27Z</time>
      </trkpt>
      <trkpt lat="48.06401" lon="6.92105">
        <ele>913</ele>
        <time>2022-05-28T09:22:31Z</time>
      </trkpt>
      <trkpt lat="48.06411" lon="6.92098">
        <ele>913.1</ele>
        <time>2022-05-28T09:22:35Z</time>
      </trkpt>
      <trkpt lat="48.06418" lon="6.92091">
        <ele>913.5</ele>
        <time>2022-05-28T09:22:39Z</time>
      </trkpt>
      <trkpt lat="48.06428" lon="6.92084">
        <ele>913.9</ele>
        <time>2022-05-28T09:22:43Z</time>
      </trkpt>
      <trkpt lat="48.06437" lon="6.92077">
        <ele>914.5</ele>
        <time>2022-05-28T09:22:47Z</time>
      </trkpt>
      <trkpt lat="48.06446" lon="6.92072">
        <ele>914.9</ele>
        <time>2022-05-28T09:22:51Z</time>
      </trkpt>
      <trkpt lat="48.06455" lon="6.92068">
        <ele>915.4</ele>
        <time>2022-05-28T09:22:55Z</time>
      </trkpt>
      <trkpt lat="48.06466" lon="6.92064">
        <ele>916.1</ele>
        <time>2022-05-28T09:23:00Z</time>
      </trkpt>
      <trkpt lat="48.06475" lon="6.92059">
        <ele>916.4</ele>
        <time>2022-05-28T09:23:04Z</time>
      </trkpt>
      <trkpt lat="48.06485" lon="6.92051">
        <ele>916.8</ele>
        <time>2022-05-28T09:23:08Z</time>
      </trkpt>
      <trkpt lat="48.06493" lon="6.9204">
        <ele>917.3</ele>
        <time>2022-05-28T09:23:12Z</time>
      </trkpt>
      <trkpt lat="48.065" lon="6.92029">
        <ele>917.6</ele>
        <time>2022-05-28T09:23:16Z</time>
      </trkpt>
      <trkpt lat="48.06508" lon="6.92017">
        <ele>918.3</ele>
        <time>2022-05-28T09:23:20Z</time>
      </trkpt>
      <trkpt lat="48.06515" lon="6.92005">
        <ele>918.6</ele>
        <time>2022-05-28T09:23:24Z</time>
      </trkpt>
      <trkpt lat="48.06522" lon="6.91997">
        <ele>919</ele>
        <time>2022-05-28T09:23:28Z</time>
      </trkpt>
      <trkpt lat="48.06532" lon="6.91992">
        <ele>919.9</ele>
        <time>2022-05-28T09:23:33Z</time>
      </trkpt>
      <trkpt lat="48.06541" lon="6.91988">
        <ele>920.4</ele>
        <time>2022-05-28T09:23:37Z</time>
      </trkpt>
      <trkpt lat="48.06551" lon="6.91984">
        <ele>920.7</ele>
        <time>2022-05-28T09:23:41Z</time>
      </trkpt>
      <trkpt lat="48.06561" lon="6.9198">
        <ele>921</ele>
        <time>2022-05-28T09:23:45Z</time>
      </trkpt>
      <trkpt lat="48.06571" lon="6.91974">
        <ele>921.5</ele>
        <time>2022-05-28T09:23:49Z</time>
      </trkpt>
      <trkpt lat="48.06581" lon="6.9197">
        <ele>922</ele>
        <time>2022-05-28T09:23:53Z</time>
      </trkpt>
      <trkpt lat="48.06591" lon="6.91965">
        <ele>922.4</ele>
        <time>2022-05-28T09:23:57Z</time>
      </trkpt>
      <trkpt lat="48.06601" lon="6.91959">
        <ele>923.1</ele>
        <time>2022-05-28T09:24:01Z</time>
      </trkpt>
      <trkpt lat="48.0661" lon="6.91952">
        <ele>923.3</ele>
        <time>2022-05-28T09:24:05Z</time>
      </trkpt>
      <trkpt lat="48.0662" lon="6.91944">
        <ele>924.1</ele>
        <time>2022-05-28T09:24:09Z</time>
      </trkpt>
      <trkpt lat="48.06627" lon="6.91936">
        <ele>924.7</ele>
        <time>2022-05-28T09:24:12Z</time>
      </trkpt>
      <trkpt lat="48.06636" lon="6.91929">
        <ele>924.9</ele>
        <time>2022-05-28T09:24:16Z</time>
      </trkpt>
      <trkpt lat="48.06645" lon="6.91923">
        <ele>925.5</ele>
        <time>2022-05-28T09:24:20Z</time>
      </trkpt>
      <trkpt lat="48.06654" lon="6.91917">
        <ele>925.6</ele>
        <time>2022-05-28T09:24:24Z</time>
      </trkpt>
      <trkpt lat="48.06664" lon="6.91913">
        <ele>925.6</ele>
        <time>2022-05-28T09:24:28Z</time>
      </trkpt>
      <trkpt lat="48.06674" lon="6.91909">
        <ele>926</ele>
        <time>2022-05-28T09:24:32Z</time>
      </trkpt>
      <trkpt lat="48.06683" lon="6.91905">
        <ele>926.8</ele>
        <time>2022-05-28T09:24:36Z</time>
      </trkpt>
      <trkpt lat="48.06694" lon="6.91903">
        <ele>927.7</ele>
        <time>2022-05-28T09:24:40Z</time>
      </trkpt>
      <trkpt lat="48.06703" lon="6.91901">
        <ele>928.1</ele>
        <time>2022-05-28T09:24:44Z</time>
      </trkpt>
      <trkpt lat="48.06714" lon="6.91897">
        <ele>928.1</ele>
        <time>2022-05-28T09:24:48Z</time>
      </trkpt>
      <trkpt lat="48.06724" lon="6.91892">
        <ele>928.9</ele>
        <time>2022-05-28T09:24:52Z</time>
      </trkpt>
      <trkpt lat="48.06734" lon="6.91889">
        <ele>929</ele>
        <time>2022-05-28T09:24:57Z</time>
      </trkpt>
      <trkpt lat="48.06743" lon="6.91885">
        <ele>929.8</ele>
        <time>2022-05-28T09:25:06Z</time>
      </trkpt>
      <trkpt lat="48.06744" lon="6.9188">
        <ele>929.8</ele>
        <time>2022-05-28T09:25:14Z</time>
      </trkpt>
      <trkpt lat="48.06744" lon="6.91879">
        <ele>929.5</ele>
        <time>2022-05-28T09:25:20Z</time>
      </trkpt>
      <trkpt lat="48.06745" lon="6.91878">
        <ele>929.5</ele>
        <time>2022-05-28T09:25:24Z</time>
      </trkpt>
      <trkpt lat="48.06745" lon="6.91878">
        <ele>929.6</ele>
        <time>2022-05-28T09:25:29Z</time>
      </trkpt>
      <trkpt lat="48.06746" lon="6.91877">
        <ele>929</ele>
        <time>2022-05-28T09:25:48Z</time>
      </trkpt>
      <trkpt lat="48.06747" lon="6.91875">
        <ele>929</ele>
        <time>2022-05-28T09:25:53Z</time>
      </trkpt>
      <trkpt lat="48.06747" lon="6.91876">
        <ele>928.7</ele>
        <time>2022-05-28T09:26:10Z</time>
      </trkpt>
      <trkpt lat="48.06747" lon="6.91876">
        <ele>928.9</ele>
        <time>2022-05-28T09:26:20Z</time>
      </trkpt>
      <trkpt lat="48.06748" lon="6.91876">
        <ele>928.8</ele>
        <time>2022-05-28T09:26:22Z</time>
      </trkpt>
      <trkpt lat="48.06748" lon="6.91878">
        <ele>928.2</ele>
        <time>2022-05-28T09:26:38Z</time>
      </trkpt>
      <trkpt lat="48.06748" lon="6.91879">
        <ele>928</ele>
        <time>2022-05-28T09:26:40Z</time>
      </trkpt>
      <trkpt lat="48.06747" lon="6.91879">
        <ele>927.7</ele>
        <time>2022-05-28T09:26:56Z</time>
      </trkpt>
      <trkpt lat="48.06746" lon="6.91879">
        <ele>927.3</ele>
        <time>2022-05-28T09:27:00Z</time>
      </trkpt>
      <trkpt lat="48.06746" lon="6.9188">
        <ele>926.7</ele>
        <time>2022-05-28T09:27:31Z</time>
      </trkpt>
      <trkpt lat="48.06743" lon="6.91883">
        <ele>926.2</ele>
        <time>2022-05-28T09:27:37Z</time>
      </trkpt>
      <trkpt lat="48.06746" lon="6.91883">
        <ele>925.5</ele>
        <time>2022-05-28T09:28:12Z</time>
      </trkpt>
      <trkpt lat="48.06746" lon="6.91883">
        <ele>926</ele>
        <time>2022-05-28T09:28:21Z</time>
      </trkpt>
      <trkpt lat="48.06746" lon="6.91884">
        <ele>925</ele>
        <time>2022-05-28T09:28:55Z</time>
      </trkpt>
      <trkpt lat="48.06747" lon="6.91884">
        <ele>924.6</ele>
        <time>2022-05-28T09:29:00Z</time>
      </trkpt>
      <trkpt lat="48.06747" lon="6.91885">
        <ele>922.1</ele>
        <time>2022-05-28T09:31:02Z</time>
      </trkpt>
      <trkpt lat="48.06747" lon="6.91885">
        <ele>921.9</ele>
        <time>2022-05-28T09:31:09Z</time>
      </trkpt>
      <trkpt lat="48.06756" lon="6.91893">
        <ele>919.6</ele>
        <time>2022-05-28T09:31:17Z</time>
      </trkpt>
      <trkpt lat="48.06766" lon="6.91893">
        <ele>917.1</ele>
        <time>2022-05-28T09:31:20Z</time>
      </trkpt>
      <trkpt lat="48.06777" lon="6.91892">
        <ele>916.4</ele>
        <time>2022-05-28T09:31:23Z</time>
      </trkpt>
      <trkpt lat="48.0679" lon="6.91889">
        <ele>914.2</ele>
        <time>2022-05-28T09:31:26Z</time>
      </trkpt>
      <trkpt lat="48.06799" lon="6.91885">
        <ele>913.6</ele>
        <time>2022-05-28T09:31:29Z</time>
      </trkpt>
      <trkpt lat="48.06811" lon="6.91878">
        <ele>911.9</ele>
        <time>2022-05-28T09:31:32Z</time>
      </trkpt>
      <trkpt lat="48.06819" lon="6.91872">
        <ele>909.4</ele>
        <time>2022-05-28T09:31:34Z</time>
      </trkpt>
      <trkpt lat="48.06828" lon="6.91864">
        <ele>907.4</ele>
        <time>2022-05-28T09:31:36Z</time>
      </trkpt>
      <trkpt lat="48.06838" lon="6.91855">
        <ele>905.5</ele>
        <time>2022-05-28T09:31:39Z</time>
      </trkpt>
      <trkpt lat="48.06851" lon="6.91847">
        <ele>905.9</ele>
        <time>2022-05-28T09:31:42Z</time>
      </trkpt>
      <trkpt lat="48.0686" lon="6.91842">
        <ele>899.5</ele>
        <time>2022-05-28T09:31:44Z</time>
      </trkpt>
      <trkpt lat="48.06872" lon="6.91833">
        <ele>899</ele>
        <time>2022-05-28T09:31:46Z</time>
      </trkpt>
      <trkpt lat="48.06885" lon="6.91822">
        <ele>902.1</ele>
        <time>2022-05-28T09:31:48Z</time>
      </trkpt>
      <trkpt lat="48.06899" lon="6.91812">
        <ele>898.2</ele>
        <time>2022-05-28T09:31:50Z</time>
      </trkpt>
      <trkpt lat="48.06912" lon="6.91803">
        <ele>898.2</ele>
        <time>2022-05-28T09:31:52Z</time>
      </trkpt>
      <trkpt lat="48.0692" lon="6.91795">
        <ele>897.7</ele>
        <time>2022-05-28T09:31:54Z</time>
      </trkpt>
      <trkpt lat="48.06928" lon="6.91784">
        <ele>898.4</ele>
        <time>2022-05-28T09:31:56Z</time>
      </trkpt>
      <trkpt lat="48.06936" lon="6.91777">
        <ele>899.7</ele>
        <time>2022-05-28T09:31:59Z</time>
      </trkpt>
      <trkpt lat="48.06943" lon="6.91765">
        <ele>898.7</ele>
        <time>2022-05-28T09:32:03Z</time>
      </trkpt>
      <trkpt lat="48.06946" lon="6.9175">
        <ele>901.8</ele>
        <time>2022-05-28T09:32:08Z</time>
      </trkpt>
      <trkpt lat="48.0695" lon="6.91735">
        <ele>901.3</ele>
        <time>2022-05-28T09:32:12Z</time>
      </trkpt>
      <trkpt lat="48.0695" lon="6.91722">
        <ele>902.5</ele>
        <time>2022-05-28T09:32:16Z</time>
      </trkpt>
      <trkpt lat="48.06953" lon="6.91706">
        <ele>902.2</ele>
        <time>2022-05-28T09:32:20Z</time>
      </trkpt>
      <trkpt lat="48.06956" lon="6.91688">
        <ele>903.8</ele>
        <time>2022-05-28T09:32:25Z</time>
      </trkpt>
      <trkpt lat="48.06961" lon="6.91678">
        <ele>903.6</ele>
        <time>2022-05-28T09:32:28Z</time>
      </trkpt>
      <trkpt lat="48.06966" lon="6.91664">
        <ele>904.7</ele>
        <time>2022-05-28T09:32:33Z</time>
      </trkpt>
      <trkpt lat="48.0697" lon="6.91648">
        <ele>904.5</ele>
        <time>2022-05-28T09:32:38Z</time>
      </trkpt>
      <trkpt lat="48.0697" lon="6.91632">
        <ele>905.8</ele>
        <time>2022-05-28T09:32:43Z</time>
      </trkpt>
      <trkpt lat="48.06976" lon="6.91617">
        <ele>905.4</ele>
        <time>2022-05-28T09:32:47Z</time>
      </trkpt>
      <trkpt lat="48.0698" lon="6.91604">
        <ele>905.7</ele>
        <time>2022-05-28T09:32:51Z</time>
      </trkpt>
      <trkpt lat="48.06984" lon="6.91591">
        <ele>905.3</ele>
        <time>2022-05-28T09:32:55Z</time>
      </trkpt>
      <trkpt lat="48.06986" lon="6.91575">
        <ele>906.5</ele>
        <time>2022-05-28T09:33:00Z</time>
      </trkpt>
      <trkpt lat="48.0699" lon="6.91561">
        <ele>906.2</ele>
        <time>2022-05-28T09:33:05Z</time>
      </trkpt>
      <trkpt lat="48.06991" lon="6.91545">
        <ele>908.7</ele>
        <time>2022-05-28T09:33:10Z</time>
      </trkpt>
      <trkpt lat="48.06994" lon="6.91532">
        <ele>909.5</ele>
        <time>2022-05-28T09:33:14Z</time>
      </trkpt>
      <trkpt lat="48.06997" lon="6.91517">
        <ele>910.2</ele>
        <time>2022-05-28T09:33:18Z</time>
      </trkpt>
      <trkpt lat="48.06999" lon="6.91504">
        <ele>911.6</ele>
        <time>2022-05-28T09:33:22Z</time>
      </trkpt>
      <trkpt lat="48.06999" lon="6.9149">
        <ele>912</ele>
        <time>2022-05-28T09:33:26Z</time>
      </trkpt>
      <trkpt lat="48.07004" lon="6.91476">
        <ele>912.5</ele>
        <time>2022-05-28T09:33:31Z</time>
      </trkpt>
      <trkpt lat="48.07008" lon="6.91463">
        <ele>912.7</ele>
        <time>2022-05-28T09:33:35Z</time>
      </trkpt>
      <trkpt lat="48.07011" lon="6.9145">
        <ele>914.6</ele>
        <time>2022-05-28T09:33:39Z</time>
      </trkpt>
      <trkpt lat="48.07015" lon="6.91435">
        <ele>915.1</ele>
        <time>2022-05-28T09:33:43Z</time>
      </trkpt>
      <trkpt lat="48.0702" lon="6.91421">
        <ele>916</ele>
        <time>2022-05-28T09:33:48Z</time>
      </trkpt>
      <trkpt lat="48.07021" lon="6.91407">
        <ele>917.3</ele>
        <time>2022-05-28T09:33:53Z</time>
      </trkpt>
      <trkpt lat="48.07025" lon="6.91391">
        <ele>917.6</ele>
        <time>2022-05-28T09:33:58Z</time>
      </trkpt>
      <trkpt lat="48.0703" lon="6.91379">
        <ele>918.2</ele>
        <time>2022-05-28T09:34:02Z</time>
      </trkpt>
      <trkpt lat="48.07033" lon="6.91366">
        <ele>919.6</ele>
        <time>2022-05-28T09:34:06Z</time>
      </trkpt>
      <trkpt lat="48.07037" lon="6.91352">
        <ele>919.1</ele>
        <time>2022-05-28T09:34:11Z</time>
      </trkpt>
      <trkpt lat="48.07041" lon="6.91339">
        <ele>918.3</ele>
        <time>2022-05-28T09:34:15Z</time>
      </trkpt>
      <trkpt lat="48.07049" lon="6.91326">
        <ele>917.1</ele>
        <time>2022-05-28T09:34:19Z</time>
      </trkpt>
      <trkpt lat="48.07056" lon="6.91314">
        <ele>917.8</ele>
        <time>2022-05-28T09:34:22Z</time>
      </trkpt>
      <trkpt lat="48.07063" lon="6.91303">
        <ele>917</ele>
        <time>2022-05-28T09:34:25Z</time>
      </trkpt>
      <trkpt lat="48.07067" lon="6.9129">
        <ele>919.7</ele>
        <time>2022-05-28T09:34:28Z</time>
      </trkpt>
      <trkpt lat="48.07069" lon="6.91276">
        <ele>923.2</ele>
        <time>2022-05-28T09:34:34Z</time>
      </trkpt>
      <trkpt lat="48.0707" lon="6.91261">
        <ele>923.8</ele>
        <time>2022-05-28T09:34:40Z</time>
      </trkpt>
      <trkpt lat="48.07076" lon="6.91254">
        <ele>922.6</ele>
        <time>2022-05-28T09:34:48Z</time>
      </trkpt>
      <trkpt lat="48.07077" lon="6.91254">
        <ele>922.5</ele>
        <time>2022-05-28T09:34:50Z</time>
      </trkpt>
      <trkpt lat="48.07077" lon="6.91253">
        <ele>922.9</ele>
        <time>2022-05-28T09:35:19Z</time>
      </trkpt>
      <trkpt lat="48.07078" lon="6.91252">
        <ele>922.8</ele>
        <time>2022-05-28T09:35:28Z</time>
      </trkpt>
      <trkpt lat="48.07078" lon="6.91252">
        <ele>923.4</ele>
        <time>2022-05-28T09:35:39Z</time>
      </trkpt>
      <trkpt lat="48.07084" lon="6.9124">
        <ele>922.6</ele>
        <time>2022-05-28T09:35:44Z</time>
      </trkpt>
      <trkpt lat="48.07092" lon="6.91227">
        <ele>919.6</ele>
        <time>2022-05-28T09:35:47Z</time>
      </trkpt>
      <trkpt lat="48.07099" lon="6.91217">
        <ele>919.1</ele>
        <time>2022-05-28T09:35:49Z</time>
      </trkpt>
      <trkpt lat="48.07109" lon="6.91203">
        <ele>918.7</ele>
        <time>2022-05-28T09:35:52Z</time>
      </trkpt>
      <trkpt lat="48.07116" lon="6.91196">
        <ele>915.8</ele>
        <time>2022-05-28T09:35:54Z</time>
      </trkpt>
      <trkpt lat="48.07125" lon="6.91186">
        <ele>916.1</ele>
        <time>2022-05-28T09:35:56Z</time>
      </trkpt>
      <trkpt lat="48.07133" lon="6.91176">
        <ele>918.1</ele>
        <time>2022-05-28T09:35:58Z</time>
      </trkpt>
      <trkpt lat="48.0714" lon="6.91165">
        <ele>917.7</ele>
        <time>2022-05-28T09:36:00Z</time>
      </trkpt>
      <trkpt lat="48.07146" lon="6.91152">
        <ele>913.3</ele>
        <time>2022-05-28T09:36:02Z</time>
      </trkpt>
      <trkpt lat="48.07152" lon="6.91134">
        <ele>914.8</ele>
        <time>2022-05-28T09:36:05Z</time>
      </trkpt>
      <trkpt lat="48.07155" lon="6.91117">
        <ele>914.2</ele>
        <time>2022-05-28T09:36:08Z</time>
      </trkpt>
      <trkpt lat="48.07155" lon="6.911">
        <ele>913.1</ele>
        <time>2022-05-28T09:36:11Z</time>
      </trkpt>
      <trkpt lat="48.07154" lon="6.91083">
        <ele>913.4</ele>
        <time>2022-05-28T09:36:14Z</time>
      </trkpt>
      <trkpt lat="48.07152" lon="6.91064">
        <ele>911.2</ele>
        <time>2022-05-28T09:36:17Z</time>
      </trkpt>
      <trkpt lat="48.07151" lon="6.9105">
        <ele>912.9</ele>
        <time>2022-05-28T09:36:20Z</time>
      </trkpt>
      <trkpt lat="48.07148" lon="6.91035">
        <ele>915</ele>
        <time>2022-05-28T09:36:24Z</time>
      </trkpt>
      <trkpt lat="48.07146" lon="6.91019">
        <ele>911.5</ele>
        <time>2022-05-28T09:36:28Z</time>
      </trkpt>
      <trkpt lat="48.07148" lon="6.91003">
        <ele>911.8</ele>
        <time>2022-05-28T09:36:31Z</time>
      </trkpt>
      <trkpt lat="48.07157" lon="6.90992">
        <ele>912.1</ele>
        <time>2022-05-28T09:36:36Z</time>
      </trkpt>
      <trkpt lat="48.07164" lon="6.90981">
        <ele>912.2</ele>
        <time>2022-05-28T09:36:39Z</time>
      </trkpt>
      <trkpt lat="48.07171" lon="6.90969">
        <ele>911.6</ele>
        <time>2022-05-28T09:36:43Z</time>
      </trkpt>
      <trkpt lat="48.07176" lon="6.90961">
        <ele>912.2</ele>
        <time>2022-05-28T09:36:49Z</time>
      </trkpt>
      <trkpt lat="48.07176" lon="6.90961">
        <ele>912.2</ele>
        <time>2022-05-28T09:38:25Z</time>
      </trkpt>
      <trkpt lat="48.07176" lon="6.9096">
        <ele>911.8</ele>
        <time>2022-05-28T09:38:51Z</time>
      </trkpt>
      <trkpt lat="48.07184" lon="6.9095">
        <ele>909.6</ele>
        <time>2022-05-28T09:38:56Z</time>
      </trkpt>
      <trkpt lat="48.07191" lon="6.90941">
        <ele>908.9</ele>
        <time>2022-05-28T09:38:59Z</time>
      </trkpt>
      <trkpt lat="48.07198" lon="6.90928">
        <ele>908.1</ele>
        <time>2022-05-28T09:39:02Z</time>
      </trkpt>
      <trkpt lat="48.07206" lon="6.90916">
        <ele>907.6</ele>
        <time>2022-05-28T09:39:05Z</time>
      </trkpt>
      <trkpt lat="48.07216" lon="6.90915">
        <ele>907</ele>
        <time>2022-05-28T09:39:07Z</time>
      </trkpt>
      <trkpt lat="48.07226" lon="6.90909">
        <ele>906.4</ele>
        <time>2022-05-28T09:39:09Z</time>
      </trkpt>
      <trkpt lat="48.07236" lon="6.90903">
        <ele>905.5</ele>
        <time>2022-05-28T09:39:11Z</time>
      </trkpt>
      <trkpt lat="48.07246" lon="6.90902">
        <ele>904</ele>
        <time>2022-05-28T09:39:13Z</time>
      </trkpt>
      <trkpt lat="48.07256" lon="6.90902">
        <ele>906.3</ele>
        <time>2022-05-28T09:39:15Z</time>
      </trkpt>
      <trkpt lat="48.07266" lon="6.90901">
        <ele>904</ele>
        <time>2022-05-28T09:39:17Z</time>
      </trkpt>
      <trkpt lat="48.07275" lon="6.90899">
        <ele>904.4</ele>
        <time>2022-05-28T09:39:19Z</time>
      </trkpt>
      <trkpt lat="48.07286" lon="6.90894">
        <ele>905.8</ele>
        <time>2022-05-28T09:39:22Z</time>
      </trkpt>
      <trkpt lat="48.07294" lon="6.90886">
        <ele>905.5</ele>
        <time>2022-05-28T09:39:25Z</time>
      </trkpt>
      <trkpt lat="48.07302" lon="6.90876">
        <ele>903.9</ele>
        <time>2022-05-28T09:39:30Z</time>
      </trkpt>
      <trkpt lat="48.07302" lon="6.90861">
        <ele>905.1</ele>
        <time>2022-05-28T09:39:36Z</time>
      </trkpt>
      <trkpt lat="48.07294" lon="6.9085">
        <ele>906.8</ele>
        <time>2022-05-28T09:39:42Z</time>
      </trkpt>
      <trkpt lat="48.07287" lon="6.90842">
        <ele>908.9</ele>
        <time>2022-05-28T09:39:49Z</time>
      </trkpt>
      <trkpt lat="48.07279" lon="6.90833">
        <ele>910.3</ele>
        <time>2022-05-28T09:39:56Z</time>
      </trkpt>
      <trkpt lat="48.0727" lon="6.90825">
        <ele>912.5</ele>
        <time>2022-05-28T09:40:04Z</time>
      </trkpt>
      <trkpt lat="48.07263" lon="6.90815">
        <ele>914.5</ele>
        <time>2022-05-28T09:40:12Z</time>
      </trkpt>
      <trkpt lat="48.07253" lon="6.90812">
        <ele>916.7</ele>
        <time>2022-05-28T09:40:23Z</time>
      </trkpt>
      <trkpt lat="48.07243" lon="6.90814">
        <ele>917.9</ele>
        <time>2022-05-28T09:40:32Z</time>
      </trkpt>
      <trkpt lat="48.07233" lon="6.90817">
        <ele>920.2</ele>
        <time>2022-05-28T09:40:39Z</time>
      </trkpt>
      <trkpt lat="48.07224" lon="6.9082">
        <ele>921.5</ele>
        <time>2022-05-28T09:40:47Z</time>
      </trkpt>
      <trkpt lat="48.07214" lon="6.90821">
        <ele>923.9</ele>
        <time>2022-05-28T09:40:57Z</time>
      </trkpt>
      <trkpt lat="48.07204" lon="6.90823">
        <ele>924.7</ele>
        <time>2022-05-28T09:41:05Z</time>
      </trkpt>
      <trkpt lat="48.07195" lon="6.9082">
        <ele>926.3</ele>
        <time>2022-05-28T09:41:13Z</time>
      </trkpt>
      <trkpt lat="48.07185" lon="6.90817">
        <ele>928.1</ele>
        <time>2022-05-28T09:41:21Z</time>
      </trkpt>
      <trkpt lat="48.07175" lon="6.90813">
        <ele>929.5</ele>
        <time>2022-05-28T09:41:28Z</time>
      </trkpt>
      <trkpt lat="48.07165" lon="6.90809">
        <ele>931.2</ele>
        <time>2022-05-28T09:41:35Z</time>
      </trkpt>
      <trkpt lat="48.07157" lon="6.90803">
        <ele>932.7</ele>
        <time>2022-05-28T09:41:42Z</time>
      </trkpt>
      <trkpt lat="48.07148" lon="6.90795">
        <ele>934.5</ele>
        <time>2022-05-28T09:41:48Z</time>
      </trkpt>
      <trkpt lat="48.0714" lon="6.90789">
        <ele>935.8</ele>
        <time>2022-05-28T09:41:54Z</time>
      </trkpt>
      <trkpt lat="48.07133" lon="6.9078">
        <ele>937.3</ele>
        <time>2022-05-28T09:42:01Z</time>
      </trkpt>
      <trkpt lat="48.07126" lon="6.90769">
        <ele>938.5</ele>
        <time>2022-05-28T09:42:09Z</time>
      </trkpt>
      <trkpt lat="48.07121" lon="6.90757">
        <ele>939.7</ele>
        <time>2022-05-28T09:42:17Z</time>
      </trkpt>
      <trkpt lat="48.07115" lon="6.90746">
        <ele>941.6</ele>
        <time>2022-05-28T09:42:24Z</time>
      </trkpt>
      <trkpt lat="48.07108" lon="6.90736">
        <ele>942.6</ele>
        <time>2022-05-28T09:42:31Z</time>
      </trkpt>
      <trkpt lat="48.07101" lon="6.90726">
        <ele>945.2</ele>
        <time>2022-05-28T09:42:40Z</time>
      </trkpt>
      <trkpt lat="48.07094" lon="6.90717">
        <ele>947.2</ele>
        <time>2022-05-28T09:42:49Z</time>
      </trkpt>
      <trkpt lat="48.07089" lon="6.90704">
        <ele>949.6</ele>
        <time>2022-05-28T09:42:56Z</time>
      </trkpt>
      <trkpt lat="48.07087" lon="6.90691">
        <ele>951.3</ele>
        <time>2022-05-28T09:43:05Z</time>
      </trkpt>
      <trkpt lat="48.07083" lon="6.90678">
        <ele>952.6</ele>
        <time>2022-05-28T09:43:12Z</time>
      </trkpt>
      <trkpt lat="48.07078" lon="6.90666">
        <ele>954.6</ele>
        <time>2022-05-28T09:43:22Z</time>
      </trkpt>
      <trkpt lat="48.07071" lon="6.90655">
        <ele>956.7</ele>
        <time>2022-05-28T09:43:30Z</time>
      </trkpt>
      <trkpt lat="48.0707" lon="6.90655">
        <ele>956.6</ele>
        <time>2022-05-28T09:43:33Z</time>
      </trkpt>
      <trkpt lat="48.0707" lon="6.90654">
        <ele>956.8</ele>
        <time>2022-05-28T09:43:37Z</time>
      </trkpt>
      <trkpt lat="48.07064" lon="6.90641">
        <ele>959.1</ele>
        <time>2022-05-28T09:43:49Z</time>
      </trkpt>
      <trkpt lat="48.07064" lon="6.90628">
        <ele>961</ele>
        <time>2022-05-28T09:44:05Z</time>
      </trkpt>
      <trkpt lat="48.07066" lon="6.90628">
        <ele>961.2</ele>
        <time>2022-05-28T09:44:10Z</time>
      </trkpt>
      <trkpt lat="48.07065" lon="6.90628">
        <ele>961.8</ele>
        <time>2022-05-28T09:44:29Z</time>
      </trkpt>
      <trkpt lat="48.07065" lon="6.90627">
        <ele>962</ele>
        <time>2022-05-28T09:45:11Z</time>
      </trkpt>
      <trkpt lat="48.07064" lon="6.90625">
        <ele>962</ele>
        <time>2022-05-28T09:45:14Z</time>
      </trkpt>
      <trkpt lat="48.07065" lon="6.90625">
        <ele>962.3</ele>
        <time>2022-05-28T09:45:37Z</time>
      </trkpt>
      <trkpt lat="48.07074" lon="6.90619">
        <ele>962.6</ele>
        <time>2022-05-28T09:45:45Z</time>
      </trkpt>
      <trkpt lat="48.07084" lon="6.90621">
        <ele>964.3</ele>
        <time>2022-05-28T09:45:52Z</time>
      </trkpt>
      <trkpt lat="48.07095" lon="6.90622">
        <ele>964.7</ele>
        <time>2022-05-28T09:45:57Z</time>
      </trkpt>
      <trkpt lat="48.07104" lon="6.90619">
        <ele>964.7</ele>
        <time>2022-05-28T09:46:03Z</time>
      </trkpt>
      <trkpt lat="48.07112" lon="6.90615">
        <ele>965.6</ele>
        <time>2022-05-28T09:46:07Z</time>
      </trkpt>
      <trkpt lat="48.07121" lon="6.90609">
        <ele>965.9</ele>
        <time>2022-05-28T09:46:11Z</time>
      </trkpt>
      <trkpt lat="48.07129" lon="6.90602">
        <ele>965.9</ele>
        <time>2022-05-28T09:46:15Z</time>
      </trkpt>
      <trkpt lat="48.07139" lon="6.90594">
        <ele>965.7</ele>
        <time>2022-05-28T09:46:19Z</time>
      </trkpt>
      <trkpt lat="48.07149" lon="6.90585">
        <ele>965.7</ele>
        <time>2022-05-28T09:46:23Z</time>
      </trkpt>
      <trkpt lat="48.07159" lon="6.90575">
        <ele>966.2</ele>
        <time>2022-05-28T09:46:27Z</time>
      </trkpt>
      <trkpt lat="48.07166" lon="6.90563">
        <ele>965.8</ele>
        <time>2022-05-28T09:46:30Z</time>
      </trkpt>
      <trkpt lat="48.07171" lon="6.90552">
        <ele>965.5</ele>
        <time>2022-05-28T09:46:33Z</time>
      </trkpt>
      <trkpt lat="48.07174" lon="6.90537">
        <ele>965</ele>
        <time>2022-05-28T09:46:36Z</time>
      </trkpt>
      <trkpt lat="48.07177" lon="6.90521">
        <ele>966.1</ele>
        <time>2022-05-28T09:46:39Z</time>
      </trkpt>
      <trkpt lat="48.0718" lon="6.90509">
        <ele>967.3</ele>
        <time>2022-05-28T09:46:41Z</time>
      </trkpt>
      <trkpt lat="48.07183" lon="6.9049">
        <ele>966.3</ele>
        <time>2022-05-28T09:46:44Z</time>
      </trkpt>
      <trkpt lat="48.07184" lon="6.9047">
        <ele>965.6</ele>
        <time>2022-05-28T09:46:47Z</time>
      </trkpt>
      <trkpt lat="48.07186" lon="6.90452">
        <ele>966.5</ele>
        <time>2022-05-28T09:46:50Z</time>
      </trkpt>
      <trkpt lat="48.07186" lon="6.90433">
        <ele>965.6</ele>
        <time>2022-05-28T09:46:53Z</time>
      </trkpt>
      <trkpt lat="48.07186" lon="6.90415">
        <ele>965.4</ele>
        <time>2022-05-28T09:46:56Z</time>
      </trkpt>
      <trkpt lat="48.07185" lon="6.90402">
        <ele>965.1</ele>
        <time>2022-05-28T09:46:58Z</time>
      </trkpt>
      <trkpt lat="48.07184" lon="6.90388">
        <ele>964.4</ele>
        <time>2022-05-28T09:47:00Z</time>
      </trkpt>
      <trkpt lat="48.07181" lon="6.90374">
        <ele>963.4</ele>
        <time>2022-05-28T09:47:02Z</time>
      </trkpt>
      <trkpt lat="48.07179" lon="6.90361">
        <ele>965.3</ele>
        <time>2022-05-28T09:47:04Z</time>
      </trkpt>
      <trkpt lat="48.07176" lon="6.90348">
        <ele>965</ele>
        <time>2022-05-28T09:47:06Z</time>
      </trkpt>
      <trkpt lat="48.07172" lon="6.90334">
        <ele>964.9</ele>
        <time>2022-05-28T09:47:08Z</time>
      </trkpt>
      <trkpt lat="48.07169" lon="6.90319">
        <ele>965.4</ele>
        <time>2022-05-28T09:47:10Z</time>
      </trkpt>
      <trkpt lat="48.07164" lon="6.90303">
        <ele>962.5</ele>
        <time>2022-05-28T09:47:12Z</time>
      </trkpt>
      <trkpt lat="48.0716" lon="6.90288">
        <ele>962.6</ele>
        <time>2022-05-28T09:47:14Z</time>
      </trkpt>
      <trkpt lat="48.07156" lon="6.90273">
        <ele>963.2</ele>
        <time>2022-05-28T09:47:16Z</time>
      </trkpt>
      <trkpt lat="48.07152" lon="6.9026">
        <ele>963.4</ele>
        <time>2022-05-28T09:47:18Z</time>
      </trkpt>
      <trkpt lat="48.07149" lon="6.90247">
        <ele>965.1</ele>
        <time>2022-05-28T09:47:20Z</time>
      </trkpt>
      <trkpt lat="48.07145" lon="6.90234">
        <ele>964</ele>
        <time>2022-05-28T09:47:22Z</time>
      </trkpt>
      <trkpt lat="48.07141" lon="6.90221">
        <ele>963.5</ele>
        <time>2022-05-28T09:47:24Z</time>
      </trkpt>
      <trkpt lat="48.07138" lon="6.90209">
        <ele>963.9</ele>
        <time>2022-05-28T09:47:26Z</time>
      </trkpt>
      <trkpt lat="48.07132" lon="6.90197">
        <ele>964.5</ele>
        <time>2022-05-28T09:47:28Z</time>
      </trkpt>
      <trkpt lat="48.07123" lon="6.90191">
        <ele>965.8</ele>
        <time>2022-05-28T09:47:30Z</time>
      </trkpt>
      <trkpt lat="48.07112" lon="6.90193">
        <ele>966.1</ele>
        <time>2022-05-28T09:47:33Z</time>
      </trkpt>
      <trkpt lat="48.07103" lon="6.90198">
        <ele>967.1</ele>
        <time>2022-05-28T09:47:36Z</time>
      </trkpt>
      <trkpt lat="48.07094" lon="6.90203">
        <ele>968.4</ele>
        <time>2022-05-28T09:47:40Z</time>
      </trkpt>
      <trkpt lat="48.07085" lon="6.90207">
        <ele>969.5</ele>
        <time>2022-05-28T09:47:44Z</time>
      </trkpt>
      <trkpt lat="48.07076" lon="6.90212">
        <ele>971</ele>
        <time>2022-05-28T09:47:48Z</time>
      </trkpt>
      <trkpt lat="48.07066" lon="6.90218">
        <ele>971.6</ele>
        <time>2022-05-28T09:47:52Z</time>
      </trkpt>
      <trkpt lat="48.07057" lon="6.90225">
        <ele>972.4</ele>
        <time>2022-05-28T09:47:56Z</time>
      </trkpt>
      <trkpt lat="48.07049" lon="6.9023">
        <ele>973.9</ele>
        <time>2022-05-28T09:48:00Z</time>
      </trkpt>
      <trkpt lat="48.0704" lon="6.90234">
        <ele>973.9</ele>
        <time>2022-05-28T09:48:04Z</time>
      </trkpt>
      <trkpt lat="48.0703" lon="6.90237">
        <ele>974.1</ele>
        <time>2022-05-28T09:48:08Z</time>
      </trkpt>
      <trkpt lat="48.07021" lon="6.9024">
        <ele>974.4</ele>
        <time>2022-05-28T09:48:12Z</time>
      </trkpt>
      <trkpt lat="48.07011" lon="6.90245">
        <ele>974.8</ele>
        <time>2022-05-28T09:48:16Z</time>
      </trkpt>
      <trkpt lat="48.07002" lon="6.90251">
        <ele>973.9</ele>
        <time>2022-05-28T09:48:19Z</time>
      </trkpt>
      <trkpt lat="48.06994" lon="6.90259">
        <ele>973.7</ele>
        <time>2022-05-28T09:48:22Z</time>
      </trkpt>
      <trkpt lat="48.06985" lon="6.90267">
        <ele>972.9</ele>
        <time>2022-05-28T09:48:25Z</time>
      </trkpt>
      <trkpt lat="48.06976" lon="6.90275">
        <ele>973.6</ele>
        <time>2022-05-28T09:48:28Z</time>
      </trkpt>
      <trkpt lat="48.06966" lon="6.90282">
        <ele>973.8</ele>
        <time>2022-05-28T09:48:32Z</time>
      </trkpt>
      <trkpt lat="48.06956" lon="6.90288">
        <ele>972.4</ele>
        <time>2022-05-28T09:48:35Z</time>
      </trkpt>
      <trkpt lat="48.06943" lon="6.90293">
        <ele>971</ele>
        <time>2022-05-28T09:48:38Z</time>
      </trkpt>
      <trkpt lat="48.06933" lon="6.903">
        <ele>970.3</ele>
        <time>2022-05-28T09:48:40Z</time>
      </trkpt>
      <trkpt lat="48.06922" lon="6.9031">
        <ele>970.7</ele>
        <time>2022-05-28T09:48:42Z</time>
      </trkpt>
      <trkpt lat="48.06913" lon="6.90328">
        <ele>967.6</ele>
        <time>2022-05-28T09:48:44Z</time>
      </trkpt>
      <trkpt lat="48.06905" lon="6.90346">
        <ele>967.9</ele>
        <time>2022-05-28T09:48:46Z</time>
      </trkpt>
      <trkpt lat="48.06899" lon="6.90361">
        <ele>968.2</ele>
        <time>2022-05-28T09:48:48Z</time>
      </trkpt>
      <trkpt lat="48.06893" lon="6.90376">
        <ele>969.1</ele>
        <time>2022-05-28T09:48:50Z</time>
      </trkpt>
      <trkpt lat="48.06888" lon="6.9039">
        <ele>970.1</ele>
        <time>2022-05-28T09:48:52Z</time>
      </trkpt>
      <trkpt lat="48.06885" lon="6.90404">
        <ele>969.3</ele>
        <time>2022-05-28T09:48:54Z</time>
      </trkpt>
      <trkpt lat="48.0688" lon="6.90417">
        <ele>968.8</ele>
        <time>2022-05-28T09:48:56Z</time>
      </trkpt>
      <trkpt lat="48.06877" lon="6.90431">
        <ele>968.5</ele>
        <time>2022-05-28T09:48:58Z</time>
      </trkpt>
      <trkpt lat="48.06873" lon="6.90446">
        <ele>969.2</ele>
        <time>2022-05-28T09:49:00Z</time>
      </trkpt>
      <trkpt lat="48.0687" lon="6.90459">
        <ele>970</ele>
        <time>2022-05-28T09:49:02Z</time>
      </trkpt>
      <trkpt lat="48.06866" lon="6.90477">
        <ele>969.4</ele>
        <time>2022-05-28T09:49:05Z</time>
      </trkpt>
      <trkpt lat="48.06866" lon="6.90494">
        <ele>970.8</ele>
        <time>2022-05-28T09:49:08Z</time>
      </trkpt>
      <trkpt lat="48.06871" lon="6.90507">
        <ele>970.7</ele>
        <time>2022-05-28T09:49:11Z</time>
      </trkpt>
      <trkpt lat="48.06879" lon="6.90518">
        <ele>970.4</ele>
        <time>2022-05-28T09:49:14Z</time>
      </trkpt>
      <trkpt lat="48.06888" lon="6.90529">
        <ele>970.8</ele>
        <time>2022-05-28T09:49:17Z</time>
      </trkpt>
      <trkpt lat="48.06896" lon="6.9054">
        <ele>970.6</ele>
        <time>2022-05-28T09:49:20Z</time>
      </trkpt>
      <trkpt lat="48.06904" lon="6.9055">
        <ele>971.2</ele>
        <time>2022-05-28T09:49:23Z</time>
      </trkpt>
      <trkpt lat="48.06912" lon="6.90559">
        <ele>971.3</ele>
        <time>2022-05-28T09:49:26Z</time>
      </trkpt>
      <trkpt lat="48.06916" lon="6.90573">
        <ele>971.1</ele>
        <time>2022-05-28T09:49:29Z</time>
      </trkpt>
      <trkpt lat="48.06921" lon="6.90586">
        <ele>971.7</ele>
        <time>2022-05-28T09:49:32Z</time>
      </trkpt>
      <trkpt lat="48.06927" lon="6.90598">
        <ele>972.6</ele>
        <time>2022-05-28T09:49:35Z</time>
      </trkpt>
      <trkpt lat="48.06932" lon="6.9061">
        <ele>972.8</ele>
        <time>2022-05-28T09:49:38Z</time>
      </trkpt>
      <trkpt lat="48.06937" lon="6.90625">
        <ele>974</ele>
        <time>2022-05-28T09:49:42Z</time>
      </trkpt>
      <trkpt lat="48.06944" lon="6.90637">
        <ele>976.2</ele>
        <time>2022-05-28T09:49:45Z</time>
      </trkpt>
      <trkpt lat="48.06951" lon="6.9065">
        <ele>974.9</ele>
        <time>2022-05-28T09:49:48Z</time>
      </trkpt>
      <trkpt lat="48.06955" lon="6.90668">
        <ele>974.9</ele>
        <time>2022-05-28T09:49:51Z</time>
      </trkpt>
      <trkpt lat="48.0696" lon="6.90683">
        <ele>974.9</ele>
        <time>2022-05-28T09:49:54Z</time>
      </trkpt>
      <trkpt lat="48.06965" lon="6.907">
        <ele>973.7</ele>
        <time>2022-05-28T09:49:57Z</time>
      </trkpt>
      <trkpt lat="48.0697" lon="6.90716">
        <ele>974.8</ele>
        <time>2022-05-28T09:50:00Z</time>
      </trkpt>
      <trkpt lat="48.06975" lon="6.90729">
        <ele>974.5</ele>
        <time>2022-05-28T09:50:03Z</time>
      </trkpt>
      <trkpt lat="48.06977" lon="6.90744">
        <ele>974.6</ele>
        <time>2022-05-28T09:50:06Z</time>
      </trkpt>
      <trkpt lat="48.0698" lon="6.90758">
        <ele>973.3</ele>
        <time>2022-05-28T09:50:09Z</time>
      </trkpt>
      <trkpt lat="48.06983" lon="6.90775">
        <ele>973.1</ele>
        <time>2022-05-28T09:50:12Z</time>
      </trkpt>
      <trkpt lat="48.06979" lon="6.90793">
        <ele>974.6</ele>
        <time>2022-05-28T09:50:15Z</time>
      </trkpt>
      <trkpt lat="48.06974" lon="6.9081">
        <ele>974.7</ele>
        <time>2022-05-28T09:50:18Z</time>
      </trkpt>
      <trkpt lat="48.0697" lon="6.90822">
        <ele>976.5</ele>
        <time>2022-05-28T09:50:20Z</time>
      </trkpt>
      <trkpt lat="48.06963" lon="6.90837">
        <ele>976.3</ele>
        <time>2022-05-28T09:50:23Z</time>
      </trkpt>
      <trkpt lat="48.06956" lon="6.90851">
        <ele>978</ele>
        <time>2022-05-28T09:50:26Z</time>
      </trkpt>
      <trkpt lat="48.06951" lon="6.90863">
        <ele>978.5</ele>
        <time>2022-05-28T09:50:29Z</time>
      </trkpt>
      <trkpt lat="48.06943" lon="6.90873">
        <ele>977.4</ele>
        <time>2022-05-28T09:50:32Z</time>
      </trkpt>
      <trkpt lat="48.06936" lon="6.90884">
        <ele>979</ele>
        <time>2022-05-28T09:50:35Z</time>
      </trkpt>
      <trkpt lat="48.06928" lon="6.90895">
        <ele>980.7</ele>
        <time>2022-05-28T09:50:39Z</time>
      </trkpt>
      <trkpt lat="48.06921" lon="6.90907">
        <ele>980.2</ele>
        <time>2022-05-28T09:50:43Z</time>
      </trkpt>
      <trkpt lat="48.06913" lon="6.90919">
        <ele>982.6</ele>
        <time>2022-05-28T09:50:47Z</time>
      </trkpt>
      <trkpt lat="48.06904" lon="6.90929">
        <ele>982.6</ele>
        <time>2022-05-28T09:50:51Z</time>
      </trkpt>
      <trkpt lat="48.06895" lon="6.90938">
        <ele>983.5</ele>
        <time>2022-05-28T09:50:55Z</time>
      </trkpt>
      <trkpt lat="48.06886" lon="6.90945">
        <ele>984.7</ele>
        <time>2022-05-28T09:51:00Z</time>
      </trkpt>
      <trkpt lat="48.06878" lon="6.90954">
        <ele>986.7</ele>
        <time>2022-05-28T09:51:05Z</time>
      </trkpt>
      <trkpt lat="48.06869" lon="6.90962">
        <ele>987.5</ele>
        <time>2022-05-28T09:51:10Z</time>
      </trkpt>
      <trkpt lat="48.0686" lon="6.90969">
        <ele>989.3</ele>
        <time>2022-05-28T09:51:15Z</time>
      </trkpt>
      <trkpt lat="48.06851" lon="6.90976">
        <ele>989.9</ele>
        <time>2022-05-28T09:51:20Z</time>
      </trkpt>
      <trkpt lat="48.06842" lon="6.90983">
        <ele>990.8</ele>
        <time>2022-05-28T09:51:25Z</time>
      </trkpt>
      <trkpt lat="48.06833" lon="6.90992">
        <ele>993.1</ele>
        <time>2022-05-28T09:51:30Z</time>
      </trkpt>
      <trkpt lat="48.06824" lon="6.91002">
        <ele>994.4</ele>
        <time>2022-05-28T09:51:35Z</time>
      </trkpt>
      <trkpt lat="48.06816" lon="6.9101">
        <ele>994.2</ele>
        <time>2022-05-28T09:51:40Z</time>
      </trkpt>
      <trkpt lat="48.06808" lon="6.91017">
        <ele>995.7</ele>
        <time>2022-05-28T09:51:45Z</time>
      </trkpt>
      <trkpt lat="48.068" lon="6.91024">
        <ele>997.3</ele>
        <time>2022-05-28T09:51:50Z</time>
      </trkpt>
      <trkpt lat="48.06791" lon="6.91031">
        <ele>998.2</ele>
        <time>2022-05-28T09:51:55Z</time>
      </trkpt>
      <trkpt lat="48.06783" lon="6.91039">
        <ele>999.4</ele>
        <time>2022-05-28T09:52:00Z</time>
      </trkpt>
      <trkpt lat="48.06774" lon="6.91048">
        <ele>999.6</ele>
        <time>2022-05-28T09:52:05Z</time>
      </trkpt>
      <trkpt lat="48.06765" lon="6.91056">
        <ele>1001.3</ele>
        <time>2022-05-28T09:52:10Z</time>
      </trkpt>
      <trkpt lat="48.06756" lon="6.91064">
        <ele>1002.1</ele>
        <time>2022-05-28T09:52:15Z</time>
      </trkpt>
      <trkpt lat="48.06747" lon="6.91072">
        <ele>1002.8</ele>
        <time>2022-05-28T09:52:20Z</time>
      </trkpt>
      <trkpt lat="48.06738" lon="6.91079">
        <ele>1003.7</ele>
        <time>2022-05-28T09:52:25Z</time>
      </trkpt>
      <trkpt lat="48.06728" lon="6.91085">
        <ele>1004.6</ele>
        <time>2022-05-28T09:52:30Z</time>
      </trkpt>
      <trkpt lat="48.06719" lon="6.91089">
        <ele>1005.5</ele>
        <time>2022-05-28T09:52:35Z</time>
      </trkpt>
      <trkpt lat="48.06709" lon="6.91087">
        <ele>1006.1</ele>
        <time>2022-05-28T09:52:41Z</time>
      </trkpt>
      <trkpt lat="48.067" lon="6.91082">
        <ele>1006.3</ele>
        <time>2022-05-28T09:52:46Z</time>
      </trkpt>
      <trkpt lat="48.06691" lon="6.91078">
        <ele>1006.6</ele>
        <time>2022-05-28T09:52:50Z</time>
      </trkpt>
      <trkpt lat="48.06682" lon="6.91076">
        <ele>1007.8</ele>
        <time>2022-05-28T09:52:54Z</time>
      </trkpt>
      <trkpt lat="48.06672" lon="6.91071">
        <ele>1007.9</ele>
        <time>2022-05-28T09:52:58Z</time>
      </trkpt>
      <trkpt lat="48.06662" lon="6.91068">
        <ele>1007.1</ele>
        <time>2022-05-28T09:53:02Z</time>
      </trkpt>
      <trkpt lat="48.06653" lon="6.91067">
        <ele>1007.6</ele>
        <time>2022-05-28T09:53:06Z</time>
      </trkpt>
      <trkpt lat="48.06644" lon="6.91063">
        <ele>1007.2</ele>
        <time>2022-05-28T09:53:10Z</time>
      </trkpt>
      <trkpt lat="48.06635" lon="6.9106">
        <ele>1006.8</ele>
        <time>2022-05-28T09:53:13Z</time>
      </trkpt>
      <trkpt lat="48.06625" lon="6.9106">
        <ele>1005.7</ele>
        <time>2022-05-28T09:53:16Z</time>
      </trkpt>
      <trkpt lat="48.06614" lon="6.91057">
        <ele>1004.7</ele>
        <time>2022-05-28T09:53:19Z</time>
      </trkpt>
      <trkpt lat="48.06603" lon="6.91057">
        <ele>1004.4</ele>
        <time>2022-05-28T09:53:22Z</time>
      </trkpt>
      <trkpt lat="48.06593" lon="6.91068">
        <ele>1002.8</ele>
        <time>2022-05-28T09:53:25Z</time>
      </trkpt>
      <trkpt lat="48.06589" lon="6.91082">
        <ele>1003.3</ele>
        <time>2022-05-28T09:53:28Z</time>
      </trkpt>
      <trkpt lat="48.06585" lon="6.91099">
        <ele>1004</ele>
        <time>2022-05-28T09:53:32Z</time>
      </trkpt>
      <trkpt lat="48.06582" lon="6.91113">
        <ele>1004.9</ele>
        <time>2022-05-28T09:53:35Z</time>
      </trkpt>
      <trkpt lat="48.06577" lon="6.91128">
        <ele>1005.2</ele>
        <time>2022-05-28T09:53:38Z</time>
      </trkpt>
      <trkpt lat="48.06572" lon="6.91142">
        <ele>1006.4</ele>
        <time>2022-05-28T09:53:41Z</time>
      </trkpt>
      <trkpt lat="48.06567" lon="6.91156">
        <ele>1006.4</ele>
        <time>2022-05-28T09:53:44Z</time>
      </trkpt>
      <trkpt lat="48.06563" lon="6.91169">
        <ele>1006.9</ele>
        <time>2022-05-28T09:53:47Z</time>
      </trkpt>
      <trkpt lat="48.06558" lon="6.91182">
        <ele>1008.8</ele>
        <time>2022-05-28T09:53:50Z</time>
      </trkpt>
      <trkpt lat="48.06553" lon="6.91193">
        <ele>1007.8</ele>
        <time>2022-05-28T09:53:53Z</time>
      </trkpt>
      <trkpt lat="48.06546" lon="6.91203">
        <ele>1007.5</ele>
        <time>2022-05-28T09:53:56Z</time>
      </trkpt>
      <trkpt lat="48.0654" lon="6.91215">
        <ele>1008.3</ele>
        <time>2022-05-28T09:53:59Z</time>
      </trkpt>
      <trkpt lat="48.06531" lon="6.91226">
        <ele>1008</ele>
        <time>2022-05-28T09:54:02Z</time>
      </trkpt>
      <trkpt lat="48.06524" lon="6.91239">
        <ele>1007.3</ele>
        <time>2022-05-28T09:54:05Z</time>
      </trkpt>
      <trkpt lat="48.06518" lon="6.91252">
        <ele>1008.4</ele>
        <time>2022-05-28T09:54:08Z</time>
      </trkpt>
      <trkpt lat="48.06511" lon="6.91265">
        <ele>1008.5</ele>
        <time>2022-05-28T09:54:11Z</time>
      </trkpt>
      <trkpt lat="48.06506" lon="6.91279">
        <ele>1008.5</ele>
        <time>2022-05-28T09:54:14Z</time>
      </trkpt>
      <trkpt lat="48.065" lon="6.91293">
        <ele>1010.7</ele>
        <time>2022-05-28T09:54:17Z</time>
      </trkpt>
      <trkpt lat="48.06492" lon="6.91304">
        <ele>1009.2</ele>
        <time>2022-05-28T09:54:20Z</time>
      </trkpt>
      <trkpt lat="48.06484" lon="6.91315">
        <ele>1010.2</ele>
        <time>2022-05-28T09:54:23Z</time>
      </trkpt>
      <trkpt lat="48.06477" lon="6.91327">
        <ele>1011.7</ele>
        <time>2022-05-28T09:54:26Z</time>
      </trkpt>
      <trkpt lat="48.06471" lon="6.91341">
        <ele>1010.9</ele>
        <time>2022-05-28T09:54:29Z</time>
      </trkpt>
      <trkpt lat="48.06465" lon="6.91356">
        <ele>1011.6</ele>
        <time>2022-05-28T09:54:32Z</time>
      </trkpt>
      <trkpt lat="48.0646" lon="6.9137">
        <ele>1011.5</ele>
        <time>2022-05-28T09:54:35Z</time>
      </trkpt>
      <trkpt lat="48.06454" lon="6.91385">
        <ele>1011.6</ele>
        <time>2022-05-28T09:54:38Z</time>
      </trkpt>
      <trkpt lat="48.0645" lon="6.91401">
        <ele>1011.6</ele>
        <time>2022-05-28T09:54:41Z</time>
      </trkpt>
      <trkpt lat="48.06445" lon="6.91417">
        <ele>1012</ele>
        <time>2022-05-28T09:54:44Z</time>
      </trkpt>
      <trkpt lat="48.06443" lon="6.91435">
        <ele>1012.7</ele>
        <time>2022-05-28T09:54:47Z</time>
      </trkpt>
      <trkpt lat="48.06442" lon="6.91451">
        <ele>1013.1</ele>
        <time>2022-05-28T09:54:50Z</time>
      </trkpt>
      <trkpt lat="48.06441" lon="6.91469">
        <ele>1011.7</ele>
        <time>2022-05-28T09:54:53Z</time>
      </trkpt>
      <trkpt lat="48.06439" lon="6.91489">
        <ele>1011.9</ele>
        <time>2022-05-28T09:54:56Z</time>
      </trkpt>
      <trkpt lat="48.06438" lon="6.91502">
        <ele>1010.5</ele>
        <time>2022-05-28T09:54:58Z</time>
      </trkpt>
      <trkpt lat="48.06436" lon="6.91515">
        <ele>1011.1</ele>
        <time>2022-05-28T09:55:00Z</time>
      </trkpt>
      <trkpt lat="48.06433" lon="6.9153">
        <ele>1010.4</ele>
        <time>2022-05-28T09:55:02Z</time>
      </trkpt>
      <trkpt lat="48.06428" lon="6.91542">
        <ele>1009.8</ele>
        <time>2022-05-28T09:55:04Z</time>
      </trkpt>
      <trkpt lat="48.06423" lon="6.91555">
        <ele>1011.1</ele>
        <time>2022-05-28T09:55:06Z</time>
      </trkpt>
      <trkpt lat="48.06416" lon="6.91572">
        <ele>1009.7</ele>
        <time>2022-05-28T09:55:09Z</time>
      </trkpt>
      <trkpt lat="48.06409" lon="6.91588">
        <ele>1010.4</ele>
        <time>2022-05-28T09:55:12Z</time>
      </trkpt>
      <trkpt lat="48.06401" lon="6.91602">
        <ele>1010.4</ele>
        <time>2022-05-28T09:55:15Z</time>
      </trkpt>
      <trkpt lat="48.06391" lon="6.91613">
        <ele>1010.3</ele>
        <time>2022-05-28T09:55:18Z</time>
      </trkpt>
      <trkpt lat="48.06381" lon="6.91624">
        <ele>1011.3</ele>
        <time>2022-05-28T09:55:21Z</time>
      </trkpt>
      <trkpt lat="48.06371" lon="6.91637">
        <ele>1009</ele>
        <time>2022-05-28T09:55:24Z</time>
      </trkpt>
      <trkpt lat="48.06361" lon="6.91644">
        <ele>1009.5</ele>
        <time>2022-05-28T09:55:27Z</time>
      </trkpt>
      <trkpt lat="48.0635" lon="6.91641">
        <ele>1009.1</ele>
        <time>2022-05-28T09:55:30Z</time>
      </trkpt>
      <trkpt lat="48.06341" lon="6.91631">
        <ele>1006.5</ele>
        <time>2022-05-28T09:55:33Z</time>
      </trkpt>
      <trkpt lat="48.06334" lon="6.91622">
        <ele>1007.4</ele>
        <time>2022-05-28T09:55:35Z</time>
      </trkpt>
      <trkpt lat="48.06327" lon="6.91612">
        <ele>1008.1</ele>
        <time>2022-05-28T09:55:37Z</time>
      </trkpt>
      <trkpt lat="48.06321" lon="6.916">
        <ele>1007.6</ele>
        <time>2022-05-28T09:55:39Z</time>
      </trkpt>
      <trkpt lat="48.06318" lon="6.91585">
        <ele>1006.5</ele>
        <time>2022-05-28T09:55:41Z</time>
      </trkpt>
      <trkpt lat="48.06315" lon="6.91571">
        <ele>1005.6</ele>
        <time>2022-05-28T09:55:43Z</time>
      </trkpt>
      <trkpt lat="48.06314" lon="6.91557">
        <ele>1004.4</ele>
        <time>2022-05-28T09:55:45Z</time>
      </trkpt>
      <trkpt lat="48.06315" lon="6.91542">
        <ele>1002.4</ele>
        <time>2022-05-28T09:55:47Z</time>
      </trkpt>
      <trkpt lat="48.06313" lon="6.91523">
        <ele>1002.6</ele>
        <time>2022-05-28T09:55:50Z</time>
      </trkpt>
      <trkpt lat="48.06304" lon="6.91517">
        <ele>1002.4</ele>
        <time>2022-05-28T09:55:52Z</time>
      </trkpt>
      <trkpt lat="48.06295" lon="6.91525">
        <ele>1002.6</ele>
        <time>2022-05-28T09:55:55Z</time>
      </trkpt>
      <trkpt lat="48.06289" lon="6.91539">
        <ele>1003.9</ele>
        <time>2022-05-28T09:55:59Z</time>
      </trkpt>
      <trkpt lat="48.06286" lon="6.91557">
        <ele>1004.1</ele>
        <time>2022-05-28T09:56:03Z</time>
      </trkpt>
      <trkpt lat="48.06282" lon="6.91575">
        <ele>1003.4</ele>
        <time>2022-05-28T09:56:06Z</time>
      </trkpt>
      <trkpt lat="48.06279" lon="6.9159">
        <ele>1004.3</ele>
        <time>2022-05-28T09:56:09Z</time>
      </trkpt>
      <trkpt lat="48.06272" lon="6.91601">
        <ele>1004.5</ele>
        <time>2022-05-28T09:56:12Z</time>
      </trkpt>
      <trkpt lat="48.06265" lon="6.91614">
        <ele>1005.2</ele>
        <time>2022-05-28T09:56:15Z</time>
      </trkpt>
      <trkpt lat="48.06259" lon="6.91628">
        <ele>1004.9</ele>
        <time>2022-05-28T09:56:18Z</time>
      </trkpt>
      <trkpt lat="48.06252" lon="6.91638">
        <ele>1005.4</ele>
        <time>2022-05-28T09:56:21Z</time>
      </trkpt>
      <trkpt lat="48.06244" lon="6.91646">
        <ele>1006.4</ele>
        <time>2022-05-28T09:56:24Z</time>
      </trkpt>
      <trkpt lat="48.06236" lon="6.91653">
        <ele>1007</ele>
        <time>2022-05-28T09:56:27Z</time>
      </trkpt>
      <trkpt lat="48.06227" lon="6.91657">
        <ele>1007.5</ele>
        <time>2022-05-28T09:56:30Z</time>
      </trkpt>
      <trkpt lat="48.06217" lon="6.91663">
        <ele>1008.3</ele>
        <time>2022-05-28T09:56:34Z</time>
      </trkpt>
      <trkpt lat="48.06206" lon="6.91667">
        <ele>1009.3</ele>
        <time>2022-05-28T09:56:38Z</time>
      </trkpt>
      <trkpt lat="48.06194" lon="6.91672">
        <ele>1009.7</ele>
        <time>2022-05-28T09:56:42Z</time>
      </trkpt>
      <trkpt lat="48.06185" lon="6.91674">
        <ele>1010.6</ele>
        <time>2022-05-28T09:56:46Z</time>
      </trkpt>
      <trkpt lat="48.06175" lon="6.91679">
        <ele>1011.4</ele>
        <time>2022-05-28T09:56:50Z</time>
      </trkpt>
      <trkpt lat="48.06167" lon="6.91685">
        <ele>1012.9</ele>
        <time>2022-05-28T09:56:54Z</time>
      </trkpt>
      <trkpt lat="48.06156" lon="6.91689">
        <ele>1013.4</ele>
        <time>2022-05-28T09:56:58Z</time>
      </trkpt>
      <trkpt lat="48.06148" lon="6.91698">
        <ele>1014.2</ele>
        <time>2022-05-28T09:57:02Z</time>
      </trkpt>
      <trkpt lat="48.06142" lon="6.9171">
        <ele>1015.9</ele>
        <time>2022-05-28T09:57:06Z</time>
      </trkpt>
      <trkpt lat="48.06136" lon="6.91722">
        <ele>1015</ele>
        <time>2022-05-28T09:57:10Z</time>
      </trkpt>
      <trkpt lat="48.06128" lon="6.91733">
        <ele>1015.9</ele>
        <time>2022-05-28T09:57:14Z</time>
      </trkpt>
      <trkpt lat="48.06117" lon="6.91738">
        <ele>1015.7</ele>
        <time>2022-05-28T09:57:18Z</time>
      </trkpt>
      <trkpt lat="48.06107" lon="6.91741">
        <ele>1016.6</ele>
        <time>2022-05-28T09:57:22Z</time>
      </trkpt>
      <trkpt lat="48.06098" lon="6.91744">
        <ele>1017.5</ele>
        <time>2022-05-28T09:57:25Z</time>
      </trkpt>
      <trkpt lat="48.06088" lon="6.91748">
        <ele>1017.5</ele>
        <time>2022-05-28T09:57:28Z</time>
      </trkpt>
      <trkpt lat="48.06079" lon="6.91752">
        <ele>1018.2</ele>
        <time>2022-05-28T09:57:31Z</time>
      </trkpt>
      <trkpt lat="48.06068" lon="6.91754">
        <ele>1018.1</ele>
        <time>2022-05-28T09:57:35Z</time>
      </trkpt>
      <trkpt lat="48.06056" lon="6.91753">
        <ele>1019.6</ele>
        <time>2022-05-28T09:57:39Z</time>
      </trkpt>
      <trkpt lat="48.06047" lon="6.91752">
        <ele>1019.6</ele>
        <time>2022-05-28T09:57:42Z</time>
      </trkpt>
      <trkpt lat="48.06037" lon="6.91751">
        <ele>1020.2</ele>
        <time>2022-05-28T09:57:45Z</time>
      </trkpt>
      <trkpt lat="48.06027" lon="6.91752">
        <ele>1019.3</ele>
        <time>2022-05-28T09:57:48Z</time>
      </trkpt>
      <trkpt lat="48.06018" lon="6.91753">
        <ele>1019.5</ele>
        <time>2022-05-28T09:57:51Z</time>
      </trkpt>
      <trkpt lat="48.06008" lon="6.91754">
        <ele>1020</ele>
        <time>2022-05-28T09:57:54Z</time>
      </trkpt>
      <trkpt lat="48.05997" lon="6.91752">
        <ele>1020</ele>
        <time>2022-05-28T09:57:57Z</time>
      </trkpt>
      <trkpt lat="48.05986" lon="6.9175">
        <ele>1020.3</ele>
        <time>2022-05-28T09:58:00Z</time>
      </trkpt>
      <trkpt lat="48.05973" lon="6.91749">
        <ele>1019.2</ele>
        <time>2022-05-28T09:58:03Z</time>
      </trkpt>
      <trkpt lat="48.05964" lon="6.91748">
        <ele>1020</ele>
        <time>2022-05-28T09:58:05Z</time>
      </trkpt>
      <trkpt lat="48.05951" lon="6.91746">
        <ele>1019.7</ele>
        <time>2022-05-28T09:58:08Z</time>
      </trkpt>
      <trkpt lat="48.05939" lon="6.91746">
        <ele>1020.3</ele>
        <time>2022-05-28T09:58:11Z</time>
      </trkpt>
      <trkpt lat="48.05927" lon="6.91745">
        <ele>1021.5</ele>
        <time>2022-05-28T09:58:14Z</time>
      </trkpt>
      <trkpt lat="48.05916" lon="6.9174">
        <ele>1018.6</ele>
        <time>2022-05-28T09:58:17Z</time>
      </trkpt>
      <trkpt lat="48.05903" lon="6.91735">
        <ele>1019.9</ele>
        <time>2022-05-28T09:58:20Z</time>
      </trkpt>
      <trkpt lat="48.05894" lon="6.91732">
        <ele>1019.8</ele>
        <time>2022-05-28T09:58:22Z</time>
      </trkpt>
      <trkpt lat="48.05881" lon="6.91727">
        <ele>1020.1</ele>
        <time>2022-05-28T09:58:25Z</time>
      </trkpt>
      <trkpt lat="48.0587" lon="6.91723">
        <ele>1022</ele>
        <time>2022-05-28T09:58:28Z</time>
      </trkpt>
      <trkpt lat="48.0586" lon="6.91719">
        <ele>1023</ele>
        <time>2022-05-28T09:58:31Z</time>
      </trkpt>
      <trkpt lat="48.0585" lon="6.91715">
        <ele>1023.7</ele>
        <time>2022-05-28T09:58:34Z</time>
      </trkpt>
      <trkpt lat="48.05839" lon="6.9171">
        <ele>1022.3</ele>
        <time>2022-05-28T09:58:37Z</time>
      </trkpt>
      <trkpt lat="48.05827" lon="6.91702">
        <ele>1020.1</ele>
        <time>2022-05-28T09:58:40Z</time>
      </trkpt>
      <trkpt lat="48.05818" lon="6.91696">
        <ele>1021.7</ele>
        <time>2022-05-28T09:58:42Z</time>
      </trkpt>
      <trkpt lat="48.05806" lon="6.9169">
        <ele>1022.6</ele>
        <time>2022-05-28T09:58:45Z</time>
      </trkpt>
      <trkpt lat="48.05797" lon="6.91688">
        <ele>1023.2</ele>
        <time>2022-05-28T09:58:48Z</time>
      </trkpt>
      <trkpt lat="48.05787" lon="6.91686">
        <ele>1024.3</ele>
        <time>2022-05-28T09:58:51Z</time>
      </trkpt>
      <trkpt lat="48.05778" lon="6.91686">
        <ele>1026.2</ele>
        <time>2022-05-28T09:58:54Z</time>
      </trkpt>
      <trkpt lat="48.05768" lon="6.91686">
        <ele>1027</ele>
        <time>2022-05-28T09:58:57Z</time>
      </trkpt>
      <trkpt lat="48.05756" lon="6.91685">
        <ele>1027.7</ele>
        <time>2022-05-28T09:59:01Z</time>
      </trkpt>
      <trkpt lat="48.05747" lon="6.91681">
        <ele>1027.9</ele>
        <time>2022-05-28T09:59:05Z</time>
      </trkpt>
      <trkpt lat="48.05738" lon="6.9168">
        <ele>1029.4</ele>
        <time>2022-05-28T09:59:09Z</time>
      </trkpt>
      <trkpt lat="48.05727" lon="6.91677">
        <ele>1030.4</ele>
        <time>2022-05-28T09:59:13Z</time>
      </trkpt>
      <trkpt lat="48.05715" lon="6.91673">
        <ele>1031.3</ele>
        <time>2022-05-28T09:59:17Z</time>
      </trkpt>
      <trkpt lat="48.05705" lon="6.91677">
        <ele>1032.6</ele>
        <time>2022-05-28T09:59:21Z</time>
      </trkpt>
      <trkpt lat="48.05696" lon="6.91684">
        <ele>1032.6</ele>
        <time>2022-05-28T09:59:24Z</time>
      </trkpt>
      <trkpt lat="48.05687" lon="6.91682">
        <ele>1032.2</ele>
        <time>2022-05-28T09:59:34Z</time>
      </trkpt>
      <trkpt lat="48.05677" lon="6.91679">
        <ele>1030.2</ele>
        <time>2022-05-28T09:59:39Z</time>
      </trkpt>
      <trkpt lat="48.05666" lon="6.9168">
        <ele>1028.1</ele>
        <time>2022-05-28T09:59:44Z</time>
      </trkpt>
      <trkpt lat="48.05656" lon="6.91682">
        <ele>1026.7</ele>
        <time>2022-05-28T09:59:48Z</time>
      </trkpt>
      <trkpt lat="48.05647" lon="6.91686">
        <ele>1025</ele>
        <time>2022-05-28T09:59:51Z</time>
      </trkpt>
      <trkpt lat="48.05636" lon="6.91684">
        <ele>1024.5</ele>
        <time>2022-05-28T09:59:54Z</time>
      </trkpt>
      <trkpt lat="48.05624" lon="6.91677">
        <ele>1023.2</ele>
        <time>2022-05-28T09:59:57Z</time>
      </trkpt>
      <trkpt lat="48.05611" lon="6.91682">
        <ele>1021</ele>
        <time>2022-05-28T10:00:00Z</time>
      </trkpt>
      <trkpt lat="48.05605" lon="6.91692">
        <ele>1020.2</ele>
        <time>2022-05-28T10:00:02Z</time>
      </trkpt>
      <trkpt lat="48.05596" lon="6.91706">
        <ele>1018.6</ele>
        <time>2022-05-28T10:00:04Z</time>
      </trkpt>
      <trkpt lat="48.05589" lon="6.91722">
        <ele>1016.8</ele>
        <time>2022-05-28T10:00:06Z</time>
      </trkpt>
      <trkpt lat="48.05582" lon="6.91739">
        <ele>1016.5</ele>
        <time>2022-05-28T10:00:08Z</time>
      </trkpt>
      <trkpt lat="48.05577" lon="6.91757">
        <ele>1015.7</ele>
        <time>2022-05-28T10:00:10Z</time>
      </trkpt>
      <trkpt lat="48.05572" lon="6.91777">
        <ele>1015.1</ele>
        <time>2022-05-28T10:00:12Z</time>
      </trkpt>
      <trkpt lat="48.0557" lon="6.91793">
        <ele>1013</ele>
        <time>2022-05-28T10:00:14Z</time>
      </trkpt>
      <trkpt lat="48.05566" lon="6.91806">
        <ele>1013</ele>
        <time>2022-05-28T10:00:16Z</time>
      </trkpt>
      <trkpt lat="48.05561" lon="6.91822">
        <ele>1011.3</ele>
        <time>2022-05-28T10:00:18Z</time>
      </trkpt>
      <trkpt lat="48.05556" lon="6.91836">
        <ele>1013.2</ele>
        <time>2022-05-28T10:00:20Z</time>
      </trkpt>
      <trkpt lat="48.0555" lon="6.9185">
        <ele>1014.1</ele>
        <time>2022-05-28T10:00:23Z</time>
      </trkpt>
      <trkpt lat="48.05539" lon="6.91853">
        <ele>1008.9</ele>
        <time>2022-05-28T10:00:27Z</time>
      </trkpt>
      <trkpt lat="48.0553" lon="6.9185">
        <ele>1010.8</ele>
        <time>2022-05-28T10:00:30Z</time>
      </trkpt>
      <trkpt lat="48.05522" lon="6.91844">
        <ele>1008.9</ele>
        <time>2022-05-28T10:00:32Z</time>
      </trkpt>
      <trkpt lat="48.0551" lon="6.91838">
        <ele>1007.5</ele>
        <time>2022-05-28T10:00:35Z</time>
      </trkpt>
      <trkpt lat="48.055" lon="6.91843">
        <ele>1006.2</ele>
        <time>2022-05-28T10:00:39Z</time>
      </trkpt>
      <trkpt lat="48.05494" lon="6.91854">
        <ele>1006.2</ele>
        <time>2022-05-28T10:00:42Z</time>
      </trkpt>
      <trkpt lat="48.05485" lon="6.9186">
        <ele>1002.9</ele>
        <time>2022-05-28T10:00:45Z</time>
      </trkpt>
      <trkpt lat="48.05474" lon="6.91852">
        <ele>1000.5</ele>
        <time>2022-05-28T10:00:48Z</time>
      </trkpt>
      <trkpt lat="48.05467" lon="6.91835">
        <ele>999</ele>
        <time>2022-05-28T10:00:51Z</time>
      </trkpt>
      <trkpt lat="48.05462" lon="6.91819">
        <ele>998.3</ele>
        <time>2022-05-28T10:00:53Z</time>
      </trkpt>
      <trkpt lat="48.05453" lon="6.91804">
        <ele>994</ele>
        <time>2022-05-28T10:00:55Z</time>
      </trkpt>
      <trkpt lat="48.05441" lon="6.91792">
        <ele>991.7</ele>
        <time>2022-05-28T10:00:57Z</time>
      </trkpt>
      <trkpt lat="48.05432" lon="6.91785">
        <ele>990.9</ele>
        <time>2022-05-28T10:00:58Z</time>
      </trkpt>
      <trkpt lat="48.05423" lon="6.91779">
        <ele>987.7</ele>
        <time>2022-05-28T10:00:59Z</time>
      </trkpt>
      <trkpt lat="48.05413" lon="6.91772">
        <ele>984.6</ele>
        <time>2022-05-28T10:01:00Z</time>
      </trkpt>
      <trkpt lat="48.05398" lon="6.91761">
        <ele>987.7</ele>
        <time>2022-05-28T10:01:02Z</time>
      </trkpt>
      <trkpt lat="48.05388" lon="6.91749">
        <ele>987.9</ele>
        <time>2022-05-28T10:01:04Z</time>
      </trkpt>
      <trkpt lat="48.05385" lon="6.91736">
        <ele>987.1</ele>
        <time>2022-05-28T10:01:06Z</time>
      </trkpt>
      <trkpt lat="48.05389" lon="6.91721">
        <ele>986.4</ele>
        <time>2022-05-28T10:01:08Z</time>
      </trkpt>
      <trkpt lat="48.05396" lon="6.91703">
        <ele>986.7</ele>
        <time>2022-05-28T10:01:11Z</time>
      </trkpt>
      <trkpt lat="48.05402" lon="6.91689">
        <ele>982.6</ele>
        <time>2022-05-28T10:01:14Z</time>
      </trkpt>
      <trkpt lat="48.05406" lon="6.91671">
        <ele>985.6</ele>
        <time>2022-05-28T10:01:17Z</time>
      </trkpt>
      <trkpt lat="48.05408" lon="6.91655">
        <ele>983.4</ele>
        <time>2022-05-28T10:01:20Z</time>
      </trkpt>
      <trkpt lat="48.05413" lon="6.91634">
        <ele>981.5</ele>
        <time>2022-05-28T10:01:23Z</time>
      </trkpt>
      <trkpt lat="48.05414" lon="6.9162">
        <ele>980.5</ele>
        <time>2022-05-28T10:01:25Z</time>
      </trkpt>
      <trkpt lat="48.0542" lon="6.91603">
        <ele>978.2</ele>
        <time>2022-05-28T10:01:28Z</time>
      </trkpt>
      <trkpt lat="48.05424" lon="6.91586">
        <ele>980.4</ele>
        <time>2022-05-28T10:01:31Z</time>
      </trkpt>
      <trkpt lat="48.05426" lon="6.91573">
        <ele>977.1</ele>
        <time>2022-05-28T10:01:33Z</time>
      </trkpt>
      <trkpt lat="48.0543" lon="6.91556">
        <ele>976.7</ele>
        <time>2022-05-28T10:01:36Z</time>
      </trkpt>
      <trkpt lat="48.05433" lon="6.91539">
        <ele>975.7</ele>
        <time>2022-05-28T10:01:39Z</time>
      </trkpt>
      <trkpt lat="48.05438" lon="6.91524">
        <ele>977</ele>
        <time>2022-05-28T10:01:42Z</time>
      </trkpt>
      <trkpt lat="48.05442" lon="6.91506">
        <ele>973.9</ele>
        <time>2022-05-28T10:01:44Z</time>
      </trkpt>
      <trkpt lat="48.05448" lon="6.91484">
        <ele>973.9</ele>
        <time>2022-05-28T10:01:46Z</time>
      </trkpt>
      <trkpt lat="48.05455" lon="6.91465">
        <ele>971.6</ele>
        <time>2022-05-28T10:01:48Z</time>
      </trkpt>
      <trkpt lat="48.05463" lon="6.91447">
        <ele>969.3</ele>
        <time>2022-05-28T10:01:50Z</time>
      </trkpt>
      <trkpt lat="48.05472" lon="6.91431">
        <ele>967.3</ele>
        <time>2022-05-28T10:01:52Z</time>
      </trkpt>
      <trkpt lat="48.05481" lon="6.91418">
        <ele>972.2</ele>
        <time>2022-05-28T10:01:54Z</time>
      </trkpt>
      <trkpt lat="48.05488" lon="6.91407">
        <ele>972.4</ele>
        <time>2022-05-28T10:01:56Z</time>
      </trkpt>
      <trkpt lat="48.05497" lon="6.91399">
        <ele>968.2</ele>
        <time>2022-05-28T10:01:58Z</time>
      </trkpt>
      <trkpt lat="48.05506" lon="6.91387">
        <ele>969.8</ele>
        <time>2022-05-28T10:02:00Z</time>
      </trkpt>
      <trkpt lat="48.05518" lon="6.91377">
        <ele>964.8</ele>
        <time>2022-05-28T10:02:02Z</time>
      </trkpt>
      <trkpt lat="48.05531" lon="6.91367">
        <ele>967.2</ele>
        <time>2022-05-28T10:02:04Z</time>
      </trkpt>
      <trkpt lat="48.05542" lon="6.91356">
        <ele>966.5</ele>
        <time>2022-05-28T10:02:06Z</time>
      </trkpt>
      <trkpt lat="48.05553" lon="6.91343">
        <ele>963.8</ele>
        <time>2022-05-28T10:02:08Z</time>
      </trkpt>
      <trkpt lat="48.05565" lon="6.9133">
        <ele>964.7</ele>
        <time>2022-05-28T10:02:10Z</time>
      </trkpt>
      <trkpt lat="48.05577" lon="6.91318">
        <ele>965.5</ele>
        <time>2022-05-28T10:02:12Z</time>
      </trkpt>
      <trkpt lat="48.05584" lon="6.91308">
        <ele>964.8</ele>
        <time>2022-05-28T10:02:14Z</time>
      </trkpt>
      <trkpt lat="48.05589" lon="6.91298">
        <ele>962.7</ele>
        <time>2022-05-28T10:02:17Z</time>
      </trkpt>
      <trkpt lat="48.05587" lon="6.9129">
        <ele>962.7</ele>
        <time>2022-05-28T10:02:22Z</time>
      </trkpt>
      <trkpt lat="48.05586" lon="6.9129">
        <ele>963</ele>
        <time>2022-05-28T10:02:35Z</time>
      </trkpt>
      <trkpt lat="48.05587" lon="6.9129">
        <ele>963.2</ele>
        <time>2022-05-28T10:02:51Z</time>
      </trkpt>
      <trkpt lat="48.05596" lon="6.9128">
        <ele>960.9</ele>
        <time>2022-05-28T10:02:56Z</time>
      </trkpt>
      <trkpt lat="48.05603" lon="6.91273">
        <ele>961.9</ele>
        <time>2022-05-28T10:03:00Z</time>
      </trkpt>
      <trkpt lat="48.05612" lon="6.91264">
        <ele>959</ele>
        <time>2022-05-28T10:03:07Z</time>
      </trkpt>
      <trkpt lat="48.05621" lon="6.91257">
        <ele>959.7</ele>
        <time>2022-05-28T10:03:09Z</time>
      </trkpt>
      <trkpt lat="48.0563" lon="6.9125">
        <ele>956.1</ele>
        <time>2022-05-28T10:03:11Z</time>
      </trkpt>
      <trkpt lat="48.05639" lon="6.9124">
        <ele>953.3</ele>
        <time>2022-05-28T10:03:13Z</time>
      </trkpt>
      <trkpt lat="48.05647" lon="6.91228">
        <ele>952.1</ele>
        <time>2022-05-28T10:03:15Z</time>
      </trkpt>
      <trkpt lat="48.05655" lon="6.91218">
        <ele>954.3</ele>
        <time>2022-05-28T10:03:17Z</time>
      </trkpt>
      <trkpt lat="48.05662" lon="6.91209">
        <ele>952.4</ele>
        <time>2022-05-28T10:03:21Z</time>
      </trkpt>
      <trkpt lat="48.05653" lon="6.91203">
        <ele>950.1</ele>
        <time>2022-05-28T10:03:25Z</time>
      </trkpt>
      <trkpt lat="48.05642" lon="6.91206">
        <ele>950.5</ele>
        <time>2022-05-28T10:03:28Z</time>
      </trkpt>
      <trkpt lat="48.05631" lon="6.91203">
        <ele>947.9</ele>
        <time>2022-05-28T10:03:31Z</time>
      </trkpt>
      <trkpt lat="48.0562" lon="6.91196">
        <ele>946.4</ele>
        <time>2022-05-28T10:03:34Z</time>
      </trkpt>
      <trkpt lat="48.05611" lon="6.91191">
        <ele>946.7</ele>
        <time>2022-05-28T10:03:36Z</time>
      </trkpt>
      <trkpt lat="48.05602" lon="6.91185">
        <ele>946</ele>
        <time>2022-05-28T10:03:39Z</time>
      </trkpt>
      <trkpt lat="48.05608" lon="6.91173">
        <ele>945.8</ele>
        <time>2022-05-28T10:03:45Z</time>
      </trkpt>
      <trkpt lat="48.05602" lon="6.91161">
        <ele>943.7</ele>
        <time>2022-05-28T10:03:49Z</time>
      </trkpt>
      <trkpt lat="48.05597" lon="6.91148">
        <ele>941.6</ele>
        <time>2022-05-28T10:03:53Z</time>
      </trkpt>
      <trkpt lat="48.05591" lon="6.91133">
        <ele>942.4</ele>
        <time>2022-05-28T10:03:56Z</time>
      </trkpt>
      <trkpt lat="48.05581" lon="6.91125">
        <ele>941.4</ele>
        <time>2022-05-28T10:04:00Z</time>
      </trkpt>
      <trkpt lat="48.05574" lon="6.91116">
        <ele>942</ele>
        <time>2022-05-28T10:04:05Z</time>
      </trkpt>
      <trkpt lat="48.05567" lon="6.91106">
        <ele>943.6</ele>
        <time>2022-05-28T10:04:11Z</time>
      </trkpt>
      <trkpt lat="48.05565" lon="6.91092">
        <ele>944.2</ele>
        <time>2022-05-28T10:04:19Z</time>
      </trkpt>
      <trkpt lat="48.0556" lon="6.91098">
        <ele>944.6</ele>
        <time>2022-05-28T10:04:30Z</time>
      </trkpt>
      <trkpt lat="48.05561" lon="6.91098">
        <ele>944.8</ele>
        <time>2022-05-28T10:04:50Z</time>
      </trkpt>
      <trkpt lat="48.05562" lon="6.91099">
        <ele>945</ele>
        <time>2022-05-28T10:05:12Z</time>
      </trkpt>
      <trkpt lat="48.05562" lon="6.91099">
        <ele>945.1</ele>
        <time>2022-05-28T10:05:19Z</time>
      </trkpt>
      <trkpt lat="48.05562" lon="6.91099">
        <ele>946.3</ele>
        <time>2022-05-28T10:07:00Z</time>
      </trkpt>
      <trkpt lat="48.05562" lon="6.91098">
        <ele>947</ele>
        <time>2022-05-28T10:08:04Z</time>
      </trkpt>
      <trkpt lat="48.05563" lon="6.91097">
        <ele>947</ele>
        <time>2022-05-28T10:08:10Z</time>
      </trkpt>
      <trkpt lat="48.0557" lon="6.91089">
        <ele>946</ele>
        <time>2022-05-28T10:08:14Z</time>
      </trkpt>
      <trkpt lat="48.05579" lon="6.91079">
        <ele>943.5</ele>
        <time>2022-05-28T10:08:17Z</time>
      </trkpt>
      <trkpt lat="48.05587" lon="6.91071">
        <ele>943.3</ele>
        <time>2022-05-28T10:08:20Z</time>
      </trkpt>
      <trkpt lat="48.05594" lon="6.9106">
        <ele>942.8</ele>
        <time>2022-05-28T10:08:24Z</time>
      </trkpt>
      <trkpt lat="48.05597" lon="6.9104">
        <ele>940.8</ele>
        <time>2022-05-28T10:08:28Z</time>
      </trkpt>
      <trkpt lat="48.056" lon="6.91026">
        <ele>940.6</ele>
        <time>2022-05-28T10:08:30Z</time>
      </trkpt>
      <trkpt lat="48.05604" lon="6.9101">
        <ele>942.5</ele>
        <time>2022-05-28T10:08:33Z</time>
      </trkpt>
      <trkpt lat="48.05608" lon="6.90994">
        <ele>939.5</ele>
        <time>2022-05-28T10:08:36Z</time>
      </trkpt>
      <trkpt lat="48.05612" lon="6.90976">
        <ele>939.8</ele>
        <time>2022-05-28T10:08:39Z</time>
      </trkpt>
      <trkpt lat="48.05618" lon="6.90965">
        <ele>941.7</ele>
        <time>2022-05-28T10:08:41Z</time>
      </trkpt>
      <trkpt lat="48.05626" lon="6.90954">
        <ele>941.6</ele>
        <time>2022-05-28T10:08:43Z</time>
      </trkpt>
      <trkpt lat="48.05636" lon="6.90942">
        <ele>937.2</ele>
        <time>2022-05-28T10:08:45Z</time>
      </trkpt>
      <trkpt lat="48.05645" lon="6.90928">
        <ele>937.6</ele>
        <time>2022-05-28T10:08:47Z</time>
      </trkpt>
      <trkpt lat="48.05655" lon="6.90916">
        <ele>938.7</ele>
        <time>2022-05-28T10:08:49Z</time>
      </trkpt>
      <trkpt lat="48.05665" lon="6.90907">
        <ele>937.6</ele>
        <time>2022-05-28T10:08:51Z</time>
      </trkpt>
      <trkpt lat="48.05675" lon="6.90898">
        <ele>937.3</ele>
        <time>2022-05-28T10:08:53Z</time>
      </trkpt>
      <trkpt lat="48.05683" lon="6.90887">
        <ele>938.2</ele>
        <time>2022-05-28T10:08:55Z</time>
      </trkpt>
      <trkpt lat="48.05691" lon="6.9088">
        <ele>937.6</ele>
        <time>2022-05-28T10:08:57Z</time>
      </trkpt>
      <trkpt lat="48.05702" lon="6.9087">
        <ele>939.9</ele>
        <time>2022-05-28T10:09:00Z</time>
      </trkpt>
      <trkpt lat="48.05714" lon="6.90863">
        <ele>938.5</ele>
        <time>2022-05-28T10:09:03Z</time>
      </trkpt>
      <trkpt lat="48.05722" lon="6.90855">
        <ele>939.9</ele>
        <time>2022-05-28T10:09:05Z</time>
      </trkpt>
      <trkpt lat="48.05732" lon="6.90844">
        <ele>937.6</ele>
        <time>2022-05-28T10:09:07Z</time>
      </trkpt>
      <trkpt lat="48.05742" lon="6.90832">
        <ele>936.4</ele>
        <time>2022-05-28T10:09:09Z</time>
      </trkpt>
      <trkpt lat="48.05751" lon="6.90821">
        <ele>935.1</ele>
        <time>2022-05-28T10:09:11Z</time>
      </trkpt>
      <trkpt lat="48.0576" lon="6.90808">
        <ele>935.2</ele>
        <time>2022-05-28T10:09:13Z</time>
      </trkpt>
      <trkpt lat="48.05767" lon="6.90797">
        <ele>937</ele>
        <time>2022-05-28T10:09:15Z</time>
      </trkpt>
      <trkpt lat="48.05774" lon="6.90782">
        <ele>937.4</ele>
        <time>2022-05-28T10:09:18Z</time>
      </trkpt>
      <trkpt lat="48.0578" lon="6.90766">
        <ele>937.4</ele>
        <time>2022-05-28T10:09:21Z</time>
      </trkpt>
      <trkpt lat="48.05785" lon="6.90747">
        <ele>936.4</ele>
        <time>2022-05-28T10:09:24Z</time>
      </trkpt>
      <trkpt lat="48.05789" lon="6.90731">
        <ele>936.8</ele>
        <time>2022-05-28T10:09:26Z</time>
      </trkpt>
      <trkpt lat="48.05792" lon="6.90713">
        <ele>938.2</ele>
        <time>2022-05-28T10:09:28Z</time>
      </trkpt>
      <trkpt lat="48.05794" lon="6.90697">
        <ele>935.3</ele>
        <time>2022-05-28T10:09:30Z</time>
      </trkpt>
      <trkpt lat="48.05794" lon="6.90682">
        <ele>934.1</ele>
        <time>2022-05-28T10:09:32Z</time>
      </trkpt>
      <trkpt lat="48.05796" lon="6.90667">
        <ele>932</ele>
        <time>2022-05-28T10:09:34Z</time>
      </trkpt>
      <trkpt lat="48.05797" lon="6.90653">
        <ele>929.2</ele>
        <time>2022-05-28T10:09:36Z</time>
      </trkpt>
      <trkpt lat="48.05798" lon="6.90636">
        <ele>931.7</ele>
        <time>2022-05-28T10:09:40Z</time>
      </trkpt>
      <trkpt lat="48.05802" lon="6.90622">
        <ele>932.7</ele>
        <time>2022-05-28T10:09:44Z</time>
      </trkpt>
      <trkpt lat="48.05807" lon="6.90607">
        <ele>933.5</ele>
        <time>2022-05-28T10:09:48Z</time>
      </trkpt>
      <trkpt lat="48.0581" lon="6.90591">
        <ele>934.8</ele>
        <time>2022-05-28T10:09:52Z</time>
      </trkpt>
      <trkpt lat="48.0581" lon="6.90577">
        <ele>935.7</ele>
        <time>2022-05-28T10:09:56Z</time>
      </trkpt>
      <trkpt lat="48.05812" lon="6.90563">
        <ele>936.8</ele>
        <time>2022-05-28T10:10:00Z</time>
      </trkpt>
      <trkpt lat="48.05816" lon="6.90549">
        <ele>934.7</ele>
        <time>2022-05-28T10:10:03Z</time>
      </trkpt>
      <trkpt lat="48.05824" lon="6.90533">
        <ele>934</ele>
        <time>2022-05-28T10:10:06Z</time>
      </trkpt>
      <trkpt lat="48.0583" lon="6.90519">
        <ele>934.3</ele>
        <time>2022-05-28T10:10:09Z</time>
      </trkpt>
      <trkpt lat="48.05835" lon="6.90504">
        <ele>933.8</ele>
        <time>2022-05-28T10:10:12Z</time>
      </trkpt>
      <trkpt lat="48.05845" lon="6.9049">
        <ele>933.6</ele>
        <time>2022-05-28T10:10:15Z</time>
      </trkpt>
      <trkpt lat="48.05853" lon="6.90476">
        <ele>931.1</ele>
        <time>2022-05-28T10:10:17Z</time>
      </trkpt>
      <trkpt lat="48.0586" lon="6.90462">
        <ele>929.6</ele>
        <time>2022-05-28T10:10:19Z</time>
      </trkpt>
      <trkpt lat="48.05867" lon="6.90453">
        <ele>931.5</ele>
        <time>2022-05-28T10:10:22Z</time>
      </trkpt>
      <trkpt lat="48.0587" lon="6.90437">
        <ele>932.7</ele>
        <time>2022-05-28T10:10:25Z</time>
      </trkpt>
      <trkpt lat="48.05873" lon="6.90418">
        <ele>930.6</ele>
        <time>2022-05-28T10:10:28Z</time>
      </trkpt>
      <trkpt lat="48.05875" lon="6.90401">
        <ele>932.8</ele>
        <time>2022-05-28T10:10:31Z</time>
      </trkpt>
      <trkpt lat="48.05877" lon="6.90388">
        <ele>930.8</ele>
        <time>2022-05-28T10:10:34Z</time>
      </trkpt>
      <trkpt lat="48.05878" lon="6.90372">
        <ele>929.6</ele>
        <time>2022-05-28T10:10:40Z</time>
      </trkpt>
      <trkpt lat="48.05881" lon="6.90356">
        <ele>929.3</ele>
        <time>2022-05-28T10:10:43Z</time>
      </trkpt>
      <trkpt lat="48.05884" lon="6.90339">
        <ele>930.9</ele>
        <time>2022-05-28T10:10:46Z</time>
      </trkpt>
      <trkpt lat="48.05888" lon="6.90319">
        <ele>931.2</ele>
        <time>2022-05-28T10:10:49Z</time>
      </trkpt>
      <trkpt lat="48.05894" lon="6.90305">
        <ele>932.8</ele>
        <time>2022-05-28T10:10:52Z</time>
      </trkpt>
      <trkpt lat="48.05896" lon="6.903">
        <ele>932.2</ele>
        <time>2022-05-28T10:10:56Z</time>
      </trkpt>
      <trkpt lat="48.05895" lon="6.903">
        <ele>932.4</ele>
        <time>2022-05-28T10:11:11Z</time>
      </trkpt>
      <trkpt lat="48.05895" lon="6.90299">
        <ele>932.5</ele>
        <time>2022-05-28T10:11:13Z</time>
      </trkpt>
      <trkpt lat="48.05894" lon="6.90285">
        <ele>931.9</ele>
        <time>2022-05-28T10:11:17Z</time>
      </trkpt>
      <trkpt lat="48.05897" lon="6.90269">
        <ele>930.6</ele>
        <time>2022-05-28T10:11:20Z</time>
      </trkpt>
      <trkpt lat="48.059" lon="6.90252">
        <ele>929.9</ele>
        <time>2022-05-28T10:11:23Z</time>
      </trkpt>
      <trkpt lat="48.05901" lon="6.90238">
        <ele>928.1</ele>
        <time>2022-05-28T10:11:25Z</time>
      </trkpt>
      <trkpt lat="48.05902" lon="6.90224">
        <ele>926.6</ele>
        <time>2022-05-28T10:11:27Z</time>
      </trkpt>
      <trkpt lat="48.05903" lon="6.90209">
        <ele>926</ele>
        <time>2022-05-28T10:11:29Z</time>
      </trkpt>
      <trkpt lat="48.05907" lon="6.90192">
        <ele>923.5</ele>
        <time>2022-05-28T10:11:31Z</time>
      </trkpt>
      <trkpt lat="48.05908" lon="6.90167">
        <ele>919.8</ele>
        <time>2022-05-28T10:11:33Z</time>
      </trkpt>
      <trkpt lat="48.05908" lon="6.90144">
        <ele>918.3</ele>
        <time>2022-05-28T10:11:35Z</time>
      </trkpt>
      <trkpt lat="48.05907" lon="6.90124">
        <ele>919.9</ele>
        <time>2022-05-28T10:11:37Z</time>
      </trkpt>
      <trkpt lat="48.05904" lon="6.90105">
        <ele>914.6</ele>
        <time>2022-05-28T10:11:39Z</time>
      </trkpt>
      <trkpt lat="48.05901" lon="6.90084">
        <ele>914.1</ele>
        <time>2022-05-28T10:11:41Z</time>
      </trkpt>
      <trkpt lat="48.05896" lon="6.90057">
        <ele>912.2</ele>
        <time>2022-05-28T10:11:43Z</time>
      </trkpt>
      <trkpt lat="48.05894" lon="6.90043">
        <ele>911</ele>
        <time>2022-05-28T10:11:44Z</time>
      </trkpt>
      <trkpt lat="48.05891" lon="6.90018">
        <ele>910.2</ele>
        <time>2022-05-28T10:11:46Z</time>
      </trkpt>
      <trkpt lat="48.05886" lon="6.89996">
        <ele>910.7</ele>
        <time>2022-05-28T10:11:48Z</time>
      </trkpt>
      <trkpt lat="48.05879" lon="6.89983">
        <ele>909.5</ele>
        <time>2022-05-28T10:11:49Z</time>
      </trkpt>
      <trkpt lat="48.05872" lon="6.89959">
        <ele>906</ele>
        <time>2022-05-28T10:11:51Z</time>
      </trkpt>
      <trkpt lat="48.05867" lon="6.89937">
        <ele>903.9</ele>
        <time>2022-05-28T10:11:53Z</time>
      </trkpt>
      <trkpt lat="48.05863" lon="6.89914">
        <ele>899</ele>
        <time>2022-05-28T10:11:55Z</time>
      </trkpt>
      <trkpt lat="48.05857" lon="6.89896">
        <ele>898.3</ele>
        <time>2022-05-28T10:11:56Z</time>
      </trkpt>
      <trkpt lat="48.05849" lon="6.89874">
        <ele>898.7</ele>
        <time>2022-05-28T10:11:57Z</time>
      </trkpt>
      <trkpt lat="48.05843" lon="6.89855">
        <ele>898</ele>
        <time>2022-05-28T10:11:58Z</time>
      </trkpt>
      <trkpt lat="48.05833" lon="6.89835">
        <ele>897</ele>
        <time>2022-05-28T10:11:59Z</time>
      </trkpt>
      <trkpt lat="48.05825" lon="6.89818">
        <ele>896.9</ele>
        <time>2022-05-28T10:12:00Z</time>
      </trkpt>
      <trkpt lat="48.05818" lon="6.89803">
        <ele>897.1</ele>
        <time>2022-05-28T10:12:01Z</time>
      </trkpt>
      <trkpt lat="48.05811" lon="6.89789">
        <ele>897.5</ele>
        <time>2022-05-28T10:12:02Z</time>
      </trkpt>
      <trkpt lat="48.05803" lon="6.89778">
        <ele>898.1</ele>
        <time>2022-05-28T10:12:03Z</time>
      </trkpt>
      <trkpt lat="48.05796" lon="6.89768">
        <ele>897.8</ele>
        <time>2022-05-28T10:12:04Z</time>
      </trkpt>
      <trkpt lat="48.05788" lon="6.89758">
        <ele>895.8</ele>
        <time>2022-05-28T10:12:05Z</time>
      </trkpt>
      <trkpt lat="48.05779" lon="6.89747">
        <ele>895.4</ele>
        <time>2022-05-28T10:12:06Z</time>
      </trkpt>
      <trkpt lat="48.05771" lon="6.89736">
        <ele>891.7</ele>
        <time>2022-05-28T10:12:07Z</time>
      </trkpt>
      <trkpt lat="48.05764" lon="6.89725">
        <ele>889.4</ele>
        <time>2022-05-28T10:12:08Z</time>
      </trkpt>
      <trkpt lat="48.05759" lon="6.89713">
        <ele>887.8</ele>
        <time>2022-05-28T10:12:09Z</time>
      </trkpt>
      <trkpt lat="48.05756" lon="6.89689">
        <ele>889.8</ele>
        <time>2022-05-28T10:12:11Z</time>
      </trkpt>
      <trkpt lat="48.05755" lon="6.89665">
        <ele>890.3</ele>
        <time>2022-05-28T10:12:13Z</time>
      </trkpt>
      <trkpt lat="48.05753" lon="6.89638">
        <ele>887.7</ele>
        <time>2022-05-28T10:12:15Z</time>
      </trkpt>
      <trkpt lat="48.05751" lon="6.89613">
        <ele>883.3</ele>
        <time>2022-05-28T10:12:17Z</time>
      </trkpt>
      <trkpt lat="48.0575" lon="6.89588">
        <ele>881.1</ele>
        <time>2022-05-28T10:12:19Z</time>
      </trkpt>
      <trkpt lat="48.05753" lon="6.89566">
        <ele>879</ele>
        <time>2022-05-28T10:12:21Z</time>
      </trkpt>
      <trkpt lat="48.05761" lon="6.89542">
        <ele>880.2</ele>
        <time>2022-05-28T10:12:23Z</time>
      </trkpt>
      <trkpt lat="48.05767" lon="6.8953">
        <ele>877.2</ele>
        <time>2022-05-28T10:12:24Z</time>
      </trkpt>
      <trkpt lat="48.05773" lon="6.89518">
        <ele>874.8</ele>
        <time>2022-05-28T10:12:25Z</time>
      </trkpt>
      <trkpt lat="48.05781" lon="6.89506">
        <ele>871.7</ele>
        <time>2022-05-28T10:12:26Z</time>
      </trkpt>
      <trkpt lat="48.05788" lon="6.89494">
        <ele>870.4</ele>
        <time>2022-05-28T10:12:27Z</time>
      </trkpt>
      <trkpt lat="48.05796" lon="6.89482">
        <ele>870.1</ele>
        <time>2022-05-28T10:12:28Z</time>
      </trkpt>
      <trkpt lat="48.05804" lon="6.89471">
        <ele>869.3</ele>
        <time>2022-05-28T10:12:29Z</time>
      </trkpt>
      <trkpt lat="48.05812" lon="6.89461">
        <ele>869.1</ele>
        <time>2022-05-28T10:12:30Z</time>
      </trkpt>
      <trkpt lat="48.05821" lon="6.89452">
        <ele>869</ele>
        <time>2022-05-28T10:12:31Z</time>
      </trkpt>
      <trkpt lat="48.0583" lon="6.89444">
        <ele>869.5</ele>
        <time>2022-05-28T10:12:32Z</time>
      </trkpt>
      <trkpt lat="48.05838" lon="6.89437">
        <ele>868.5</ele>
        <time>2022-05-28T10:12:33Z</time>
      </trkpt>
      <trkpt lat="48.05847" lon="6.89429">
        <ele>869.1</ele>
        <time>2022-05-28T10:12:34Z</time>
      </trkpt>
      <trkpt lat="48.05855" lon="6.89421">
        <ele>869.1</ele>
        <time>2022-05-28T10:12:35Z</time>
      </trkpt>
      <trkpt lat="48.05862" lon="6.89414">
        <ele>868.4</ele>
        <time>2022-05-28T10:12:36Z</time>
      </trkpt>
      <trkpt lat="48.05874" lon="6.89394">
        <ele>865.6</ele>
        <time>2022-05-28T10:12:38Z</time>
      </trkpt>
      <trkpt lat="48.05879" lon="6.89383">
        <ele>865.5</ele>
        <time>2022-05-28T10:12:39Z</time>
      </trkpt>
      <trkpt lat="48.05889" lon="6.8936">
        <ele>863.9</ele>
        <time>2022-05-28T10:12:41Z</time>
      </trkpt>
      <trkpt lat="48.05898" lon="6.89339">
        <ele>864.1</ele>
        <time>2022-05-28T10:12:43Z</time>
      </trkpt>
      <trkpt lat="48.05907" lon="6.89319">
        <ele>867.4</ele>
        <time>2022-05-28T10:12:45Z</time>
      </trkpt>
      <trkpt lat="48.05912" lon="6.89299">
        <ele>867.2</ele>
        <time>2022-05-28T10:12:47Z</time>
      </trkpt>
      <trkpt lat="48.0591" lon="6.89281">
        <ele>866.4</ele>
        <time>2022-05-28T10:12:49Z</time>
      </trkpt>
      <trkpt lat="48.05905" lon="6.89266">
        <ele>866.9</ele>
        <time>2022-05-28T10:12:51Z</time>
      </trkpt>
      <trkpt lat="48.059" lon="6.89251">
        <ele>867.1</ele>
        <time>2022-05-28T10:12:53Z</time>
      </trkpt>
      <trkpt lat="48.05897" lon="6.89238">
        <ele>866.9</ele>
        <time>2022-05-28T10:12:55Z</time>
      </trkpt>
      <trkpt lat="48.05893" lon="6.89224">
        <ele>867.9</ele>
        <time>2022-05-28T10:12:57Z</time>
      </trkpt>
      <trkpt lat="48.05891" lon="6.89206">
        <ele>867</ele>
        <time>2022-05-28T10:13:00Z</time>
      </trkpt>
      <trkpt lat="48.05889" lon="6.89189">
        <ele>868.5</ele>
        <time>2022-05-28T10:13:03Z</time>
      </trkpt>
      <trkpt lat="48.05887" lon="6.89174">
        <ele>869.5</ele>
        <time>2022-05-28T10:13:07Z</time>
      </trkpt>
      <trkpt lat="48.05886" lon="6.89158">
        <ele>870.2</ele>
        <time>2022-05-28T10:13:12Z</time>
      </trkpt>
      <trkpt lat="48.05884" lon="6.89143">
        <ele>870</ele>
        <time>2022-05-28T10:13:17Z</time>
      </trkpt>
      <trkpt lat="48.05881" lon="6.89127">
        <ele>870.1</ele>
        <time>2022-05-28T10:13:22Z</time>
      </trkpt>
      <trkpt lat="48.05869" lon="6.89125">
        <ele>869.9</ele>
        <time>2022-05-28T10:13:27Z</time>
      </trkpt>
      <trkpt lat="48.0586" lon="6.89126">
        <ele>871.2</ele>
        <time>2022-05-28T10:13:31Z</time>
      </trkpt>
      <trkpt lat="48.05849" lon="6.89125">
        <ele>871.1</ele>
        <time>2022-05-28T10:13:35Z</time>
      </trkpt>
      <trkpt lat="48.0584" lon="6.89125">
        <ele>871.8</ele>
        <time>2022-05-28T10:13:39Z</time>
      </trkpt>
      <trkpt lat="48.05829" lon="6.89123">
        <ele>872.4</ele>
        <time>2022-05-28T10:13:44Z</time>
      </trkpt>
      <trkpt lat="48.05819" lon="6.89124">
        <ele>875.1</ele>
        <time>2022-05-28T10:13:50Z</time>
      </trkpt>
      <trkpt lat="48.05809" lon="6.89121">
        <ele>876.7</ele>
        <time>2022-05-28T10:13:56Z</time>
      </trkpt>
      <trkpt lat="48.05799" lon="6.89115">
        <ele>877.7</ele>
        <time>2022-05-28T10:14:02Z</time>
      </trkpt>
      <trkpt lat="48.0579" lon="6.89109">
        <ele>879.7</ele>
        <time>2022-05-28T10:14:09Z</time>
      </trkpt>
      <trkpt lat="48.05782" lon="6.891">
        <ele>881.3</ele>
        <time>2022-05-28T10:14:16Z</time>
      </trkpt>
      <trkpt lat="48.05776" lon="6.89088">
        <ele>882</ele>
        <time>2022-05-28T10:14:22Z</time>
      </trkpt>
      <trkpt lat="48.05771" lon="6.89076">
        <ele>882.4</ele>
        <time>2022-05-28T10:14:27Z</time>
      </trkpt>
      <trkpt lat="48.05767" lon="6.89063">
        <ele>882.7</ele>
        <time>2022-05-28T10:14:32Z</time>
      </trkpt>
      <trkpt lat="48.05764" lon="6.89049">
        <ele>882.8</ele>
        <time>2022-05-28T10:14:37Z</time>
      </trkpt>
      <trkpt lat="48.0576" lon="6.89034">
        <ele>882.9</ele>
        <time>2022-05-28T10:14:43Z</time>
      </trkpt>
      <trkpt lat="48.05756" lon="6.8902">
        <ele>884.1</ele>
        <time>2022-05-28T10:14:48Z</time>
      </trkpt>
      <trkpt lat="48.0575" lon="6.89007">
        <ele>884.8</ele>
        <time>2022-05-28T10:14:54Z</time>
      </trkpt>
      <trkpt lat="48.05744" lon="6.88997">
        <ele>886.4</ele>
        <time>2022-05-28T10:15:00Z</time>
      </trkpt>
      <trkpt lat="48.05737" lon="6.88986">
        <ele>888.6</ele>
        <time>2022-05-28T10:15:07Z</time>
      </trkpt>
      <trkpt lat="48.05732" lon="6.88973">
        <ele>889.4</ele>
        <time>2022-05-28T10:15:13Z</time>
      </trkpt>
      <trkpt lat="48.05725" lon="6.88962">
        <ele>890.9</ele>
        <time>2022-05-28T10:15:20Z</time>
      </trkpt>
      <trkpt lat="48.05718" lon="6.88951">
        <ele>891.6</ele>
        <time>2022-05-28T10:15:26Z</time>
      </trkpt>
      <trkpt lat="48.05711" lon="6.88941">
        <ele>892.3</ele>
        <time>2022-05-28T10:15:31Z</time>
      </trkpt>
      <trkpt lat="48.05706" lon="6.88928">
        <ele>893.8</ele>
        <time>2022-05-28T10:15:39Z</time>
      </trkpt>
      <trkpt lat="48.057" lon="6.88918">
        <ele>894.5</ele>
        <time>2022-05-28T10:15:43Z</time>
      </trkpt>
      <trkpt lat="48.05693" lon="6.88908">
        <ele>895.3</ele>
        <time>2022-05-28T10:15:47Z</time>
      </trkpt>
      <trkpt lat="48.05685" lon="6.88896">
        <ele>895.7</ele>
        <time>2022-05-28T10:15:52Z</time>
      </trkpt>
      <trkpt lat="48.05679" lon="6.88885">
        <ele>896.4</ele>
        <time>2022-05-28T10:15:56Z</time>
      </trkpt>
      <trkpt lat="48.05671" lon="6.88874">
        <ele>896.4</ele>
        <time>2022-05-28T10:16:01Z</time>
      </trkpt>
      <trkpt lat="48.05664" lon="6.88861">
        <ele>897.4</ele>
        <time>2022-05-28T10:16:06Z</time>
      </trkpt>
      <trkpt lat="48.05658" lon="6.8885">
        <ele>898.5</ele>
        <time>2022-05-28T10:16:11Z</time>
      </trkpt>
      <trkpt lat="48.05652" lon="6.88839">
        <ele>900.1</ele>
        <time>2022-05-28T10:16:16Z</time>
      </trkpt>
      <trkpt lat="48.05646" lon="6.88829">
        <ele>901.7</ele>
        <time>2022-05-28T10:16:21Z</time>
      </trkpt>
      <trkpt lat="48.05639" lon="6.88817">
        <ele>901.7</ele>
        <time>2022-05-28T10:16:27Z</time>
      </trkpt>
      <trkpt lat="48.05632" lon="6.88807">
        <ele>902.8</ele>
        <time>2022-05-28T10:16:32Z</time>
      </trkpt>
      <trkpt lat="48.05625" lon="6.88817">
        <ele>905.2</ele>
        <time>2022-05-28T10:16:40Z</time>
      </trkpt>
      <trkpt lat="48.05628" lon="6.88831">
        <ele>905.7</ele>
        <time>2022-05-28T10:16:47Z</time>
      </trkpt>
      <trkpt lat="48.05633" lon="6.88843">
        <ele>907.1</ele>
        <time>2022-05-28T10:16:53Z</time>
      </trkpt>
      <trkpt lat="48.05637" lon="6.88856">
        <ele>908.6</ele>
        <time>2022-05-28T10:16:59Z</time>
      </trkpt>
      <trkpt lat="48.05631" lon="6.88866">
        <ele>909.7</ele>
        <time>2022-05-28T10:17:07Z</time>
      </trkpt>
      <trkpt lat="48.05624" lon="6.88856">
        <ele>912.2</ele>
        <time>2022-05-28T10:17:14Z</time>
      </trkpt>
      <trkpt lat="48.05617" lon="6.88847">
        <ele>912.7</ele>
        <time>2022-05-28T10:17:21Z</time>
      </trkpt>
      <trkpt lat="48.05609" lon="6.88839">
        <ele>914.6</ele>
        <time>2022-05-28T10:17:29Z</time>
      </trkpt>
      <trkpt lat="48.05601" lon="6.88832">
        <ele>915.6</ele>
        <time>2022-05-28T10:17:36Z</time>
      </trkpt>
      <trkpt lat="48.05593" lon="6.88826">
        <ele>917.5</ele>
        <time>2022-05-28T10:17:43Z</time>
      </trkpt>
      <trkpt lat="48.05585" lon="6.88819">
        <ele>918.4</ele>
        <time>2022-05-28T10:17:50Z</time>
      </trkpt>
      <trkpt lat="48.05577" lon="6.88808">
        <ele>920.2</ele>
        <time>2022-05-28T10:17:57Z</time>
      </trkpt>
      <trkpt lat="48.05575" lon="6.88794">
        <ele>922.1</ele>
        <time>2022-05-28T10:18:04Z</time>
      </trkpt>
      <trkpt lat="48.05573" lon="6.88779">
        <ele>924</ele>
        <time>2022-05-28T10:18:12Z</time>
      </trkpt>
      <trkpt lat="48.05573" lon="6.88766">
        <ele>925.2</ele>
        <time>2022-05-28T10:18:19Z</time>
      </trkpt>
      <trkpt lat="48.05574" lon="6.88751">
        <ele>927.1</ele>
        <time>2022-05-28T10:18:27Z</time>
      </trkpt>
      <trkpt lat="48.05573" lon="6.88737">
        <ele>928.1</ele>
        <time>2022-05-28T10:18:34Z</time>
      </trkpt>
      <trkpt lat="48.05571" lon="6.88722">
        <ele>929.8</ele>
        <time>2022-05-28T10:18:41Z</time>
      </trkpt>
      <trkpt lat="48.0557" lon="6.88707">
        <ele>931.6</ele>
        <time>2022-05-28T10:18:48Z</time>
      </trkpt>
      <trkpt lat="48.05562" lon="6.88697">
        <ele>932.5</ele>
        <time>2022-05-28T10:18:54Z</time>
      </trkpt>
      <trkpt lat="48.05555" lon="6.88706">
        <ele>933.9</ele>
        <time>2022-05-28T10:19:02Z</time>
      </trkpt>
      <trkpt lat="48.05555" lon="6.88721">
        <ele>934.4</ele>
        <time>2022-05-28T10:19:08Z</time>
      </trkpt>
      <trkpt lat="48.05554" lon="6.88734">
        <ele>935.2</ele>
        <time>2022-05-28T10:19:14Z</time>
      </trkpt>
      <trkpt lat="48.05551" lon="6.88748">
        <ele>936.4</ele>
        <time>2022-05-28T10:19:20Z</time>
      </trkpt>
      <trkpt lat="48.05547" lon="6.88762">
        <ele>937</ele>
        <time>2022-05-28T10:19:25Z</time>
      </trkpt>
      <trkpt lat="48.05544" lon="6.88776">
        <ele>938</ele>
        <time>2022-05-28T10:19:30Z</time>
      </trkpt>
      <trkpt lat="48.0554" lon="6.8879">
        <ele>938.7</ele>
        <time>2022-05-28T10:19:35Z</time>
      </trkpt>
      <trkpt lat="48.05535" lon="6.88803">
        <ele>939.6</ele>
        <time>2022-05-28T10:19:39Z</time>
      </trkpt>
      <trkpt lat="48.05531" lon="6.88815">
        <ele>940.3</ele>
        <time>2022-05-28T10:19:43Z</time>
      </trkpt>
      <trkpt lat="48.05531" lon="6.88829">
        <ele>940.8</ele>
        <time>2022-05-28T10:19:47Z</time>
      </trkpt>
      <trkpt lat="48.05533" lon="6.88843">
        <ele>941.6</ele>
        <time>2022-05-28T10:19:51Z</time>
      </trkpt>
      <trkpt lat="48.05536" lon="6.88857">
        <ele>942.5</ele>
        <time>2022-05-28T10:19:55Z</time>
      </trkpt>
      <trkpt lat="48.05539" lon="6.88871">
        <ele>942.8</ele>
        <time>2022-05-28T10:19:59Z</time>
      </trkpt>
      <trkpt lat="48.05541" lon="6.88885">
        <ele>943.6</ele>
        <time>2022-05-28T10:20:03Z</time>
      </trkpt>
      <trkpt lat="48.05542" lon="6.889">
        <ele>945.1</ele>
        <time>2022-05-28T10:20:07Z</time>
      </trkpt>
      <trkpt lat="48.05546" lon="6.88914">
        <ele>945</ele>
        <time>2022-05-28T10:20:11Z</time>
      </trkpt>
      <trkpt lat="48.05549" lon="6.88928">
        <ele>945.5</ele>
        <time>2022-05-28T10:20:15Z</time>
      </trkpt>
      <trkpt lat="48.0555" lon="6.88943">
        <ele>946.4</ele>
        <time>2022-05-28T10:20:19Z</time>
      </trkpt>
      <trkpt lat="48.05552" lon="6.88957">
        <ele>947</ele>
        <time>2022-05-28T10:20:23Z</time>
      </trkpt>
      <trkpt lat="48.05553" lon="6.88974">
        <ele>948.4</ele>
        <time>2022-05-28T10:20:28Z</time>
      </trkpt>
      <trkpt lat="48.05553" lon="6.88988">
        <ele>948.9</ele>
        <time>2022-05-28T10:20:32Z</time>
      </trkpt>
      <trkpt lat="48.05552" lon="6.89002">
        <ele>949.5</ele>
        <time>2022-05-28T10:20:36Z</time>
      </trkpt>
      <trkpt lat="48.05552" lon="6.89015">
        <ele>950.5</ele>
        <time>2022-05-28T10:20:40Z</time>
      </trkpt>
      <trkpt lat="48.05553" lon="6.89031">
        <ele>950.9</ele>
        <time>2022-05-28T10:20:44Z</time>
      </trkpt>
      <trkpt lat="48.05552" lon="6.89046">
        <ele>951.5</ele>
        <time>2022-05-28T10:20:48Z</time>
      </trkpt>
      <trkpt lat="48.05551" lon="6.89062">
        <ele>952.8</ele>
        <time>2022-05-28T10:20:52Z</time>
      </trkpt>
      <trkpt lat="48.05552" lon="6.89079">
        <ele>953.4</ele>
        <time>2022-05-28T10:20:56Z</time>
      </trkpt>
      <trkpt lat="48.05555" lon="6.89095">
        <ele>954.7</ele>
        <time>2022-05-28T10:21:00Z</time>
      </trkpt>
      <trkpt lat="48.0556" lon="6.89111">
        <ele>955.9</ele>
        <time>2022-05-28T10:21:04Z</time>
      </trkpt>
      <trkpt lat="48.05564" lon="6.89127">
        <ele>956.7</ele>
        <time>2022-05-28T10:21:08Z</time>
      </trkpt>
      <trkpt lat="48.05569" lon="6.89142">
        <ele>957.8</ele>
        <time>2022-05-28T10:21:12Z</time>
      </trkpt>
      <trkpt lat="48.05573" lon="6.89157">
        <ele>957.7</ele>
        <time>2022-05-28T10:21:16Z</time>
      </trkpt>
      <trkpt lat="48.05576" lon="6.89172">
        <ele>958.8</ele>
        <time>2022-05-28T10:21:20Z</time>
      </trkpt>
      <trkpt lat="48.05579" lon="6.89186">
        <ele>958.9</ele>
        <time>2022-05-28T10:21:24Z</time>
      </trkpt>
      <trkpt lat="48.05583" lon="6.892">
        <ele>959.7</ele>
        <time>2022-05-28T10:21:28Z</time>
      </trkpt>
      <trkpt lat="48.05585" lon="6.89216">
        <ele>960.4</ele>
        <time>2022-05-28T10:21:32Z</time>
      </trkpt>
      <trkpt lat="48.05588" lon="6.89231">
        <ele>960.9</ele>
        <time>2022-05-28T10:21:36Z</time>
      </trkpt>
      <trkpt lat="48.05591" lon="6.89246">
        <ele>961.3</ele>
        <time>2022-05-28T10:21:40Z</time>
      </trkpt>
      <trkpt lat="48.05593" lon="6.89262">
        <ele>962.5</ele>
        <time>2022-05-28T10:21:44Z</time>
      </trkpt>
      <trkpt lat="48.05597" lon="6.89278">
        <ele>962.6</ele>
        <time>2022-05-28T10:21:48Z</time>
      </trkpt>
      <trkpt lat="48.05598" lon="6.89294">
        <ele>964</ele>
        <time>2022-05-28T10:21:52Z</time>
      </trkpt>
      <trkpt lat="48.05599" lon="6.89309">
        <ele>963.6</ele>
        <time>2022-05-28T10:21:56Z</time>
      </trkpt>
      <trkpt lat="48.05599" lon="6.89324">
        <ele>964.3</ele>
        <time>2022-05-28T10:22:00Z</time>
      </trkpt>
      <trkpt lat="48.05601" lon="6.89339">
        <ele>965.1</ele>
        <time>2022-05-28T10:22:04Z</time>
      </trkpt>
      <trkpt lat="48.05602" lon="6.89354">
        <ele>965.9</ele>
        <time>2022-05-28T10:22:08Z</time>
      </trkpt>
      <trkpt lat="48.05604" lon="6.89371">
        <ele>966.7</ele>
        <time>2022-05-28T10:22:12Z</time>
      </trkpt>
      <trkpt lat="48.05604" lon="6.89388">
        <ele>967.1</ele>
        <time>2022-05-28T10:22:16Z</time>
      </trkpt>
      <trkpt lat="48.05604" lon="6.89404">
        <ele>967.6</ele>
        <time>2022-05-28T10:22:20Z</time>
      </trkpt>
      <trkpt lat="48.05602" lon="6.89421">
        <ele>968.1</ele>
        <time>2022-05-28T10:22:24Z</time>
      </trkpt>
      <trkpt lat="48.05598" lon="6.89438">
        <ele>969.2</ele>
        <time>2022-05-28T10:22:28Z</time>
      </trkpt>
      <trkpt lat="48.05593" lon="6.89453">
        <ele>969.3</ele>
        <time>2022-05-28T10:22:32Z</time>
      </trkpt>
      <trkpt lat="48.05587" lon="6.89466">
        <ele>969.5</ele>
        <time>2022-05-28T10:22:36Z</time>
      </trkpt>
      <trkpt lat="48.0558" lon="6.8948">
        <ele>971.1</ele>
        <time>2022-05-28T10:22:40Z</time>
      </trkpt>
      <trkpt lat="48.05576" lon="6.89497">
        <ele>971.2</ele>
        <time>2022-05-28T10:22:44Z</time>
      </trkpt>
      <trkpt lat="48.05572" lon="6.89512">
        <ele>972.1</ele>
        <time>2022-05-28T10:22:48Z</time>
      </trkpt>
      <trkpt lat="48.05566" lon="6.89527">
        <ele>972.4</ele>
        <time>2022-05-28T10:22:52Z</time>
      </trkpt>
      <trkpt lat="48.05563" lon="6.8954">
        <ele>973.1</ele>
        <time>2022-05-28T10:22:55Z</time>
      </trkpt>
      <trkpt lat="48.05558" lon="6.89556">
        <ele>974.6</ele>
        <time>2022-05-28T10:22:59Z</time>
      </trkpt>
      <trkpt lat="48.05553" lon="6.89572">
        <ele>975.4</ele>
        <time>2022-05-28T10:23:03Z</time>
      </trkpt>
      <trkpt lat="48.0555" lon="6.89585">
        <ele>974.8</ele>
        <time>2022-05-28T10:23:06Z</time>
      </trkpt>
      <trkpt lat="48.05544" lon="6.896">
        <ele>976.8</ele>
        <time>2022-05-28T10:23:10Z</time>
      </trkpt>
      <trkpt lat="48.05541" lon="6.89614">
        <ele>976.9</ele>
        <time>2022-05-28T10:23:13Z</time>
      </trkpt>
      <trkpt lat="48.0554" lon="6.89628">
        <ele>977</ele>
        <time>2022-05-28T10:23:16Z</time>
      </trkpt>
      <trkpt lat="48.0554" lon="6.89643">
        <ele>978.3</ele>
        <time>2022-05-28T10:23:19Z</time>
      </trkpt>
      <trkpt lat="48.05539" lon="6.89656">
        <ele>978.8</ele>
        <time>2022-05-28T10:23:22Z</time>
      </trkpt>
      <trkpt lat="48.05539" lon="6.89674">
        <ele>979.4</ele>
        <time>2022-05-28T10:23:26Z</time>
      </trkpt>
      <trkpt lat="48.05537" lon="6.89687">
        <ele>979.5</ele>
        <time>2022-05-28T10:23:29Z</time>
      </trkpt>
      <trkpt lat="48.05535" lon="6.89705">
        <ele>980.3</ele>
        <time>2022-05-28T10:23:33Z</time>
      </trkpt>
      <trkpt lat="48.05532" lon="6.89722">
        <ele>981.1</ele>
        <time>2022-05-28T10:23:37Z</time>
      </trkpt>
      <trkpt lat="48.0553" lon="6.89736">
        <ele>982</ele>
        <time>2022-05-28T10:23:40Z</time>
      </trkpt>
      <trkpt lat="48.05528" lon="6.89749">
        <ele>982.5</ele>
        <time>2022-05-28T10:23:43Z</time>
      </trkpt>
      <trkpt lat="48.05526" lon="6.89762">
        <ele>982.9</ele>
        <time>2022-05-28T10:23:46Z</time>
      </trkpt>
      <trkpt lat="48.05525" lon="6.89776">
        <ele>982.9</ele>
        <time>2022-05-28T10:23:49Z</time>
      </trkpt>
      <trkpt lat="48.05523" lon="6.89793">
        <ele>983.4</ele>
        <time>2022-05-28T10:23:53Z</time>
      </trkpt>
      <trkpt lat="48.05522" lon="6.8981">
        <ele>984.9</ele>
        <time>2022-05-28T10:23:57Z</time>
      </trkpt>
      <trkpt lat="48.0552" lon="6.89824">
        <ele>984.8</ele>
        <time>2022-05-28T10:24:02Z</time>
      </trkpt>
      <trkpt lat="48.05526" lon="6.89811">
        <ele>984.6</ele>
        <time>2022-05-28T10:24:18Z</time>
      </trkpt>
      <trkpt lat="48.05528" lon="6.89817">
        <ele>985.1</ele>
        <time>2022-05-28T10:24:32Z</time>
      </trkpt>
      <trkpt lat="48.05529" lon="6.89817">
        <ele>985.2</ele>
        <time>2022-05-28T10:25:11Z</time>
      </trkpt>
      <trkpt lat="48.05529" lon="6.89817">
        <ele>985.1</ele>
        <time>2022-05-28T10:26:16Z</time>
      </trkpt>
      <trkpt lat="48.05529" lon="6.89818">
        <ele>985.2</ele>
        <time>2022-05-28T10:26:19Z</time>
      </trkpt>
      <trkpt lat="48.05529" lon="6.89817">
        <ele>985.3</ele>
        <time>2022-05-28T10:26:48Z</time>
      </trkpt>
      <trkpt lat="48.0553" lon="6.89818">
        <ele>985.7</ele>
        <time>2022-05-28T10:26:51Z</time>
      </trkpt>
      <trkpt lat="48.0553" lon="6.89817">
        <ele>985.7</ele>
        <time>2022-05-28T10:28:48Z</time>
      </trkpt>
      <trkpt lat="48.05529" lon="6.89819">
        <ele>985.9</ele>
        <time>2022-05-28T10:28:55Z</time>
      </trkpt>
      <trkpt lat="48.05529" lon="6.8982">
        <ele>985.5</ele>
        <time>2022-05-28T10:31:19Z</time>
      </trkpt>
      <trkpt lat="48.05525" lon="6.89833">
        <ele>986.6</ele>
        <time>2022-05-28T10:31:26Z</time>
      </trkpt>
      <trkpt lat="48.05525" lon="6.89847">
        <ele>986.3</ele>
        <time>2022-05-28T10:31:31Z</time>
      </trkpt>
      <trkpt lat="48.05523" lon="6.89863">
        <ele>986.7</ele>
        <time>2022-05-28T10:31:36Z</time>
      </trkpt>
      <trkpt lat="48.05526" lon="6.89876">
        <ele>987.9</ele>
        <time>2022-05-28T10:31:44Z</time>
      </trkpt>
      <trkpt lat="48.05527" lon="6.89876">
        <ele>988.2</ele>
        <time>2022-05-28T10:32:12Z</time>
      </trkpt>
      <trkpt lat="48.05528" lon="6.8989">
        <ele>988.4</ele>
        <time>2022-05-28T10:32:31Z</time>
      </trkpt>
      <trkpt lat="48.05528" lon="6.89904">
        <ele>988.9</ele>
        <time>2022-05-28T10:32:37Z</time>
      </trkpt>
      <trkpt lat="48.05529" lon="6.89919">
        <ele>989.3</ele>
        <time>2022-05-28T10:32:42Z</time>
      </trkpt>
      <trkpt lat="48.0553" lon="6.89935">
        <ele>989.6</ele>
        <time>2022-05-28T10:32:47Z</time>
      </trkpt>
      <trkpt lat="48.05536" lon="6.89947">
        <ele>990.1</ele>
        <time>2022-05-28T10:32:51Z</time>
      </trkpt>
      <trkpt lat="48.05542" lon="6.89957">
        <ele>990.7</ele>
        <time>2022-05-28T10:32:55Z</time>
      </trkpt>
      <trkpt lat="48.05549" lon="6.89968">
        <ele>991.6</ele>
        <time>2022-05-28T10:33:00Z</time>
      </trkpt>
      <trkpt lat="48.05557" lon="6.89979">
        <ele>991.8</ele>
        <time>2022-05-28T10:33:05Z</time>
      </trkpt>
      <trkpt lat="48.05564" lon="6.89989">
        <ele>992.5</ele>
        <time>2022-05-28T10:33:09Z</time>
      </trkpt>
      <trkpt lat="48.05569" lon="6.9">
        <ele>993.1</ele>
        <time>2022-05-28T10:33:13Z</time>
      </trkpt>
      <trkpt lat="48.05573" lon="6.90013">
        <ele>994.7</ele>
        <time>2022-05-28T10:33:17Z</time>
      </trkpt>
      <trkpt lat="48.05576" lon="6.90029">
        <ele>995.2</ele>
        <time>2022-05-28T10:33:22Z</time>
      </trkpt>
      <trkpt lat="48.05578" lon="6.90045">
        <ele>996.1</ele>
        <time>2022-05-28T10:33:27Z</time>
      </trkpt>
      <trkpt lat="48.0558" lon="6.90058">
        <ele>996.5</ele>
        <time>2022-05-28T10:33:31Z</time>
      </trkpt>
      <trkpt lat="48.05582" lon="6.90071">
        <ele>997.1</ele>
        <time>2022-05-28T10:33:35Z</time>
      </trkpt>
      <trkpt lat="48.05584" lon="6.90087">
        <ele>998.2</ele>
        <time>2022-05-28T10:33:40Z</time>
      </trkpt>
      <trkpt lat="48.05586" lon="6.90102">
        <ele>998.9</ele>
        <time>2022-05-28T10:33:45Z</time>
      </trkpt>
      <trkpt lat="48.05587" lon="6.90119">
        <ele>999.9</ele>
        <time>2022-05-28T10:33:50Z</time>
      </trkpt>
      <trkpt lat="48.05588" lon="6.90134">
        <ele>1000.8</ele>
        <time>2022-05-28T10:33:55Z</time>
      </trkpt>
      <trkpt lat="48.05585" lon="6.9015">
        <ele>1001.3</ele>
        <time>2022-05-28T10:34:00Z</time>
      </trkpt>
      <trkpt lat="48.05582" lon="6.90163">
        <ele>1001.6</ele>
        <time>2022-05-28T10:34:04Z</time>
      </trkpt>
      <trkpt lat="48.05578" lon="6.90176">
        <ele>1002.1</ele>
        <time>2022-05-28T10:34:08Z</time>
      </trkpt>
      <trkpt lat="48.05573" lon="6.90187">
        <ele>1003.4</ele>
        <time>2022-05-28T10:34:12Z</time>
      </trkpt>
      <trkpt lat="48.05567" lon="6.90198">
        <ele>1003.7</ele>
        <time>2022-05-28T10:34:16Z</time>
      </trkpt>
      <trkpt lat="48.05561" lon="6.90211">
        <ele>1004.3</ele>
        <time>2022-05-28T10:34:20Z</time>
      </trkpt>
      <trkpt lat="48.05556" lon="6.90225">
        <ele>1004.6</ele>
        <time>2022-05-28T10:34:24Z</time>
      </trkpt>
      <trkpt lat="48.05551" lon="6.90238">
        <ele>1005.2</ele>
        <time>2022-05-28T10:34:28Z</time>
      </trkpt>
      <trkpt lat="48.05547" lon="6.90251">
        <ele>1005.9</ele>
        <time>2022-05-28T10:34:32Z</time>
      </trkpt>
      <trkpt lat="48.05542" lon="6.90263">
        <ele>1006.1</ele>
        <time>2022-05-28T10:34:36Z</time>
      </trkpt>
      <trkpt lat="48.05536" lon="6.90277">
        <ele>1007.1</ele>
        <time>2022-05-28T10:34:40Z</time>
      </trkpt>
      <trkpt lat="48.05529" lon="6.9029">
        <ele>1008.2</ele>
        <time>2022-05-28T10:34:44Z</time>
      </trkpt>
      <trkpt lat="48.05524" lon="6.90303">
        <ele>1008.4</ele>
        <time>2022-05-28T10:34:48Z</time>
      </trkpt>
      <trkpt lat="48.05517" lon="6.90317">
        <ele>1008.8</ele>
        <time>2022-05-28T10:34:52Z</time>
      </trkpt>
      <trkpt lat="48.0551" lon="6.90331">
        <ele>1009.1</ele>
        <time>2022-05-28T10:34:56Z</time>
      </trkpt>
      <trkpt lat="48.05503" lon="6.90345">
        <ele>1010.5</ele>
        <time>2022-05-28T10:35:00Z</time>
      </trkpt>
      <trkpt lat="48.05495" lon="6.90358">
        <ele>1011.1</ele>
        <time>2022-05-28T10:35:04Z</time>
      </trkpt>
      <trkpt lat="48.05489" lon="6.90369">
        <ele>1011.6</ele>
        <time>2022-05-28T10:35:07Z</time>
      </trkpt>
      <trkpt lat="48.05482" lon="6.90381">
        <ele>1011.9</ele>
        <time>2022-05-28T10:35:10Z</time>
      </trkpt>
      <trkpt lat="48.05476" lon="6.9039">
        <ele>1012.5</ele>
        <time>2022-05-28T10:35:13Z</time>
      </trkpt>
      <trkpt lat="48.05469" lon="6.90402">
        <ele>1012.6</ele>
        <time>2022-05-28T10:35:16Z</time>
      </trkpt>
      <trkpt lat="48.05461" lon="6.90413">
        <ele>1014.4</ele>
        <time>2022-05-28T10:35:20Z</time>
      </trkpt>
      <trkpt lat="48.05454" lon="6.90425">
        <ele>1014.4</ele>
        <time>2022-05-28T10:35:24Z</time>
      </trkpt>
      <trkpt lat="48.05449" lon="6.90437">
        <ele>1014.8</ele>
        <time>2022-05-28T10:35:28Z</time>
      </trkpt>
      <trkpt lat="48.05443" lon="6.90449">
        <ele>1015.4</ele>
        <time>2022-05-28T10:35:33Z</time>
      </trkpt>
      <trkpt lat="48.05437" lon="6.9046">
        <ele>1016.6</ele>
        <time>2022-05-28T10:35:37Z</time>
      </trkpt>
      <trkpt lat="48.05431" lon="6.9047">
        <ele>1016.8</ele>
        <time>2022-05-28T10:35:41Z</time>
      </trkpt>
      <trkpt lat="48.05425" lon="6.90482">
        <ele>1017</ele>
        <time>2022-05-28T10:35:47Z</time>
      </trkpt>
      <trkpt lat="48.05419" lon="6.90494">
        <ele>1017.5</ele>
        <time>2022-05-28T10:35:52Z</time>
      </trkpt>
      <trkpt lat="48.05414" lon="6.90508">
        <ele>1017.9</ele>
        <time>2022-05-28T10:35:57Z</time>
      </trkpt>
      <trkpt lat="48.05408" lon="6.90519">
        <ele>1017.9</ele>
        <time>2022-05-28T10:36:01Z</time>
      </trkpt>
      <trkpt lat="48.05402" lon="6.9053">
        <ele>1018.2</ele>
        <time>2022-05-28T10:36:05Z</time>
      </trkpt>
      <trkpt lat="48.05396" lon="6.90541">
        <ele>1018.9</ele>
        <time>2022-05-28T10:36:09Z</time>
      </trkpt>
      <trkpt lat="48.05389" lon="6.90555">
        <ele>1019</ele>
        <time>2022-05-28T10:36:13Z</time>
      </trkpt>
      <trkpt lat="48.05381" lon="6.90567">
        <ele>1019.5</ele>
        <time>2022-05-28T10:36:17Z</time>
      </trkpt>
      <trkpt lat="48.05375" lon="6.90579">
        <ele>1020.4</ele>
        <time>2022-05-28T10:36:21Z</time>
      </trkpt>
      <trkpt lat="48.05369" lon="6.9059">
        <ele>1020.4</ele>
        <time>2022-05-28T10:36:25Z</time>
      </trkpt>
      <trkpt lat="48.05362" lon="6.906">
        <ele>1021.1</ele>
        <time>2022-05-28T10:36:30Z</time>
      </trkpt>
      <trkpt lat="48.05359" lon="6.90614">
        <ele>1021.4</ele>
        <time>2022-05-28T10:36:37Z</time>
      </trkpt>
      <trkpt lat="48.05352" lon="6.90625">
        <ele>1021.4</ele>
        <time>2022-05-28T10:36:42Z</time>
      </trkpt>
      <trkpt lat="48.05344" lon="6.90635">
        <ele>1021.7</ele>
        <time>2022-05-28T10:36:48Z</time>
      </trkpt>
      <trkpt lat="48.05337" lon="6.90644">
        <ele>1021.7</ele>
        <time>2022-05-28T10:36:51Z</time>
      </trkpt>
      <trkpt lat="48.05329" lon="6.90656">
        <ele>1022.2</ele>
        <time>2022-05-28T10:36:55Z</time>
      </trkpt>
      <trkpt lat="48.05321" lon="6.90663">
        <ele>1022.2</ele>
        <time>2022-05-28T10:36:59Z</time>
      </trkpt>
      <trkpt lat="48.05311" lon="6.90669">
        <ele>1021.8</ele>
        <time>2022-05-28T10:37:03Z</time>
      </trkpt>
      <trkpt lat="48.05301" lon="6.9068">
        <ele>1022.3</ele>
        <time>2022-05-28T10:37:07Z</time>
      </trkpt>
      <trkpt lat="48.05292" lon="6.9069">
        <ele>1022.3</ele>
        <time>2022-05-28T10:37:11Z</time>
      </trkpt>
      <trkpt lat="48.05283" lon="6.90695">
        <ele>1023</ele>
        <time>2022-05-28T10:37:15Z</time>
      </trkpt>
      <trkpt lat="48.05273" lon="6.90695">
        <ele>1025.2</ele>
        <time>2022-05-28T10:37:20Z</time>
      </trkpt>
      <trkpt lat="48.05263" lon="6.90695">
        <ele>1025.8</ele>
        <time>2022-05-28T10:37:26Z</time>
      </trkpt>
      <trkpt lat="48.05253" lon="6.90697">
        <ele>1026.4</ele>
        <time>2022-05-28T10:37:31Z</time>
      </trkpt>
      <trkpt lat="48.05242" lon="6.90702">
        <ele>1026.1</ele>
        <time>2022-05-28T10:37:36Z</time>
      </trkpt>
      <trkpt lat="48.05232" lon="6.90706">
        <ele>1028.1</ele>
        <time>2022-05-28T10:37:41Z</time>
      </trkpt>
      <trkpt lat="48.05222" lon="6.90708">
        <ele>1028.4</ele>
        <time>2022-05-28T10:37:46Z</time>
      </trkpt>
      <trkpt lat="48.05211" lon="6.90709">
        <ele>1029.2</ele>
        <time>2022-05-28T10:37:51Z</time>
      </trkpt>
      <trkpt lat="48.05202" lon="6.90711">
        <ele>1030</ele>
        <time>2022-05-28T10:37:55Z</time>
      </trkpt>
      <trkpt lat="48.05192" lon="6.90708">
        <ele>1030.6</ele>
        <time>2022-05-28T10:37:59Z</time>
      </trkpt>
      <trkpt lat="48.05181" lon="6.90707">
        <ele>1030.2</ele>
        <time>2022-05-28T10:38:03Z</time>
      </trkpt>
      <trkpt lat="48.05171" lon="6.90707">
        <ele>1031.1</ele>
        <time>2022-05-28T10:38:07Z</time>
      </trkpt>
      <trkpt lat="48.0516" lon="6.90706">
        <ele>1032.3</ele>
        <time>2022-05-28T10:38:12Z</time>
      </trkpt>
      <trkpt lat="48.0515" lon="6.90707">
        <ele>1032.5</ele>
        <time>2022-05-28T10:38:16Z</time>
      </trkpt>
      <trkpt lat="48.0514" lon="6.90711">
        <ele>1033</ele>
        <time>2022-05-28T10:38:21Z</time>
      </trkpt>
      <trkpt lat="48.05129" lon="6.90719">
        <ele>1035.1</ele>
        <time>2022-05-28T10:38:26Z</time>
      </trkpt>
      <trkpt lat="48.05121" lon="6.90726">
        <ele>1034.7</ele>
        <time>2022-05-28T10:38:30Z</time>
      </trkpt>
      <trkpt lat="48.05112" lon="6.90733">
        <ele>1034.6</ele>
        <time>2022-05-28T10:38:35Z</time>
      </trkpt>
      <trkpt lat="48.05101" lon="6.90741">
        <ele>1035.7</ele>
        <time>2022-05-28T10:38:40Z</time>
      </trkpt>
      <trkpt lat="48.05092" lon="6.90746">
        <ele>1034.3</ele>
        <time>2022-05-28T10:38:43Z</time>
      </trkpt>
      <trkpt lat="48.05082" lon="6.90752">
        <ele>1034.9</ele>
        <time>2022-05-28T10:38:46Z</time>
      </trkpt>
      <trkpt lat="48.05075" lon="6.90761">
        <ele>1034.7</ele>
        <time>2022-05-28T10:38:49Z</time>
      </trkpt>
      <trkpt lat="48.0507" lon="6.90775">
        <ele>1035.4</ele>
        <time>2022-05-28T10:38:52Z</time>
      </trkpt>
      <trkpt lat="48.05068" lon="6.9079">
        <ele>1034.9</ele>
        <time>2022-05-28T10:38:55Z</time>
      </trkpt>
      <trkpt lat="48.05069" lon="6.90806">
        <ele>1035.7</ele>
        <time>2022-05-28T10:38:58Z</time>
      </trkpt>
      <trkpt lat="48.0507" lon="6.90821">
        <ele>1035.3</ele>
        <time>2022-05-28T10:39:01Z</time>
      </trkpt>
      <trkpt lat="48.05071" lon="6.90837">
        <ele>1036</ele>
        <time>2022-05-28T10:39:04Z</time>
      </trkpt>
      <trkpt lat="48.05073" lon="6.90852">
        <ele>1035.2</ele>
        <time>2022-05-28T10:39:07Z</time>
      </trkpt>
      <trkpt lat="48.05077" lon="6.90869">
        <ele>1034.3</ele>
        <time>2022-05-28T10:39:10Z</time>
      </trkpt>
      <trkpt lat="48.0508" lon="6.90882">
        <ele>1034.4</ele>
        <time>2022-05-28T10:39:12Z</time>
      </trkpt>
      <trkpt lat="48.05083" lon="6.90897">
        <ele>1033.2</ele>
        <time>2022-05-28T10:39:14Z</time>
      </trkpt>
      <trkpt lat="48.05088" lon="6.90913">
        <ele>1031.6</ele>
        <time>2022-05-28T10:39:16Z</time>
      </trkpt>
      <trkpt lat="48.05093" lon="6.90931">
        <ele>1032.6</ele>
        <time>2022-05-28T10:39:18Z</time>
      </trkpt>
      <trkpt lat="48.05099" lon="6.90949">
        <ele>1030.7</ele>
        <time>2022-05-28T10:39:20Z</time>
      </trkpt>
      <trkpt lat="48.05104" lon="6.90964">
        <ele>1031.7</ele>
        <time>2022-05-28T10:39:22Z</time>
      </trkpt>
      <trkpt lat="48.05109" lon="6.9098">
        <ele>1032.6</ele>
        <time>2022-05-28T10:39:25Z</time>
      </trkpt>
      <trkpt lat="48.05112" lon="6.90996">
        <ele>1033.7</ele>
        <time>2022-05-28T10:39:29Z</time>
      </trkpt>
      <trkpt lat="48.05114" lon="6.91011">
        <ele>1035.5</ele>
        <time>2022-05-28T10:39:33Z</time>
      </trkpt>
      <trkpt lat="48.05114" lon="6.91026">
        <ele>1037</ele>
        <time>2022-05-28T10:39:37Z</time>
      </trkpt>
      <trkpt lat="48.05119" lon="6.91039">
        <ele>1039.3</ele>
        <time>2022-05-28T10:39:42Z</time>
      </trkpt>
      <trkpt lat="48.05124" lon="6.91052">
        <ele>1041</ele>
        <time>2022-05-28T10:39:48Z</time>
      </trkpt>
      <trkpt lat="48.05126" lon="6.91065">
        <ele>1042.1</ele>
        <time>2022-05-28T10:39:54Z</time>
      </trkpt>
      <trkpt lat="48.05129" lon="6.91079">
        <ele>1043.5</ele>
        <time>2022-05-28T10:40:00Z</time>
      </trkpt>
      <trkpt lat="48.05132" lon="6.91092">
        <ele>1044.4</ele>
        <time>2022-05-28T10:40:05Z</time>
      </trkpt>
      <trkpt lat="48.05134" lon="6.91108">
        <ele>1045</ele>
        <time>2022-05-28T10:40:11Z</time>
      </trkpt>
      <trkpt lat="48.05135" lon="6.91122">
        <ele>1046.3</ele>
        <time>2022-05-28T10:40:17Z</time>
      </trkpt>
      <trkpt lat="48.05136" lon="6.91137">
        <ele>1047.5</ele>
        <time>2022-05-28T10:40:23Z</time>
      </trkpt>
      <trkpt lat="48.05136" lon="6.91152">
        <ele>1048.5</ele>
        <time>2022-05-28T10:40:29Z</time>
      </trkpt>
      <trkpt lat="48.05136" lon="6.91168">
        <ele>1049.6</ele>
        <time>2022-05-28T10:40:35Z</time>
      </trkpt>
      <trkpt lat="48.05135" lon="6.91184">
        <ele>1050.1</ele>
        <time>2022-05-28T10:40:41Z</time>
      </trkpt>
      <trkpt lat="48.05134" lon="6.91197">
        <ele>1051.2</ele>
        <time>2022-05-28T10:40:47Z</time>
      </trkpt>
      <trkpt lat="48.05132" lon="6.91213">
        <ele>1052.2</ele>
        <time>2022-05-28T10:40:53Z</time>
      </trkpt>
      <trkpt lat="48.05131" lon="6.91229">
        <ele>1052.4</ele>
        <time>2022-05-28T10:40:58Z</time>
      </trkpt>
      <trkpt lat="48.05131" lon="6.91244">
        <ele>1053.8</ele>
        <time>2022-05-28T10:41:03Z</time>
      </trkpt>
      <trkpt lat="48.05129" lon="6.91259">
        <ele>1054.5</ele>
        <time>2022-05-28T10:41:07Z</time>
      </trkpt>
      <trkpt lat="48.05126" lon="6.91272">
        <ele>1055.1</ele>
        <time>2022-05-28T10:41:11Z</time>
      </trkpt>
      <trkpt lat="48.05123" lon="6.91288">
        <ele>1055.2</ele>
        <time>2022-05-28T10:41:16Z</time>
      </trkpt>
      <trkpt lat="48.0512" lon="6.91301">
        <ele>1056.7</ele>
        <time>2022-05-28T10:41:20Z</time>
      </trkpt>
      <trkpt lat="48.05116" lon="6.91316">
        <ele>1056.7</ele>
        <time>2022-05-28T10:41:24Z</time>
      </trkpt>
      <trkpt lat="48.05112" lon="6.9133">
        <ele>1057.9</ele>
        <time>2022-05-28T10:41:29Z</time>
      </trkpt>
      <trkpt lat="48.05108" lon="6.91346">
        <ele>1058.3</ele>
        <time>2022-05-28T10:41:34Z</time>
      </trkpt>
      <trkpt lat="48.05104" lon="6.9136">
        <ele>1059.4</ele>
        <time>2022-05-28T10:41:38Z</time>
      </trkpt>
      <trkpt lat="48.05098" lon="6.91374">
        <ele>1059.2</ele>
        <time>2022-05-28T10:41:42Z</time>
      </trkpt>
      <trkpt lat="48.05091" lon="6.91386">
        <ele>1061.7</ele>
        <time>2022-05-28T10:41:46Z</time>
      </trkpt>
      <trkpt lat="48.05083" lon="6.91395">
        <ele>1062.4</ele>
        <time>2022-05-28T10:41:51Z</time>
      </trkpt>
      <trkpt lat="48.05074" lon="6.91403">
        <ele>1064</ele>
        <time>2022-05-28T10:41:56Z</time>
      </trkpt>
      <trkpt lat="48.05065" lon="6.91408">
        <ele>1064.7</ele>
        <time>2022-05-28T10:42:00Z</time>
      </trkpt>
      <trkpt lat="48.05057" lon="6.91413">
        <ele>1064.4</ele>
        <time>2022-05-28T10:42:04Z</time>
      </trkpt>
      <trkpt lat="48.05048" lon="6.91418">
        <ele>1063.9</ele>
        <time>2022-05-28T10:42:08Z</time>
      </trkpt>
      <trkpt lat="48.0504" lon="6.91424">
        <ele>1063.3</ele>
        <time>2022-05-28T10:42:11Z</time>
      </trkpt>
      <trkpt lat="48.0503" lon="6.91434">
        <ele>1062.7</ele>
        <time>2022-05-28T10:42:14Z</time>
      </trkpt>
      <trkpt lat="48.05022" lon="6.91446">
        <ele>1061.6</ele>
        <time>2022-05-28T10:42:17Z</time>
      </trkpt>
      <trkpt lat="48.05013" lon="6.91456">
        <ele>1062.2</ele>
        <time>2022-05-28T10:42:20Z</time>
      </trkpt>
      <trkpt lat="48.05005" lon="6.91464">
        <ele>1062.5</ele>
        <time>2022-05-28T10:42:23Z</time>
      </trkpt>
      <trkpt lat="48.04997" lon="6.91473">
        <ele>1062.9</ele>
        <time>2022-05-28T10:42:26Z</time>
      </trkpt>
      <trkpt lat="48.04989" lon="6.91483">
        <ele>1063</ele>
        <time>2022-05-28T10:42:29Z</time>
      </trkpt>
      <trkpt lat="48.0498" lon="6.91493">
        <ele>1063.8</ele>
        <time>2022-05-28T10:42:32Z</time>
      </trkpt>
      <trkpt lat="48.04972" lon="6.91502">
        <ele>1063.7</ele>
        <time>2022-05-28T10:42:35Z</time>
      </trkpt>
      <trkpt lat="48.04964" lon="6.91509">
        <ele>1063.3</ele>
        <time>2022-05-28T10:42:38Z</time>
      </trkpt>
      <trkpt lat="48.04955" lon="6.91521">
        <ele>1061.5</ele>
        <time>2022-05-28T10:42:42Z</time>
      </trkpt>
      <trkpt lat="48.04947" lon="6.91533">
        <ele>1060.4</ele>
        <time>2022-05-28T10:42:45Z</time>
      </trkpt>
      <trkpt lat="48.04942" lon="6.91547">
        <ele>1062.2</ele>
        <time>2022-05-28T10:42:48Z</time>
      </trkpt>
      <trkpt lat="48.04936" lon="6.91563">
        <ele>1060.4</ele>
        <time>2022-05-28T10:42:51Z</time>
      </trkpt>
      <trkpt lat="48.04931" lon="6.91578">
        <ele>1060.9</ele>
        <time>2022-05-28T10:42:54Z</time>
      </trkpt>
      <trkpt lat="48.04926" lon="6.91591">
        <ele>1063.5</ele>
        <time>2022-05-28T10:42:57Z</time>
      </trkpt>
      <trkpt lat="48.04921" lon="6.91608">
        <ele>1065.1</ele>
        <time>2022-05-28T10:43:01Z</time>
      </trkpt>
      <trkpt lat="48.04918" lon="6.91622">
        <ele>1063.4</ele>
        <time>2022-05-28T10:43:04Z</time>
      </trkpt>
      <trkpt lat="48.04915" lon="6.91636">
        <ele>1062.6</ele>
        <time>2022-05-28T10:43:07Z</time>
      </trkpt>
      <trkpt lat="48.04913" lon="6.91651">
        <ele>1063.5</ele>
        <time>2022-05-28T10:43:10Z</time>
      </trkpt>
      <trkpt lat="48.04911" lon="6.91664">
        <ele>1063.9</ele>
        <time>2022-05-28T10:43:13Z</time>
      </trkpt>
      <trkpt lat="48.04908" lon="6.9168">
        <ele>1065</ele>
        <time>2022-05-28T10:43:17Z</time>
      </trkpt>
      <trkpt lat="48.04905" lon="6.91694">
        <ele>1065</ele>
        <time>2022-05-28T10:43:21Z</time>
      </trkpt>
      <trkpt lat="48.049" lon="6.91706">
        <ele>1064.7</ele>
        <time>2022-05-28T10:43:24Z</time>
      </trkpt>
      <trkpt lat="48.04897" lon="6.9172">
        <ele>1064.3</ele>
        <time>2022-05-28T10:43:27Z</time>
      </trkpt>
      <trkpt lat="48.04894" lon="6.91735">
        <ele>1064.7</ele>
        <time>2022-05-28T10:43:30Z</time>
      </trkpt>
      <trkpt lat="48.04891" lon="6.91748">
        <ele>1065.2</ele>
        <time>2022-05-28T10:43:33Z</time>
      </trkpt>
      <trkpt lat="48.04888" lon="6.91762">
        <ele>1066.1</ele>
        <time>2022-05-28T10:43:36Z</time>
      </trkpt>
      <trkpt lat="48.04885" lon="6.91777">
        <ele>1065.1</ele>
        <time>2022-05-28T10:43:40Z</time>
      </trkpt>
      <trkpt lat="48.04882" lon="6.91791">
        <ele>1063.8</ele>
        <time>2022-05-28T10:43:43Z</time>
      </trkpt>
      <trkpt lat="48.04878" lon="6.91806">
        <ele>1063.7</ele>
        <time>2022-05-28T10:43:46Z</time>
      </trkpt>
      <trkpt lat="48.04876" lon="6.9182">
        <ele>1061.8</ele>
        <time>2022-05-28T10:43:48Z</time>
      </trkpt>
      <trkpt lat="48.04874" lon="6.91837">
        <ele>1061.7</ele>
        <time>2022-05-28T10:43:50Z</time>
      </trkpt>
      <trkpt lat="48.04874" lon="6.91857">
        <ele>1060.4</ele>
        <time>2022-05-28T10:43:52Z</time>
      </trkpt>
      <trkpt lat="48.04876" lon="6.91879">
        <ele>1060.7</ele>
        <time>2022-05-28T10:43:54Z</time>
      </trkpt>
      <trkpt lat="48.04876" lon="6.919">
        <ele>1060.4</ele>
        <time>2022-05-28T10:43:56Z</time>
      </trkpt>
      <trkpt lat="48.04875" lon="6.91919">
        <ele>1058.7</ele>
        <time>2022-05-28T10:43:58Z</time>
      </trkpt>
      <trkpt lat="48.04877" lon="6.91934">
        <ele>1060.4</ele>
        <time>2022-05-28T10:44:00Z</time>
      </trkpt>
      <trkpt lat="48.04879" lon="6.91949">
        <ele>1060.8</ele>
        <time>2022-05-28T10:44:02Z</time>
      </trkpt>
      <trkpt lat="48.04878" lon="6.91965">
        <ele>1060.5</ele>
        <time>2022-05-28T10:44:04Z</time>
      </trkpt>
      <trkpt lat="48.04876" lon="6.9198">
        <ele>1059.1</ele>
        <time>2022-05-28T10:44:06Z</time>
      </trkpt>
      <trkpt lat="48.04874" lon="6.91996">
        <ele>1059.1</ele>
        <time>2022-05-28T10:44:08Z</time>
      </trkpt>
      <trkpt lat="48.04872" lon="6.9201">
        <ele>1060.7</ele>
        <time>2022-05-28T10:44:10Z</time>
      </trkpt>
      <trkpt lat="48.04869" lon="6.92028">
        <ele>1061.8</ele>
        <time>2022-05-28T10:44:13Z</time>
      </trkpt>
      <trkpt lat="48.04863" lon="6.92041">
        <ele>1063.5</ele>
        <time>2022-05-28T10:44:16Z</time>
      </trkpt>
      <trkpt lat="48.04853" lon="6.92052">
        <ele>1062.7</ele>
        <time>2022-05-28T10:44:19Z</time>
      </trkpt>
      <trkpt lat="48.04845" lon="6.92058">
        <ele>1062.8</ele>
        <time>2022-05-28T10:44:22Z</time>
      </trkpt>
      <trkpt lat="48.04835" lon="6.92056">
        <ele>1064.1</ele>
        <time>2022-05-28T10:44:29Z</time>
      </trkpt>
      <trkpt lat="48.04827" lon="6.92048">
        <ele>1064.9</ele>
        <time>2022-05-28T10:44:34Z</time>
      </trkpt>
      <trkpt lat="48.04821" lon="6.92038">
        <ele>1065.7</ele>
        <time>2022-05-28T10:44:39Z</time>
      </trkpt>
      <trkpt lat="48.04816" lon="6.92024">
        <ele>1066.6</ele>
        <time>2022-05-28T10:44:43Z</time>
      </trkpt>
      <trkpt lat="48.04812" lon="6.92011">
        <ele>1067.8</ele>
        <time>2022-05-28T10:44:47Z</time>
      </trkpt>
      <trkpt lat="48.04809" lon="6.91998">
        <ele>1070.1</ele>
        <time>2022-05-28T10:44:53Z</time>
      </trkpt>
      <trkpt lat="48.04805" lon="6.91986">
        <ele>1070.9</ele>
        <time>2022-05-28T10:45:00Z</time>
      </trkpt>
      <trkpt lat="48.04801" lon="6.91972">
        <ele>1071.9</ele>
        <time>2022-05-28T10:45:07Z</time>
      </trkpt>
      <trkpt lat="48.04796" lon="6.91959">
        <ele>1072.9</ele>
        <time>2022-05-28T10:45:14Z</time>
      </trkpt>
      <trkpt lat="48.04791" lon="6.91945">
        <ele>1073.1</ele>
        <time>2022-05-28T10:45:22Z</time>
      </trkpt>
      <trkpt lat="48.04791" lon="6.91931">
        <ele>1073.8</ele>
        <time>2022-05-28T10:45:29Z</time>
      </trkpt>
      <trkpt lat="48.04789" lon="6.91916">
        <ele>1076</ele>
        <time>2022-05-28T10:45:37Z</time>
      </trkpt>
      <trkpt lat="48.04786" lon="6.91903">
        <ele>1079</ele>
        <time>2022-05-28T10:45:43Z</time>
      </trkpt>
      <trkpt lat="48.04783" lon="6.91889">
        <ele>1080.5</ele>
        <time>2022-05-28T10:45:51Z</time>
      </trkpt>
      <trkpt lat="48.04782" lon="6.91875">
        <ele>1082</ele>
        <time>2022-05-28T10:45:59Z</time>
      </trkpt>
      <trkpt lat="48.04784" lon="6.91861">
        <ele>1084.4</ele>
        <time>2022-05-28T10:46:07Z</time>
      </trkpt>
      <trkpt lat="48.04783" lon="6.91846">
        <ele>1085.6</ele>
        <time>2022-05-28T10:46:15Z</time>
      </trkpt>
      <trkpt lat="48.04774" lon="6.91848">
        <ele>1086.4</ele>
        <time>2022-05-28T10:46:23Z</time>
      </trkpt>
      <trkpt lat="48.04764" lon="6.91854">
        <ele>1087.6</ele>
        <time>2022-05-28T10:46:30Z</time>
      </trkpt>
      <trkpt lat="48.04756" lon="6.9186">
        <ele>1088.3</ele>
        <time>2022-05-28T10:46:34Z</time>
      </trkpt>
      <trkpt lat="48.04748" lon="6.9187">
        <ele>1089.6</ele>
        <time>2022-05-28T10:46:40Z</time>
      </trkpt>
      <trkpt lat="48.04739" lon="6.91878">
        <ele>1091.3</ele>
        <time>2022-05-28T10:46:47Z</time>
      </trkpt>
      <trkpt lat="48.04731" lon="6.91886">
        <ele>1093</ele>
        <time>2022-05-28T10:46:53Z</time>
      </trkpt>
      <trkpt lat="48.04723" lon="6.91895">
        <ele>1095.9</ele>
        <time>2022-05-28T10:46:59Z</time>
      </trkpt>
      <trkpt lat="48.04716" lon="6.91902">
        <ele>1097.6</ele>
        <time>2022-05-28T10:47:04Z</time>
      </trkpt>
      <trkpt lat="48.04707" lon="6.91911">
        <ele>1098.5</ele>
        <time>2022-05-28T10:47:13Z</time>
      </trkpt>
      <trkpt lat="48.04699" lon="6.91918">
        <ele>1099.5</ele>
        <time>2022-05-28T10:47:22Z</time>
      </trkpt>
      <trkpt lat="48.04691" lon="6.91926">
        <ele>1100.4</ele>
        <time>2022-05-28T10:47:29Z</time>
      </trkpt>
      <trkpt lat="48.04681" lon="6.91929">
        <ele>1102.2</ele>
        <time>2022-05-28T10:47:40Z</time>
      </trkpt>
      <trkpt lat="48.04672" lon="6.9193">
        <ele>1103.7</ele>
        <time>2022-05-28T10:47:47Z</time>
      </trkpt>
      <trkpt lat="48.04662" lon="6.91929">
        <ele>1106.1</ele>
        <time>2022-05-28T10:47:53Z</time>
      </trkpt>
      <trkpt lat="48.04652" lon="6.91926">
        <ele>1108.3</ele>
        <time>2022-05-28T10:48:00Z</time>
      </trkpt>
      <trkpt lat="48.04643" lon="6.91926">
        <ele>1109.4</ele>
        <time>2022-05-28T10:48:06Z</time>
      </trkpt>
      <trkpt lat="48.04633" lon="6.91924">
        <ele>1110.5</ele>
        <time>2022-05-28T10:48:13Z</time>
      </trkpt>
      <trkpt lat="48.04624" lon="6.91922">
        <ele>1112.5</ele>
        <time>2022-05-28T10:48:20Z</time>
      </trkpt>
      <trkpt lat="48.04614" lon="6.91922">
        <ele>1113</ele>
        <time>2022-05-28T10:48:26Z</time>
      </trkpt>
      <trkpt lat="48.04605" lon="6.91923">
        <ele>1115.2</ele>
        <time>2022-05-28T10:48:32Z</time>
      </trkpt>
      <trkpt lat="48.04595" lon="6.91923">
        <ele>1115.3</ele>
        <time>2022-05-28T10:48:37Z</time>
      </trkpt>
      <trkpt lat="48.04585" lon="6.91924">
        <ele>1114.3</ele>
        <time>2022-05-28T10:48:42Z</time>
      </trkpt>
      <trkpt lat="48.04573" lon="6.91928">
        <ele>1113.9</ele>
        <time>2022-05-28T10:48:45Z</time>
      </trkpt>
      <trkpt lat="48.04561" lon="6.91928">
        <ele>1114.9</ele>
        <time>2022-05-28T10:48:48Z</time>
      </trkpt>
      <trkpt lat="48.0455" lon="6.9193">
        <ele>1114.8</ele>
        <time>2022-05-28T10:48:51Z</time>
      </trkpt>
      <trkpt lat="48.04539" lon="6.9193">
        <ele>1115.4</ele>
        <time>2022-05-28T10:48:55Z</time>
      </trkpt>
      <trkpt lat="48.0453" lon="6.91934">
        <ele>1115.5</ele>
        <time>2022-05-28T10:48:59Z</time>
      </trkpt>
      <trkpt lat="48.04519" lon="6.91934">
        <ele>1116.5</ele>
        <time>2022-05-28T10:49:04Z</time>
      </trkpt>
      <trkpt lat="48.04509" lon="6.91933">
        <ele>1119.3</ele>
        <time>2022-05-28T10:49:09Z</time>
      </trkpt>
      <trkpt lat="48.045" lon="6.91927">
        <ele>1121.1</ele>
        <time>2022-05-28T10:49:15Z</time>
      </trkpt>
      <trkpt lat="48.04491" lon="6.9192">
        <ele>1122.4</ele>
        <time>2022-05-28T10:49:21Z</time>
      </trkpt>
      <trkpt lat="48.04488" lon="6.91907">
        <ele>1123.8</ele>
        <time>2022-05-28T10:49:29Z</time>
      </trkpt>
      <trkpt lat="48.04493" lon="6.91895">
        <ele>1125</ele>
        <time>2022-05-28T10:49:37Z</time>
      </trkpt>
      <trkpt lat="48.04501" lon="6.91891">
        <ele>1126.9</ele>
        <time>2022-05-28T10:49:45Z</time>
      </trkpt>
      <trkpt lat="48.04509" lon="6.91882">
        <ele>1129.7</ele>
        <time>2022-05-28T10:49:55Z</time>
      </trkpt>
      <trkpt lat="48.04517" lon="6.91872">
        <ele>1131.5</ele>
        <time>2022-05-28T10:50:02Z</time>
      </trkpt>
      <trkpt lat="48.04524" lon="6.91863">
        <ele>1132.9</ele>
        <time>2022-05-28T10:50:10Z</time>
      </trkpt>
      <trkpt lat="48.04535" lon="6.91858">
        <ele>1132.9</ele>
        <time>2022-05-28T10:50:17Z</time>
      </trkpt>
      <trkpt lat="48.04544" lon="6.91851">
        <ele>1133.4</ele>
        <time>2022-05-28T10:50:22Z</time>
      </trkpt>
      <trkpt lat="48.04552" lon="6.91843">
        <ele>1135</ele>
        <time>2022-05-28T10:50:26Z</time>
      </trkpt>
      <trkpt lat="48.04561" lon="6.91837">
        <ele>1135.1</ele>
        <time>2022-05-28T10:50:31Z</time>
      </trkpt>
      <trkpt lat="48.04567" lon="6.91826">
        <ele>1135.5</ele>
        <time>2022-05-28T10:50:35Z</time>
      </trkpt>
      <trkpt lat="48.04575" lon="6.91816">
        <ele>1136.2</ele>
        <time>2022-05-28T10:50:40Z</time>
      </trkpt>
      <trkpt lat="48.04582" lon="6.91805">
        <ele>1137.5</ele>
        <time>2022-05-28T10:50:45Z</time>
      </trkpt>
      <trkpt lat="48.04582" lon="6.91789">
        <ele>1138.8</ele>
        <time>2022-05-28T10:50:50Z</time>
      </trkpt>
      <trkpt lat="48.04584" lon="6.91776">
        <ele>1139.9</ele>
        <time>2022-05-28T10:50:55Z</time>
      </trkpt>
      <trkpt lat="48.0459" lon="6.91763">
        <ele>1141.1</ele>
        <time>2022-05-28T10:51:00Z</time>
      </trkpt>
      <trkpt lat="48.04598" lon="6.91752">
        <ele>1141</ele>
        <time>2022-05-28T10:51:04Z</time>
      </trkpt>
      <trkpt lat="48.04606" lon="6.91739">
        <ele>1140.4</ele>
        <time>2022-05-28T10:51:08Z</time>
      </trkpt>
      <trkpt lat="48.04613" lon="6.9173">
        <ele>1139.1</ele>
        <time>2022-05-28T10:51:11Z</time>
      </trkpt>
      <trkpt lat="48.0462" lon="6.91721">
        <ele>1139.2</ele>
        <time>2022-05-28T10:51:14Z</time>
      </trkpt>
      <trkpt lat="48.04628" lon="6.91712">
        <ele>1139.6</ele>
        <time>2022-05-28T10:51:17Z</time>
      </trkpt>
      <trkpt lat="48.04635" lon="6.91704">
        <ele>1141</ele>
        <time>2022-05-28T10:51:20Z</time>
      </trkpt>
      <trkpt lat="48.04644" lon="6.91696">
        <ele>1141.7</ele>
        <time>2022-05-28T10:51:25Z</time>
      </trkpt>
      <trkpt lat="48.04653" lon="6.9169">
        <ele>1143.8</ele>
        <time>2022-05-28T10:51:31Z</time>
      </trkpt>
      <trkpt lat="48.04661" lon="6.91684">
        <ele>1146.2</ele>
        <time>2022-05-28T10:51:37Z</time>
      </trkpt>
      <trkpt lat="48.04669" lon="6.91676">
        <ele>1147.6</ele>
        <time>2022-05-28T10:51:44Z</time>
      </trkpt>
      <trkpt lat="48.04675" lon="6.91666">
        <ele>1148.5</ele>
        <time>2022-05-28T10:51:51Z</time>
      </trkpt>
      <trkpt lat="48.04682" lon="6.91662">
        <ele>1149.7</ele>
        <time>2022-05-28T10:52:00Z</time>
      </trkpt>
      <trkpt lat="48.04681" lon="6.91662">
        <ele>1149.7</ele>
        <time>2022-05-28T10:52:01Z</time>
      </trkpt>
      <trkpt lat="48.04673" lon="6.91669">
        <ele>1148.9</ele>
        <time>2022-05-28T10:52:15Z</time>
      </trkpt>
      <trkpt lat="48.04673" lon="6.91674">
        <ele>1147.9</ele>
        <time>2022-05-28T10:52:24Z</time>
      </trkpt>
      <trkpt lat="48.04674" lon="6.91674">
        <ele>1147.6</ele>
        <time>2022-05-28T10:56:16Z</time>
      </trkpt>
      <trkpt lat="48.04673" lon="6.91674">
        <ele>1147.2</ele>
        <time>2022-05-28T10:57:38Z</time>
      </trkpt>
      <trkpt lat="48.04664" lon="6.91678">
        <ele>1147.1</ele>
        <time>2022-05-28T10:57:50Z</time>
      </trkpt>
      <trkpt lat="48.04663" lon="6.91677">
        <ele>1146.9</ele>
        <time>2022-05-28T10:57:59Z</time>
      </trkpt>
      <trkpt lat="48.04663" lon="6.91678">
        <ele>1146.2</ele>
        <time>2022-05-28T10:58:05Z</time>
      </trkpt>
      <trkpt lat="48.04653" lon="6.91686">
        <ele>1144.8</ele>
        <time>2022-05-28T10:58:11Z</time>
      </trkpt>
      <trkpt lat="48.04642" lon="6.91693">
        <ele>1141</ele>
        <time>2022-05-28T10:58:14Z</time>
      </trkpt>
      <trkpt lat="48.04633" lon="6.91692">
        <ele>1140</ele>
        <time>2022-05-28T10:58:20Z</time>
      </trkpt>
      <trkpt lat="48.04641" lon="6.91685">
        <ele>1141</ele>
        <time>2022-05-28T10:58:34Z</time>
      </trkpt>
      <trkpt lat="48.04648" lon="6.91673">
        <ele>1141.9</ele>
        <time>2022-05-28T10:58:40Z</time>
      </trkpt>
      <trkpt lat="48.04651" lon="6.91659">
        <ele>1140.4</ele>
        <time>2022-05-28T10:58:46Z</time>
      </trkpt>
      <trkpt lat="48.04649" lon="6.91643">
        <ele>1140.8</ele>
        <time>2022-05-28T10:58:52Z</time>
      </trkpt>
      <trkpt lat="48.04644" lon="6.91638">
        <ele>1140.5</ele>
        <time>2022-05-28T10:58:57Z</time>
      </trkpt>
      <trkpt lat="48.04644" lon="6.91637">
        <ele>1140.4</ele>
        <time>2022-05-28T10:59:04Z</time>
      </trkpt>
      <trkpt lat="48.04643" lon="6.91637">
        <ele>1140.3</ele>
        <time>2022-05-28T10:59:07Z</time>
      </trkpt>
      <trkpt lat="48.04645" lon="6.91637">
        <ele>1140</ele>
        <time>2022-05-28T10:59:13Z</time>
      </trkpt>
      <trkpt lat="48.04645" lon="6.91637">
        <ele>1140.3</ele>
        <time>2022-05-28T10:59:22Z</time>
      </trkpt>
      <trkpt lat="48.04655" lon="6.91634">
        <ele>1140.5</ele>
        <time>2022-05-28T10:59:39Z</time>
      </trkpt>
      <trkpt lat="48.04664" lon="6.9163">
        <ele>1140.6</ele>
        <time>2022-05-28T10:59:48Z</time>
      </trkpt>
      <trkpt lat="48.04673" lon="6.91626">
        <ele>1140.3</ele>
        <time>2022-05-28T10:59:56Z</time>
      </trkpt>
      <trkpt lat="48.04676" lon="6.9163">
        <ele>1140.8</ele>
        <time>2022-05-28T11:00:04Z</time>
      </trkpt>
      <trkpt lat="48.04675" lon="6.9163">
        <ele>1141.1</ele>
        <time>2022-05-28T11:00:18Z</time>
      </trkpt>
      <trkpt lat="48.04668" lon="6.9164">
        <ele>1142.4</ele>
        <time>2022-05-28T11:00:28Z</time>
      </trkpt>
      <trkpt lat="48.04669" lon="6.9164">
        <ele>1142.8</ele>
        <time>2022-05-28T11:00:30Z</time>
      </trkpt>
      <trkpt lat="48.04668" lon="6.9164">
        <ele>1142.8</ele>
        <time>2022-05-28T11:00:36Z</time>
      </trkpt>
      <trkpt lat="48.04664" lon="6.91653">
        <ele>1144.2</ele>
        <time>2022-05-28T11:01:14Z</time>
      </trkpt>
      <trkpt lat="48.04667" lon="6.91666">
        <ele>1146.1</ele>
        <time>2022-05-28T11:01:24Z</time>
      </trkpt>
      <trkpt lat="48.0467" lon="6.91672">
        <ele>1146.3</ele>
        <time>2022-05-28T11:01:38Z</time>
      </trkpt>
      <trkpt lat="48.0467" lon="6.91672">
        <ele>1144.6</ele>
        <time>2022-05-28T11:18:19Z</time>
      </trkpt>
      <trkpt lat="48.04669" lon="6.91672">
        <ele>1145</ele>
        <time>2022-05-28T11:25:11Z</time>
      </trkpt>
      <trkpt lat="48.04669" lon="6.91672">
        <ele>1145.6</ele>
        <time>2022-05-28T11:28:41Z</time>
      </trkpt>
      <trkpt lat="48.04668" lon="6.91672">
        <ele>1145.2</ele>
        <time>2022-05-28T11:30:38Z</time>
      </trkpt>
      <trkpt lat="48.04668" lon="6.91672">
        <ele>1145.7</ele>
        <time>2022-05-28T11:31:05Z</time>
      </trkpt>
      <trkpt lat="48.04668" lon="6.91671">
        <ele>1146</ele>
        <time>2022-05-28T11:31:16Z</time>
      </trkpt>
      <trkpt lat="48.04672" lon="6.91671">
        <ele>1145.8</ele>
        <time>2022-05-28T11:31:25Z</time>
      </trkpt>
      <trkpt lat="48.04673" lon="6.91671">
        <ele>1145.8</ele>
        <time>2022-05-28T11:31:26Z</time>
      </trkpt>
      <trkpt lat="48.04673" lon="6.91671">
        <ele>1145.6</ele>
        <time>2022-05-28T11:33:06Z</time>
      </trkpt>
      <trkpt lat="48.04673" lon="6.91672">
        <ele>1145.3</ele>
        <time>2022-05-28T11:36:30Z</time>
      </trkpt>
      <trkpt lat="48.04674" lon="6.91672">
        <ele>1143.5</ele>
        <time>2022-05-28T11:45:07Z</time>
      </trkpt>
      <trkpt lat="48.04674" lon="6.91672">
        <ele>1143.2</ele>
        <time>2022-05-28T11:47:28Z</time>
      </trkpt>
      <trkpt lat="48.04674" lon="6.91672">
        <ele>1143.7</ele>
        <time>2022-05-28T11:55:17Z</time>
      </trkpt>
      <trkpt lat="48.04669" lon="6.91674">
        <ele>1144.4</ele>
        <time>2022-05-28T11:55:54Z</time>
      </trkpt>
      <trkpt lat="48.04669" lon="6.91675">
        <ele>1144.6</ele>
        <time>2022-05-28T11:58:00Z</time>
      </trkpt>
      <trkpt lat="48.0467" lon="6.91675">
        <ele>1144.1</ele>
        <time>2022-05-28T11:58:03Z</time>
      </trkpt>
      <trkpt lat="48.04671" lon="6.91678">
        <ele>1144</ele>
        <time>2022-05-28T11:58:11Z</time>
      </trkpt>
      <trkpt lat="48.04672" lon="6.91678">
        <ele>1144</ele>
        <time>2022-05-28T11:58:25Z</time>
      </trkpt>
      <trkpt lat="48.04672" lon="6.91677">
        <ele>1144.2</ele>
        <time>2022-05-28T11:58:43Z</time>
      </trkpt>
      <trkpt lat="48.04671" lon="6.91676">
        <ele>1144.2</ele>
        <time>2022-05-28T11:58:45Z</time>
      </trkpt>
      <trkpt lat="48.04671" lon="6.91675">
        <ele>1144.3</ele>
        <time>2022-05-28T11:59:11Z</time>
      </trkpt>
      <trkpt lat="48.04671" lon="6.91674">
        <ele>1145.2</ele>
        <time>2022-05-28T12:01:09Z</time>
      </trkpt>
      <trkpt lat="48.04671" lon="6.91675">
        <ele>1144.9</ele>
        <time>2022-05-28T12:02:16Z</time>
      </trkpt>
      <trkpt lat="48.04666" lon="6.91685">
        <ele>1144.7</ele>
        <time>2022-05-28T12:02:35Z</time>
      </trkpt>
      <trkpt lat="48.04665" lon="6.91685">
        <ele>1144.6</ele>
        <time>2022-05-28T12:02:47Z</time>
      </trkpt>
      <trkpt lat="48.04666" lon="6.91685">
        <ele>1144.6</ele>
        <time>2022-05-28T12:02:56Z</time>
      </trkpt>
      <trkpt lat="48.04666" lon="6.91684">
        <ele>1144.5</ele>
        <time>2022-05-28T12:03:06Z</time>
      </trkpt>
      <trkpt lat="48.04665" lon="6.91683">
        <ele>1144.7</ele>
        <time>2022-05-28T12:03:11Z</time>
      </trkpt>
      <trkpt lat="48.04665" lon="6.91682">
        <ele>1144.5</ele>
        <time>2022-05-28T12:03:13Z</time>
      </trkpt>
      <trkpt lat="48.04665" lon="6.91667">
        <ele>1144.5</ele>
        <time>2022-05-28T12:03:22Z</time>
      </trkpt>
      <trkpt lat="48.04661" lon="6.91681">
        <ele>1143.1</ele>
        <time>2022-05-28T12:03:39Z</time>
      </trkpt>
      <trkpt lat="48.04652" lon="6.91689">
        <ele>1140.4</ele>
        <time>2022-05-28T12:03:42Z</time>
      </trkpt>
      <trkpt lat="48.04643" lon="6.91687">
        <ele>1140.4</ele>
        <time>2022-05-28T12:03:46Z</time>
      </trkpt>
      <trkpt lat="48.04648" lon="6.91673">
        <ele>1139.6</ele>
        <time>2022-05-28T12:03:51Z</time>
      </trkpt>
      <trkpt lat="48.04651" lon="6.91658">
        <ele>1139.4</ele>
        <time>2022-05-28T12:03:57Z</time>
      </trkpt>
      <trkpt lat="48.04652" lon="6.91644">
        <ele>1139.2</ele>
        <time>2022-05-28T12:04:02Z</time>
      </trkpt>
      <trkpt lat="48.0465" lon="6.91629">
        <ele>1138.4</ele>
        <time>2022-05-28T12:04:07Z</time>
      </trkpt>
      <trkpt lat="48.0465" lon="6.9162">
        <ele>1137.7</ele>
        <time>2022-05-28T12:04:13Z</time>
      </trkpt>
      <trkpt lat="48.04649" lon="6.9162">
        <ele>1138.1</ele>
        <time>2022-05-28T12:04:21Z</time>
      </trkpt>
      <trkpt lat="48.04649" lon="6.91619">
        <ele>1137.7</ele>
        <time>2022-05-28T12:05:06Z</time>
      </trkpt>
      <trkpt lat="48.04651" lon="6.91602">
        <ele>1134.2</ele>
        <time>2022-05-28T12:05:11Z</time>
      </trkpt>
      <trkpt lat="48.04654" lon="6.91586">
        <ele>1135.4</ele>
        <time>2022-05-28T12:05:14Z</time>
      </trkpt>
      <trkpt lat="48.04661" lon="6.9157">
        <ele>1133.9</ele>
        <time>2022-05-28T12:05:17Z</time>
      </trkpt>
      <trkpt lat="48.04666" lon="6.91556">
        <ele>1132.9</ele>
        <time>2022-05-28T12:05:19Z</time>
      </trkpt>
      <trkpt lat="48.04671" lon="6.91543">
        <ele>1130.7</ele>
        <time>2022-05-28T12:05:21Z</time>
      </trkpt>
      <trkpt lat="48.04679" lon="6.91533">
        <ele>1126.8</ele>
        <time>2022-05-28T12:05:23Z</time>
      </trkpt>
      <trkpt lat="48.04687" lon="6.91524">
        <ele>1123.6</ele>
        <time>2022-05-28T12:05:25Z</time>
      </trkpt>
      <trkpt lat="48.04697" lon="6.91511">
        <ele>1123.5</ele>
        <time>2022-05-28T12:05:28Z</time>
      </trkpt>
      <trkpt lat="48.04705" lon="6.91502">
        <ele>1122</ele>
        <time>2022-05-28T12:05:30Z</time>
      </trkpt>
      <trkpt lat="48.04715" lon="6.91487">
        <ele>1120.4</ele>
        <time>2022-05-28T12:05:32Z</time>
      </trkpt>
      <trkpt lat="48.04725" lon="6.91468">
        <ele>1115.5</ele>
        <time>2022-05-28T12:05:34Z</time>
      </trkpt>
      <trkpt lat="48.04735" lon="6.91448">
        <ele>1112.7</ele>
        <time>2022-05-28T12:05:36Z</time>
      </trkpt>
      <trkpt lat="48.04742" lon="6.91438">
        <ele>1111.8</ele>
        <time>2022-05-28T12:05:37Z</time>
      </trkpt>
      <trkpt lat="48.04749" lon="6.91428">
        <ele>1110.9</ele>
        <time>2022-05-28T12:05:38Z</time>
      </trkpt>
      <trkpt lat="48.04756" lon="6.91418">
        <ele>1113.5</ele>
        <time>2022-05-28T12:05:39Z</time>
      </trkpt>
      <trkpt lat="48.04767" lon="6.91401">
        <ele>1113.3</ele>
        <time>2022-05-28T12:05:41Z</time>
      </trkpt>
      <trkpt lat="48.04778" lon="6.91381">
        <ele>1113.5</ele>
        <time>2022-05-28T12:05:43Z</time>
      </trkpt>
      <trkpt lat="48.04786" lon="6.91367">
        <ele>1115.5</ele>
        <time>2022-05-28T12:05:45Z</time>
      </trkpt>
      <trkpt lat="48.04793" lon="6.91356">
        <ele>1116.4</ele>
        <time>2022-05-28T12:05:47Z</time>
      </trkpt>
      <trkpt lat="48.04803" lon="6.91343">
        <ele>1115.8</ele>
        <time>2022-05-28T12:05:50Z</time>
      </trkpt>
      <trkpt lat="48.04811" lon="6.91331">
        <ele>1116.7</ele>
        <time>2022-05-28T12:05:53Z</time>
      </trkpt>
      <trkpt lat="48.04818" lon="6.91321">
        <ele>1116.2</ele>
        <time>2022-05-28T12:05:56Z</time>
      </trkpt>
      <trkpt lat="48.04826" lon="6.91309">
        <ele>1117.9</ele>
        <time>2022-05-28T12:06:00Z</time>
      </trkpt>
      <trkpt lat="48.04829" lon="6.91294">
        <ele>1119.5</ele>
        <time>2022-05-28T12:06:04Z</time>
      </trkpt>
      <trkpt lat="48.04831" lon="6.91278">
        <ele>1120</ele>
        <time>2022-05-28T12:06:08Z</time>
      </trkpt>
      <trkpt lat="48.04828" lon="6.91263">
        <ele>1119.5</ele>
        <time>2022-05-28T12:06:13Z</time>
      </trkpt>
      <trkpt lat="48.04818" lon="6.91262">
        <ele>1119.7</ele>
        <time>2022-05-28T12:06:18Z</time>
      </trkpt>
      <trkpt lat="48.04808" lon="6.91259">
        <ele>1118.9</ele>
        <time>2022-05-28T12:06:24Z</time>
      </trkpt>
      <trkpt lat="48.04796" lon="6.91253">
        <ele>1117.9</ele>
        <time>2022-05-28T12:06:28Z</time>
      </trkpt>
      <trkpt lat="48.04787" lon="6.91248">
        <ele>1117.6</ele>
        <time>2022-05-28T12:06:30Z</time>
      </trkpt>
      <trkpt lat="48.04778" lon="6.91246">
        <ele>1114.8</ele>
        <time>2022-05-28T12:06:32Z</time>
      </trkpt>
      <trkpt lat="48.04764" lon="6.91245">
        <ele>1113.5</ele>
        <time>2022-05-28T12:06:35Z</time>
      </trkpt>
      <trkpt lat="48.04755" lon="6.91245">
        <ele>1113.5</ele>
        <time>2022-05-28T12:06:37Z</time>
      </trkpt>
      <trkpt lat="48.04745" lon="6.91238">
        <ele>1112.3</ele>
        <time>2022-05-28T12:06:40Z</time>
      </trkpt>
      <trkpt lat="48.04737" lon="6.91228">
        <ele>1111.6</ele>
        <time>2022-05-28T12:06:43Z</time>
      </trkpt>
      <trkpt lat="48.0473" lon="6.91219">
        <ele>1108.5</ele>
        <time>2022-05-28T12:06:46Z</time>
      </trkpt>
      <trkpt lat="48.04723" lon="6.91208">
        <ele>1106.8</ele>
        <time>2022-05-28T12:06:49Z</time>
      </trkpt>
      <trkpt lat="48.04717" lon="6.91196">
        <ele>1103.9</ele>
        <time>2022-05-28T12:06:52Z</time>
      </trkpt>
      <trkpt lat="48.04713" lon="6.91182">
        <ele>1105.3</ele>
        <time>2022-05-28T12:06:55Z</time>
      </trkpt>
      <trkpt lat="48.0471" lon="6.91166">
        <ele>1103.7</ele>
        <time>2022-05-28T12:06:58Z</time>
      </trkpt>
      <trkpt lat="48.04702" lon="6.91155">
        <ele>1102.2</ele>
        <time>2022-05-28T12:07:01Z</time>
      </trkpt>
      <trkpt lat="48.04691" lon="6.91149">
        <ele>1100.9</ele>
        <time>2022-05-28T12:07:04Z</time>
      </trkpt>
      <trkpt lat="48.04681" lon="6.91146">
        <ele>1100.4</ele>
        <time>2022-05-28T12:07:06Z</time>
      </trkpt>
      <trkpt lat="48.04672" lon="6.91141">
        <ele>1100.1</ele>
        <time>2022-05-28T12:07:08Z</time>
      </trkpt>
      <trkpt lat="48.04662" lon="6.91138">
        <ele>1099.2</ele>
        <time>2022-05-28T12:07:10Z</time>
      </trkpt>
      <trkpt lat="48.0465" lon="6.91135">
        <ele>1097.3</ele>
        <time>2022-05-28T12:07:12Z</time>
      </trkpt>
      <trkpt lat="48.04637" lon="6.91137">
        <ele>1096.2</ele>
        <time>2022-05-28T12:07:14Z</time>
      </trkpt>
      <trkpt lat="48.04625" lon="6.91143">
        <ele>1096.1</ele>
        <time>2022-05-28T12:07:16Z</time>
      </trkpt>
      <trkpt lat="48.04614" lon="6.91148">
        <ele>1094.9</ele>
        <time>2022-05-28T12:07:18Z</time>
      </trkpt>
      <trkpt lat="48.04604" lon="6.91149">
        <ele>1093.3</ele>
        <time>2022-05-28T12:07:20Z</time>
      </trkpt>
      <trkpt lat="48.04592" lon="6.91146">
        <ele>1093.2</ele>
        <time>2022-05-28T12:07:22Z</time>
      </trkpt>
      <trkpt lat="48.04582" lon="6.91146">
        <ele>1092.3</ele>
        <time>2022-05-28T12:07:24Z</time>
      </trkpt>
      <trkpt lat="48.04573" lon="6.91146">
        <ele>1091.8</ele>
        <time>2022-05-28T12:07:27Z</time>
      </trkpt>
      <trkpt lat="48.04567" lon="6.91131">
        <ele>1090.8</ele>
        <time>2022-05-28T12:07:32Z</time>
      </trkpt>
      <trkpt lat="48.04566" lon="6.91115">
        <ele>1090.4</ele>
        <time>2022-05-28T12:07:35Z</time>
      </trkpt>
      <trkpt lat="48.04567" lon="6.91099">
        <ele>1087.8</ele>
        <time>2022-05-28T12:07:38Z</time>
      </trkpt>
      <trkpt lat="48.04572" lon="6.9108">
        <ele>1088.4</ele>
        <time>2022-05-28T12:07:41Z</time>
      </trkpt>
      <trkpt lat="48.04579" lon="6.91067">
        <ele>1086.8</ele>
        <time>2022-05-28T12:07:43Z</time>
      </trkpt>
      <trkpt lat="48.04587" lon="6.91053">
        <ele>1087.7</ele>
        <time>2022-05-28T12:07:45Z</time>
      </trkpt>
      <trkpt lat="48.04597" lon="6.91038">
        <ele>1085.2</ele>
        <time>2022-05-28T12:07:47Z</time>
      </trkpt>
      <trkpt lat="48.04607" lon="6.91022">
        <ele>1082.8</ele>
        <time>2022-05-28T12:07:49Z</time>
      </trkpt>
      <trkpt lat="48.04617" lon="6.91006">
        <ele>1082.6</ele>
        <time>2022-05-28T12:07:51Z</time>
      </trkpt>
      <trkpt lat="48.04626" lon="6.90992">
        <ele>1082.4</ele>
        <time>2022-05-28T12:07:53Z</time>
      </trkpt>
      <trkpt lat="48.04635" lon="6.90981">
        <ele>1084.2</ele>
        <time>2022-05-28T12:07:55Z</time>
      </trkpt>
      <trkpt lat="48.04643" lon="6.9097">
        <ele>1082</ele>
        <time>2022-05-28T12:07:57Z</time>
      </trkpt>
      <trkpt lat="48.04651" lon="6.90962">
        <ele>1082.7</ele>
        <time>2022-05-28T12:07:59Z</time>
      </trkpt>
      <trkpt lat="48.0466" lon="6.90951">
        <ele>1083.8</ele>
        <time>2022-05-28T12:08:01Z</time>
      </trkpt>
      <trkpt lat="48.04667" lon="6.90941">
        <ele>1083.6</ele>
        <time>2022-05-28T12:08:03Z</time>
      </trkpt>
      <trkpt lat="48.04678" lon="6.90934">
        <ele>1086.2</ele>
        <time>2022-05-28T12:08:05Z</time>
      </trkpt>
      <trkpt lat="48.0469" lon="6.90929">
        <ele>1084.2</ele>
        <time>2022-05-28T12:08:07Z</time>
      </trkpt>
      <trkpt lat="48.047" lon="6.90923">
        <ele>1083.8</ele>
        <time>2022-05-28T12:08:09Z</time>
      </trkpt>
      <trkpt lat="48.04709" lon="6.90916">
        <ele>1085.1</ele>
        <time>2022-05-28T12:08:11Z</time>
      </trkpt>
      <trkpt lat="48.04718" lon="6.9091">
        <ele>1084.7</ele>
        <time>2022-05-28T12:08:13Z</time>
      </trkpt>
      <trkpt lat="48.04729" lon="6.90902">
        <ele>1086.2</ele>
        <time>2022-05-28T12:08:16Z</time>
      </trkpt>
      <trkpt lat="48.0474" lon="6.90895">
        <ele>1086</ele>
        <time>2022-05-28T12:08:19Z</time>
      </trkpt>
      <trkpt lat="48.04748" lon="6.90886">
        <ele>1085.3</ele>
        <time>2022-05-28T12:08:22Z</time>
      </trkpt>
      <trkpt lat="48.04755" lon="6.90873">
        <ele>1086.5</ele>
        <time>2022-05-28T12:08:25Z</time>
      </trkpt>
      <trkpt lat="48.04764" lon="6.90861">
        <ele>1086.3</ele>
        <time>2022-05-28T12:08:28Z</time>
      </trkpt>
      <trkpt lat="48.04773" lon="6.9085">
        <ele>1086</ele>
        <time>2022-05-28T12:08:31Z</time>
      </trkpt>
      <trkpt lat="48.04782" lon="6.90839">
        <ele>1087.8</ele>
        <time>2022-05-28T12:08:34Z</time>
      </trkpt>
      <trkpt lat="48.04787" lon="6.90825">
        <ele>1086</ele>
        <time>2022-05-28T12:08:36Z</time>
      </trkpt>
      <trkpt lat="48.04792" lon="6.90811">
        <ele>1085.2</ele>
        <time>2022-05-28T12:08:38Z</time>
      </trkpt>
      <trkpt lat="48.04796" lon="6.90798">
        <ele>1083.6</ele>
        <time>2022-05-28T12:08:40Z</time>
      </trkpt>
      <trkpt lat="48.048" lon="6.90785">
        <ele>1083</ele>
        <time>2022-05-28T12:08:42Z</time>
      </trkpt>
      <trkpt lat="48.04808" lon="6.90775">
        <ele>1080.9</ele>
        <time>2022-05-28T12:08:44Z</time>
      </trkpt>
      <trkpt lat="48.04815" lon="6.90765">
        <ele>1082.1</ele>
        <time>2022-05-28T12:08:46Z</time>
      </trkpt>
      <trkpt lat="48.04823" lon="6.90754">
        <ele>1080.5</ele>
        <time>2022-05-28T12:08:48Z</time>
      </trkpt>
      <trkpt lat="48.04829" lon="6.90742">
        <ele>1080.8</ele>
        <time>2022-05-28T12:08:50Z</time>
      </trkpt>
      <trkpt lat="48.04836" lon="6.90729">
        <ele>1082.7</ele>
        <time>2022-05-28T12:08:52Z</time>
      </trkpt>
      <trkpt lat="48.04839" lon="6.9071">
        <ele>1083.6</ele>
        <time>2022-05-28T12:08:54Z</time>
      </trkpt>
      <trkpt lat="48.04844" lon="6.90696">
        <ele>1082.3</ele>
        <time>2022-05-28T12:08:56Z</time>
      </trkpt>
      <trkpt lat="48.04847" lon="6.90682">
        <ele>1082.3</ele>
        <time>2022-05-28T12:08:58Z</time>
      </trkpt>
      <trkpt lat="48.04851" lon="6.90664">
        <ele>1083.5</ele>
        <time>2022-05-28T12:09:01Z</time>
      </trkpt>
      <trkpt lat="48.04855" lon="6.90648">
        <ele>1080.3</ele>
        <time>2022-05-28T12:09:04Z</time>
      </trkpt>
      <trkpt lat="48.04859" lon="6.90635">
        <ele>1080.8</ele>
        <time>2022-05-28T12:09:07Z</time>
      </trkpt>
      <trkpt lat="48.04863" lon="6.90618">
        <ele>1077.7</ele>
        <time>2022-05-28T12:09:11Z</time>
      </trkpt>
      <trkpt lat="48.04866" lon="6.90599">
        <ele>1076.1</ele>
        <time>2022-05-28T12:09:14Z</time>
      </trkpt>
      <trkpt lat="48.04866" lon="6.90584">
        <ele>1077.4</ele>
        <time>2022-05-28T12:09:16Z</time>
      </trkpt>
      <trkpt lat="48.04868" lon="6.9056">
        <ele>1077.3</ele>
        <time>2022-05-28T12:09:18Z</time>
      </trkpt>
      <trkpt lat="48.04869" lon="6.90545">
        <ele>1076</ele>
        <time>2022-05-28T12:09:19Z</time>
      </trkpt>
      <trkpt lat="48.04871" lon="6.9053">
        <ele>1076.3</ele>
        <time>2022-05-28T12:09:20Z</time>
      </trkpt>
      <trkpt lat="48.04871" lon="6.90516">
        <ele>1074</ele>
        <time>2022-05-28T12:09:21Z</time>
      </trkpt>
      <trkpt lat="48.04872" lon="6.90498">
        <ele>1074.4</ele>
        <time>2022-05-28T12:09:22Z</time>
      </trkpt>
      <trkpt lat="48.0487" lon="6.90473">
        <ele>1074.8</ele>
        <time>2022-05-28T12:09:24Z</time>
      </trkpt>
      <trkpt lat="48.04869" lon="6.90448">
        <ele>1069.9</ele>
        <time>2022-05-28T12:09:26Z</time>
      </trkpt>
      <trkpt lat="48.04867" lon="6.90423">
        <ele>1066.1</ele>
        <time>2022-05-28T12:09:28Z</time>
      </trkpt>
      <trkpt lat="48.04869" lon="6.90393">
        <ele>1068.4</ele>
        <time>2022-05-28T12:09:30Z</time>
      </trkpt>
      <trkpt lat="48.0487" lon="6.90377">
        <ele>1068.5</ele>
        <time>2022-05-28T12:09:31Z</time>
      </trkpt>
      <trkpt lat="48.0487" lon="6.90363">
        <ele>1069.4</ele>
        <time>2022-05-28T12:09:32Z</time>
      </trkpt>
      <trkpt lat="48.04871" lon="6.90347">
        <ele>1066</ele>
        <time>2022-05-28T12:09:33Z</time>
      </trkpt>
      <trkpt lat="48.04873" lon="6.90333">
        <ele>1064.9</ele>
        <time>2022-05-28T12:09:34Z</time>
      </trkpt>
      <trkpt lat="48.04874" lon="6.90318">
        <ele>1065.5</ele>
        <time>2022-05-28T12:09:35Z</time>
      </trkpt>
      <trkpt lat="48.04874" lon="6.90302">
        <ele>1062.8</ele>
        <time>2022-05-28T12:09:36Z</time>
      </trkpt>
      <trkpt lat="48.04876" lon="6.90287">
        <ele>1062.6</ele>
        <time>2022-05-28T12:09:37Z</time>
      </trkpt>
      <trkpt lat="48.04877" lon="6.90273">
        <ele>1060.4</ele>
        <time>2022-05-28T12:09:38Z</time>
      </trkpt>
      <trkpt lat="48.04878" lon="6.90258">
        <ele>1058.3</ele>
        <time>2022-05-28T12:09:39Z</time>
      </trkpt>
      <trkpt lat="48.04878" lon="6.90243">
        <ele>1058.5</ele>
        <time>2022-05-28T12:09:40Z</time>
      </trkpt>
      <trkpt lat="48.04877" lon="6.90227">
        <ele>1058</ele>
        <time>2022-05-28T12:09:41Z</time>
      </trkpt>
      <trkpt lat="48.04877" lon="6.90211">
        <ele>1056.5</ele>
        <time>2022-05-28T12:09:42Z</time>
      </trkpt>
      <trkpt lat="48.04877" lon="6.90197">
        <ele>1052.9</ele>
        <time>2022-05-28T12:09:43Z</time>
      </trkpt>
      <trkpt lat="48.04877" lon="6.90182">
        <ele>1051</ele>
        <time>2022-05-28T12:09:44Z</time>
      </trkpt>
      <trkpt lat="48.04883" lon="6.90156">
        <ele>1053.3</ele>
        <time>2022-05-28T12:09:46Z</time>
      </trkpt>
      <trkpt lat="48.04887" lon="6.90143">
        <ele>1054.4</ele>
        <time>2022-05-28T12:09:47Z</time>
      </trkpt>
      <trkpt lat="48.04891" lon="6.9013">
        <ele>1054.3</ele>
        <time>2022-05-28T12:09:48Z</time>
      </trkpt>
      <trkpt lat="48.04894" lon="6.90115">
        <ele>1052.9</ele>
        <time>2022-05-28T12:09:49Z</time>
      </trkpt>
      <trkpt lat="48.04897" lon="6.90101">
        <ele>1052.8</ele>
        <time>2022-05-28T12:09:50Z</time>
      </trkpt>
      <trkpt lat="48.04903" lon="6.90075">
        <ele>1053.5</ele>
        <time>2022-05-28T12:09:52Z</time>
      </trkpt>
      <trkpt lat="48.04906" lon="6.90062">
        <ele>1053.6</ele>
        <time>2022-05-28T12:09:53Z</time>
      </trkpt>
      <trkpt lat="48.04908" lon="6.90048">
        <ele>1053.6</ele>
        <time>2022-05-28T12:09:54Z</time>
      </trkpt>
      <trkpt lat="48.0491" lon="6.90034">
        <ele>1054.7</ele>
        <time>2022-05-28T12:09:55Z</time>
      </trkpt>
      <trkpt lat="48.04913" lon="6.90021">
        <ele>1054.1</ele>
        <time>2022-05-28T12:09:56Z</time>
      </trkpt>
      <trkpt lat="48.04918" lon="6.89996">
        <ele>1054.3</ele>
        <time>2022-05-28T12:09:58Z</time>
      </trkpt>
      <trkpt lat="48.04922" lon="6.89971">
        <ele>1055.2</ele>
        <time>2022-05-28T12:10:00Z</time>
      </trkpt>
      <trkpt lat="48.04925" lon="6.89945">
        <ele>1053.3</ele>
        <time>2022-05-28T12:10:02Z</time>
      </trkpt>
      <trkpt lat="48.04929" lon="6.89922">
        <ele>1052.8</ele>
        <time>2022-05-28T12:10:04Z</time>
      </trkpt>
      <trkpt lat="48.04933" lon="6.89898">
        <ele>1052.3</ele>
        <time>2022-05-28T12:10:06Z</time>
      </trkpt>
      <trkpt lat="48.04935" lon="6.89873">
        <ele>1052.4</ele>
        <time>2022-05-28T12:10:08Z</time>
      </trkpt>
      <trkpt lat="48.04939" lon="6.8985">
        <ele>1053.2</ele>
        <time>2022-05-28T12:10:10Z</time>
      </trkpt>
      <trkpt lat="48.04943" lon="6.89828">
        <ele>1054.4</ele>
        <time>2022-05-28T12:10:12Z</time>
      </trkpt>
      <trkpt lat="48.04947" lon="6.89808">
        <ele>1053.1</ele>
        <time>2022-05-28T12:10:14Z</time>
      </trkpt>
      <trkpt lat="48.04952" lon="6.89791">
        <ele>1054.4</ele>
        <time>2022-05-28T12:10:16Z</time>
      </trkpt>
      <trkpt lat="48.04956" lon="6.89775">
        <ele>1054.8</ele>
        <time>2022-05-28T12:10:18Z</time>
      </trkpt>
      <trkpt lat="48.0496" lon="6.89761">
        <ele>1056.7</ele>
        <time>2022-05-28T12:10:20Z</time>
      </trkpt>
      <trkpt lat="48.04965" lon="6.89743">
        <ele>1056.2</ele>
        <time>2022-05-28T12:10:23Z</time>
      </trkpt>
      <trkpt lat="48.0497" lon="6.89726">
        <ele>1058.6</ele>
        <time>2022-05-28T12:10:26Z</time>
      </trkpt>
      <trkpt lat="48.04973" lon="6.8971">
        <ele>1057.2</ele>
        <time>2022-05-28T12:10:29Z</time>
      </trkpt>
      <trkpt lat="48.04978" lon="6.89697">
        <ele>1059.2</ele>
        <time>2022-05-28T12:10:32Z</time>
      </trkpt>
      <trkpt lat="48.04983" lon="6.89685">
        <ele>1058.5</ele>
        <time>2022-05-28T12:10:35Z</time>
      </trkpt>
      <trkpt lat="48.0499" lon="6.89676">
        <ele>1059.1</ele>
        <time>2022-05-28T12:10:38Z</time>
      </trkpt>
      <trkpt lat="48.04999" lon="6.89667">
        <ele>1058.4</ele>
        <time>2022-05-28T12:10:41Z</time>
      </trkpt>
      <trkpt lat="48.0501" lon="6.89658">
        <ele>1058.1</ele>
        <time>2022-05-28T12:10:44Z</time>
      </trkpt>
      <trkpt lat="48.05018" lon="6.89651">
        <ele>1057.3</ele>
        <time>2022-05-28T12:10:46Z</time>
      </trkpt>
      <trkpt lat="48.05028" lon="6.89643">
        <ele>1055.3</ele>
        <time>2022-05-28T12:10:48Z</time>
      </trkpt>
      <trkpt lat="48.05039" lon="6.89638">
        <ele>1055</ele>
        <time>2022-05-28T12:10:50Z</time>
      </trkpt>
      <trkpt lat="48.0505" lon="6.89636">
        <ele>1051.8</ele>
        <time>2022-05-28T12:10:52Z</time>
      </trkpt>
      <trkpt lat="48.05064" lon="6.89633">
        <ele>1049.8</ele>
        <time>2022-05-28T12:10:54Z</time>
      </trkpt>
      <trkpt lat="48.05082" lon="6.89631">
        <ele>1048.3</ele>
        <time>2022-05-28T12:10:56Z</time>
      </trkpt>
      <trkpt lat="48.05091" lon="6.89629">
        <ele>1049.5</ele>
        <time>2022-05-28T12:10:57Z</time>
      </trkpt>
      <trkpt lat="48.05101" lon="6.89626">
        <ele>1047.1</ele>
        <time>2022-05-28T12:10:58Z</time>
      </trkpt>
      <trkpt lat="48.05111" lon="6.89624">
        <ele>1044.4</ele>
        <time>2022-05-28T12:10:59Z</time>
      </trkpt>
      <trkpt lat="48.05122" lon="6.89621">
        <ele>1043.8</ele>
        <time>2022-05-28T12:11:00Z</time>
      </trkpt>
      <trkpt lat="48.05133" lon="6.89618">
        <ele>1046</ele>
        <time>2022-05-28T12:11:01Z</time>
      </trkpt>
      <trkpt lat="48.05143" lon="6.89615">
        <ele>1044.3</ele>
        <time>2022-05-28T12:11:02Z</time>
      </trkpt>
      <trkpt lat="48.05152" lon="6.89611">
        <ele>1042.7</ele>
        <time>2022-05-28T12:11:03Z</time>
      </trkpt>
      <trkpt lat="48.05167" lon="6.89599">
        <ele>1041.7</ele>
        <time>2022-05-28T12:11:05Z</time>
      </trkpt>
      <trkpt lat="48.05175" lon="6.89591">
        <ele>1043.3</ele>
        <time>2022-05-28T12:11:06Z</time>
      </trkpt>
      <trkpt lat="48.05183" lon="6.89583">
        <ele>1044.6</ele>
        <time>2022-05-28T12:11:07Z</time>
      </trkpt>
      <trkpt lat="48.05189" lon="6.89572">
        <ele>1042.6</ele>
        <time>2022-05-28T12:11:08Z</time>
      </trkpt>
      <trkpt lat="48.05195" lon="6.89557">
        <ele>1041.4</ele>
        <time>2022-05-28T12:11:09Z</time>
      </trkpt>
      <trkpt lat="48.05201" lon="6.89543">
        <ele>1041.1</ele>
        <time>2022-05-28T12:11:10Z</time>
      </trkpt>
      <trkpt lat="48.05207" lon="6.8953">
        <ele>1041.4</ele>
        <time>2022-05-28T12:11:11Z</time>
      </trkpt>
      <trkpt lat="48.05212" lon="6.89517">
        <ele>1040.1</ele>
        <time>2022-05-28T12:11:12Z</time>
      </trkpt>
      <trkpt lat="48.05222" lon="6.89496">
        <ele>1040.5</ele>
        <time>2022-05-28T12:11:14Z</time>
      </trkpt>
      <trkpt lat="48.05231" lon="6.89475">
        <ele>1039</ele>
        <time>2022-05-28T12:11:16Z</time>
      </trkpt>
      <trkpt lat="48.05236" lon="6.8945">
        <ele>1040.2</ele>
        <time>2022-05-28T12:11:18Z</time>
      </trkpt>
      <trkpt lat="48.05239" lon="6.89438">
        <ele>1039.1</ele>
        <time>2022-05-28T12:11:19Z</time>
      </trkpt>
      <trkpt lat="48.05243" lon="6.89425">
        <ele>1037.8</ele>
        <time>2022-05-28T12:11:20Z</time>
      </trkpt>
      <trkpt lat="48.05249" lon="6.89402">
        <ele>1036.7</ele>
        <time>2022-05-28T12:11:22Z</time>
      </trkpt>
      <trkpt lat="48.05254" lon="6.89378">
        <ele>1037.2</ele>
        <time>2022-05-28T12:11:24Z</time>
      </trkpt>
      <trkpt lat="48.05259" lon="6.89354">
        <ele>1037.4</ele>
        <time>2022-05-28T12:11:26Z</time>
      </trkpt>
      <trkpt lat="48.05264" lon="6.89331">
        <ele>1037.4</ele>
        <time>2022-05-28T12:11:28Z</time>
      </trkpt>
      <trkpt lat="48.05268" lon="6.89307">
        <ele>1035.3</ele>
        <time>2022-05-28T12:11:30Z</time>
      </trkpt>
      <trkpt lat="48.05274" lon="6.89284">
        <ele>1033.8</ele>
        <time>2022-05-28T12:11:32Z</time>
      </trkpt>
      <trkpt lat="48.0528" lon="6.89261">
        <ele>1032.8</ele>
        <time>2022-05-28T12:11:34Z</time>
      </trkpt>
      <trkpt lat="48.05287" lon="6.89242">
        <ele>1033.3</ele>
        <time>2022-05-28T12:11:36Z</time>
      </trkpt>
      <trkpt lat="48.05294" lon="6.89227">
        <ele>1033.2</ele>
        <time>2022-05-28T12:11:38Z</time>
      </trkpt>
      <trkpt lat="48.053" lon="6.89212">
        <ele>1034.7</ele>
        <time>2022-05-28T12:11:40Z</time>
      </trkpt>
      <trkpt lat="48.05303" lon="6.89198">
        <ele>1031</ele>
        <time>2022-05-28T12:11:42Z</time>
      </trkpt>
      <trkpt lat="48.05307" lon="6.89181">
        <ele>1027.1</ele>
        <time>2022-05-28T12:11:44Z</time>
      </trkpt>
      <trkpt lat="48.0531" lon="6.89159">
        <ele>1026.1</ele>
        <time>2022-05-28T12:11:46Z</time>
      </trkpt>
      <trkpt lat="48.05314" lon="6.89134">
        <ele>1025.3</ele>
        <time>2022-05-28T12:11:48Z</time>
      </trkpt>
      <trkpt lat="48.05317" lon="6.89108">
        <ele>1021</ele>
        <time>2022-05-28T12:11:50Z</time>
      </trkpt>
      <trkpt lat="48.05319" lon="6.89083">
        <ele>1020.7</ele>
        <time>2022-05-28T12:11:52Z</time>
      </trkpt>
      <trkpt lat="48.05321" lon="6.89061">
        <ele>1019.6</ele>
        <time>2022-05-28T12:11:54Z</time>
      </trkpt>
      <trkpt lat="48.05322" lon="6.89039">
        <ele>1019.2</ele>
        <time>2022-05-28T12:11:56Z</time>
      </trkpt>
      <trkpt lat="48.05321" lon="6.89023">
        <ele>1021</ele>
        <time>2022-05-28T12:11:58Z</time>
      </trkpt>
      <trkpt lat="48.05321" lon="6.89008">
        <ele>1019.1</ele>
        <time>2022-05-28T12:12:00Z</time>
      </trkpt>
      <trkpt lat="48.05321" lon="6.88994">
        <ele>1017.4</ele>
        <time>2022-05-28T12:12:02Z</time>
      </trkpt>
      <trkpt lat="48.05317" lon="6.88979">
        <ele>1017.6</ele>
        <time>2022-05-28T12:12:05Z</time>
      </trkpt>
      <trkpt lat="48.05305" lon="6.88975">
        <ele>1018.5</ele>
        <time>2022-05-28T12:12:09Z</time>
      </trkpt>
      <trkpt lat="48.05295" lon="6.88978">
        <ele>1019.6</ele>
        <time>2022-05-28T12:12:12Z</time>
      </trkpt>
      <trkpt lat="48.05286" lon="6.88984">
        <ele>1016.7</ele>
        <time>2022-05-28T12:12:15Z</time>
      </trkpt>
      <trkpt lat="48.05279" lon="6.88995">
        <ele>1015.5</ele>
        <time>2022-05-28T12:12:18Z</time>
      </trkpt>
      <trkpt lat="48.05274" lon="6.89007">
        <ele>1015.2</ele>
        <time>2022-05-28T12:12:22Z</time>
      </trkpt>
      <trkpt lat="48.05268" lon="6.89021">
        <ele>1013.8</ele>
        <time>2022-05-28T12:12:27Z</time>
      </trkpt>
      <trkpt lat="48.05262" lon="6.89033">
        <ele>1014</ele>
        <time>2022-05-28T12:12:30Z</time>
      </trkpt>
      <trkpt lat="48.05254" lon="6.8905">
        <ele>1012.4</ele>
        <time>2022-05-28T12:12:33Z</time>
      </trkpt>
      <trkpt lat="48.05247" lon="6.89065">
        <ele>1010.7</ele>
        <time>2022-05-28T12:12:35Z</time>
      </trkpt>
      <trkpt lat="48.0524" lon="6.89078">
        <ele>1010.4</ele>
        <time>2022-05-28T12:12:37Z</time>
      </trkpt>
      <trkpt lat="48.05232" lon="6.89091">
        <ele>1007.3</ele>
        <time>2022-05-28T12:12:39Z</time>
      </trkpt>
      <trkpt lat="48.05225" lon="6.89105">
        <ele>1006.5</ele>
        <time>2022-05-28T12:12:41Z</time>
      </trkpt>
      <trkpt lat="48.05216" lon="6.89117">
        <ele>1007.2</ele>
        <time>2022-05-28T12:12:43Z</time>
      </trkpt>
      <trkpt lat="48.05207" lon="6.89128">
        <ele>1003</ele>
        <time>2022-05-28T12:12:45Z</time>
      </trkpt>
      <trkpt lat="48.05195" lon="6.89142">
        <ele>1002.2</ele>
        <time>2022-05-28T12:12:47Z</time>
      </trkpt>
      <trkpt lat="48.05185" lon="6.89154">
        <ele>1001.5</ele>
        <time>2022-05-28T12:12:49Z</time>
      </trkpt>
      <trkpt lat="48.05176" lon="6.89161">
        <ele>1000.8</ele>
        <time>2022-05-28T12:12:51Z</time>
      </trkpt>
      <trkpt lat="48.05167" lon="6.89169">
        <ele>1000.2</ele>
        <time>2022-05-28T12:12:53Z</time>
      </trkpt>
      <trkpt lat="48.05159" lon="6.89181">
        <ele>998.8</ele>
        <time>2022-05-28T12:12:55Z</time>
      </trkpt>
      <trkpt lat="48.0515" lon="6.89196">
        <ele>997.5</ele>
        <time>2022-05-28T12:12:57Z</time>
      </trkpt>
      <trkpt lat="48.05141" lon="6.89211">
        <ele>999.4</ele>
        <time>2022-05-28T12:12:59Z</time>
      </trkpt>
      <trkpt lat="48.05129" lon="6.89223">
        <ele>998.6</ele>
        <time>2022-05-28T12:13:01Z</time>
      </trkpt>
      <trkpt lat="48.05116" lon="6.89235">
        <ele>996.7</ele>
        <time>2022-05-28T12:13:03Z</time>
      </trkpt>
      <trkpt lat="48.05105" lon="6.89247">
        <ele>994</ele>
        <time>2022-05-28T12:13:05Z</time>
      </trkpt>
      <trkpt lat="48.05096" lon="6.8926">
        <ele>992.9</ele>
        <time>2022-05-28T12:13:07Z</time>
      </trkpt>
      <trkpt lat="48.05086" lon="6.89272">
        <ele>994.9</ele>
        <time>2022-05-28T12:13:09Z</time>
      </trkpt>
      <trkpt lat="48.05072" lon="6.89278">
        <ele>994</ele>
        <time>2022-05-28T12:13:11Z</time>
      </trkpt>
      <trkpt lat="48.05059" lon="6.89279">
        <ele>991.9</ele>
        <time>2022-05-28T12:13:13Z</time>
      </trkpt>
      <trkpt lat="48.05047" lon="6.89276">
        <ele>993.4</ele>
        <time>2022-05-28T12:13:15Z</time>
      </trkpt>
      <trkpt lat="48.05034" lon="6.89273">
        <ele>990.9</ele>
        <time>2022-05-28T12:13:17Z</time>
      </trkpt>
      <trkpt lat="48.05023" lon="6.89271">
        <ele>993.2</ele>
        <time>2022-05-28T12:13:19Z</time>
      </trkpt>
      <trkpt lat="48.05012" lon="6.89268">
        <ele>993.3</ele>
        <time>2022-05-28T12:13:21Z</time>
      </trkpt>
      <trkpt lat="48.05002" lon="6.89267">
        <ele>994.3</ele>
        <time>2022-05-28T12:13:23Z</time>
      </trkpt>
      <trkpt lat="48.04991" lon="6.89265">
        <ele>992.9</ele>
        <time>2022-05-28T12:13:25Z</time>
      </trkpt>
      <trkpt lat="48.04979" lon="6.89263">
        <ele>992.7</ele>
        <time>2022-05-28T12:13:27Z</time>
      </trkpt>
      <trkpt lat="48.04968" lon="6.89263">
        <ele>993.2</ele>
        <time>2022-05-28T12:13:29Z</time>
      </trkpt>
      <trkpt lat="48.04956" lon="6.89264">
        <ele>993.3</ele>
        <time>2022-05-28T12:13:31Z</time>
      </trkpt>
      <trkpt lat="48.04947" lon="6.89265">
        <ele>993.5</ele>
        <time>2022-05-28T12:13:33Z</time>
      </trkpt>
      <trkpt lat="48.04935" lon="6.89267">
        <ele>995</ele>
        <time>2022-05-28T12:13:36Z</time>
      </trkpt>
      <trkpt lat="48.04925" lon="6.89272">
        <ele>998</ele>
        <time>2022-05-28T12:13:40Z</time>
      </trkpt>
      <trkpt lat="48.04916" lon="6.8928">
        <ele>998.6</ele>
        <time>2022-05-28T12:13:44Z</time>
      </trkpt>
      <trkpt lat="48.04908" lon="6.89287">
        <ele>998.6</ele>
        <time>2022-05-28T12:13:48Z</time>
      </trkpt>
      <trkpt lat="48.049" lon="6.89297">
        <ele>999.3</ele>
        <time>2022-05-28T12:13:52Z</time>
      </trkpt>
      <trkpt lat="48.04893" lon="6.89305">
        <ele>1000.5</ele>
        <time>2022-05-28T12:13:56Z</time>
      </trkpt>
      <trkpt lat="48.04886" lon="6.89316">
        <ele>999.6</ele>
        <time>2022-05-28T12:14:00Z</time>
      </trkpt>
      <trkpt lat="48.04881" lon="6.8933">
        <ele>1001.7</ele>
        <time>2022-05-28T12:14:05Z</time>
      </trkpt>
      <trkpt lat="48.04875" lon="6.89343">
        <ele>1002.5</ele>
        <time>2022-05-28T12:14:11Z</time>
      </trkpt>
      <trkpt lat="48.04871" lon="6.89357">
        <ele>1003.9</ele>
        <time>2022-05-28T12:14:17Z</time>
      </trkpt>
      <trkpt lat="48.04863" lon="6.89367">
        <ele>1005.2</ele>
        <time>2022-05-28T12:14:24Z</time>
      </trkpt>
      <trkpt lat="48.04855" lon="6.89374">
        <ele>1005.9</ele>
        <time>2022-05-28T12:14:30Z</time>
      </trkpt>
      <trkpt lat="48.04846" lon="6.89381">
        <ele>1005.6</ele>
        <time>2022-05-28T12:14:35Z</time>
      </trkpt>
      <trkpt lat="48.0484" lon="6.89395">
        <ele>1006.7</ele>
        <time>2022-05-28T12:14:39Z</time>
      </trkpt>
      <trkpt lat="48.04834" lon="6.89408">
        <ele>1005.6</ele>
        <time>2022-05-28T12:14:42Z</time>
      </trkpt>
      <trkpt lat="48.04829" lon="6.89426">
        <ele>1003.9</ele>
        <time>2022-05-28T12:14:45Z</time>
      </trkpt>
      <trkpt lat="48.04825" lon="6.89438">
        <ele>1005.4</ele>
        <time>2022-05-28T12:14:47Z</time>
      </trkpt>
      <trkpt lat="48.04821" lon="6.89455">
        <ele>1001.8</ele>
        <time>2022-05-28T12:14:50Z</time>
      </trkpt>
      <trkpt lat="48.04816" lon="6.89472">
        <ele>1000.7</ele>
        <time>2022-05-28T12:14:53Z</time>
      </trkpt>
      <trkpt lat="48.04811" lon="6.89484">
        <ele>1001.6</ele>
        <time>2022-05-28T12:14:55Z</time>
      </trkpt>
      <trkpt lat="48.04805" lon="6.89496">
        <ele>1003</ele>
        <time>2022-05-28T12:14:57Z</time>
      </trkpt>
      <trkpt lat="48.048" lon="6.89509">
        <ele>1002.7</ele>
        <time>2022-05-28T12:14:59Z</time>
      </trkpt>
      <trkpt lat="48.04793" lon="6.89524">
        <ele>1000.9</ele>
        <time>2022-05-28T12:15:01Z</time>
      </trkpt>
      <trkpt lat="48.04789" lon="6.8954">
        <ele>1001.1</ele>
        <time>2022-05-28T12:15:03Z</time>
      </trkpt>
      <trkpt lat="48.04788" lon="6.89557">
        <ele>1005</ele>
        <time>2022-05-28T12:15:05Z</time>
      </trkpt>
      <trkpt lat="48.04787" lon="6.89571">
        <ele>1001.8</ele>
        <time>2022-05-28T12:15:07Z</time>
      </trkpt>
      <trkpt lat="48.04786" lon="6.89588">
        <ele>1002.2</ele>
        <time>2022-05-28T12:15:10Z</time>
      </trkpt>
      <trkpt lat="48.04787" lon="6.89606">
        <ele>1002.5</ele>
        <time>2022-05-28T12:15:13Z</time>
      </trkpt>
      <trkpt lat="48.04786" lon="6.89621">
        <ele>1001.9</ele>
        <time>2022-05-28T12:15:16Z</time>
      </trkpt>
      <trkpt lat="48.04783" lon="6.89636">
        <ele>1003</ele>
        <time>2022-05-28T12:15:19Z</time>
      </trkpt>
      <trkpt lat="48.04779" lon="6.89654">
        <ele>1001.7</ele>
        <time>2022-05-28T12:15:22Z</time>
      </trkpt>
      <trkpt lat="48.04775" lon="6.89673">
        <ele>999.8</ele>
        <time>2022-05-28T12:15:25Z</time>
      </trkpt>
      <trkpt lat="48.04774" lon="6.89692">
        <ele>1000.5</ele>
        <time>2022-05-28T12:15:28Z</time>
      </trkpt>
      <trkpt lat="48.04776" lon="6.8971">
        <ele>1002</ele>
        <time>2022-05-28T12:15:31Z</time>
      </trkpt>
      <trkpt lat="48.04778" lon="6.89726">
        <ele>1001.2</ele>
        <time>2022-05-28T12:15:34Z</time>
      </trkpt>
      <trkpt lat="48.04778" lon="6.89741">
        <ele>1004.1</ele>
        <time>2022-05-28T12:15:37Z</time>
      </trkpt>
      <trkpt lat="48.04775" lon="6.89761">
        <ele>1004.1</ele>
        <time>2022-05-28T12:15:40Z</time>
      </trkpt>
      <trkpt lat="48.0477" lon="6.89777">
        <ele>999.2</ele>
        <time>2022-05-28T12:15:43Z</time>
      </trkpt>
      <trkpt lat="48.04763" lon="6.89789">
        <ele>1001.6</ele>
        <time>2022-05-28T12:15:46Z</time>
      </trkpt>
      <trkpt lat="48.04754" lon="6.89802">
        <ele>1000.6</ele>
        <time>2022-05-28T12:15:49Z</time>
      </trkpt>
      <trkpt lat="48.04743" lon="6.89811">
        <ele>1001.1</ele>
        <time>2022-05-28T12:15:52Z</time>
      </trkpt>
      <trkpt lat="48.04734" lon="6.89816">
        <ele>1000.3</ele>
        <time>2022-05-28T12:15:55Z</time>
      </trkpt>
      <trkpt lat="48.04723" lon="6.89821">
        <ele>997.6</ele>
        <time>2022-05-28T12:15:58Z</time>
      </trkpt>
      <trkpt lat="48.04715" lon="6.8983">
        <ele>996.8</ele>
        <time>2022-05-28T12:16:00Z</time>
      </trkpt>
      <trkpt lat="48.04704" lon="6.89838">
        <ele>996.4</ele>
        <time>2022-05-28T12:16:03Z</time>
      </trkpt>
      <trkpt lat="48.04692" lon="6.89838">
        <ele>994.6</ele>
        <time>2022-05-28T12:16:06Z</time>
      </trkpt>
      <trkpt lat="48.04682" lon="6.89841">
        <ele>995.6</ele>
        <time>2022-05-28T12:16:09Z</time>
      </trkpt>
      <trkpt lat="48.04675" lon="6.89851">
        <ele>995.7</ele>
        <time>2022-05-28T12:16:14Z</time>
      </trkpt>
      <trkpt lat="48.04666" lon="6.89861">
        <ele>995.6</ele>
        <time>2022-05-28T12:16:19Z</time>
      </trkpt>
      <trkpt lat="48.04659" lon="6.8987">
        <ele>996.4</ele>
        <time>2022-05-28T12:16:24Z</time>
      </trkpt>
      <trkpt lat="48.04651" lon="6.89876">
        <ele>995.7</ele>
        <time>2022-05-28T12:16:29Z</time>
      </trkpt>
      <trkpt lat="48.04641" lon="6.89885">
        <ele>994.9</ele>
        <time>2022-05-28T12:16:33Z</time>
      </trkpt>
      <trkpt lat="48.0463" lon="6.89895">
        <ele>992.1</ele>
        <time>2022-05-28T12:16:36Z</time>
      </trkpt>
      <trkpt lat="48.04622" lon="6.89902">
        <ele>993.7</ele>
        <time>2022-05-28T12:16:38Z</time>
      </trkpt>
      <trkpt lat="48.04613" lon="6.89909">
        <ele>994.6</ele>
        <time>2022-05-28T12:16:40Z</time>
      </trkpt>
      <trkpt lat="48.04604" lon="6.89918">
        <ele>994.2</ele>
        <time>2022-05-28T12:16:42Z</time>
      </trkpt>
      <trkpt lat="48.04595" lon="6.89929">
        <ele>995.1</ele>
        <time>2022-05-28T12:16:44Z</time>
      </trkpt>
      <trkpt lat="48.04587" lon="6.89938">
        <ele>992.9</ele>
        <time>2022-05-28T12:16:46Z</time>
      </trkpt>
      <trkpt lat="48.04578" lon="6.89948">
        <ele>991.4</ele>
        <time>2022-05-28T12:16:48Z</time>
      </trkpt>
      <trkpt lat="48.04566" lon="6.89957">
        <ele>991.5</ele>
        <time>2022-05-28T12:16:50Z</time>
      </trkpt>
      <trkpt lat="48.04555" lon="6.89962">
        <ele>991.5</ele>
        <time>2022-05-28T12:16:52Z</time>
      </trkpt>
      <trkpt lat="48.04546" lon="6.89966">
        <ele>992.2</ele>
        <time>2022-05-28T12:16:54Z</time>
      </trkpt>
      <trkpt lat="48.04535" lon="6.89974">
        <ele>992.9</ele>
        <time>2022-05-28T12:16:57Z</time>
      </trkpt>
      <trkpt lat="48.04525" lon="6.89986">
        <ele>993.6</ele>
        <time>2022-05-28T12:17:00Z</time>
      </trkpt>
      <trkpt lat="48.04518" lon="6.89999">
        <ele>991.9</ele>
        <time>2022-05-28T12:17:03Z</time>
      </trkpt>
      <trkpt lat="48.04511" lon="6.90013">
        <ele>992.9</ele>
        <time>2022-05-28T12:17:06Z</time>
      </trkpt>
      <trkpt lat="48.04504" lon="6.90026">
        <ele>993</ele>
        <time>2022-05-28T12:17:09Z</time>
      </trkpt>
      <trkpt lat="48.04497" lon="6.90037">
        <ele>993.4</ele>
        <time>2022-05-28T12:17:12Z</time>
      </trkpt>
      <trkpt lat="48.0449" lon="6.90048">
        <ele>992.6</ele>
        <time>2022-05-28T12:17:15Z</time>
      </trkpt>
      <trkpt lat="48.04481" lon="6.90061">
        <ele>992.9</ele>
        <time>2022-05-28T12:17:18Z</time>
      </trkpt>
      <trkpt lat="48.04473" lon="6.90077">
        <ele>992.7</ele>
        <time>2022-05-28T12:17:21Z</time>
      </trkpt>
      <trkpt lat="48.04465" lon="6.90089">
        <ele>993.8</ele>
        <time>2022-05-28T12:17:24Z</time>
      </trkpt>
      <trkpt lat="48.04455" lon="6.90098">
        <ele>993.1</ele>
        <time>2022-05-28T12:17:28Z</time>
      </trkpt>
      <trkpt lat="48.04447" lon="6.90105">
        <ele>992.4</ele>
        <time>2022-05-28T12:17:31Z</time>
      </trkpt>
      <trkpt lat="48.04438" lon="6.90113">
        <ele>990.8</ele>
        <time>2022-05-28T12:17:34Z</time>
      </trkpt>
      <trkpt lat="48.04427" lon="6.90123">
        <ele>991.8</ele>
        <time>2022-05-28T12:17:37Z</time>
      </trkpt>
      <trkpt lat="48.0442" lon="6.90132">
        <ele>989.5</ele>
        <time>2022-05-28T12:17:39Z</time>
      </trkpt>
      <trkpt lat="48.04412" lon="6.90141">
        <ele>990.9</ele>
        <time>2022-05-28T12:17:41Z</time>
      </trkpt>
      <trkpt lat="48.04403" lon="6.9015">
        <ele>989.4</ele>
        <time>2022-05-28T12:17:43Z</time>
      </trkpt>
      <trkpt lat="48.04395" lon="6.90159">
        <ele>988.8</ele>
        <time>2022-05-28T12:17:45Z</time>
      </trkpt>
      <trkpt lat="48.04388" lon="6.90169">
        <ele>988.6</ele>
        <time>2022-05-28T12:17:47Z</time>
      </trkpt>
      <trkpt lat="48.04382" lon="6.90182">
        <ele>988.7</ele>
        <time>2022-05-28T12:17:49Z</time>
      </trkpt>
      <trkpt lat="48.04378" lon="6.90196">
        <ele>988.4</ele>
        <time>2022-05-28T12:17:51Z</time>
      </trkpt>
      <trkpt lat="48.04372" lon="6.90212">
        <ele>992.5</ele>
        <time>2022-05-28T12:17:54Z</time>
      </trkpt>
      <trkpt lat="48.04365" lon="6.90226">
        <ele>990</ele>
        <time>2022-05-28T12:17:57Z</time>
      </trkpt>
      <trkpt lat="48.04357" lon="6.90238">
        <ele>991</ele>
        <time>2022-05-28T12:18:00Z</time>
      </trkpt>
      <trkpt lat="48.0435" lon="6.90248">
        <ele>993.6</ele>
        <time>2022-05-28T12:18:03Z</time>
      </trkpt>
      <trkpt lat="48.04344" lon="6.90259">
        <ele>993.7</ele>
        <time>2022-05-28T12:18:07Z</time>
      </trkpt>
      <trkpt lat="48.04339" lon="6.90275">
        <ele>995.1</ele>
        <time>2022-05-28T12:18:11Z</time>
      </trkpt>
      <trkpt lat="48.04335" lon="6.90289">
        <ele>994.9</ele>
        <time>2022-05-28T12:18:14Z</time>
      </trkpt>
      <trkpt lat="48.04332" lon="6.90303">
        <ele>993.9</ele>
        <time>2022-05-28T12:18:17Z</time>
      </trkpt>
      <trkpt lat="48.04326" lon="6.9032">
        <ele>992.6</ele>
        <time>2022-05-28T12:18:20Z</time>
      </trkpt>
      <trkpt lat="48.04321" lon="6.90331">
        <ele>994.2</ele>
        <time>2022-05-28T12:18:22Z</time>
      </trkpt>
      <trkpt lat="48.04316" lon="6.90342">
        <ele>994.5</ele>
        <time>2022-05-28T12:18:24Z</time>
      </trkpt>
      <trkpt lat="48.0431" lon="6.90357">
        <ele>993.5</ele>
        <time>2022-05-28T12:18:27Z</time>
      </trkpt>
      <trkpt lat="48.04306" lon="6.90369">
        <ele>993.8</ele>
        <time>2022-05-28T12:18:30Z</time>
      </trkpt>
      <trkpt lat="48.04301" lon="6.90385">
        <ele>996.2</ele>
        <time>2022-05-28T12:18:34Z</time>
      </trkpt>
      <trkpt lat="48.04297" lon="6.90401">
        <ele>994.9</ele>
        <time>2022-05-28T12:18:38Z</time>
      </trkpt>
      <trkpt lat="48.04295" lon="6.90414">
        <ele>995.6</ele>
        <time>2022-05-28T12:18:41Z</time>
      </trkpt>
      <trkpt lat="48.04293" lon="6.90427">
        <ele>996</ele>
        <time>2022-05-28T12:18:44Z</time>
      </trkpt>
      <trkpt lat="48.04291" lon="6.90442">
        <ele>995.6</ele>
        <time>2022-05-28T12:18:47Z</time>
      </trkpt>
      <trkpt lat="48.04289" lon="6.90456">
        <ele>996.2</ele>
        <time>2022-05-28T12:18:50Z</time>
      </trkpt>
      <trkpt lat="48.04287" lon="6.9047">
        <ele>995.7</ele>
        <time>2022-05-28T12:18:53Z</time>
      </trkpt>
      <trkpt lat="48.04284" lon="6.90484">
        <ele>997.5</ele>
        <time>2022-05-28T12:18:56Z</time>
      </trkpt>
      <trkpt lat="48.04283" lon="6.90499">
        <ele>996.4</ele>
        <time>2022-05-28T12:18:59Z</time>
      </trkpt>
      <trkpt lat="48.04283" lon="6.90513">
        <ele>996.4</ele>
        <time>2022-05-28T12:19:02Z</time>
      </trkpt>
      <trkpt lat="48.04286" lon="6.90529">
        <ele>999</ele>
        <time>2022-05-28T12:19:06Z</time>
      </trkpt>
      <trkpt lat="48.0429" lon="6.90543">
        <ele>1000.1</ele>
        <time>2022-05-28T12:19:10Z</time>
      </trkpt>
      <trkpt lat="48.04293" lon="6.90557">
        <ele>1001.3</ele>
        <time>2022-05-28T12:19:14Z</time>
      </trkpt>
      <trkpt lat="48.04295" lon="6.90571">
        <ele>1001.2</ele>
        <time>2022-05-28T12:19:18Z</time>
      </trkpt>
      <trkpt lat="48.04297" lon="6.90586">
        <ele>1002.6</ele>
        <time>2022-05-28T12:19:23Z</time>
      </trkpt>
      <trkpt lat="48.04299" lon="6.906">
        <ele>1002.4</ele>
        <time>2022-05-28T12:19:27Z</time>
      </trkpt>
      <trkpt lat="48.04302" lon="6.90614">
        <ele>1002.4</ele>
        <time>2022-05-28T12:19:31Z</time>
      </trkpt>
      <trkpt lat="48.04303" lon="6.90627">
        <ele>1002.8</ele>
        <time>2022-05-28T12:19:37Z</time>
      </trkpt>
      <trkpt lat="48.04301" lon="6.90641">
        <ele>1002.6</ele>
        <time>2022-05-28T12:19:45Z</time>
      </trkpt>
      <trkpt lat="48.04299" lon="6.90655">
        <ele>1003.2</ele>
        <time>2022-05-28T12:19:51Z</time>
      </trkpt>
      <trkpt lat="48.04299" lon="6.90669">
        <ele>1003</ele>
        <time>2022-05-28T12:19:56Z</time>
      </trkpt>
      <trkpt lat="48.04296" lon="6.90684">
        <ele>1002.6</ele>
        <time>2022-05-28T12:20:01Z</time>
      </trkpt>
      <trkpt lat="48.04293" lon="6.907">
        <ele>1002.4</ele>
        <time>2022-05-28T12:20:05Z</time>
      </trkpt>
      <trkpt lat="48.04289" lon="6.90715">
        <ele>1003.8</ele>
        <time>2022-05-28T12:20:09Z</time>
      </trkpt>
      <trkpt lat="48.04282" lon="6.90729">
        <ele>1003.6</ele>
        <time>2022-05-28T12:20:13Z</time>
      </trkpt>
      <trkpt lat="48.04277" lon="6.90742">
        <ele>1003.8</ele>
        <time>2022-05-28T12:20:16Z</time>
      </trkpt>
      <trkpt lat="48.04271" lon="6.90754">
        <ele>1004</ele>
        <time>2022-05-28T12:20:19Z</time>
      </trkpt>
      <trkpt lat="48.04262" lon="6.90765">
        <ele>1003.9</ele>
        <time>2022-05-28T12:20:22Z</time>
      </trkpt>
      <trkpt lat="48.04251" lon="6.90775">
        <ele>1002.9</ele>
        <time>2022-05-28T12:20:25Z</time>
      </trkpt>
      <trkpt lat="48.04239" lon="6.90784">
        <ele>1002.4</ele>
        <time>2022-05-28T12:20:28Z</time>
      </trkpt>
      <trkpt lat="48.04231" lon="6.9079">
        <ele>1002</ele>
        <time>2022-05-28T12:20:30Z</time>
      </trkpt>
      <trkpt lat="48.04222" lon="6.90796">
        <ele>1000.3</ele>
        <time>2022-05-28T12:20:32Z</time>
      </trkpt>
      <trkpt lat="48.04213" lon="6.90801">
        <ele>1001.2</ele>
        <time>2022-05-28T12:20:34Z</time>
      </trkpt>
      <trkpt lat="48.04204" lon="6.90806">
        <ele>1003.6</ele>
        <time>2022-05-28T12:20:36Z</time>
      </trkpt>
      <trkpt lat="48.04195" lon="6.90811">
        <ele>998.8</ele>
        <time>2022-05-28T12:20:38Z</time>
      </trkpt>
      <trkpt lat="48.04185" lon="6.90817">
        <ele>1000.3</ele>
        <time>2022-05-28T12:20:40Z</time>
      </trkpt>
      <trkpt lat="48.04174" lon="6.90821">
        <ele>997.5</ele>
        <time>2022-05-28T12:20:42Z</time>
      </trkpt>
      <trkpt lat="48.04162" lon="6.90823">
        <ele>996.9</ele>
        <time>2022-05-28T12:20:44Z</time>
      </trkpt>
      <trkpt lat="48.04152" lon="6.90825">
        <ele>995.3</ele>
        <time>2022-05-28T12:20:46Z</time>
      </trkpt>
      <trkpt lat="48.04141" lon="6.90827">
        <ele>998.3</ele>
        <time>2022-05-28T12:20:48Z</time>
      </trkpt>
      <trkpt lat="48.04132" lon="6.90832">
        <ele>999.1</ele>
        <time>2022-05-28T12:20:50Z</time>
      </trkpt>
      <trkpt lat="48.04123" lon="6.9084">
        <ele>998.5</ele>
        <time>2022-05-28T12:20:52Z</time>
      </trkpt>
      <trkpt lat="48.04115" lon="6.90849">
        <ele>997.5</ele>
        <time>2022-05-28T12:20:54Z</time>
      </trkpt>
      <trkpt lat="48.04106" lon="6.90857">
        <ele>997.5</ele>
        <time>2022-05-28T12:20:56Z</time>
      </trkpt>
      <trkpt lat="48.04097" lon="6.90861">
        <ele>996.8</ele>
        <time>2022-05-28T12:20:58Z</time>
      </trkpt>
      <trkpt lat="48.04088" lon="6.90864">
        <ele>997.9</ele>
        <time>2022-05-28T12:21:00Z</time>
      </trkpt>
      <trkpt lat="48.04076" lon="6.90865">
        <ele>997.2</ele>
        <time>2022-05-28T12:21:03Z</time>
      </trkpt>
      <trkpt lat="48.04063" lon="6.90862">
        <ele>999</ele>
        <time>2022-05-28T12:21:06Z</time>
      </trkpt>
      <trkpt lat="48.04054" lon="6.90857">
        <ele>998.2</ele>
        <time>2022-05-28T12:21:08Z</time>
      </trkpt>
      <trkpt lat="48.04043" lon="6.90853">
        <ele>999.9</ele>
        <time>2022-05-28T12:21:11Z</time>
      </trkpt>
      <trkpt lat="48.04032" lon="6.90848">
        <ele>1001.1</ele>
        <time>2022-05-28T12:21:14Z</time>
      </trkpt>
      <trkpt lat="48.04023" lon="6.90845">
        <ele>1001.2</ele>
        <time>2022-05-28T12:21:17Z</time>
      </trkpt>
      <trkpt lat="48.04013" lon="6.90843">
        <ele>1004.1</ele>
        <time>2022-05-28T12:21:21Z</time>
      </trkpt>
      <trkpt lat="48.04002" lon="6.90846">
        <ele>1005.8</ele>
        <time>2022-05-28T12:21:25Z</time>
      </trkpt>
      <trkpt lat="48.03992" lon="6.9085">
        <ele>1006.2</ele>
        <time>2022-05-28T12:21:28Z</time>
      </trkpt>
      <trkpt lat="48.03981" lon="6.9085">
        <ele>1005</ele>
        <time>2022-05-28T12:21:31Z</time>
      </trkpt>
      <trkpt lat="48.03971" lon="6.90842">
        <ele>1004</ele>
        <time>2022-05-28T12:21:34Z</time>
      </trkpt>
      <trkpt lat="48.03964" lon="6.90829">
        <ele>1003.3</ele>
        <time>2022-05-28T12:21:37Z</time>
      </trkpt>
      <trkpt lat="48.03963" lon="6.90815">
        <ele>1003.3</ele>
        <time>2022-05-28T12:21:39Z</time>
      </trkpt>
      <trkpt lat="48.03962" lon="6.90801">
        <ele>1003.3</ele>
        <time>2022-05-28T12:21:41Z</time>
      </trkpt>
      <trkpt lat="48.0396" lon="6.90783">
        <ele>1003.6</ele>
        <time>2022-05-28T12:21:44Z</time>
      </trkpt>
      <trkpt lat="48.03954" lon="6.90765">
        <ele>1003.7</ele>
        <time>2022-05-28T12:21:47Z</time>
      </trkpt>
      <trkpt lat="48.03949" lon="6.90754">
        <ele>1002.7</ele>
        <time>2022-05-28T12:21:49Z</time>
      </trkpt>
      <trkpt lat="48.03944" lon="6.90741">
        <ele>1003.6</ele>
        <time>2022-05-28T12:21:51Z</time>
      </trkpt>
      <trkpt lat="48.03938" lon="6.90726">
        <ele>1000.9</ele>
        <time>2022-05-28T12:21:53Z</time>
      </trkpt>
      <trkpt lat="48.03932" lon="6.90708">
        <ele>999.7</ele>
        <time>2022-05-28T12:21:55Z</time>
      </trkpt>
      <trkpt lat="48.03927" lon="6.90687">
        <ele>998.4</ele>
        <time>2022-05-28T12:21:57Z</time>
      </trkpt>
      <trkpt lat="48.03927" lon="6.90662">
        <ele>996.4</ele>
        <time>2022-05-28T12:21:59Z</time>
      </trkpt>
      <trkpt lat="48.0393" lon="6.90639">
        <ele>997.1</ele>
        <time>2022-05-28T12:22:01Z</time>
      </trkpt>
      <trkpt lat="48.03935" lon="6.90621">
        <ele>997.6</ele>
        <time>2022-05-28T12:22:03Z</time>
      </trkpt>
      <trkpt lat="48.03939" lon="6.90607">
        <ele>999.3</ele>
        <time>2022-05-28T12:22:05Z</time>
      </trkpt>
      <trkpt lat="48.03944" lon="6.90591">
        <ele>1000.4</ele>
        <time>2022-05-28T12:22:08Z</time>
      </trkpt>
      <trkpt lat="48.03949" lon="6.90575">
        <ele>1002.7</ele>
        <time>2022-05-28T12:22:11Z</time>
      </trkpt>
      <trkpt lat="48.03954" lon="6.90563">
        <ele>1004.1</ele>
        <time>2022-05-28T12:22:14Z</time>
      </trkpt>
      <trkpt lat="48.03958" lon="6.90548">
        <ele>1004.9</ele>
        <time>2022-05-28T12:22:17Z</time>
      </trkpt>
      <trkpt lat="48.03963" lon="6.90535">
        <ele>1005.6</ele>
        <time>2022-05-28T12:22:21Z</time>
      </trkpt>
      <trkpt lat="48.03968" lon="6.90523">
        <ele>1006.3</ele>
        <time>2022-05-28T12:22:25Z</time>
      </trkpt>
      <trkpt lat="48.03972" lon="6.9051">
        <ele>1007.3</ele>
        <time>2022-05-28T12:22:29Z</time>
      </trkpt>
      <trkpt lat="48.03975" lon="6.90497">
        <ele>1005.9</ele>
        <time>2022-05-28T12:22:33Z</time>
      </trkpt>
      <trkpt lat="48.03978" lon="6.90483">
        <ele>1008.4</ele>
        <time>2022-05-28T12:22:37Z</time>
      </trkpt>
      <trkpt lat="48.03979" lon="6.90468">
        <ele>1010.7</ele>
        <time>2022-05-28T12:22:42Z</time>
      </trkpt>
      <trkpt lat="48.03981" lon="6.90455">
        <ele>1010.6</ele>
        <time>2022-05-28T12:22:46Z</time>
      </trkpt>
      <trkpt lat="48.03984" lon="6.90441">
        <ele>1011.9</ele>
        <time>2022-05-28T12:22:51Z</time>
      </trkpt>
      <trkpt lat="48.0399" lon="6.90427">
        <ele>1013.2</ele>
        <time>2022-05-28T12:22:56Z</time>
      </trkpt>
      <trkpt lat="48.03994" lon="6.90415">
        <ele>1013.5</ele>
        <time>2022-05-28T12:23:00Z</time>
      </trkpt>
      <trkpt lat="48.04" lon="6.904">
        <ele>1014.2</ele>
        <time>2022-05-28T12:23:05Z</time>
      </trkpt>
      <trkpt lat="48.04005" lon="6.90388">
        <ele>1014.4</ele>
        <time>2022-05-28T12:23:09Z</time>
      </trkpt>
      <trkpt lat="48.0401" lon="6.90374">
        <ele>1015.1</ele>
        <time>2022-05-28T12:23:14Z</time>
      </trkpt>
      <trkpt lat="48.04007" lon="6.90361">
        <ele>1015.9</ele>
        <time>2022-05-28T12:23:18Z</time>
      </trkpt>
      <trkpt lat="48.03996" lon="6.90356">
        <ele>1017.3</ele>
        <time>2022-05-28T12:23:22Z</time>
      </trkpt>
      <trkpt lat="48.03985" lon="6.9036">
        <ele>1017.2</ele>
        <time>2022-05-28T12:23:26Z</time>
      </trkpt>
      <trkpt lat="48.03977" lon="6.90367">
        <ele>1017.9</ele>
        <time>2022-05-28T12:23:30Z</time>
      </trkpt>
      <trkpt lat="48.03968" lon="6.90374">
        <ele>1018.8</ele>
        <time>2022-05-28T12:23:34Z</time>
      </trkpt>
      <trkpt lat="48.03958" lon="6.90378">
        <ele>1019.4</ele>
        <time>2022-05-28T12:23:38Z</time>
      </trkpt>
      <trkpt lat="48.03947" lon="6.9038">
        <ele>1021.2</ele>
        <time>2022-05-28T12:23:42Z</time>
      </trkpt>
      <trkpt lat="48.03936" lon="6.90379">
        <ele>1020.6</ele>
        <time>2022-05-28T12:23:46Z</time>
      </trkpt>
      <trkpt lat="48.03926" lon="6.90373">
        <ele>1021</ele>
        <time>2022-05-28T12:23:50Z</time>
      </trkpt>
      <trkpt lat="48.03917" lon="6.90364">
        <ele>1022.1</ele>
        <time>2022-05-28T12:23:54Z</time>
      </trkpt>
      <trkpt lat="48.03912" lon="6.90353">
        <ele>1022.9</ele>
        <time>2022-05-28T12:23:58Z</time>
      </trkpt>
      <trkpt lat="48.03909" lon="6.90339">
        <ele>1023.4</ele>
        <time>2022-05-28T12:24:02Z</time>
      </trkpt>
      <trkpt lat="48.03909" lon="6.90324">
        <ele>1024.2</ele>
        <time>2022-05-28T12:24:07Z</time>
      </trkpt>
      <trkpt lat="48.0391" lon="6.90307">
        <ele>1026.4</ele>
        <time>2022-05-28T12:24:12Z</time>
      </trkpt>
      <trkpt lat="48.0391" lon="6.90291">
        <ele>1027.4</ele>
        <time>2022-05-28T12:24:16Z</time>
      </trkpt>
      <trkpt lat="48.03911" lon="6.90277">
        <ele>1027.5</ele>
        <time>2022-05-28T12:24:20Z</time>
      </trkpt>
      <trkpt lat="48.03912" lon="6.90263">
        <ele>1026.6</ele>
        <time>2022-05-28T12:24:24Z</time>
      </trkpt>
      <trkpt lat="48.03907" lon="6.90249">
        <ele>1027.7</ele>
        <time>2022-05-28T12:24:30Z</time>
      </trkpt>
      <trkpt lat="48.03903" lon="6.90236">
        <ele>1026.9</ele>
        <time>2022-05-28T12:24:34Z</time>
      </trkpt>
      <trkpt lat="48.03898" lon="6.90219">
        <ele>1025.3</ele>
        <time>2022-05-28T12:24:37Z</time>
      </trkpt>
      <trkpt lat="48.03897" lon="6.90205">
        <ele>1023.4</ele>
        <time>2022-05-28T12:24:40Z</time>
      </trkpt>
      <trkpt lat="48.03898" lon="6.90189">
        <ele>1023.6</ele>
        <time>2022-05-28T12:24:42Z</time>
      </trkpt>
      <trkpt lat="48.03899" lon="6.90171">
        <ele>1021.8</ele>
        <time>2022-05-28T12:24:44Z</time>
      </trkpt>
      <trkpt lat="48.03901" lon="6.90153">
        <ele>1017.5</ele>
        <time>2022-05-28T12:24:46Z</time>
      </trkpt>
      <trkpt lat="48.03906" lon="6.90136">
        <ele>1018.5</ele>
        <time>2022-05-28T12:24:48Z</time>
      </trkpt>
      <trkpt lat="48.03913" lon="6.90119">
        <ele>1018.6</ele>
        <time>2022-05-28T12:24:50Z</time>
      </trkpt>
      <trkpt lat="48.03919" lon="6.90101">
        <ele>1016.6</ele>
        <time>2022-05-28T12:24:52Z</time>
      </trkpt>
      <trkpt lat="48.03918" lon="6.90083">
        <ele>1016.7</ele>
        <time>2022-05-28T12:24:54Z</time>
      </trkpt>
      <trkpt lat="48.0391" lon="6.90067">
        <ele>1018</ele>
        <time>2022-05-28T12:24:56Z</time>
      </trkpt>
      <trkpt lat="48.03898" lon="6.90062">
        <ele>1020.2</ele>
        <time>2022-05-28T12:24:58Z</time>
      </trkpt>
      <trkpt lat="48.03889" lon="6.90063">
        <ele>1020.2</ele>
        <time>2022-05-28T12:25:00Z</time>
      </trkpt>
      <trkpt lat="48.03879" lon="6.9006">
        <ele>1020.9</ele>
        <time>2022-05-28T12:25:03Z</time>
      </trkpt>
      <trkpt lat="48.0387" lon="6.90049">
        <ele>1020.8</ele>
        <time>2022-05-28T12:25:07Z</time>
      </trkpt>
      <trkpt lat="48.03864" lon="6.90037">
        <ele>1021.8</ele>
        <time>2022-05-28T12:25:10Z</time>
      </trkpt>
      <trkpt lat="48.03858" lon="6.90025">
        <ele>1021.5</ele>
        <time>2022-05-28T12:25:13Z</time>
      </trkpt>
      <trkpt lat="48.03849" lon="6.90014">
        <ele>1023.5</ele>
        <time>2022-05-28T12:25:17Z</time>
      </trkpt>
      <trkpt lat="48.0384" lon="6.90006">
        <ele>1024.8</ele>
        <time>2022-05-28T12:25:21Z</time>
      </trkpt>
      <trkpt lat="48.03831" lon="6.89999">
        <ele>1025.9</ele>
        <time>2022-05-28T12:25:25Z</time>
      </trkpt>
      <trkpt lat="48.03824" lon="6.89987">
        <ele>1027</ele>
        <time>2022-05-28T12:25:30Z</time>
      </trkpt>
      <trkpt lat="48.03818" lon="6.89975">
        <ele>1028.6</ele>
        <time>2022-05-28T12:25:35Z</time>
      </trkpt>
      <trkpt lat="48.03811" lon="6.89963">
        <ele>1030</ele>
        <time>2022-05-28T12:25:40Z</time>
      </trkpt>
      <trkpt lat="48.03803" lon="6.89951">
        <ele>1030.4</ele>
        <time>2022-05-28T12:25:45Z</time>
      </trkpt>
      <trkpt lat="48.03796" lon="6.8994">
        <ele>1031.2</ele>
        <time>2022-05-28T12:25:50Z</time>
      </trkpt>
      <trkpt lat="48.03788" lon="6.89928">
        <ele>1032.6</ele>
        <time>2022-05-28T12:25:55Z</time>
      </trkpt>
      <trkpt lat="48.03779" lon="6.89918">
        <ele>1033.6</ele>
        <time>2022-05-28T12:26:00Z</time>
      </trkpt>
      <trkpt lat="48.03772" lon="6.8991">
        <ele>1034.6</ele>
        <time>2022-05-28T12:26:04Z</time>
      </trkpt>
      <trkpt lat="48.03762" lon="6.89901">
        <ele>1034.5</ele>
        <time>2022-05-28T12:26:09Z</time>
      </trkpt>
      <trkpt lat="48.03753" lon="6.89893">
        <ele>1036.5</ele>
        <time>2022-05-28T12:26:14Z</time>
      </trkpt>
      <trkpt lat="48.03744" lon="6.89889">
        <ele>1037.8</ele>
        <time>2022-05-28T12:26:18Z</time>
      </trkpt>
      <trkpt lat="48.03734" lon="6.89886">
        <ele>1037.8</ele>
        <time>2022-05-28T12:26:22Z</time>
      </trkpt>
      <trkpt lat="48.03725" lon="6.8988">
        <ele>1039.1</ele>
        <time>2022-05-28T12:26:26Z</time>
      </trkpt>
      <trkpt lat="48.03717" lon="6.89873">
        <ele>1038.8</ele>
        <time>2022-05-28T12:26:30Z</time>
      </trkpt>
      <trkpt lat="48.03708" lon="6.89864">
        <ele>1040.8</ele>
        <time>2022-05-28T12:26:35Z</time>
      </trkpt>
      <trkpt lat="48.03702" lon="6.89852">
        <ele>1042</ele>
        <time>2022-05-28T12:26:40Z</time>
      </trkpt>
      <trkpt lat="48.03695" lon="6.89841">
        <ele>1043.1</ele>
        <time>2022-05-28T12:26:44Z</time>
      </trkpt>
      <trkpt lat="48.03688" lon="6.89829">
        <ele>1043.6</ele>
        <time>2022-05-28T12:26:49Z</time>
      </trkpt>
      <trkpt lat="48.0368" lon="6.89819">
        <ele>1043.5</ele>
        <time>2022-05-28T12:26:53Z</time>
      </trkpt>
      <trkpt lat="48.03672" lon="6.89811">
        <ele>1044.2</ele>
        <time>2022-05-28T12:26:57Z</time>
      </trkpt>
      <trkpt lat="48.03663" lon="6.89802">
        <ele>1044</ele>
        <time>2022-05-28T12:27:01Z</time>
      </trkpt>
      <trkpt lat="48.03655" lon="6.89792">
        <ele>1046.7</ele>
        <time>2022-05-28T12:27:05Z</time>
      </trkpt>
      <trkpt lat="48.03647" lon="6.89784">
        <ele>1047</ele>
        <time>2022-05-28T12:27:09Z</time>
      </trkpt>
      <trkpt lat="48.03644" lon="6.8977">
        <ele>1047.5</ele>
        <time>2022-05-28T12:27:15Z</time>
      </trkpt>
      <trkpt lat="48.0365" lon="6.89757">
        <ele>1046.7</ele>
        <time>2022-05-28T12:27:19Z</time>
      </trkpt>
      <trkpt lat="48.03659" lon="6.89748">
        <ele>1045.6</ele>
        <time>2022-05-28T12:27:23Z</time>
      </trkpt>
      <trkpt lat="48.03668" lon="6.8974">
        <ele>1045.6</ele>
        <time>2022-05-28T12:27:27Z</time>
      </trkpt>
      <trkpt lat="48.03676" lon="6.89731">
        <ele>1045.7</ele>
        <time>2022-05-28T12:27:30Z</time>
      </trkpt>
      <trkpt lat="48.03686" lon="6.89724">
        <ele>1048.1</ele>
        <time>2022-05-28T12:27:34Z</time>
      </trkpt>
      <trkpt lat="48.03695" lon="6.89724">
        <ele>1048.8</ele>
        <time>2022-05-28T12:27:39Z</time>
      </trkpt>
      <trkpt lat="48.03698" lon="6.89728">
        <ele>1047.5</ele>
        <time>2022-05-28T12:27:44Z</time>
      </trkpt>
      <trkpt lat="48.03698" lon="6.89729">
        <ele>1047.7</ele>
        <time>2022-05-28T12:28:19Z</time>
      </trkpt>
      <trkpt lat="48.03699" lon="6.8973">
        <ele>1047.2</ele>
        <time>2022-05-28T12:29:34Z</time>
      </trkpt>
      <trkpt lat="48.03699" lon="6.89731">
        <ele>1047.4</ele>
        <time>2022-05-28T12:29:47Z</time>
      </trkpt>
      <trkpt lat="48.03709" lon="6.89732">
        <ele>1047.6</ele>
        <time>2022-05-28T12:29:54Z</time>
      </trkpt>
      <trkpt lat="48.03719" lon="6.89732">
        <ele>1046.3</ele>
        <time>2022-05-28T12:29:57Z</time>
      </trkpt>
      <trkpt lat="48.03728" lon="6.89733">
        <ele>1044.5</ele>
        <time>2022-05-28T12:29:59Z</time>
      </trkpt>
      <trkpt lat="48.0374" lon="6.89733">
        <ele>1041.9</ele>
        <time>2022-05-28T12:30:01Z</time>
      </trkpt>
      <trkpt lat="48.03753" lon="6.8973">
        <ele>1038</ele>
        <time>2022-05-28T12:30:03Z</time>
      </trkpt>
      <trkpt lat="48.03766" lon="6.89728">
        <ele>1037</ele>
        <time>2022-05-28T12:30:05Z</time>
      </trkpt>
      <trkpt lat="48.03781" lon="6.89719">
        <ele>1037.1</ele>
        <time>2022-05-28T12:30:07Z</time>
      </trkpt>
      <trkpt lat="48.03796" lon="6.89705">
        <ele>1032</ele>
        <time>2022-05-28T12:30:09Z</time>
      </trkpt>
      <trkpt lat="48.03804" lon="6.89697">
        <ele>1030.1</ele>
        <time>2022-05-28T12:30:10Z</time>
      </trkpt>
      <trkpt lat="48.03812" lon="6.89689">
        <ele>1031</ele>
        <time>2022-05-28T12:30:11Z</time>
      </trkpt>
      <trkpt lat="48.03819" lon="6.89682">
        <ele>1029.7</ele>
        <time>2022-05-28T12:30:12Z</time>
      </trkpt>
      <trkpt lat="48.03828" lon="6.89674">
        <ele>1029</ele>
        <time>2022-05-28T12:30:13Z</time>
      </trkpt>
      <trkpt lat="48.03836" lon="6.89665">
        <ele>1029.9</ele>
        <time>2022-05-28T12:30:14Z</time>
      </trkpt>
      <trkpt lat="48.03844" lon="6.89657">
        <ele>1032.9</ele>
        <time>2022-05-28T12:30:15Z</time>
      </trkpt>
      <trkpt lat="48.03852" lon="6.89647">
        <ele>1031.1</ele>
        <time>2022-05-28T12:30:16Z</time>
      </trkpt>
      <trkpt lat="48.0386" lon="6.89638">
        <ele>1029.5</ele>
        <time>2022-05-28T12:30:17Z</time>
      </trkpt>
      <trkpt lat="48.03869" lon="6.89628">
        <ele>1029.4</ele>
        <time>2022-05-28T12:30:18Z</time>
      </trkpt>
      <trkpt lat="48.03877" lon="6.89618">
        <ele>1030.6</ele>
        <time>2022-05-28T12:30:19Z</time>
      </trkpt>
      <trkpt lat="48.03884" lon="6.89608">
        <ele>1030</ele>
        <time>2022-05-28T12:30:20Z</time>
      </trkpt>
      <trkpt lat="48.03891" lon="6.89598">
        <ele>1029.8</ele>
        <time>2022-05-28T12:30:21Z</time>
      </trkpt>
      <trkpt lat="48.03897" lon="6.89588">
        <ele>1030</ele>
        <time>2022-05-28T12:30:22Z</time>
      </trkpt>
      <trkpt lat="48.03908" lon="6.89568">
        <ele>1028.9</ele>
        <time>2022-05-28T12:30:24Z</time>
      </trkpt>
      <trkpt lat="48.03918" lon="6.89548">
        <ele>1027.4</ele>
        <time>2022-05-28T12:30:26Z</time>
      </trkpt>
      <trkpt lat="48.03927" lon="6.89531">
        <ele>1028.5</ele>
        <time>2022-05-28T12:30:28Z</time>
      </trkpt>
      <trkpt lat="48.03935" lon="6.89517">
        <ele>1029.3</ele>
        <time>2022-05-28T12:30:30Z</time>
      </trkpt>
      <trkpt lat="48.03943" lon="6.89503">
        <ele>1030.5</ele>
        <time>2022-05-28T12:30:32Z</time>
      </trkpt>
      <trkpt lat="48.03951" lon="6.89488">
        <ele>1030.2</ele>
        <time>2022-05-28T12:30:34Z</time>
      </trkpt>
      <trkpt lat="48.0396" lon="6.89473">
        <ele>1030</ele>
        <time>2022-05-28T12:30:36Z</time>
      </trkpt>
      <trkpt lat="48.03969" lon="6.89456">
        <ele>1027.9</ele>
        <time>2022-05-28T12:30:38Z</time>
      </trkpt>
      <trkpt lat="48.03978" lon="6.89441">
        <ele>1028.7</ele>
        <time>2022-05-28T12:30:40Z</time>
      </trkpt>
      <trkpt lat="48.03987" lon="6.89426">
        <ele>1028.2</ele>
        <time>2022-05-28T12:30:42Z</time>
      </trkpt>
      <trkpt lat="48.03994" lon="6.89413">
        <ele>1029.1</ele>
        <time>2022-05-28T12:30:44Z</time>
      </trkpt>
      <trkpt lat="48.04002" lon="6.894">
        <ele>1029.3</ele>
        <time>2022-05-28T12:30:46Z</time>
      </trkpt>
      <trkpt lat="48.0401" lon="6.89388">
        <ele>1028.3</ele>
        <time>2022-05-28T12:30:48Z</time>
      </trkpt>
      <trkpt lat="48.04017" lon="6.89377">
        <ele>1030</ele>
        <time>2022-05-28T12:30:50Z</time>
      </trkpt>
      <trkpt lat="48.04023" lon="6.89365">
        <ele>1030.5</ele>
        <time>2022-05-28T12:30:52Z</time>
      </trkpt>
      <trkpt lat="48.0403" lon="6.89354">
        <ele>1030.6</ele>
        <time>2022-05-28T12:30:54Z</time>
      </trkpt>
      <trkpt lat="48.04036" lon="6.89343">
        <ele>1031.5</ele>
        <time>2022-05-28T12:30:56Z</time>
      </trkpt>
      <trkpt lat="48.04043" lon="6.89331">
        <ele>1031.5</ele>
        <time>2022-05-28T12:30:58Z</time>
      </trkpt>
      <trkpt lat="48.04049" lon="6.89321">
        <ele>1030.7</ele>
        <time>2022-05-28T12:31:00Z</time>
      </trkpt>
      <trkpt lat="48.04056" lon="6.8931">
        <ele>1031.1</ele>
        <time>2022-05-28T12:31:02Z</time>
      </trkpt>
      <trkpt lat="48.04062" lon="6.893">
        <ele>1031.7</ele>
        <time>2022-05-28T12:31:04Z</time>
      </trkpt>
      <trkpt lat="48.04068" lon="6.89289">
        <ele>1032.1</ele>
        <time>2022-05-28T12:31:06Z</time>
      </trkpt>
      <trkpt lat="48.04076" lon="6.89274">
        <ele>1034.3</ele>
        <time>2022-05-28T12:31:09Z</time>
      </trkpt>
      <trkpt lat="48.04083" lon="6.89261">
        <ele>1035.2</ele>
        <time>2022-05-28T12:31:12Z</time>
      </trkpt>
      <trkpt lat="48.04089" lon="6.89249">
        <ele>1037.3</ele>
        <time>2022-05-28T12:31:16Z</time>
      </trkpt>
      <trkpt lat="48.04095" lon="6.89235">
        <ele>1038</ele>
        <time>2022-05-28T12:31:21Z</time>
      </trkpt>
      <trkpt lat="48.04101" lon="6.89225">
        <ele>1039.4</ele>
        <time>2022-05-28T12:31:26Z</time>
      </trkpt>
      <trkpt lat="48.04107" lon="6.89213">
        <ele>1040.1</ele>
        <time>2022-05-28T12:31:31Z</time>
      </trkpt>
      <trkpt lat="48.04111" lon="6.892">
        <ele>1041.5</ele>
        <time>2022-05-28T12:31:36Z</time>
      </trkpt>
      <trkpt lat="48.04105" lon="6.89189">
        <ele>1042.3</ele>
        <time>2022-05-28T12:31:41Z</time>
      </trkpt>
      <trkpt lat="48.04095" lon="6.89188">
        <ele>1041.1</ele>
        <time>2022-05-28T12:31:46Z</time>
      </trkpt>
      <trkpt lat="48.04084" lon="6.89192">
        <ele>1040.1</ele>
        <time>2022-05-28T12:31:50Z</time>
      </trkpt>
      <trkpt lat="48.04074" lon="6.89196">
        <ele>1038.9</ele>
        <time>2022-05-28T12:31:53Z</time>
      </trkpt>
      <trkpt lat="48.04065" lon="6.89202">
        <ele>1037.3</ele>
        <time>2022-05-28T12:31:55Z</time>
      </trkpt>
      <trkpt lat="48.04057" lon="6.89211">
        <ele>1036.6</ele>
        <time>2022-05-28T12:31:57Z</time>
      </trkpt>
      <trkpt lat="48.04049" lon="6.89225">
        <ele>1036.4</ele>
        <time>2022-05-28T12:31:59Z</time>
      </trkpt>
      <trkpt lat="48.04042" lon="6.89242">
        <ele>1033</ele>
        <time>2022-05-28T12:32:01Z</time>
      </trkpt>
      <trkpt lat="48.04035" lon="6.89257">
        <ele>1033.9</ele>
        <time>2022-05-28T12:32:03Z</time>
      </trkpt>
      <trkpt lat="48.04027" lon="6.89271">
        <ele>1035.3</ele>
        <time>2022-05-28T12:32:05Z</time>
      </trkpt>
      <trkpt lat="48.04019" lon="6.89283">
        <ele>1036.5</ele>
        <time>2022-05-28T12:32:07Z</time>
      </trkpt>
      <trkpt lat="48.04012" lon="6.89293">
        <ele>1035.7</ele>
        <time>2022-05-28T12:32:09Z</time>
      </trkpt>
      <trkpt lat="48.04005" lon="6.89303">
        <ele>1035.1</ele>
        <time>2022-05-28T12:32:11Z</time>
      </trkpt>
      <trkpt lat="48.03995" lon="6.89314">
        <ele>1037.1</ele>
        <time>2022-05-28T12:32:14Z</time>
      </trkpt>
      <trkpt lat="48.03987" lon="6.89327">
        <ele>1036.2</ele>
        <time>2022-05-28T12:32:17Z</time>
      </trkpt>
      <trkpt lat="48.03978" lon="6.89341">
        <ele>1034.1</ele>
        <time>2022-05-28T12:32:20Z</time>
      </trkpt>
      <trkpt lat="48.03969" lon="6.89355">
        <ele>1035.9</ele>
        <time>2022-05-28T12:32:23Z</time>
      </trkpt>
      <trkpt lat="48.03961" lon="6.8937">
        <ele>1036.3</ele>
        <time>2022-05-28T12:32:26Z</time>
      </trkpt>
      <trkpt lat="48.03951" lon="6.89382">
        <ele>1034.6</ele>
        <time>2022-05-28T12:32:29Z</time>
      </trkpt>
      <trkpt lat="48.0394" lon="6.89392">
        <ele>1033</ele>
        <time>2022-05-28T12:32:32Z</time>
      </trkpt>
      <trkpt lat="48.03931" lon="6.89402">
        <ele>1035.6</ele>
        <time>2022-05-28T12:32:35Z</time>
      </trkpt>
      <trkpt lat="48.0392" lon="6.8941">
        <ele>1037.4</ele>
        <time>2022-05-28T12:32:38Z</time>
      </trkpt>
      <trkpt lat="48.0391" lon="6.89411">
        <ele>1036.8</ele>
        <time>2022-05-28T12:32:41Z</time>
      </trkpt>
      <trkpt lat="48.03902" lon="6.89403">
        <ele>1037.8</ele>
        <time>2022-05-28T12:32:44Z</time>
      </trkpt>
      <trkpt lat="48.03893" lon="6.89395">
        <ele>1035.3</ele>
        <time>2022-05-28T12:32:47Z</time>
      </trkpt>
      <trkpt lat="48.03884" lon="6.89393">
        <ele>1036.4</ele>
        <time>2022-05-28T12:32:50Z</time>
      </trkpt>
      <trkpt lat="48.03873" lon="6.89388">
        <ele>1038</ele>
        <time>2022-05-28T12:32:53Z</time>
      </trkpt>
      <trkpt lat="48.03865" lon="6.89385">
        <ele>1040.1</ele>
        <time>2022-05-28T12:32:56Z</time>
      </trkpt>
      <trkpt lat="48.03856" lon="6.89379">
        <ele>1038.9</ele>
        <time>2022-05-28T12:33:00Z</time>
      </trkpt>
      <trkpt lat="48.03845" lon="6.89384">
        <ele>1039.6</ele>
        <time>2022-05-28T12:33:05Z</time>
      </trkpt>
      <trkpt lat="48.03836" lon="6.89381">
        <ele>1041.7</ele>
        <time>2022-05-28T12:33:09Z</time>
      </trkpt>
      <trkpt lat="48.03831" lon="6.89367">
        <ele>1040.7</ele>
        <time>2022-05-28T12:33:15Z</time>
      </trkpt>
      <trkpt lat="48.03822" lon="6.89359">
        <ele>1041.4</ele>
        <time>2022-05-28T12:33:19Z</time>
      </trkpt>
      <trkpt lat="48.03812" lon="6.89354">
        <ele>1040.9</ele>
        <time>2022-05-28T12:33:23Z</time>
      </trkpt>
      <trkpt lat="48.03803" lon="6.89351">
        <ele>1040.8</ele>
        <time>2022-05-28T12:33:26Z</time>
      </trkpt>
      <trkpt lat="48.03794" lon="6.89349">
        <ele>1039.4</ele>
        <time>2022-05-28T12:33:29Z</time>
      </trkpt>
      <trkpt lat="48.03784" lon="6.89348">
        <ele>1040.6</ele>
        <time>2022-05-28T12:33:33Z</time>
      </trkpt>
      <trkpt lat="48.03773" lon="6.89343">
        <ele>1040.8</ele>
        <time>2022-05-28T12:33:37Z</time>
      </trkpt>
      <trkpt lat="48.03765" lon="6.89338">
        <ele>1040.2</ele>
        <time>2022-05-28T12:33:40Z</time>
      </trkpt>
      <trkpt lat="48.03755" lon="6.89334">
        <ele>1041.1</ele>
        <time>2022-05-28T12:33:44Z</time>
      </trkpt>
      <trkpt lat="48.03746" lon="6.89329">
        <ele>1041.3</ele>
        <time>2022-05-28T12:33:50Z</time>
      </trkpt>
      <trkpt lat="48.03745" lon="6.89327">
        <ele>1041.6</ele>
        <time>2022-05-28T12:33:54Z</time>
      </trkpt>
      <trkpt lat="48.03745" lon="6.89326">
        <ele>1041.8</ele>
        <time>2022-05-28T12:34:23Z</time>
      </trkpt>
      <trkpt lat="48.03746" lon="6.89326">
        <ele>1041.5</ele>
        <time>2022-05-28T12:34:27Z</time>
      </trkpt>
      <trkpt lat="48.03745" lon="6.89327">
        <ele>1041.9</ele>
        <time>2022-05-28T12:34:36Z</time>
      </trkpt>
      <trkpt lat="48.03745" lon="6.89326">
        <ele>1041.7</ele>
        <time>2022-05-28T12:35:25Z</time>
      </trkpt>
      <trkpt lat="48.03735" lon="6.89318">
        <ele>1041.8</ele>
        <time>2022-05-28T12:35:30Z</time>
      </trkpt>
      <trkpt lat="48.03724" lon="6.89309">
        <ele>1041.6</ele>
        <time>2022-05-28T12:35:34Z</time>
      </trkpt>
      <trkpt lat="48.03712" lon="6.89302">
        <ele>1040.5</ele>
        <time>2022-05-28T12:35:37Z</time>
      </trkpt>
      <trkpt lat="48.03703" lon="6.89298">
        <ele>1040.7</ele>
        <time>2022-05-28T12:35:39Z</time>
      </trkpt>
      <trkpt lat="48.03693" lon="6.89295">
        <ele>1041.6</ele>
        <time>2022-05-28T12:35:41Z</time>
      </trkpt>
      <trkpt lat="48.03683" lon="6.89291">
        <ele>1041.4</ele>
        <time>2022-05-28T12:35:43Z</time>
      </trkpt>
      <trkpt lat="48.03674" lon="6.89287">
        <ele>1041.3</ele>
        <time>2022-05-28T12:35:45Z</time>
      </trkpt>
      <trkpt lat="48.03661" lon="6.89281">
        <ele>1041.6</ele>
        <time>2022-05-28T12:35:48Z</time>
      </trkpt>
      <trkpt lat="48.03652" lon="6.8928">
        <ele>1042.5</ele>
        <time>2022-05-28T12:35:50Z</time>
      </trkpt>
      <trkpt lat="48.03643" lon="6.89281">
        <ele>1042.9</ele>
        <time>2022-05-28T12:35:52Z</time>
      </trkpt>
      <trkpt lat="48.03634" lon="6.89283">
        <ele>1041.8</ele>
        <time>2022-05-28T12:35:54Z</time>
      </trkpt>
      <trkpt lat="48.0362" lon="6.89287">
        <ele>1041</ele>
        <time>2022-05-28T12:35:57Z</time>
      </trkpt>
      <trkpt lat="48.03611" lon="6.8929">
        <ele>1041.7</ele>
        <time>2022-05-28T12:35:59Z</time>
      </trkpt>
      <trkpt lat="48.03602" lon="6.89294">
        <ele>1040.6</ele>
        <time>2022-05-28T12:36:01Z</time>
      </trkpt>
      <trkpt lat="48.03593" lon="6.89297">
        <ele>1040.6</ele>
        <time>2022-05-28T12:36:03Z</time>
      </trkpt>
      <trkpt lat="48.03584" lon="6.89299">
        <ele>1039.6</ele>
        <time>2022-05-28T12:36:05Z</time>
      </trkpt>
      <trkpt lat="48.03574" lon="6.89304">
        <ele>1040.4</ele>
        <time>2022-05-28T12:36:07Z</time>
      </trkpt>
      <trkpt lat="48.03565" lon="6.89308">
        <ele>1040.7</ele>
        <time>2022-05-28T12:36:09Z</time>
      </trkpt>
      <trkpt lat="48.03556" lon="6.89312">
        <ele>1040.2</ele>
        <time>2022-05-28T12:36:11Z</time>
      </trkpt>
      <trkpt lat="48.03547" lon="6.89315">
        <ele>1042.4</ele>
        <time>2022-05-28T12:36:13Z</time>
      </trkpt>
      <trkpt lat="48.03537" lon="6.8932">
        <ele>1041.6</ele>
        <time>2022-05-28T12:36:15Z</time>
      </trkpt>
      <trkpt lat="48.03527" lon="6.89321">
        <ele>1041.2</ele>
        <time>2022-05-28T12:36:17Z</time>
      </trkpt>
      <trkpt lat="48.03518" lon="6.8932">
        <ele>1041.6</ele>
        <time>2022-05-28T12:36:19Z</time>
      </trkpt>
      <trkpt lat="48.03514" lon="6.89305">
        <ele>1043.3</ele>
        <time>2022-05-28T12:36:22Z</time>
      </trkpt>
      <trkpt lat="48.03514" lon="6.8929">
        <ele>1040.9</ele>
        <time>2022-05-28T12:36:24Z</time>
      </trkpt>
      <trkpt lat="48.03515" lon="6.89274">
        <ele>1040.3</ele>
        <time>2022-05-28T12:36:26Z</time>
      </trkpt>
      <trkpt lat="48.03516" lon="6.89257">
        <ele>1039.5</ele>
        <time>2022-05-28T12:36:28Z</time>
      </trkpt>
      <trkpt lat="48.03518" lon="6.8924">
        <ele>1038.9</ele>
        <time>2022-05-28T12:36:30Z</time>
      </trkpt>
      <trkpt lat="48.03521" lon="6.89224">
        <ele>1038.7</ele>
        <time>2022-05-28T12:36:32Z</time>
      </trkpt>
      <trkpt lat="48.03523" lon="6.8921">
        <ele>1038.8</ele>
        <time>2022-05-28T12:36:34Z</time>
      </trkpt>
      <trkpt lat="48.03524" lon="6.89196">
        <ele>1039.6</ele>
        <time>2022-05-28T12:36:36Z</time>
      </trkpt>
      <trkpt lat="48.03524" lon="6.89183">
        <ele>1038.9</ele>
        <time>2022-05-28T12:36:38Z</time>
      </trkpt>
      <trkpt lat="48.03521" lon="6.89169">
        <ele>1041</ele>
        <time>2022-05-28T12:36:40Z</time>
      </trkpt>
      <trkpt lat="48.03519" lon="6.89156">
        <ele>1040.6</ele>
        <time>2022-05-28T12:36:42Z</time>
      </trkpt>
      <trkpt lat="48.03512" lon="6.8914">
        <ele>1043.5</ele>
        <time>2022-05-28T12:36:45Z</time>
      </trkpt>
      <trkpt lat="48.03505" lon="6.89131">
        <ele>1041</ele>
        <time>2022-05-28T12:36:47Z</time>
      </trkpt>
      <trkpt lat="48.03499" lon="6.89119">
        <ele>1041.5</ele>
        <time>2022-05-28T12:36:49Z</time>
      </trkpt>
      <trkpt lat="48.03496" lon="6.89103">
        <ele>1041.1</ele>
        <time>2022-05-28T12:36:51Z</time>
      </trkpt>
      <trkpt lat="48.035" lon="6.89086">
        <ele>1040.7</ele>
        <time>2022-05-28T12:36:53Z</time>
      </trkpt>
      <trkpt lat="48.03503" lon="6.89068">
        <ele>1038.4</ele>
        <time>2022-05-28T12:36:55Z</time>
      </trkpt>
      <trkpt lat="48.03506" lon="6.89051">
        <ele>1038.1</ele>
        <time>2022-05-28T12:36:57Z</time>
      </trkpt>
      <trkpt lat="48.03511" lon="6.89036">
        <ele>1040.1</ele>
        <time>2022-05-28T12:36:59Z</time>
      </trkpt>
      <trkpt lat="48.0352" lon="6.89024">
        <ele>1039.8</ele>
        <time>2022-05-28T12:37:01Z</time>
      </trkpt>
      <trkpt lat="48.03528" lon="6.89012">
        <ele>1038.5</ele>
        <time>2022-05-28T12:37:03Z</time>
      </trkpt>
      <trkpt lat="48.03536" lon="6.88999">
        <ele>1038.1</ele>
        <time>2022-05-28T12:37:05Z</time>
      </trkpt>
      <trkpt lat="48.03543" lon="6.88985">
        <ele>1038.6</ele>
        <time>2022-05-28T12:37:07Z</time>
      </trkpt>
      <trkpt lat="48.03549" lon="6.8897">
        <ele>1037.9</ele>
        <time>2022-05-28T12:37:09Z</time>
      </trkpt>
      <trkpt lat="48.03553" lon="6.88954">
        <ele>1036</ele>
        <time>2022-05-28T12:37:11Z</time>
      </trkpt>
      <trkpt lat="48.03556" lon="6.88938">
        <ele>1035.9</ele>
        <time>2022-05-28T12:37:13Z</time>
      </trkpt>
      <trkpt lat="48.03557" lon="6.8892">
        <ele>1036.4</ele>
        <time>2022-05-28T12:37:15Z</time>
      </trkpt>
      <trkpt lat="48.03554" lon="6.88902">
        <ele>1036.7</ele>
        <time>2022-05-28T12:37:17Z</time>
      </trkpt>
      <trkpt lat="48.03549" lon="6.88889">
        <ele>1036.6</ele>
        <time>2022-05-28T12:37:19Z</time>
      </trkpt>
      <trkpt lat="48.03541" lon="6.88878">
        <ele>1036</ele>
        <time>2022-05-28T12:37:21Z</time>
      </trkpt>
      <trkpt lat="48.03531" lon="6.88869">
        <ele>1035.8</ele>
        <time>2022-05-28T12:37:23Z</time>
      </trkpt>
      <trkpt lat="48.0352" lon="6.8886">
        <ele>1035</ele>
        <time>2022-05-28T12:37:25Z</time>
      </trkpt>
      <trkpt lat="48.03509" lon="6.8885">
        <ele>1035.2</ele>
        <time>2022-05-28T12:37:27Z</time>
      </trkpt>
      <trkpt lat="48.03499" lon="6.88838">
        <ele>1034.2</ele>
        <time>2022-05-28T12:37:29Z</time>
      </trkpt>
      <trkpt lat="48.03489" lon="6.88828">
        <ele>1037</ele>
        <time>2022-05-28T12:37:31Z</time>
      </trkpt>
      <trkpt lat="48.03478" lon="6.88818">
        <ele>1033.9</ele>
        <time>2022-05-28T12:37:33Z</time>
      </trkpt>
      <trkpt lat="48.03467" lon="6.88807">
        <ele>1034</ele>
        <time>2022-05-28T12:37:35Z</time>
      </trkpt>
      <trkpt lat="48.03455" lon="6.88797">
        <ele>1032.7</ele>
        <time>2022-05-28T12:37:37Z</time>
      </trkpt>
      <trkpt lat="48.03444" lon="6.88789">
        <ele>1033.4</ele>
        <time>2022-05-28T12:37:39Z</time>
      </trkpt>
      <trkpt lat="48.03434" lon="6.88782">
        <ele>1033.7</ele>
        <time>2022-05-28T12:37:41Z</time>
      </trkpt>
      <trkpt lat="48.03423" lon="6.88778">
        <ele>1034.6</ele>
        <time>2022-05-28T12:37:43Z</time>
      </trkpt>
      <trkpt lat="48.03414" lon="6.88774">
        <ele>1032.7</ele>
        <time>2022-05-28T12:37:45Z</time>
      </trkpt>
      <trkpt lat="48.03406" lon="6.88765">
        <ele>1033.4</ele>
        <time>2022-05-28T12:37:47Z</time>
      </trkpt>
      <trkpt lat="48.03398" lon="6.88753">
        <ele>1032.9</ele>
        <time>2022-05-28T12:37:49Z</time>
      </trkpt>
      <trkpt lat="48.03391" lon="6.88737">
        <ele>1033.2</ele>
        <time>2022-05-28T12:37:51Z</time>
      </trkpt>
      <trkpt lat="48.03387" lon="6.88719">
        <ele>1029.8</ele>
        <time>2022-05-28T12:37:53Z</time>
      </trkpt>
      <trkpt lat="48.03383" lon="6.88701">
        <ele>1029.6</ele>
        <time>2022-05-28T12:37:55Z</time>
      </trkpt>
      <trkpt lat="48.03377" lon="6.88681">
        <ele>1028.3</ele>
        <time>2022-05-28T12:37:57Z</time>
      </trkpt>
      <trkpt lat="48.0337" lon="6.88662">
        <ele>1028.4</ele>
        <time>2022-05-28T12:37:59Z</time>
      </trkpt>
      <trkpt lat="48.03363" lon="6.88644">
        <ele>1026.9</ele>
        <time>2022-05-28T12:38:01Z</time>
      </trkpt>
      <trkpt lat="48.03355" lon="6.8863">
        <ele>1024.7</ele>
        <time>2022-05-28T12:38:03Z</time>
      </trkpt>
      <trkpt lat="48.03347" lon="6.88621">
        <ele>1027</ele>
        <time>2022-05-28T12:38:05Z</time>
      </trkpt>
      <trkpt lat="48.03336" lon="6.88613">
        <ele>1025.6</ele>
        <time>2022-05-28T12:38:07Z</time>
      </trkpt>
      <trkpt lat="48.03327" lon="6.886">
        <ele>1023.8</ele>
        <time>2022-05-28T12:38:09Z</time>
      </trkpt>
      <trkpt lat="48.03321" lon="6.88586">
        <ele>1023.7</ele>
        <time>2022-05-28T12:38:11Z</time>
      </trkpt>
      <trkpt lat="48.03315" lon="6.88572">
        <ele>1024.8</ele>
        <time>2022-05-28T12:38:13Z</time>
      </trkpt>
      <trkpt lat="48.03305" lon="6.88563">
        <ele>1025.5</ele>
        <time>2022-05-28T12:38:15Z</time>
      </trkpt>
      <trkpt lat="48.03294" lon="6.88559">
        <ele>1022.7</ele>
        <time>2022-05-28T12:38:17Z</time>
      </trkpt>
      <trkpt lat="48.0328" lon="6.88556">
        <ele>1020.8</ele>
        <time>2022-05-28T12:38:19Z</time>
      </trkpt>
      <trkpt lat="48.03264" lon="6.88557">
        <ele>1015.2</ele>
        <time>2022-05-28T12:38:21Z</time>
      </trkpt>
      <trkpt lat="48.03249" lon="6.88554">
        <ele>1016.5</ele>
        <time>2022-05-28T12:38:23Z</time>
      </trkpt>
      <trkpt lat="48.03235" lon="6.88543">
        <ele>1018.1</ele>
        <time>2022-05-28T12:38:25Z</time>
      </trkpt>
      <trkpt lat="48.03225" lon="6.88529">
        <ele>1018.9</ele>
        <time>2022-05-28T12:38:27Z</time>
      </trkpt>
      <trkpt lat="48.03217" lon="6.88511">
        <ele>1019.7</ele>
        <time>2022-05-28T12:38:29Z</time>
      </trkpt>
      <trkpt lat="48.03211" lon="6.88494">
        <ele>1019.8</ele>
        <time>2022-05-28T12:38:31Z</time>
      </trkpt>
      <trkpt lat="48.0321" lon="6.88477">
        <ele>1017.1</ele>
        <time>2022-05-28T12:38:33Z</time>
      </trkpt>
      <trkpt lat="48.03211" lon="6.88456">
        <ele>1018.6</ele>
        <time>2022-05-28T12:38:35Z</time>
      </trkpt>
      <trkpt lat="48.03212" lon="6.88434">
        <ele>1018.5</ele>
        <time>2022-05-28T12:38:37Z</time>
      </trkpt>
      <trkpt lat="48.03209" lon="6.88413">
        <ele>1015.1</ele>
        <time>2022-05-28T12:38:39Z</time>
      </trkpt>
      <trkpt lat="48.03202" lon="6.88396">
        <ele>1019</ele>
        <time>2022-05-28T12:38:41Z</time>
      </trkpt>
      <trkpt lat="48.03191" lon="6.88381">
        <ele>1018.3</ele>
        <time>2022-05-28T12:38:43Z</time>
      </trkpt>
      <trkpt lat="48.03181" lon="6.88365">
        <ele>1017.2</ele>
        <time>2022-05-28T12:38:45Z</time>
      </trkpt>
      <trkpt lat="48.03173" lon="6.88347">
        <ele>1016.5</ele>
        <time>2022-05-28T12:38:47Z</time>
      </trkpt>
      <trkpt lat="48.03167" lon="6.88327">
        <ele>1015.4</ele>
        <time>2022-05-28T12:38:49Z</time>
      </trkpt>
      <trkpt lat="48.03163" lon="6.88308">
        <ele>1010</ele>
        <time>2022-05-28T12:38:51Z</time>
      </trkpt>
      <trkpt lat="48.03162" lon="6.88287">
        <ele>1008.9</ele>
        <time>2022-05-28T12:38:53Z</time>
      </trkpt>
      <trkpt lat="48.03163" lon="6.88263">
        <ele>1013.6</ele>
        <time>2022-05-28T12:38:55Z</time>
      </trkpt>
      <trkpt lat="48.03165" lon="6.88242">
        <ele>1010</ele>
        <time>2022-05-28T12:38:57Z</time>
      </trkpt>
      <trkpt lat="48.03166" lon="6.88222">
        <ele>1011</ele>
        <time>2022-05-28T12:38:59Z</time>
      </trkpt>
      <trkpt lat="48.03167" lon="6.88202">
        <ele>1010.9</ele>
        <time>2022-05-28T12:39:01Z</time>
      </trkpt>
      <trkpt lat="48.0317" lon="6.8818">
        <ele>1013.6</ele>
        <time>2022-05-28T12:39:03Z</time>
      </trkpt>
      <trkpt lat="48.03177" lon="6.88163">
        <ele>1011.5</ele>
        <time>2022-05-28T12:39:05Z</time>
      </trkpt>
      <trkpt lat="48.03185" lon="6.88151">
        <ele>1011.4</ele>
        <time>2022-05-28T12:39:07Z</time>
      </trkpt>
      <trkpt lat="48.03193" lon="6.88143">
        <ele>1014.3</ele>
        <time>2022-05-28T12:39:09Z</time>
      </trkpt>
      <trkpt lat="48.03201" lon="6.88136">
        <ele>1016.9</ele>
        <time>2022-05-28T12:39:11Z</time>
      </trkpt>
      <trkpt lat="48.0321" lon="6.88125">
        <ele>1017.9</ele>
        <time>2022-05-28T12:39:14Z</time>
      </trkpt>
      <trkpt lat="48.03216" lon="6.88113">
        <ele>1016</ele>
        <time>2022-05-28T12:39:17Z</time>
      </trkpt>
      <trkpt lat="48.03222" lon="6.88102">
        <ele>1015.7</ele>
        <time>2022-05-28T12:39:20Z</time>
      </trkpt>
      <trkpt lat="48.03226" lon="6.88087">
        <ele>1019.2</ele>
        <time>2022-05-28T12:39:24Z</time>
      </trkpt>
      <trkpt lat="48.03228" lon="6.88072">
        <ele>1019.7</ele>
        <time>2022-05-28T12:39:29Z</time>
      </trkpt>
      <trkpt lat="48.03226" lon="6.88059">
        <ele>1018</ele>
        <time>2022-05-28T12:39:32Z</time>
      </trkpt>
      <trkpt lat="48.03224" lon="6.88045">
        <ele>1019.7</ele>
        <time>2022-05-28T12:39:35Z</time>
      </trkpt>
      <trkpt lat="48.03223" lon="6.88027">
        <ele>1019.7</ele>
        <time>2022-05-28T12:39:39Z</time>
      </trkpt>
      <trkpt lat="48.03226" lon="6.8801">
        <ele>1020</ele>
        <time>2022-05-28T12:39:43Z</time>
      </trkpt>
      <trkpt lat="48.03227" lon="6.87996">
        <ele>1022.4</ele>
        <time>2022-05-28T12:39:46Z</time>
      </trkpt>
      <trkpt lat="48.0323" lon="6.87983">
        <ele>1023.6</ele>
        <time>2022-05-28T12:39:49Z</time>
      </trkpt>
      <trkpt lat="48.03235" lon="6.8797">
        <ele>1022.9</ele>
        <time>2022-05-28T12:39:52Z</time>
      </trkpt>
      <trkpt lat="48.03241" lon="6.87958">
        <ele>1023.1</ele>
        <time>2022-05-28T12:39:55Z</time>
      </trkpt>
      <trkpt lat="48.03249" lon="6.87945">
        <ele>1020.2</ele>
        <time>2022-05-28T12:39:58Z</time>
      </trkpt>
      <trkpt lat="48.03254" lon="6.87934">
        <ele>1019.4</ele>
        <time>2022-05-28T12:40:00Z</time>
      </trkpt>
      <trkpt lat="48.03259" lon="6.8792">
        <ele>1016.6</ele>
        <time>2022-05-28T12:40:02Z</time>
      </trkpt>
      <trkpt lat="48.03263" lon="6.87904">
        <ele>1014.5</ele>
        <time>2022-05-28T12:40:04Z</time>
      </trkpt>
      <trkpt lat="48.0327" lon="6.87886">
        <ele>1014.9</ele>
        <time>2022-05-28T12:40:06Z</time>
      </trkpt>
      <trkpt lat="48.03278" lon="6.87869">
        <ele>1015.1</ele>
        <time>2022-05-28T12:40:08Z</time>
      </trkpt>
      <trkpt lat="48.03287" lon="6.87854">
        <ele>1011.7</ele>
        <time>2022-05-28T12:40:10Z</time>
      </trkpt>
      <trkpt lat="48.03297" lon="6.87841">
        <ele>1010.8</ele>
        <time>2022-05-28T12:40:12Z</time>
      </trkpt>
      <trkpt lat="48.03306" lon="6.87825">
        <ele>1010.9</ele>
        <time>2022-05-28T12:40:14Z</time>
      </trkpt>
      <trkpt lat="48.03312" lon="6.87807">
        <ele>1010.9</ele>
        <time>2022-05-28T12:40:16Z</time>
      </trkpt>
      <trkpt lat="48.03317" lon="6.87788">
        <ele>1009.9</ele>
        <time>2022-05-28T12:40:18Z</time>
      </trkpt>
      <trkpt lat="48.03323" lon="6.87768">
        <ele>1007.7</ele>
        <time>2022-05-28T12:40:20Z</time>
      </trkpt>
      <trkpt lat="48.0333" lon="6.87748">
        <ele>1004</ele>
        <time>2022-05-28T12:40:22Z</time>
      </trkpt>
      <trkpt lat="48.03337" lon="6.87728">
        <ele>1010.3</ele>
        <time>2022-05-28T12:40:24Z</time>
      </trkpt>
      <trkpt lat="48.03345" lon="6.87707">
        <ele>1005.6</ele>
        <time>2022-05-28T12:40:26Z</time>
      </trkpt>
      <trkpt lat="48.0335" lon="6.87687">
        <ele>1000.2</ele>
        <time>2022-05-28T12:40:28Z</time>
      </trkpt>
      <trkpt lat="48.03351" lon="6.87668">
        <ele>1001.2</ele>
        <time>2022-05-28T12:40:30Z</time>
      </trkpt>
      <trkpt lat="48.03345" lon="6.87651">
        <ele>1004.3</ele>
        <time>2022-05-28T12:40:32Z</time>
      </trkpt>
      <trkpt lat="48.03342" lon="6.87629">
        <ele>1005</ele>
        <time>2022-05-28T12:40:34Z</time>
      </trkpt>
      <trkpt lat="48.03347" lon="6.8761">
        <ele>1004</ele>
        <time>2022-05-28T12:40:36Z</time>
      </trkpt>
      <trkpt lat="48.03355" lon="6.87595">
        <ele>1006.3</ele>
        <time>2022-05-28T12:40:38Z</time>
      </trkpt>
      <trkpt lat="48.03363" lon="6.87578">
        <ele>1004.8</ele>
        <time>2022-05-28T12:40:40Z</time>
      </trkpt>
      <trkpt lat="48.03372" lon="6.87563">
        <ele>1003.8</ele>
        <time>2022-05-28T12:40:42Z</time>
      </trkpt>
      <trkpt lat="48.03384" lon="6.87554">
        <ele>998.1</ele>
        <time>2022-05-28T12:40:44Z</time>
      </trkpt>
      <trkpt lat="48.03395" lon="6.8755">
        <ele>1001.3</ele>
        <time>2022-05-28T12:40:46Z</time>
      </trkpt>
      <trkpt lat="48.03406" lon="6.87547">
        <ele>1001.8</ele>
        <time>2022-05-28T12:40:48Z</time>
      </trkpt>
      <trkpt lat="48.03417" lon="6.87541">
        <ele>1003</ele>
        <time>2022-05-28T12:40:51Z</time>
      </trkpt>
      <trkpt lat="48.03429" lon="6.87533">
        <ele>1003.9</ele>
        <time>2022-05-28T12:40:54Z</time>
      </trkpt>
      <trkpt lat="48.0344" lon="6.87527">
        <ele>1002.8</ele>
        <time>2022-05-28T12:40:56Z</time>
      </trkpt>
      <trkpt lat="48.03451" lon="6.8752">
        <ele>1001.6</ele>
        <time>2022-05-28T12:40:58Z</time>
      </trkpt>
      <trkpt lat="48.03461" lon="6.87514">
        <ele>1000.2</ele>
        <time>2022-05-28T12:41:00Z</time>
      </trkpt>
      <trkpt lat="48.03474" lon="6.87507">
        <ele>1001.8</ele>
        <time>2022-05-28T12:41:02Z</time>
      </trkpt>
      <trkpt lat="48.03485" lon="6.87497">
        <ele>1000.7</ele>
        <time>2022-05-28T12:41:04Z</time>
      </trkpt>
      <trkpt lat="48.03494" lon="6.87482">
        <ele>1001.1</ele>
        <time>2022-05-28T12:41:06Z</time>
      </trkpt>
      <trkpt lat="48.03503" lon="6.87465">
        <ele>1000.6</ele>
        <time>2022-05-28T12:41:08Z</time>
      </trkpt>
      <trkpt lat="48.03512" lon="6.87449">
        <ele>1000.5</ele>
        <time>2022-05-28T12:41:10Z</time>
      </trkpt>
      <trkpt lat="48.03517" lon="6.8743">
        <ele>1000.2</ele>
        <time>2022-05-28T12:41:12Z</time>
      </trkpt>
      <trkpt lat="48.03523" lon="6.87411">
        <ele>999.1</ele>
        <time>2022-05-28T12:41:14Z</time>
      </trkpt>
      <trkpt lat="48.03528" lon="6.87394">
        <ele>998.3</ele>
        <time>2022-05-28T12:41:16Z</time>
      </trkpt>
      <trkpt lat="48.03532" lon="6.87386">
        <ele>999.8</ele>
        <time>2022-05-28T12:41:20Z</time>
      </trkpt>
      <trkpt lat="48.03531" lon="6.87385">
        <ele>1000</ele>
        <time>2022-05-28T12:41:21Z</time>
      </trkpt>
      <trkpt lat="48.03528" lon="6.87383">
        <ele>999.4</ele>
        <time>2022-05-28T12:41:27Z</time>
      </trkpt>
      <trkpt lat="48.03528" lon="6.87384">
        <ele>999.3</ele>
        <time>2022-05-28T12:41:58Z</time>
      </trkpt>
      <trkpt lat="48.03528" lon="6.87384">
        <ele>999.5</ele>
        <time>2022-05-28T12:42:28Z</time>
      </trkpt>
      <trkpt lat="48.03527" lon="6.87384">
        <ele>999.8</ele>
        <time>2022-05-28T12:43:29Z</time>
      </trkpt>
      <trkpt lat="48.03527" lon="6.87385">
        <ele>999.5</ele>
        <time>2022-05-28T12:44:22Z</time>
      </trkpt>
      <trkpt lat="48.03527" lon="6.87385">
        <ele>999.3</ele>
        <time>2022-05-28T12:44:32Z</time>
      </trkpt>
      <trkpt lat="48.03526" lon="6.87385">
        <ele>1000</ele>
        <time>2022-05-28T12:45:57Z</time>
      </trkpt>
      <trkpt lat="48.03526" lon="6.87385">
        <ele>1000.1</ele>
        <time>2022-05-28T12:46:17Z</time>
      </trkpt>
      <trkpt lat="48.03524" lon="6.87387">
        <ele>1000.5</ele>
        <time>2022-05-28T12:46:24Z</time>
      </trkpt>
      <trkpt lat="48.03524" lon="6.87386">
        <ele>1000.8</ele>
        <time>2022-05-28T12:46:37Z</time>
      </trkpt>
      <trkpt lat="48.03524" lon="6.87385">
        <ele>1000.7</ele>
        <time>2022-05-28T12:46:44Z</time>
      </trkpt>
      <trkpt lat="48.03529" lon="6.87373">
        <ele>1000.6</ele>
        <time>2022-05-28T12:46:49Z</time>
      </trkpt>
      <trkpt lat="48.03531" lon="6.87355">
        <ele>999.1</ele>
        <time>2022-05-28T12:46:53Z</time>
      </trkpt>
      <trkpt lat="48.03533" lon="6.87342">
        <ele>998.9</ele>
        <time>2022-05-28T12:46:55Z</time>
      </trkpt>
      <trkpt lat="48.03535" lon="6.87326">
        <ele>999</ele>
        <time>2022-05-28T12:46:57Z</time>
      </trkpt>
      <trkpt lat="48.03538" lon="6.8731">
        <ele>999.1</ele>
        <time>2022-05-28T12:46:59Z</time>
      </trkpt>
      <trkpt lat="48.03543" lon="6.87294">
        <ele>997.6</ele>
        <time>2022-05-28T12:47:01Z</time>
      </trkpt>
      <trkpt lat="48.0355" lon="6.87278">
        <ele>996.3</ele>
        <time>2022-05-28T12:47:03Z</time>
      </trkpt>
      <trkpt lat="48.03557" lon="6.87264">
        <ele>997.3</ele>
        <time>2022-05-28T12:47:05Z</time>
      </trkpt>
      <trkpt lat="48.0356" lon="6.87249">
        <ele>998.2</ele>
        <time>2022-05-28T12:47:07Z</time>
      </trkpt>
      <trkpt lat="48.03559" lon="6.87234">
        <ele>997</ele>
        <time>2022-05-28T12:47:09Z</time>
      </trkpt>
      <trkpt lat="48.03555" lon="6.87219">
        <ele>996</ele>
        <time>2022-05-28T12:47:11Z</time>
      </trkpt>
      <trkpt lat="48.03552" lon="6.87202">
        <ele>993.5</ele>
        <time>2022-05-28T12:47:13Z</time>
      </trkpt>
      <trkpt lat="48.0355" lon="6.87184">
        <ele>992.1</ele>
        <time>2022-05-28T12:47:15Z</time>
      </trkpt>
      <trkpt lat="48.03548" lon="6.87165">
        <ele>992.6</ele>
        <time>2022-05-28T12:47:17Z</time>
      </trkpt>
      <trkpt lat="48.03546" lon="6.87147">
        <ele>992.8</ele>
        <time>2022-05-28T12:47:19Z</time>
      </trkpt>
      <trkpt lat="48.03545" lon="6.87129">
        <ele>993.9</ele>
        <time>2022-05-28T12:47:21Z</time>
      </trkpt>
      <trkpt lat="48.03542" lon="6.87111">
        <ele>995.5</ele>
        <time>2022-05-28T12:47:23Z</time>
      </trkpt>
      <trkpt lat="48.03535" lon="6.87096">
        <ele>992</ele>
        <time>2022-05-28T12:47:25Z</time>
      </trkpt>
      <trkpt lat="48.03529" lon="6.87079">
        <ele>994.4</ele>
        <time>2022-05-28T12:47:27Z</time>
      </trkpt>
      <trkpt lat="48.03527" lon="6.87061">
        <ele>993.2</ele>
        <time>2022-05-28T12:47:29Z</time>
      </trkpt>
      <trkpt lat="48.03529" lon="6.87044">
        <ele>992.5</ele>
        <time>2022-05-28T12:47:31Z</time>
      </trkpt>
      <trkpt lat="48.03529" lon="6.87029">
        <ele>993.7</ele>
        <time>2022-05-28T12:47:33Z</time>
      </trkpt>
      <trkpt lat="48.03529" lon="6.87012">
        <ele>994.2</ele>
        <time>2022-05-28T12:47:36Z</time>
      </trkpt>
      <trkpt lat="48.03527" lon="6.86992">
        <ele>992.1</ele>
        <time>2022-05-28T12:47:39Z</time>
      </trkpt>
      <trkpt lat="48.03531" lon="6.86977">
        <ele>992.3</ele>
        <time>2022-05-28T12:47:41Z</time>
      </trkpt>
      <trkpt lat="48.03538" lon="6.86966">
        <ele>992.5</ele>
        <time>2022-05-28T12:47:43Z</time>
      </trkpt>
      <trkpt lat="48.03545" lon="6.86957">
        <ele>992.3</ele>
        <time>2022-05-28T12:47:45Z</time>
      </trkpt>
      <trkpt lat="48.03553" lon="6.86949">
        <ele>991.1</ele>
        <time>2022-05-28T12:47:47Z</time>
      </trkpt>
      <trkpt lat="48.0356" lon="6.86939">
        <ele>991.9</ele>
        <time>2022-05-28T12:47:49Z</time>
      </trkpt>
      <trkpt lat="48.03563" lon="6.86926">
        <ele>993.1</ele>
        <time>2022-05-28T12:47:51Z</time>
      </trkpt>
      <trkpt lat="48.03562" lon="6.86912">
        <ele>993.3</ele>
        <time>2022-05-28T12:47:53Z</time>
      </trkpt>
      <trkpt lat="48.0356" lon="6.86897">
        <ele>991.6</ele>
        <time>2022-05-28T12:47:55Z</time>
      </trkpt>
      <trkpt lat="48.03562" lon="6.8688">
        <ele>989.8</ele>
        <time>2022-05-28T12:47:57Z</time>
      </trkpt>
      <trkpt lat="48.03571" lon="6.86869">
        <ele>988.3</ele>
        <time>2022-05-28T12:47:59Z</time>
      </trkpt>
      <trkpt lat="48.03584" lon="6.86863">
        <ele>988.7</ele>
        <time>2022-05-28T12:48:01Z</time>
      </trkpt>
      <trkpt lat="48.03593" lon="6.86857">
        <ele>987.2</ele>
        <time>2022-05-28T12:48:03Z</time>
      </trkpt>
      <trkpt lat="48.03601" lon="6.86843">
        <ele>988.6</ele>
        <time>2022-05-28T12:48:05Z</time>
      </trkpt>
      <trkpt lat="48.03605" lon="6.86828">
        <ele>988.5</ele>
        <time>2022-05-28T12:48:07Z</time>
      </trkpt>
      <trkpt lat="48.03607" lon="6.86812">
        <ele>986.3</ele>
        <time>2022-05-28T12:48:09Z</time>
      </trkpt>
      <trkpt lat="48.03611" lon="6.86793">
        <ele>983.8</ele>
        <time>2022-05-28T12:48:11Z</time>
      </trkpt>
      <trkpt lat="48.03619" lon="6.86783">
        <ele>981.6</ele>
        <time>2022-05-28T12:48:13Z</time>
      </trkpt>
      <trkpt lat="48.03631" lon="6.86771">
        <ele>982.6</ele>
        <time>2022-05-28T12:48:15Z</time>
      </trkpt>
      <trkpt lat="48.03637" lon="6.86753">
        <ele>982.9</ele>
        <time>2022-05-28T12:48:17Z</time>
      </trkpt>
      <trkpt lat="48.03632" lon="6.86736">
        <ele>983.5</ele>
        <time>2022-05-28T12:48:19Z</time>
      </trkpt>
      <trkpt lat="48.03622" lon="6.86721">
        <ele>983.6</ele>
        <time>2022-05-28T12:48:21Z</time>
      </trkpt>
      <trkpt lat="48.03614" lon="6.86711">
        <ele>983.2</ele>
        <time>2022-05-28T12:48:23Z</time>
      </trkpt>
      <trkpt lat="48.03607" lon="6.86702">
        <ele>984.3</ele>
        <time>2022-05-28T12:48:26Z</time>
      </trkpt>
      <trkpt lat="48.03598" lon="6.86698">
        <ele>983.3</ele>
        <time>2022-05-28T12:48:30Z</time>
      </trkpt>
      <trkpt lat="48.03593" lon="6.86693">
        <ele>984.4</ele>
        <time>2022-05-28T12:48:35Z</time>
      </trkpt>
      <trkpt lat="48.03592" lon="6.86694">
        <ele>984.4</ele>
        <time>2022-05-28T12:48:36Z</time>
      </trkpt>
      <trkpt lat="48.03591" lon="6.86695">
        <ele>984.2</ele>
        <time>2022-05-28T12:48:38Z</time>
      </trkpt>
      <trkpt lat="48.03591" lon="6.86694">
        <ele>983.8</ele>
        <time>2022-05-28T12:48:50Z</time>
      </trkpt>
      <trkpt lat="48.03591" lon="6.86693">
        <ele>984.2</ele>
        <time>2022-05-28T12:48:52Z</time>
      </trkpt>
      <trkpt lat="48.03581" lon="6.86701">
        <ele>984.2</ele>
        <time>2022-05-28T12:49:01Z</time>
      </trkpt>
      <trkpt lat="48.03574" lon="6.86709">
        <ele>985.2</ele>
        <time>2022-05-28T12:49:05Z</time>
      </trkpt>
      <trkpt lat="48.03569" lon="6.86722">
        <ele>987.6</ele>
        <time>2022-05-28T12:49:10Z</time>
      </trkpt>
      <trkpt lat="48.03565" lon="6.86735">
        <ele>989.2</ele>
        <time>2022-05-28T12:49:16Z</time>
      </trkpt>
      <trkpt lat="48.03558" lon="6.86744">
        <ele>992.4</ele>
        <time>2022-05-28T12:49:23Z</time>
      </trkpt>
      <trkpt lat="48.0355" lon="6.86753">
        <ele>993.3</ele>
        <time>2022-05-28T12:49:30Z</time>
      </trkpt>
      <trkpt lat="48.03543" lon="6.86762">
        <ele>993.8</ele>
        <time>2022-05-28T12:49:36Z</time>
      </trkpt>
      <trkpt lat="48.03532" lon="6.86766">
        <ele>994.9</ele>
        <time>2022-05-28T12:49:43Z</time>
      </trkpt>
      <trkpt lat="48.03523" lon="6.86765">
        <ele>996.8</ele>
        <time>2022-05-28T12:49:49Z</time>
      </trkpt>
      <trkpt lat="48.03513" lon="6.86764">
        <ele>997.8</ele>
        <time>2022-05-28T12:49:56Z</time>
      </trkpt>
      <trkpt lat="48.03503" lon="6.86768">
        <ele>997.5</ele>
        <time>2022-05-28T12:50:02Z</time>
      </trkpt>
      <trkpt lat="48.03495" lon="6.86778">
        <ele>1001</ele>
        <time>2022-05-28T12:50:08Z</time>
      </trkpt>
      <trkpt lat="48.03487" lon="6.86786">
        <ele>1002.7</ele>
        <time>2022-05-28T12:50:17Z</time>
      </trkpt>
      <trkpt lat="48.03478" lon="6.86794">
        <ele>1003.4</ele>
        <time>2022-05-28T12:50:23Z</time>
      </trkpt>
      <trkpt lat="48.0347" lon="6.86802">
        <ele>1005</ele>
        <time>2022-05-28T12:50:29Z</time>
      </trkpt>
      <trkpt lat="48.03465" lon="6.86813">
        <ele>1006</ele>
        <time>2022-05-28T12:50:36Z</time>
      </trkpt>
      <trkpt lat="48.03462" lon="6.86826">
        <ele>1005.6</ele>
        <time>2022-05-28T12:50:41Z</time>
      </trkpt>
      <trkpt lat="48.03458" lon="6.86839">
        <ele>1005.8</ele>
        <time>2022-05-28T12:50:45Z</time>
      </trkpt>
      <trkpt lat="48.03451" lon="6.86848">
        <ele>1006.1</ele>
        <time>2022-05-28T12:50:53Z</time>
      </trkpt>
      <trkpt lat="48.03451" lon="6.86849">
        <ele>1006.1</ele>
        <time>2022-05-28T12:50:55Z</time>
      </trkpt>
      <trkpt lat="48.03445" lon="6.86854">
        <ele>1006</ele>
        <time>2022-05-28T12:51:07Z</time>
      </trkpt>
      <trkpt lat="48.03446" lon="6.86853">
        <ele>1005.8</ele>
        <time>2022-05-28T12:51:13Z</time>
      </trkpt>
      <trkpt lat="48.03453" lon="6.86847">
        <ele>1005.8</ele>
        <time>2022-05-28T12:51:22Z</time>
      </trkpt>
      <trkpt lat="48.03453" lon="6.86846">
        <ele>1005.7</ele>
        <time>2022-05-28T12:51:28Z</time>
      </trkpt>
      <trkpt lat="48.03452" lon="6.86847">
        <ele>1006</ele>
        <time>2022-05-28T12:51:32Z</time>
      </trkpt>
      <trkpt lat="48.03443" lon="6.86854">
        <ele>1005.9</ele>
        <time>2022-05-28T12:51:38Z</time>
      </trkpt>
      <trkpt lat="48.03434" lon="6.86859">
        <ele>1005.7</ele>
        <time>2022-05-28T12:51:42Z</time>
      </trkpt>
      <trkpt lat="48.03423" lon="6.86864">
        <ele>1003.3</ele>
        <time>2022-05-28T12:51:45Z</time>
      </trkpt>
      <trkpt lat="48.03411" lon="6.86871">
        <ele>1003.4</ele>
        <time>2022-05-28T12:51:48Z</time>
      </trkpt>
      <trkpt lat="48.03403" lon="6.86877">
        <ele>1003.7</ele>
        <time>2022-05-28T12:51:51Z</time>
      </trkpt>
      <trkpt lat="48.03392" lon="6.86884">
        <ele>1003.3</ele>
        <time>2022-05-28T12:51:55Z</time>
      </trkpt>
      <trkpt lat="48.03382" lon="6.86891">
        <ele>1003.7</ele>
        <time>2022-05-28T12:51:59Z</time>
      </trkpt>
      <trkpt lat="48.03373" lon="6.86898">
        <ele>1005</ele>
        <time>2022-05-28T12:52:03Z</time>
      </trkpt>
      <trkpt lat="48.03366" lon="6.86906">
        <ele>1005.2</ele>
        <time>2022-05-28T12:52:07Z</time>
      </trkpt>
      <trkpt lat="48.03358" lon="6.86913">
        <ele>1005.5</ele>
        <time>2022-05-28T12:52:11Z</time>
      </trkpt>
      <trkpt lat="48.03348" lon="6.8692">
        <ele>1007.3</ele>
        <time>2022-05-28T12:52:16Z</time>
      </trkpt>
      <trkpt lat="48.03339" lon="6.86928">
        <ele>1007.4</ele>
        <time>2022-05-28T12:52:21Z</time>
      </trkpt>
      <trkpt lat="48.03332" lon="6.86939">
        <ele>1007.7</ele>
        <time>2022-05-28T12:52:25Z</time>
      </trkpt>
      <trkpt lat="48.03327" lon="6.86951">
        <ele>1006.9</ele>
        <time>2022-05-28T12:52:28Z</time>
      </trkpt>
      <trkpt lat="48.03321" lon="6.86965">
        <ele>1007.8</ele>
        <time>2022-05-28T12:52:32Z</time>
      </trkpt>
      <trkpt lat="48.03315" lon="6.86979">
        <ele>1009.7</ele>
        <time>2022-05-28T12:52:36Z</time>
      </trkpt>
      <trkpt lat="48.03308" lon="6.8699">
        <ele>1009.8</ele>
        <time>2022-05-28T12:52:40Z</time>
      </trkpt>
      <trkpt lat="48.03299" lon="6.87002">
        <ele>1009.2</ele>
        <time>2022-05-28T12:52:44Z</time>
      </trkpt>
      <trkpt lat="48.03293" lon="6.87012">
        <ele>1008.3</ele>
        <time>2022-05-28T12:52:47Z</time>
      </trkpt>
      <trkpt lat="48.03287" lon="6.87026">
        <ele>1010</ele>
        <time>2022-05-28T12:52:51Z</time>
      </trkpt>
      <trkpt lat="48.03284" lon="6.87041">
        <ele>1010.2</ele>
        <time>2022-05-28T12:52:55Z</time>
      </trkpt>
      <trkpt lat="48.03282" lon="6.87057">
        <ele>1010.9</ele>
        <time>2022-05-28T12:53:00Z</time>
      </trkpt>
      <trkpt lat="48.03279" lon="6.87072">
        <ele>1011.6</ele>
        <time>2022-05-28T12:53:05Z</time>
      </trkpt>
      <trkpt lat="48.03275" lon="6.87087">
        <ele>1013</ele>
        <time>2022-05-28T12:53:10Z</time>
      </trkpt>
      <trkpt lat="48.0327" lon="6.87099">
        <ele>1013.5</ele>
        <time>2022-05-28T12:53:15Z</time>
      </trkpt>
      <trkpt lat="48.03264" lon="6.87113">
        <ele>1014.5</ele>
        <time>2022-05-28T12:53:21Z</time>
      </trkpt>
      <trkpt lat="48.0326" lon="6.87126">
        <ele>1016</ele>
        <time>2022-05-28T12:53:27Z</time>
      </trkpt>
      <trkpt lat="48.0326" lon="6.8714">
        <ele>1017.5</ele>
        <time>2022-05-28T12:53:32Z</time>
      </trkpt>
      <trkpt lat="48.03264" lon="6.87154">
        <ele>1018.5</ele>
        <time>2022-05-28T12:53:38Z</time>
      </trkpt>
      <trkpt lat="48.03265" lon="6.87168">
        <ele>1018.9</ele>
        <time>2022-05-28T12:53:43Z</time>
      </trkpt>
      <trkpt lat="48.03268" lon="6.87183">
        <ele>1019.5</ele>
        <time>2022-05-28T12:53:49Z</time>
      </trkpt>
      <trkpt lat="48.03272" lon="6.87197">
        <ele>1020.6</ele>
        <time>2022-05-28T12:53:55Z</time>
      </trkpt>
      <trkpt lat="48.03276" lon="6.8721">
        <ele>1021.2</ele>
        <time>2022-05-28T12:54:01Z</time>
      </trkpt>
      <trkpt lat="48.03282" lon="6.87223">
        <ele>1022.4</ele>
        <time>2022-05-28T12:54:06Z</time>
      </trkpt>
      <trkpt lat="48.03288" lon="6.87234">
        <ele>1024.1</ele>
        <time>2022-05-28T12:54:11Z</time>
      </trkpt>
      <trkpt lat="48.03295" lon="6.87244">
        <ele>1024.9</ele>
        <time>2022-05-28T12:54:17Z</time>
      </trkpt>
      <trkpt lat="48.03302" lon="6.87253">
        <ele>1026.4</ele>
        <time>2022-05-28T12:54:23Z</time>
      </trkpt>
      <trkpt lat="48.03308" lon="6.87266">
        <ele>1026.3</ele>
        <time>2022-05-28T12:54:29Z</time>
      </trkpt>
      <trkpt lat="48.0331" lon="6.87281">
        <ele>1027.1</ele>
        <time>2022-05-28T12:54:35Z</time>
      </trkpt>
      <trkpt lat="48.033" lon="6.87286">
        <ele>1027.9</ele>
        <time>2022-05-28T12:54:39Z</time>
      </trkpt>
      <trkpt lat="48.0329" lon="6.87283">
        <ele>1028.3</ele>
        <time>2022-05-28T12:54:45Z</time>
      </trkpt>
      <trkpt lat="48.03281" lon="6.87282">
        <ele>1029</ele>
        <time>2022-05-28T12:54:50Z</time>
      </trkpt>
      <trkpt lat="48.03271" lon="6.87286">
        <ele>1028.8</ele>
        <time>2022-05-28T12:54:56Z</time>
      </trkpt>
      <trkpt lat="48.03263" lon="6.87294">
        <ele>1029.4</ele>
        <time>2022-05-28T12:55:02Z</time>
      </trkpt>
      <trkpt lat="48.03256" lon="6.87303">
        <ele>1029.9</ele>
        <time>2022-05-28T12:55:06Z</time>
      </trkpt>
      <trkpt lat="48.03248" lon="6.87317">
        <ele>1027.8</ele>
        <time>2022-05-28T12:55:10Z</time>
      </trkpt>
      <trkpt lat="48.03241" lon="6.87328">
        <ele>1028</ele>
        <time>2022-05-28T12:55:13Z</time>
      </trkpt>
      <trkpt lat="48.03232" lon="6.87343">
        <ele>1028.4</ele>
        <time>2022-05-28T12:55:16Z</time>
      </trkpt>
      <trkpt lat="48.03225" lon="6.87359">
        <ele>1026.6</ele>
        <time>2022-05-28T12:55:19Z</time>
      </trkpt>
      <trkpt lat="48.03226" lon="6.87378">
        <ele>1028</ele>
        <time>2022-05-28T12:55:22Z</time>
      </trkpt>
      <trkpt lat="48.03231" lon="6.8739">
        <ele>1030.7</ele>
        <time>2022-05-28T12:55:25Z</time>
      </trkpt>
      <trkpt lat="48.03241" lon="6.87401">
        <ele>1027.9</ele>
        <time>2022-05-28T12:55:29Z</time>
      </trkpt>
      <trkpt lat="48.03249" lon="6.8741">
        <ele>1028.2</ele>
        <time>2022-05-28T12:55:32Z</time>
      </trkpt>
      <trkpt lat="48.03258" lon="6.87418">
        <ele>1028.8</ele>
        <time>2022-05-28T12:55:35Z</time>
      </trkpt>
      <trkpt lat="48.03265" lon="6.87431">
        <ele>1027.5</ele>
        <time>2022-05-28T12:55:38Z</time>
      </trkpt>
      <trkpt lat="48.03268" lon="6.8745">
        <ele>1027</ele>
        <time>2022-05-28T12:55:41Z</time>
      </trkpt>
      <trkpt lat="48.03265" lon="6.87464">
        <ele>1026.6</ele>
        <time>2022-05-28T12:55:43Z</time>
      </trkpt>
      <trkpt lat="48.03261" lon="6.87478">
        <ele>1025.2</ele>
        <time>2022-05-28T12:55:45Z</time>
      </trkpt>
      <trkpt lat="48.03256" lon="6.87492">
        <ele>1024.4</ele>
        <time>2022-05-28T12:55:47Z</time>
      </trkpt>
      <trkpt lat="48.03253" lon="6.87505">
        <ele>1025.8</ele>
        <time>2022-05-28T12:55:49Z</time>
      </trkpt>
      <trkpt lat="48.03247" lon="6.8752">
        <ele>1027.5</ele>
        <time>2022-05-28T12:55:52Z</time>
      </trkpt>
      <trkpt lat="48.03241" lon="6.87535">
        <ele>1028.6</ele>
        <time>2022-05-28T12:55:56Z</time>
      </trkpt>
      <trkpt lat="48.03237" lon="6.8755">
        <ele>1026</ele>
        <time>2022-05-28T12:55:59Z</time>
      </trkpt>
      <trkpt lat="48.03233" lon="6.87566">
        <ele>1025.5</ele>
        <time>2022-05-28T12:56:01Z</time>
      </trkpt>
      <trkpt lat="48.03222" lon="6.87579">
        <ele>1023.7</ele>
        <time>2022-05-28T12:56:03Z</time>
      </trkpt>
      <trkpt lat="48.03211" lon="6.87585">
        <ele>1020.1</ele>
        <time>2022-05-28T12:56:05Z</time>
      </trkpt>
      <trkpt lat="48.032" lon="6.87584">
        <ele>1021.5</ele>
        <time>2022-05-28T12:56:07Z</time>
      </trkpt>
      <trkpt lat="48.03191" lon="6.87582">
        <ele>1024.4</ele>
        <time>2022-05-28T12:56:09Z</time>
      </trkpt>
      <trkpt lat="48.03179" lon="6.8758">
        <ele>1023.3</ele>
        <time>2022-05-28T12:56:12Z</time>
      </trkpt>
      <trkpt lat="48.03169" lon="6.87585">
        <ele>1021.6</ele>
        <time>2022-05-28T12:56:15Z</time>
      </trkpt>
      <trkpt lat="48.0316" lon="6.876">
        <ele>1022.7</ele>
        <time>2022-05-28T12:56:18Z</time>
      </trkpt>
      <trkpt lat="48.03153" lon="6.87616">
        <ele>1024.4</ele>
        <time>2022-05-28T12:56:21Z</time>
      </trkpt>
      <trkpt lat="48.03149" lon="6.87629">
        <ele>1024</ele>
        <time>2022-05-28T12:56:24Z</time>
      </trkpt>
      <trkpt lat="48.03144" lon="6.87645">
        <ele>1025</ele>
        <time>2022-05-28T12:56:28Z</time>
      </trkpt>
      <trkpt lat="48.03142" lon="6.8766">
        <ele>1026.6</ele>
        <time>2022-05-28T12:56:32Z</time>
      </trkpt>
      <trkpt lat="48.03142" lon="6.87674">
        <ele>1029.1</ele>
        <time>2022-05-28T12:56:36Z</time>
      </trkpt>
      <trkpt lat="48.03141" lon="6.8769">
        <ele>1029.7</ele>
        <time>2022-05-28T12:56:41Z</time>
      </trkpt>
      <trkpt lat="48.0314" lon="6.87705">
        <ele>1031.3</ele>
        <time>2022-05-28T12:56:47Z</time>
      </trkpt>
      <trkpt lat="48.03138" lon="6.8772">
        <ele>1031.6</ele>
        <time>2022-05-28T12:56:52Z</time>
      </trkpt>
      <trkpt lat="48.03136" lon="6.87734">
        <ele>1031.4</ele>
        <time>2022-05-28T12:56:56Z</time>
      </trkpt>
      <trkpt lat="48.03134" lon="6.8775">
        <ele>1031.5</ele>
        <time>2022-05-28T12:57:00Z</time>
      </trkpt>
      <trkpt lat="48.03131" lon="6.87765">
        <ele>1032.4</ele>
        <time>2022-05-28T12:57:04Z</time>
      </trkpt>
      <trkpt lat="48.0313" lon="6.8778">
        <ele>1033.5</ele>
        <time>2022-05-28T12:57:09Z</time>
      </trkpt>
      <trkpt lat="48.03129" lon="6.87795">
        <ele>1035</ele>
        <time>2022-05-28T12:57:14Z</time>
      </trkpt>
      <trkpt lat="48.03129" lon="6.87809">
        <ele>1036.8</ele>
        <time>2022-05-28T12:57:19Z</time>
      </trkpt>
      <trkpt lat="48.03127" lon="6.87824">
        <ele>1037.5</ele>
        <time>2022-05-28T12:57:25Z</time>
      </trkpt>
      <trkpt lat="48.03124" lon="6.87839">
        <ele>1039.1</ele>
        <time>2022-05-28T12:57:30Z</time>
      </trkpt>
      <trkpt lat="48.03124" lon="6.87853">
        <ele>1039.6</ele>
        <time>2022-05-28T12:57:35Z</time>
      </trkpt>
      <trkpt lat="48.03123" lon="6.87868">
        <ele>1041</ele>
        <time>2022-05-28T12:57:41Z</time>
      </trkpt>
      <trkpt lat="48.0312" lon="6.87882">
        <ele>1042.3</ele>
        <time>2022-05-28T12:57:47Z</time>
      </trkpt>
      <trkpt lat="48.03114" lon="6.87894">
        <ele>1044</ele>
        <time>2022-05-28T12:57:55Z</time>
      </trkpt>
      <trkpt lat="48.03108" lon="6.87904">
        <ele>1045</ele>
        <time>2022-05-28T12:58:01Z</time>
      </trkpt>
      <trkpt lat="48.03101" lon="6.87914">
        <ele>1046.8</ele>
        <time>2022-05-28T12:58:07Z</time>
      </trkpt>
      <trkpt lat="48.03092" lon="6.87922">
        <ele>1047.9</ele>
        <time>2022-05-28T12:58:15Z</time>
      </trkpt>
      <trkpt lat="48.03084" lon="6.87932">
        <ele>1049.9</ele>
        <time>2022-05-28T12:58:21Z</time>
      </trkpt>
      <trkpt lat="48.03076" lon="6.87942">
        <ele>1050.7</ele>
        <time>2022-05-28T12:58:26Z</time>
      </trkpt>
      <trkpt lat="48.0307" lon="6.87953">
        <ele>1052.5</ele>
        <time>2022-05-28T12:58:31Z</time>
      </trkpt>
      <trkpt lat="48.03064" lon="6.87965">
        <ele>1053.1</ele>
        <time>2022-05-28T12:58:37Z</time>
      </trkpt>
      <trkpt lat="48.03059" lon="6.87978">
        <ele>1053.2</ele>
        <time>2022-05-28T12:58:42Z</time>
      </trkpt>
      <trkpt lat="48.03055" lon="6.87994">
        <ele>1052.1</ele>
        <time>2022-05-28T12:58:46Z</time>
      </trkpt>
      <trkpt lat="48.03053" lon="6.8801">
        <ele>1052.5</ele>
        <time>2022-05-28T12:58:49Z</time>
      </trkpt>
      <trkpt lat="48.03051" lon="6.88023">
        <ele>1052.9</ele>
        <time>2022-05-28T12:58:52Z</time>
      </trkpt>
      <trkpt lat="48.03047" lon="6.88039">
        <ele>1052</ele>
        <time>2022-05-28T12:58:55Z</time>
      </trkpt>
      <trkpt lat="48.03042" lon="6.88057">
        <ele>1052.9</ele>
        <time>2022-05-28T12:58:58Z</time>
      </trkpt>
      <trkpt lat="48.03037" lon="6.8807">
        <ele>1052.4</ele>
        <time>2022-05-28T12:59:01Z</time>
      </trkpt>
      <trkpt lat="48.03033" lon="6.88084">
        <ele>1052.8</ele>
        <time>2022-05-28T12:59:04Z</time>
      </trkpt>
      <trkpt lat="48.0303" lon="6.88097">
        <ele>1053.4</ele>
        <time>2022-05-28T12:59:07Z</time>
      </trkpt>
      <trkpt lat="48.03022" lon="6.88105">
        <ele>1053.4</ele>
        <time>2022-05-28T12:59:11Z</time>
      </trkpt>
      <trkpt lat="48.03012" lon="6.8811">
        <ele>1053.5</ele>
        <time>2022-05-28T12:59:16Z</time>
      </trkpt>
      <trkpt lat="48.03002" lon="6.88119">
        <ele>1053.1</ele>
        <time>2022-05-28T12:59:21Z</time>
      </trkpt>
      <trkpt lat="48.02991" lon="6.88126">
        <ele>1048.8</ele>
        <time>2022-05-28T12:59:24Z</time>
      </trkpt>
      <trkpt lat="48.0298" lon="6.88132">
        <ele>1049</ele>
        <time>2022-05-28T12:59:26Z</time>
      </trkpt>
      <trkpt lat="48.0297" lon="6.88139">
        <ele>1050.1</ele>
        <time>2022-05-28T12:59:28Z</time>
      </trkpt>
      <trkpt lat="48.02962" lon="6.88146">
        <ele>1048</ele>
        <time>2022-05-28T12:59:30Z</time>
      </trkpt>
      <trkpt lat="48.02954" lon="6.88155">
        <ele>1047.1</ele>
        <time>2022-05-28T12:59:32Z</time>
      </trkpt>
      <trkpt lat="48.02945" lon="6.88168">
        <ele>1044.4</ele>
        <time>2022-05-28T12:59:35Z</time>
      </trkpt>
      <trkpt lat="48.02937" lon="6.88181">
        <ele>1039.1</ele>
        <time>2022-05-28T12:59:38Z</time>
      </trkpt>
      <trkpt lat="48.0293" lon="6.88191">
        <ele>1038.5</ele>
        <time>2022-05-28T12:59:40Z</time>
      </trkpt>
      <trkpt lat="48.02923" lon="6.88204">
        <ele>1038.1</ele>
        <time>2022-05-28T12:59:42Z</time>
      </trkpt>
      <trkpt lat="48.02916" lon="6.88217">
        <ele>1033.9</ele>
        <time>2022-05-28T12:59:45Z</time>
      </trkpt>
      <trkpt lat="48.0291" lon="6.88227">
        <ele>1034.1</ele>
        <time>2022-05-28T12:59:48Z</time>
      </trkpt>
      <trkpt lat="48.029" lon="6.88237">
        <ele>1030</ele>
        <time>2022-05-28T12:59:51Z</time>
      </trkpt>
      <trkpt lat="48.02891" lon="6.88248">
        <ele>1024.9</ele>
        <time>2022-05-28T12:59:54Z</time>
      </trkpt>
      <trkpt lat="48.02883" lon="6.8826">
        <ele>1023.2</ele>
        <time>2022-05-28T12:59:57Z</time>
      </trkpt>
      <trkpt lat="48.02877" lon="6.88271">
        <ele>1024.1</ele>
        <time>2022-05-28T12:59:59Z</time>
      </trkpt>
      <trkpt lat="48.02874" lon="6.88285">
        <ele>1023.4</ele>
        <time>2022-05-28T13:00:02Z</time>
      </trkpt>
      <trkpt lat="48.02873" lon="6.88289">
        <ele>1023.5</ele>
        <time>2022-05-28T13:00:05Z</time>
      </trkpt>
      <trkpt lat="48.02873" lon="6.8829">
        <ele>1023.4</ele>
        <time>2022-05-28T13:00:15Z</time>
      </trkpt>
      <trkpt lat="48.02872" lon="6.88295">
        <ele>1023.1</ele>
        <time>2022-05-28T13:00:20Z</time>
      </trkpt>
      <trkpt lat="48.02865" lon="6.88304">
        <ele>1021.7</ele>
        <time>2022-05-28T13:00:31Z</time>
      </trkpt>
      <trkpt lat="48.02861" lon="6.88319">
        <ele>1019.3</ele>
        <time>2022-05-28T13:00:34Z</time>
      </trkpt>
      <trkpt lat="48.02857" lon="6.88335">
        <ele>1016.9</ele>
        <time>2022-05-28T13:00:36Z</time>
      </trkpt>
      <trkpt lat="48.02853" lon="6.88353">
        <ele>1017.6</ele>
        <time>2022-05-28T13:00:38Z</time>
      </trkpt>
      <trkpt lat="48.02851" lon="6.88366">
        <ele>1017.8</ele>
        <time>2022-05-28T13:00:40Z</time>
      </trkpt>
      <trkpt lat="48.02848" lon="6.88381">
        <ele>1013.9</ele>
        <time>2022-05-28T13:00:43Z</time>
      </trkpt>
      <trkpt lat="48.02839" lon="6.88391">
        <ele>1011</ele>
        <time>2022-05-28T13:00:47Z</time>
      </trkpt>
      <trkpt lat="48.02828" lon="6.88395">
        <ele>1008.2</ele>
        <time>2022-05-28T13:00:51Z</time>
      </trkpt>
      <trkpt lat="48.02819" lon="6.88396">
        <ele>1004.7</ele>
        <time>2022-05-28T13:00:54Z</time>
      </trkpt>
      <trkpt lat="48.02808" lon="6.88395">
        <ele>1004.1</ele>
        <time>2022-05-28T13:00:58Z</time>
      </trkpt>
      <trkpt lat="48.02798" lon="6.88388">
        <ele>999.9</ele>
        <time>2022-05-28T13:01:01Z</time>
      </trkpt>
      <trkpt lat="48.02786" lon="6.88387">
        <ele>998.5</ele>
        <time>2022-05-28T13:01:04Z</time>
      </trkpt>
      <trkpt lat="48.02773" lon="6.88384">
        <ele>997</ele>
        <time>2022-05-28T13:01:08Z</time>
      </trkpt>
      <trkpt lat="48.02761" lon="6.88389">
        <ele>993.6</ele>
        <time>2022-05-28T13:01:11Z</time>
      </trkpt>
      <trkpt lat="48.02749" lon="6.88395">
        <ele>992.3</ele>
        <time>2022-05-28T13:01:13Z</time>
      </trkpt>
      <trkpt lat="48.02737" lon="6.88402">
        <ele>989.5</ele>
        <time>2022-05-28T13:01:15Z</time>
      </trkpt>
      <trkpt lat="48.02726" lon="6.8841">
        <ele>989.1</ele>
        <time>2022-05-28T13:01:17Z</time>
      </trkpt>
      <trkpt lat="48.02716" lon="6.88418">
        <ele>985.9</ele>
        <time>2022-05-28T13:01:19Z</time>
      </trkpt>
      <trkpt lat="48.02706" lon="6.88417">
        <ele>984.5</ele>
        <time>2022-05-28T13:01:21Z</time>
      </trkpt>
      <trkpt lat="48.027" lon="6.88402">
        <ele>982.8</ele>
        <time>2022-05-28T13:01:25Z</time>
      </trkpt>
      <trkpt lat="48.02711" lon="6.88397">
        <ele>986</ele>
        <time>2022-05-28T13:01:29Z</time>
      </trkpt>
      <trkpt lat="48.02711" lon="6.88411">
        <ele>986.2</ele>
        <time>2022-05-28T13:01:34Z</time>
      </trkpt>
      <trkpt lat="48.02711" lon="6.88415">
        <ele>986.3</ele>
        <time>2022-05-28T13:01:37Z</time>
      </trkpt>
      <trkpt lat="48.02712" lon="6.88415">
        <ele>985.7</ele>
        <time>2022-05-28T13:02:29Z</time>
      </trkpt>
      <trkpt lat="48.02709" lon="6.88429">
        <ele>985.8</ele>
        <time>2022-05-28T13:02:39Z</time>
      </trkpt>
      <trkpt lat="48.02711" lon="6.88432">
        <ele>984.4</ele>
        <time>2022-05-28T13:02:46Z</time>
      </trkpt>
      <trkpt lat="48.02711" lon="6.88435">
        <ele>984.7</ele>
        <time>2022-05-28T13:02:56Z</time>
      </trkpt>
      <trkpt lat="48.0271" lon="6.88435">
        <ele>984.8</ele>
        <time>2022-05-28T13:02:58Z</time>
      </trkpt>
      <trkpt lat="48.02702" lon="6.8844">
        <ele>983.1</ele>
        <time>2022-05-28T13:03:05Z</time>
      </trkpt>
      <trkpt lat="48.02695" lon="6.88455">
        <ele>983</ele>
        <time>2022-05-28T13:03:09Z</time>
      </trkpt>
      <trkpt lat="48.02687" lon="6.88467">
        <ele>980.5</ele>
        <time>2022-05-28T13:03:12Z</time>
      </trkpt>
      <trkpt lat="48.02678" lon="6.88478">
        <ele>980.3</ele>
        <time>2022-05-28T13:03:15Z</time>
      </trkpt>
      <trkpt lat="48.02669" lon="6.88485">
        <ele>977.6</ele>
        <time>2022-05-28T13:03:20Z</time>
      </trkpt>
      <trkpt lat="48.02663" lon="6.88492">
        <ele>976.1</ele>
        <time>2022-05-28T13:03:27Z</time>
      </trkpt>
      <trkpt lat="48.02662" lon="6.88493">
        <ele>976</ele>
        <time>2022-05-28T13:03:29Z</time>
      </trkpt>
      <trkpt lat="48.0266" lon="6.88501">
        <ele>975.2</ele>
        <time>2022-05-28T13:03:48Z</time>
      </trkpt>
      <trkpt lat="48.02659" lon="6.885">
        <ele>973.4</ele>
        <time>2022-05-28T13:03:53Z</time>
      </trkpt>
      <trkpt lat="48.02658" lon="6.88502">
        <ele>973.8</ele>
        <time>2022-05-28T13:03:56Z</time>
      </trkpt>
      <trkpt lat="48.02653" lon="6.88516">
        <ele>973</ele>
        <time>2022-05-28T13:04:03Z</time>
      </trkpt>
      <trkpt lat="48.02649" lon="6.88531">
        <ele>973</ele>
        <time>2022-05-28T13:04:08Z</time>
      </trkpt>
      <trkpt lat="48.02647" lon="6.88534">
        <ele>972.7</ele>
        <time>2022-05-28T13:04:11Z</time>
      </trkpt>
      <trkpt lat="48.02647" lon="6.88535">
        <ele>972.7</ele>
        <time>2022-05-28T13:04:38Z</time>
      </trkpt>
      <trkpt lat="48.02646" lon="6.88536">
        <ele>972.3</ele>
        <time>2022-05-28T13:05:06Z</time>
      </trkpt>
      <trkpt lat="48.02638" lon="6.88546">
        <ele>971.7</ele>
        <time>2022-05-28T13:05:11Z</time>
      </trkpt>
      <trkpt lat="48.02634" lon="6.8856">
        <ele>971.3</ele>
        <time>2022-05-28T13:05:15Z</time>
      </trkpt>
      <trkpt lat="48.02632" lon="6.88574">
        <ele>971.2</ele>
        <time>2022-05-28T13:05:18Z</time>
      </trkpt>
      <trkpt lat="48.02625" lon="6.88583">
        <ele>970.1</ele>
        <time>2022-05-28T13:05:21Z</time>
      </trkpt>
      <trkpt lat="48.02614" lon="6.88584">
        <ele>969.4</ele>
        <time>2022-05-28T13:05:24Z</time>
      </trkpt>
      <trkpt lat="48.02604" lon="6.88579">
        <ele>969</ele>
        <time>2022-05-28T13:05:27Z</time>
      </trkpt>
      <trkpt lat="48.02595" lon="6.88573">
        <ele>968.2</ele>
        <time>2022-05-28T13:05:30Z</time>
      </trkpt>
      <trkpt lat="48.02584" lon="6.88566">
        <ele>967.1</ele>
        <time>2022-05-28T13:05:33Z</time>
      </trkpt>
      <trkpt lat="48.02573" lon="6.88561">
        <ele>967.3</ele>
        <time>2022-05-28T13:05:36Z</time>
      </trkpt>
      <trkpt lat="48.02563" lon="6.88549">
        <ele>966.4</ele>
        <time>2022-05-28T13:05:39Z</time>
      </trkpt>
      <trkpt lat="48.02559" lon="6.88537">
        <ele>963.9</ele>
        <time>2022-05-28T13:05:41Z</time>
      </trkpt>
      <trkpt lat="48.02556" lon="6.88523">
        <ele>964.2</ele>
        <time>2022-05-28T13:05:43Z</time>
      </trkpt>
      <trkpt lat="48.02553" lon="6.8851">
        <ele>966.7</ele>
        <time>2022-05-28T13:05:45Z</time>
      </trkpt>
      <trkpt lat="48.0255" lon="6.88496">
        <ele>964.2</ele>
        <time>2022-05-28T13:05:47Z</time>
      </trkpt>
      <trkpt lat="48.02544" lon="6.88479">
        <ele>966.9</ele>
        <time>2022-05-28T13:05:50Z</time>
      </trkpt>
      <trkpt lat="48.02538" lon="6.88467">
        <ele>966.8</ele>
        <time>2022-05-28T13:05:53Z</time>
      </trkpt>
      <trkpt lat="48.0253" lon="6.88458">
        <ele>966.9</ele>
        <time>2022-05-28T13:05:56Z</time>
      </trkpt>
      <trkpt lat="48.02522" lon="6.88449">
        <ele>967.7</ele>
        <time>2022-05-28T13:05:59Z</time>
      </trkpt>
      <trkpt lat="48.02513" lon="6.88443">
        <ele>967.9</ele>
        <time>2022-05-28T13:06:02Z</time>
      </trkpt>
      <trkpt lat="48.02503" lon="6.88439">
        <ele>966.5</ele>
        <time>2022-05-28T13:06:05Z</time>
      </trkpt>
      <trkpt lat="48.02492" lon="6.88435">
        <ele>966.7</ele>
        <time>2022-05-28T13:06:08Z</time>
      </trkpt>
      <trkpt lat="48.02481" lon="6.88434">
        <ele>967.5</ele>
        <time>2022-05-28T13:06:11Z</time>
      </trkpt>
      <trkpt lat="48.0247" lon="6.88435">
        <ele>968.3</ele>
        <time>2022-05-28T13:06:14Z</time>
      </trkpt>
      <trkpt lat="48.02461" lon="6.88438">
        <ele>968.3</ele>
        <time>2022-05-28T13:06:17Z</time>
      </trkpt>
      <trkpt lat="48.02452" lon="6.88441">
        <ele>968.5</ele>
        <time>2022-05-28T13:06:20Z</time>
      </trkpt>
      <trkpt lat="48.02442" lon="6.88443">
        <ele>967.5</ele>
        <time>2022-05-28T13:06:23Z</time>
      </trkpt>
      <trkpt lat="48.02432" lon="6.88436">
        <ele>969.6</ele>
        <time>2022-05-28T13:06:26Z</time>
      </trkpt>
      <trkpt lat="48.02425" lon="6.88428">
        <ele>966.4</ele>
        <time>2022-05-28T13:06:29Z</time>
      </trkpt>
      <trkpt lat="48.02422" lon="6.88426">
        <ele>965.3</ele>
        <time>2022-05-28T13:06:35Z</time>
      </trkpt>
      <trkpt lat="48.02414" lon="6.88415">
        <ele>966.3</ele>
        <time>2022-05-28T13:06:40Z</time>
      </trkpt>
      <trkpt lat="48.02405" lon="6.88406">
        <ele>963.1</ele>
        <time>2022-05-28T13:06:42Z</time>
      </trkpt>
      <trkpt lat="48.02396" lon="6.88399">
        <ele>963</ele>
        <time>2022-05-28T13:06:44Z</time>
      </trkpt>
      <trkpt lat="48.02384" lon="6.88395">
        <ele>963.4</ele>
        <time>2022-05-28T13:06:47Z</time>
      </trkpt>
      <trkpt lat="48.02373" lon="6.88393">
        <ele>964.9</ele>
        <time>2022-05-28T13:06:51Z</time>
      </trkpt>
      <trkpt lat="48.02362" lon="6.88391">
        <ele>967.2</ele>
        <time>2022-05-28T13:06:55Z</time>
      </trkpt>
      <trkpt lat="48.02352" lon="6.88389">
        <ele>966.6</ele>
        <time>2022-05-28T13:06:59Z</time>
      </trkpt>
      <trkpt lat="48.02343" lon="6.88392">
        <ele>968.7</ele>
        <time>2022-05-28T13:07:06Z</time>
      </trkpt>
      <trkpt lat="48.0235" lon="6.88381">
        <ele>968.6</ele>
        <time>2022-05-28T13:07:16Z</time>
      </trkpt>
      <trkpt lat="48.02361" lon="6.8838">
        <ele>967.7</ele>
        <time>2022-05-28T13:07:24Z</time>
      </trkpt>
      <trkpt lat="48.0237" lon="6.88375">
        <ele>967.5</ele>
        <time>2022-05-28T13:07:28Z</time>
      </trkpt>
      <trkpt lat="48.0238" lon="6.88368">
        <ele>967.2</ele>
        <time>2022-05-28T13:07:32Z</time>
      </trkpt>
      <trkpt lat="48.02388" lon="6.88359">
        <ele>966.8</ele>
        <time>2022-05-28T13:07:35Z</time>
      </trkpt>
      <trkpt lat="48.02393" lon="6.88342">
        <ele>966.1</ele>
        <time>2022-05-28T13:07:39Z</time>
      </trkpt>
      <trkpt lat="48.02398" lon="6.88331">
        <ele>965.8</ele>
        <time>2022-05-28T13:07:42Z</time>
      </trkpt>
      <trkpt lat="48.02404" lon="6.88318">
        <ele>966.1</ele>
        <time>2022-05-28T13:07:48Z</time>
      </trkpt>
      <trkpt lat="48.02409" lon="6.88305">
        <ele>965.9</ele>
        <time>2022-05-28T13:07:53Z</time>
      </trkpt>
      <trkpt lat="48.02405" lon="6.88293">
        <ele>966.4</ele>
        <time>2022-05-28T13:07:57Z</time>
      </trkpt>
      <trkpt lat="48.02398" lon="6.88278">
        <ele>967.3</ele>
        <time>2022-05-28T13:08:01Z</time>
      </trkpt>
      <trkpt lat="48.02392" lon="6.88267">
        <ele>967.6</ele>
        <time>2022-05-28T13:08:06Z</time>
      </trkpt>
      <trkpt lat="48.02384" lon="6.88259">
        <ele>967.5</ele>
        <time>2022-05-28T13:08:11Z</time>
      </trkpt>
      <trkpt lat="48.02382" lon="6.88257">
        <ele>967.6</ele>
        <time>2022-05-28T13:08:15Z</time>
      </trkpt>
      <trkpt lat="48.02382" lon="6.88256">
        <ele>967</ele>
        <time>2022-05-28T13:08:19Z</time>
      </trkpt>
      <trkpt lat="48.02381" lon="6.88256">
        <ele>967.2</ele>
        <time>2022-05-28T13:08:21Z</time>
      </trkpt>
      <trkpt lat="48.02382" lon="6.88255">
        <ele>967.2</ele>
        <time>2022-05-28T13:08:26Z</time>
      </trkpt>
      <trkpt lat="48.02381" lon="6.88255">
        <ele>967.3</ele>
        <time>2022-05-28T13:08:31Z</time>
      </trkpt>
      <trkpt lat="48.02383" lon="6.88256">
        <ele>967.7</ele>
        <time>2022-05-28T13:08:38Z</time>
      </trkpt>
      <trkpt lat="48.0239" lon="6.88266">
        <ele>968.9</ele>
        <time>2022-05-28T13:08:51Z</time>
      </trkpt>
      <trkpt lat="48.02394" lon="6.88278">
        <ele>968</ele>
        <time>2022-05-28T13:08:59Z</time>
      </trkpt>
      <trkpt lat="48.02399" lon="6.8829">
        <ele>968</ele>
        <time>2022-05-28T13:09:06Z</time>
      </trkpt>
      <trkpt lat="48.02404" lon="6.88303">
        <ele>968.1</ele>
        <time>2022-05-28T13:09:13Z</time>
      </trkpt>
      <trkpt lat="48.02402" lon="6.88308">
        <ele>968.4</ele>
        <time>2022-05-28T13:09:18Z</time>
      </trkpt>
      <trkpt lat="48.02403" lon="6.88308">
        <ele>968.6</ele>
        <time>2022-05-28T13:09:20Z</time>
      </trkpt>
      <trkpt lat="48.02402" lon="6.88309">
        <ele>968.5</ele>
        <time>2022-05-28T13:09:24Z</time>
      </trkpt>
      <trkpt lat="48.02398" lon="6.88321">
        <ele>968.6</ele>
        <time>2022-05-28T13:09:31Z</time>
      </trkpt>
      <trkpt lat="48.02394" lon="6.88337">
        <ele>968.4</ele>
        <time>2022-05-28T13:09:37Z</time>
      </trkpt>
      <trkpt lat="48.02391" lon="6.88352">
        <ele>968.6</ele>
        <time>2022-05-28T13:09:41Z</time>
      </trkpt>
      <trkpt lat="48.02385" lon="6.88366">
        <ele>968.6</ele>
        <time>2022-05-28T13:09:45Z</time>
      </trkpt>
      <trkpt lat="48.02374" lon="6.88374">
        <ele>968.9</ele>
        <time>2022-05-28T13:09:49Z</time>
      </trkpt>
      <trkpt lat="48.02365" lon="6.88376">
        <ele>969.4</ele>
        <time>2022-05-28T13:09:53Z</time>
      </trkpt>
      <trkpt lat="48.02355" lon="6.88375">
        <ele>969.8</ele>
        <time>2022-05-28T13:10:00Z</time>
      </trkpt>
      <trkpt lat="48.02346" lon="6.88369">
        <ele>972.9</ele>
        <time>2022-05-28T13:10:07Z</time>
      </trkpt>
      <trkpt lat="48.02335" lon="6.8837">
        <ele>974.1</ele>
        <time>2022-05-28T13:10:15Z</time>
      </trkpt>
      <trkpt lat="48.02326" lon="6.8837">
        <ele>975</ele>
        <time>2022-05-28T13:10:23Z</time>
      </trkpt>
      <trkpt lat="48.02316" lon="6.88368">
        <ele>977.1</ele>
        <time>2022-05-28T13:10:30Z</time>
      </trkpt>
      <trkpt lat="48.02307" lon="6.88371">
        <ele>979.4</ele>
        <time>2022-05-28T13:10:37Z</time>
      </trkpt>
      <trkpt lat="48.02299" lon="6.88362">
        <ele>980.3</ele>
        <time>2022-05-28T13:10:47Z</time>
      </trkpt>
      <trkpt lat="48.02293" lon="6.88351">
        <ele>981.7</ele>
        <time>2022-05-28T13:10:57Z</time>
      </trkpt>
      <trkpt lat="48.02284" lon="6.88347">
        <ele>981.5</ele>
        <time>2022-05-28T13:11:04Z</time>
      </trkpt>
      <trkpt lat="48.02291" lon="6.88351">
        <ele>981.3</ele>
        <time>2022-05-28T13:11:17Z</time>
      </trkpt>
      <trkpt lat="48.02291" lon="6.88352">
        <ele>981.2</ele>
        <time>2022-05-28T13:13:23Z</time>
      </trkpt>
      <trkpt lat="48.02291" lon="6.88352">
        <ele>981.7</ele>
        <time>2022-05-28T13:14:44Z</time>
      </trkpt>
      <trkpt lat="48.023" lon="6.88361">
        <ele>980.7</ele>
        <time>2022-05-28T13:14:51Z</time>
      </trkpt>
      <trkpt lat="48.02308" lon="6.88373">
        <ele>979.2</ele>
        <time>2022-05-28T13:14:55Z</time>
      </trkpt>
      <trkpt lat="48.02311" lon="6.88374">
        <ele>979.9</ele>
        <time>2022-05-28T13:15:00Z</time>
      </trkpt>
      <trkpt lat="48.02311" lon="6.88373">
        <ele>979.1</ele>
        <time>2022-05-28T13:15:08Z</time>
      </trkpt>
      <trkpt lat="48.0231" lon="6.88373">
        <ele>979.7</ele>
        <time>2022-05-28T13:15:24Z</time>
      </trkpt>
      <trkpt lat="48.0231" lon="6.88373">
        <ele>979.9</ele>
        <time>2022-05-28T13:15:39Z</time>
      </trkpt>
      <trkpt lat="48.0231" lon="6.88372">
        <ele>979.6</ele>
        <time>2022-05-28T13:16:33Z</time>
      </trkpt>
      <trkpt lat="48.02311" lon="6.8837">
        <ele>979.1</ele>
        <time>2022-05-28T13:16:37Z</time>
      </trkpt>
      <trkpt lat="48.02322" lon="6.88371">
        <ele>976.2</ele>
        <time>2022-05-28T13:16:54Z</time>
      </trkpt>
      <trkpt lat="48.02333" lon="6.88376">
        <ele>972.8</ele>
        <time>2022-05-28T13:16:57Z</time>
      </trkpt>
      <trkpt lat="48.02342" lon="6.88374">
        <ele>972.6</ele>
        <time>2022-05-28T13:17:00Z</time>
      </trkpt>
      <trkpt lat="48.02353" lon="6.88379">
        <ele>971.7</ele>
        <time>2022-05-28T13:17:05Z</time>
      </trkpt>
      <trkpt lat="48.02362" lon="6.88384">
        <ele>970.9</ele>
        <time>2022-05-28T13:17:08Z</time>
      </trkpt>
      <trkpt lat="48.02374" lon="6.88382">
        <ele>968.9</ele>
        <time>2022-05-28T13:17:11Z</time>
      </trkpt>
      <trkpt lat="48.02383" lon="6.88378">
        <ele>969.7</ele>
        <time>2022-05-28T13:17:14Z</time>
      </trkpt>
      <trkpt lat="48.02393" lon="6.88371">
        <ele>969.3</ele>
        <time>2022-05-28T13:17:18Z</time>
      </trkpt>
      <trkpt lat="48.02394" lon="6.88358">
        <ele>968.8</ele>
        <time>2022-05-28T13:17:23Z</time>
      </trkpt>
      <trkpt lat="48.02397" lon="6.88343">
        <ele>968.8</ele>
        <time>2022-05-28T13:17:27Z</time>
      </trkpt>
      <trkpt lat="48.02401" lon="6.88331">
        <ele>969.4</ele>
        <time>2022-05-28T13:17:31Z</time>
      </trkpt>
      <trkpt lat="48.02403" lon="6.88329">
        <ele>969.5</ele>
        <time>2022-05-28T13:17:34Z</time>
      </trkpt>
      <trkpt lat="48.02403" lon="6.88328">
        <ele>969.4</ele>
        <time>2022-05-28T13:17:37Z</time>
      </trkpt>
      <trkpt lat="48.02406" lon="6.88314">
        <ele>969.4</ele>
        <time>2022-05-28T13:17:45Z</time>
      </trkpt>
      <trkpt lat="48.0241" lon="6.88301">
        <ele>969.7</ele>
        <time>2022-05-28T13:17:52Z</time>
      </trkpt>
      <trkpt lat="48.02417" lon="6.88301">
        <ele>969.7</ele>
        <time>2022-05-28T13:18:06Z</time>
      </trkpt>
      <trkpt lat="48.02417" lon="6.883">
        <ele>969.7</ele>
        <time>2022-05-28T13:18:07Z</time>
      </trkpt>
      <trkpt lat="48.02418" lon="6.88297">
        <ele>968.3</ele>
        <time>2022-05-28T13:18:13Z</time>
      </trkpt>
      <trkpt lat="48.02424" lon="6.88291">
        <ele>965.5</ele>
        <time>2022-05-28T13:18:25Z</time>
      </trkpt>
      <trkpt lat="48.02424" lon="6.8829">
        <ele>965.2</ele>
        <time>2022-05-28T13:18:28Z</time>
      </trkpt>
      <trkpt lat="48.02432" lon="6.88282">
        <ele>962.3</ele>
        <time>2022-05-28T13:18:41Z</time>
      </trkpt>
      <trkpt lat="48.02433" lon="6.88281">
        <ele>962</ele>
        <time>2022-05-28T13:18:43Z</time>
      </trkpt>
      <trkpt lat="48.02436" lon="6.88276">
        <ele>959.1</ele>
        <time>2022-05-28T13:18:57Z</time>
      </trkpt>
      <trkpt lat="48.02436" lon="6.88274">
        <ele>957.6</ele>
        <time>2022-05-28T13:19:10Z</time>
      </trkpt>
      <trkpt lat="48.02436" lon="6.88275">
        <ele>957.5</ele>
        <time>2022-05-28T13:19:12Z</time>
      </trkpt>
      <trkpt lat="48.02437" lon="6.88273">
        <ele>956.6</ele>
        <time>2022-05-28T13:19:16Z</time>
      </trkpt>
      <trkpt lat="48.02442" lon="6.88266">
        <ele>954.3</ele>
        <time>2022-05-28T13:19:45Z</time>
      </trkpt>
      <trkpt lat="48.02442" lon="6.88265">
        <ele>954.1</ele>
        <time>2022-05-28T13:19:46Z</time>
      </trkpt>
      <trkpt lat="48.02441" lon="6.88262">
        <ele>951.5</ele>
        <time>2022-05-28T13:20:07Z</time>
      </trkpt>
      <trkpt lat="48.02442" lon="6.88262">
        <ele>951.4</ele>
        <time>2022-05-28T13:20:09Z</time>
      </trkpt>
      <trkpt lat="48.02443" lon="6.88263">
        <ele>950.5</ele>
        <time>2022-05-28T13:20:15Z</time>
      </trkpt>
      <trkpt lat="48.02445" lon="6.88265">
        <ele>950.8</ele>
        <time>2022-05-28T13:20:21Z</time>
      </trkpt>
      <trkpt lat="48.02446" lon="6.88265">
        <ele>949.9</ele>
        <time>2022-05-28T13:20:25Z</time>
      </trkpt>
      <trkpt lat="48.02446" lon="6.88265">
        <ele>949.8</ele>
        <time>2022-05-28T13:20:50Z</time>
      </trkpt>
      <trkpt lat="48.0245" lon="6.8826">
        <ele>946.7</ele>
        <time>2022-05-28T13:21:08Z</time>
      </trkpt>
      <trkpt lat="48.02451" lon="6.8826">
        <ele>946.5</ele>
        <time>2022-05-28T13:21:09Z</time>
      </trkpt>
      <trkpt lat="48.02453" lon="6.88257">
        <ele>945</ele>
        <time>2022-05-28T13:21:17Z</time>
      </trkpt>
      <trkpt lat="48.02454" lon="6.88257">
        <ele>944.9</ele>
        <time>2022-05-28T13:21:20Z</time>
      </trkpt>
      <trkpt lat="48.02455" lon="6.88258">
        <ele>944.3</ele>
        <time>2022-05-28T13:21:28Z</time>
      </trkpt>
      <trkpt lat="48.02456" lon="6.88258">
        <ele>944.3</ele>
        <time>2022-05-28T13:21:29Z</time>
      </trkpt>
      <trkpt lat="48.02457" lon="6.88245">
        <ele>941.3</ele>
        <time>2022-05-28T13:21:58Z</time>
      </trkpt>
      <trkpt lat="48.0245" lon="6.88234">
        <ele>939.7</ele>
        <time>2022-05-28T13:22:11Z</time>
      </trkpt>
      <trkpt lat="48.0245" lon="6.8822">
        <ele>939</ele>
        <time>2022-05-28T13:22:22Z</time>
      </trkpt>
      <trkpt lat="48.02453" lon="6.88206">
        <ele>936.8</ele>
        <time>2022-05-28T13:22:41Z</time>
      </trkpt>
      <trkpt lat="48.0245" lon="6.88196">
        <ele>936.1</ele>
        <time>2022-05-28T13:22:58Z</time>
      </trkpt>
      <trkpt lat="48.0245" lon="6.88196">
        <ele>935.6</ele>
        <time>2022-05-28T13:23:56Z</time>
      </trkpt>
      <trkpt lat="48.02448" lon="6.88195">
        <ele>935.7</ele>
        <time>2022-05-28T13:24:55Z</time>
      </trkpt>
      <trkpt lat="48.02449" lon="6.88195">
        <ele>936.1</ele>
        <time>2022-05-28T13:25:02Z</time>
      </trkpt>
      <trkpt lat="48.0245" lon="6.88182">
        <ele>935.3</ele>
        <time>2022-05-28T13:25:17Z</time>
      </trkpt>
      <trkpt lat="48.02454" lon="6.8817">
        <ele>932.8</ele>
        <time>2022-05-28T13:25:32Z</time>
      </trkpt>
      <trkpt lat="48.02458" lon="6.88169">
        <ele>932.6</ele>
        <time>2022-05-28T13:25:38Z</time>
      </trkpt>
      <trkpt lat="48.02458" lon="6.88167">
        <ele>931.6</ele>
        <time>2022-05-28T13:25:53Z</time>
      </trkpt>
      <trkpt lat="48.02459" lon="6.88166">
        <ele>931.7</ele>
        <time>2022-05-28T13:25:54Z</time>
      </trkpt>
      <trkpt lat="48.02458" lon="6.88166">
        <ele>931.5</ele>
        <time>2022-05-28T13:26:07Z</time>
      </trkpt>
      <trkpt lat="48.02466" lon="6.88176">
        <ele>930.9</ele>
        <time>2022-05-28T13:26:16Z</time>
      </trkpt>
      <trkpt lat="48.02473" lon="6.88185">
        <ele>930.4</ele>
        <time>2022-05-28T13:26:24Z</time>
      </trkpt>
      <trkpt lat="48.02481" lon="6.88192">
        <ele>929</ele>
        <time>2022-05-28T13:26:34Z</time>
      </trkpt>
      <trkpt lat="48.02484" lon="6.88195">
        <ele>928.8</ele>
        <time>2022-05-28T13:26:39Z</time>
      </trkpt>
      <trkpt lat="48.02475" lon="6.88188">
        <ele>928.6</ele>
        <time>2022-05-28T13:26:49Z</time>
      </trkpt>
      <trkpt lat="48.02466" lon="6.88182">
        <ele>929.9</ele>
        <time>2022-05-28T13:26:56Z</time>
      </trkpt>
      <trkpt lat="48.02461" lon="6.8817">
        <ele>930.4</ele>
        <time>2022-05-28T13:27:04Z</time>
      </trkpt>
      <trkpt lat="48.02459" lon="6.88167">
        <ele>930.7</ele>
        <time>2022-05-28T13:27:09Z</time>
      </trkpt>
      <trkpt lat="48.0246" lon="6.88167">
        <ele>930.9</ele>
        <time>2022-05-28T13:27:23Z</time>
      </trkpt>
      <trkpt lat="48.0246" lon="6.88168">
        <ele>930.6</ele>
        <time>2022-05-28T13:27:37Z</time>
      </trkpt>
      <trkpt lat="48.02454" lon="6.88156">
        <ele>931.2</ele>
        <time>2022-05-28T13:27:47Z</time>
      </trkpt>
      <trkpt lat="48.02451" lon="6.88142">
        <ele>931.4</ele>
        <time>2022-05-28T13:27:54Z</time>
      </trkpt>
      <trkpt lat="48.02444" lon="6.88129">
        <ele>932.5</ele>
        <time>2022-05-28T13:28:00Z</time>
      </trkpt>
      <trkpt lat="48.02437" lon="6.88117">
        <ele>931.8</ele>
        <time>2022-05-28T13:28:04Z</time>
      </trkpt>
      <trkpt lat="48.0243" lon="6.88104">
        <ele>932.5</ele>
        <time>2022-05-28T13:28:09Z</time>
      </trkpt>
      <trkpt lat="48.02424" lon="6.88091">
        <ele>933.7</ele>
        <time>2022-05-28T13:28:13Z</time>
      </trkpt>
      <trkpt lat="48.02419" lon="6.88078">
        <ele>933.2</ele>
        <time>2022-05-28T13:28:17Z</time>
      </trkpt>
      <trkpt lat="48.02416" lon="6.88065">
        <ele>934.5</ele>
        <time>2022-05-28T13:28:21Z</time>
      </trkpt>
      <trkpt lat="48.02412" lon="6.88052">
        <ele>935.5</ele>
        <time>2022-05-28T13:28:25Z</time>
      </trkpt>
      <trkpt lat="48.0241" lon="6.88038">
        <ele>934.8</ele>
        <time>2022-05-28T13:28:29Z</time>
      </trkpt>
      <trkpt lat="48.02409" lon="6.88023">
        <ele>936.9</ele>
        <time>2022-05-28T13:28:34Z</time>
      </trkpt>
      <trkpt lat="48.02408" lon="6.88009">
        <ele>937.5</ele>
        <time>2022-05-28T13:28:39Z</time>
      </trkpt>
      <trkpt lat="48.02406" lon="6.87994">
        <ele>938.4</ele>
        <time>2022-05-28T13:28:44Z</time>
      </trkpt>
      <trkpt lat="48.02408" lon="6.87981">
        <ele>939.5</ele>
        <time>2022-05-28T13:28:49Z</time>
      </trkpt>
      <trkpt lat="48.02414" lon="6.87971">
        <ele>939.6</ele>
        <time>2022-05-28T13:28:53Z</time>
      </trkpt>
      <trkpt lat="48.02421" lon="6.87961">
        <ele>940.6</ele>
        <time>2022-05-28T13:28:58Z</time>
      </trkpt>
      <trkpt lat="48.02427" lon="6.87951">
        <ele>941</ele>
        <time>2022-05-28T13:29:02Z</time>
      </trkpt>
      <trkpt lat="48.02434" lon="6.8794">
        <ele>941.1</ele>
        <time>2022-05-28T13:29:07Z</time>
      </trkpt>
      <trkpt lat="48.02439" lon="6.87926">
        <ele>942.9</ele>
        <time>2022-05-28T13:29:12Z</time>
      </trkpt>
      <trkpt lat="48.02442" lon="6.87912">
        <ele>943.3</ele>
        <time>2022-05-28T13:29:16Z</time>
      </trkpt>
      <trkpt lat="48.02447" lon="6.87899">
        <ele>943.9</ele>
        <time>2022-05-28T13:29:20Z</time>
      </trkpt>
      <trkpt lat="48.02447" lon="6.87883">
        <ele>944.7</ele>
        <time>2022-05-28T13:29:24Z</time>
      </trkpt>
      <trkpt lat="48.0245" lon="6.87869">
        <ele>946.1</ele>
        <time>2022-05-28T13:29:28Z</time>
      </trkpt>
      <trkpt lat="48.02454" lon="6.87854">
        <ele>945.2</ele>
        <time>2022-05-28T13:29:32Z</time>
      </trkpt>
      <trkpt lat="48.02456" lon="6.87841">
        <ele>946</ele>
        <time>2022-05-28T13:29:36Z</time>
      </trkpt>
      <trkpt lat="48.02457" lon="6.87826">
        <ele>946.1</ele>
        <time>2022-05-28T13:29:40Z</time>
      </trkpt>
      <trkpt lat="48.02457" lon="6.87811">
        <ele>946.6</ele>
        <time>2022-05-28T13:29:44Z</time>
      </trkpt>
      <trkpt lat="48.02459" lon="6.87795">
        <ele>947.2</ele>
        <time>2022-05-28T13:29:49Z</time>
      </trkpt>
      <trkpt lat="48.02461" lon="6.8778">
        <ele>948.2</ele>
        <time>2022-05-28T13:29:54Z</time>
      </trkpt>
      <trkpt lat="48.02464" lon="6.87765">
        <ele>946.9</ele>
        <time>2022-05-28T13:29:58Z</time>
      </trkpt>
      <trkpt lat="48.02467" lon="6.87751">
        <ele>949.2</ele>
        <time>2022-05-28T13:30:02Z</time>
      </trkpt>
      <trkpt lat="48.02472" lon="6.87738">
        <ele>949.5</ele>
        <time>2022-05-28T13:30:06Z</time>
      </trkpt>
      <trkpt lat="48.02475" lon="6.87724">
        <ele>949.4</ele>
        <time>2022-05-28T13:30:10Z</time>
      </trkpt>
      <trkpt lat="48.02479" lon="6.8771">
        <ele>949.2</ele>
        <time>2022-05-28T13:30:14Z</time>
      </trkpt>
      <trkpt lat="48.02483" lon="6.87694">
        <ele>950</ele>
        <time>2022-05-28T13:30:18Z</time>
      </trkpt>
      <trkpt lat="48.02487" lon="6.87679">
        <ele>950.5</ele>
        <time>2022-05-28T13:30:22Z</time>
      </trkpt>
      <trkpt lat="48.02491" lon="6.87665">
        <ele>950.5</ele>
        <time>2022-05-28T13:30:26Z</time>
      </trkpt>
      <trkpt lat="48.02496" lon="6.87652">
        <ele>950.3</ele>
        <time>2022-05-28T13:30:30Z</time>
      </trkpt>
      <trkpt lat="48.02498" lon="6.87637">
        <ele>950.4</ele>
        <time>2022-05-28T13:30:35Z</time>
      </trkpt>
      <trkpt lat="48.02498" lon="6.87623">
        <ele>951.4</ele>
        <time>2022-05-28T13:30:43Z</time>
      </trkpt>
      <trkpt lat="48.02501" lon="6.87609">
        <ele>953.8</ele>
        <time>2022-05-28T13:30:54Z</time>
      </trkpt>
      <trkpt lat="48.02501" lon="6.87606">
        <ele>954.8</ele>
        <time>2022-05-28T13:31:00Z</time>
      </trkpt>
      <trkpt lat="48.02504" lon="6.87593">
        <ele>957.2</ele>
        <time>2022-05-28T13:31:19Z</time>
      </trkpt>
      <trkpt lat="48.02504" lon="6.87578">
        <ele>959.4</ele>
        <time>2022-05-28T13:31:33Z</time>
      </trkpt>
      <trkpt lat="48.02502" lon="6.87565">
        <ele>960.2</ele>
        <time>2022-05-28T13:31:42Z</time>
      </trkpt>
      <trkpt lat="48.02497" lon="6.87552">
        <ele>961.1</ele>
        <time>2022-05-28T13:31:51Z</time>
      </trkpt>
      <trkpt lat="48.02499" lon="6.87538">
        <ele>962.1</ele>
        <time>2022-05-28T13:32:02Z</time>
      </trkpt>
      <trkpt lat="48.025" lon="6.87524">
        <ele>963.6</ele>
        <time>2022-05-28T13:32:12Z</time>
      </trkpt>
      <trkpt lat="48.02499" lon="6.87509">
        <ele>965.8</ele>
        <time>2022-05-28T13:32:22Z</time>
      </trkpt>
      <trkpt lat="48.02501" lon="6.87495">
        <ele>968.3</ele>
        <time>2022-05-28T13:32:34Z</time>
      </trkpt>
      <trkpt lat="48.025" lon="6.87481">
        <ele>970.9</ele>
        <time>2022-05-28T13:32:47Z</time>
      </trkpt>
      <trkpt lat="48.02498" lon="6.87468">
        <ele>973.3</ele>
        <time>2022-05-28T13:32:58Z</time>
      </trkpt>
      <trkpt lat="48.02498" lon="6.87455">
        <ele>975.2</ele>
        <time>2022-05-28T13:33:12Z</time>
      </trkpt>
      <trkpt lat="48.02497" lon="6.87441">
        <ele>977.6</ele>
        <time>2022-05-28T13:33:24Z</time>
      </trkpt>
      <trkpt lat="48.02498" lon="6.87426">
        <ele>979.1</ele>
        <time>2022-05-28T13:33:37Z</time>
      </trkpt>
      <trkpt lat="48.025" lon="6.87412">
        <ele>981.4</ele>
        <time>2022-05-28T13:33:49Z</time>
      </trkpt>
      <trkpt lat="48.025" lon="6.87398">
        <ele>984</ele>
        <time>2022-05-28T13:34:01Z</time>
      </trkpt>
      <trkpt lat="48.02499" lon="6.87384">
        <ele>985.1</ele>
        <time>2022-05-28T13:34:12Z</time>
      </trkpt>
      <trkpt lat="48.02497" lon="6.8737">
        <ele>987.2</ele>
        <time>2022-05-28T13:34:26Z</time>
      </trkpt>
      <trkpt lat="48.02496" lon="6.87356">
        <ele>989.5</ele>
        <time>2022-05-28T13:34:39Z</time>
      </trkpt>
      <trkpt lat="48.02495" lon="6.87343">
        <ele>991.3</ele>
        <time>2022-05-28T13:34:50Z</time>
      </trkpt>
      <trkpt lat="48.02495" lon="6.87337">
        <ele>991.4</ele>
        <time>2022-05-28T13:34:56Z</time>
      </trkpt>
      <trkpt lat="48.02495" lon="6.87336">
        <ele>991</ele>
        <time>2022-05-28T13:35:00Z</time>
      </trkpt>
      <trkpt lat="48.02495" lon="6.87321">
        <ele>993.2</ele>
        <time>2022-05-28T13:35:08Z</time>
      </trkpt>
      <trkpt lat="48.02493" lon="6.87307">
        <ele>995</ele>
        <time>2022-05-28T13:35:15Z</time>
      </trkpt>
      <trkpt lat="48.02491" lon="6.87293">
        <ele>997.6</ele>
        <time>2022-05-28T13:35:23Z</time>
      </trkpt>
      <trkpt lat="48.02494" lon="6.87279">
        <ele>998.9</ele>
        <time>2022-05-28T13:35:32Z</time>
      </trkpt>
      <trkpt lat="48.02499" lon="6.87267">
        <ele>999.4</ele>
        <time>2022-05-28T13:35:39Z</time>
      </trkpt>
      <trkpt lat="48.02504" lon="6.87254">
        <ele>999.6</ele>
        <time>2022-05-28T13:35:48Z</time>
      </trkpt>
      <trkpt lat="48.02507" lon="6.8724">
        <ele>999.7</ele>
        <time>2022-05-28T13:35:55Z</time>
      </trkpt>
      <trkpt lat="48.02509" lon="6.87238">
        <ele>999.6</ele>
        <time>2022-05-28T13:36:00Z</time>
      </trkpt>
      <trkpt lat="48.02509" lon="6.87238">
        <ele>999.3</ele>
        <time>2022-05-28T13:38:03Z</time>
      </trkpt>
      <trkpt lat="48.0251" lon="6.87237">
        <ele>999.2</ele>
        <time>2022-05-28T13:38:06Z</time>
      </trkpt>
      <trkpt lat="48.02516" lon="6.87224">
        <ele>999.1</ele>
        <time>2022-05-28T13:38:13Z</time>
      </trkpt>
      <trkpt lat="48.02522" lon="6.87211">
        <ele>998.7</ele>
        <time>2022-05-28T13:38:17Z</time>
      </trkpt>
      <trkpt lat="48.02528" lon="6.87197">
        <ele>996.4</ele>
        <time>2022-05-28T13:38:21Z</time>
      </trkpt>
      <trkpt lat="48.02528" lon="6.87183">
        <ele>994.7</ele>
        <time>2022-05-28T13:38:26Z</time>
      </trkpt>
      <trkpt lat="48.02527" lon="6.87167">
        <ele>993.7</ele>
        <time>2022-05-28T13:38:33Z</time>
      </trkpt>
      <trkpt lat="48.02525" lon="6.87153">
        <ele>992.7</ele>
        <time>2022-05-28T13:38:37Z</time>
      </trkpt>
      <trkpt lat="48.02524" lon="6.87136">
        <ele>994</ele>
        <time>2022-05-28T13:38:41Z</time>
      </trkpt>
      <trkpt lat="48.02526" lon="6.87121">
        <ele>992.8</ele>
        <time>2022-05-28T13:38:45Z</time>
      </trkpt>
      <trkpt lat="48.0253" lon="6.87106">
        <ele>993.7</ele>
        <time>2022-05-28T13:38:49Z</time>
      </trkpt>
      <trkpt lat="48.02532" lon="6.8709">
        <ele>993.9</ele>
        <time>2022-05-28T13:38:53Z</time>
      </trkpt>
      <trkpt lat="48.02534" lon="6.87074">
        <ele>992.7</ele>
        <time>2022-05-28T13:38:57Z</time>
      </trkpt>
      <trkpt lat="48.02537" lon="6.8706">
        <ele>993.2</ele>
        <time>2022-05-28T13:39:00Z</time>
      </trkpt>
      <trkpt lat="48.02539" lon="6.87045">
        <ele>991</ele>
        <time>2022-05-28T13:39:04Z</time>
      </trkpt>
      <trkpt lat="48.02544" lon="6.87034">
        <ele>987.6</ele>
        <time>2022-05-28T13:39:07Z</time>
      </trkpt>
      <trkpt lat="48.0255" lon="6.8702">
        <ele>989.1</ele>
        <time>2022-05-28T13:39:10Z</time>
      </trkpt>
      <trkpt lat="48.02554" lon="6.87007">
        <ele>986.3</ele>
        <time>2022-05-28T13:39:13Z</time>
      </trkpt>
      <trkpt lat="48.02557" lon="6.8699">
        <ele>984.9</ele>
        <time>2022-05-28T13:39:17Z</time>
      </trkpt>
      <trkpt lat="48.02559" lon="6.86975">
        <ele>980.5</ele>
        <time>2022-05-28T13:39:19Z</time>
      </trkpt>
      <trkpt lat="48.02559" lon="6.86958">
        <ele>978.6</ele>
        <time>2022-05-28T13:39:21Z</time>
      </trkpt>
      <trkpt lat="48.02557" lon="6.86943">
        <ele>981.8</ele>
        <time>2022-05-28T13:39:23Z</time>
      </trkpt>
      <trkpt lat="48.02554" lon="6.86928">
        <ele>981.9</ele>
        <time>2022-05-28T13:39:26Z</time>
      </trkpt>
      <trkpt lat="48.0255" lon="6.86915">
        <ele>982.6</ele>
        <time>2022-05-28T13:39:32Z</time>
      </trkpt>
      <trkpt lat="48.02549" lon="6.86912">
        <ele>982.2</ele>
        <time>2022-05-28T13:39:36Z</time>
      </trkpt>
      <trkpt lat="48.02548" lon="6.86912">
        <ele>982.8</ele>
        <time>2022-05-28T13:39:49Z</time>
      </trkpt>
      <trkpt lat="48.02548" lon="6.86911">
        <ele>982.9</ele>
        <time>2022-05-28T13:39:53Z</time>
      </trkpt>
      <trkpt lat="48.02548" lon="6.8691">
        <ele>982.6</ele>
        <time>2022-05-28T13:40:02Z</time>
      </trkpt>
      <trkpt lat="48.02548" lon="6.86904">
        <ele>982.2</ele>
        <time>2022-05-28T13:40:11Z</time>
      </trkpt>
      <trkpt lat="48.02548" lon="6.86903">
        <ele>982.2</ele>
        <time>2022-05-28T13:40:16Z</time>
      </trkpt>
      <trkpt lat="48.02548" lon="6.86902">
        <ele>982</ele>
        <time>2022-05-28T13:40:19Z</time>
      </trkpt>
      <trkpt lat="48.02548" lon="6.86901">
        <ele>981.7</ele>
        <time>2022-05-28T13:40:26Z</time>
      </trkpt>
      <trkpt lat="48.02548" lon="6.869">
        <ele>982</ele>
        <time>2022-05-28T13:40:33Z</time>
      </trkpt>
      <trkpt lat="48.02548" lon="6.86899">
        <ele>981.8</ele>
        <time>2022-05-28T13:40:39Z</time>
      </trkpt>
      <trkpt lat="48.02547" lon="6.86897">
        <ele>981.3</ele>
        <time>2022-05-28T13:40:44Z</time>
      </trkpt>
      <trkpt lat="48.02547" lon="6.86896">
        <ele>981.7</ele>
        <time>2022-05-28T13:40:45Z</time>
      </trkpt>
      <trkpt lat="48.02547" lon="6.8688">
        <ele>978.2</ele>
        <time>2022-05-28T13:40:49Z</time>
      </trkpt>
      <trkpt lat="48.02548" lon="6.86864">
        <ele>976.4</ele>
        <time>2022-05-28T13:40:52Z</time>
      </trkpt>
      <trkpt lat="48.0255" lon="6.86845">
        <ele>973.8</ele>
        <time>2022-05-28T13:40:55Z</time>
      </trkpt>
      <trkpt lat="48.02549" lon="6.8683">
        <ele>972.2</ele>
        <time>2022-05-28T13:40:57Z</time>
      </trkpt>
      <trkpt lat="48.02545" lon="6.86815">
        <ele>974.5</ele>
        <time>2022-05-28T13:41:00Z</time>
      </trkpt>
      <trkpt lat="48.02545" lon="6.86816">
        <ele>974.5</ele>
        <time>2022-05-28T13:41:02Z</time>
      </trkpt>
      <trkpt lat="48.02545" lon="6.86815">
        <ele>974.3</ele>
        <time>2022-05-28T13:41:04Z</time>
      </trkpt>
      <trkpt lat="48.02544" lon="6.86814">
        <ele>974.7</ele>
        <time>2022-05-28T13:41:13Z</time>
      </trkpt>
      <trkpt lat="48.02539" lon="6.86799">
        <ele>973.9</ele>
        <time>2022-05-28T13:41:32Z</time>
      </trkpt>
      <trkpt lat="48.02534" lon="6.86784">
        <ele>975</ele>
        <time>2022-05-28T13:41:37Z</time>
      </trkpt>
      <trkpt lat="48.02529" lon="6.86769">
        <ele>975.3</ele>
        <time>2022-05-28T13:41:42Z</time>
      </trkpt>
      <trkpt lat="48.02527" lon="6.86754">
        <ele>974.4</ele>
        <time>2022-05-28T13:41:47Z</time>
      </trkpt>
      <trkpt lat="48.02531" lon="6.86739">
        <ele>971.4</ele>
        <time>2022-05-28T13:41:51Z</time>
      </trkpt>
      <trkpt lat="48.02532" lon="6.86723">
        <ele>968.6</ele>
        <time>2022-05-28T13:41:56Z</time>
      </trkpt>
      <trkpt lat="48.02532" lon="6.86708">
        <ele>966.1</ele>
        <time>2022-05-28T13:42:01Z</time>
      </trkpt>
      <trkpt lat="48.02537" lon="6.86696">
        <ele>961.9</ele>
        <time>2022-05-28T13:42:05Z</time>
      </trkpt>
      <trkpt lat="48.02546" lon="6.86683">
        <ele>959.2</ele>
        <time>2022-05-28T13:42:09Z</time>
      </trkpt>
      <trkpt lat="48.02552" lon="6.86672">
        <ele>956.2</ele>
        <time>2022-05-28T13:42:13Z</time>
      </trkpt>
      <trkpt lat="48.02562" lon="6.86675">
        <ele>954</ele>
        <time>2022-05-28T13:42:18Z</time>
      </trkpt>
      <trkpt lat="48.02571" lon="6.86684">
        <ele>951</ele>
        <time>2022-05-28T13:42:25Z</time>
      </trkpt>
      <trkpt lat="48.02579" lon="6.86693">
        <ele>949.5</ele>
        <time>2022-05-28T13:42:30Z</time>
      </trkpt>
      <trkpt lat="48.02588" lon="6.86701">
        <ele>945.9</ele>
        <time>2022-05-28T13:42:35Z</time>
      </trkpt>
      <trkpt lat="48.02594" lon="6.86711">
        <ele>943.3</ele>
        <time>2022-05-28T13:42:40Z</time>
      </trkpt>
      <trkpt lat="48.02598" lon="6.86723">
        <ele>940.6</ele>
        <time>2022-05-28T13:42:45Z</time>
      </trkpt>
      <trkpt lat="48.02605" lon="6.86732">
        <ele>938</ele>
        <time>2022-05-28T13:42:49Z</time>
      </trkpt>
      <trkpt lat="48.02613" lon="6.86742">
        <ele>934.7</ele>
        <time>2022-05-28T13:42:52Z</time>
      </trkpt>
      <trkpt lat="48.0262" lon="6.86753">
        <ele>931.7</ele>
        <time>2022-05-28T13:42:55Z</time>
      </trkpt>
      <trkpt lat="48.02629" lon="6.86762">
        <ele>930.5</ele>
        <time>2022-05-28T13:42:59Z</time>
      </trkpt>
      <trkpt lat="48.02637" lon="6.86772">
        <ele>927.4</ele>
        <time>2022-05-28T13:43:04Z</time>
      </trkpt>
      <trkpt lat="48.02644" lon="6.86782">
        <ele>924.6</ele>
        <time>2022-05-28T13:43:16Z</time>
      </trkpt>
      <trkpt lat="48.02643" lon="6.86782">
        <ele>923.9</ele>
        <time>2022-05-28T13:43:20Z</time>
      </trkpt>
      <trkpt lat="48.02643" lon="6.86783">
        <ele>923.8</ele>
        <time>2022-05-28T13:43:21Z</time>
      </trkpt>
      <trkpt lat="48.02642" lon="6.8678">
        <ele>923.2</ele>
        <time>2022-05-28T13:43:29Z</time>
      </trkpt>
      <trkpt lat="48.02642" lon="6.86779">
        <ele>923.9</ele>
        <time>2022-05-28T13:43:46Z</time>
      </trkpt>
      <trkpt lat="48.02641" lon="6.86778">
        <ele>923.6</ele>
        <time>2022-05-28T13:44:19Z</time>
      </trkpt>
      <trkpt lat="48.02641" lon="6.86776">
        <ele>923.3</ele>
        <time>2022-05-28T13:44:34Z</time>
      </trkpt>
      <trkpt lat="48.0264" lon="6.86776">
        <ele>923.3</ele>
        <time>2022-05-28T13:44:35Z</time>
      </trkpt>
      <trkpt lat="48.0264" lon="6.86775">
        <ele>923.7</ele>
        <time>2022-05-28T13:44:44Z</time>
      </trkpt>
      <trkpt lat="48.02639" lon="6.86774">
        <ele>923.5</ele>
        <time>2022-05-28T13:44:46Z</time>
      </trkpt>
      <trkpt lat="48.02633" lon="6.86762">
        <ele>924.5</ele>
        <time>2022-05-28T13:44:52Z</time>
      </trkpt>
      <trkpt lat="48.02626" lon="6.86754">
        <ele>925.7</ele>
        <time>2022-05-28T13:44:57Z</time>
      </trkpt>
      <trkpt lat="48.02618" lon="6.86745">
        <ele>926.7</ele>
        <time>2022-05-28T13:45:02Z</time>
      </trkpt>
      <trkpt lat="48.02611" lon="6.86734">
        <ele>927.6</ele>
        <time>2022-05-28T13:45:08Z</time>
      </trkpt>
      <trkpt lat="48.02608" lon="6.8672">
        <ele>928.6</ele>
        <time>2022-05-28T13:45:14Z</time>
      </trkpt>
      <trkpt lat="48.02605" lon="6.86706">
        <ele>930.1</ele>
        <time>2022-05-28T13:45:22Z</time>
      </trkpt>
      <trkpt lat="48.026" lon="6.86693">
        <ele>932.4</ele>
        <time>2022-05-28T13:45:30Z</time>
      </trkpt>
      <trkpt lat="48.02595" lon="6.86679">
        <ele>933.7</ele>
        <time>2022-05-28T13:45:37Z</time>
      </trkpt>
      <trkpt lat="48.02592" lon="6.86666">
        <ele>934.9</ele>
        <time>2022-05-28T13:45:43Z</time>
      </trkpt>
      <trkpt lat="48.0259" lon="6.86652">
        <ele>936</ele>
        <time>2022-05-28T13:45:50Z</time>
      </trkpt>
      <trkpt lat="48.02584" lon="6.86639">
        <ele>935.9</ele>
        <time>2022-05-28T13:45:56Z</time>
      </trkpt>
      <trkpt lat="48.02579" lon="6.86627">
        <ele>937.5</ele>
        <time>2022-05-28T13:46:03Z</time>
      </trkpt>
      <trkpt lat="48.02571" lon="6.8662">
        <ele>937.9</ele>
        <time>2022-05-28T13:46:09Z</time>
      </trkpt>
      <trkpt lat="48.02562" lon="6.86614">
        <ele>937.7</ele>
        <time>2022-05-28T13:46:15Z</time>
      </trkpt>
      <trkpt lat="48.02555" lon="6.86602">
        <ele>937.5</ele>
        <time>2022-05-28T13:46:19Z</time>
      </trkpt>
      <trkpt lat="48.02553" lon="6.86589">
        <ele>938.4</ele>
        <time>2022-05-28T13:46:23Z</time>
      </trkpt>
      <trkpt lat="48.02552" lon="6.86573">
        <ele>938.5</ele>
        <time>2022-05-28T13:46:29Z</time>
      </trkpt>
      <trkpt lat="48.0255" lon="6.86557">
        <ele>940.3</ele>
        <time>2022-05-28T13:46:35Z</time>
      </trkpt>
      <trkpt lat="48.02547" lon="6.86542">
        <ele>940.6</ele>
        <time>2022-05-28T13:46:42Z</time>
      </trkpt>
      <trkpt lat="48.02546" lon="6.86527">
        <ele>942.8</ele>
        <time>2022-05-28T13:46:50Z</time>
      </trkpt>
      <trkpt lat="48.02549" lon="6.86512">
        <ele>944.2</ele>
        <time>2022-05-28T13:46:57Z</time>
      </trkpt>
      <trkpt lat="48.02554" lon="6.86501">
        <ele>945.3</ele>
        <time>2022-05-28T13:47:03Z</time>
      </trkpt>
      <trkpt lat="48.02555" lon="6.86487">
        <ele>946.2</ele>
        <time>2022-05-28T13:47:09Z</time>
      </trkpt>
      <trkpt lat="48.02557" lon="6.86472">
        <ele>947.2</ele>
        <time>2022-05-28T13:47:15Z</time>
      </trkpt>
      <trkpt lat="48.02559" lon="6.86458">
        <ele>947.7</ele>
        <time>2022-05-28T13:47:22Z</time>
      </trkpt>
      <trkpt lat="48.02565" lon="6.86445">
        <ele>947.7</ele>
        <time>2022-05-28T13:47:28Z</time>
      </trkpt>
      <trkpt lat="48.0257" lon="6.86433">
        <ele>949</ele>
        <time>2022-05-28T13:47:33Z</time>
      </trkpt>
      <trkpt lat="48.02571" lon="6.86418">
        <ele>949.3</ele>
        <time>2022-05-28T13:47:38Z</time>
      </trkpt>
      <trkpt lat="48.0257" lon="6.86403">
        <ele>949.4</ele>
        <time>2022-05-28T13:47:43Z</time>
      </trkpt>
      <trkpt lat="48.02569" lon="6.86386">
        <ele>948.4</ele>
        <time>2022-05-28T13:47:48Z</time>
      </trkpt>
      <trkpt lat="48.02568" lon="6.86371">
        <ele>948</ele>
        <time>2022-05-28T13:47:51Z</time>
      </trkpt>
      <trkpt lat="48.02569" lon="6.86356">
        <ele>948.3</ele>
        <time>2022-05-28T13:47:55Z</time>
      </trkpt>
      <trkpt lat="48.02572" lon="6.86342">
        <ele>951</ele>
        <time>2022-05-28T13:48:01Z</time>
      </trkpt>
      <trkpt lat="48.02577" lon="6.8633">
        <ele>952.4</ele>
        <time>2022-05-28T13:48:08Z</time>
      </trkpt>
      <trkpt lat="48.02583" lon="6.86318">
        <ele>955.1</ele>
        <time>2022-05-28T13:48:15Z</time>
      </trkpt>
      <trkpt lat="48.02589" lon="6.86306">
        <ele>957.4</ele>
        <time>2022-05-28T13:48:23Z</time>
      </trkpt>
      <trkpt lat="48.02596" lon="6.86297">
        <ele>958.9</ele>
        <time>2022-05-28T13:48:30Z</time>
      </trkpt>
      <trkpt lat="48.02601" lon="6.86284">
        <ele>960.1</ele>
        <time>2022-05-28T13:48:38Z</time>
      </trkpt>
      <trkpt lat="48.02607" lon="6.86273">
        <ele>961.6</ele>
        <time>2022-05-28T13:48:45Z</time>
      </trkpt>
      <trkpt lat="48.02613" lon="6.86263">
        <ele>963.1</ele>
        <time>2022-05-28T13:48:52Z</time>
      </trkpt>
      <trkpt lat="48.02619" lon="6.86252">
        <ele>964.7</ele>
        <time>2022-05-28T13:48:59Z</time>
      </trkpt>
      <trkpt lat="48.02625" lon="6.86241">
        <ele>966.2</ele>
        <time>2022-05-28T13:49:06Z</time>
      </trkpt>
      <trkpt lat="48.02629" lon="6.86227">
        <ele>967.8</ele>
        <time>2022-05-28T13:49:15Z</time>
      </trkpt>
      <trkpt lat="48.02633" lon="6.86214">
        <ele>968.7</ele>
        <time>2022-05-28T13:49:22Z</time>
      </trkpt>
      <trkpt lat="48.02637" lon="6.862">
        <ele>970</ele>
        <time>2022-05-28T13:49:29Z</time>
      </trkpt>
      <trkpt lat="48.02641" lon="6.86186">
        <ele>971.5</ele>
        <time>2022-05-28T13:49:36Z</time>
      </trkpt>
      <trkpt lat="48.02646" lon="6.86173">
        <ele>972.8</ele>
        <time>2022-05-28T13:49:43Z</time>
      </trkpt>
      <trkpt lat="48.0265" lon="6.8616">
        <ele>973.8</ele>
        <time>2022-05-28T13:49:49Z</time>
      </trkpt>
      <trkpt lat="48.02655" lon="6.86146">
        <ele>975.7</ele>
        <time>2022-05-28T13:49:54Z</time>
      </trkpt>
      <trkpt lat="48.02659" lon="6.86133">
        <ele>976.1</ele>
        <time>2022-05-28T13:49:58Z</time>
      </trkpt>
      <trkpt lat="48.02664" lon="6.8612">
        <ele>976.2</ele>
        <time>2022-05-28T13:50:03Z</time>
      </trkpt>
      <trkpt lat="48.02668" lon="6.86108">
        <ele>976.6</ele>
        <time>2022-05-28T13:50:07Z</time>
      </trkpt>
      <trkpt lat="48.0267" lon="6.86095">
        <ele>976.1</ele>
        <time>2022-05-28T13:50:11Z</time>
      </trkpt>
      <trkpt lat="48.02671" lon="6.86079">
        <ele>977.1</ele>
        <time>2022-05-28T13:50:16Z</time>
      </trkpt>
      <trkpt lat="48.02671" lon="6.86064">
        <ele>977.3</ele>
        <time>2022-05-28T13:50:21Z</time>
      </trkpt>
      <trkpt lat="48.02669" lon="6.86051">
        <ele>978.1</ele>
        <time>2022-05-28T13:50:25Z</time>
      </trkpt>
      <trkpt lat="48.02666" lon="6.86036">
        <ele>979.5</ele>
        <time>2022-05-28T13:50:30Z</time>
      </trkpt>
      <trkpt lat="48.02661" lon="6.86023">
        <ele>979.7</ele>
        <time>2022-05-28T13:50:36Z</time>
      </trkpt>
      <trkpt lat="48.02658" lon="6.86019">
        <ele>979.4</ele>
        <time>2022-05-28T13:50:42Z</time>
      </trkpt>
      <trkpt lat="48.02659" lon="6.86019">
        <ele>979.3</ele>
        <time>2022-05-28T13:51:10Z</time>
      </trkpt>
      <trkpt lat="48.02659" lon="6.86018">
        <ele>980.3</ele>
        <time>2022-05-28T13:54:07Z</time>
      </trkpt>
      <trkpt lat="48.02659" lon="6.86018">
        <ele>980.1</ele>
        <time>2022-05-28T13:54:44Z</time>
      </trkpt>
      <trkpt lat="48.0266" lon="6.86018">
        <ele>980.1</ele>
        <time>2022-05-28T13:55:19Z</time>
      </trkpt>
      <trkpt lat="48.02662" lon="6.86016">
        <ele>980.8</ele>
        <time>2022-05-28T13:55:26Z</time>
      </trkpt>
      <trkpt lat="48.02662" lon="6.86017">
        <ele>980.1</ele>
        <time>2022-05-28T13:56:56Z</time>
      </trkpt>
      <trkpt lat="48.02662" lon="6.86017">
        <ele>980</ele>
        <time>2022-05-28T13:58:02Z</time>
      </trkpt>
      <trkpt lat="48.02662" lon="6.86016">
        <ele>980</ele>
        <time>2022-05-28T13:59:13Z</time>
      </trkpt>
      <trkpt lat="48.02656" lon="6.86003">
        <ele>979.7</ele>
        <time>2022-05-28T13:59:20Z</time>
      </trkpt>
      <trkpt lat="48.02649" lon="6.85991">
        <ele>976.4</ele>
        <time>2022-05-28T13:59:25Z</time>
      </trkpt>
      <trkpt lat="48.02643" lon="6.85977">
        <ele>975.6</ele>
        <time>2022-05-28T13:59:28Z</time>
      </trkpt>
      <trkpt lat="48.02638" lon="6.85961">
        <ele>968.4</ele>
        <time>2022-05-28T13:59:31Z</time>
      </trkpt>
      <trkpt lat="48.02632" lon="6.85947">
        <ele>969.1</ele>
        <time>2022-05-28T13:59:34Z</time>
      </trkpt>
      <trkpt lat="48.02622" lon="6.85939">
        <ele>969.3</ele>
        <time>2022-05-28T13:59:36Z</time>
      </trkpt>
      <trkpt lat="48.02613" lon="6.85934">
        <ele>967.6</ele>
        <time>2022-05-28T13:59:37Z</time>
      </trkpt>
      <trkpt lat="48.02604" lon="6.8593">
        <ele>968.6</ele>
        <time>2022-05-28T13:59:38Z</time>
      </trkpt>
      <trkpt lat="48.02591" lon="6.85925">
        <ele>968.4</ele>
        <time>2022-05-28T13:59:39Z</time>
      </trkpt>
      <trkpt lat="48.02578" lon="6.85919">
        <ele>964.9</ele>
        <time>2022-05-28T13:59:41Z</time>
      </trkpt>
      <trkpt lat="48.02568" lon="6.85912">
        <ele>967</ele>
        <time>2022-05-28T13:59:43Z</time>
      </trkpt>
      <trkpt lat="48.02557" lon="6.85908">
        <ele>963.4</ele>
        <time>2022-05-28T13:59:45Z</time>
      </trkpt>
      <trkpt lat="48.02544" lon="6.85906">
        <ele>962.5</ele>
        <time>2022-05-28T13:59:47Z</time>
      </trkpt>
      <trkpt lat="48.02532" lon="6.85905">
        <ele>959.6</ele>
        <time>2022-05-28T13:59:49Z</time>
      </trkpt>
      <trkpt lat="48.02523" lon="6.85904">
        <ele>956.5</ele>
        <time>2022-05-28T13:59:51Z</time>
      </trkpt>
      <trkpt lat="48.02509" lon="6.85903">
        <ele>955.4</ele>
        <time>2022-05-28T13:59:53Z</time>
      </trkpt>
      <trkpt lat="48.025" lon="6.85899">
        <ele>957.3</ele>
        <time>2022-05-28T13:59:55Z</time>
      </trkpt>
      <trkpt lat="48.02494" lon="6.85886">
        <ele>955.3</ele>
        <time>2022-05-28T13:59:58Z</time>
      </trkpt>
      <trkpt lat="48.02485" lon="6.85873">
        <ele>954.4</ele>
        <time>2022-05-28T14:00:01Z</time>
      </trkpt>
      <trkpt lat="48.02474" lon="6.85868">
        <ele>954.5</ele>
        <time>2022-05-28T14:00:03Z</time>
      </trkpt>
      <trkpt lat="48.02464" lon="6.85867">
        <ele>954.3</ele>
        <time>2022-05-28T14:00:05Z</time>
      </trkpt>
      <trkpt lat="48.02452" lon="6.85866">
        <ele>947.7</ele>
        <time>2022-05-28T14:00:08Z</time>
      </trkpt>
      <trkpt lat="48.02442" lon="6.85862">
        <ele>949</ele>
        <time>2022-05-28T14:00:10Z</time>
      </trkpt>
      <trkpt lat="48.02431" lon="6.85855">
        <ele>948.9</ele>
        <time>2022-05-28T14:00:13Z</time>
      </trkpt>
      <trkpt lat="48.0242" lon="6.85844">
        <ele>946.7</ele>
        <time>2022-05-28T14:00:16Z</time>
      </trkpt>
      <trkpt lat="48.02408" lon="6.85836">
        <ele>947</ele>
        <time>2022-05-28T14:00:19Z</time>
      </trkpt>
      <trkpt lat="48.02396" lon="6.85828">
        <ele>945.5</ele>
        <time>2022-05-28T14:00:22Z</time>
      </trkpt>
      <trkpt lat="48.02387" lon="6.85823">
        <ele>942.7</ele>
        <time>2022-05-28T14:00:24Z</time>
      </trkpt>
      <trkpt lat="48.02372" lon="6.85817">
        <ele>941.1</ele>
        <time>2022-05-28T14:00:26Z</time>
      </trkpt>
      <trkpt lat="48.02361" lon="6.85815">
        <ele>941.3</ele>
        <time>2022-05-28T14:00:27Z</time>
      </trkpt>
      <trkpt lat="48.02352" lon="6.85812">
        <ele>941.4</ele>
        <time>2022-05-28T14:00:28Z</time>
      </trkpt>
      <trkpt lat="48.02337" lon="6.85811">
        <ele>943.1</ele>
        <time>2022-05-28T14:00:30Z</time>
      </trkpt>
      <trkpt lat="48.02323" lon="6.85814">
        <ele>941.9</ele>
        <time>2022-05-28T14:00:32Z</time>
      </trkpt>
      <trkpt lat="48.02313" lon="6.85818">
        <ele>941.1</ele>
        <time>2022-05-28T14:00:34Z</time>
      </trkpt>
      <trkpt lat="48.02303" lon="6.85819">
        <ele>939.5</ele>
        <time>2022-05-28T14:00:36Z</time>
      </trkpt>
      <trkpt lat="48.02294" lon="6.85819">
        <ele>940</ele>
        <time>2022-05-28T14:00:38Z</time>
      </trkpt>
      <trkpt lat="48.02284" lon="6.8582">
        <ele>934.5</ele>
        <time>2022-05-28T14:00:40Z</time>
      </trkpt>
      <trkpt lat="48.02274" lon="6.8582">
        <ele>935.2</ele>
        <time>2022-05-28T14:00:42Z</time>
      </trkpt>
      <trkpt lat="48.02262" lon="6.85821">
        <ele>938</ele>
        <time>2022-05-28T14:00:45Z</time>
      </trkpt>
      <trkpt lat="48.02253" lon="6.85823">
        <ele>940.3</ele>
        <time>2022-05-28T14:00:49Z</time>
      </trkpt>
      <trkpt lat="48.02244" lon="6.85829">
        <ele>940.8</ele>
        <time>2022-05-28T14:00:54Z</time>
      </trkpt>
      <trkpt lat="48.02234" lon="6.85836">
        <ele>941.9</ele>
        <time>2022-05-28T14:00:59Z</time>
      </trkpt>
      <trkpt lat="48.02226" lon="6.85844">
        <ele>944.4</ele>
        <time>2022-05-28T14:01:04Z</time>
      </trkpt>
      <trkpt lat="48.02216" lon="6.8585">
        <ele>945.2</ele>
        <time>2022-05-28T14:01:10Z</time>
      </trkpt>
      <trkpt lat="48.02206" lon="6.85855">
        <ele>946.9</ele>
        <time>2022-05-28T14:01:17Z</time>
      </trkpt>
      <trkpt lat="48.02199" lon="6.85864">
        <ele>949.1</ele>
        <time>2022-05-28T14:01:24Z</time>
      </trkpt>
      <trkpt lat="48.02191" lon="6.85872">
        <ele>950.1</ele>
        <time>2022-05-28T14:01:31Z</time>
      </trkpt>
      <trkpt lat="48.02182" lon="6.8588">
        <ele>951.8</ele>
        <time>2022-05-28T14:01:38Z</time>
      </trkpt>
      <trkpt lat="48.02174" lon="6.85888">
        <ele>952.9</ele>
        <time>2022-05-28T14:01:45Z</time>
      </trkpt>
      <trkpt lat="48.02164" lon="6.85893">
        <ele>953.9</ele>
        <time>2022-05-28T14:01:51Z</time>
      </trkpt>
      <trkpt lat="48.02155" lon="6.85901">
        <ele>955.1</ele>
        <time>2022-05-28T14:01:58Z</time>
      </trkpt>
      <trkpt lat="48.02148" lon="6.85908">
        <ele>956.4</ele>
        <time>2022-05-28T14:02:04Z</time>
      </trkpt>
      <trkpt lat="48.02139" lon="6.85917">
        <ele>956.6</ele>
        <time>2022-05-28T14:02:09Z</time>
      </trkpt>
      <trkpt lat="48.02131" lon="6.85926">
        <ele>957.8</ele>
        <time>2022-05-28T14:02:14Z</time>
      </trkpt>
      <trkpt lat="48.02124" lon="6.85938">
        <ele>958.9</ele>
        <time>2022-05-28T14:02:20Z</time>
      </trkpt>
      <trkpt lat="48.02116" lon="6.85947">
        <ele>960.1</ele>
        <time>2022-05-28T14:02:25Z</time>
      </trkpt>
      <trkpt lat="48.02111" lon="6.85962">
        <ele>960.9</ele>
        <time>2022-05-28T14:02:31Z</time>
      </trkpt>
      <trkpt lat="48.02106" lon="6.85975">
        <ele>961.9</ele>
        <time>2022-05-28T14:02:37Z</time>
      </trkpt>
      <trkpt lat="48.021" lon="6.85988">
        <ele>962.9</ele>
        <time>2022-05-28T14:02:43Z</time>
      </trkpt>
      <trkpt lat="48.02097" lon="6.86001">
        <ele>963.8</ele>
        <time>2022-05-28T14:02:48Z</time>
      </trkpt>
      <trkpt lat="48.02092" lon="6.86013">
        <ele>964.3</ele>
        <time>2022-05-28T14:02:53Z</time>
      </trkpt>
      <trkpt lat="48.0209" lon="6.86029">
        <ele>965.5</ele>
        <time>2022-05-28T14:02:59Z</time>
      </trkpt>
      <trkpt lat="48.02086" lon="6.86042">
        <ele>966.1</ele>
        <time>2022-05-28T14:03:04Z</time>
      </trkpt>
      <trkpt lat="48.02082" lon="6.86055">
        <ele>967.2</ele>
        <time>2022-05-28T14:03:09Z</time>
      </trkpt>
      <trkpt lat="48.0208" lon="6.86069">
        <ele>967.2</ele>
        <time>2022-05-28T14:03:15Z</time>
      </trkpt>
      <trkpt lat="48.02081" lon="6.86084">
        <ele>967.8</ele>
        <time>2022-05-28T14:03:20Z</time>
      </trkpt>
      <trkpt lat="48.02081" lon="6.861">
        <ele>967.8</ele>
        <time>2022-05-28T14:03:25Z</time>
      </trkpt>
      <trkpt lat="48.02077" lon="6.86113">
        <ele>969.8</ele>
        <time>2022-05-28T14:03:32Z</time>
      </trkpt>
      <trkpt lat="48.02071" lon="6.86123">
        <ele>970.4</ele>
        <time>2022-05-28T14:03:37Z</time>
      </trkpt>
      <trkpt lat="48.02066" lon="6.86137">
        <ele>971.8</ele>
        <time>2022-05-28T14:03:43Z</time>
      </trkpt>
      <trkpt lat="48.02059" lon="6.86148">
        <ele>973.7</ele>
        <time>2022-05-28T14:03:49Z</time>
      </trkpt>
      <trkpt lat="48.02054" lon="6.86161">
        <ele>974.4</ele>
        <time>2022-05-28T14:03:54Z</time>
      </trkpt>
      <trkpt lat="48.02052" lon="6.86166">
        <ele>974.1</ele>
        <time>2022-05-28T14:04:01Z</time>
      </trkpt>
      <trkpt lat="48.02051" lon="6.86167">
        <ele>974</ele>
        <time>2022-05-28T14:04:31Z</time>
      </trkpt>
      <trkpt lat="48.02049" lon="6.86172">
        <ele>974.4</ele>
        <time>2022-05-28T14:04:44Z</time>
      </trkpt>
      <trkpt lat="48.02049" lon="6.86172">
        <ele>974.3</ele>
        <time>2022-05-28T14:05:00Z</time>
      </trkpt>
      <trkpt lat="48.02049" lon="6.86173">
        <ele>973.8</ele>
        <time>2022-05-28T14:06:03Z</time>
      </trkpt>
      <trkpt lat="48.02049" lon="6.86175">
        <ele>974.2</ele>
        <time>2022-05-28T14:06:06Z</time>
      </trkpt>
      <trkpt lat="48.02048" lon="6.86175">
        <ele>973.5</ele>
        <time>2022-05-28T14:07:37Z</time>
      </trkpt>
      <trkpt lat="48.02039" lon="6.86184">
        <ele>971.6</ele>
        <time>2022-05-28T14:07:42Z</time>
      </trkpt>
      <trkpt lat="48.02028" lon="6.86191">
        <ele>970</ele>
        <time>2022-05-28T14:07:45Z</time>
      </trkpt>
      <trkpt lat="48.02019" lon="6.86197">
        <ele>971.6</ele>
        <time>2022-05-28T14:07:47Z</time>
      </trkpt>
      <trkpt lat="48.02011" lon="6.86204">
        <ele>969.8</ele>
        <time>2022-05-28T14:07:49Z</time>
      </trkpt>
      <trkpt lat="48.02002" lon="6.86211">
        <ele>969.6</ele>
        <time>2022-05-28T14:07:51Z</time>
      </trkpt>
      <trkpt lat="48.0199" lon="6.86221">
        <ele>966.8</ele>
        <time>2022-05-28T14:07:54Z</time>
      </trkpt>
      <trkpt lat="48.01979" lon="6.86227">
        <ele>967.4</ele>
        <time>2022-05-28T14:07:56Z</time>
      </trkpt>
      <trkpt lat="48.0197" lon="6.86235">
        <ele>965.6</ele>
        <time>2022-05-28T14:07:58Z</time>
      </trkpt>
      <trkpt lat="48.01959" lon="6.86246">
        <ele>964.6</ele>
        <time>2022-05-28T14:08:00Z</time>
      </trkpt>
      <trkpt lat="48.01953" lon="6.86255">
        <ele>963</ele>
        <time>2022-05-28T14:08:01Z</time>
      </trkpt>
      <trkpt lat="48.01941" lon="6.86275">
        <ele>963.5</ele>
        <time>2022-05-28T14:08:03Z</time>
      </trkpt>
      <trkpt lat="48.01933" lon="6.86295">
        <ele>965.8</ele>
        <time>2022-05-28T14:08:05Z</time>
      </trkpt>
      <trkpt lat="48.01924" lon="6.86312">
        <ele>961</ele>
        <time>2022-05-28T14:08:07Z</time>
      </trkpt>
      <trkpt lat="48.01913" lon="6.86325">
        <ele>961.3</ele>
        <time>2022-05-28T14:08:09Z</time>
      </trkpt>
      <trkpt lat="48.01902" lon="6.86341">
        <ele>956.5</ele>
        <time>2022-05-28T14:08:11Z</time>
      </trkpt>
      <trkpt lat="48.01891" lon="6.86358">
        <ele>956.2</ele>
        <time>2022-05-28T14:08:13Z</time>
      </trkpt>
      <trkpt lat="48.01878" lon="6.86375">
        <ele>957</ele>
        <time>2022-05-28T14:08:15Z</time>
      </trkpt>
      <trkpt lat="48.01871" lon="6.86384">
        <ele>956</ele>
        <time>2022-05-28T14:08:16Z</time>
      </trkpt>
      <trkpt lat="48.01863" lon="6.86394">
        <ele>951.2</ele>
        <time>2022-05-28T14:08:17Z</time>
      </trkpt>
      <trkpt lat="48.01855" lon="6.86402">
        <ele>949.8</ele>
        <time>2022-05-28T14:08:18Z</time>
      </trkpt>
      <trkpt lat="48.01847" lon="6.86409">
        <ele>948.2</ele>
        <time>2022-05-28T14:08:19Z</time>
      </trkpt>
      <trkpt lat="48.01832" lon="6.86415">
        <ele>951</ele>
        <time>2022-05-28T14:08:21Z</time>
      </trkpt>
      <trkpt lat="48.01819" lon="6.86423">
        <ele>954.3</ele>
        <time>2022-05-28T14:08:23Z</time>
      </trkpt>
      <trkpt lat="48.01807" lon="6.86437">
        <ele>953.1</ele>
        <time>2022-05-28T14:08:25Z</time>
      </trkpt>
      <trkpt lat="48.01796" lon="6.86447">
        <ele>952.1</ele>
        <time>2022-05-28T14:08:27Z</time>
      </trkpt>
      <trkpt lat="48.01785" lon="6.86452">
        <ele>954.1</ele>
        <time>2022-05-28T14:08:29Z</time>
      </trkpt>
      <trkpt lat="48.01776" lon="6.86454">
        <ele>954.8</ele>
        <time>2022-05-28T14:08:31Z</time>
      </trkpt>
      <trkpt lat="48.01766" lon="6.8646">
        <ele>956.2</ele>
        <time>2022-05-28T14:08:35Z</time>
      </trkpt>
      <trkpt lat="48.01756" lon="6.86468">
        <ele>956.6</ele>
        <time>2022-05-28T14:08:39Z</time>
      </trkpt>
      <trkpt lat="48.01747" lon="6.86474">
        <ele>956.6</ele>
        <time>2022-05-28T14:08:43Z</time>
      </trkpt>
      <trkpt lat="48.01738" lon="6.86481">
        <ele>956.9</ele>
        <time>2022-05-28T14:08:47Z</time>
      </trkpt>
      <trkpt lat="48.0173" lon="6.86491">
        <ele>957.9</ele>
        <time>2022-05-28T14:08:52Z</time>
      </trkpt>
      <trkpt lat="48.01729" lon="6.86498">
        <ele>957.7</ele>
        <time>2022-05-28T14:08:57Z</time>
      </trkpt>
      <trkpt lat="48.01729" lon="6.86499">
        <ele>958.3</ele>
        <time>2022-05-28T14:09:54Z</time>
      </trkpt>
      <trkpt lat="48.01729" lon="6.86498">
        <ele>958.2</ele>
        <time>2022-05-28T14:10:08Z</time>
      </trkpt>
      <trkpt lat="48.01728" lon="6.86498">
        <ele>958</ele>
        <time>2022-05-28T14:10:10Z</time>
      </trkpt>
      <trkpt lat="48.01729" lon="6.86498">
        <ele>957.8</ele>
        <time>2022-05-28T14:10:12Z</time>
      </trkpt>
      <trkpt lat="48.01729" lon="6.86496">
        <ele>958</ele>
        <time>2022-05-28T14:10:16Z</time>
      </trkpt>
      <trkpt lat="48.0173" lon="6.86495">
        <ele>957.3</ele>
        <time>2022-05-28T14:11:48Z</time>
      </trkpt>
      <trkpt lat="48.01729" lon="6.86494">
        <ele>957.9</ele>
        <time>2022-05-28T14:13:58Z</time>
      </trkpt>
      <trkpt lat="48.01725" lon="6.8648">
        <ele>956.7</ele>
        <time>2022-05-28T14:14:04Z</time>
      </trkpt>
      <trkpt lat="48.01724" lon="6.86462">
        <ele>956.2</ele>
        <time>2022-05-28T14:14:08Z</time>
      </trkpt>
      <trkpt lat="48.01723" lon="6.86446">
        <ele>952.7</ele>
        <time>2022-05-28T14:14:11Z</time>
      </trkpt>
      <trkpt lat="48.01723" lon="6.86426">
        <ele>952.7</ele>
        <time>2022-05-28T14:14:14Z</time>
      </trkpt>
      <trkpt lat="48.01723" lon="6.86411">
        <ele>951.4</ele>
        <time>2022-05-28T14:14:16Z</time>
      </trkpt>
      <trkpt lat="48.01723" lon="6.86396">
        <ele>949.4</ele>
        <time>2022-05-28T14:14:18Z</time>
      </trkpt>
      <trkpt lat="48.0172" lon="6.86381">
        <ele>946.9</ele>
        <time>2022-05-28T14:14:20Z</time>
      </trkpt>
      <trkpt lat="48.01717" lon="6.86368">
        <ele>944.5</ele>
        <time>2022-05-28T14:14:22Z</time>
      </trkpt>
      <trkpt lat="48.01713" lon="6.86355">
        <ele>944.6</ele>
        <time>2022-05-28T14:14:24Z</time>
      </trkpt>
      <trkpt lat="48.01711" lon="6.86341">
        <ele>946.7</ele>
        <time>2022-05-28T14:14:26Z</time>
      </trkpt>
      <trkpt lat="48.01713" lon="6.86327">
        <ele>942</ele>
        <time>2022-05-28T14:14:28Z</time>
      </trkpt>
      <trkpt lat="48.01715" lon="6.86313">
        <ele>940.6</ele>
        <time>2022-05-28T14:14:30Z</time>
      </trkpt>
      <trkpt lat="48.01717" lon="6.86297">
        <ele>938.8</ele>
        <time>2022-05-28T14:14:33Z</time>
      </trkpt>
      <trkpt lat="48.01722" lon="6.86278">
        <ele>936.9</ele>
        <time>2022-05-28T14:14:36Z</time>
      </trkpt>
      <trkpt lat="48.01724" lon="6.86262">
        <ele>935.3</ele>
        <time>2022-05-28T14:14:38Z</time>
      </trkpt>
      <trkpt lat="48.01726" lon="6.86242">
        <ele>933.1</ele>
        <time>2022-05-28T14:14:40Z</time>
      </trkpt>
      <trkpt lat="48.01728" lon="6.86221">
        <ele>934.6</ele>
        <time>2022-05-28T14:14:42Z</time>
      </trkpt>
      <trkpt lat="48.01728" lon="6.86203">
        <ele>937.4</ele>
        <time>2022-05-28T14:14:44Z</time>
      </trkpt>
      <trkpt lat="48.01735" lon="6.8619">
        <ele>931.7</ele>
        <time>2022-05-28T14:14:46Z</time>
      </trkpt>
      <trkpt lat="48.01743" lon="6.86178">
        <ele>930.3</ele>
        <time>2022-05-28T14:14:48Z</time>
      </trkpt>
      <trkpt lat="48.01751" lon="6.86165">
        <ele>934.1</ele>
        <time>2022-05-28T14:14:50Z</time>
      </trkpt>
      <trkpt lat="48.01761" lon="6.86151">
        <ele>933.7</ele>
        <time>2022-05-28T14:14:52Z</time>
      </trkpt>
      <trkpt lat="48.0177" lon="6.86135">
        <ele>932.4</ele>
        <time>2022-05-28T14:14:54Z</time>
      </trkpt>
      <trkpt lat="48.01778" lon="6.86119">
        <ele>928.3</ele>
        <time>2022-05-28T14:14:56Z</time>
      </trkpt>
      <trkpt lat="48.01787" lon="6.861">
        <ele>927.2</ele>
        <time>2022-05-28T14:14:58Z</time>
      </trkpt>
      <trkpt lat="48.01796" lon="6.8608">
        <ele>922.6</ele>
        <time>2022-05-28T14:15:00Z</time>
      </trkpt>
      <trkpt lat="48.01803" lon="6.8606">
        <ele>921</ele>
        <time>2022-05-28T14:15:02Z</time>
      </trkpt>
      <trkpt lat="48.01807" lon="6.86037">
        <ele>921.7</ele>
        <time>2022-05-28T14:15:04Z</time>
      </trkpt>
      <trkpt lat="48.01806" lon="6.86012">
        <ele>921.4</ele>
        <time>2022-05-28T14:15:06Z</time>
      </trkpt>
      <trkpt lat="48.01806" lon="6.85993">
        <ele>920.3</ele>
        <time>2022-05-28T14:15:08Z</time>
      </trkpt>
      <trkpt lat="48.01799" lon="6.8597">
        <ele>921.2</ele>
        <time>2022-05-28T14:15:10Z</time>
      </trkpt>
      <trkpt lat="48.01795" lon="6.85958">
        <ele>918.7</ele>
        <time>2022-05-28T14:15:11Z</time>
      </trkpt>
      <trkpt lat="48.01788" lon="6.85933">
        <ele>916.8</ele>
        <time>2022-05-28T14:15:13Z</time>
      </trkpt>
      <trkpt lat="48.01783" lon="6.85909">
        <ele>916.7</ele>
        <time>2022-05-28T14:15:15Z</time>
      </trkpt>
      <trkpt lat="48.01783" lon="6.85883">
        <ele>916.7</ele>
        <time>2022-05-28T14:15:17Z</time>
      </trkpt>
      <trkpt lat="48.01779" lon="6.85861">
        <ele>915.1</ele>
        <time>2022-05-28T14:15:19Z</time>
      </trkpt>
      <trkpt lat="48.01775" lon="6.8584">
        <ele>910.2</ele>
        <time>2022-05-28T14:15:21Z</time>
      </trkpt>
      <trkpt lat="48.01773" lon="6.85821">
        <ele>911.2</ele>
        <time>2022-05-28T14:15:23Z</time>
      </trkpt>
      <trkpt lat="48.01777" lon="6.85801">
        <ele>914.9</ele>
        <time>2022-05-28T14:15:25Z</time>
      </trkpt>
      <trkpt lat="48.01782" lon="6.85783">
        <ele>912.6</ele>
        <time>2022-05-28T14:15:27Z</time>
      </trkpt>
      <trkpt lat="48.01787" lon="6.85764">
        <ele>912.5</ele>
        <time>2022-05-28T14:15:29Z</time>
      </trkpt>
      <trkpt lat="48.01793" lon="6.85744">
        <ele>908.6</ele>
        <time>2022-05-28T14:15:31Z</time>
      </trkpt>
      <trkpt lat="48.01793" lon="6.85725">
        <ele>911</ele>
        <time>2022-05-28T14:15:33Z</time>
      </trkpt>
      <trkpt lat="48.01787" lon="6.85708">
        <ele>908.2</ele>
        <time>2022-05-28T14:15:35Z</time>
      </trkpt>
      <trkpt lat="48.01777" lon="6.85692">
        <ele>909.3</ele>
        <time>2022-05-28T14:15:37Z</time>
      </trkpt>
      <trkpt lat="48.0177" lon="6.85673">
        <ele>904.4</ele>
        <time>2022-05-28T14:15:39Z</time>
      </trkpt>
      <trkpt lat="48.01765" lon="6.85652">
        <ele>905.5</ele>
        <time>2022-05-28T14:15:41Z</time>
      </trkpt>
      <trkpt lat="48.01763" lon="6.8563">
        <ele>908.6</ele>
        <time>2022-05-28T14:15:43Z</time>
      </trkpt>
      <trkpt lat="48.01767" lon="6.85611">
        <ele>903</ele>
        <time>2022-05-28T14:15:45Z</time>
      </trkpt>
      <trkpt lat="48.0178" lon="6.85597">
        <ele>905.7</ele>
        <time>2022-05-28T14:15:47Z</time>
      </trkpt>
      <trkpt lat="48.01794" lon="6.85581">
        <ele>904.3</ele>
        <time>2022-05-28T14:15:49Z</time>
      </trkpt>
      <trkpt lat="48.01801" lon="6.85561">
        <ele>904.1</ele>
        <time>2022-05-28T14:15:51Z</time>
      </trkpt>
      <trkpt lat="48.01803" lon="6.85544">
        <ele>901</ele>
        <time>2022-05-28T14:15:53Z</time>
      </trkpt>
      <trkpt lat="48.01802" lon="6.85524">
        <ele>901</ele>
        <time>2022-05-28T14:15:55Z</time>
      </trkpt>
      <trkpt lat="48.01807" lon="6.85501">
        <ele>901.4</ele>
        <time>2022-05-28T14:15:57Z</time>
      </trkpt>
      <trkpt lat="48.01816" lon="6.8548">
        <ele>893.8</ele>
        <time>2022-05-28T14:15:59Z</time>
      </trkpt>
      <trkpt lat="48.01826" lon="6.8546">
        <ele>892.6</ele>
        <time>2022-05-28T14:16:01Z</time>
      </trkpt>
      <trkpt lat="48.01834" lon="6.85437">
        <ele>893.9</ele>
        <time>2022-05-28T14:16:03Z</time>
      </trkpt>
      <trkpt lat="48.01838" lon="6.85412">
        <ele>892.4</ele>
        <time>2022-05-28T14:16:05Z</time>
      </trkpt>
      <trkpt lat="48.0184" lon="6.85398">
        <ele>894.7</ele>
        <time>2022-05-28T14:16:06Z</time>
      </trkpt>
      <trkpt lat="48.01842" lon="6.85385">
        <ele>894.8</ele>
        <time>2022-05-28T14:16:07Z</time>
      </trkpt>
      <trkpt lat="48.01844" lon="6.85372">
        <ele>892.5</ele>
        <time>2022-05-28T14:16:08Z</time>
      </trkpt>
      <trkpt lat="48.01851" lon="6.85347">
        <ele>886.9</ele>
        <time>2022-05-28T14:16:10Z</time>
      </trkpt>
      <trkpt lat="48.01856" lon="6.85336">
        <ele>886.1</ele>
        <time>2022-05-28T14:16:11Z</time>
      </trkpt>
      <trkpt lat="48.01866" lon="6.85313">
        <ele>888.3</ele>
        <time>2022-05-28T14:16:13Z</time>
      </trkpt>
      <trkpt lat="48.01875" lon="6.85294">
        <ele>890.7</ele>
        <time>2022-05-28T14:16:15Z</time>
      </trkpt>
      <trkpt lat="48.01879" lon="6.85276">
        <ele>889.1</ele>
        <time>2022-05-28T14:16:17Z</time>
      </trkpt>
      <trkpt lat="48.01879" lon="6.85257">
        <ele>891.5</ele>
        <time>2022-05-28T14:16:19Z</time>
      </trkpt>
      <trkpt lat="48.01879" lon="6.85237">
        <ele>890</ele>
        <time>2022-05-28T14:16:21Z</time>
      </trkpt>
      <trkpt lat="48.01881" lon="6.8522">
        <ele>890.8</ele>
        <time>2022-05-28T14:16:23Z</time>
      </trkpt>
      <trkpt lat="48.01883" lon="6.85207">
        <ele>890.2</ele>
        <time>2022-05-28T14:16:25Z</time>
      </trkpt>
      <trkpt lat="48.01888" lon="6.8519">
        <ele>890.6</ele>
        <time>2022-05-28T14:16:28Z</time>
      </trkpt>
      <trkpt lat="48.01891" lon="6.85176">
        <ele>892.1</ele>
        <time>2022-05-28T14:16:31Z</time>
      </trkpt>
      <trkpt lat="48.01892" lon="6.85162">
        <ele>894.9</ele>
        <time>2022-05-28T14:16:35Z</time>
      </trkpt>
      <trkpt lat="48.01894" lon="6.85148">
        <ele>898.3</ele>
        <time>2022-05-28T14:16:40Z</time>
      </trkpt>
      <trkpt lat="48.01895" lon="6.85132">
        <ele>897.5</ele>
        <time>2022-05-28T14:16:45Z</time>
      </trkpt>
      <trkpt lat="48.01899" lon="6.85118">
        <ele>899.6</ele>
        <time>2022-05-28T14:16:50Z</time>
      </trkpt>
      <trkpt lat="48.01907" lon="6.8511">
        <ele>900</ele>
        <time>2022-05-28T14:16:55Z</time>
      </trkpt>
      <trkpt lat="48.01917" lon="6.85103">
        <ele>900.1</ele>
        <time>2022-05-28T14:17:00Z</time>
      </trkpt>
      <trkpt lat="48.01926" lon="6.85099">
        <ele>901.2</ele>
        <time>2022-05-28T14:17:05Z</time>
      </trkpt>
      <trkpt lat="48.01935" lon="6.85096">
        <ele>901.1</ele>
        <time>2022-05-28T14:17:11Z</time>
      </trkpt>
      <trkpt lat="48.01946" lon="6.85091">
        <ele>900.8</ele>
        <time>2022-05-28T14:17:17Z</time>
      </trkpt>
      <trkpt lat="48.01954" lon="6.85084">
        <ele>902.4</ele>
        <time>2022-05-28T14:17:21Z</time>
      </trkpt>
      <trkpt lat="48.01962" lon="6.85078">
        <ele>902.3</ele>
        <time>2022-05-28T14:17:25Z</time>
      </trkpt>
      <trkpt lat="48.0197" lon="6.85073">
        <ele>903.2</ele>
        <time>2022-05-28T14:17:29Z</time>
      </trkpt>
      <trkpt lat="48.01981" lon="6.85066">
        <ele>903.1</ele>
        <time>2022-05-28T14:17:33Z</time>
      </trkpt>
      <trkpt lat="48.01991" lon="6.85061">
        <ele>905.5</ele>
        <time>2022-05-28T14:17:37Z</time>
      </trkpt>
      <trkpt lat="48.02" lon="6.85049">
        <ele>905</ele>
        <time>2022-05-28T14:17:41Z</time>
      </trkpt>
      <trkpt lat="48.02006" lon="6.85037">
        <ele>906.9</ele>
        <time>2022-05-28T14:17:45Z</time>
      </trkpt>
      <trkpt lat="48.0201" lon="6.85025">
        <ele>907.5</ele>
        <time>2022-05-28T14:17:49Z</time>
      </trkpt>
      <trkpt lat="48.02014" lon="6.8501">
        <ele>908.6</ele>
        <time>2022-05-28T14:17:55Z</time>
      </trkpt>
      <trkpt lat="48.02024" lon="6.85006">
        <ele>907.6</ele>
        <time>2022-05-28T14:18:00Z</time>
      </trkpt>
      <trkpt lat="48.02033" lon="6.85007">
        <ele>908.9</ele>
        <time>2022-05-28T14:18:04Z</time>
      </trkpt>
      <trkpt lat="48.02043" lon="6.85012">
        <ele>907.9</ele>
        <time>2022-05-28T14:18:08Z</time>
      </trkpt>
      <trkpt lat="48.02053" lon="6.85013">
        <ele>908.1</ele>
        <time>2022-05-28T14:18:12Z</time>
      </trkpt>
      <trkpt lat="48.02062" lon="6.85013">
        <ele>907.7</ele>
        <time>2022-05-28T14:18:17Z</time>
      </trkpt>
      <trkpt lat="48.02072" lon="6.85023">
        <ele>906.8</ele>
        <time>2022-05-28T14:18:21Z</time>
      </trkpt>
      <trkpt lat="48.02081" lon="6.85032">
        <ele>905.8</ele>
        <time>2022-05-28T14:18:24Z</time>
      </trkpt>
      <trkpt lat="48.02091" lon="6.85041">
        <ele>904.2</ele>
        <time>2022-05-28T14:18:27Z</time>
      </trkpt>
      <trkpt lat="48.02099" lon="6.85047">
        <ele>905.4</ele>
        <time>2022-05-28T14:18:29Z</time>
      </trkpt>
      <trkpt lat="48.02108" lon="6.8505">
        <ele>904.8</ele>
        <time>2022-05-28T14:18:31Z</time>
      </trkpt>
      <trkpt lat="48.02117" lon="6.85052">
        <ele>907.5</ele>
        <time>2022-05-28T14:18:33Z</time>
      </trkpt>
      <trkpt lat="48.02129" lon="6.85052">
        <ele>903.1</ele>
        <time>2022-05-28T14:18:36Z</time>
      </trkpt>
      <trkpt lat="48.02141" lon="6.85051">
        <ele>902</ele>
        <time>2022-05-28T14:18:39Z</time>
      </trkpt>
      <trkpt lat="48.02152" lon="6.85051">
        <ele>901</ele>
        <time>2022-05-28T14:18:41Z</time>
      </trkpt>
      <trkpt lat="48.02163" lon="6.85051">
        <ele>903.7</ele>
        <time>2022-05-28T14:18:43Z</time>
      </trkpt>
      <trkpt lat="48.02172" lon="6.85043">
        <ele>899.6</ele>
        <time>2022-05-28T14:18:46Z</time>
      </trkpt>
      <trkpt lat="48.02184" lon="6.85034">
        <ele>899.1</ele>
        <time>2022-05-28T14:18:49Z</time>
      </trkpt>
      <trkpt lat="48.02195" lon="6.85024">
        <ele>899.5</ele>
        <time>2022-05-28T14:18:51Z</time>
      </trkpt>
      <trkpt lat="48.02205" lon="6.85015">
        <ele>901.9</ele>
        <time>2022-05-28T14:18:53Z</time>
      </trkpt>
      <trkpt lat="48.02213" lon="6.85007">
        <ele>902.7</ele>
        <time>2022-05-28T14:18:55Z</time>
      </trkpt>
      <trkpt lat="48.02222" lon="6.84997">
        <ele>903</ele>
        <time>2022-05-28T14:18:58Z</time>
      </trkpt>
      <trkpt lat="48.02231" lon="6.84988">
        <ele>905.5</ele>
        <time>2022-05-28T14:19:01Z</time>
      </trkpt>
      <trkpt lat="48.0224" lon="6.8498">
        <ele>905.1</ele>
        <time>2022-05-28T14:19:04Z</time>
      </trkpt>
      <trkpt lat="48.02246" lon="6.84969">
        <ele>907.4</ele>
        <time>2022-05-28T14:19:09Z</time>
      </trkpt>
      <trkpt lat="48.02255" lon="6.84962">
        <ele>907.3</ele>
        <time>2022-05-28T14:19:12Z</time>
      </trkpt>
      <trkpt lat="48.02262" lon="6.84954">
        <ele>910.1</ele>
        <time>2022-05-28T14:19:16Z</time>
      </trkpt>
      <trkpt lat="48.02269" lon="6.84942">
        <ele>912.2</ele>
        <time>2022-05-28T14:19:22Z</time>
      </trkpt>
      <trkpt lat="48.02276" lon="6.8493">
        <ele>912.8</ele>
        <time>2022-05-28T14:19:26Z</time>
      </trkpt>
      <trkpt lat="48.02279" lon="6.84915">
        <ele>912.4</ele>
        <time>2022-05-28T14:19:31Z</time>
      </trkpt>
      <trkpt lat="48.02281" lon="6.84901">
        <ele>913.8</ele>
        <time>2022-05-28T14:19:35Z</time>
      </trkpt>
      <trkpt lat="48.02283" lon="6.84885">
        <ele>914.9</ele>
        <time>2022-05-28T14:19:39Z</time>
      </trkpt>
      <trkpt lat="48.02288" lon="6.84871">
        <ele>915</ele>
        <time>2022-05-28T14:19:44Z</time>
      </trkpt>
      <trkpt lat="48.02292" lon="6.84859">
        <ele>915.3</ele>
        <time>2022-05-28T14:19:48Z</time>
      </trkpt>
      <trkpt lat="48.02299" lon="6.8485">
        <ele>916.5</ele>
        <time>2022-05-28T14:19:52Z</time>
      </trkpt>
      <trkpt lat="48.02309" lon="6.8484">
        <ele>917</ele>
        <time>2022-05-28T14:19:56Z</time>
      </trkpt>
      <trkpt lat="48.02317" lon="6.84825">
        <ele>916.9</ele>
        <time>2022-05-28T14:20:01Z</time>
      </trkpt>
      <trkpt lat="48.02324" lon="6.84815">
        <ele>918.4</ele>
        <time>2022-05-28T14:20:04Z</time>
      </trkpt>
      <trkpt lat="48.02329" lon="6.84801">
        <ele>919.2</ele>
        <time>2022-05-28T14:20:08Z</time>
      </trkpt>
      <trkpt lat="48.02333" lon="6.84789">
        <ele>917.2</ele>
        <time>2022-05-28T14:20:11Z</time>
      </trkpt>
      <trkpt lat="48.02335" lon="6.84775">
        <ele>914.9</ele>
        <time>2022-05-28T14:20:14Z</time>
      </trkpt>
      <trkpt lat="48.02339" lon="6.84762">
        <ele>916.7</ele>
        <time>2022-05-28T14:20:16Z</time>
      </trkpt>
      <trkpt lat="48.02343" lon="6.84747">
        <ele>917</ele>
        <time>2022-05-28T14:20:19Z</time>
      </trkpt>
      <trkpt lat="48.02347" lon="6.84735">
        <ele>917.5</ele>
        <time>2022-05-28T14:20:22Z</time>
      </trkpt>
      <trkpt lat="48.02355" lon="6.84723">
        <ele>918.2</ele>
        <time>2022-05-28T14:20:26Z</time>
      </trkpt>
      <trkpt lat="48.02362" lon="6.84713">
        <ele>920.5</ele>
        <time>2022-05-28T14:20:30Z</time>
      </trkpt>
      <trkpt lat="48.02368" lon="6.847">
        <ele>919.4</ele>
        <time>2022-05-28T14:20:35Z</time>
      </trkpt>
      <trkpt lat="48.02375" lon="6.84687">
        <ele>921.7</ele>
        <time>2022-05-28T14:20:40Z</time>
      </trkpt>
      <trkpt lat="48.02381" lon="6.84677">
        <ele>923.4</ele>
        <time>2022-05-28T14:20:44Z</time>
      </trkpt>
      <trkpt lat="48.02386" lon="6.84665">
        <ele>924.3</ele>
        <time>2022-05-28T14:20:49Z</time>
      </trkpt>
      <trkpt lat="48.02395" lon="6.84655">
        <ele>926.8</ele>
        <time>2022-05-28T14:20:55Z</time>
      </trkpt>
      <trkpt lat="48.02401" lon="6.84643">
        <ele>927.4</ele>
        <time>2022-05-28T14:21:01Z</time>
      </trkpt>
      <trkpt lat="48.02404" lon="6.8463">
        <ele>928.8</ele>
        <time>2022-05-28T14:21:07Z</time>
      </trkpt>
      <trkpt lat="48.02408" lon="6.84616">
        <ele>929.4</ele>
        <time>2022-05-28T14:21:13Z</time>
      </trkpt>
      <trkpt lat="48.02413" lon="6.84602">
        <ele>930.5</ele>
        <time>2022-05-28T14:21:19Z</time>
      </trkpt>
      <trkpt lat="48.0242" lon="6.84592">
        <ele>932.2</ele>
        <time>2022-05-28T14:21:25Z</time>
      </trkpt>
      <trkpt lat="48.02427" lon="6.84582">
        <ele>932.3</ele>
        <time>2022-05-28T14:21:31Z</time>
      </trkpt>
      <trkpt lat="48.02433" lon="6.84571">
        <ele>933.5</ele>
        <time>2022-05-28T14:21:37Z</time>
      </trkpt>
      <trkpt lat="48.02439" lon="6.84559">
        <ele>934.9</ele>
        <time>2022-05-28T14:21:44Z</time>
      </trkpt>
      <trkpt lat="48.02439" lon="6.84545">
        <ele>937.7</ele>
        <time>2022-05-28T14:21:51Z</time>
      </trkpt>
      <trkpt lat="48.02433" lon="6.84533">
        <ele>940.1</ele>
        <time>2022-05-28T14:21:58Z</time>
      </trkpt>
      <trkpt lat="48.02424" lon="6.84532">
        <ele>940.8</ele>
        <time>2022-05-28T14:22:05Z</time>
      </trkpt>
      <trkpt lat="48.02415" lon="6.84535">
        <ele>942.7</ele>
        <time>2022-05-28T14:22:12Z</time>
      </trkpt>
      <trkpt lat="48.02406" lon="6.84539">
        <ele>943.4</ele>
        <time>2022-05-28T14:22:18Z</time>
      </trkpt>
      <trkpt lat="48.02397" lon="6.84543">
        <ele>944.3</ele>
        <time>2022-05-28T14:22:23Z</time>
      </trkpt>
      <trkpt lat="48.02388" lon="6.84546">
        <ele>945.8</ele>
        <time>2022-05-28T14:22:28Z</time>
      </trkpt>
      <trkpt lat="48.02379" lon="6.8455">
        <ele>946</ele>
        <time>2022-05-28T14:22:33Z</time>
      </trkpt>
      <trkpt lat="48.0237" lon="6.84557">
        <ele>947.6</ele>
        <time>2022-05-28T14:22:38Z</time>
      </trkpt>
      <trkpt lat="48.0236" lon="6.84562">
        <ele>947.6</ele>
        <time>2022-05-28T14:22:43Z</time>
      </trkpt>
      <trkpt lat="48.02351" lon="6.84566">
        <ele>947.5</ele>
        <time>2022-05-28T14:22:47Z</time>
      </trkpt>
      <trkpt lat="48.02342" lon="6.84573">
        <ele>947.8</ele>
        <time>2022-05-28T14:22:52Z</time>
      </trkpt>
      <trkpt lat="48.02332" lon="6.84578">
        <ele>948.5</ele>
        <time>2022-05-28T14:22:56Z</time>
      </trkpt>
      <trkpt lat="48.02321" lon="6.84584">
        <ele>948.6</ele>
        <time>2022-05-28T14:23:01Z</time>
      </trkpt>
      <trkpt lat="48.02312" lon="6.8459">
        <ele>949</ele>
        <time>2022-05-28T14:23:05Z</time>
      </trkpt>
      <trkpt lat="48.02302" lon="6.84598">
        <ele>950.1</ele>
        <time>2022-05-28T14:23:10Z</time>
      </trkpt>
      <trkpt lat="48.02294" lon="6.84602">
        <ele>950.4</ele>
        <time>2022-05-28T14:23:17Z</time>
      </trkpt>
      <trkpt lat="48.023" lon="6.84609">
        <ele>950.8</ele>
        <time>2022-05-28T14:23:31Z</time>
      </trkpt>
      <trkpt lat="48.02302" lon="6.84609">
        <ele>950.9</ele>
        <time>2022-05-28T14:23:37Z</time>
      </trkpt>
      <trkpt lat="48.02303" lon="6.84608">
        <ele>950.9</ele>
        <time>2022-05-28T14:24:03Z</time>
      </trkpt>
      <trkpt lat="48.02303" lon="6.84607">
        <ele>950.9</ele>
        <time>2022-05-28T14:24:49Z</time>
      </trkpt>
      <trkpt lat="48.02302" lon="6.84606">
        <ele>950.5</ele>
        <time>2022-05-28T14:25:34Z</time>
      </trkpt>
      <trkpt lat="48.02302" lon="6.84605">
        <ele>950.7</ele>
        <time>2022-05-28T14:25:36Z</time>
      </trkpt>
      <trkpt lat="48.02301" lon="6.84605">
        <ele>951.2</ele>
        <time>2022-05-28T14:25:43Z</time>
      </trkpt>
      <trkpt lat="48.02292" lon="6.84609">
        <ele>950.8</ele>
        <time>2022-05-28T14:25:49Z</time>
      </trkpt>
      <trkpt lat="48.02282" lon="6.84616">
        <ele>951.6</ele>
        <time>2022-05-28T14:25:54Z</time>
      </trkpt>
      <trkpt lat="48.02274" lon="6.84621">
        <ele>950.4</ele>
        <time>2022-05-28T14:25:57Z</time>
      </trkpt>
      <trkpt lat="48.02264" lon="6.84625">
        <ele>950.7</ele>
        <time>2022-05-28T14:26:00Z</time>
      </trkpt>
      <trkpt lat="48.02255" lon="6.8463">
        <ele>950.9</ele>
        <time>2022-05-28T14:26:03Z</time>
      </trkpt>
      <trkpt lat="48.02246" lon="6.84634">
        <ele>951.1</ele>
        <time>2022-05-28T14:26:06Z</time>
      </trkpt>
      <trkpt lat="48.02238" lon="6.84642">
        <ele>951.4</ele>
        <time>2022-05-28T14:26:09Z</time>
      </trkpt>
      <trkpt lat="48.02228" lon="6.84651">
        <ele>951.2</ele>
        <time>2022-05-28T14:26:12Z</time>
      </trkpt>
      <trkpt lat="48.0222" lon="6.84658">
        <ele>952.6</ele>
        <time>2022-05-28T14:26:15Z</time>
      </trkpt>
      <trkpt lat="48.02213" lon="6.84669">
        <ele>951.5</ele>
        <time>2022-05-28T14:26:18Z</time>
      </trkpt>
      <trkpt lat="48.02206" lon="6.84677">
        <ele>952.3</ele>
        <time>2022-05-28T14:26:21Z</time>
      </trkpt>
      <trkpt lat="48.02198" lon="6.84687">
        <ele>954.2</ele>
        <time>2022-05-28T14:26:25Z</time>
      </trkpt>
      <trkpt lat="48.02192" lon="6.84698">
        <ele>956.3</ele>
        <time>2022-05-28T14:26:29Z</time>
      </trkpt>
      <trkpt lat="48.02184" lon="6.84708">
        <ele>955.6</ele>
        <time>2022-05-28T14:26:33Z</time>
      </trkpt>
      <trkpt lat="48.02177" lon="6.84717">
        <ele>954.9</ele>
        <time>2022-05-28T14:26:37Z</time>
      </trkpt>
      <trkpt lat="48.02168" lon="6.84724">
        <ele>953.8</ele>
        <time>2022-05-28T14:26:41Z</time>
      </trkpt>
      <trkpt lat="48.02157" lon="6.8473">
        <ele>955.4</ele>
        <time>2022-05-28T14:26:45Z</time>
      </trkpt>
      <trkpt lat="48.02146" lon="6.84739">
        <ele>951.2</ele>
        <time>2022-05-28T14:26:48Z</time>
      </trkpt>
      <trkpt lat="48.02136" lon="6.84745">
        <ele>951.7</ele>
        <time>2022-05-28T14:26:50Z</time>
      </trkpt>
      <trkpt lat="48.02125" lon="6.84752">
        <ele>950.1</ele>
        <time>2022-05-28T14:26:52Z</time>
      </trkpt>
      <trkpt lat="48.02113" lon="6.84763">
        <ele>950</ele>
        <time>2022-05-28T14:26:54Z</time>
      </trkpt>
      <trkpt lat="48.021" lon="6.84773">
        <ele>945.3</ele>
        <time>2022-05-28T14:26:56Z</time>
      </trkpt>
      <trkpt lat="48.02088" lon="6.8478">
        <ele>946.3</ele>
        <time>2022-05-28T14:26:58Z</time>
      </trkpt>
      <trkpt lat="48.02075" lon="6.84774">
        <ele>946.9</ele>
        <time>2022-05-28T14:27:01Z</time>
      </trkpt>
      <trkpt lat="48.02067" lon="6.84762">
        <ele>944.9</ele>
        <time>2022-05-28T14:27:03Z</time>
      </trkpt>
      <trkpt lat="48.02058" lon="6.8474">
        <ele>943.3</ele>
        <time>2022-05-28T14:27:05Z</time>
      </trkpt>
      <trkpt lat="48.02055" lon="6.84727">
        <ele>942.2</ele>
        <time>2022-05-28T14:27:06Z</time>
      </trkpt>
      <trkpt lat="48.02053" lon="6.84714">
        <ele>941</ele>
        <time>2022-05-28T14:27:07Z</time>
      </trkpt>
      <trkpt lat="48.02052" lon="6.847">
        <ele>941.7</ele>
        <time>2022-05-28T14:27:08Z</time>
      </trkpt>
      <trkpt lat="48.02052" lon="6.84675">
        <ele>939</ele>
        <time>2022-05-28T14:27:10Z</time>
      </trkpt>
      <trkpt lat="48.02053" lon="6.84653">
        <ele>940</ele>
        <time>2022-05-28T14:27:12Z</time>
      </trkpt>
      <trkpt lat="48.0205" lon="6.84635">
        <ele>939.6</ele>
        <time>2022-05-28T14:27:14Z</time>
      </trkpt>
      <trkpt lat="48.02042" lon="6.84623">
        <ele>940</ele>
        <time>2022-05-28T14:27:16Z</time>
      </trkpt>
      <trkpt lat="48.02031" lon="6.84618">
        <ele>941</ele>
        <time>2022-05-28T14:27:18Z</time>
      </trkpt>
      <trkpt lat="48.0202" lon="6.84619">
        <ele>942.4</ele>
        <time>2022-05-28T14:27:21Z</time>
      </trkpt>
      <trkpt lat="48.02009" lon="6.84626">
        <ele>944.9</ele>
        <time>2022-05-28T14:27:24Z</time>
      </trkpt>
      <trkpt lat="48.02" lon="6.8463">
        <ele>945.3</ele>
        <time>2022-05-28T14:27:27Z</time>
      </trkpt>
      <trkpt lat="48.0199" lon="6.84633">
        <ele>947.4</ele>
        <time>2022-05-28T14:27:32Z</time>
      </trkpt>
      <trkpt lat="48.01981" lon="6.84637">
        <ele>948.4</ele>
        <time>2022-05-28T14:27:38Z</time>
      </trkpt>
      <trkpt lat="48.0197" lon="6.8464">
        <ele>950.5</ele>
        <time>2022-05-28T14:27:42Z</time>
      </trkpt>
      <trkpt lat="48.01961" lon="6.8464">
        <ele>950.1</ele>
        <time>2022-05-28T14:27:46Z</time>
      </trkpt>
      <trkpt lat="48.01952" lon="6.84641">
        <ele>950.6</ele>
        <time>2022-05-28T14:27:50Z</time>
      </trkpt>
      <trkpt lat="48.01943" lon="6.84644">
        <ele>952</ele>
        <time>2022-05-28T14:27:55Z</time>
      </trkpt>
      <trkpt lat="48.01933" lon="6.84646">
        <ele>954.8</ele>
        <time>2022-05-28T14:28:00Z</time>
      </trkpt>
      <trkpt lat="48.01923" lon="6.84645">
        <ele>954</ele>
        <time>2022-05-28T14:28:06Z</time>
      </trkpt>
      <trkpt lat="48.01913" lon="6.84644">
        <ele>954.7</ele>
        <time>2022-05-28T14:28:12Z</time>
      </trkpt>
      <trkpt lat="48.01903" lon="6.84644">
        <ele>956.1</ele>
        <time>2022-05-28T14:28:17Z</time>
      </trkpt>
      <trkpt lat="48.01893" lon="6.8464">
        <ele>957.3</ele>
        <time>2022-05-28T14:28:25Z</time>
      </trkpt>
      <trkpt lat="48.01884" lon="6.84636">
        <ele>958.6</ele>
        <time>2022-05-28T14:28:30Z</time>
      </trkpt>
      <trkpt lat="48.01875" lon="6.84629">
        <ele>959.5</ele>
        <time>2022-05-28T14:28:34Z</time>
      </trkpt>
      <trkpt lat="48.01867" lon="6.84619">
        <ele>960.5</ele>
        <time>2022-05-28T14:28:39Z</time>
      </trkpt>
      <trkpt lat="48.01862" lon="6.84605">
        <ele>961.4</ele>
        <time>2022-05-28T14:28:45Z</time>
      </trkpt>
      <trkpt lat="48.01858" lon="6.84592">
        <ele>963.2</ele>
        <time>2022-05-28T14:28:51Z</time>
      </trkpt>
      <trkpt lat="48.01851" lon="6.84583">
        <ele>963.8</ele>
        <time>2022-05-28T14:28:56Z</time>
      </trkpt>
      <trkpt lat="48.01844" lon="6.84575">
        <ele>965.8</ele>
        <time>2022-05-28T14:29:01Z</time>
      </trkpt>
      <trkpt lat="48.01835" lon="6.84567">
        <ele>965.5</ele>
        <time>2022-05-28T14:29:07Z</time>
      </trkpt>
      <trkpt lat="48.01826" lon="6.84561">
        <ele>966.5</ele>
        <time>2022-05-28T14:29:12Z</time>
      </trkpt>
      <trkpt lat="48.01816" lon="6.84559">
        <ele>967.4</ele>
        <time>2022-05-28T14:29:17Z</time>
      </trkpt>
      <trkpt lat="48.01807" lon="6.84554">
        <ele>967.9</ele>
        <time>2022-05-28T14:29:22Z</time>
      </trkpt>
      <trkpt lat="48.01798" lon="6.84552">
        <ele>969.7</ele>
        <time>2022-05-28T14:29:26Z</time>
      </trkpt>
      <trkpt lat="48.01788" lon="6.84551">
        <ele>969.8</ele>
        <time>2022-05-28T14:29:30Z</time>
      </trkpt>
      <trkpt lat="48.01779" lon="6.84551">
        <ele>970.1</ele>
        <time>2022-05-28T14:29:33Z</time>
      </trkpt>
      <trkpt lat="48.0177" lon="6.84555">
        <ele>969.7</ele>
        <time>2022-05-28T14:29:36Z</time>
      </trkpt>
      <trkpt lat="48.01759" lon="6.84561">
        <ele>968.8</ele>
        <time>2022-05-28T14:29:39Z</time>
      </trkpt>
      <trkpt lat="48.01747" lon="6.84568">
        <ele>967.8</ele>
        <time>2022-05-28T14:29:42Z</time>
      </trkpt>
      <trkpt lat="48.01735" lon="6.84575">
        <ele>967.5</ele>
        <time>2022-05-28T14:29:45Z</time>
      </trkpt>
      <trkpt lat="48.01726" lon="6.84577">
        <ele>967.3</ele>
        <time>2022-05-28T14:29:47Z</time>
      </trkpt>
      <trkpt lat="48.01714" lon="6.8457">
        <ele>966.9</ele>
        <time>2022-05-28T14:29:49Z</time>
      </trkpt>
      <trkpt lat="48.01706" lon="6.84559">
        <ele>967.8</ele>
        <time>2022-05-28T14:29:51Z</time>
      </trkpt>
      <trkpt lat="48.01698" lon="6.8455">
        <ele>966.2</ele>
        <time>2022-05-28T14:29:53Z</time>
      </trkpt>
      <trkpt lat="48.01687" lon="6.84545">
        <ele>964.7</ele>
        <time>2022-05-28T14:29:55Z</time>
      </trkpt>
      <trkpt lat="48.01674" lon="6.84544">
        <ele>963.3</ele>
        <time>2022-05-28T14:29:57Z</time>
      </trkpt>
      <trkpt lat="48.01662" lon="6.84543">
        <ele>961.7</ele>
        <time>2022-05-28T14:29:59Z</time>
      </trkpt>
      <trkpt lat="48.01652" lon="6.84543">
        <ele>962.2</ele>
        <time>2022-05-28T14:30:01Z</time>
      </trkpt>
      <trkpt lat="48.0164" lon="6.84544">
        <ele>963</ele>
        <time>2022-05-28T14:30:03Z</time>
      </trkpt>
      <trkpt lat="48.0163" lon="6.84548">
        <ele>961.1</ele>
        <time>2022-05-28T14:30:05Z</time>
      </trkpt>
      <trkpt lat="48.01618" lon="6.84554">
        <ele>960.2</ele>
        <time>2022-05-28T14:30:07Z</time>
      </trkpt>
      <trkpt lat="48.01606" lon="6.84559">
        <ele>961.2</ele>
        <time>2022-05-28T14:30:09Z</time>
      </trkpt>
      <trkpt lat="48.01596" lon="6.84563">
        <ele>961.5</ele>
        <time>2022-05-28T14:30:11Z</time>
      </trkpt>
      <trkpt lat="48.01586" lon="6.84565">
        <ele>961.8</ele>
        <time>2022-05-28T14:30:13Z</time>
      </trkpt>
      <trkpt lat="48.01577" lon="6.84569">
        <ele>962.5</ele>
        <time>2022-05-28T14:30:15Z</time>
      </trkpt>
      <trkpt lat="48.01568" lon="6.84573">
        <ele>963.5</ele>
        <time>2022-05-28T14:30:17Z</time>
      </trkpt>
      <trkpt lat="48.01556" lon="6.84581">
        <ele>965.3</ele>
        <time>2022-05-28T14:30:20Z</time>
      </trkpt>
      <trkpt lat="48.01545" lon="6.84588">
        <ele>964.6</ele>
        <time>2022-05-28T14:30:23Z</time>
      </trkpt>
      <trkpt lat="48.01536" lon="6.84597">
        <ele>966.8</ele>
        <time>2022-05-28T14:30:27Z</time>
      </trkpt>
      <trkpt lat="48.01527" lon="6.84603">
        <ele>967.1</ele>
        <time>2022-05-28T14:30:30Z</time>
      </trkpt>
      <trkpt lat="48.01517" lon="6.8461">
        <ele>967.5</ele>
        <time>2022-05-28T14:30:34Z</time>
      </trkpt>
      <trkpt lat="48.01507" lon="6.84616">
        <ele>969</ele>
        <time>2022-05-28T14:30:39Z</time>
      </trkpt>
      <trkpt lat="48.01499" lon="6.84624">
        <ele>969.9</ele>
        <time>2022-05-28T14:30:46Z</time>
      </trkpt>
      <trkpt lat="48.01488" lon="6.8463">
        <ele>970.9</ele>
        <time>2022-05-28T14:30:52Z</time>
      </trkpt>
      <trkpt lat="48.01479" lon="6.84633">
        <ele>972.6</ele>
        <time>2022-05-28T14:30:55Z</time>
      </trkpt>
      <trkpt lat="48.01469" lon="6.84635">
        <ele>973.9</ele>
        <time>2022-05-28T14:30:59Z</time>
      </trkpt>
      <trkpt lat="48.01459" lon="6.84639">
        <ele>974.7</ele>
        <time>2022-05-28T14:31:04Z</time>
      </trkpt>
      <trkpt lat="48.01451" lon="6.84647">
        <ele>975.1</ele>
        <time>2022-05-28T14:31:08Z</time>
      </trkpt>
      <trkpt lat="48.01443" lon="6.84655">
        <ele>974.8</ele>
        <time>2022-05-28T14:31:12Z</time>
      </trkpt>
      <trkpt lat="48.01436" lon="6.84669">
        <ele>976.1</ele>
        <time>2022-05-28T14:31:16Z</time>
      </trkpt>
      <trkpt lat="48.0143" lon="6.84682">
        <ele>976.2</ele>
        <time>2022-05-28T14:31:21Z</time>
      </trkpt>
      <trkpt lat="48.01424" lon="6.84694">
        <ele>976.9</ele>
        <time>2022-05-28T14:31:26Z</time>
      </trkpt>
      <trkpt lat="48.0142" lon="6.84681">
        <ele>975.6</ele>
        <time>2022-05-28T14:31:40Z</time>
      </trkpt>
      <trkpt lat="48.01414" lon="6.84667">
        <ele>977.3</ele>
        <time>2022-05-28T14:31:45Z</time>
      </trkpt>
      <trkpt lat="48.01409" lon="6.84653">
        <ele>975.5</ele>
        <time>2022-05-28T14:31:50Z</time>
      </trkpt>
      <trkpt lat="48.01405" lon="6.84641">
        <ele>976.3</ele>
        <time>2022-05-28T14:31:58Z</time>
      </trkpt>
      <trkpt lat="48.014" lon="6.84633">
        <ele>976</ele>
        <time>2022-05-28T14:32:09Z</time>
      </trkpt>
      <trkpt lat="48.01399" lon="6.84632">
        <ele>976</ele>
        <time>2022-05-28T14:32:26Z</time>
      </trkpt>
      <trkpt lat="48.01398" lon="6.84634">
        <ele>976.2</ele>
        <time>2022-05-28T14:32:34Z</time>
      </trkpt>
      <trkpt lat="48.01397" lon="6.84634">
        <ele>975.7</ele>
        <time>2022-05-28T14:32:37Z</time>
      </trkpt>
      <trkpt lat="48.01396" lon="6.84633">
        <ele>976</ele>
        <time>2022-05-28T14:32:47Z</time>
      </trkpt>
      <trkpt lat="48.01396" lon="6.84634">
        <ele>976.2</ele>
        <time>2022-05-28T14:32:50Z</time>
      </trkpt>
      <trkpt lat="48.01401" lon="6.84647">
        <ele>976.6</ele>
        <time>2022-05-28T14:33:10Z</time>
      </trkpt>
      <trkpt lat="48.01408" lon="6.84659">
        <ele>975.6</ele>
        <time>2022-05-28T14:33:15Z</time>
      </trkpt>
      <trkpt lat="48.01414" lon="6.84674">
        <ele>976.7</ele>
        <time>2022-05-28T14:33:19Z</time>
      </trkpt>
      <trkpt lat="48.0142" lon="6.84686">
        <ele>977.6</ele>
        <time>2022-05-28T14:33:23Z</time>
      </trkpt>
      <trkpt lat="48.01426" lon="6.84699">
        <ele>976.6</ele>
        <time>2022-05-28T14:33:26Z</time>
      </trkpt>
      <trkpt lat="48.01424" lon="6.84714">
        <ele>978.1</ele>
        <time>2022-05-28T14:33:30Z</time>
      </trkpt>
      <trkpt lat="48.01418" lon="6.84728">
        <ele>978.3</ele>
        <time>2022-05-28T14:33:34Z</time>
      </trkpt>
      <trkpt lat="48.01415" lon="6.84741">
        <ele>979.1</ele>
        <time>2022-05-28T14:33:42Z</time>
      </trkpt>
      <trkpt lat="48.0141" lon="6.84754">
        <ele>978</ele>
        <time>2022-05-28T14:34:52Z</time>
      </trkpt>
      <trkpt lat="48.01402" lon="6.84762">
        <ele>977.7</ele>
        <time>2022-05-28T14:34:56Z</time>
      </trkpt>
      <trkpt lat="48.01394" lon="6.84773">
        <ele>979.4</ele>
        <time>2022-05-28T14:34:59Z</time>
      </trkpt>
      <trkpt lat="48.01386" lon="6.84782">
        <ele>979.6</ele>
        <time>2022-05-28T14:35:02Z</time>
      </trkpt>
      <trkpt lat="48.01378" lon="6.84792">
        <ele>979.8</ele>
        <time>2022-05-28T14:35:06Z</time>
      </trkpt>
      <trkpt lat="48.01371" lon="6.84803">
        <ele>981</ele>
        <time>2022-05-28T14:35:10Z</time>
      </trkpt>
      <trkpt lat="48.01365" lon="6.84814">
        <ele>982.3</ele>
        <time>2022-05-28T14:35:15Z</time>
      </trkpt>
      <trkpt lat="48.01358" lon="6.84826">
        <ele>982.4</ele>
        <time>2022-05-28T14:35:21Z</time>
      </trkpt>
      <trkpt lat="48.01356" lon="6.84839">
        <ele>983.3</ele>
        <time>2022-05-28T14:35:26Z</time>
      </trkpt>
      <trkpt lat="48.0135" lon="6.8485">
        <ele>983.4</ele>
        <time>2022-05-28T14:35:31Z</time>
      </trkpt>
      <trkpt lat="48.01342" lon="6.84858">
        <ele>981</ele>
        <time>2022-05-28T14:35:35Z</time>
      </trkpt>
      <trkpt lat="48.0133" lon="6.84867">
        <ele>980.1</ele>
        <time>2022-05-28T14:35:39Z</time>
      </trkpt>
      <trkpt lat="48.01319" lon="6.84874">
        <ele>979.8</ele>
        <time>2022-05-28T14:35:42Z</time>
      </trkpt>
      <trkpt lat="48.0131" lon="6.84876">
        <ele>980.9</ele>
        <time>2022-05-28T14:35:45Z</time>
      </trkpt>
      <trkpt lat="48.013" lon="6.8488">
        <ele>981.9</ele>
        <time>2022-05-28T14:35:50Z</time>
      </trkpt>
      <trkpt lat="48.01291" lon="6.8489">
        <ele>982.2</ele>
        <time>2022-05-28T14:35:56Z</time>
      </trkpt>
      <trkpt lat="48.01282" lon="6.84894">
        <ele>983.2</ele>
        <time>2022-05-28T14:35:59Z</time>
      </trkpt>
      <trkpt lat="48.01273" lon="6.849">
        <ele>983.7</ele>
        <time>2022-05-28T14:36:05Z</time>
      </trkpt>
      <trkpt lat="48.01263" lon="6.849">
        <ele>984.9</ele>
        <time>2022-05-28T14:36:14Z</time>
      </trkpt>
      <trkpt lat="48.01257" lon="6.84887">
        <ele>984.6</ele>
        <time>2022-05-28T14:36:27Z</time>
      </trkpt>
      <trkpt lat="48.01253" lon="6.84872">
        <ele>986.5</ele>
        <time>2022-05-28T14:36:33Z</time>
      </trkpt>
      <trkpt lat="48.01248" lon="6.8486">
        <ele>986.8</ele>
        <time>2022-05-28T14:36:38Z</time>
      </trkpt>
      <trkpt lat="48.01243" lon="6.84848">
        <ele>988.3</ele>
        <time>2022-05-28T14:36:43Z</time>
      </trkpt>
      <trkpt lat="48.01238" lon="6.84837">
        <ele>989.5</ele>
        <time>2022-05-28T14:36:51Z</time>
      </trkpt>
      <trkpt lat="48.01231" lon="6.84827">
        <ele>990.3</ele>
        <time>2022-05-28T14:36:56Z</time>
      </trkpt>
      <trkpt lat="48.01224" lon="6.84818">
        <ele>992.1</ele>
        <time>2022-05-28T14:37:04Z</time>
      </trkpt>
      <trkpt lat="48.0122" lon="6.84814">
        <ele>993.3</ele>
        <time>2022-05-28T14:37:10Z</time>
      </trkpt>
      <trkpt lat="48.01211" lon="6.8481">
        <ele>995.5</ele>
        <time>2022-05-28T14:37:21Z</time>
      </trkpt>
      <trkpt lat="48.01201" lon="6.84809">
        <ele>997.5</ele>
        <time>2022-05-28T14:37:31Z</time>
      </trkpt>
      <trkpt lat="48.01192" lon="6.84808">
        <ele>999.3</ele>
        <time>2022-05-28T14:37:43Z</time>
      </trkpt>
      <trkpt lat="48.01184" lon="6.84808">
        <ele>1001.6</ele>
        <time>2022-05-28T14:37:55Z</time>
      </trkpt>
      <trkpt lat="48.01183" lon="6.84807">
        <ele>1001.8</ele>
        <time>2022-05-28T14:37:58Z</time>
      </trkpt>
      <trkpt lat="48.01174" lon="6.84808">
        <ele>1002.5</ele>
        <time>2022-05-28T14:38:04Z</time>
      </trkpt>
      <trkpt lat="48.01163" lon="6.84806">
        <ele>1005.7</ele>
        <time>2022-05-28T14:38:10Z</time>
      </trkpt>
      <trkpt lat="48.01153" lon="6.84809">
        <ele>1006.1</ele>
        <time>2022-05-28T14:38:15Z</time>
      </trkpt>
      <trkpt lat="48.01144" lon="6.84808">
        <ele>1006.4</ele>
        <time>2022-05-28T14:38:22Z</time>
      </trkpt>
      <trkpt lat="48.01144" lon="6.84809">
        <ele>1006.4</ele>
        <time>2022-05-28T14:38:25Z</time>
      </trkpt>
      <trkpt lat="48.01144" lon="6.84808">
        <ele>1006</ele>
        <time>2022-05-28T14:38:54Z</time>
      </trkpt>
      <trkpt lat="48.01144" lon="6.84808">
        <ele>1005.8</ele>
        <time>2022-05-28T14:38:56Z</time>
      </trkpt>
      <trkpt lat="48.01143" lon="6.84807">
        <ele>1006.1</ele>
        <time>2022-05-28T14:39:04Z</time>
      </trkpt>
      <trkpt lat="48.01143" lon="6.84807">
        <ele>1005.9</ele>
        <time>2022-05-28T14:39:44Z</time>
      </trkpt>
      <trkpt lat="48.01143" lon="6.84808">
        <ele>1005.4</ele>
        <time>2022-05-28T14:39:58Z</time>
      </trkpt>
      <trkpt lat="48.01137" lon="6.84799">
        <ele>1005.6</ele>
        <time>2022-05-28T14:40:15Z</time>
      </trkpt>
      <trkpt lat="48.01136" lon="6.848">
        <ele>1005.4</ele>
        <time>2022-05-28T14:40:36Z</time>
      </trkpt>
      <trkpt lat="48.01144" lon="6.84812">
        <ele>1003.2</ele>
        <time>2022-05-28T14:42:09Z</time>
      </trkpt>
      <trkpt lat="48.01149" lon="6.84822">
        <ele>1004.9</ele>
        <time>2022-05-28T14:42:14Z</time>
      </trkpt>
      <trkpt lat="48.01157" lon="6.84831">
        <ele>1005.2</ele>
        <time>2022-05-28T14:42:20Z</time>
      </trkpt>
      <trkpt lat="48.01167" lon="6.84834">
        <ele>1008.1</ele>
        <time>2022-05-28T14:42:28Z</time>
      </trkpt>
      <trkpt lat="48.01176" lon="6.84837">
        <ele>1009.6</ele>
        <time>2022-05-28T14:42:35Z</time>
      </trkpt>
      <trkpt lat="48.01184" lon="6.84842">
        <ele>1008.5</ele>
        <time>2022-05-28T14:42:40Z</time>
      </trkpt>
      <trkpt lat="48.01194" lon="6.84852">
        <ele>1007.4</ele>
        <time>2022-05-28T14:42:45Z</time>
      </trkpt>
      <trkpt lat="48.012" lon="6.84863">
        <ele>1007.4</ele>
        <time>2022-05-28T14:42:48Z</time>
      </trkpt>
      <trkpt lat="48.01205" lon="6.84876">
        <ele>1007.6</ele>
        <time>2022-05-28T14:42:52Z</time>
      </trkpt>
      <trkpt lat="48.0121" lon="6.84888">
        <ele>1008.8</ele>
        <time>2022-05-28T14:42:56Z</time>
      </trkpt>
      <trkpt lat="48.0121" lon="6.84903">
        <ele>1008.6</ele>
        <time>2022-05-28T14:43:00Z</time>
      </trkpt>
      <trkpt lat="48.01213" lon="6.84918">
        <ele>1010</ele>
        <time>2022-05-28T14:43:04Z</time>
      </trkpt>
      <trkpt lat="48.01217" lon="6.84932">
        <ele>1009.5</ele>
        <time>2022-05-28T14:43:08Z</time>
      </trkpt>
      <trkpt lat="48.01221" lon="6.84948">
        <ele>1009.1</ele>
        <time>2022-05-28T14:43:11Z</time>
      </trkpt>
      <trkpt lat="48.01224" lon="6.84966">
        <ele>1008.7</ele>
        <time>2022-05-28T14:43:14Z</time>
      </trkpt>
      <trkpt lat="48.01224" lon="6.84984">
        <ele>1008.3</ele>
        <time>2022-05-28T14:43:17Z</time>
      </trkpt>
      <trkpt lat="48.01224" lon="6.85001">
        <ele>1009.6</ele>
        <time>2022-05-28T14:43:20Z</time>
      </trkpt>
      <trkpt lat="48.01232" lon="6.8501">
        <ele>1008.1</ele>
        <time>2022-05-28T14:43:23Z</time>
      </trkpt>
      <trkpt lat="48.01243" lon="6.85008">
        <ele>1007.8</ele>
        <time>2022-05-28T14:43:26Z</time>
      </trkpt>
      <trkpt lat="48.01252" lon="6.85002">
        <ele>1008.4</ele>
        <time>2022-05-28T14:43:29Z</time>
      </trkpt>
      <trkpt lat="48.01261" lon="6.85">
        <ele>1008.3</ele>
        <time>2022-05-28T14:43:32Z</time>
      </trkpt>
      <trkpt lat="48.01271" lon="6.85004">
        <ele>1008.6</ele>
        <time>2022-05-28T14:43:35Z</time>
      </trkpt>
      <trkpt lat="48.01283" lon="6.85014">
        <ele>1008.1</ele>
        <time>2022-05-28T14:43:38Z</time>
      </trkpt>
      <trkpt lat="48.01291" lon="6.85023">
        <ele>1007.2</ele>
        <time>2022-05-28T14:43:40Z</time>
      </trkpt>
      <trkpt lat="48.01302" lon="6.85031">
        <ele>1005.6</ele>
        <time>2022-05-28T14:43:43Z</time>
      </trkpt>
      <trkpt lat="48.01313" lon="6.85029">
        <ele>1005.7</ele>
        <time>2022-05-28T14:43:47Z</time>
      </trkpt>
      <trkpt lat="48.01324" lon="6.85021">
        <ele>1003.9</ele>
        <time>2022-05-28T14:43:51Z</time>
      </trkpt>
      <trkpt lat="48.01334" lon="6.85014">
        <ele>1003.5</ele>
        <time>2022-05-28T14:43:54Z</time>
      </trkpt>
      <trkpt lat="48.01344" lon="6.85008">
        <ele>1003.2</ele>
        <time>2022-05-28T14:43:56Z</time>
      </trkpt>
      <trkpt lat="48.01354" lon="6.85001">
        <ele>1003.4</ele>
        <time>2022-05-28T14:43:58Z</time>
      </trkpt>
      <trkpt lat="48.01366" lon="6.84999">
        <ele>1001.5</ele>
        <time>2022-05-28T14:44:01Z</time>
      </trkpt>
      <trkpt lat="48.0138" lon="6.85003">
        <ele>1003.9</ele>
        <time>2022-05-28T14:44:04Z</time>
      </trkpt>
      <trkpt lat="48.01391" lon="6.85007">
        <ele>1003.6</ele>
        <time>2022-05-28T14:44:07Z</time>
      </trkpt>
      <trkpt lat="48.014" lon="6.85013">
        <ele>1004.9</ele>
        <time>2022-05-28T14:44:10Z</time>
      </trkpt>
      <trkpt lat="48.01407" lon="6.85021">
        <ele>1006.8</ele>
        <time>2022-05-28T14:44:14Z</time>
      </trkpt>
      <trkpt lat="48.01415" lon="6.85031">
        <ele>1006.7</ele>
        <time>2022-05-28T14:44:17Z</time>
      </trkpt>
      <trkpt lat="48.01423" lon="6.85041">
        <ele>1006.2</ele>
        <time>2022-05-28T14:44:20Z</time>
      </trkpt>
      <trkpt lat="48.0143" lon="6.85051">
        <ele>1008.7</ele>
        <time>2022-05-28T14:44:23Z</time>
      </trkpt>
      <trkpt lat="48.01439" lon="6.85056">
        <ele>1010.4</ele>
        <time>2022-05-28T14:44:28Z</time>
      </trkpt>
      <trkpt lat="48.01449" lon="6.85061">
        <ele>1011.4</ele>
        <time>2022-05-28T14:44:33Z</time>
      </trkpt>
      <trkpt lat="48.01458" lon="6.85066">
        <ele>1013.4</ele>
        <time>2022-05-28T14:44:37Z</time>
      </trkpt>
      <trkpt lat="48.01457" lon="6.8508">
        <ele>1013.6</ele>
        <time>2022-05-28T14:44:44Z</time>
      </trkpt>
      <trkpt lat="48.01463" lon="6.85092">
        <ele>1013.3</ele>
        <time>2022-05-28T14:45:07Z</time>
      </trkpt>
      <trkpt lat="48.01469" lon="6.85102">
        <ele>1014.4</ele>
        <time>2022-05-28T14:45:12Z</time>
      </trkpt>
      <trkpt lat="48.01471" lon="6.85115">
        <ele>1015.9</ele>
        <time>2022-05-28T14:45:18Z</time>
      </trkpt>
      <trkpt lat="48.0147" lon="6.8513">
        <ele>1017.5</ele>
        <time>2022-05-28T14:45:25Z</time>
      </trkpt>
      <trkpt lat="48.01471" lon="6.85143">
        <ele>1019.6</ele>
        <time>2022-05-28T14:45:31Z</time>
      </trkpt>
      <trkpt lat="48.01468" lon="6.85157">
        <ele>1021.6</ele>
        <time>2022-05-28T14:45:39Z</time>
      </trkpt>
      <trkpt lat="48.01465" lon="6.85171">
        <ele>1022.7</ele>
        <time>2022-05-28T14:45:46Z</time>
      </trkpt>
      <trkpt lat="48.01466" lon="6.85185">
        <ele>1024.2</ele>
        <time>2022-05-28T14:45:55Z</time>
      </trkpt>
      <trkpt lat="48.01469" lon="6.852">
        <ele>1026.6</ele>
        <time>2022-05-28T14:46:03Z</time>
      </trkpt>
      <trkpt lat="48.01473" lon="6.85211">
        <ele>1028.4</ele>
        <time>2022-05-28T14:46:09Z</time>
      </trkpt>
      <trkpt lat="48.01473" lon="6.85225">
        <ele>1028.6</ele>
        <time>2022-05-28T14:46:15Z</time>
      </trkpt>
      <trkpt lat="48.01465" lon="6.85235">
        <ele>1029.5</ele>
        <time>2022-05-28T14:46:22Z</time>
      </trkpt>
      <trkpt lat="48.01455" lon="6.85235">
        <ele>1031.4</ele>
        <time>2022-05-28T14:46:29Z</time>
      </trkpt>
      <trkpt lat="48.01447" lon="6.85243">
        <ele>1032.8</ele>
        <time>2022-05-28T14:46:37Z</time>
      </trkpt>
      <trkpt lat="48.01439" lon="6.85249">
        <ele>1034.8</ele>
        <time>2022-05-28T14:46:44Z</time>
      </trkpt>
      <trkpt lat="48.0143" lon="6.85257">
        <ele>1035.5</ele>
        <time>2022-05-28T14:46:51Z</time>
      </trkpt>
      <trkpt lat="48.01422" lon="6.85261">
        <ele>1036</ele>
        <time>2022-05-28T14:46:56Z</time>
      </trkpt>
      <trkpt lat="48.01412" lon="6.85264">
        <ele>1037.2</ele>
        <time>2022-05-28T14:47:02Z</time>
      </trkpt>
      <trkpt lat="48.01402" lon="6.85263">
        <ele>1037.8</ele>
        <time>2022-05-28T14:47:07Z</time>
      </trkpt>
      <trkpt lat="48.01391" lon="6.85264">
        <ele>1038.1</ele>
        <time>2022-05-28T14:47:12Z</time>
      </trkpt>
      <trkpt lat="48.01381" lon="6.85266">
        <ele>1038.4</ele>
        <time>2022-05-28T14:47:16Z</time>
      </trkpt>
      <trkpt lat="48.01373" lon="6.8527">
        <ele>1037.7</ele>
        <time>2022-05-28T14:47:21Z</time>
      </trkpt>
      <trkpt lat="48.01363" lon="6.85271">
        <ele>1037.8</ele>
        <time>2022-05-28T14:47:27Z</time>
      </trkpt>
      <trkpt lat="48.01354" lon="6.85271">
        <ele>1038.8</ele>
        <time>2022-05-28T14:47:31Z</time>
      </trkpt>
      <trkpt lat="48.01345" lon="6.85274">
        <ele>1037.9</ele>
        <time>2022-05-28T14:47:36Z</time>
      </trkpt>
      <trkpt lat="48.01335" lon="6.85274">
        <ele>1037.9</ele>
        <time>2022-05-28T14:47:41Z</time>
      </trkpt>
      <trkpt lat="48.01325" lon="6.85275">
        <ele>1038.5</ele>
        <time>2022-05-28T14:47:47Z</time>
      </trkpt>
      <trkpt lat="48.01313" lon="6.85276">
        <ele>1038.7</ele>
        <time>2022-05-28T14:47:51Z</time>
      </trkpt>
      <trkpt lat="48.01304" lon="6.85275">
        <ele>1038.7</ele>
        <time>2022-05-28T14:47:55Z</time>
      </trkpt>
      <trkpt lat="48.01294" lon="6.85272">
        <ele>1038.8</ele>
        <time>2022-05-28T14:47:59Z</time>
      </trkpt>
      <trkpt lat="48.01283" lon="6.85269">
        <ele>1038.6</ele>
        <time>2022-05-28T14:48:03Z</time>
      </trkpt>
      <trkpt lat="48.01272" lon="6.85268">
        <ele>1038.5</ele>
        <time>2022-05-28T14:48:07Z</time>
      </trkpt>
      <trkpt lat="48.01263" lon="6.85267">
        <ele>1038.6</ele>
        <time>2022-05-28T14:48:10Z</time>
      </trkpt>
      <trkpt lat="48.01254" lon="6.85267">
        <ele>1038.7</ele>
        <time>2022-05-28T14:48:13Z</time>
      </trkpt>
      <trkpt lat="48.01243" lon="6.85264">
        <ele>1039.3</ele>
        <time>2022-05-28T14:48:17Z</time>
      </trkpt>
      <trkpt lat="48.01233" lon="6.85261">
        <ele>1040</ele>
        <time>2022-05-28T14:48:22Z</time>
      </trkpt>
      <trkpt lat="48.01222" lon="6.85261">
        <ele>1040.8</ele>
        <time>2022-05-28T14:48:27Z</time>
      </trkpt>
      <trkpt lat="48.01211" lon="6.85258">
        <ele>1041.2</ele>
        <time>2022-05-28T14:48:32Z</time>
      </trkpt>
      <trkpt lat="48.01201" lon="6.85254">
        <ele>1041.3</ele>
        <time>2022-05-28T14:48:35Z</time>
      </trkpt>
      <trkpt lat="48.01192" lon="6.85249">
        <ele>1040.5</ele>
        <time>2022-05-28T14:48:38Z</time>
      </trkpt>
      <trkpt lat="48.01183" lon="6.85241">
        <ele>1039</ele>
        <time>2022-05-28T14:48:41Z</time>
      </trkpt>
      <trkpt lat="48.01173" lon="6.85234">
        <ele>1037.6</ele>
        <time>2022-05-28T14:48:44Z</time>
      </trkpt>
      <trkpt lat="48.01162" lon="6.85231">
        <ele>1037.1</ele>
        <time>2022-05-28T14:48:48Z</time>
      </trkpt>
      <trkpt lat="48.01152" lon="6.85231">
        <ele>1035.7</ele>
        <time>2022-05-28T14:48:52Z</time>
      </trkpt>
      <trkpt lat="48.01143" lon="6.85234">
        <ele>1034</ele>
        <time>2022-05-28T14:48:56Z</time>
      </trkpt>
      <trkpt lat="48.0113" lon="6.85237">
        <ele>1032</ele>
        <time>2022-05-28T14:49:00Z</time>
      </trkpt>
      <trkpt lat="48.01119" lon="6.85238">
        <ele>1029.8</ele>
        <time>2022-05-28T14:49:03Z</time>
      </trkpt>
      <trkpt lat="48.01112" lon="6.85246">
        <ele>1029.5</ele>
        <time>2022-05-28T14:49:07Z</time>
      </trkpt>
      <trkpt lat="48.01107" lon="6.85259">
        <ele>1029</ele>
        <time>2022-05-28T14:49:11Z</time>
      </trkpt>
      <trkpt lat="48.01104" lon="6.85267">
        <ele>1028.9</ele>
        <time>2022-05-28T14:49:16Z</time>
      </trkpt>
      <trkpt lat="48.01104" lon="6.85266">
        <ele>1029.4</ele>
        <time>2022-05-28T14:49:19Z</time>
      </trkpt>
      <trkpt lat="48.01103" lon="6.85266">
        <ele>1026.4</ele>
        <time>2022-05-28T14:51:41Z</time>
      </trkpt>
      <trkpt lat="48.011" lon="6.85282">
        <ele>1024.9</ele>
        <time>2022-05-28T14:51:48Z</time>
      </trkpt>
      <trkpt lat="48.01097" lon="6.85295">
        <ele>1025.1</ele>
        <time>2022-05-28T14:51:51Z</time>
      </trkpt>
      <trkpt lat="48.01094" lon="6.85309">
        <ele>1025.4</ele>
        <time>2022-05-28T14:51:55Z</time>
      </trkpt>
      <trkpt lat="48.01089" lon="6.85321">
        <ele>1024.7</ele>
        <time>2022-05-28T14:51:59Z</time>
      </trkpt>
      <trkpt lat="48.01085" lon="6.85337">
        <ele>1023.1</ele>
        <time>2022-05-28T14:52:03Z</time>
      </trkpt>
      <trkpt lat="48.01081" lon="6.85349">
        <ele>1018.9</ele>
        <time>2022-05-28T14:52:05Z</time>
      </trkpt>
      <trkpt lat="48.01076" lon="6.85364">
        <ele>1020.7</ele>
        <time>2022-05-28T14:52:07Z</time>
      </trkpt>
      <trkpt lat="48.0107" lon="6.8538">
        <ele>1020.7</ele>
        <time>2022-05-28T14:52:09Z</time>
      </trkpt>
      <trkpt lat="48.01061" lon="6.85391">
        <ele>1019</ele>
        <time>2022-05-28T14:52:11Z</time>
      </trkpt>
      <trkpt lat="48.01051" lon="6.85398">
        <ele>1019.4</ele>
        <time>2022-05-28T14:52:13Z</time>
      </trkpt>
      <trkpt lat="48.01043" lon="6.85408">
        <ele>1018.8</ele>
        <time>2022-05-28T14:52:15Z</time>
      </trkpt>
      <trkpt lat="48.01037" lon="6.85422">
        <ele>1018.5</ele>
        <time>2022-05-28T14:52:17Z</time>
      </trkpt>
      <trkpt lat="48.01034" lon="6.85436">
        <ele>1019.6</ele>
        <time>2022-05-28T14:52:19Z</time>
      </trkpt>
      <trkpt lat="48.01032" lon="6.8545">
        <ele>1019.4</ele>
        <time>2022-05-28T14:52:21Z</time>
      </trkpt>
      <trkpt lat="48.0103" lon="6.85466">
        <ele>1021.3</ele>
        <time>2022-05-28T14:52:24Z</time>
      </trkpt>
      <trkpt lat="48.01028" lon="6.85483">
        <ele>1020.1</ele>
        <time>2022-05-28T14:52:27Z</time>
      </trkpt>
      <trkpt lat="48.01026" lon="6.855">
        <ele>1022</ele>
        <time>2022-05-28T14:52:30Z</time>
      </trkpt>
      <trkpt lat="48.01025" lon="6.85519">
        <ele>1021.2</ele>
        <time>2022-05-28T14:52:33Z</time>
      </trkpt>
      <trkpt lat="48.01023" lon="6.85531">
        <ele>1021.7</ele>
        <time>2022-05-28T14:52:35Z</time>
      </trkpt>
      <trkpt lat="48.01017" lon="6.85549">
        <ele>1019.6</ele>
        <time>2022-05-28T14:52:38Z</time>
      </trkpt>
      <trkpt lat="48.01011" lon="6.85566">
        <ele>1020.2</ele>
        <time>2022-05-28T14:52:41Z</time>
      </trkpt>
      <trkpt lat="48.01008" lon="6.8558">
        <ele>1022.2</ele>
        <time>2022-05-28T14:52:44Z</time>
      </trkpt>
      <trkpt lat="48.01006" lon="6.85598">
        <ele>1021.1</ele>
        <time>2022-05-28T14:52:48Z</time>
      </trkpt>
      <trkpt lat="48.01003" lon="6.85616">
        <ele>1019</ele>
        <time>2022-05-28T14:52:51Z</time>
      </trkpt>
      <trkpt lat="48.01002" lon="6.8563">
        <ele>1021.4</ele>
        <time>2022-05-28T14:52:53Z</time>
      </trkpt>
      <trkpt lat="48.01002" lon="6.85648">
        <ele>1019.6</ele>
        <time>2022-05-28T14:52:56Z</time>
      </trkpt>
      <trkpt lat="48.01003" lon="6.85664">
        <ele>1019.2</ele>
        <time>2022-05-28T14:52:59Z</time>
      </trkpt>
      <trkpt lat="48.01006" lon="6.85683">
        <ele>1016.5</ele>
        <time>2022-05-28T14:53:02Z</time>
      </trkpt>
      <trkpt lat="48.01007" lon="6.85697">
        <ele>1016.6</ele>
        <time>2022-05-28T14:53:04Z</time>
      </trkpt>
      <trkpt lat="48.0101" lon="6.85714">
        <ele>1017.4</ele>
        <time>2022-05-28T14:53:07Z</time>
      </trkpt>
      <trkpt lat="48.01012" lon="6.85728">
        <ele>1018.7</ele>
        <time>2022-05-28T14:53:12Z</time>
      </trkpt>
      <trkpt lat="48.01016" lon="6.85743">
        <ele>1017.2</ele>
        <time>2022-05-28T14:53:17Z</time>
      </trkpt>
      <trkpt lat="48.01018" lon="6.85759">
        <ele>1016.8</ele>
        <time>2022-05-28T14:53:21Z</time>
      </trkpt>
      <trkpt lat="48.01017" lon="6.85773">
        <ele>1015.6</ele>
        <time>2022-05-28T14:53:24Z</time>
      </trkpt>
      <trkpt lat="48.01012" lon="6.8579">
        <ele>1013.4</ele>
        <time>2022-05-28T14:53:27Z</time>
      </trkpt>
      <trkpt lat="48.01011" lon="6.85804">
        <ele>1012.4</ele>
        <time>2022-05-28T14:53:29Z</time>
      </trkpt>
      <trkpt lat="48.01013" lon="6.85822">
        <ele>1011</ele>
        <time>2022-05-28T14:53:31Z</time>
      </trkpt>
      <trkpt lat="48.01013" lon="6.8584">
        <ele>1010.4</ele>
        <time>2022-05-28T14:53:33Z</time>
      </trkpt>
      <trkpt lat="48.01011" lon="6.85857">
        <ele>1010.8</ele>
        <time>2022-05-28T14:53:35Z</time>
      </trkpt>
      <trkpt lat="48.01007" lon="6.85873">
        <ele>1010</ele>
        <time>2022-05-28T14:53:37Z</time>
      </trkpt>
      <trkpt lat="48.01004" lon="6.85888">
        <ele>1008</ele>
        <time>2022-05-28T14:53:39Z</time>
      </trkpt>
      <trkpt lat="48.01002" lon="6.85904">
        <ele>1006.8</ele>
        <time>2022-05-28T14:53:41Z</time>
      </trkpt>
      <trkpt lat="48.01001" lon="6.85921">
        <ele>1005.7</ele>
        <time>2022-05-28T14:53:43Z</time>
      </trkpt>
      <trkpt lat="48.01003" lon="6.85937">
        <ele>1002.1</ele>
        <time>2022-05-28T14:53:45Z</time>
      </trkpt>
      <trkpt lat="48.01009" lon="6.85954">
        <ele>1000.6</ele>
        <time>2022-05-28T14:53:47Z</time>
      </trkpt>
      <trkpt lat="48.01017" lon="6.85973">
        <ele>1001.4</ele>
        <time>2022-05-28T14:53:49Z</time>
      </trkpt>
      <trkpt lat="48.01028" lon="6.85991">
        <ele>1001.2</ele>
        <time>2022-05-28T14:53:51Z</time>
      </trkpt>
      <trkpt lat="48.01039" lon="6.8601">
        <ele>995.9</ele>
        <time>2022-05-28T14:53:53Z</time>
      </trkpt>
      <trkpt lat="48.01046" lon="6.86032">
        <ele>994.3</ele>
        <time>2022-05-28T14:53:55Z</time>
      </trkpt>
      <trkpt lat="48.01055" lon="6.86051">
        <ele>992.3</ele>
        <time>2022-05-28T14:53:57Z</time>
      </trkpt>
      <trkpt lat="48.01065" lon="6.86068">
        <ele>995.5</ele>
        <time>2022-05-28T14:53:59Z</time>
      </trkpt>
      <trkpt lat="48.01077" lon="6.86082">
        <ele>993.6</ele>
        <time>2022-05-28T14:54:01Z</time>
      </trkpt>
      <trkpt lat="48.01089" lon="6.86092">
        <ele>993.9</ele>
        <time>2022-05-28T14:54:03Z</time>
      </trkpt>
      <trkpt lat="48.01101" lon="6.86095">
        <ele>994.7</ele>
        <time>2022-05-28T14:54:05Z</time>
      </trkpt>
      <trkpt lat="48.01113" lon="6.86096">
        <ele>996.2</ele>
        <time>2022-05-28T14:54:07Z</time>
      </trkpt>
      <trkpt lat="48.01124" lon="6.86096">
        <ele>997.2</ele>
        <time>2022-05-28T14:54:09Z</time>
      </trkpt>
      <trkpt lat="48.01134" lon="6.86095">
        <ele>996.7</ele>
        <time>2022-05-28T14:54:11Z</time>
      </trkpt>
      <trkpt lat="48.01145" lon="6.86095">
        <ele>996.2</ele>
        <time>2022-05-28T14:54:13Z</time>
      </trkpt>
      <trkpt lat="48.01155" lon="6.86097">
        <ele>995.7</ele>
        <time>2022-05-28T14:54:15Z</time>
      </trkpt>
      <trkpt lat="48.01165" lon="6.861">
        <ele>997.5</ele>
        <time>2022-05-28T14:54:17Z</time>
      </trkpt>
      <trkpt lat="48.01174" lon="6.86105">
        <ele>997.9</ele>
        <time>2022-05-28T14:54:19Z</time>
      </trkpt>
      <trkpt lat="48.01183" lon="6.86109">
        <ele>998.4</ele>
        <time>2022-05-28T14:54:21Z</time>
      </trkpt>
      <trkpt lat="48.01194" lon="6.86114">
        <ele>998.7</ele>
        <time>2022-05-28T14:54:24Z</time>
      </trkpt>
      <trkpt lat="48.01203" lon="6.86119">
        <ele>1000.1</ele>
        <time>2022-05-28T14:54:27Z</time>
      </trkpt>
      <trkpt lat="48.01214" lon="6.86127">
        <ele>1000.8</ele>
        <time>2022-05-28T14:54:30Z</time>
      </trkpt>
      <trkpt lat="48.01225" lon="6.86133">
        <ele>1000.3</ele>
        <time>2022-05-28T14:54:33Z</time>
      </trkpt>
      <trkpt lat="48.01236" lon="6.86136">
        <ele>999.2</ele>
        <time>2022-05-28T14:54:36Z</time>
      </trkpt>
      <trkpt lat="48.01246" lon="6.86138">
        <ele>1001.5</ele>
        <time>2022-05-28T14:54:39Z</time>
      </trkpt>
      <trkpt lat="48.01255" lon="6.86139">
        <ele>1004</ele>
        <time>2022-05-28T14:54:43Z</time>
      </trkpt>
      <trkpt lat="48.01265" lon="6.86139">
        <ele>1004.7</ele>
        <time>2022-05-28T14:54:48Z</time>
      </trkpt>
      <trkpt lat="48.01274" lon="6.86137">
        <ele>1004.9</ele>
        <time>2022-05-28T14:54:52Z</time>
      </trkpt>
      <trkpt lat="48.01285" lon="6.86136">
        <ele>1004.9</ele>
        <time>2022-05-28T14:54:57Z</time>
      </trkpt>
      <trkpt lat="48.01295" lon="6.8614">
        <ele>1006.4</ele>
        <time>2022-05-28T14:55:01Z</time>
      </trkpt>
      <trkpt lat="48.01299" lon="6.86155">
        <ele>1005.2</ele>
        <time>2022-05-28T14:55:05Z</time>
      </trkpt>
      <trkpt lat="48.01303" lon="6.8617">
        <ele>1003.6</ele>
        <time>2022-05-28T14:55:08Z</time>
      </trkpt>
      <trkpt lat="48.01309" lon="6.86188">
        <ele>1003.4</ele>
        <time>2022-05-28T14:55:11Z</time>
      </trkpt>
      <trkpt lat="48.01314" lon="6.862">
        <ele>1003.1</ele>
        <time>2022-05-28T14:55:13Z</time>
      </trkpt>
      <trkpt lat="48.01322" lon="6.86212">
        <ele>1001</ele>
        <time>2022-05-28T14:55:15Z</time>
      </trkpt>
      <trkpt lat="48.01332" lon="6.86222">
        <ele>1000.6</ele>
        <time>2022-05-28T14:55:17Z</time>
      </trkpt>
      <trkpt lat="48.01341" lon="6.86233">
        <ele>1001.8</ele>
        <time>2022-05-28T14:55:19Z</time>
      </trkpt>
      <trkpt lat="48.01349" lon="6.86244">
        <ele>1000.3</ele>
        <time>2022-05-28T14:55:21Z</time>
      </trkpt>
      <trkpt lat="48.01355" lon="6.86256">
        <ele>999.5</ele>
        <time>2022-05-28T14:55:23Z</time>
      </trkpt>
      <trkpt lat="48.01361" lon="6.86271">
        <ele>1001.8</ele>
        <time>2022-05-28T14:55:26Z</time>
      </trkpt>
      <trkpt lat="48.01366" lon="6.86283">
        <ele>1001.9</ele>
        <time>2022-05-28T14:55:36Z</time>
      </trkpt>
      <trkpt lat="48.01369" lon="6.86281">
        <ele>1001.6</ele>
        <time>2022-05-28T14:55:44Z</time>
      </trkpt>
      <trkpt lat="48.0137" lon="6.86281">
        <ele>1001</ele>
        <time>2022-05-28T14:56:32Z</time>
      </trkpt>
      <trkpt lat="48.01369" lon="6.86281">
        <ele>999</ele>
        <time>2022-05-28T14:58:32Z</time>
      </trkpt>
      <trkpt lat="48.0137" lon="6.86282">
        <ele>999.1</ele>
        <time>2022-05-28T14:58:42Z</time>
      </trkpt>
      <trkpt lat="48.01378" lon="6.86291">
        <ele>995.9</ele>
        <time>2022-05-28T14:58:46Z</time>
      </trkpt>
      <trkpt lat="48.01387" lon="6.86299">
        <ele>993.7</ele>
        <time>2022-05-28T14:58:48Z</time>
      </trkpt>
      <trkpt lat="48.01395" lon="6.86312">
        <ele>996.3</ele>
        <time>2022-05-28T14:58:50Z</time>
      </trkpt>
      <trkpt lat="48.01402" lon="6.86329">
        <ele>995</ele>
        <time>2022-05-28T14:58:52Z</time>
      </trkpt>
      <trkpt lat="48.01409" lon="6.86346">
        <ele>992</ele>
        <time>2022-05-28T14:58:54Z</time>
      </trkpt>
      <trkpt lat="48.01416" lon="6.86362">
        <ele>992.3</ele>
        <time>2022-05-28T14:58:56Z</time>
      </trkpt>
      <trkpt lat="48.01427" lon="6.86372">
        <ele>990.2</ele>
        <time>2022-05-28T14:58:58Z</time>
      </trkpt>
      <trkpt lat="48.01441" lon="6.86371">
        <ele>987.5</ele>
        <time>2022-05-28T14:59:00Z</time>
      </trkpt>
      <trkpt lat="48.01455" lon="6.86364">
        <ele>983.3</ele>
        <time>2022-05-28T14:59:02Z</time>
      </trkpt>
      <trkpt lat="48.01469" lon="6.86356">
        <ele>984.7</ele>
        <time>2022-05-28T14:59:04Z</time>
      </trkpt>
      <trkpt lat="48.01484" lon="6.86351">
        <ele>987.8</ele>
        <time>2022-05-28T14:59:06Z</time>
      </trkpt>
      <trkpt lat="48.015" lon="6.8635">
        <ele>990.9</ele>
        <time>2022-05-28T14:59:08Z</time>
      </trkpt>
      <trkpt lat="48.01513" lon="6.86351">
        <ele>984.8</ele>
        <time>2022-05-28T14:59:10Z</time>
      </trkpt>
      <trkpt lat="48.0152" lon="6.8636">
        <ele>982.9</ele>
        <time>2022-05-28T14:59:12Z</time>
      </trkpt>
      <trkpt lat="48.01518" lon="6.86374">
        <ele>982.9</ele>
        <time>2022-05-28T14:59:14Z</time>
      </trkpt>
      <trkpt lat="48.01511" lon="6.86387">
        <ele>982.1</ele>
        <time>2022-05-28T14:59:16Z</time>
      </trkpt>
      <trkpt lat="48.01503" lon="6.86399">
        <ele>983.2</ele>
        <time>2022-05-28T14:59:18Z</time>
      </trkpt>
      <trkpt lat="48.01495" lon="6.86409">
        <ele>982.1</ele>
        <time>2022-05-28T14:59:20Z</time>
      </trkpt>
      <trkpt lat="48.01488" lon="6.8642">
        <ele>981.7</ele>
        <time>2022-05-28T14:59:22Z</time>
      </trkpt>
      <trkpt lat="48.01481" lon="6.8643">
        <ele>982.5</ele>
        <time>2022-05-28T14:59:24Z</time>
      </trkpt>
      <trkpt lat="48.01476" lon="6.86442">
        <ele>982.4</ele>
        <time>2022-05-28T14:59:26Z</time>
      </trkpt>
      <trkpt lat="48.01474" lon="6.86456">
        <ele>981.3</ele>
        <time>2022-05-28T14:59:28Z</time>
      </trkpt>
      <trkpt lat="48.01475" lon="6.86475">
        <ele>982.2</ele>
        <time>2022-05-28T14:59:30Z</time>
      </trkpt>
      <trkpt lat="48.01476" lon="6.86495">
        <ele>979</ele>
        <time>2022-05-28T14:59:32Z</time>
      </trkpt>
      <trkpt lat="48.01474" lon="6.86513">
        <ele>974.9</ele>
        <time>2022-05-28T14:59:34Z</time>
      </trkpt>
      <trkpt lat="48.01478" lon="6.86528">
        <ele>975.3</ele>
        <time>2022-05-28T14:59:36Z</time>
      </trkpt>
      <trkpt lat="48.01489" lon="6.86534">
        <ele>973.9</ele>
        <time>2022-05-28T14:59:38Z</time>
      </trkpt>
      <trkpt lat="48.01502" lon="6.86538">
        <ele>972.7</ele>
        <time>2022-05-28T14:59:40Z</time>
      </trkpt>
      <trkpt lat="48.0151" lon="6.86551">
        <ele>974.9</ele>
        <time>2022-05-28T14:59:42Z</time>
      </trkpt>
      <trkpt lat="48.01513" lon="6.86569">
        <ele>975.6</ele>
        <time>2022-05-28T14:59:44Z</time>
      </trkpt>
      <trkpt lat="48.01514" lon="6.86587">
        <ele>976</ele>
        <time>2022-05-28T14:59:46Z</time>
      </trkpt>
      <trkpt lat="48.01515" lon="6.86605">
        <ele>973.2</ele>
        <time>2022-05-28T14:59:48Z</time>
      </trkpt>
      <trkpt lat="48.01517" lon="6.86624">
        <ele>972.3</ele>
        <time>2022-05-28T14:59:50Z</time>
      </trkpt>
      <trkpt lat="48.01519" lon="6.86642">
        <ele>972.6</ele>
        <time>2022-05-28T14:59:52Z</time>
      </trkpt>
      <trkpt lat="48.01521" lon="6.8666">
        <ele>972.7</ele>
        <time>2022-05-28T14:59:54Z</time>
      </trkpt>
      <trkpt lat="48.01522" lon="6.86678">
        <ele>973.5</ele>
        <time>2022-05-28T14:59:56Z</time>
      </trkpt>
      <trkpt lat="48.0152" lon="6.86696">
        <ele>972.2</ele>
        <time>2022-05-28T14:59:58Z</time>
      </trkpt>
      <trkpt lat="48.01519" lon="6.86712">
        <ele>971.9</ele>
        <time>2022-05-28T15:00:00Z</time>
      </trkpt>
      <trkpt lat="48.01518" lon="6.86727">
        <ele>973.8</ele>
        <time>2022-05-28T15:00:02Z</time>
      </trkpt>
      <trkpt lat="48.01516" lon="6.86745">
        <ele>976.8</ele>
        <time>2022-05-28T15:00:05Z</time>
      </trkpt>
      <trkpt lat="48.01516" lon="6.86763">
        <ele>977.1</ele>
        <time>2022-05-28T15:00:08Z</time>
      </trkpt>
      <trkpt lat="48.01517" lon="6.86776">
        <ele>977.4</ele>
        <time>2022-05-28T15:00:10Z</time>
      </trkpt>
      <trkpt lat="48.0152" lon="6.8679">
        <ele>976.9</ele>
        <time>2022-05-28T15:00:12Z</time>
      </trkpt>
      <trkpt lat="48.01524" lon="6.86808">
        <ele>975.8</ele>
        <time>2022-05-28T15:00:15Z</time>
      </trkpt>
      <trkpt lat="48.01528" lon="6.86821">
        <ele>975.9</ele>
        <time>2022-05-28T15:00:17Z</time>
      </trkpt>
      <trkpt lat="48.01533" lon="6.86835">
        <ele>974.3</ele>
        <time>2022-05-28T15:00:19Z</time>
      </trkpt>
      <trkpt lat="48.01539" lon="6.86849">
        <ele>972.8</ele>
        <time>2022-05-28T15:00:21Z</time>
      </trkpt>
      <trkpt lat="48.01546" lon="6.86862">
        <ele>974.4</ele>
        <time>2022-05-28T15:00:23Z</time>
      </trkpt>
      <trkpt lat="48.01554" lon="6.86873">
        <ele>974.3</ele>
        <time>2022-05-28T15:00:25Z</time>
      </trkpt>
      <trkpt lat="48.01563" lon="6.86879">
        <ele>974.8</ele>
        <time>2022-05-28T15:00:27Z</time>
      </trkpt>
      <trkpt lat="48.01572" lon="6.86879">
        <ele>974.7</ele>
        <time>2022-05-28T15:00:29Z</time>
      </trkpt>
      <trkpt lat="48.01582" lon="6.86876">
        <ele>974.5</ele>
        <time>2022-05-28T15:00:31Z</time>
      </trkpt>
      <trkpt lat="48.01593" lon="6.8687">
        <ele>972.1</ele>
        <time>2022-05-28T15:00:33Z</time>
      </trkpt>
      <trkpt lat="48.01604" lon="6.86866">
        <ele>968.6</ele>
        <time>2022-05-28T15:00:35Z</time>
      </trkpt>
      <trkpt lat="48.01615" lon="6.86865">
        <ele>967.1</ele>
        <time>2022-05-28T15:00:37Z</time>
      </trkpt>
      <trkpt lat="48.01627" lon="6.86869">
        <ele>970.4</ele>
        <time>2022-05-28T15:00:39Z</time>
      </trkpt>
      <trkpt lat="48.01638" lon="6.86874">
        <ele>970.9</ele>
        <time>2022-05-28T15:00:41Z</time>
      </trkpt>
      <trkpt lat="48.01648" lon="6.86877">
        <ele>968.2</ele>
        <time>2022-05-28T15:00:43Z</time>
      </trkpt>
      <trkpt lat="48.01659" lon="6.86881">
        <ele>965.3</ele>
        <time>2022-05-28T15:00:45Z</time>
      </trkpt>
      <trkpt lat="48.01668" lon="6.86889">
        <ele>968.4</ele>
        <time>2022-05-28T15:00:47Z</time>
      </trkpt>
      <trkpt lat="48.0167" lon="6.86906">
        <ele>967.6</ele>
        <time>2022-05-28T15:00:50Z</time>
      </trkpt>
      <trkpt lat="48.01665" lon="6.86918">
        <ele>969.5</ele>
        <time>2022-05-28T15:00:53Z</time>
      </trkpt>
      <trkpt lat="48.01659" lon="6.86931">
        <ele>970.7</ele>
        <time>2022-05-28T15:00:57Z</time>
      </trkpt>
      <trkpt lat="48.01657" lon="6.86945">
        <ele>971.6</ele>
        <time>2022-05-28T15:01:01Z</time>
      </trkpt>
      <trkpt lat="48.01653" lon="6.86959">
        <ele>970.5</ele>
        <time>2022-05-28T15:01:05Z</time>
      </trkpt>
      <trkpt lat="48.01652" lon="6.86976">
        <ele>972.1</ele>
        <time>2022-05-28T15:01:09Z</time>
      </trkpt>
      <trkpt lat="48.0165" lon="6.86992">
        <ele>973</ele>
        <time>2022-05-28T15:01:12Z</time>
      </trkpt>
      <trkpt lat="48.0165" lon="6.87008">
        <ele>973.2</ele>
        <time>2022-05-28T15:01:15Z</time>
      </trkpt>
      <trkpt lat="48.01651" lon="6.87025">
        <ele>975.3</ele>
        <time>2022-05-28T15:01:18Z</time>
      </trkpt>
      <trkpt lat="48.01652" lon="6.87041">
        <ele>975.3</ele>
        <time>2022-05-28T15:01:21Z</time>
      </trkpt>
      <trkpt lat="48.01655" lon="6.87056">
        <ele>975.4</ele>
        <time>2022-05-28T15:01:25Z</time>
      </trkpt>
      <trkpt lat="48.01659" lon="6.87072">
        <ele>976.3</ele>
        <time>2022-05-28T15:01:29Z</time>
      </trkpt>
      <trkpt lat="48.01666" lon="6.87086">
        <ele>976.6</ele>
        <time>2022-05-28T15:01:33Z</time>
      </trkpt>
      <trkpt lat="48.01673" lon="6.87095">
        <ele>977</ele>
        <time>2022-05-28T15:01:36Z</time>
      </trkpt>
      <trkpt lat="48.01681" lon="6.87103">
        <ele>975.8</ele>
        <time>2022-05-28T15:01:39Z</time>
      </trkpt>
      <trkpt lat="48.01689" lon="6.87113">
        <ele>975.7</ele>
        <time>2022-05-28T15:01:42Z</time>
      </trkpt>
      <trkpt lat="48.01698" lon="6.87124">
        <ele>976.2</ele>
        <time>2022-05-28T15:01:45Z</time>
      </trkpt>
      <trkpt lat="48.01706" lon="6.87135">
        <ele>977.1</ele>
        <time>2022-05-28T15:01:48Z</time>
      </trkpt>
      <trkpt lat="48.01712" lon="6.87148">
        <ele>978.5</ele>
        <time>2022-05-28T15:01:51Z</time>
      </trkpt>
      <trkpt lat="48.01718" lon="6.87161">
        <ele>979.2</ele>
        <time>2022-05-28T15:01:54Z</time>
      </trkpt>
      <trkpt lat="48.01725" lon="6.87175">
        <ele>978.6</ele>
        <time>2022-05-28T15:01:58Z</time>
      </trkpt>
      <trkpt lat="48.01732" lon="6.87185">
        <ele>979.1</ele>
        <time>2022-05-28T15:02:01Z</time>
      </trkpt>
      <trkpt lat="48.01739" lon="6.87194">
        <ele>980</ele>
        <time>2022-05-28T15:02:04Z</time>
      </trkpt>
      <trkpt lat="48.01745" lon="6.87206">
        <ele>979.5</ele>
        <time>2022-05-28T15:02:07Z</time>
      </trkpt>
      <trkpt lat="48.01745" lon="6.87222">
        <ele>980</ele>
        <time>2022-05-28T15:02:10Z</time>
      </trkpt>
      <trkpt lat="48.01742" lon="6.87234">
        <ele>980.3</ele>
        <time>2022-05-28T15:02:13Z</time>
      </trkpt>
      <trkpt lat="48.01738" lon="6.87248">
        <ele>981.5</ele>
        <time>2022-05-28T15:02:17Z</time>
      </trkpt>
      <trkpt lat="48.01735" lon="6.87261">
        <ele>984</ele>
        <time>2022-05-28T15:02:22Z</time>
      </trkpt>
      <trkpt lat="48.01735" lon="6.87275">
        <ele>984.9</ele>
        <time>2022-05-28T15:02:27Z</time>
      </trkpt>
      <trkpt lat="48.01742" lon="6.87287">
        <ele>984.8</ele>
        <time>2022-05-28T15:02:33Z</time>
      </trkpt>
      <trkpt lat="48.01751" lon="6.87292">
        <ele>986.4</ele>
        <time>2022-05-28T15:02:40Z</time>
      </trkpt>
      <trkpt lat="48.01758" lon="6.87301">
        <ele>987.1</ele>
        <time>2022-05-28T15:02:48Z</time>
      </trkpt>
      <trkpt lat="48.01757" lon="6.87315">
        <ele>988.6</ele>
        <time>2022-05-28T15:02:54Z</time>
      </trkpt>
      <trkpt lat="48.01758" lon="6.87328">
        <ele>989.4</ele>
        <time>2022-05-28T15:03:00Z</time>
      </trkpt>
      <trkpt lat="48.01761" lon="6.87334">
        <ele>989.5</ele>
        <time>2022-05-28T15:03:06Z</time>
      </trkpt>
      <trkpt lat="48.01762" lon="6.87335">
        <ele>989.8</ele>
        <time>2022-05-28T15:03:09Z</time>
      </trkpt>
      <trkpt lat="48.0177" lon="6.8734">
        <ele>992.6</ele>
        <time>2022-05-28T15:03:28Z</time>
      </trkpt>
      <trkpt lat="48.01774" lon="6.87341">
        <ele>992.2</ele>
        <time>2022-05-28T15:03:43Z</time>
      </trkpt>
      <trkpt lat="48.01774" lon="6.8734">
        <ele>992.7</ele>
        <time>2022-05-28T15:03:57Z</time>
      </trkpt>
      <trkpt lat="48.01774" lon="6.8734">
        <ele>991.2</ele>
        <time>2022-05-28T15:05:47Z</time>
      </trkpt>
      <trkpt lat="48.01775" lon="6.87341">
        <ele>991</ele>
        <time>2022-05-28T15:05:50Z</time>
      </trkpt>
      <trkpt lat="48.0178" lon="6.87357">
        <ele>989.2</ele>
        <time>2022-05-28T15:05:55Z</time>
      </trkpt>
      <trkpt lat="48.01786" lon="6.8737">
        <ele>989.3</ele>
        <time>2022-05-28T15:05:58Z</time>
      </trkpt>
      <trkpt lat="48.01793" lon="6.87382">
        <ele>990.8</ele>
        <time>2022-05-28T15:06:02Z</time>
      </trkpt>
      <trkpt lat="48.01799" lon="6.87394">
        <ele>992</ele>
        <time>2022-05-28T15:06:06Z</time>
      </trkpt>
      <trkpt lat="48.01804" lon="6.87405">
        <ele>992.9</ele>
        <time>2022-05-28T15:06:10Z</time>
      </trkpt>
      <trkpt lat="48.0181" lon="6.87419">
        <ele>994.1</ele>
        <time>2022-05-28T15:06:15Z</time>
      </trkpt>
      <trkpt lat="48.01816" lon="6.87433">
        <ele>993.8</ele>
        <time>2022-05-28T15:06:20Z</time>
      </trkpt>
      <trkpt lat="48.01819" lon="6.87447">
        <ele>994.8</ele>
        <time>2022-05-28T15:06:24Z</time>
      </trkpt>
      <trkpt lat="48.01821" lon="6.87461">
        <ele>994.8</ele>
        <time>2022-05-28T15:06:28Z</time>
      </trkpt>
      <trkpt lat="48.01821" lon="6.87477">
        <ele>994.7</ele>
        <time>2022-05-28T15:06:32Z</time>
      </trkpt>
      <trkpt lat="48.01821" lon="6.87493">
        <ele>994.2</ele>
        <time>2022-05-28T15:06:35Z</time>
      </trkpt>
      <trkpt lat="48.01821" lon="6.87508">
        <ele>995.1</ele>
        <time>2022-05-28T15:06:39Z</time>
      </trkpt>
      <trkpt lat="48.01822" lon="6.87522">
        <ele>995.2</ele>
        <time>2022-05-28T15:06:45Z</time>
      </trkpt>
      <trkpt lat="48.01823" lon="6.87538">
        <ele>993.9</ele>
        <time>2022-05-28T15:06:52Z</time>
      </trkpt>
      <trkpt lat="48.01825" lon="6.87555">
        <ele>992.7</ele>
        <time>2022-05-28T15:06:55Z</time>
      </trkpt>
      <trkpt lat="48.01826" lon="6.87571">
        <ele>992.3</ele>
        <time>2022-05-28T15:06:58Z</time>
      </trkpt>
      <trkpt lat="48.01827" lon="6.87585">
        <ele>992.3</ele>
        <time>2022-05-28T15:07:01Z</time>
      </trkpt>
      <trkpt lat="48.01829" lon="6.87602">
        <ele>988.7</ele>
        <time>2022-05-28T15:07:04Z</time>
      </trkpt>
      <trkpt lat="48.01831" lon="6.87615">
        <ele>989.1</ele>
        <time>2022-05-28T15:07:06Z</time>
      </trkpt>
      <trkpt lat="48.01832" lon="6.87633">
        <ele>987.5</ele>
        <time>2022-05-28T15:07:08Z</time>
      </trkpt>
      <trkpt lat="48.01832" lon="6.87653">
        <ele>984</ele>
        <time>2022-05-28T15:07:10Z</time>
      </trkpt>
      <trkpt lat="48.01834" lon="6.87675">
        <ele>980.8</ele>
        <time>2022-05-28T15:07:12Z</time>
      </trkpt>
      <trkpt lat="48.01834" lon="6.87695">
        <ele>977.8</ele>
        <time>2022-05-28T15:07:14Z</time>
      </trkpt>
      <trkpt lat="48.01833" lon="6.87715">
        <ele>973.9</ele>
        <time>2022-05-28T15:07:16Z</time>
      </trkpt>
      <trkpt lat="48.01832" lon="6.87735">
        <ele>973.4</ele>
        <time>2022-05-28T15:07:18Z</time>
      </trkpt>
      <trkpt lat="48.01832" lon="6.87758">
        <ele>974.2</ele>
        <time>2022-05-28T15:07:20Z</time>
      </trkpt>
      <trkpt lat="48.01834" lon="6.87781">
        <ele>971.7</ele>
        <time>2022-05-28T15:07:22Z</time>
      </trkpt>
      <trkpt lat="48.01837" lon="6.87799">
        <ele>975.6</ele>
        <time>2022-05-28T15:07:24Z</time>
      </trkpt>
      <trkpt lat="48.0184" lon="6.87813">
        <ele>977.3</ele>
        <time>2022-05-28T15:07:26Z</time>
      </trkpt>
      <trkpt lat="48.01846" lon="6.8783">
        <ele>975.9</ele>
        <time>2022-05-28T15:07:29Z</time>
      </trkpt>
      <trkpt lat="48.01852" lon="6.87847">
        <ele>974.3</ele>
        <time>2022-05-28T15:07:32Z</time>
      </trkpt>
      <trkpt lat="48.01857" lon="6.87858">
        <ele>973.5</ele>
        <time>2022-05-28T15:07:34Z</time>
      </trkpt>
      <trkpt lat="48.01862" lon="6.87873">
        <ele>972.3</ele>
        <time>2022-05-28T15:07:36Z</time>
      </trkpt>
      <trkpt lat="48.01868" lon="6.87889">
        <ele>972</ele>
        <time>2022-05-28T15:07:38Z</time>
      </trkpt>
      <trkpt lat="48.01874" lon="6.87906">
        <ele>971</ele>
        <time>2022-05-28T15:07:40Z</time>
      </trkpt>
      <trkpt lat="48.01879" lon="6.8792">
        <ele>973.1</ele>
        <time>2022-05-28T15:07:42Z</time>
      </trkpt>
      <trkpt lat="48.01886" lon="6.87933">
        <ele>975.3</ele>
        <time>2022-05-28T15:07:45Z</time>
      </trkpt>
      <trkpt lat="48.01895" lon="6.87944">
        <ele>977</ele>
        <time>2022-05-28T15:07:48Z</time>
      </trkpt>
      <trkpt lat="48.01903" lon="6.87958">
        <ele>975.5</ele>
        <time>2022-05-28T15:07:51Z</time>
      </trkpt>
      <trkpt lat="48.01911" lon="6.87971">
        <ele>976.3</ele>
        <time>2022-05-28T15:07:54Z</time>
      </trkpt>
      <trkpt lat="48.01919" lon="6.87982">
        <ele>977</ele>
        <time>2022-05-28T15:07:57Z</time>
      </trkpt>
      <trkpt lat="48.01927" lon="6.87991">
        <ele>977.8</ele>
        <time>2022-05-28T15:08:00Z</time>
      </trkpt>
      <trkpt lat="48.01935" lon="6.88">
        <ele>979.6</ele>
        <time>2022-05-28T15:08:04Z</time>
      </trkpt>
      <trkpt lat="48.01944" lon="6.88008">
        <ele>981</ele>
        <time>2022-05-28T15:08:10Z</time>
      </trkpt>
      <trkpt lat="48.01951" lon="6.88018">
        <ele>980.2</ele>
        <time>2022-05-28T15:08:33Z</time>
      </trkpt>
      <trkpt lat="48.01954" lon="6.88021">
        <ele>980.5</ele>
        <time>2022-05-28T15:08:40Z</time>
      </trkpt>
      <trkpt lat="48.0196" lon="6.88033">
        <ele>979.9</ele>
        <time>2022-05-28T15:08:53Z</time>
      </trkpt>
      <trkpt lat="48.01966" lon="6.88045">
        <ele>979.6</ele>
        <time>2022-05-28T15:08:59Z</time>
      </trkpt>
      <trkpt lat="48.01967" lon="6.88046">
        <ele>979.7</ele>
        <time>2022-05-28T15:09:02Z</time>
      </trkpt>
      <trkpt lat="48.01968" lon="6.88047">
        <ele>979.4</ele>
        <time>2022-05-28T15:09:08Z</time>
      </trkpt>
      <trkpt lat="48.01972" lon="6.88061">
        <ele>979.6</ele>
        <time>2022-05-28T15:09:13Z</time>
      </trkpt>
      <trkpt lat="48.01975" lon="6.88077">
        <ele>979.8</ele>
        <time>2022-05-28T15:09:18Z</time>
      </trkpt>
      <trkpt lat="48.01979" lon="6.88089">
        <ele>979.3</ele>
        <time>2022-05-28T15:09:22Z</time>
      </trkpt>
      <trkpt lat="48.01986" lon="6.88103">
        <ele>979.5</ele>
        <time>2022-05-28T15:09:26Z</time>
      </trkpt>
      <trkpt lat="48.01993" lon="6.88114">
        <ele>977.7</ele>
        <time>2022-05-28T15:09:29Z</time>
      </trkpt>
      <trkpt lat="48.02002" lon="6.88127">
        <ele>978</ele>
        <time>2022-05-28T15:09:32Z</time>
      </trkpt>
      <trkpt lat="48.02009" lon="6.88138">
        <ele>975.1</ele>
        <time>2022-05-28T15:09:34Z</time>
      </trkpt>
      <trkpt lat="48.02015" lon="6.88151">
        <ele>972.3</ele>
        <time>2022-05-28T15:09:36Z</time>
      </trkpt>
      <trkpt lat="48.02023" lon="6.88165">
        <ele>968.5</ele>
        <time>2022-05-28T15:09:38Z</time>
      </trkpt>
      <trkpt lat="48.02032" lon="6.88179">
        <ele>966.9</ele>
        <time>2022-05-28T15:09:40Z</time>
      </trkpt>
      <trkpt lat="48.02042" lon="6.88192">
        <ele>967.9</ele>
        <time>2022-05-28T15:09:42Z</time>
      </trkpt>
      <trkpt lat="48.02052" lon="6.88202">
        <ele>970.3</ele>
        <time>2022-05-28T15:09:44Z</time>
      </trkpt>
      <trkpt lat="48.02061" lon="6.88211">
        <ele>970.2</ele>
        <time>2022-05-28T15:09:46Z</time>
      </trkpt>
      <trkpt lat="48.0207" lon="6.88218">
        <ele>969.8</ele>
        <time>2022-05-28T15:09:48Z</time>
      </trkpt>
      <trkpt lat="48.02081" lon="6.88226">
        <ele>970.4</ele>
        <time>2022-05-28T15:09:51Z</time>
      </trkpt>
      <trkpt lat="48.02091" lon="6.88233">
        <ele>970.3</ele>
        <time>2022-05-28T15:09:54Z</time>
      </trkpt>
      <trkpt lat="48.021" lon="6.88237">
        <ele>969.8</ele>
        <time>2022-05-28T15:09:56Z</time>
      </trkpt>
      <trkpt lat="48.02109" lon="6.88241">
        <ele>969.8</ele>
        <time>2022-05-28T15:09:58Z</time>
      </trkpt>
      <trkpt lat="48.02119" lon="6.88244">
        <ele>970.5</ele>
        <time>2022-05-28T15:10:00Z</time>
      </trkpt>
      <trkpt lat="48.02129" lon="6.88248">
        <ele>970.5</ele>
        <time>2022-05-28T15:10:02Z</time>
      </trkpt>
      <trkpt lat="48.02138" lon="6.88251">
        <ele>971.4</ele>
        <time>2022-05-28T15:10:04Z</time>
      </trkpt>
      <trkpt lat="48.02148" lon="6.88255">
        <ele>971.5</ele>
        <time>2022-05-28T15:10:07Z</time>
      </trkpt>
      <trkpt lat="48.02157" lon="6.88262">
        <ele>972.5</ele>
        <time>2022-05-28T15:10:11Z</time>
      </trkpt>
      <trkpt lat="48.02166" lon="6.88271">
        <ele>972.4</ele>
        <time>2022-05-28T15:10:15Z</time>
      </trkpt>
      <trkpt lat="48.02173" lon="6.88281">
        <ele>969.1</ele>
        <time>2022-05-28T15:10:17Z</time>
      </trkpt>
      <trkpt lat="48.02181" lon="6.88293">
        <ele>967.6</ele>
        <time>2022-05-28T15:10:20Z</time>
      </trkpt>
      <trkpt lat="48.02189" lon="6.88302">
        <ele>967.7</ele>
        <time>2022-05-28T15:10:23Z</time>
      </trkpt>
      <trkpt lat="48.02195" lon="6.88312">
        <ele>966</ele>
        <time>2022-05-28T15:10:26Z</time>
      </trkpt>
      <trkpt lat="48.02205" lon="6.88322">
        <ele>964.4</ele>
        <time>2022-05-28T15:10:29Z</time>
      </trkpt>
      <trkpt lat="48.02217" lon="6.88329">
        <ele>962.8</ele>
        <time>2022-05-28T15:10:31Z</time>
      </trkpt>
      <trkpt lat="48.02228" lon="6.88336">
        <ele>963.2</ele>
        <time>2022-05-28T15:10:33Z</time>
      </trkpt>
      <trkpt lat="48.02238" lon="6.88342">
        <ele>963.6</ele>
        <time>2022-05-28T15:10:36Z</time>
      </trkpt>
      <trkpt lat="48.02247" lon="6.88345">
        <ele>964</ele>
        <time>2022-05-28T15:10:38Z</time>
      </trkpt>
      <trkpt lat="48.02257" lon="6.88345">
        <ele>965.4</ele>
        <time>2022-05-28T15:10:42Z</time>
      </trkpt>
      <trkpt lat="48.02266" lon="6.88347">
        <ele>965</ele>
        <time>2022-05-28T15:10:46Z</time>
      </trkpt>
      <trkpt lat="48.02277" lon="6.8835">
        <ele>964.6</ele>
        <time>2022-05-28T15:10:50Z</time>
      </trkpt>
      <trkpt lat="48.02288" lon="6.88355">
        <ele>964.6</ele>
        <time>2022-05-28T15:10:54Z</time>
      </trkpt>
      <trkpt lat="48.02297" lon="6.88364">
        <ele>964.5</ele>
        <time>2022-05-28T15:10:58Z</time>
      </trkpt>
      <trkpt lat="48.02304" lon="6.88375">
        <ele>963</ele>
        <time>2022-05-28T15:11:01Z</time>
      </trkpt>
      <trkpt lat="48.02299" lon="6.88388">
        <ele>961</ele>
        <time>2022-05-28T15:11:06Z</time>
      </trkpt>
      <trkpt lat="48.0229" lon="6.884">
        <ele>958</ele>
        <time>2022-05-28T15:11:09Z</time>
      </trkpt>
      <trkpt lat="48.0229" lon="6.88418">
        <ele>957.3</ele>
        <time>2022-05-28T15:11:12Z</time>
      </trkpt>
      <trkpt lat="48.02297" lon="6.88427">
        <ele>957.4</ele>
        <time>2022-05-28T15:11:16Z</time>
      </trkpt>
      <trkpt lat="48.02306" lon="6.88434">
        <ele>956.9</ele>
        <time>2022-05-28T15:11:22Z</time>
      </trkpt>
      <trkpt lat="48.02316" lon="6.88434">
        <ele>952.5</ele>
        <time>2022-05-28T15:11:25Z</time>
      </trkpt>
      <trkpt lat="48.02325" lon="6.88432">
        <ele>953.8</ele>
        <time>2022-05-28T15:11:27Z</time>
      </trkpt>
      <trkpt lat="48.02335" lon="6.88427">
        <ele>951.7</ele>
        <time>2022-05-28T15:11:29Z</time>
      </trkpt>
      <trkpt lat="48.02343" lon="6.88418">
        <ele>951.4</ele>
        <time>2022-05-28T15:11:31Z</time>
      </trkpt>
      <trkpt lat="48.02352" lon="6.88412">
        <ele>949</ele>
        <time>2022-05-28T15:11:33Z</time>
      </trkpt>
      <trkpt lat="48.02361" lon="6.8841">
        <ele>947.2</ele>
        <time>2022-05-28T15:11:35Z</time>
      </trkpt>
      <trkpt lat="48.02373" lon="6.8841">
        <ele>948.5</ele>
        <time>2022-05-28T15:11:38Z</time>
      </trkpt>
      <trkpt lat="48.02385" lon="6.88413">
        <ele>948.3</ele>
        <time>2022-05-28T15:11:41Z</time>
      </trkpt>
      <trkpt lat="48.02394" lon="6.88415">
        <ele>946.7</ele>
        <time>2022-05-28T15:11:43Z</time>
      </trkpt>
      <trkpt lat="48.02407" lon="6.88418">
        <ele>947.3</ele>
        <time>2022-05-28T15:11:46Z</time>
      </trkpt>
      <trkpt lat="48.02416" lon="6.88424">
        <ele>947.5</ele>
        <time>2022-05-28T15:11:49Z</time>
      </trkpt>
      <trkpt lat="48.02426" lon="6.88429">
        <ele>949.1</ele>
        <time>2022-05-28T15:11:52Z</time>
      </trkpt>
      <trkpt lat="48.02432" lon="6.88439">
        <ele>952.8</ele>
        <time>2022-05-28T15:11:55Z</time>
      </trkpt>
      <trkpt lat="48.02442" lon="6.88449">
        <ele>952.1</ele>
        <time>2022-05-28T15:11:59Z</time>
      </trkpt>
      <trkpt lat="48.02452" lon="6.88454">
        <ele>951.7</ele>
        <time>2022-05-28T15:12:03Z</time>
      </trkpt>
      <trkpt lat="48.02462" lon="6.8845">
        <ele>952.1</ele>
        <time>2022-05-28T15:12:07Z</time>
      </trkpt>
      <trkpt lat="48.02472" lon="6.88445">
        <ele>952.8</ele>
        <time>2022-05-28T15:12:19Z</time>
      </trkpt>
      <trkpt lat="48.02482" lon="6.88446">
        <ele>951.7</ele>
        <time>2022-05-28T15:12:24Z</time>
      </trkpt>
      <trkpt lat="48.02492" lon="6.88457">
        <ele>951.8</ele>
        <time>2022-05-28T15:12:28Z</time>
      </trkpt>
      <trkpt lat="48.025" lon="6.88468">
        <ele>949</ele>
        <time>2022-05-28T15:12:31Z</time>
      </trkpt>
      <trkpt lat="48.02511" lon="6.88477">
        <ele>952.9</ele>
        <time>2022-05-28T15:12:34Z</time>
      </trkpt>
      <trkpt lat="48.02523" lon="6.88485">
        <ele>952</ele>
        <time>2022-05-28T15:12:37Z</time>
      </trkpt>
      <trkpt lat="48.02533" lon="6.8849">
        <ele>949</ele>
        <time>2022-05-28T15:12:39Z</time>
      </trkpt>
      <trkpt lat="48.02544" lon="6.88501">
        <ele>950.6</ele>
        <time>2022-05-28T15:12:42Z</time>
      </trkpt>
      <trkpt lat="48.02541" lon="6.88515">
        <ele>949</ele>
        <time>2022-05-28T15:12:45Z</time>
      </trkpt>
      <trkpt lat="48.02535" lon="6.88526">
        <ele>949</ele>
        <time>2022-05-28T15:12:48Z</time>
      </trkpt>
      <trkpt lat="48.02534" lon="6.88542">
        <ele>950.6</ele>
        <time>2022-05-28T15:12:52Z</time>
      </trkpt>
      <trkpt lat="48.02535" lon="6.88558">
        <ele>950.3</ele>
        <time>2022-05-28T15:12:56Z</time>
      </trkpt>
      <trkpt lat="48.02534" lon="6.88572">
        <ele>950.7</ele>
        <time>2022-05-28T15:13:00Z</time>
      </trkpt>
      <trkpt lat="48.02534" lon="6.88587">
        <ele>950.9</ele>
        <time>2022-05-28T15:13:04Z</time>
      </trkpt>
      <trkpt lat="48.02541" lon="6.88597">
        <ele>950.8</ele>
        <time>2022-05-28T15:13:07Z</time>
      </trkpt>
      <trkpt lat="48.02548" lon="6.88604">
        <ele>952.7</ele>
        <time>2022-05-28T15:13:11Z</time>
      </trkpt>
      <trkpt lat="48.02558" lon="6.8861">
        <ele>953.6</ele>
        <time>2022-05-28T15:13:15Z</time>
      </trkpt>
      <trkpt lat="48.02569" lon="6.88615">
        <ele>952.9</ele>
        <time>2022-05-28T15:13:19Z</time>
      </trkpt>
      <trkpt lat="48.02578" lon="6.8862">
        <ele>953.2</ele>
        <time>2022-05-28T15:13:23Z</time>
      </trkpt>
      <trkpt lat="48.02589" lon="6.88626">
        <ele>953.5</ele>
        <time>2022-05-28T15:13:28Z</time>
      </trkpt>
      <trkpt lat="48.02598" lon="6.88631">
        <ele>953.1</ele>
        <time>2022-05-28T15:13:33Z</time>
      </trkpt>
      <trkpt lat="48.02608" lon="6.88636">
        <ele>953.1</ele>
        <time>2022-05-28T15:13:38Z</time>
      </trkpt>
      <trkpt lat="48.026" lon="6.88643">
        <ele>955.4</ele>
        <time>2022-05-28T15:13:47Z</time>
      </trkpt>
      <trkpt lat="48.02601" lon="6.88656">
        <ele>954.3</ele>
        <time>2022-05-28T15:13:51Z</time>
      </trkpt>
      <trkpt lat="48.02606" lon="6.8867">
        <ele>956.9</ele>
        <time>2022-05-28T15:13:57Z</time>
      </trkpt>
      <trkpt lat="48.02615" lon="6.88675">
        <ele>957</ele>
        <time>2022-05-28T15:14:03Z</time>
      </trkpt>
      <trkpt lat="48.02625" lon="6.88676">
        <ele>957.4</ele>
        <time>2022-05-28T15:14:08Z</time>
      </trkpt>
      <trkpt lat="48.02634" lon="6.88677">
        <ele>958.1</ele>
        <time>2022-05-28T15:14:13Z</time>
      </trkpt>
      <trkpt lat="48.02642" lon="6.88684">
        <ele>958.6</ele>
        <time>2022-05-28T15:14:19Z</time>
      </trkpt>
      <trkpt lat="48.02648" lon="6.88698">
        <ele>960.2</ele>
        <time>2022-05-28T15:14:25Z</time>
      </trkpt>
      <trkpt lat="48.02656" lon="6.88707">
        <ele>961.3</ele>
        <time>2022-05-28T15:14:32Z</time>
      </trkpt>
      <trkpt lat="48.02665" lon="6.88713">
        <ele>962.6</ele>
        <time>2022-05-28T15:14:38Z</time>
      </trkpt>
      <trkpt lat="48.02675" lon="6.88719">
        <ele>964.6</ele>
        <time>2022-05-28T15:14:44Z</time>
      </trkpt>
      <trkpt lat="48.02683" lon="6.88724">
        <ele>967.3</ele>
        <time>2022-05-28T15:14:50Z</time>
      </trkpt>
      <trkpt lat="48.0269" lon="6.88734">
        <ele>968.7</ele>
        <time>2022-05-28T15:15:00Z</time>
      </trkpt>
      <trkpt lat="48.02694" lon="6.88747">
        <ele>969.8</ele>
        <time>2022-05-28T15:15:08Z</time>
      </trkpt>
      <trkpt lat="48.02699" lon="6.8876">
        <ele>970.9</ele>
        <time>2022-05-28T15:15:16Z</time>
      </trkpt>
      <trkpt lat="48.02707" lon="6.88771">
        <ele>972.2</ele>
        <time>2022-05-28T15:15:23Z</time>
      </trkpt>
      <trkpt lat="48.02715" lon="6.8878">
        <ele>972</ele>
        <time>2022-05-28T15:15:28Z</time>
      </trkpt>
      <trkpt lat="48.02722" lon="6.88791">
        <ele>973.9</ele>
        <time>2022-05-28T15:15:32Z</time>
      </trkpt>
      <trkpt lat="48.02729" lon="6.88804">
        <ele>973.7</ele>
        <time>2022-05-28T15:15:37Z</time>
      </trkpt>
      <trkpt lat="48.02733" lon="6.88819">
        <ele>974.2</ele>
        <time>2022-05-28T15:15:42Z</time>
      </trkpt>
      <trkpt lat="48.02735" lon="6.88833">
        <ele>975.4</ele>
        <time>2022-05-28T15:15:46Z</time>
      </trkpt>
      <trkpt lat="48.02737" lon="6.88848">
        <ele>974.6</ele>
        <time>2022-05-28T15:15:51Z</time>
      </trkpt>
      <trkpt lat="48.02741" lon="6.88863">
        <ele>975.4</ele>
        <time>2022-05-28T15:15:56Z</time>
      </trkpt>
      <trkpt lat="48.02745" lon="6.88876">
        <ele>975.1</ele>
        <time>2022-05-28T15:16:00Z</time>
      </trkpt>
      <trkpt lat="48.0275" lon="6.8889">
        <ele>975.8</ele>
        <time>2022-05-28T15:16:04Z</time>
      </trkpt>
      <trkpt lat="48.02754" lon="6.88904">
        <ele>977</ele>
        <time>2022-05-28T15:16:08Z</time>
      </trkpt>
      <trkpt lat="48.02758" lon="6.88918">
        <ele>977.5</ele>
        <time>2022-05-28T15:16:12Z</time>
      </trkpt>
      <trkpt lat="48.02762" lon="6.88932">
        <ele>978.4</ele>
        <time>2022-05-28T15:16:16Z</time>
      </trkpt>
      <trkpt lat="48.02764" lon="6.88947">
        <ele>976.9</ele>
        <time>2022-05-28T15:16:20Z</time>
      </trkpt>
      <trkpt lat="48.02767" lon="6.88961">
        <ele>979.4</ele>
        <time>2022-05-28T15:16:24Z</time>
      </trkpt>
      <trkpt lat="48.0277" lon="6.88977">
        <ele>980.7</ele>
        <time>2022-05-28T15:16:29Z</time>
      </trkpt>
      <trkpt lat="48.02775" lon="6.88991">
        <ele>981</ele>
        <time>2022-05-28T15:16:33Z</time>
      </trkpt>
      <trkpt lat="48.0278" lon="6.89004">
        <ele>980.4</ele>
        <time>2022-05-28T15:16:37Z</time>
      </trkpt>
      <trkpt lat="48.02785" lon="6.89017">
        <ele>981.4</ele>
        <time>2022-05-28T15:16:41Z</time>
      </trkpt>
      <trkpt lat="48.0279" lon="6.89028">
        <ele>981.7</ele>
        <time>2022-05-28T15:16:45Z</time>
      </trkpt>
      <trkpt lat="48.02797" lon="6.89041">
        <ele>983.2</ele>
        <time>2022-05-28T15:16:50Z</time>
      </trkpt>
      <trkpt lat="48.02803" lon="6.89053">
        <ele>984.3</ele>
        <time>2022-05-28T15:16:55Z</time>
      </trkpt>
      <trkpt lat="48.02809" lon="6.89064">
        <ele>985.4</ele>
        <time>2022-05-28T15:17:00Z</time>
      </trkpt>
      <trkpt lat="48.02814" lon="6.89075">
        <ele>985.8</ele>
        <time>2022-05-28T15:17:05Z</time>
      </trkpt>
      <trkpt lat="48.0282" lon="6.89087">
        <ele>987</ele>
        <time>2022-05-28T15:17:10Z</time>
      </trkpt>
      <trkpt lat="48.02824" lon="6.89099">
        <ele>988.5</ele>
        <time>2022-05-28T15:17:15Z</time>
      </trkpt>
      <trkpt lat="48.02829" lon="6.89112">
        <ele>988.2</ele>
        <time>2022-05-28T15:17:20Z</time>
      </trkpt>
      <trkpt lat="48.02834" lon="6.89125">
        <ele>989.8</ele>
        <time>2022-05-28T15:17:25Z</time>
      </trkpt>
      <trkpt lat="48.02839" lon="6.89137">
        <ele>990.9</ele>
        <time>2022-05-28T15:17:30Z</time>
      </trkpt>
      <trkpt lat="48.02844" lon="6.89149">
        <ele>992</ele>
        <time>2022-05-28T15:17:35Z</time>
      </trkpt>
      <trkpt lat="48.02848" lon="6.89162">
        <ele>992.1</ele>
        <time>2022-05-28T15:17:40Z</time>
      </trkpt>
      <trkpt lat="48.02852" lon="6.89174">
        <ele>993</ele>
        <time>2022-05-28T15:17:45Z</time>
      </trkpt>
      <trkpt lat="48.02858" lon="6.89186">
        <ele>994.5</ele>
        <time>2022-05-28T15:17:50Z</time>
      </trkpt>
      <trkpt lat="48.02865" lon="6.89196">
        <ele>995.1</ele>
        <time>2022-05-28T15:17:55Z</time>
      </trkpt>
      <trkpt lat="48.02873" lon="6.89207">
        <ele>996.3</ele>
        <time>2022-05-28T15:18:01Z</time>
      </trkpt>
      <trkpt lat="48.0288" lon="6.89217">
        <ele>997.6</ele>
        <time>2022-05-28T15:18:07Z</time>
      </trkpt>
      <trkpt lat="48.02887" lon="6.89229">
        <ele>1000</ele>
        <time>2022-05-28T15:18:13Z</time>
      </trkpt>
      <trkpt lat="48.02894" lon="6.8924">
        <ele>1001.2</ele>
        <time>2022-05-28T15:18:19Z</time>
      </trkpt>
      <trkpt lat="48.02901" lon="6.89251">
        <ele>1002.6</ele>
        <time>2022-05-28T15:18:25Z</time>
      </trkpt>
      <trkpt lat="48.02908" lon="6.89261">
        <ele>1003.6</ele>
        <time>2022-05-28T15:18:31Z</time>
      </trkpt>
      <trkpt lat="48.02915" lon="6.89271">
        <ele>1005.4</ele>
        <time>2022-05-28T15:18:37Z</time>
      </trkpt>
      <trkpt lat="48.02922" lon="6.8928">
        <ele>1006.7</ele>
        <time>2022-05-28T15:18:43Z</time>
      </trkpt>
      <trkpt lat="48.0293" lon="6.89288">
        <ele>1007.6</ele>
        <time>2022-05-28T15:18:48Z</time>
      </trkpt>
      <trkpt lat="48.02938" lon="6.89294">
        <ele>1009.6</ele>
        <time>2022-05-28T15:18:53Z</time>
      </trkpt>
      <trkpt lat="48.02947" lon="6.89299">
        <ele>1010.2</ele>
        <time>2022-05-28T15:18:58Z</time>
      </trkpt>
      <trkpt lat="48.02955" lon="6.89304">
        <ele>1011.1</ele>
        <time>2022-05-28T15:19:03Z</time>
      </trkpt>
      <trkpt lat="48.02965" lon="6.89309">
        <ele>1012.6</ele>
        <time>2022-05-28T15:19:09Z</time>
      </trkpt>
      <trkpt lat="48.02975" lon="6.89314">
        <ele>1012.9</ele>
        <time>2022-05-28T15:19:15Z</time>
      </trkpt>
      <trkpt lat="48.02984" lon="6.89316">
        <ele>1015.5</ele>
        <time>2022-05-28T15:19:20Z</time>
      </trkpt>
      <trkpt lat="48.02994" lon="6.89321">
        <ele>1015.5</ele>
        <time>2022-05-28T15:19:25Z</time>
      </trkpt>
      <trkpt lat="48.03002" lon="6.89329">
        <ele>1017</ele>
        <time>2022-05-28T15:19:29Z</time>
      </trkpt>
      <trkpt lat="48.0301" lon="6.89337">
        <ele>1017.1</ele>
        <time>2022-05-28T15:19:33Z</time>
      </trkpt>
      <trkpt lat="48.0302" lon="6.89345">
        <ele>1017.9</ele>
        <time>2022-05-28T15:19:38Z</time>
      </trkpt>
      <trkpt lat="48.03027" lon="6.89354">
        <ele>1019.5</ele>
        <time>2022-05-28T15:19:42Z</time>
      </trkpt>
      <trkpt lat="48.03032" lon="6.89366">
        <ele>1019</ele>
        <time>2022-05-28T15:19:46Z</time>
      </trkpt>
      <trkpt lat="48.03038" lon="6.89379">
        <ele>1021</ele>
        <time>2022-05-28T15:19:51Z</time>
      </trkpt>
      <trkpt lat="48.03043" lon="6.89392">
        <ele>1022.4</ele>
        <time>2022-05-28T15:19:56Z</time>
      </trkpt>
      <trkpt lat="48.03049" lon="6.89406">
        <ele>1022.3</ele>
        <time>2022-05-28T15:20:01Z</time>
      </trkpt>
      <trkpt lat="48.03054" lon="6.8942">
        <ele>1023.6</ele>
        <time>2022-05-28T15:20:06Z</time>
      </trkpt>
      <trkpt lat="48.03059" lon="6.89431">
        <ele>1024.5</ele>
        <time>2022-05-28T15:20:10Z</time>
      </trkpt>
      <trkpt lat="48.03065" lon="6.89443">
        <ele>1024.8</ele>
        <time>2022-05-28T15:20:14Z</time>
      </trkpt>
      <trkpt lat="48.03072" lon="6.89456">
        <ele>1025.4</ele>
        <time>2022-05-28T15:20:18Z</time>
      </trkpt>
      <trkpt lat="48.0308" lon="6.89469">
        <ele>1025.5</ele>
        <time>2022-05-28T15:20:22Z</time>
      </trkpt>
      <trkpt lat="48.03087" lon="6.89482">
        <ele>1025.9</ele>
        <time>2022-05-28T15:20:26Z</time>
      </trkpt>
      <trkpt lat="48.03093" lon="6.89496">
        <ele>1027.4</ele>
        <time>2022-05-28T15:20:30Z</time>
      </trkpt>
      <trkpt lat="48.03101" lon="6.89509">
        <ele>1027</ele>
        <time>2022-05-28T15:20:34Z</time>
      </trkpt>
      <trkpt lat="48.03108" lon="6.89519">
        <ele>1029</ele>
        <time>2022-05-28T15:20:38Z</time>
      </trkpt>
      <trkpt lat="48.03116" lon="6.89529">
        <ele>1029.9</ele>
        <time>2022-05-28T15:20:42Z</time>
      </trkpt>
      <trkpt lat="48.03123" lon="6.89542">
        <ele>1029.1</ele>
        <time>2022-05-28T15:20:46Z</time>
      </trkpt>
      <trkpt lat="48.0313" lon="6.89552">
        <ele>1033.5</ele>
        <time>2022-05-28T15:20:50Z</time>
      </trkpt>
      <trkpt lat="48.03137" lon="6.89563">
        <ele>1033.7</ele>
        <time>2022-05-28T15:20:54Z</time>
      </trkpt>
      <trkpt lat="48.03145" lon="6.89573">
        <ele>1033.7</ele>
        <time>2022-05-28T15:20:58Z</time>
      </trkpt>
      <trkpt lat="48.03155" lon="6.89582">
        <ele>1034.7</ele>
        <time>2022-05-28T15:21:02Z</time>
      </trkpt>
      <trkpt lat="48.03163" lon="6.89591">
        <ele>1034.5</ele>
        <time>2022-05-28T15:21:06Z</time>
      </trkpt>
      <trkpt lat="48.03171" lon="6.896">
        <ele>1037.6</ele>
        <time>2022-05-28T15:21:10Z</time>
      </trkpt>
      <trkpt lat="48.03178" lon="6.8961">
        <ele>1036.4</ele>
        <time>2022-05-28T15:21:14Z</time>
      </trkpt>
      <trkpt lat="48.03185" lon="6.89621">
        <ele>1036.6</ele>
        <time>2022-05-28T15:21:18Z</time>
      </trkpt>
      <trkpt lat="48.03192" lon="6.89632">
        <ele>1038.5</ele>
        <time>2022-05-28T15:21:22Z</time>
      </trkpt>
      <trkpt lat="48.03199" lon="6.89643">
        <ele>1039.3</ele>
        <time>2022-05-28T15:21:26Z</time>
      </trkpt>
      <trkpt lat="48.03205" lon="6.89655">
        <ele>1040.3</ele>
        <time>2022-05-28T15:21:30Z</time>
      </trkpt>
      <trkpt lat="48.03212" lon="6.89664">
        <ele>1040.1</ele>
        <time>2022-05-28T15:21:34Z</time>
      </trkpt>
      <trkpt lat="48.03221" lon="6.89672">
        <ele>1042.4</ele>
        <time>2022-05-28T15:21:38Z</time>
      </trkpt>
      <trkpt lat="48.03231" lon="6.89677">
        <ele>1040.5</ele>
        <time>2022-05-28T15:21:42Z</time>
      </trkpt>
      <trkpt lat="48.03242" lon="6.89681">
        <ele>1043.2</ele>
        <time>2022-05-28T15:21:46Z</time>
      </trkpt>
      <trkpt lat="48.03251" lon="6.89685">
        <ele>1043.2</ele>
        <time>2022-05-28T15:21:49Z</time>
      </trkpt>
      <trkpt lat="48.03261" lon="6.89689">
        <ele>1043.8</ele>
        <time>2022-05-28T15:21:52Z</time>
      </trkpt>
      <trkpt lat="48.03272" lon="6.89694">
        <ele>1043.2</ele>
        <time>2022-05-28T15:21:55Z</time>
      </trkpt>
      <trkpt lat="48.03281" lon="6.89702">
        <ele>1045.3</ele>
        <time>2022-05-28T15:21:58Z</time>
      </trkpt>
      <trkpt lat="48.03287" lon="6.89713">
        <ele>1044.5</ele>
        <time>2022-05-28T15:22:01Z</time>
      </trkpt>
      <trkpt lat="48.03291" lon="6.89725">
        <ele>1047.5</ele>
        <time>2022-05-28T15:22:04Z</time>
      </trkpt>
      <trkpt lat="48.03299" lon="6.89736">
        <ele>1047.4</ele>
        <time>2022-05-28T15:22:07Z</time>
      </trkpt>
      <trkpt lat="48.03306" lon="6.89746">
        <ele>1047.3</ele>
        <time>2022-05-28T15:22:10Z</time>
      </trkpt>
      <trkpt lat="48.03313" lon="6.89757">
        <ele>1047.3</ele>
        <time>2022-05-28T15:22:13Z</time>
      </trkpt>
      <trkpt lat="48.0332" lon="6.89766">
        <ele>1048.9</ele>
        <time>2022-05-28T15:22:16Z</time>
      </trkpt>
      <trkpt lat="48.03328" lon="6.89774">
        <ele>1050.9</ele>
        <time>2022-05-28T15:22:19Z</time>
      </trkpt>
      <trkpt lat="48.03337" lon="6.89781">
        <ele>1048.7</ele>
        <time>2022-05-28T15:22:22Z</time>
      </trkpt>
      <trkpt lat="48.03344" lon="6.89789">
        <ele>1048.7</ele>
        <time>2022-05-28T15:22:25Z</time>
      </trkpt>
      <trkpt lat="48.03351" lon="6.89797">
        <ele>1049.7</ele>
        <time>2022-05-28T15:22:28Z</time>
      </trkpt>
      <trkpt lat="48.0336" lon="6.89807">
        <ele>1050.2</ele>
        <time>2022-05-28T15:22:32Z</time>
      </trkpt>
      <trkpt lat="48.03367" lon="6.89815">
        <ele>1051.7</ele>
        <time>2022-05-28T15:22:39Z</time>
      </trkpt>
      <trkpt lat="48.03376" lon="6.89813">
        <ele>1052</ele>
        <time>2022-05-28T15:22:46Z</time>
      </trkpt>
      <trkpt lat="48.03379" lon="6.89816">
        <ele>1052.4</ele>
        <time>2022-05-28T15:22:51Z</time>
      </trkpt>
      <trkpt lat="48.03378" lon="6.89816">
        <ele>1052.4</ele>
        <time>2022-05-28T15:24:04Z</time>
      </trkpt>
      <trkpt lat="48.03379" lon="6.89817">
        <ele>1052.6</ele>
        <time>2022-05-28T15:24:42Z</time>
      </trkpt>
      <trkpt lat="48.03378" lon="6.89812">
        <ele>1052.8</ele>
        <time>2022-05-28T15:25:58Z</time>
      </trkpt>
      <trkpt lat="48.03378" lon="6.89812">
        <ele>1053.2</ele>
        <time>2022-05-28T15:27:03Z</time>
      </trkpt>
      <trkpt lat="48.03378" lon="6.89813">
        <ele>1052.9</ele>
        <time>2022-05-28T15:27:37Z</time>
      </trkpt>
      <trkpt lat="48.03381" lon="6.89818">
        <ele>1053.4</ele>
        <time>2022-05-28T15:27:46Z</time>
      </trkpt>
      <trkpt lat="48.03381" lon="6.89819">
        <ele>1053.9</ele>
        <time>2022-05-28T15:28:32Z</time>
      </trkpt>
      <trkpt lat="48.0338" lon="6.89819">
        <ele>1053.9</ele>
        <time>2022-05-28T15:28:34Z</time>
      </trkpt>
      <trkpt lat="48.03381" lon="6.8982">
        <ele>1053.7</ele>
        <time>2022-05-28T15:29:04Z</time>
      </trkpt>
      <trkpt lat="48.03389" lon="6.89826">
        <ele>1051.3</ele>
        <time>2022-05-28T15:29:09Z</time>
      </trkpt>
      <trkpt lat="48.03398" lon="6.89832">
        <ele>1051.6</ele>
        <time>2022-05-28T15:29:12Z</time>
      </trkpt>
      <trkpt lat="48.03408" lon="6.8984">
        <ele>1052.2</ele>
        <time>2022-05-28T15:29:16Z</time>
      </trkpt>
      <trkpt lat="48.03418" lon="6.89845">
        <ele>1052.9</ele>
        <time>2022-05-28T15:29:20Z</time>
      </trkpt>
      <trkpt lat="48.03429" lon="6.89849">
        <ele>1053</ele>
        <time>2022-05-28T15:29:23Z</time>
      </trkpt>
      <trkpt lat="48.03439" lon="6.8985">
        <ele>1052.2</ele>
        <time>2022-05-28T15:29:26Z</time>
      </trkpt>
      <trkpt lat="48.03448" lon="6.89849">
        <ele>1051.9</ele>
        <time>2022-05-28T15:29:29Z</time>
      </trkpt>
      <trkpt lat="48.03459" lon="6.89846">
        <ele>1051.7</ele>
        <time>2022-05-28T15:29:32Z</time>
      </trkpt>
      <trkpt lat="48.03468" lon="6.89845">
        <ele>1051.8</ele>
        <time>2022-05-28T15:29:35Z</time>
      </trkpt>
      <trkpt lat="48.03477" lon="6.89848">
        <ele>1054.5</ele>
        <time>2022-05-28T15:29:38Z</time>
      </trkpt>
      <trkpt lat="48.03486" lon="6.89859">
        <ele>1054.2</ele>
        <time>2022-05-28T15:29:42Z</time>
      </trkpt>
      <trkpt lat="48.03491" lon="6.89875">
        <ele>1055.3</ele>
        <time>2022-05-28T15:29:46Z</time>
      </trkpt>
      <trkpt lat="48.03491" lon="6.89891">
        <ele>1055.2</ele>
        <time>2022-05-28T15:29:50Z</time>
      </trkpt>
      <trkpt lat="48.03486" lon="6.89904">
        <ele>1057.5</ele>
        <time>2022-05-28T15:29:55Z</time>
      </trkpt>
      <trkpt lat="48.03481" lon="6.89918">
        <ele>1058.9</ele>
        <time>2022-05-28T15:30:00Z</time>
      </trkpt>
      <trkpt lat="48.03477" lon="6.89932">
        <ele>1057.9</ele>
        <time>2022-05-28T15:30:05Z</time>
      </trkpt>
      <trkpt lat="48.03472" lon="6.89946">
        <ele>1059.9</ele>
        <time>2022-05-28T15:30:10Z</time>
      </trkpt>
      <trkpt lat="48.03466" lon="6.89958">
        <ele>1060.9</ele>
        <time>2022-05-28T15:30:15Z</time>
      </trkpt>
      <trkpt lat="48.03461" lon="6.8997">
        <ele>1062.8</ele>
        <time>2022-05-28T15:30:20Z</time>
      </trkpt>
      <trkpt lat="48.03455" lon="6.89983">
        <ele>1063.5</ele>
        <time>2022-05-28T15:30:26Z</time>
      </trkpt>
      <trkpt lat="48.03453" lon="6.89997">
        <ele>1063.5</ele>
        <time>2022-05-28T15:30:31Z</time>
      </trkpt>
      <trkpt lat="48.03453" lon="6.90012">
        <ele>1065.2</ele>
        <time>2022-05-28T15:30:36Z</time>
      </trkpt>
      <trkpt lat="48.03451" lon="6.90028">
        <ele>1065.1</ele>
        <time>2022-05-28T15:30:41Z</time>
      </trkpt>
      <trkpt lat="48.03449" lon="6.90043">
        <ele>1065.7</ele>
        <time>2022-05-28T15:30:46Z</time>
      </trkpt>
      <trkpt lat="48.03445" lon="6.90057">
        <ele>1066.6</ele>
        <time>2022-05-28T15:30:51Z</time>
      </trkpt>
      <trkpt lat="48.03443" lon="6.9007">
        <ele>1066.9</ele>
        <time>2022-05-28T15:30:55Z</time>
      </trkpt>
      <trkpt lat="48.03441" lon="6.90084">
        <ele>1067.4</ele>
        <time>2022-05-28T15:30:59Z</time>
      </trkpt>
      <trkpt lat="48.03441" lon="6.901">
        <ele>1068</ele>
        <time>2022-05-28T15:31:04Z</time>
      </trkpt>
      <trkpt lat="48.03444" lon="6.90115">
        <ele>1068.3</ele>
        <time>2022-05-28T15:31:09Z</time>
      </trkpt>
      <trkpt lat="48.03448" lon="6.90127">
        <ele>1069.7</ele>
        <time>2022-05-28T15:31:14Z</time>
      </trkpt>
      <trkpt lat="48.03454" lon="6.90141">
        <ele>1071.6</ele>
        <time>2022-05-28T15:31:20Z</time>
      </trkpt>
      <trkpt lat="48.03459" lon="6.90153">
        <ele>1072.6</ele>
        <time>2022-05-28T15:31:26Z</time>
      </trkpt>
      <trkpt lat="48.03464" lon="6.90166">
        <ele>1072.6</ele>
        <time>2022-05-28T15:31:31Z</time>
      </trkpt>
      <trkpt lat="48.0347" lon="6.90177">
        <ele>1073.2</ele>
        <time>2022-05-28T15:31:36Z</time>
      </trkpt>
      <trkpt lat="48.0348" lon="6.90185">
        <ele>1072.8</ele>
        <time>2022-05-28T15:31:41Z</time>
      </trkpt>
      <trkpt lat="48.03489" lon="6.90189">
        <ele>1073.5</ele>
        <time>2022-05-28T15:31:45Z</time>
      </trkpt>
      <trkpt lat="48.035" lon="6.90193">
        <ele>1075.2</ele>
        <time>2022-05-28T15:31:50Z</time>
      </trkpt>
      <trkpt lat="48.03509" lon="6.902">
        <ele>1075</ele>
        <time>2022-05-28T15:31:54Z</time>
      </trkpt>
      <trkpt lat="48.03517" lon="6.90213">
        <ele>1075.4</ele>
        <time>2022-05-28T15:31:58Z</time>
      </trkpt>
      <trkpt lat="48.0352" lon="6.90226">
        <ele>1075.6</ele>
        <time>2022-05-28T15:32:01Z</time>
      </trkpt>
      <trkpt lat="48.03522" lon="6.90243">
        <ele>1077.4</ele>
        <time>2022-05-28T15:32:05Z</time>
      </trkpt>
      <trkpt lat="48.03522" lon="6.9026">
        <ele>1076.4</ele>
        <time>2022-05-28T15:32:09Z</time>
      </trkpt>
      <trkpt lat="48.03522" lon="6.90277">
        <ele>1076.3</ele>
        <time>2022-05-28T15:32:13Z</time>
      </trkpt>
      <trkpt lat="48.03523" lon="6.90291">
        <ele>1078.5</ele>
        <time>2022-05-28T15:32:16Z</time>
      </trkpt>
      <trkpt lat="48.03524" lon="6.90306">
        <ele>1077.5</ele>
        <time>2022-05-28T15:32:19Z</time>
      </trkpt>
      <trkpt lat="48.03523" lon="6.90323">
        <ele>1077.4</ele>
        <time>2022-05-28T15:32:23Z</time>
      </trkpt>
      <trkpt lat="48.03522" lon="6.90339">
        <ele>1075.1</ele>
        <time>2022-05-28T15:32:26Z</time>
      </trkpt>
      <trkpt lat="48.03521" lon="6.90353">
        <ele>1073.8</ele>
        <time>2022-05-28T15:32:28Z</time>
      </trkpt>
      <trkpt lat="48.03519" lon="6.9037">
        <ele>1071.9</ele>
        <time>2022-05-28T15:32:30Z</time>
      </trkpt>
      <trkpt lat="48.03518" lon="6.90387">
        <ele>1071.8</ele>
        <time>2022-05-28T15:32:32Z</time>
      </trkpt>
      <trkpt lat="48.03516" lon="6.90405">
        <ele>1073.3</ele>
        <time>2022-05-28T15:32:35Z</time>
      </trkpt>
      <trkpt lat="48.03512" lon="6.90421">
        <ele>1074.1</ele>
        <time>2022-05-28T15:32:39Z</time>
      </trkpt>
      <trkpt lat="48.03508" lon="6.90437">
        <ele>1074.9</ele>
        <time>2022-05-28T15:32:43Z</time>
      </trkpt>
      <trkpt lat="48.035" lon="6.90446">
        <ele>1076.1</ele>
        <time>2022-05-28T15:32:46Z</time>
      </trkpt>
      <trkpt lat="48.03489" lon="6.90454">
        <ele>1076.3</ele>
        <time>2022-05-28T15:32:49Z</time>
      </trkpt>
      <trkpt lat="48.0348" lon="6.90462">
        <ele>1076.4</ele>
        <time>2022-05-28T15:32:52Z</time>
      </trkpt>
      <trkpt lat="48.03475" lon="6.90474">
        <ele>1076</ele>
        <time>2022-05-28T15:32:55Z</time>
      </trkpt>
      <trkpt lat="48.03478" lon="6.90491">
        <ele>1074.4</ele>
        <time>2022-05-28T15:32:58Z</time>
      </trkpt>
      <trkpt lat="48.03481" lon="6.90505">
        <ele>1069.3</ele>
        <time>2022-05-28T15:33:00Z</time>
      </trkpt>
      <trkpt lat="48.03479" lon="6.9052">
        <ele>1068.6</ele>
        <time>2022-05-28T15:33:02Z</time>
      </trkpt>
      <trkpt lat="48.03476" lon="6.90537">
        <ele>1066.7</ele>
        <time>2022-05-28T15:33:04Z</time>
      </trkpt>
      <trkpt lat="48.0347" lon="6.90552">
        <ele>1066.6</ele>
        <time>2022-05-28T15:33:06Z</time>
      </trkpt>
      <trkpt lat="48.0346" lon="6.90561">
        <ele>1066.2</ele>
        <time>2022-05-28T15:33:08Z</time>
      </trkpt>
      <trkpt lat="48.0345" lon="6.90569">
        <ele>1067.8</ele>
        <time>2022-05-28T15:33:10Z</time>
      </trkpt>
      <trkpt lat="48.03441" lon="6.90583">
        <ele>1065.1</ele>
        <time>2022-05-28T15:33:12Z</time>
      </trkpt>
      <trkpt lat="48.03435" lon="6.90602">
        <ele>1064.4</ele>
        <time>2022-05-28T15:33:14Z</time>
      </trkpt>
      <trkpt lat="48.0343" lon="6.90623">
        <ele>1065.1</ele>
        <time>2022-05-28T15:33:16Z</time>
      </trkpt>
      <trkpt lat="48.03424" lon="6.90645">
        <ele>1060.8</ele>
        <time>2022-05-28T15:33:18Z</time>
      </trkpt>
      <trkpt lat="48.03419" lon="6.90669">
        <ele>1058.6</ele>
        <time>2022-05-28T15:33:20Z</time>
      </trkpt>
      <trkpt lat="48.03415" lon="6.90681">
        <ele>1058.8</ele>
        <time>2022-05-28T15:33:21Z</time>
      </trkpt>
      <trkpt lat="48.03411" lon="6.90693">
        <ele>1057.7</ele>
        <time>2022-05-28T15:33:22Z</time>
      </trkpt>
      <trkpt lat="48.03406" lon="6.90706">
        <ele>1058.8</ele>
        <time>2022-05-28T15:33:23Z</time>
      </trkpt>
      <trkpt lat="48.03403" lon="6.90719">
        <ele>1059.8</ele>
        <time>2022-05-28T15:33:24Z</time>
      </trkpt>
      <trkpt lat="48.034" lon="6.90732">
        <ele>1059.3</ele>
        <time>2022-05-28T15:33:25Z</time>
      </trkpt>
      <trkpt lat="48.03394" lon="6.90755">
        <ele>1060</ele>
        <time>2022-05-28T15:33:27Z</time>
      </trkpt>
      <trkpt lat="48.03386" lon="6.90771">
        <ele>1058.2</ele>
        <time>2022-05-28T15:33:29Z</time>
      </trkpt>
      <trkpt lat="48.0338" lon="6.90787">
        <ele>1058.8</ele>
        <time>2022-05-28T15:33:31Z</time>
      </trkpt>
      <trkpt lat="48.0338" lon="6.90806">
        <ele>1057.4</ele>
        <time>2022-05-28T15:33:33Z</time>
      </trkpt>
      <trkpt lat="48.03382" lon="6.90825">
        <ele>1057.7</ele>
        <time>2022-05-28T15:33:35Z</time>
      </trkpt>
      <trkpt lat="48.03386" lon="6.90843">
        <ele>1057</ele>
        <time>2022-05-28T15:33:37Z</time>
      </trkpt>
      <trkpt lat="48.03391" lon="6.90861">
        <ele>1055.9</ele>
        <time>2022-05-28T15:33:39Z</time>
      </trkpt>
      <trkpt lat="48.03396" lon="6.90878">
        <ele>1056.4</ele>
        <time>2022-05-28T15:33:41Z</time>
      </trkpt>
      <trkpt lat="48.034" lon="6.90893">
        <ele>1056.8</ele>
        <time>2022-05-28T15:33:43Z</time>
      </trkpt>
      <trkpt lat="48.03406" lon="6.9091">
        <ele>1058.9</ele>
        <time>2022-05-28T15:33:46Z</time>
      </trkpt>
      <trkpt lat="48.0341" lon="6.90925">
        <ele>1058.3</ele>
        <time>2022-05-28T15:33:49Z</time>
      </trkpt>
      <trkpt lat="48.03413" lon="6.90944">
        <ele>1056.6</ele>
        <time>2022-05-28T15:33:52Z</time>
      </trkpt>
      <trkpt lat="48.03415" lon="6.90957">
        <ele>1058.7</ele>
        <time>2022-05-28T15:33:54Z</time>
      </trkpt>
      <trkpt lat="48.03418" lon="6.90975">
        <ele>1059.5</ele>
        <time>2022-05-28T15:33:57Z</time>
      </trkpt>
      <trkpt lat="48.03422" lon="6.90991">
        <ele>1059</ele>
        <time>2022-05-28T15:34:00Z</time>
      </trkpt>
      <trkpt lat="48.03428" lon="6.91007">
        <ele>1059.5</ele>
        <time>2022-05-28T15:34:03Z</time>
      </trkpt>
      <trkpt lat="48.03436" lon="6.9102">
        <ele>1060.1</ele>
        <time>2022-05-28T15:34:06Z</time>
      </trkpt>
      <trkpt lat="48.03443" lon="6.9103">
        <ele>1056.8</ele>
        <time>2022-05-28T15:34:08Z</time>
      </trkpt>
      <trkpt lat="48.03451" lon="6.9104">
        <ele>1057.7</ele>
        <time>2022-05-28T15:34:10Z</time>
      </trkpt>
      <trkpt lat="48.03459" lon="6.91051">
        <ele>1058.8</ele>
        <time>2022-05-28T15:34:12Z</time>
      </trkpt>
      <trkpt lat="48.03467" lon="6.91062">
        <ele>1056.5</ele>
        <time>2022-05-28T15:34:14Z</time>
      </trkpt>
      <trkpt lat="48.03475" lon="6.91075">
        <ele>1056</ele>
        <time>2022-05-28T15:34:16Z</time>
      </trkpt>
      <trkpt lat="48.03483" lon="6.91085">
        <ele>1057.4</ele>
        <time>2022-05-28T15:34:18Z</time>
      </trkpt>
      <trkpt lat="48.03492" lon="6.91096">
        <ele>1060.4</ele>
        <time>2022-05-28T15:34:21Z</time>
      </trkpt>
      <trkpt lat="48.035" lon="6.91105">
        <ele>1060.8</ele>
        <time>2022-05-28T15:34:24Z</time>
      </trkpt>
      <trkpt lat="48.03509" lon="6.91116">
        <ele>1061.9</ele>
        <time>2022-05-28T15:34:28Z</time>
      </trkpt>
      <trkpt lat="48.03517" lon="6.91123">
        <ele>1061.6</ele>
        <time>2022-05-28T15:34:31Z</time>
      </trkpt>
      <trkpt lat="48.03526" lon="6.91128">
        <ele>1062.8</ele>
        <time>2022-05-28T15:34:34Z</time>
      </trkpt>
      <trkpt lat="48.03535" lon="6.91136">
        <ele>1063.7</ele>
        <time>2022-05-28T15:34:38Z</time>
      </trkpt>
      <trkpt lat="48.03544" lon="6.91145">
        <ele>1065.9</ele>
        <time>2022-05-28T15:34:42Z</time>
      </trkpt>
      <trkpt lat="48.03554" lon="6.91154">
        <ele>1066.2</ele>
        <time>2022-05-28T15:34:46Z</time>
      </trkpt>
      <trkpt lat="48.03563" lon="6.91163">
        <ele>1067.4</ele>
        <time>2022-05-28T15:34:50Z</time>
      </trkpt>
      <trkpt lat="48.03573" lon="6.91172">
        <ele>1067.1</ele>
        <time>2022-05-28T15:34:54Z</time>
      </trkpt>
      <trkpt lat="48.03582" lon="6.91178">
        <ele>1067.8</ele>
        <time>2022-05-28T15:34:58Z</time>
      </trkpt>
      <trkpt lat="48.03592" lon="6.91182">
        <ele>1068.7</ele>
        <time>2022-05-28T15:35:02Z</time>
      </trkpt>
      <trkpt lat="48.03601" lon="6.91189">
        <ele>1067.8</ele>
        <time>2022-05-28T15:35:05Z</time>
      </trkpt>
      <trkpt lat="48.03613" lon="6.91197">
        <ele>1065.3</ele>
        <time>2022-05-28T15:35:08Z</time>
      </trkpt>
      <trkpt lat="48.03622" lon="6.91202">
        <ele>1065</ele>
        <time>2022-05-28T15:35:10Z</time>
      </trkpt>
      <trkpt lat="48.03631" lon="6.91206">
        <ele>1066</ele>
        <time>2022-05-28T15:35:12Z</time>
      </trkpt>
      <trkpt lat="48.0364" lon="6.91209">
        <ele>1066.4</ele>
        <time>2022-05-28T15:35:14Z</time>
      </trkpt>
      <trkpt lat="48.03649" lon="6.91213">
        <ele>1065.8</ele>
        <time>2022-05-28T15:35:16Z</time>
      </trkpt>
      <trkpt lat="48.03658" lon="6.91216">
        <ele>1065.2</ele>
        <time>2022-05-28T15:35:18Z</time>
      </trkpt>
      <trkpt lat="48.0367" lon="6.91223">
        <ele>1065.9</ele>
        <time>2022-05-28T15:35:21Z</time>
      </trkpt>
      <trkpt lat="48.03679" lon="6.91229">
        <ele>1064.8</ele>
        <time>2022-05-28T15:35:23Z</time>
      </trkpt>
      <trkpt lat="48.03687" lon="6.91236">
        <ele>1062.9</ele>
        <time>2022-05-28T15:35:25Z</time>
      </trkpt>
      <trkpt lat="48.03695" lon="6.91244">
        <ele>1062.1</ele>
        <time>2022-05-28T15:35:27Z</time>
      </trkpt>
      <trkpt lat="48.03704" lon="6.91253">
        <ele>1062.4</ele>
        <time>2022-05-28T15:35:29Z</time>
      </trkpt>
      <trkpt lat="48.03714" lon="6.91264">
        <ele>1062.6</ele>
        <time>2022-05-28T15:35:31Z</time>
      </trkpt>
      <trkpt lat="48.03723" lon="6.91276">
        <ele>1064.5</ele>
        <time>2022-05-28T15:35:33Z</time>
      </trkpt>
      <trkpt lat="48.03732" lon="6.9129">
        <ele>1061.6</ele>
        <time>2022-05-28T15:35:35Z</time>
      </trkpt>
      <trkpt lat="48.03741" lon="6.91303">
        <ele>1062</ele>
        <time>2022-05-28T15:35:37Z</time>
      </trkpt>
      <trkpt lat="48.03749" lon="6.91315">
        <ele>1063</ele>
        <time>2022-05-28T15:35:39Z</time>
      </trkpt>
      <trkpt lat="48.03756" lon="6.91327">
        <ele>1063.4</ele>
        <time>2022-05-28T15:35:41Z</time>
      </trkpt>
      <trkpt lat="48.03762" lon="6.91339">
        <ele>1064.7</ele>
        <time>2022-05-28T15:35:43Z</time>
      </trkpt>
      <trkpt lat="48.03768" lon="6.91351">
        <ele>1064.6</ele>
        <time>2022-05-28T15:35:45Z</time>
      </trkpt>
      <trkpt lat="48.03777" lon="6.91366">
        <ele>1063.2</ele>
        <time>2022-05-28T15:35:48Z</time>
      </trkpt>
      <trkpt lat="48.03784" lon="6.91375">
        <ele>1064.8</ele>
        <time>2022-05-28T15:35:50Z</time>
      </trkpt>
      <trkpt lat="48.03791" lon="6.91383">
        <ele>1065.4</ele>
        <time>2022-05-28T15:35:52Z</time>
      </trkpt>
      <trkpt lat="48.03801" lon="6.91395">
        <ele>1066</ele>
        <time>2022-05-28T15:35:55Z</time>
      </trkpt>
      <trkpt lat="48.03811" lon="6.91404">
        <ele>1065.2</ele>
        <time>2022-05-28T15:35:58Z</time>
      </trkpt>
      <trkpt lat="48.03818" lon="6.91415">
        <ele>1067.5</ele>
        <time>2022-05-28T15:36:01Z</time>
      </trkpt>
      <trkpt lat="48.03822" lon="6.9143">
        <ele>1067.2</ele>
        <time>2022-05-28T15:36:04Z</time>
      </trkpt>
      <trkpt lat="48.03825" lon="6.91447">
        <ele>1067.2</ele>
        <time>2022-05-28T15:36:07Z</time>
      </trkpt>
      <trkpt lat="48.03829" lon="6.91465">
        <ele>1067.8</ele>
        <time>2022-05-28T15:36:10Z</time>
      </trkpt>
      <trkpt lat="48.03832" lon="6.91479">
        <ele>1067.7</ele>
        <time>2022-05-28T15:36:12Z</time>
      </trkpt>
      <trkpt lat="48.03836" lon="6.91493">
        <ele>1066.5</ele>
        <time>2022-05-28T15:36:14Z</time>
      </trkpt>
      <trkpt lat="48.03842" lon="6.91507">
        <ele>1066</ele>
        <time>2022-05-28T15:36:16Z</time>
      </trkpt>
      <trkpt lat="48.03849" lon="6.9152">
        <ele>1064.9</ele>
        <time>2022-05-28T15:36:18Z</time>
      </trkpt>
      <trkpt lat="48.03856" lon="6.91532">
        <ele>1064.1</ele>
        <time>2022-05-28T15:36:20Z</time>
      </trkpt>
      <trkpt lat="48.03863" lon="6.91542">
        <ele>1065.2</ele>
        <time>2022-05-28T15:36:22Z</time>
      </trkpt>
      <trkpt lat="48.03871" lon="6.91551">
        <ele>1067.5</ele>
        <time>2022-05-28T15:36:24Z</time>
      </trkpt>
      <trkpt lat="48.03882" lon="6.91563">
        <ele>1068</ele>
        <time>2022-05-28T15:36:27Z</time>
      </trkpt>
      <trkpt lat="48.0389" lon="6.9157">
        <ele>1067.4</ele>
        <time>2022-05-28T15:36:29Z</time>
      </trkpt>
      <trkpt lat="48.03898" lon="6.91576">
        <ele>1065.8</ele>
        <time>2022-05-28T15:36:31Z</time>
      </trkpt>
      <trkpt lat="48.03907" lon="6.91581">
        <ele>1066.9</ele>
        <time>2022-05-28T15:36:33Z</time>
      </trkpt>
      <trkpt lat="48.03916" lon="6.91583">
        <ele>1066.4</ele>
        <time>2022-05-28T15:36:35Z</time>
      </trkpt>
      <trkpt lat="48.03925" lon="6.91585">
        <ele>1066.6</ele>
        <time>2022-05-28T15:36:37Z</time>
      </trkpt>
      <trkpt lat="48.03934" lon="6.91587">
        <ele>1066.7</ele>
        <time>2022-05-28T15:36:39Z</time>
      </trkpt>
      <trkpt lat="48.03943" lon="6.91588">
        <ele>1066.5</ele>
        <time>2022-05-28T15:36:41Z</time>
      </trkpt>
      <trkpt lat="48.03954" lon="6.91594">
        <ele>1068.3</ele>
        <time>2022-05-28T15:36:44Z</time>
      </trkpt>
      <trkpt lat="48.03962" lon="6.91604">
        <ele>1067.6</ele>
        <time>2022-05-28T15:36:47Z</time>
      </trkpt>
      <trkpt lat="48.03969" lon="6.91614">
        <ele>1067</ele>
        <time>2022-05-28T15:36:49Z</time>
      </trkpt>
      <trkpt lat="48.03977" lon="6.91623">
        <ele>1065.6</ele>
        <time>2022-05-28T15:36:51Z</time>
      </trkpt>
      <trkpt lat="48.03986" lon="6.91633">
        <ele>1066.4</ele>
        <time>2022-05-28T15:36:54Z</time>
      </trkpt>
      <trkpt lat="48.03987" lon="6.91636">
        <ele>1066.9</ele>
        <time>2022-05-28T15:37:00Z</time>
      </trkpt>
      <trkpt lat="48.03988" lon="6.91637">
        <ele>1066.9</ele>
        <time>2022-05-28T15:37:48Z</time>
      </trkpt>
      <trkpt lat="48.03996" lon="6.91647">
        <ele>1067</ele>
        <time>2022-05-28T15:37:55Z</time>
      </trkpt>
      <trkpt lat="48.04004" lon="6.91657">
        <ele>1069.9</ele>
        <time>2022-05-28T15:38:01Z</time>
      </trkpt>
      <trkpt lat="48.04013" lon="6.91666">
        <ele>1069.4</ele>
        <time>2022-05-28T15:38:06Z</time>
      </trkpt>
      <trkpt lat="48.04021" lon="6.91675">
        <ele>1071.6</ele>
        <time>2022-05-28T15:38:11Z</time>
      </trkpt>
      <trkpt lat="48.04029" lon="6.91685">
        <ele>1071</ele>
        <time>2022-05-28T15:38:15Z</time>
      </trkpt>
      <trkpt lat="48.04035" lon="6.91697">
        <ele>1071</ele>
        <time>2022-05-28T15:38:19Z</time>
      </trkpt>
      <trkpt lat="48.04042" lon="6.91707">
        <ele>1070.9</ele>
        <time>2022-05-28T15:38:23Z</time>
      </trkpt>
      <trkpt lat="48.04049" lon="6.91717">
        <ele>1070.6</ele>
        <time>2022-05-28T15:38:27Z</time>
      </trkpt>
      <trkpt lat="48.04055" lon="6.91732">
        <ele>1070.9</ele>
        <time>2022-05-28T15:38:31Z</time>
      </trkpt>
      <trkpt lat="48.04057" lon="6.91747">
        <ele>1071</ele>
        <time>2022-05-28T15:38:35Z</time>
      </trkpt>
      <trkpt lat="48.04061" lon="6.9176">
        <ele>1070.3</ele>
        <time>2022-05-28T15:38:39Z</time>
      </trkpt>
      <trkpt lat="48.04062" lon="6.91776">
        <ele>1070</ele>
        <time>2022-05-28T15:38:42Z</time>
      </trkpt>
      <trkpt lat="48.04067" lon="6.91792">
        <ele>1070</ele>
        <time>2022-05-28T15:38:45Z</time>
      </trkpt>
      <trkpt lat="48.04073" lon="6.91808">
        <ele>1069.5</ele>
        <time>2022-05-28T15:38:48Z</time>
      </trkpt>
      <trkpt lat="48.04081" lon="6.91825">
        <ele>1068.2</ele>
        <time>2022-05-28T15:38:51Z</time>
      </trkpt>
      <trkpt lat="48.04088" lon="6.91841">
        <ele>1068.8</ele>
        <time>2022-05-28T15:38:54Z</time>
      </trkpt>
      <trkpt lat="48.04093" lon="6.91853">
        <ele>1067.1</ele>
        <time>2022-05-28T15:38:56Z</time>
      </trkpt>
      <trkpt lat="48.041" lon="6.91864">
        <ele>1066.6</ele>
        <time>2022-05-28T15:38:58Z</time>
      </trkpt>
      <trkpt lat="48.0411" lon="6.91872">
        <ele>1062.4</ele>
        <time>2022-05-28T15:39:01Z</time>
      </trkpt>
      <trkpt lat="48.04122" lon="6.91878">
        <ele>1062.4</ele>
        <time>2022-05-28T15:39:04Z</time>
      </trkpt>
      <trkpt lat="48.04131" lon="6.91884">
        <ele>1061.6</ele>
        <time>2022-05-28T15:39:06Z</time>
      </trkpt>
      <trkpt lat="48.04142" lon="6.91893">
        <ele>1061.8</ele>
        <time>2022-05-28T15:39:08Z</time>
      </trkpt>
      <trkpt lat="48.04155" lon="6.91902">
        <ele>1062.3</ele>
        <time>2022-05-28T15:39:10Z</time>
      </trkpt>
      <trkpt lat="48.04168" lon="6.91909">
        <ele>1063</ele>
        <time>2022-05-28T15:39:12Z</time>
      </trkpt>
      <trkpt lat="48.0418" lon="6.91916">
        <ele>1063.6</ele>
        <time>2022-05-28T15:39:14Z</time>
      </trkpt>
      <trkpt lat="48.04189" lon="6.91924">
        <ele>1062.7</ele>
        <time>2022-05-28T15:39:16Z</time>
      </trkpt>
      <trkpt lat="48.04198" lon="6.91932">
        <ele>1063.7</ele>
        <time>2022-05-28T15:39:18Z</time>
      </trkpt>
      <trkpt lat="48.04209" lon="6.9194">
        <ele>1065.8</ele>
        <time>2022-05-28T15:39:21Z</time>
      </trkpt>
      <trkpt lat="48.04218" lon="6.9195">
        <ele>1065.1</ele>
        <time>2022-05-28T15:39:24Z</time>
      </trkpt>
      <trkpt lat="48.04227" lon="6.91959">
        <ele>1067.4</ele>
        <time>2022-05-28T15:39:27Z</time>
      </trkpt>
      <trkpt lat="48.04235" lon="6.91969">
        <ele>1068.1</ele>
        <time>2022-05-28T15:39:30Z</time>
      </trkpt>
      <trkpt lat="48.04243" lon="6.91976">
        <ele>1067.6</ele>
        <time>2022-05-28T15:39:33Z</time>
      </trkpt>
      <trkpt lat="48.04252" lon="6.91981">
        <ele>1068.2</ele>
        <time>2022-05-28T15:39:36Z</time>
      </trkpt>
      <trkpt lat="48.0426" lon="6.91986">
        <ele>1070.6</ele>
        <time>2022-05-28T15:39:39Z</time>
      </trkpt>
      <trkpt lat="48.04269" lon="6.91992">
        <ele>1069.7</ele>
        <time>2022-05-28T15:39:43Z</time>
      </trkpt>
      <trkpt lat="48.04278" lon="6.91999">
        <ele>1072.7</ele>
        <time>2022-05-28T15:39:48Z</time>
      </trkpt>
      <trkpt lat="48.04288" lon="6.92007">
        <ele>1073.3</ele>
        <time>2022-05-28T15:39:53Z</time>
      </trkpt>
      <trkpt lat="48.04296" lon="6.92015">
        <ele>1073.7</ele>
        <time>2022-05-28T15:39:57Z</time>
      </trkpt>
      <trkpt lat="48.04306" lon="6.92022">
        <ele>1074.8</ele>
        <time>2022-05-28T15:40:01Z</time>
      </trkpt>
      <trkpt lat="48.04316" lon="6.9203">
        <ele>1075.7</ele>
        <time>2022-05-28T15:40:05Z</time>
      </trkpt>
      <trkpt lat="48.04324" lon="6.92036">
        <ele>1077</ele>
        <time>2022-05-28T15:40:09Z</time>
      </trkpt>
      <trkpt lat="48.04332" lon="6.92047">
        <ele>1075.8</ele>
        <time>2022-05-28T15:40:14Z</time>
      </trkpt>
      <trkpt lat="48.0434" lon="6.92061">
        <ele>1072.1</ele>
        <time>2022-05-28T15:40:17Z</time>
      </trkpt>
      <trkpt lat="48.04346" lon="6.92072">
        <ele>1073.5</ele>
        <time>2022-05-28T15:40:19Z</time>
      </trkpt>
      <trkpt lat="48.04352" lon="6.92083">
        <ele>1074.8</ele>
        <time>2022-05-28T15:40:21Z</time>
      </trkpt>
      <trkpt lat="48.04358" lon="6.92094">
        <ele>1074.3</ele>
        <time>2022-05-28T15:40:23Z</time>
      </trkpt>
      <trkpt lat="48.04365" lon="6.9211">
        <ele>1073.8</ele>
        <time>2022-05-28T15:40:26Z</time>
      </trkpt>
      <trkpt lat="48.04372" lon="6.92125">
        <ele>1072.8</ele>
        <time>2022-05-28T15:40:29Z</time>
      </trkpt>
      <trkpt lat="48.0438" lon="6.92139">
        <ele>1072.8</ele>
        <time>2022-05-28T15:40:32Z</time>
      </trkpt>
      <trkpt lat="48.0439" lon="6.92149">
        <ele>1072.4</ele>
        <time>2022-05-28T15:40:36Z</time>
      </trkpt>
      <trkpt lat="48.04397" lon="6.92163">
        <ele>1070.2</ele>
        <time>2022-05-28T15:40:40Z</time>
      </trkpt>
      <trkpt lat="48.04404" lon="6.92177">
        <ele>1067.2</ele>
        <time>2022-05-28T15:40:43Z</time>
      </trkpt>
      <trkpt lat="48.04402" lon="6.92193">
        <ele>1066.4</ele>
        <time>2022-05-28T15:40:47Z</time>
      </trkpt>
      <trkpt lat="48.04395" lon="6.92206">
        <ele>1064.7</ele>
        <time>2022-05-28T15:40:50Z</time>
      </trkpt>
      <trkpt lat="48.04387" lon="6.92214">
        <ele>1063.5</ele>
        <time>2022-05-28T15:40:52Z</time>
      </trkpt>
      <trkpt lat="48.04378" lon="6.92219">
        <ele>1063.2</ele>
        <time>2022-05-28T15:40:54Z</time>
      </trkpt>
      <trkpt lat="48.04369" lon="6.92218">
        <ele>1063</ele>
        <time>2022-05-28T15:40:58Z</time>
      </trkpt>
      <trkpt lat="48.04358" lon="6.92217">
        <ele>1060.2</ele>
        <time>2022-05-28T15:41:01Z</time>
      </trkpt>
      <trkpt lat="48.04349" lon="6.92213">
        <ele>1058.3</ele>
        <time>2022-05-28T15:41:03Z</time>
      </trkpt>
      <trkpt lat="48.04339" lon="6.92206">
        <ele>1058.8</ele>
        <time>2022-05-28T15:41:05Z</time>
      </trkpt>
      <trkpt lat="48.04329" lon="6.92199">
        <ele>1057.4</ele>
        <time>2022-05-28T15:41:07Z</time>
      </trkpt>
      <trkpt lat="48.04321" lon="6.92189">
        <ele>1056.6</ele>
        <time>2022-05-28T15:41:09Z</time>
      </trkpt>
      <trkpt lat="48.04311" lon="6.92178">
        <ele>1055.6</ele>
        <time>2022-05-28T15:41:11Z</time>
      </trkpt>
      <trkpt lat="48.043" lon="6.92166">
        <ele>1053.3</ele>
        <time>2022-05-28T15:41:13Z</time>
      </trkpt>
      <trkpt lat="48.04291" lon="6.92151">
        <ele>1052</ele>
        <time>2022-05-28T15:41:15Z</time>
      </trkpt>
      <trkpt lat="48.04284" lon="6.92134">
        <ele>1051.5</ele>
        <time>2022-05-28T15:41:17Z</time>
      </trkpt>
      <trkpt lat="48.04278" lon="6.92117">
        <ele>1051.3</ele>
        <time>2022-05-28T15:41:19Z</time>
      </trkpt>
      <trkpt lat="48.04267" lon="6.92104">
        <ele>1049.5</ele>
        <time>2022-05-28T15:41:21Z</time>
      </trkpt>
      <trkpt lat="48.04254" lon="6.9209">
        <ele>1045.6</ele>
        <time>2022-05-28T15:41:23Z</time>
      </trkpt>
      <trkpt lat="48.04242" lon="6.92076">
        <ele>1047.6</ele>
        <time>2022-05-28T15:41:25Z</time>
      </trkpt>
      <trkpt lat="48.04233" lon="6.92064">
        <ele>1046.3</ele>
        <time>2022-05-28T15:41:27Z</time>
      </trkpt>
      <trkpt lat="48.04228" lon="6.92052">
        <ele>1045.7</ele>
        <time>2022-05-28T15:41:29Z</time>
      </trkpt>
      <trkpt lat="48.04219" lon="6.92041">
        <ele>1045.9</ele>
        <time>2022-05-28T15:41:32Z</time>
      </trkpt>
      <trkpt lat="48.04209" lon="6.92039">
        <ele>1045.3</ele>
        <time>2022-05-28T15:41:34Z</time>
      </trkpt>
      <trkpt lat="48.04198" lon="6.92035">
        <ele>1043</ele>
        <time>2022-05-28T15:41:37Z</time>
      </trkpt>
      <trkpt lat="48.04201" lon="6.92047">
        <ele>1042.1</ele>
        <time>2022-05-28T15:41:44Z</time>
      </trkpt>
      <trkpt lat="48.04202" lon="6.92046">
        <ele>1042.1</ele>
        <time>2022-05-28T15:41:51Z</time>
      </trkpt>
      <trkpt lat="48.04204" lon="6.92046">
        <ele>1041.9</ele>
        <time>2022-05-28T15:41:53Z</time>
      </trkpt>
      <trkpt lat="48.04204" lon="6.92047">
        <ele>1041.8</ele>
        <time>2022-05-28T15:42:14Z</time>
      </trkpt>
      <trkpt lat="48.04211" lon="6.92056">
        <ele>1041.5</ele>
        <time>2022-05-28T15:42:18Z</time>
      </trkpt>
      <trkpt lat="48.04219" lon="6.92068">
        <ele>1040.6</ele>
        <time>2022-05-28T15:42:22Z</time>
      </trkpt>
      <trkpt lat="48.04224" lon="6.92073">
        <ele>1041.5</ele>
        <time>2022-05-28T15:42:27Z</time>
      </trkpt>
      <trkpt lat="48.04224" lon="6.92073">
        <ele>1041.9</ele>
        <time>2022-05-28T15:42:58Z</time>
      </trkpt>
      <trkpt lat="48.04225" lon="6.92073">
        <ele>1041.8</ele>
        <time>2022-05-28T15:43:00Z</time>
      </trkpt>
      <trkpt lat="48.04226" lon="6.92072">
        <ele>1042</ele>
        <time>2022-05-28T15:43:16Z</time>
      </trkpt>
      <trkpt lat="48.0423" lon="6.92084">
        <ele>1041.8</ele>
        <time>2022-05-28T15:43:28Z</time>
      </trkpt>
      <trkpt lat="48.04235" lon="6.92101">
        <ele>1042.1</ele>
        <time>2022-05-28T15:43:32Z</time>
      </trkpt>
      <trkpt lat="48.04239" lon="6.92114">
        <ele>1042.4</ele>
        <time>2022-05-28T15:43:35Z</time>
      </trkpt>
      <trkpt lat="48.04245" lon="6.92126">
        <ele>1042.2</ele>
        <time>2022-05-28T15:43:38Z</time>
      </trkpt>
      <trkpt lat="48.04252" lon="6.92138">
        <ele>1041.5</ele>
        <time>2022-05-28T15:43:41Z</time>
      </trkpt>
      <trkpt lat="48.04258" lon="6.92148">
        <ele>1042.1</ele>
        <time>2022-05-28T15:43:43Z</time>
      </trkpt>
      <trkpt lat="48.04265" lon="6.92165">
        <ele>1042.6</ele>
        <time>2022-05-28T15:43:46Z</time>
      </trkpt>
      <trkpt lat="48.04266" lon="6.92183">
        <ele>1042.8</ele>
        <time>2022-05-28T15:43:49Z</time>
      </trkpt>
      <trkpt lat="48.04266" lon="6.92196">
        <ele>1042.9</ele>
        <time>2022-05-28T15:43:51Z</time>
      </trkpt>
      <trkpt lat="48.04265" lon="6.92214">
        <ele>1041.8</ele>
        <time>2022-05-28T15:43:54Z</time>
      </trkpt>
      <trkpt lat="48.04264" lon="6.92232">
        <ele>1042.1</ele>
        <time>2022-05-28T15:43:57Z</time>
      </trkpt>
      <trkpt lat="48.04263" lon="6.92245">
        <ele>1042</ele>
        <time>2022-05-28T15:43:59Z</time>
      </trkpt>
      <trkpt lat="48.04263" lon="6.92259">
        <ele>1042.4</ele>
        <time>2022-05-28T15:44:01Z</time>
      </trkpt>
      <trkpt lat="48.04264" lon="6.92274">
        <ele>1041.9</ele>
        <time>2022-05-28T15:44:03Z</time>
      </trkpt>
      <trkpt lat="48.04266" lon="6.92289">
        <ele>1042.6</ele>
        <time>2022-05-28T15:44:05Z</time>
      </trkpt>
      <trkpt lat="48.04267" lon="6.92302">
        <ele>1042.9</ele>
        <time>2022-05-28T15:44:07Z</time>
      </trkpt>
      <trkpt lat="48.04271" lon="6.92316">
        <ele>1041.7</ele>
        <time>2022-05-28T15:44:09Z</time>
      </trkpt>
      <trkpt lat="48.04275" lon="6.9233">
        <ele>1039.5</ele>
        <time>2022-05-28T15:44:11Z</time>
      </trkpt>
      <trkpt lat="48.04279" lon="6.92344">
        <ele>1039.1</ele>
        <time>2022-05-28T15:44:13Z</time>
      </trkpt>
      <trkpt lat="48.04283" lon="6.92357">
        <ele>1039.7</ele>
        <time>2022-05-28T15:44:15Z</time>
      </trkpt>
      <trkpt lat="48.04287" lon="6.9237">
        <ele>1039.2</ele>
        <time>2022-05-28T15:44:17Z</time>
      </trkpt>
      <trkpt lat="48.04292" lon="6.92382">
        <ele>1040.1</ele>
        <time>2022-05-28T15:44:19Z</time>
      </trkpt>
      <trkpt lat="48.04299" lon="6.92391">
        <ele>1040.4</ele>
        <time>2022-05-28T15:44:21Z</time>
      </trkpt>
      <trkpt lat="48.04308" lon="6.92396">
        <ele>1039.6</ele>
        <time>2022-05-28T15:44:23Z</time>
      </trkpt>
      <trkpt lat="48.04318" lon="6.92397">
        <ele>1038.9</ele>
        <time>2022-05-28T15:44:25Z</time>
      </trkpt>
      <trkpt lat="48.04327" lon="6.92394">
        <ele>1038.7</ele>
        <time>2022-05-28T15:44:27Z</time>
      </trkpt>
      <trkpt lat="48.04336" lon="6.92387">
        <ele>1038.4</ele>
        <time>2022-05-28T15:44:29Z</time>
      </trkpt>
      <trkpt lat="48.04344" lon="6.9238">
        <ele>1038.7</ele>
        <time>2022-05-28T15:44:31Z</time>
      </trkpt>
      <trkpt lat="48.04353" lon="6.92373">
        <ele>1038.7</ele>
        <time>2022-05-28T15:44:33Z</time>
      </trkpt>
      <trkpt lat="48.04362" lon="6.92366">
        <ele>1038.8</ele>
        <time>2022-05-28T15:44:35Z</time>
      </trkpt>
      <trkpt lat="48.04371" lon="6.92359">
        <ele>1039</ele>
        <time>2022-05-28T15:44:37Z</time>
      </trkpt>
      <trkpt lat="48.04379" lon="6.92353">
        <ele>1040.9</ele>
        <time>2022-05-28T15:44:39Z</time>
      </trkpt>
      <trkpt lat="48.04389" lon="6.92344">
        <ele>1040.9</ele>
        <time>2022-05-28T15:44:42Z</time>
      </trkpt>
      <trkpt lat="48.04398" lon="6.92335">
        <ele>1043.1</ele>
        <time>2022-05-28T15:44:45Z</time>
      </trkpt>
      <trkpt lat="48.04407" lon="6.92323">
        <ele>1043.4</ele>
        <time>2022-05-28T15:44:48Z</time>
      </trkpt>
      <trkpt lat="48.04414" lon="6.92313">
        <ele>1043.3</ele>
        <time>2022-05-28T15:44:51Z</time>
      </trkpt>
      <trkpt lat="48.0442" lon="6.92304">
        <ele>1044.1</ele>
        <time>2022-05-28T15:44:54Z</time>
      </trkpt>
      <trkpt lat="48.04427" lon="6.92291">
        <ele>1044.4</ele>
        <time>2022-05-28T15:44:57Z</time>
      </trkpt>
      <trkpt lat="48.04434" lon="6.92275">
        <ele>1044.4</ele>
        <time>2022-05-28T15:45:00Z</time>
      </trkpt>
      <trkpt lat="48.0444" lon="6.92263">
        <ele>1043.7</ele>
        <time>2022-05-28T15:45:03Z</time>
      </trkpt>
      <trkpt lat="48.04449" lon="6.92255">
        <ele>1046.2</ele>
        <time>2022-05-28T15:45:06Z</time>
      </trkpt>
      <trkpt lat="48.04459" lon="6.92252">
        <ele>1045.8</ele>
        <time>2022-05-28T15:45:09Z</time>
      </trkpt>
      <trkpt lat="48.0447" lon="6.92249">
        <ele>1045.1</ele>
        <time>2022-05-28T15:45:12Z</time>
      </trkpt>
      <trkpt lat="48.04481" lon="6.92246">
        <ele>1045.1</ele>
        <time>2022-05-28T15:45:15Z</time>
      </trkpt>
      <trkpt lat="48.04494" lon="6.92241">
        <ele>1044</ele>
        <time>2022-05-28T15:45:18Z</time>
      </trkpt>
      <trkpt lat="48.04504" lon="6.92237">
        <ele>1044.2</ele>
        <time>2022-05-28T15:45:20Z</time>
      </trkpt>
      <trkpt lat="48.04513" lon="6.92227">
        <ele>1043.5</ele>
        <time>2022-05-28T15:45:22Z</time>
      </trkpt>
      <trkpt lat="48.0452" lon="6.92215">
        <ele>1043.7</ele>
        <time>2022-05-28T15:45:24Z</time>
      </trkpt>
      <trkpt lat="48.04525" lon="6.92201">
        <ele>1043.3</ele>
        <time>2022-05-28T15:45:26Z</time>
      </trkpt>
      <trkpt lat="48.04528" lon="6.92187">
        <ele>1043.1</ele>
        <time>2022-05-28T15:45:28Z</time>
      </trkpt>
      <trkpt lat="48.04532" lon="6.92173">
        <ele>1043.1</ele>
        <time>2022-05-28T15:45:30Z</time>
      </trkpt>
      <trkpt lat="48.04535" lon="6.9216">
        <ele>1042.6</ele>
        <time>2022-05-28T15:45:32Z</time>
      </trkpt>
      <trkpt lat="48.04539" lon="6.92147">
        <ele>1043.7</ele>
        <time>2022-05-28T15:45:34Z</time>
      </trkpt>
      <trkpt lat="48.04545" lon="6.92137">
        <ele>1043.4</ele>
        <time>2022-05-28T15:45:36Z</time>
      </trkpt>
      <trkpt lat="48.04553" lon="6.92128">
        <ele>1042.2</ele>
        <time>2022-05-28T15:45:38Z</time>
      </trkpt>
      <trkpt lat="48.04562" lon="6.92122">
        <ele>1043.4</ele>
        <time>2022-05-28T15:45:40Z</time>
      </trkpt>
      <trkpt lat="48.0457" lon="6.92115">
        <ele>1043.2</ele>
        <time>2022-05-28T15:45:42Z</time>
      </trkpt>
      <trkpt lat="48.04581" lon="6.92107">
        <ele>1043.9</ele>
        <time>2022-05-28T15:45:45Z</time>
      </trkpt>
      <trkpt lat="48.04592" lon="6.92099">
        <ele>1044.9</ele>
        <time>2022-05-28T15:45:48Z</time>
      </trkpt>
      <trkpt lat="48.04605" lon="6.9209">
        <ele>1043.3</ele>
        <time>2022-05-28T15:45:51Z</time>
      </trkpt>
      <trkpt lat="48.04613" lon="6.92082">
        <ele>1043.6</ele>
        <time>2022-05-28T15:45:53Z</time>
      </trkpt>
      <trkpt lat="48.04622" lon="6.92074">
        <ele>1044.2</ele>
        <time>2022-05-28T15:45:55Z</time>
      </trkpt>
      <trkpt lat="48.04631" lon="6.92068">
        <ele>1045.8</ele>
        <time>2022-05-28T15:45:57Z</time>
      </trkpt>
      <trkpt lat="48.04644" lon="6.92064">
        <ele>1046.4</ele>
        <time>2022-05-28T15:46:00Z</time>
      </trkpt>
      <trkpt lat="48.04657" lon="6.92063">
        <ele>1047.7</ele>
        <time>2022-05-28T15:46:03Z</time>
      </trkpt>
      <trkpt lat="48.04669" lon="6.92065">
        <ele>1049.5</ele>
        <time>2022-05-28T15:46:06Z</time>
      </trkpt>
      <trkpt lat="48.04681" lon="6.92069">
        <ele>1048.1</ele>
        <time>2022-05-28T15:46:09Z</time>
      </trkpt>
      <trkpt lat="48.04693" lon="6.92074">
        <ele>1048.1</ele>
        <time>2022-05-28T15:46:12Z</time>
      </trkpt>
      <trkpt lat="48.04704" lon="6.92083">
        <ele>1047.8</ele>
        <time>2022-05-28T15:46:15Z</time>
      </trkpt>
      <trkpt lat="48.04712" lon="6.92089">
        <ele>1049.4</ele>
        <time>2022-05-28T15:46:17Z</time>
      </trkpt>
      <trkpt lat="48.04723" lon="6.92098">
        <ele>1049.6</ele>
        <time>2022-05-28T15:46:20Z</time>
      </trkpt>
      <trkpt lat="48.04734" lon="6.92108">
        <ele>1050.6</ele>
        <time>2022-05-28T15:46:23Z</time>
      </trkpt>
      <trkpt lat="48.04744" lon="6.92118">
        <ele>1051</ele>
        <time>2022-05-28T15:46:26Z</time>
      </trkpt>
      <trkpt lat="48.04752" lon="6.92129">
        <ele>1051.3</ele>
        <time>2022-05-28T15:46:29Z</time>
      </trkpt>
      <trkpt lat="48.0476" lon="6.9214">
        <ele>1052.1</ele>
        <time>2022-05-28T15:46:32Z</time>
      </trkpt>
      <trkpt lat="48.04768" lon="6.92153">
        <ele>1051.9</ele>
        <time>2022-05-28T15:46:36Z</time>
      </trkpt>
      <trkpt lat="48.04775" lon="6.92164">
        <ele>1052.8</ele>
        <time>2022-05-28T15:46:40Z</time>
      </trkpt>
      <trkpt lat="48.04778" lon="6.92171">
        <ele>1053.5</ele>
        <time>2022-05-28T15:46:45Z</time>
      </trkpt>
      <trkpt lat="48.04778" lon="6.9217">
        <ele>1053.5</ele>
        <time>2022-05-28T15:47:06Z</time>
      </trkpt>
      <trkpt lat="48.04778" lon="6.92169">
        <ele>1053.5</ele>
        <time>2022-05-28T15:47:25Z</time>
      </trkpt>
      <trkpt lat="48.04777" lon="6.92169">
        <ele>1053.7</ele>
        <time>2022-05-28T15:48:30Z</time>
      </trkpt>
      <trkpt lat="48.04777" lon="6.92169">
        <ele>1054</ele>
        <time>2022-05-28T15:48:31Z</time>
      </trkpt>
      <trkpt lat="48.04776" lon="6.92167">
        <ele>1053.1</ele>
        <time>2022-05-28T15:48:37Z</time>
      </trkpt>
      <trkpt lat="48.04776" lon="6.92167">
        <ele>1053.7</ele>
        <time>2022-05-28T15:48:51Z</time>
      </trkpt>
      <trkpt lat="48.04776" lon="6.92168">
        <ele>1053.4</ele>
        <time>2022-05-28T15:49:11Z</time>
      </trkpt>
      <trkpt lat="48.04771" lon="6.92182">
        <ele>1052.3</ele>
        <time>2022-05-28T15:49:17Z</time>
      </trkpt>
      <trkpt lat="48.04771" lon="6.92197">
        <ele>1050.1</ele>
        <time>2022-05-28T15:49:21Z</time>
      </trkpt>
      <trkpt lat="48.04774" lon="6.92209">
        <ele>1048.9</ele>
        <time>2022-05-28T15:49:24Z</time>
      </trkpt>
      <trkpt lat="48.0478" lon="6.92224">
        <ele>1051</ele>
        <time>2022-05-28T15:49:27Z</time>
      </trkpt>
      <trkpt lat="48.04781" lon="6.92243">
        <ele>1048.2</ele>
        <time>2022-05-28T15:49:30Z</time>
      </trkpt>
      <trkpt lat="48.0478" lon="6.92258">
        <ele>1046.9</ele>
        <time>2022-05-28T15:49:33Z</time>
      </trkpt>
      <trkpt lat="48.04781" lon="6.92271">
        <ele>1044.8</ele>
        <time>2022-05-28T15:49:38Z</time>
      </trkpt>
      <trkpt lat="48.04786" lon="6.92285">
        <ele>1043.6</ele>
        <time>2022-05-28T15:49:42Z</time>
      </trkpt>
      <trkpt lat="48.04788" lon="6.92299">
        <ele>1042</ele>
        <time>2022-05-28T15:49:45Z</time>
      </trkpt>
      <trkpt lat="48.04788" lon="6.92313">
        <ele>1042.6</ele>
        <time>2022-05-28T15:49:49Z</time>
      </trkpt>
      <trkpt lat="48.04793" lon="6.92327">
        <ele>1040</ele>
        <time>2022-05-28T15:49:52Z</time>
      </trkpt>
      <trkpt lat="48.04798" lon="6.92342">
        <ele>1040.1</ele>
        <time>2022-05-28T15:49:56Z</time>
      </trkpt>
      <trkpt lat="48.04801" lon="6.92358">
        <ele>1036.9</ele>
        <time>2022-05-28T15:50:00Z</time>
      </trkpt>
      <trkpt lat="48.04803" lon="6.92376">
        <ele>1034.8</ele>
        <time>2022-05-28T15:50:03Z</time>
      </trkpt>
      <trkpt lat="48.04807" lon="6.92393">
        <ele>1035.6</ele>
        <time>2022-05-28T15:50:06Z</time>
      </trkpt>
      <trkpt lat="48.04811" lon="6.92406">
        <ele>1032.3</ele>
        <time>2022-05-28T15:50:09Z</time>
      </trkpt>
      <trkpt lat="48.04813" lon="6.92421">
        <ele>1030.4</ele>
        <time>2022-05-28T15:50:12Z</time>
      </trkpt>
      <trkpt lat="48.04813" lon="6.92436">
        <ele>1029</ele>
        <time>2022-05-28T15:50:16Z</time>
      </trkpt>
      <trkpt lat="48.04812" lon="6.92451">
        <ele>1024.5</ele>
        <time>2022-05-28T15:50:21Z</time>
      </trkpt>
      <trkpt lat="48.04815" lon="6.92465">
        <ele>1023.2</ele>
        <time>2022-05-28T15:50:24Z</time>
      </trkpt>
      <trkpt lat="48.04819" lon="6.92479">
        <ele>1023.8</ele>
        <time>2022-05-28T15:50:27Z</time>
      </trkpt>
      <trkpt lat="48.04823" lon="6.92493">
        <ele>1024.4</ele>
        <time>2022-05-28T15:50:31Z</time>
      </trkpt>
      <trkpt lat="48.04829" lon="6.92506">
        <ele>1020.3</ele>
        <time>2022-05-28T15:50:35Z</time>
      </trkpt>
      <trkpt lat="48.0483" lon="6.92526">
        <ele>1016.8</ele>
        <time>2022-05-28T15:50:38Z</time>
      </trkpt>
      <trkpt lat="48.04831" lon="6.92541">
        <ele>1017.9</ele>
        <time>2022-05-28T15:50:42Z</time>
      </trkpt>
      <trkpt lat="48.0483" lon="6.92555">
        <ele>1015.9</ele>
        <time>2022-05-28T15:50:46Z</time>
      </trkpt>
      <trkpt lat="48.04834" lon="6.92571">
        <ele>1014.1</ele>
        <time>2022-05-28T15:50:50Z</time>
      </trkpt>
      <trkpt lat="48.04838" lon="6.92586">
        <ele>1012.7</ele>
        <time>2022-05-28T15:50:53Z</time>
      </trkpt>
      <trkpt lat="48.04836" lon="6.92601">
        <ele>1012.7</ele>
        <time>2022-05-28T15:50:56Z</time>
      </trkpt>
      <trkpt lat="48.04835" lon="6.92618">
        <ele>1009.4</ele>
        <time>2022-05-28T15:50:59Z</time>
      </trkpt>
      <trkpt lat="48.04836" lon="6.92633">
        <ele>1007.6</ele>
        <time>2022-05-28T15:51:02Z</time>
      </trkpt>
      <trkpt lat="48.0484" lon="6.92647">
        <ele>1006.5</ele>
        <time>2022-05-28T15:51:05Z</time>
      </trkpt>
      <trkpt lat="48.04844" lon="6.92662">
        <ele>1005.6</ele>
        <time>2022-05-28T15:51:07Z</time>
      </trkpt>
      <trkpt lat="48.04848" lon="6.92675">
        <ele>1003.1</ele>
        <time>2022-05-28T15:51:09Z</time>
      </trkpt>
      <trkpt lat="48.04852" lon="6.92688">
        <ele>1003.8</ele>
        <time>2022-05-28T15:51:12Z</time>
      </trkpt>
      <trkpt lat="48.04844" lon="6.92697">
        <ele>1001.3</ele>
        <time>2022-05-28T15:51:17Z</time>
      </trkpt>
      <trkpt lat="48.04837" lon="6.92688">
        <ele>1001</ele>
        <time>2022-05-28T15:51:21Z</time>
      </trkpt>
      <trkpt lat="48.04832" lon="6.92674">
        <ele>1001</ele>
        <time>2022-05-28T15:51:24Z</time>
      </trkpt>
      <trkpt lat="48.04825" lon="6.9266">
        <ele>998.2</ele>
        <time>2022-05-28T15:51:27Z</time>
      </trkpt>
      <trkpt lat="48.04822" lon="6.92673">
        <ele>995.7</ele>
        <time>2022-05-28T15:51:32Z</time>
      </trkpt>
      <trkpt lat="48.04827" lon="6.92689">
        <ele>994.8</ele>
        <time>2022-05-28T15:51:35Z</time>
      </trkpt>
      <trkpt lat="48.04832" lon="6.92703">
        <ele>993.1</ele>
        <time>2022-05-28T15:51:38Z</time>
      </trkpt>
      <trkpt lat="48.04838" lon="6.92716">
        <ele>992.3</ele>
        <time>2022-05-28T15:51:41Z</time>
      </trkpt>
      <trkpt lat="48.04841" lon="6.9273">
        <ele>991.7</ele>
        <time>2022-05-28T15:51:55Z</time>
      </trkpt>
      <trkpt lat="48.04841" lon="6.92731">
        <ele>991.4</ele>
        <time>2022-05-28T15:51:58Z</time>
      </trkpt>
      <trkpt lat="48.04838" lon="6.92733">
        <ele>989.9</ele>
        <time>2022-05-28T15:52:09Z</time>
      </trkpt>
      <trkpt lat="48.04838" lon="6.92732">
        <ele>989.9</ele>
        <time>2022-05-28T15:52:10Z</time>
      </trkpt>
      <trkpt lat="48.04838" lon="6.92731">
        <ele>989.9</ele>
        <time>2022-05-28T15:53:03Z</time>
      </trkpt>
      <trkpt lat="48.04828" lon="6.92733">
        <ele>987.2</ele>
        <time>2022-05-28T15:53:14Z</time>
      </trkpt>
      <trkpt lat="48.04821" lon="6.92743">
        <ele>983.9</ele>
        <time>2022-05-28T15:53:19Z</time>
      </trkpt>
      <trkpt lat="48.04811" lon="6.92746">
        <ele>985.2</ele>
        <time>2022-05-28T15:53:23Z</time>
      </trkpt>
      <trkpt lat="48.048" lon="6.92738">
        <ele>981.3</ele>
        <time>2022-05-28T15:53:26Z</time>
      </trkpt>
      <trkpt lat="48.04797" lon="6.92748">
        <ele>980.4</ele>
        <time>2022-05-28T15:53:32Z</time>
      </trkpt>
      <trkpt lat="48.04798" lon="6.92748">
        <ele>980.4</ele>
        <time>2022-05-28T15:53:46Z</time>
      </trkpt>
      <trkpt lat="48.04796" lon="6.92734">
        <ele>980.7</ele>
        <time>2022-05-28T15:54:18Z</time>
      </trkpt>
      <trkpt lat="48.04792" lon="6.92717">
        <ele>980.6</ele>
        <time>2022-05-28T15:54:23Z</time>
      </trkpt>
      <trkpt lat="48.04787" lon="6.92702">
        <ele>982</ele>
        <time>2022-05-28T15:54:27Z</time>
      </trkpt>
      <trkpt lat="48.0478" lon="6.92688">
        <ele>982</ele>
        <time>2022-05-28T15:54:31Z</time>
      </trkpt>
      <trkpt lat="48.04775" lon="6.92673">
        <ele>981.1</ele>
        <time>2022-05-28T15:54:35Z</time>
      </trkpt>
      <trkpt lat="48.0477" lon="6.92658">
        <ele>981.2</ele>
        <time>2022-05-28T15:54:38Z</time>
      </trkpt>
      <trkpt lat="48.04766" lon="6.92643">
        <ele>982.3</ele>
        <time>2022-05-28T15:54:41Z</time>
      </trkpt>
      <trkpt lat="48.04762" lon="6.92627">
        <ele>981.5</ele>
        <time>2022-05-28T15:54:44Z</time>
      </trkpt>
      <trkpt lat="48.04758" lon="6.92608">
        <ele>981.3</ele>
        <time>2022-05-28T15:54:47Z</time>
      </trkpt>
      <trkpt lat="48.04754" lon="6.92591">
        <ele>982.2</ele>
        <time>2022-05-28T15:54:50Z</time>
      </trkpt>
      <trkpt lat="48.04747" lon="6.92576">
        <ele>982.8</ele>
        <time>2022-05-28T15:54:53Z</time>
      </trkpt>
      <trkpt lat="48.04742" lon="6.9256">
        <ele>982.8</ele>
        <time>2022-05-28T15:54:56Z</time>
      </trkpt>
      <trkpt lat="48.04738" lon="6.92547">
        <ele>982.7</ele>
        <time>2022-05-28T15:54:58Z</time>
      </trkpt>
      <trkpt lat="48.04733" lon="6.92534">
        <ele>982.6</ele>
        <time>2022-05-28T15:55:00Z</time>
      </trkpt>
      <trkpt lat="48.04725" lon="6.92523">
        <ele>980</ele>
        <time>2022-05-28T15:55:02Z</time>
      </trkpt>
      <trkpt lat="48.04716" lon="6.92511">
        <ele>978.4</ele>
        <time>2022-05-28T15:55:04Z</time>
      </trkpt>
      <trkpt lat="48.04706" lon="6.92499">
        <ele>974.4</ele>
        <time>2022-05-28T15:55:06Z</time>
      </trkpt>
      <trkpt lat="48.04695" lon="6.92486">
        <ele>978.5</ele>
        <time>2022-05-28T15:55:08Z</time>
      </trkpt>
      <trkpt lat="48.04683" lon="6.92472">
        <ele>978.1</ele>
        <time>2022-05-28T15:55:10Z</time>
      </trkpt>
      <trkpt lat="48.04671" lon="6.92456">
        <ele>975.3</ele>
        <time>2022-05-28T15:55:12Z</time>
      </trkpt>
      <trkpt lat="48.04657" lon="6.92439">
        <ele>972.4</ele>
        <time>2022-05-28T15:55:14Z</time>
      </trkpt>
      <trkpt lat="48.04645" lon="6.92423">
        <ele>971.1</ele>
        <time>2022-05-28T15:55:16Z</time>
      </trkpt>
      <trkpt lat="48.04634" lon="6.9241">
        <ele>975.7</ele>
        <time>2022-05-28T15:55:18Z</time>
      </trkpt>
      <trkpt lat="48.04623" lon="6.92398">
        <ele>973.9</ele>
        <time>2022-05-28T15:55:20Z</time>
      </trkpt>
      <trkpt lat="48.04611" lon="6.92396">
        <ele>974.2</ele>
        <time>2022-05-28T15:55:22Z</time>
      </trkpt>
      <trkpt lat="48.046" lon="6.92398">
        <ele>975.5</ele>
        <time>2022-05-28T15:55:24Z</time>
      </trkpt>
      <trkpt lat="48.0459" lon="6.92403">
        <ele>976</ele>
        <time>2022-05-28T15:55:26Z</time>
      </trkpt>
      <trkpt lat="48.04579" lon="6.92409">
        <ele>978</ele>
        <time>2022-05-28T15:55:29Z</time>
      </trkpt>
      <trkpt lat="48.04568" lon="6.92417">
        <ele>977.3</ele>
        <time>2022-05-28T15:55:32Z</time>
      </trkpt>
      <trkpt lat="48.04559" lon="6.92424">
        <ele>977.8</ele>
        <time>2022-05-28T15:55:34Z</time>
      </trkpt>
      <trkpt lat="48.04551" lon="6.92431">
        <ele>977.2</ele>
        <time>2022-05-28T15:55:36Z</time>
      </trkpt>
      <trkpt lat="48.04539" lon="6.9244">
        <ele>976.9</ele>
        <time>2022-05-28T15:55:39Z</time>
      </trkpt>
      <trkpt lat="48.04529" lon="6.92449">
        <ele>976.4</ele>
        <time>2022-05-28T15:55:42Z</time>
      </trkpt>
      <trkpt lat="48.0452" lon="6.92458">
        <ele>979.4</ele>
        <time>2022-05-28T15:55:45Z</time>
      </trkpt>
      <trkpt lat="48.04513" lon="6.92468">
        <ele>980.1</ele>
        <time>2022-05-28T15:55:48Z</time>
      </trkpt>
      <trkpt lat="48.04506" lon="6.92477">
        <ele>981.3</ele>
        <time>2022-05-28T15:55:51Z</time>
      </trkpt>
      <trkpt lat="48.04497" lon="6.92488">
        <ele>982.8</ele>
        <time>2022-05-28T15:55:55Z</time>
      </trkpt>
      <trkpt lat="48.04488" lon="6.92494">
        <ele>984.3</ele>
        <time>2022-05-28T15:55:58Z</time>
      </trkpt>
      <trkpt lat="48.0448" lon="6.92498">
        <ele>984.2</ele>
        <time>2022-05-28T15:56:01Z</time>
      </trkpt>
      <trkpt lat="48.04471" lon="6.92504">
        <ele>984.5</ele>
        <time>2022-05-28T15:56:04Z</time>
      </trkpt>
      <trkpt lat="48.04462" lon="6.92512">
        <ele>986</ele>
        <time>2022-05-28T15:56:08Z</time>
      </trkpt>
      <trkpt lat="48.04456" lon="6.92523">
        <ele>986.4</ele>
        <time>2022-05-28T15:56:12Z</time>
      </trkpt>
      <trkpt lat="48.04449" lon="6.92533">
        <ele>984.6</ele>
        <time>2022-05-28T15:56:15Z</time>
      </trkpt>
      <trkpt lat="48.04444" lon="6.92545">
        <ele>983.5</ele>
        <time>2022-05-28T15:56:17Z</time>
      </trkpt>
      <trkpt lat="48.04437" lon="6.92561">
        <ele>981.9</ele>
        <time>2022-05-28T15:56:19Z</time>
      </trkpt>
      <trkpt lat="48.0443" lon="6.92579">
        <ele>981.4</ele>
        <time>2022-05-28T15:56:21Z</time>
      </trkpt>
      <trkpt lat="48.04421" lon="6.92597">
        <ele>976.9</ele>
        <time>2022-05-28T15:56:23Z</time>
      </trkpt>
      <trkpt lat="48.04409" lon="6.92612">
        <ele>975.3</ele>
        <time>2022-05-28T15:56:25Z</time>
      </trkpt>
      <trkpt lat="48.04396" lon="6.92624">
        <ele>973.4</ele>
        <time>2022-05-28T15:56:27Z</time>
      </trkpt>
      <trkpt lat="48.0438" lon="6.92635">
        <ele>973</ele>
        <time>2022-05-28T15:56:29Z</time>
      </trkpt>
      <trkpt lat="48.04371" lon="6.92641">
        <ele>972</ele>
        <time>2022-05-28T15:56:30Z</time>
      </trkpt>
      <trkpt lat="48.04362" lon="6.92645">
        <ele>969.8</ele>
        <time>2022-05-28T15:56:31Z</time>
      </trkpt>
      <trkpt lat="48.04353" lon="6.92647">
        <ele>970.5</ele>
        <time>2022-05-28T15:56:32Z</time>
      </trkpt>
      <trkpt lat="48.04343" lon="6.92647">
        <ele>972.4</ele>
        <time>2022-05-28T15:56:33Z</time>
      </trkpt>
      <trkpt lat="48.04334" lon="6.92645">
        <ele>969.7</ele>
        <time>2022-05-28T15:56:34Z</time>
      </trkpt>
      <trkpt lat="48.04325" lon="6.92644">
        <ele>968.5</ele>
        <time>2022-05-28T15:56:35Z</time>
      </trkpt>
      <trkpt lat="48.04309" lon="6.92647">
        <ele>971.2</ele>
        <time>2022-05-28T15:56:37Z</time>
      </trkpt>
      <trkpt lat="48.04295" lon="6.9265">
        <ele>972.2</ele>
        <time>2022-05-28T15:56:39Z</time>
      </trkpt>
      <trkpt lat="48.0428" lon="6.9265">
        <ele>970.5</ele>
        <time>2022-05-28T15:56:41Z</time>
      </trkpt>
      <trkpt lat="48.04266" lon="6.9265">
        <ele>971.3</ele>
        <time>2022-05-28T15:56:43Z</time>
      </trkpt>
      <trkpt lat="48.04253" lon="6.92648">
        <ele>969.5</ele>
        <time>2022-05-28T15:56:45Z</time>
      </trkpt>
      <trkpt lat="48.04241" lon="6.92644">
        <ele>972.4</ele>
        <time>2022-05-28T15:56:47Z</time>
      </trkpt>
      <trkpt lat="48.0423" lon="6.92639">
        <ele>972.6</ele>
        <time>2022-05-28T15:56:49Z</time>
      </trkpt>
      <trkpt lat="48.04219" lon="6.92632">
        <ele>972.6</ele>
        <time>2022-05-28T15:56:51Z</time>
      </trkpt>
      <trkpt lat="48.04208" lon="6.92626">
        <ele>972.4</ele>
        <time>2022-05-28T15:56:53Z</time>
      </trkpt>
      <trkpt lat="48.04196" lon="6.92619">
        <ele>972.7</ele>
        <time>2022-05-28T15:56:55Z</time>
      </trkpt>
      <trkpt lat="48.04184" lon="6.92613">
        <ele>973.3</ele>
        <time>2022-05-28T15:56:57Z</time>
      </trkpt>
      <trkpt lat="48.0417" lon="6.92608">
        <ele>973.7</ele>
        <time>2022-05-28T15:56:59Z</time>
      </trkpt>
      <trkpt lat="48.04155" lon="6.92602">
        <ele>972.2</ele>
        <time>2022-05-28T15:57:01Z</time>
      </trkpt>
      <trkpt lat="48.0414" lon="6.92594">
        <ele>973.2</ele>
        <time>2022-05-28T15:57:03Z</time>
      </trkpt>
      <trkpt lat="48.04126" lon="6.92579">
        <ele>973.3</ele>
        <time>2022-05-28T15:57:05Z</time>
      </trkpt>
      <trkpt lat="48.04114" lon="6.92569">
        <ele>973.9</ele>
        <time>2022-05-28T15:57:07Z</time>
      </trkpt>
      <trkpt lat="48.04104" lon="6.92562">
        <ele>974.8</ele>
        <time>2022-05-28T15:57:09Z</time>
      </trkpt>
      <trkpt lat="48.04092" lon="6.92556">
        <ele>975.4</ele>
        <time>2022-05-28T15:57:11Z</time>
      </trkpt>
      <trkpt lat="48.04082" lon="6.9255">
        <ele>973.5</ele>
        <time>2022-05-28T15:57:13Z</time>
      </trkpt>
      <trkpt lat="48.04071" lon="6.92543">
        <ele>972.1</ele>
        <time>2022-05-28T15:57:16Z</time>
      </trkpt>
      <trkpt lat="48.04061" lon="6.92534">
        <ele>971.9</ele>
        <time>2022-05-28T15:57:19Z</time>
      </trkpt>
      <trkpt lat="48.04049" lon="6.92524">
        <ele>968</ele>
        <time>2022-05-28T15:57:22Z</time>
      </trkpt>
      <trkpt lat="48.04039" lon="6.92517">
        <ele>969.3</ele>
        <time>2022-05-28T15:57:24Z</time>
      </trkpt>
      <trkpt lat="48.04027" lon="6.92512">
        <ele>966.8</ele>
        <time>2022-05-28T15:57:26Z</time>
      </trkpt>
      <trkpt lat="48.04013" lon="6.92509">
        <ele>966.4</ele>
        <time>2022-05-28T15:57:28Z</time>
      </trkpt>
      <trkpt lat="48.04" lon="6.92504">
        <ele>965.9</ele>
        <time>2022-05-28T15:57:30Z</time>
      </trkpt>
      <trkpt lat="48.03987" lon="6.92498">
        <ele>961.6</ele>
        <time>2022-05-28T15:57:32Z</time>
      </trkpt>
      <trkpt lat="48.03973" lon="6.92488">
        <ele>959</ele>
        <time>2022-05-28T15:57:34Z</time>
      </trkpt>
      <trkpt lat="48.03959" lon="6.92471">
        <ele>956.5</ele>
        <time>2022-05-28T15:57:36Z</time>
      </trkpt>
      <trkpt lat="48.03952" lon="6.92461">
        <ele>955.1</ele>
        <time>2022-05-28T15:57:37Z</time>
      </trkpt>
      <trkpt lat="48.03946" lon="6.9245">
        <ele>953</ele>
        <time>2022-05-28T15:57:38Z</time>
      </trkpt>
      <trkpt lat="48.0394" lon="6.92439">
        <ele>955</ele>
        <time>2022-05-28T15:57:39Z</time>
      </trkpt>
      <trkpt lat="48.03935" lon="6.92427">
        <ele>955.2</ele>
        <time>2022-05-28T15:57:40Z</time>
      </trkpt>
      <trkpt lat="48.0393" lon="6.92416">
        <ele>954.5</ele>
        <time>2022-05-28T15:57:41Z</time>
      </trkpt>
      <trkpt lat="48.03921" lon="6.92393">
        <ele>955.5</ele>
        <time>2022-05-28T15:57:43Z</time>
      </trkpt>
      <trkpt lat="48.03916" lon="6.9237">
        <ele>956.5</ele>
        <time>2022-05-28T15:57:45Z</time>
      </trkpt>
      <trkpt lat="48.03914" lon="6.92346">
        <ele>952.5</ele>
        <time>2022-05-28T15:57:47Z</time>
      </trkpt>
      <trkpt lat="48.03916" lon="6.92326">
        <ele>956</ele>
        <time>2022-05-28T15:57:49Z</time>
      </trkpt>
      <trkpt lat="48.03922" lon="6.92308">
        <ele>955.7</ele>
        <time>2022-05-28T15:57:51Z</time>
      </trkpt>
      <trkpt lat="48.03924" lon="6.92292">
        <ele>954.6</ele>
        <time>2022-05-28T15:57:53Z</time>
      </trkpt>
      <trkpt lat="48.03917" lon="6.92277">
        <ele>955.9</ele>
        <time>2022-05-28T15:57:55Z</time>
      </trkpt>
      <trkpt lat="48.03906" lon="6.92266">
        <ele>955</ele>
        <time>2022-05-28T15:57:57Z</time>
      </trkpt>
      <trkpt lat="48.03892" lon="6.92253">
        <ele>950.9</ele>
        <time>2022-05-28T15:57:59Z</time>
      </trkpt>
      <trkpt lat="48.03885" lon="6.92245">
        <ele>951.2</ele>
        <time>2022-05-28T15:58:00Z</time>
      </trkpt>
      <trkpt lat="48.0387" lon="6.92229">
        <ele>952.1</ele>
        <time>2022-05-28T15:58:02Z</time>
      </trkpt>
      <trkpt lat="48.03857" lon="6.92215">
        <ele>952.2</ele>
        <time>2022-05-28T15:58:04Z</time>
      </trkpt>
      <trkpt lat="48.03843" lon="6.92201">
        <ele>952</ele>
        <time>2022-05-28T15:58:06Z</time>
      </trkpt>
      <trkpt lat="48.0383" lon="6.9219">
        <ele>950.6</ele>
        <time>2022-05-28T15:58:08Z</time>
      </trkpt>
      <trkpt lat="48.03817" lon="6.92177">
        <ele>950.1</ele>
        <time>2022-05-28T15:58:10Z</time>
      </trkpt>
      <trkpt lat="48.03806" lon="6.92162">
        <ele>951</ele>
        <time>2022-05-28T15:58:12Z</time>
      </trkpt>
      <trkpt lat="48.03797" lon="6.92148">
        <ele>949.8</ele>
        <time>2022-05-28T15:58:14Z</time>
      </trkpt>
      <trkpt lat="48.03787" lon="6.92136">
        <ele>948.9</ele>
        <time>2022-05-28T15:58:16Z</time>
      </trkpt>
      <trkpt lat="48.03776" lon="6.92126">
        <ele>948.9</ele>
        <time>2022-05-28T15:58:18Z</time>
      </trkpt>
      <trkpt lat="48.03764" lon="6.92119">
        <ele>948.2</ele>
        <time>2022-05-28T15:58:20Z</time>
      </trkpt>
      <trkpt lat="48.03755" lon="6.9211">
        <ele>947.6</ele>
        <time>2022-05-28T15:58:22Z</time>
      </trkpt>
      <trkpt lat="48.03747" lon="6.92098">
        <ele>949.2</ele>
        <time>2022-05-28T15:58:24Z</time>
      </trkpt>
      <trkpt lat="48.0374" lon="6.92086">
        <ele>949.7</ele>
        <time>2022-05-28T15:58:26Z</time>
      </trkpt>
      <trkpt lat="48.03736" lon="6.92074">
        <ele>948.7</ele>
        <time>2022-05-28T15:58:28Z</time>
      </trkpt>
      <trkpt lat="48.0373" lon="6.92063">
        <ele>947.6</ele>
        <time>2022-05-28T15:58:31Z</time>
      </trkpt>
      <trkpt lat="48.03719" lon="6.92056">
        <ele>948.6</ele>
        <time>2022-05-28T15:58:35Z</time>
      </trkpt>
      <trkpt lat="48.03711" lon="6.92048">
        <ele>947.2</ele>
        <time>2022-05-28T15:58:38Z</time>
      </trkpt>
      <trkpt lat="48.03705" lon="6.92038">
        <ele>946.5</ele>
        <time>2022-05-28T15:58:41Z</time>
      </trkpt>
      <trkpt lat="48.03698" lon="6.92024">
        <ele>946.7</ele>
        <time>2022-05-28T15:58:44Z</time>
      </trkpt>
      <trkpt lat="48.0369" lon="6.92007">
        <ele>946.8</ele>
        <time>2022-05-28T15:58:47Z</time>
      </trkpt>
      <trkpt lat="48.03684" lon="6.91996">
        <ele>946.4</ele>
        <time>2022-05-28T15:58:49Z</time>
      </trkpt>
      <trkpt lat="48.03677" lon="6.9198">
        <ele>946.5</ele>
        <time>2022-05-28T15:58:52Z</time>
      </trkpt>
      <trkpt lat="48.0367" lon="6.91967">
        <ele>947.9</ele>
        <time>2022-05-28T15:58:55Z</time>
      </trkpt>
      <trkpt lat="48.03665" lon="6.91954">
        <ele>948.2</ele>
        <time>2022-05-28T15:58:58Z</time>
      </trkpt>
      <trkpt lat="48.03659" lon="6.91937">
        <ele>948.4</ele>
        <time>2022-05-28T15:59:01Z</time>
      </trkpt>
      <trkpt lat="48.03653" lon="6.91926">
        <ele>947.6</ele>
        <time>2022-05-28T15:59:04Z</time>
      </trkpt>
      <trkpt lat="48.03645" lon="6.9191">
        <ele>948.9</ele>
        <time>2022-05-28T15:59:08Z</time>
      </trkpt>
      <trkpt lat="48.03639" lon="6.91896">
        <ele>948.4</ele>
        <time>2022-05-28T15:59:11Z</time>
      </trkpt>
      <trkpt lat="48.03632" lon="6.91882">
        <ele>950.4</ele>
        <time>2022-05-28T15:59:14Z</time>
      </trkpt>
      <trkpt lat="48.03627" lon="6.91868">
        <ele>949.2</ele>
        <time>2022-05-28T15:59:17Z</time>
      </trkpt>
      <trkpt lat="48.03623" lon="6.91849">
        <ele>947.5</ele>
        <time>2022-05-28T15:59:20Z</time>
      </trkpt>
      <trkpt lat="48.03622" lon="6.91836">
        <ele>945.9</ele>
        <time>2022-05-28T15:59:22Z</time>
      </trkpt>
      <trkpt lat="48.03617" lon="6.91823">
        <ele>949</ele>
        <time>2022-05-28T15:59:24Z</time>
      </trkpt>
      <trkpt lat="48.03611" lon="6.91814">
        <ele>947</ele>
        <time>2022-05-28T15:59:26Z</time>
      </trkpt>
      <trkpt lat="48.03603" lon="6.91802">
        <ele>947.7</ele>
        <time>2022-05-28T15:59:29Z</time>
      </trkpt>
      <trkpt lat="48.03596" lon="6.91786">
        <ele>947.9</ele>
        <time>2022-05-28T15:59:33Z</time>
      </trkpt>
      <trkpt lat="48.03592" lon="6.91775">
        <ele>948.2</ele>
        <time>2022-05-28T15:59:35Z</time>
      </trkpt>
      <trkpt lat="48.03586" lon="6.91761">
        <ele>945</ele>
        <time>2022-05-28T15:59:37Z</time>
      </trkpt>
      <trkpt lat="48.0358" lon="6.91748">
        <ele>944.8</ele>
        <time>2022-05-28T15:59:39Z</time>
      </trkpt>
      <trkpt lat="48.03574" lon="6.91737">
        <ele>945.9</ele>
        <time>2022-05-28T15:59:41Z</time>
      </trkpt>
      <trkpt lat="48.03565" lon="6.91722">
        <ele>947</ele>
        <time>2022-05-28T15:59:44Z</time>
      </trkpt>
      <trkpt lat="48.03559" lon="6.91711">
        <ele>943.5</ele>
        <time>2022-05-28T15:59:46Z</time>
      </trkpt>
      <trkpt lat="48.03552" lon="6.91697">
        <ele>943.5</ele>
        <time>2022-05-28T15:59:49Z</time>
      </trkpt>
      <trkpt lat="48.03545" lon="6.91686">
        <ele>942.4</ele>
        <time>2022-05-28T15:59:52Z</time>
      </trkpt>
      <trkpt lat="48.03537" lon="6.91677">
        <ele>940.1</ele>
        <time>2022-05-28T15:59:55Z</time>
      </trkpt>
      <trkpt lat="48.03528" lon="6.91672">
        <ele>940.6</ele>
        <time>2022-05-28T15:59:58Z</time>
      </trkpt>
      <trkpt lat="48.03517" lon="6.91664">
        <ele>936.4</ele>
        <time>2022-05-28T16:00:01Z</time>
      </trkpt>
      <trkpt lat="48.03509" lon="6.91656">
        <ele>938.3</ele>
        <time>2022-05-28T16:00:03Z</time>
      </trkpt>
      <trkpt lat="48.03501" lon="6.91648">
        <ele>938.3</ele>
        <time>2022-05-28T16:00:05Z</time>
      </trkpt>
      <trkpt lat="48.03493" lon="6.91642">
        <ele>938.3</ele>
        <time>2022-05-28T16:00:07Z</time>
      </trkpt>
      <trkpt lat="48.03481" lon="6.91632">
        <ele>938.4</ele>
        <time>2022-05-28T16:00:10Z</time>
      </trkpt>
      <trkpt lat="48.03468" lon="6.91626">
        <ele>934.3</ele>
        <time>2022-05-28T16:00:13Z</time>
      </trkpt>
      <trkpt lat="48.03458" lon="6.9162">
        <ele>932.5</ele>
        <time>2022-05-28T16:00:15Z</time>
      </trkpt>
      <trkpt lat="48.03447" lon="6.91613">
        <ele>932.5</ele>
        <time>2022-05-28T16:00:17Z</time>
      </trkpt>
      <trkpt lat="48.03435" lon="6.91608">
        <ele>928.7</ele>
        <time>2022-05-28T16:00:19Z</time>
      </trkpt>
      <trkpt lat="48.03424" lon="6.91604">
        <ele>932.4</ele>
        <time>2022-05-28T16:00:21Z</time>
      </trkpt>
      <trkpt lat="48.03412" lon="6.91602">
        <ele>931.3</ele>
        <time>2022-05-28T16:00:23Z</time>
      </trkpt>
      <trkpt lat="48.034" lon="6.91599">
        <ele>928.3</ele>
        <time>2022-05-28T16:00:25Z</time>
      </trkpt>
      <trkpt lat="48.03387" lon="6.91599">
        <ele>928.3</ele>
        <time>2022-05-28T16:00:27Z</time>
      </trkpt>
      <trkpt lat="48.03376" lon="6.91599">
        <ele>927.6</ele>
        <time>2022-05-28T16:00:29Z</time>
      </trkpt>
      <trkpt lat="48.03363" lon="6.91597">
        <ele>927.9</ele>
        <time>2022-05-28T16:00:31Z</time>
      </trkpt>
      <trkpt lat="48.03351" lon="6.91593">
        <ele>928.5</ele>
        <time>2022-05-28T16:00:33Z</time>
      </trkpt>
      <trkpt lat="48.03338" lon="6.9159">
        <ele>930.6</ele>
        <time>2022-05-28T16:00:35Z</time>
      </trkpt>
      <trkpt lat="48.03325" lon="6.9159">
        <ele>928.7</ele>
        <time>2022-05-28T16:00:37Z</time>
      </trkpt>
      <trkpt lat="48.03311" lon="6.91589">
        <ele>922.2</ele>
        <time>2022-05-28T16:00:39Z</time>
      </trkpt>
      <trkpt lat="48.03297" lon="6.91587">
        <ele>922.7</ele>
        <time>2022-05-28T16:00:41Z</time>
      </trkpt>
      <trkpt lat="48.03283" lon="6.91583">
        <ele>922.6</ele>
        <time>2022-05-28T16:00:43Z</time>
      </trkpt>
      <trkpt lat="48.03271" lon="6.9158">
        <ele>920.3</ele>
        <time>2022-05-28T16:00:45Z</time>
      </trkpt>
      <trkpt lat="48.03262" lon="6.91578">
        <ele>922.8</ele>
        <time>2022-05-28T16:00:47Z</time>
      </trkpt>
      <trkpt lat="48.03251" lon="6.91578">
        <ele>920.5</ele>
        <time>2022-05-28T16:00:49Z</time>
      </trkpt>
      <trkpt lat="48.03238" lon="6.91577">
        <ele>920.5</ele>
        <time>2022-05-28T16:00:51Z</time>
      </trkpt>
      <trkpt lat="48.03225" lon="6.91576">
        <ele>918.1</ele>
        <time>2022-05-28T16:00:53Z</time>
      </trkpt>
      <trkpt lat="48.03212" lon="6.91576">
        <ele>915.1</ele>
        <time>2022-05-28T16:00:55Z</time>
      </trkpt>
      <trkpt lat="48.03199" lon="6.91575">
        <ele>919.3</ele>
        <time>2022-05-28T16:00:57Z</time>
      </trkpt>
      <trkpt lat="48.03188" lon="6.91574">
        <ele>912.7</ele>
        <time>2022-05-28T16:00:59Z</time>
      </trkpt>
      <trkpt lat="48.03178" lon="6.91574">
        <ele>916.5</ele>
        <time>2022-05-28T16:01:03Z</time>
      </trkpt>
      <trkpt lat="48.03179" lon="6.91579">
        <ele>916</ele>
        <time>2022-05-28T16:01:08Z</time>
      </trkpt>
      <trkpt lat="48.0318" lon="6.91579">
        <ele>915.6</ele>
        <time>2022-05-28T16:01:24Z</time>
      </trkpt>
      <trkpt lat="48.0319" lon="6.91584">
        <ele>913.7</ele>
        <time>2022-05-28T16:01:28Z</time>
      </trkpt>
      <trkpt lat="48.03199" lon="6.91589">
        <ele>912.7</ele>
        <time>2022-05-28T16:01:30Z</time>
      </trkpt>
      <trkpt lat="48.03208" lon="6.91594">
        <ele>911.4</ele>
        <time>2022-05-28T16:01:32Z</time>
      </trkpt>
      <trkpt lat="48.03217" lon="6.91599">
        <ele>911.2</ele>
        <time>2022-05-28T16:01:34Z</time>
      </trkpt>
      <trkpt lat="48.03226" lon="6.91605">
        <ele>910.7</ele>
        <time>2022-05-28T16:01:36Z</time>
      </trkpt>
      <trkpt lat="48.03236" lon="6.91612">
        <ele>909.4</ele>
        <time>2022-05-28T16:01:38Z</time>
      </trkpt>
      <trkpt lat="48.03248" lon="6.9162">
        <ele>908.2</ele>
        <time>2022-05-28T16:01:40Z</time>
      </trkpt>
      <trkpt lat="48.03258" lon="6.91632">
        <ele>907.5</ele>
        <time>2022-05-28T16:01:42Z</time>
      </trkpt>
      <trkpt lat="48.03268" lon="6.91644">
        <ele>907.6</ele>
        <time>2022-05-28T16:01:44Z</time>
      </trkpt>
      <trkpt lat="48.0328" lon="6.91652">
        <ele>907.6</ele>
        <time>2022-05-28T16:01:46Z</time>
      </trkpt>
      <trkpt lat="48.03294" lon="6.91658">
        <ele>906.6</ele>
        <time>2022-05-28T16:01:48Z</time>
      </trkpt>
      <trkpt lat="48.03308" lon="6.91666">
        <ele>904.8</ele>
        <time>2022-05-28T16:01:50Z</time>
      </trkpt>
      <trkpt lat="48.03322" lon="6.91678">
        <ele>903.3</ele>
        <time>2022-05-28T16:01:52Z</time>
      </trkpt>
      <trkpt lat="48.03333" lon="6.91691">
        <ele>902.5</ele>
        <time>2022-05-28T16:01:54Z</time>
      </trkpt>
      <trkpt lat="48.03341" lon="6.91707">
        <ele>902.2</ele>
        <time>2022-05-28T16:01:56Z</time>
      </trkpt>
      <trkpt lat="48.03344" lon="6.91722">
        <ele>900.6</ele>
        <time>2022-05-28T16:01:58Z</time>
      </trkpt>
      <trkpt lat="48.03339" lon="6.91736">
        <ele>898.8</ele>
        <time>2022-05-28T16:02:00Z</time>
      </trkpt>
      <trkpt lat="48.03327" lon="6.91743">
        <ele>896.1</ele>
        <time>2022-05-28T16:02:02Z</time>
      </trkpt>
      <trkpt lat="48.03317" lon="6.9175">
        <ele>894.8</ele>
        <time>2022-05-28T16:02:04Z</time>
      </trkpt>
      <trkpt lat="48.03315" lon="6.91763">
        <ele>893.5</ele>
        <time>2022-05-28T16:02:06Z</time>
      </trkpt>
      <trkpt lat="48.0332" lon="6.91777">
        <ele>892.5</ele>
        <time>2022-05-28T16:02:08Z</time>
      </trkpt>
      <trkpt lat="48.03329" lon="6.9179">
        <ele>891</ele>
        <time>2022-05-28T16:02:10Z</time>
      </trkpt>
      <trkpt lat="48.0334" lon="6.91804">
        <ele>889</ele>
        <time>2022-05-28T16:02:12Z</time>
      </trkpt>
      <trkpt lat="48.03352" lon="6.91821">
        <ele>887.9</ele>
        <time>2022-05-28T16:02:14Z</time>
      </trkpt>
      <trkpt lat="48.03363" lon="6.91838">
        <ele>886.9</ele>
        <time>2022-05-28T16:02:16Z</time>
      </trkpt>
      <trkpt lat="48.03371" lon="6.91859">
        <ele>884.9</ele>
        <time>2022-05-28T16:02:18Z</time>
      </trkpt>
      <trkpt lat="48.03373" lon="6.91873">
        <ele>883.6</ele>
        <time>2022-05-28T16:02:19Z</time>
      </trkpt>
      <trkpt lat="48.03376" lon="6.91886">
        <ele>882.8</ele>
        <time>2022-05-28T16:02:20Z</time>
      </trkpt>
      <trkpt lat="48.03379" lon="6.919">
        <ele>882.3</ele>
        <time>2022-05-28T16:02:21Z</time>
      </trkpt>
      <trkpt lat="48.03384" lon="6.91912">
        <ele>881.4</ele>
        <time>2022-05-28T16:02:22Z</time>
      </trkpt>
      <trkpt lat="48.03394" lon="6.91933">
        <ele>879.2</ele>
        <time>2022-05-28T16:02:24Z</time>
      </trkpt>
      <trkpt lat="48.034" lon="6.91944">
        <ele>878.5</ele>
        <time>2022-05-28T16:02:25Z</time>
      </trkpt>
      <trkpt lat="48.03405" lon="6.91956">
        <ele>877.2</ele>
        <time>2022-05-28T16:02:26Z</time>
      </trkpt>
      <trkpt lat="48.03408" lon="6.91969">
        <ele>876.3</ele>
        <time>2022-05-28T16:02:27Z</time>
      </trkpt>
      <trkpt lat="48.03411" lon="6.91983">
        <ele>874.5</ele>
        <time>2022-05-28T16:02:28Z</time>
      </trkpt>
      <trkpt lat="48.03414" lon="6.91996">
        <ele>871.6</ele>
        <time>2022-05-28T16:02:29Z</time>
      </trkpt>
      <trkpt lat="48.03418" lon="6.92009">
        <ele>869.9</ele>
        <time>2022-05-28T16:02:30Z</time>
      </trkpt>
      <trkpt lat="48.03424" lon="6.92022">
        <ele>868.4</ele>
        <time>2022-05-28T16:02:31Z</time>
      </trkpt>
      <trkpt lat="48.03431" lon="6.92035">
        <ele>867</ele>
        <time>2022-05-28T16:02:32Z</time>
      </trkpt>
      <trkpt lat="48.03438" lon="6.92048">
        <ele>865.8</ele>
        <time>2022-05-28T16:02:33Z</time>
      </trkpt>
      <trkpt lat="48.03445" lon="6.9206">
        <ele>864.6</ele>
        <time>2022-05-28T16:02:34Z</time>
      </trkpt>
      <trkpt lat="48.03453" lon="6.92073">
        <ele>863.5</ele>
        <time>2022-05-28T16:02:35Z</time>
      </trkpt>
      <trkpt lat="48.0346" lon="6.92086">
        <ele>863</ele>
        <time>2022-05-28T16:02:36Z</time>
      </trkpt>
      <trkpt lat="48.03467" lon="6.921">
        <ele>862.9</ele>
        <time>2022-05-28T16:02:37Z</time>
      </trkpt>
      <trkpt lat="48.03474" lon="6.92113">
        <ele>862.3</ele>
        <time>2022-05-28T16:02:38Z</time>
      </trkpt>
      <trkpt lat="48.03479" lon="6.92125">
        <ele>861.5</ele>
        <time>2022-05-28T16:02:39Z</time>
      </trkpt>
      <trkpt lat="48.03484" lon="6.92137">
        <ele>860.7</ele>
        <time>2022-05-28T16:02:40Z</time>
      </trkpt>
      <trkpt lat="48.0349" lon="6.92149">
        <ele>859.9</ele>
        <time>2022-05-28T16:02:41Z</time>
      </trkpt>
      <trkpt lat="48.035" lon="6.9217">
        <ele>858.1</ele>
        <time>2022-05-28T16:02:43Z</time>
      </trkpt>
      <trkpt lat="48.03506" lon="6.92181">
        <ele>857</ele>
        <time>2022-05-28T16:02:44Z</time>
      </trkpt>
      <trkpt lat="48.03511" lon="6.92192">
        <ele>856.1</ele>
        <time>2022-05-28T16:02:45Z</time>
      </trkpt>
      <trkpt lat="48.03517" lon="6.92203">
        <ele>854.8</ele>
        <time>2022-05-28T16:02:46Z</time>
      </trkpt>
      <trkpt lat="48.03524" lon="6.92214">
        <ele>853.6</ele>
        <time>2022-05-28T16:02:47Z</time>
      </trkpt>
      <trkpt lat="48.0353" lon="6.92225">
        <ele>852.8</ele>
        <time>2022-05-28T16:02:48Z</time>
      </trkpt>
      <trkpt lat="48.03538" lon="6.92235">
        <ele>852.1</ele>
        <time>2022-05-28T16:02:49Z</time>
      </trkpt>
      <trkpt lat="48.03545" lon="6.92245">
        <ele>851.7</ele>
        <time>2022-05-28T16:02:50Z</time>
      </trkpt>
      <trkpt lat="48.03553" lon="6.92253">
        <ele>851.3</ele>
        <time>2022-05-28T16:02:51Z</time>
      </trkpt>
      <trkpt lat="48.03561" lon="6.92263">
        <ele>851.1</ele>
        <time>2022-05-28T16:02:52Z</time>
      </trkpt>
      <trkpt lat="48.03568" lon="6.92274">
        <ele>851.1</ele>
        <time>2022-05-28T16:02:53Z</time>
      </trkpt>
      <trkpt lat="48.03574" lon="6.92286">
        <ele>851.5</ele>
        <time>2022-05-28T16:02:54Z</time>
      </trkpt>
      <trkpt lat="48.03578" lon="6.92298">
        <ele>851.6</ele>
        <time>2022-05-28T16:02:55Z</time>
      </trkpt>
      <trkpt lat="48.03582" lon="6.92312">
        <ele>850.7</ele>
        <time>2022-05-28T16:02:56Z</time>
      </trkpt>
      <trkpt lat="48.03585" lon="6.92325">
        <ele>850.8</ele>
        <time>2022-05-28T16:02:57Z</time>
      </trkpt>
      <trkpt lat="48.03589" lon="6.92349">
        <ele>850.9</ele>
        <time>2022-05-28T16:02:59Z</time>
      </trkpt>
      <trkpt lat="48.03592" lon="6.92372">
        <ele>849.6</ele>
        <time>2022-05-28T16:03:01Z</time>
      </trkpt>
      <trkpt lat="48.03593" lon="6.92395">
        <ele>850</ele>
        <time>2022-05-28T16:03:03Z</time>
      </trkpt>
      <trkpt lat="48.03591" lon="6.92416">
        <ele>849.1</ele>
        <time>2022-05-28T16:03:05Z</time>
      </trkpt>
      <trkpt lat="48.03586" lon="6.92435">
        <ele>849.9</ele>
        <time>2022-05-28T16:03:07Z</time>
      </trkpt>
      <trkpt lat="48.03582" lon="6.92454">
        <ele>849</ele>
        <time>2022-05-28T16:03:09Z</time>
      </trkpt>
      <trkpt lat="48.03577" lon="6.92471">
        <ele>848.3</ele>
        <time>2022-05-28T16:03:11Z</time>
      </trkpt>
      <trkpt lat="48.03573" lon="6.92485">
        <ele>847.3</ele>
        <time>2022-05-28T16:03:13Z</time>
      </trkpt>
      <trkpt lat="48.03572" lon="6.925">
        <ele>847.5</ele>
        <time>2022-05-28T16:03:16Z</time>
      </trkpt>
      <trkpt lat="48.03579" lon="6.92511">
        <ele>848.5</ele>
        <time>2022-05-28T16:03:20Z</time>
      </trkpt>
      <trkpt lat="48.03584" lon="6.92523">
        <ele>848.9</ele>
        <time>2022-05-28T16:03:24Z</time>
      </trkpt>
      <trkpt lat="48.03591" lon="6.92533">
        <ele>849.3</ele>
        <time>2022-05-28T16:03:28Z</time>
      </trkpt>
      <trkpt lat="48.03598" lon="6.92543">
        <ele>849.2</ele>
        <time>2022-05-28T16:03:32Z</time>
      </trkpt>
      <trkpt lat="48.03607" lon="6.92554">
        <ele>850.2</ele>
        <time>2022-05-28T16:03:36Z</time>
      </trkpt>
      <trkpt lat="48.03616" lon="6.92565">
        <ele>851.4</ele>
        <time>2022-05-28T16:03:40Z</time>
      </trkpt>
      <trkpt lat="48.03623" lon="6.92574">
        <ele>851.5</ele>
        <time>2022-05-28T16:03:43Z</time>
      </trkpt>
      <trkpt lat="48.03632" lon="6.92585">
        <ele>851.6</ele>
        <time>2022-05-28T16:03:47Z</time>
      </trkpt>
      <trkpt lat="48.03641" lon="6.92591">
        <ele>852.4</ele>
        <time>2022-05-28T16:03:51Z</time>
      </trkpt>
      <trkpt lat="48.03645" lon="6.92577">
        <ele>853.8</ele>
        <time>2022-05-28T16:03:55Z</time>
      </trkpt>
      <trkpt lat="48.0364" lon="6.92564">
        <ele>853.9</ele>
        <time>2022-05-28T16:03:58Z</time>
      </trkpt>
      <trkpt lat="48.03633" lon="6.92552">
        <ele>853.2</ele>
        <time>2022-05-28T16:04:01Z</time>
      </trkpt>
      <trkpt lat="48.03625" lon="6.92537">
        <ele>852.8</ele>
        <time>2022-05-28T16:04:04Z</time>
      </trkpt>
      <trkpt lat="48.03618" lon="6.92523">
        <ele>853.1</ele>
        <time>2022-05-28T16:04:07Z</time>
      </trkpt>
      <trkpt lat="48.03611" lon="6.92511">
        <ele>854.2</ele>
        <time>2022-05-28T16:04:10Z</time>
      </trkpt>
      <trkpt lat="48.03606" lon="6.92499">
        <ele>854.9</ele>
        <time>2022-05-28T16:04:14Z</time>
      </trkpt>
      <trkpt lat="48.03603" lon="6.92485">
        <ele>856.6</ele>
        <time>2022-05-28T16:04:22Z</time>
      </trkpt>
      <trkpt lat="48.03598" lon="6.92474">
        <ele>857.4</ele>
        <time>2022-05-28T16:04:29Z</time>
      </trkpt>
      <trkpt lat="48.03606" lon="6.92469">
        <ele>857.6</ele>
        <time>2022-05-28T16:04:39Z</time>
      </trkpt>
      <trkpt lat="48.03607" lon="6.92469">
        <ele>857.6</ele>
        <time>2022-05-28T16:04:43Z</time>
      </trkpt>
      <trkpt lat="48.03608" lon="6.92469">
        <ele>857.3</ele>
        <time>2022-05-28T16:04:48Z</time>
      </trkpt>
      <trkpt lat="48.03607" lon="6.92469">
        <ele>857.4</ele>
        <time>2022-05-28T16:05:00Z</time>
      </trkpt>
      <trkpt lat="48.03608" lon="6.92469">
        <ele>857.1</ele>
        <time>2022-05-28T16:06:01Z</time>
      </trkpt>
    </trkseg>
  </trk>
</gpx>